<?xml version="1.0" encoding="UTF-8" standalone="no" ?>
<gpx xmlns="http://www.topografix.com/GPX/1/1" xmlns:xsi="http://www.w3.org/2001/XMLSchema-instance" xsi:schemaLocation="http://www.topografix.com/GPX/1/1 http://www.topografix.com/GPX/1/1/gpx.xsd" version="1.1" creator="VisuGPX - https://www.visugpx.com">
  <metadata>
    <name>Les Granges de la Brasque à partir du Suquet</name>
    <desc><![CDATA[Superbe rando qui commence par monter jusqu'aux granges puis descendre par la trace habituelle qui va sur Lantosque et bifurquer à droite à la baisse de Candelard pour finir par la TV 2017 jusqu'au Suquet.
Malheureusement la mémoire m'ayant fait défaut je n'ai pas retrouver toute la trace, et donc nous avons varianté la finale.
Je vais ressortir la trace de la TV 2017 pour récupérer le tronçon manquant.
Parking au Suquet monter à Pélasque par la route puis le sentier à gauche, on passe l'hélice puis un peu, de portage et on termine par un gros pourcentage.
Lorqu'on arrive sur la route on prend à droite jusqu'au grand bâtiment militaire et le départ du chemin est en face.
]]></desc>
  </metadata>
  <trk>
    <name><![CDATA[20180805095926-ksU4z]]></name>
    <trkseg>
      <trkpt lat="43.94278" lon="7.28286">
        <ele>344</ele>
        <time>2018-07-28T07:24:01.000Z</time>
      </trkpt>
      <trkpt lat="43.94276" lon="7.28286">
        <ele>344</ele>
        <time>2018-07-28T07:24:02.000Z</time>
      </trkpt>
      <trkpt lat="43.94275" lon="7.28287">
        <ele>344</ele>
        <time>2018-07-28T07:24:05.000Z</time>
      </trkpt>
      <trkpt lat="43.94273" lon="7.28287">
        <ele>344</ele>
        <time>2018-07-28T07:24:12.000Z</time>
      </trkpt>
      <trkpt lat="43.9427" lon="7.28289">
        <ele>344</ele>
        <time>2018-07-28T07:24:17.000Z</time>
      </trkpt>
      <trkpt lat="43.94266" lon="7.2829">
        <ele>344</ele>
        <time>2018-07-28T07:24:19.000Z</time>
      </trkpt>
      <trkpt lat="43.94261" lon="7.28288">
        <ele>344</ele>
        <time>2018-07-28T07:24:21.000Z</time>
      </trkpt>
      <trkpt lat="43.94257" lon="7.28286">
        <ele>344</ele>
        <time>2018-07-28T07:24:23.000Z</time>
      </trkpt>
      <trkpt lat="43.94249" lon="7.28283">
        <ele>342</ele>
        <time>2018-07-28T07:24:25.000Z</time>
      </trkpt>
      <trkpt lat="43.94243" lon="7.28276">
        <ele>342</ele>
        <time>2018-07-28T07:24:28.000Z</time>
      </trkpt>
      <trkpt lat="43.9424" lon="7.28276">
        <ele>342</ele>
        <time>2018-07-28T07:24:29.000Z</time>
      </trkpt>
      <trkpt lat="43.9423" lon="7.2828">
        <ele>341</ele>
        <time>2018-07-28T07:24:32.000Z</time>
      </trkpt>
      <trkpt lat="43.94227" lon="7.28281">
        <ele>341</ele>
        <time>2018-07-28T07:24:33.000Z</time>
      </trkpt>
      <trkpt lat="43.94221" lon="7.28276">
        <ele>341</ele>
        <time>2018-07-28T07:24:35.000Z</time>
      </trkpt>
      <trkpt lat="43.9422" lon="7.28272">
        <ele>341</ele>
        <time>2018-07-28T07:24:36.000Z</time>
      </trkpt>
      <trkpt lat="43.94213" lon="7.28268">
        <ele>341</ele>
        <time>2018-07-28T07:24:40.000Z</time>
      </trkpt>
      <trkpt lat="43.94207" lon="7.28274">
        <ele>341</ele>
        <time>2018-07-28T07:24:43.000Z</time>
      </trkpt>
      <trkpt lat="43.94204" lon="7.28276">
        <ele>340</ele>
        <time>2018-07-28T07:24:44.000Z</time>
      </trkpt>
      <trkpt lat="43.94195" lon="7.28281">
        <ele>340</ele>
        <time>2018-07-28T07:24:49.000Z</time>
      </trkpt>
      <trkpt lat="43.94194" lon="7.28281">
        <ele>340</ele>
        <time>2018-07-28T07:24:50.000Z</time>
      </trkpt>
      <trkpt lat="43.94196" lon="7.28284">
        <ele>340</ele>
        <time>2018-07-28T07:24:54.000Z</time>
      </trkpt>
      <trkpt lat="43.94202" lon="7.28285">
        <ele>340</ele>
        <time>2018-07-28T07:24:58.000Z</time>
      </trkpt>
      <trkpt lat="43.94207" lon="7.28282">
        <ele>341</ele>
        <time>2018-07-28T07:25:00.000Z</time>
      </trkpt>
      <trkpt lat="43.94219" lon="7.28279">
        <ele>341</ele>
        <time>2018-07-28T07:25:04.000Z</time>
      </trkpt>
      <trkpt lat="43.94239" lon="7.28278">
        <ele>342</ele>
        <time>2018-07-28T07:25:10.000Z</time>
      </trkpt>
      <trkpt lat="43.94267" lon="7.28274">
        <ele>344</ele>
        <time>2018-07-28T07:25:18.000Z</time>
      </trkpt>
      <trkpt lat="43.94298" lon="7.28278">
        <ele>344</ele>
        <time>2018-07-28T07:25:27.000Z</time>
      </trkpt>
      <trkpt lat="43.94298" lon="7.28279">
        <ele>344</ele>
        <time>2018-07-28T07:25:30.000Z</time>
      </trkpt>
      <trkpt lat="43.94299" lon="7.28279">
        <ele>344</ele>
        <time>2018-07-28T07:25:39.000Z</time>
      </trkpt>
      <trkpt lat="43.943" lon="7.28279">
        <ele>344</ele>
        <time>2018-07-28T07:25:40.000Z</time>
      </trkpt>
      <trkpt lat="43.94307" lon="7.28281">
        <ele>344</ele>
        <time>2018-07-28T07:25:44.000Z</time>
      </trkpt>
      <trkpt lat="43.94327" lon="7.28286">
        <ele>344</ele>
        <time>2018-07-28T07:25:51.000Z</time>
      </trkpt>
      <trkpt lat="43.94343" lon="7.28277">
        <ele>346</ele>
        <time>2018-07-28T07:25:56.000Z</time>
      </trkpt>
      <trkpt lat="43.94344" lon="7.28273">
        <ele>346</ele>
        <time>2018-07-28T07:25:57.000Z</time>
      </trkpt>
      <trkpt lat="43.94342" lon="7.28264">
        <ele>345</ele>
        <time>2018-07-28T07:25:59.000Z</time>
      </trkpt>
      <trkpt lat="43.94339" lon="7.28258">
        <ele>344</ele>
        <time>2018-07-28T07:26:01.000Z</time>
      </trkpt>
      <trkpt lat="43.94335" lon="7.28248">
        <ele>344</ele>
        <time>2018-07-28T07:26:04.000Z</time>
      </trkpt>
      <trkpt lat="43.94334" lon="7.28246">
        <ele>345</ele>
        <time>2018-07-28T07:26:05.000Z</time>
      </trkpt>
      <trkpt lat="43.94331" lon="7.28239">
        <ele>344</ele>
        <time>2018-07-28T07:26:07.000Z</time>
      </trkpt>
      <trkpt lat="43.94324" lon="7.28219">
        <ele>345</ele>
        <time>2018-07-28T07:26:13.000Z</time>
      </trkpt>
      <trkpt lat="43.94324" lon="7.28216">
        <ele>345</ele>
        <time>2018-07-28T07:26:14.000Z</time>
      </trkpt>
      <trkpt lat="43.94323" lon="7.28193">
        <ele>347</ele>
        <time>2018-07-28T07:26:20.000Z</time>
      </trkpt>
      <trkpt lat="43.94326" lon="7.28172">
        <ele>351</ele>
        <time>2018-07-28T07:26:26.000Z</time>
      </trkpt>
      <trkpt lat="43.94327" lon="7.28168">
        <ele>351</ele>
        <time>2018-07-28T07:26:27.000Z</time>
      </trkpt>
      <trkpt lat="43.9433" lon="7.28151">
        <ele>351</ele>
        <time>2018-07-28T07:26:32.000Z</time>
      </trkpt>
      <trkpt lat="43.94331" lon="7.28142">
        <ele>351</ele>
        <time>2018-07-28T07:26:35.000Z</time>
      </trkpt>
      <trkpt lat="43.94332" lon="7.28132">
        <ele>351</ele>
        <time>2018-07-28T07:26:38.000Z</time>
      </trkpt>
      <trkpt lat="43.94334" lon="7.2812">
        <ele>364</ele>
        <time>2018-07-28T07:26:42.000Z</time>
      </trkpt>
      <trkpt lat="43.94335" lon="7.28113">
        <ele>364</ele>
        <time>2018-07-28T07:26:44.000Z</time>
      </trkpt>
      <trkpt lat="43.94334" lon="7.28106">
        <ele>364</ele>
        <time>2018-07-28T07:26:46.000Z</time>
      </trkpt>
      <trkpt lat="43.94335" lon="7.28103">
        <ele>363</ele>
        <time>2018-07-28T07:26:47.000Z</time>
      </trkpt>
      <trkpt lat="43.94337" lon="7.28088">
        <ele>360</ele>
        <time>2018-07-28T07:26:51.000Z</time>
      </trkpt>
      <trkpt lat="43.94339" lon="7.28073">
        <ele>363</ele>
        <time>2018-07-28T07:26:55.000Z</time>
      </trkpt>
      <trkpt lat="43.9434" lon="7.28063">
        <ele>366</ele>
        <time>2018-07-28T07:26:58.000Z</time>
      </trkpt>
      <trkpt lat="43.94343" lon="7.28047">
        <ele>368</ele>
        <time>2018-07-28T07:27:02.000Z</time>
      </trkpt>
      <trkpt lat="43.94344" lon="7.28036">
        <ele>368</ele>
        <time>2018-07-28T07:27:05.000Z</time>
      </trkpt>
      <trkpt lat="43.94347" lon="7.28026">
        <ele>368</ele>
        <time>2018-07-28T07:27:08.000Z</time>
      </trkpt>
      <trkpt lat="43.94354" lon="7.28007">
        <ele>367</ele>
        <time>2018-07-28T07:27:13.000Z</time>
      </trkpt>
      <trkpt lat="43.94357" lon="7.28">
        <ele>367</ele>
        <time>2018-07-28T07:27:15.000Z</time>
      </trkpt>
      <trkpt lat="43.94365" lon="7.27979">
        <ele>368</ele>
        <time>2018-07-28T07:27:21.000Z</time>
      </trkpt>
      <trkpt lat="43.94368" lon="7.27972">
        <ele>369</ele>
        <time>2018-07-28T07:27:23.000Z</time>
      </trkpt>
      <trkpt lat="43.94374" lon="7.2796">
        <ele>369</ele>
        <time>2018-07-28T07:27:27.000Z</time>
      </trkpt>
      <trkpt lat="43.94384" lon="7.27944">
        <ele>370</ele>
        <time>2018-07-28T07:27:33.000Z</time>
      </trkpt>
      <trkpt lat="43.94393" lon="7.27933">
        <ele>372</ele>
        <time>2018-07-28T07:27:38.000Z</time>
      </trkpt>
      <trkpt lat="43.94399" lon="7.27923">
        <ele>373</ele>
        <time>2018-07-28T07:27:42.000Z</time>
      </trkpt>
      <trkpt lat="43.94403" lon="7.27918">
        <ele>374</ele>
        <time>2018-07-28T07:27:44.000Z</time>
      </trkpt>
      <trkpt lat="43.94417" lon="7.27898">
        <ele>371</ele>
        <time>2018-07-28T07:27:52.000Z</time>
      </trkpt>
      <trkpt lat="43.94418" lon="7.27895">
        <ele>384</ele>
        <time>2018-07-28T07:27:53.000Z</time>
      </trkpt>
      <trkpt lat="43.9443" lon="7.27871">
        <ele>385</ele>
        <time>2018-07-28T07:28:01.000Z</time>
      </trkpt>
      <trkpt lat="43.94431" lon="7.27869">
        <ele>385</ele>
        <time>2018-07-28T07:28:02.000Z</time>
      </trkpt>
      <trkpt lat="43.94437" lon="7.27852">
        <ele>383</ele>
        <time>2018-07-28T07:28:08.000Z</time>
      </trkpt>
      <trkpt lat="43.94438" lon="7.27849">
        <ele>383</ele>
        <time>2018-07-28T07:28:09.000Z</time>
      </trkpt>
      <trkpt lat="43.94446" lon="7.27832">
        <ele>377</ele>
        <time>2018-07-28T07:28:16.000Z</time>
      </trkpt>
      <trkpt lat="43.94455" lon="7.2782">
        <ele>379</ele>
        <time>2018-07-28T07:28:22.000Z</time>
      </trkpt>
      <trkpt lat="43.94458" lon="7.27816">
        <ele>380</ele>
        <time>2018-07-28T07:28:24.000Z</time>
      </trkpt>
      <trkpt lat="43.94466" lon="7.27802">
        <ele>380</ele>
        <time>2018-07-28T07:28:30.000Z</time>
      </trkpt>
      <trkpt lat="43.94469" lon="7.27797">
        <ele>380</ele>
        <time>2018-07-28T07:28:32.000Z</time>
      </trkpt>
      <trkpt lat="43.94476" lon="7.27785">
        <ele>380</ele>
        <time>2018-07-28T07:28:37.000Z</time>
      </trkpt>
      <trkpt lat="43.94482" lon="7.27773">
        <ele>380</ele>
        <time>2018-07-28T07:28:42.000Z</time>
      </trkpt>
      <trkpt lat="43.94486" lon="7.27766">
        <ele>379</ele>
        <time>2018-07-28T07:28:45.000Z</time>
      </trkpt>
      <trkpt lat="43.94496" lon="7.27748">
        <ele>378</ele>
        <time>2018-07-28T07:28:52.000Z</time>
      </trkpt>
      <trkpt lat="43.94506" lon="7.27731">
        <ele>386</ele>
        <time>2018-07-28T07:28:59.000Z</time>
      </trkpt>
      <trkpt lat="43.94508" lon="7.27729">
        <ele>386</ele>
        <time>2018-07-28T07:29:00.000Z</time>
      </trkpt>
      <trkpt lat="43.94521" lon="7.27711">
        <ele>388</ele>
        <time>2018-07-28T07:29:08.000Z</time>
      </trkpt>
      <trkpt lat="43.94522" lon="7.27709">
        <ele>388</ele>
        <time>2018-07-28T07:29:09.000Z</time>
      </trkpt>
      <trkpt lat="43.94532" lon="7.27699">
        <ele>389</ele>
        <time>2018-07-28T07:29:14.000Z</time>
      </trkpt>
      <trkpt lat="43.94539" lon="7.27695">
        <ele>390</ele>
        <time>2018-07-28T07:29:17.000Z</time>
      </trkpt>
      <trkpt lat="43.94547" lon="7.27687">
        <ele>390</ele>
        <time>2018-07-28T07:29:21.000Z</time>
      </trkpt>
      <trkpt lat="43.94554" lon="7.27683">
        <ele>391</ele>
        <time>2018-07-28T07:29:24.000Z</time>
      </trkpt>
      <trkpt lat="43.94567" lon="7.27672">
        <ele>391</ele>
        <time>2018-07-28T07:29:31.000Z</time>
      </trkpt>
      <trkpt lat="43.94569" lon="7.2767">
        <ele>391</ele>
        <time>2018-07-28T07:29:32.000Z</time>
      </trkpt>
      <trkpt lat="43.94578" lon="7.2766">
        <ele>388</ele>
        <time>2018-07-28T07:29:37.000Z</time>
      </trkpt>
      <trkpt lat="43.94586" lon="7.27648">
        <ele>396</ele>
        <time>2018-07-28T07:29:42.000Z</time>
      </trkpt>
      <trkpt lat="43.94589" lon="7.27644">
        <ele>397</ele>
        <time>2018-07-28T07:29:44.000Z</time>
      </trkpt>
      <trkpt lat="43.94599" lon="7.27631">
        <ele>398</ele>
        <time>2018-07-28T07:29:50.000Z</time>
      </trkpt>
      <trkpt lat="43.94603" lon="7.27627">
        <ele>398</ele>
        <time>2018-07-28T07:29:52.000Z</time>
      </trkpt>
      <trkpt lat="43.94613" lon="7.27617">
        <ele>399</ele>
        <time>2018-07-28T07:29:57.000Z</time>
      </trkpt>
      <trkpt lat="43.94619" lon="7.2761">
        <ele>399</ele>
        <time>2018-07-28T07:30:00.000Z</time>
      </trkpt>
      <trkpt lat="43.94625" lon="7.276">
        <ele>399</ele>
        <time>2018-07-28T07:30:04.000Z</time>
      </trkpt>
      <trkpt lat="43.94632" lon="7.27586">
        <ele>400</ele>
        <time>2018-07-28T07:30:09.000Z</time>
      </trkpt>
      <trkpt lat="43.94634" lon="7.2758">
        <ele>394</ele>
        <time>2018-07-28T07:30:11.000Z</time>
      </trkpt>
      <trkpt lat="43.94644" lon="7.27562">
        <ele>395</ele>
        <time>2018-07-28T07:30:18.000Z</time>
      </trkpt>
      <trkpt lat="43.94655" lon="7.27547">
        <ele>395</ele>
        <time>2018-07-28T07:30:25.000Z</time>
      </trkpt>
      <trkpt lat="43.94658" lon="7.27542">
        <ele>394</ele>
        <time>2018-07-28T07:30:27.000Z</time>
      </trkpt>
      <trkpt lat="43.94665" lon="7.27524">
        <ele>393</ele>
        <time>2018-07-28T07:30:33.000Z</time>
      </trkpt>
      <trkpt lat="43.94667" lon="7.27514">
        <ele>392</ele>
        <time>2018-07-28T07:30:36.000Z</time>
      </trkpt>
      <trkpt lat="43.94668" lon="7.27503">
        <ele>395</ele>
        <time>2018-07-28T07:30:40.000Z</time>
      </trkpt>
      <trkpt lat="43.9467" lon="7.27488">
        <ele>396</ele>
        <time>2018-07-28T07:30:45.000Z</time>
      </trkpt>
      <trkpt lat="43.9467" lon="7.27485">
        <ele>396</ele>
        <time>2018-07-28T07:30:46.000Z</time>
      </trkpt>
      <trkpt lat="43.94669" lon="7.2747">
        <ele>397</ele>
        <time>2018-07-28T07:30:51.000Z</time>
      </trkpt>
      <trkpt lat="43.94667" lon="7.27464">
        <ele>397</ele>
        <time>2018-07-28T07:30:53.000Z</time>
      </trkpt>
      <trkpt lat="43.94661" lon="7.27448">
        <ele>394</ele>
        <time>2018-07-28T07:30:58.000Z</time>
      </trkpt>
      <trkpt lat="43.94656" lon="7.27432">
        <ele>394</ele>
        <time>2018-07-28T07:31:03.000Z</time>
      </trkpt>
      <trkpt lat="43.94655" lon="7.27424">
        <ele>394</ele>
        <time>2018-07-28T07:31:05.000Z</time>
      </trkpt>
      <trkpt lat="43.9466" lon="7.27413">
        <ele>397</ele>
        <time>2018-07-28T07:31:09.000Z</time>
      </trkpt>
      <trkpt lat="43.94666" lon="7.2741">
        <ele>397</ele>
        <time>2018-07-28T07:31:12.000Z</time>
      </trkpt>
      <trkpt lat="43.94672" lon="7.27409">
        <ele>394</ele>
        <time>2018-07-28T07:31:15.000Z</time>
      </trkpt>
      <trkpt lat="43.94679" lon="7.27409">
        <ele>395</ele>
        <time>2018-07-28T07:31:18.000Z</time>
      </trkpt>
      <trkpt lat="43.94688" lon="7.2741">
        <ele>396</ele>
        <time>2018-07-28T07:31:23.000Z</time>
      </trkpt>
      <trkpt lat="43.94691" lon="7.27412">
        <ele>397</ele>
        <time>2018-07-28T07:31:24.000Z</time>
      </trkpt>
      <trkpt lat="43.94699" lon="7.27417">
        <ele>397</ele>
        <time>2018-07-28T07:31:28.000Z</time>
      </trkpt>
      <trkpt lat="43.94705" lon="7.27423">
        <ele>399</ele>
        <time>2018-07-28T07:31:31.000Z</time>
      </trkpt>
      <trkpt lat="43.9471" lon="7.27431">
        <ele>399</ele>
        <time>2018-07-28T07:31:34.000Z</time>
      </trkpt>
      <trkpt lat="43.94712" lon="7.27442">
        <ele>400</ele>
        <time>2018-07-28T07:31:38.000Z</time>
      </trkpt>
      <trkpt lat="43.94713" lon="7.27448">
        <ele>401</ele>
        <time>2018-07-28T07:31:40.000Z</time>
      </trkpt>
      <trkpt lat="43.94714" lon="7.2746">
        <ele>401</ele>
        <time>2018-07-28T07:31:44.000Z</time>
      </trkpt>
      <trkpt lat="43.94715" lon="7.27467">
        <ele>402</ele>
        <time>2018-07-28T07:31:47.000Z</time>
      </trkpt>
      <trkpt lat="43.94715" lon="7.2747">
        <ele>402</ele>
        <time>2018-07-28T07:31:48.000Z</time>
      </trkpt>
      <trkpt lat="43.94714" lon="7.27476">
        <ele>403</ele>
        <time>2018-07-28T07:31:50.000Z</time>
      </trkpt>
      <trkpt lat="43.94714" lon="7.27483">
        <ele>403</ele>
        <time>2018-07-28T07:31:53.000Z</time>
      </trkpt>
      <trkpt lat="43.94713" lon="7.2749">
        <ele>403</ele>
        <time>2018-07-28T07:31:56.000Z</time>
      </trkpt>
      <trkpt lat="43.94712" lon="7.27495">
        <ele>403</ele>
        <time>2018-07-28T07:31:58.000Z</time>
      </trkpt>
      <trkpt lat="43.94709" lon="7.27505">
        <ele>412</ele>
        <time>2018-07-28T07:32:02.000Z</time>
      </trkpt>
      <trkpt lat="43.94706" lon="7.27519">
        <ele>412</ele>
        <time>2018-07-28T07:32:07.000Z</time>
      </trkpt>
      <trkpt lat="43.94704" lon="7.27524">
        <ele>412</ele>
        <time>2018-07-28T07:32:09.000Z</time>
      </trkpt>
      <trkpt lat="43.94698" lon="7.27538">
        <ele>413</ele>
        <time>2018-07-28T07:32:15.000Z</time>
      </trkpt>
      <trkpt lat="43.94697" lon="7.2754">
        <ele>413</ele>
        <time>2018-07-28T07:32:16.000Z</time>
      </trkpt>
      <trkpt lat="43.9469" lon="7.27555">
        <ele>413</ele>
        <time>2018-07-28T07:32:23.000Z</time>
      </trkpt>
      <trkpt lat="43.94688" lon="7.27557">
        <ele>413</ele>
        <time>2018-07-28T07:32:24.000Z</time>
      </trkpt>
      <trkpt lat="43.94683" lon="7.27567">
        <ele>412</ele>
        <time>2018-07-28T07:32:29.000Z</time>
      </trkpt>
      <trkpt lat="43.9468" lon="7.27573">
        <ele>411</ele>
        <time>2018-07-28T07:32:32.000Z</time>
      </trkpt>
      <trkpt lat="43.94676" lon="7.27581">
        <ele>410</ele>
        <time>2018-07-28T07:32:36.000Z</time>
      </trkpt>
      <trkpt lat="43.94673" lon="7.27588">
        <ele>415</ele>
        <time>2018-07-28T07:32:39.000Z</time>
      </trkpt>
      <trkpt lat="43.94669" lon="7.27599">
        <ele>420</ele>
        <time>2018-07-28T07:32:44.000Z</time>
      </trkpt>
      <trkpt lat="43.94668" lon="7.27603">
        <ele>422</ele>
        <time>2018-07-28T07:32:46.000Z</time>
      </trkpt>
      <trkpt lat="43.94663" lon="7.27618">
        <ele>407</ele>
        <time>2018-07-28T07:32:52.000Z</time>
      </trkpt>
      <trkpt lat="43.94656" lon="7.27636">
        <ele>409</ele>
        <time>2018-07-28T07:33:00.000Z</time>
      </trkpt>
      <trkpt lat="43.94654" lon="7.27638">
        <ele>410</ele>
        <time>2018-07-28T07:33:01.000Z</time>
      </trkpt>
      <trkpt lat="43.94649" lon="7.27648">
        <ele>411</ele>
        <time>2018-07-28T07:33:06.000Z</time>
      </trkpt>
      <trkpt lat="43.94646" lon="7.27656">
        <ele>412</ele>
        <time>2018-07-28T07:33:09.000Z</time>
      </trkpt>
      <trkpt lat="43.94643" lon="7.27665">
        <ele>412</ele>
        <time>2018-07-28T07:33:13.000Z</time>
      </trkpt>
      <trkpt lat="43.94638" lon="7.27676">
        <ele>423</ele>
        <time>2018-07-28T07:33:18.000Z</time>
      </trkpt>
      <trkpt lat="43.94636" lon="7.2768">
        <ele>423</ele>
        <time>2018-07-28T07:33:20.000Z</time>
      </trkpt>
      <trkpt lat="43.94629" lon="7.27692">
        <ele>423</ele>
        <time>2018-07-28T07:33:26.000Z</time>
      </trkpt>
      <trkpt lat="43.94628" lon="7.27694">
        <ele>423</ele>
        <time>2018-07-28T07:33:27.000Z</time>
      </trkpt>
      <trkpt lat="43.9462" lon="7.27706">
        <ele>423</ele>
        <time>2018-07-28T07:33:33.000Z</time>
      </trkpt>
      <trkpt lat="43.94611" lon="7.27715">
        <ele>423</ele>
        <time>2018-07-28T07:33:39.000Z</time>
      </trkpt>
      <trkpt lat="43.94606" lon="7.27719">
        <ele>423</ele>
        <time>2018-07-28T07:33:42.000Z</time>
      </trkpt>
      <trkpt lat="43.946" lon="7.27725">
        <ele>423</ele>
        <time>2018-07-28T07:33:46.000Z</time>
      </trkpt>
      <trkpt lat="43.94593" lon="7.27732">
        <ele>423</ele>
        <time>2018-07-28T07:33:50.000Z</time>
      </trkpt>
      <trkpt lat="43.94589" lon="7.27736">
        <ele>423</ele>
        <time>2018-07-28T07:33:53.000Z</time>
      </trkpt>
      <trkpt lat="43.94583" lon="7.27743">
        <ele>415</ele>
        <time>2018-07-28T07:33:57.000Z</time>
      </trkpt>
      <trkpt lat="43.9458" lon="7.27746">
        <ele>417</ele>
        <time>2018-07-28T07:33:59.000Z</time>
      </trkpt>
      <trkpt lat="43.94571" lon="7.27757">
        <ele>417</ele>
        <time>2018-07-28T07:34:06.000Z</time>
      </trkpt>
      <trkpt lat="43.94568" lon="7.2776">
        <ele>416</ele>
        <time>2018-07-28T07:34:08.000Z</time>
      </trkpt>
      <trkpt lat="43.94562" lon="7.27767">
        <ele>414</ele>
        <time>2018-07-28T07:34:12.000Z</time>
      </trkpt>
      <trkpt lat="43.94557" lon="7.27775">
        <ele>413</ele>
        <time>2018-07-28T07:34:16.000Z</time>
      </trkpt>
      <trkpt lat="43.94553" lon="7.27781">
        <ele>413</ele>
        <time>2018-07-28T07:34:19.000Z</time>
      </trkpt>
      <trkpt lat="43.94547" lon="7.27795">
        <ele>413</ele>
        <time>2018-07-28T07:34:25.000Z</time>
      </trkpt>
      <trkpt lat="43.94547" lon="7.27798">
        <ele>413</ele>
        <time>2018-07-28T07:34:26.000Z</time>
      </trkpt>
      <trkpt lat="43.94545" lon="7.2781">
        <ele>414</ele>
        <time>2018-07-28T07:34:31.000Z</time>
      </trkpt>
      <trkpt lat="43.94545" lon="7.27815">
        <ele>415</ele>
        <time>2018-07-28T07:34:33.000Z</time>
      </trkpt>
      <trkpt lat="43.94543" lon="7.27826">
        <ele>415</ele>
        <time>2018-07-28T07:34:37.000Z</time>
      </trkpt>
      <trkpt lat="43.94541" lon="7.27831">
        <ele>414</ele>
        <time>2018-07-28T07:34:39.000Z</time>
      </trkpt>
      <trkpt lat="43.94536" lon="7.27843">
        <ele>424</ele>
        <time>2018-07-28T07:34:44.000Z</time>
      </trkpt>
      <trkpt lat="43.94533" lon="7.2785">
        <ele>424</ele>
        <time>2018-07-28T07:34:47.000Z</time>
      </trkpt>
      <trkpt lat="43.94527" lon="7.2786">
        <ele>424</ele>
        <time>2018-07-28T07:34:52.000Z</time>
      </trkpt>
      <trkpt lat="43.94526" lon="7.27863">
        <ele>424</ele>
        <time>2018-07-28T07:34:53.000Z</time>
      </trkpt>
      <trkpt lat="43.9452" lon="7.27877">
        <ele>425</ele>
        <time>2018-07-28T07:34:59.000Z</time>
      </trkpt>
      <trkpt lat="43.94519" lon="7.2788">
        <ele>425</ele>
        <time>2018-07-28T07:35:00.000Z</time>
      </trkpt>
      <trkpt lat="43.94514" lon="7.27895">
        <ele>425</ele>
        <time>2018-07-28T07:35:06.000Z</time>
      </trkpt>
      <trkpt lat="43.94513" lon="7.27898">
        <ele>425</ele>
        <time>2018-07-28T07:35:07.000Z</time>
      </trkpt>
      <trkpt lat="43.94511" lon="7.27914">
        <ele>423</ele>
        <time>2018-07-28T07:35:13.000Z</time>
      </trkpt>
      <trkpt lat="43.9451" lon="7.27916">
        <ele>423</ele>
        <time>2018-07-28T07:35:14.000Z</time>
      </trkpt>
      <trkpt lat="43.94506" lon="7.27933">
        <ele>430</ele>
        <time>2018-07-28T07:35:21.000Z</time>
      </trkpt>
      <trkpt lat="43.94505" lon="7.27945">
        <ele>433</ele>
        <time>2018-07-28T07:35:26.000Z</time>
      </trkpt>
      <trkpt lat="43.94504" lon="7.27952">
        <ele>434</ele>
        <time>2018-07-28T07:35:29.000Z</time>
      </trkpt>
      <trkpt lat="43.94502" lon="7.27961">
        <ele>435</ele>
        <time>2018-07-28T07:35:33.000Z</time>
      </trkpt>
      <trkpt lat="43.94501" lon="7.27968">
        <ele>435</ele>
        <time>2018-07-28T07:35:36.000Z</time>
      </trkpt>
      <trkpt lat="43.94498" lon="7.2798">
        <ele>417</ele>
        <time>2018-07-28T07:35:41.000Z</time>
      </trkpt>
      <trkpt lat="43.94497" lon="7.27988">
        <ele>420</ele>
        <time>2018-07-28T07:35:44.000Z</time>
      </trkpt>
      <trkpt lat="43.94496" lon="7.27998">
        <ele>425</ele>
        <time>2018-07-28T07:35:48.000Z</time>
      </trkpt>
      <trkpt lat="43.94496" lon="7.28005">
        <ele>425</ele>
        <time>2018-07-28T07:35:51.000Z</time>
      </trkpt>
      <trkpt lat="43.94494" lon="7.28018">
        <ele>420</ele>
        <time>2018-07-28T07:35:56.000Z</time>
      </trkpt>
      <trkpt lat="43.94494" lon="7.28026">
        <ele>419</ele>
        <time>2018-07-28T07:35:59.000Z</time>
      </trkpt>
      <trkpt lat="43.94497" lon="7.28042">
        <ele>418</ele>
        <time>2018-07-28T07:36:05.000Z</time>
      </trkpt>
      <trkpt lat="43.94498" lon="7.28047">
        <ele>418</ele>
        <time>2018-07-28T07:36:07.000Z</time>
      </trkpt>
      <trkpt lat="43.94507" lon="7.28065">
        <ele>436</ele>
        <time>2018-07-28T07:36:15.000Z</time>
      </trkpt>
      <trkpt lat="43.94508" lon="7.28067">
        <ele>436</ele>
        <time>2018-07-28T07:36:16.000Z</time>
      </trkpt>
      <trkpt lat="43.94517" lon="7.28077">
        <ele>436</ele>
        <time>2018-07-28T07:36:22.000Z</time>
      </trkpt>
      <trkpt lat="43.94518" lon="7.28078">
        <ele>436</ele>
        <time>2018-07-28T07:36:23.000Z</time>
      </trkpt>
      <trkpt lat="43.94528" lon="7.28088">
        <ele>432</ele>
        <time>2018-07-28T07:36:29.000Z</time>
      </trkpt>
      <trkpt lat="43.94534" lon="7.28095">
        <ele>433</ele>
        <time>2018-07-28T07:36:33.000Z</time>
      </trkpt>
      <trkpt lat="43.9454" lon="7.281">
        <ele>433</ele>
        <time>2018-07-28T07:36:36.000Z</time>
      </trkpt>
      <trkpt lat="43.94545" lon="7.28107">
        <ele>434</ele>
        <time>2018-07-28T07:36:40.000Z</time>
      </trkpt>
      <trkpt lat="43.94552" lon="7.28112">
        <ele>434</ele>
        <time>2018-07-28T07:36:44.000Z</time>
      </trkpt>
      <trkpt lat="43.94557" lon="7.28117">
        <ele>434</ele>
        <time>2018-07-28T07:36:47.000Z</time>
      </trkpt>
      <trkpt lat="43.94563" lon="7.28122">
        <ele>434</ele>
        <time>2018-07-28T07:36:50.000Z</time>
      </trkpt>
      <trkpt lat="43.94571" lon="7.28128">
        <ele>434</ele>
        <time>2018-07-28T07:36:55.000Z</time>
      </trkpt>
      <trkpt lat="43.94576" lon="7.28131">
        <ele>434</ele>
        <time>2018-07-28T07:36:58.000Z</time>
      </trkpt>
      <trkpt lat="43.94585" lon="7.28135">
        <ele>442</ele>
        <time>2018-07-28T07:37:03.000Z</time>
      </trkpt>
      <trkpt lat="43.94589" lon="7.28136">
        <ele>442</ele>
        <time>2018-07-28T07:37:05.000Z</time>
      </trkpt>
      <trkpt lat="43.94603" lon="7.28132">
        <ele>443</ele>
        <time>2018-07-28T07:37:12.000Z</time>
      </trkpt>
      <trkpt lat="43.94605" lon="7.28131">
        <ele>444</ele>
        <time>2018-07-28T07:37:13.000Z</time>
      </trkpt>
      <trkpt lat="43.94614" lon="7.28121">
        <ele>445</ele>
        <time>2018-07-28T07:37:19.000Z</time>
      </trkpt>
      <trkpt lat="43.94616" lon="7.28119">
        <ele>445</ele>
        <time>2018-07-28T07:37:20.000Z</time>
      </trkpt>
      <trkpt lat="43.94625" lon="7.28112">
        <ele>446</ele>
        <time>2018-07-28T07:37:25.000Z</time>
      </trkpt>
      <trkpt lat="43.9463" lon="7.28106">
        <ele>447</ele>
        <time>2018-07-28T07:37:28.000Z</time>
      </trkpt>
      <trkpt lat="43.94633" lon="7.28101">
        <ele>447</ele>
        <time>2018-07-28T07:37:31.000Z</time>
      </trkpt>
      <trkpt lat="43.94634" lon="7.28097">
        <ele>447</ele>
        <time>2018-07-28T07:37:34.000Z</time>
      </trkpt>
      <trkpt lat="43.94632" lon="7.28098">
        <ele>447</ele>
        <time>2018-07-28T07:37:36.000Z</time>
      </trkpt>
      <trkpt lat="43.94632" lon="7.28097">
        <ele>447</ele>
        <time>2018-07-28T07:37:38.000Z</time>
      </trkpt>
      <trkpt lat="43.9463" lon="7.28098">
        <ele>447</ele>
        <time>2018-07-28T07:37:45.000Z</time>
      </trkpt>
      <trkpt lat="43.9463" lon="7.28098">
        <ele>447</ele>
        <time>2018-07-28T07:37:52.000Z</time>
      </trkpt>
      <trkpt lat="43.9463" lon="7.28099">
        <ele>447</ele>
        <time>2018-07-28T07:38:02.000Z</time>
      </trkpt>
      <trkpt lat="43.94631" lon="7.28099">
        <ele>447</ele>
        <time>2018-07-28T07:38:10.000Z</time>
      </trkpt>
      <trkpt lat="43.94632" lon="7.28099">
        <ele>447</ele>
        <time>2018-07-28T07:38:18.000Z</time>
      </trkpt>
      <trkpt lat="43.94632" lon="7.281">
        <ele>447</ele>
        <time>2018-07-28T07:38:37.000Z</time>
      </trkpt>
      <trkpt lat="43.94633" lon="7.28101">
        <ele>447</ele>
        <time>2018-07-28T07:39:01.000Z</time>
      </trkpt>
      <trkpt lat="43.94633" lon="7.28102">
        <ele>447</ele>
        <time>2018-07-28T07:39:09.000Z</time>
      </trkpt>
      <trkpt lat="43.94633" lon="7.28101">
        <ele>447</ele>
        <time>2018-07-28T07:39:18.000Z</time>
      </trkpt>
      <trkpt lat="43.94633" lon="7.28102">
        <ele>447</ele>
        <time>2018-07-28T07:39:29.000Z</time>
      </trkpt>
      <trkpt lat="43.94635" lon="7.28102">
        <ele>447</ele>
        <time>2018-07-28T07:39:38.000Z</time>
      </trkpt>
      <trkpt lat="43.94635" lon="7.28101">
        <ele>447</ele>
        <time>2018-07-28T07:39:50.000Z</time>
      </trkpt>
      <trkpt lat="43.94635" lon="7.28102">
        <ele>447</ele>
        <time>2018-07-28T07:39:58.000Z</time>
      </trkpt>
      <trkpt lat="43.94635" lon="7.28102">
        <ele>447</ele>
        <time>2018-07-28T07:40:11.000Z</time>
      </trkpt>
      <trkpt lat="43.94635" lon="7.28101">
        <ele>447</ele>
        <time>2018-07-28T07:40:20.000Z</time>
      </trkpt>
      <trkpt lat="43.94635" lon="7.28101">
        <ele>447</ele>
        <time>2018-07-28T07:40:32.000Z</time>
      </trkpt>
      <trkpt lat="43.94635" lon="7.28102">
        <ele>447</ele>
        <time>2018-07-28T07:40:40.000Z</time>
      </trkpt>
      <trkpt lat="43.94635" lon="7.28103">
        <ele>447</ele>
        <time>2018-07-28T07:40:46.000Z</time>
      </trkpt>
      <trkpt lat="43.94635" lon="7.28103">
        <ele>447</ele>
        <time>2018-07-28T07:40:55.000Z</time>
      </trkpt>
      <trkpt lat="43.94635" lon="7.28103">
        <ele>447</ele>
        <time>2018-07-28T07:40:59.000Z</time>
      </trkpt>
      <trkpt lat="43.94635" lon="7.28103">
        <ele>447</ele>
        <time>2018-07-28T07:41:02.000Z</time>
      </trkpt>
      <trkpt lat="43.94635" lon="7.28103">
        <ele>447</ele>
        <time>2018-07-28T07:41:04.000Z</time>
      </trkpt>
      <trkpt lat="43.94636" lon="7.28102">
        <ele>447</ele>
        <time>2018-07-28T07:41:12.000Z</time>
      </trkpt>
      <trkpt lat="43.94638" lon="7.281">
        <ele>448</ele>
        <time>2018-07-28T07:41:18.000Z</time>
      </trkpt>
      <trkpt lat="43.94639" lon="7.28101">
        <ele>448</ele>
        <time>2018-07-28T07:41:20.000Z</time>
      </trkpt>
      <trkpt lat="43.94639" lon="7.28099">
        <ele>448</ele>
        <time>2018-07-28T07:41:26.000Z</time>
      </trkpt>
      <trkpt lat="43.9464" lon="7.28098">
        <ele>448</ele>
        <time>2018-07-28T07:41:27.000Z</time>
      </trkpt>
      <trkpt lat="43.94645" lon="7.28096">
        <ele>449</ele>
        <time>2018-07-28T07:41:31.000Z</time>
      </trkpt>
      <trkpt lat="43.94655" lon="7.28087">
        <ele>451</ele>
        <time>2018-07-28T07:41:37.000Z</time>
      </trkpt>
      <trkpt lat="43.94658" lon="7.28084">
        <ele>452</ele>
        <time>2018-07-28T07:41:39.000Z</time>
      </trkpt>
      <trkpt lat="43.94664" lon="7.28076">
        <ele>455</ele>
        <time>2018-07-28T07:41:43.000Z</time>
      </trkpt>
      <trkpt lat="43.94671" lon="7.28067">
        <ele>459</ele>
        <time>2018-07-28T07:41:48.000Z</time>
      </trkpt>
      <trkpt lat="43.94676" lon="7.28063">
        <ele>460</ele>
        <time>2018-07-28T07:41:51.000Z</time>
      </trkpt>
      <trkpt lat="43.94685" lon="7.28052">
        <ele>462</ele>
        <time>2018-07-28T07:41:57.000Z</time>
      </trkpt>
      <trkpt lat="43.94696" lon="7.28044">
        <ele>463</ele>
        <time>2018-07-28T07:42:03.000Z</time>
      </trkpt>
      <trkpt lat="43.947" lon="7.28042">
        <ele>463</ele>
        <time>2018-07-28T07:42:05.000Z</time>
      </trkpt>
      <trkpt lat="43.94708" lon="7.28039">
        <ele>463</ele>
        <time>2018-07-28T07:42:09.000Z</time>
      </trkpt>
      <trkpt lat="43.94718" lon="7.28036">
        <ele>464</ele>
        <time>2018-07-28T07:42:14.000Z</time>
      </trkpt>
      <trkpt lat="43.9472" lon="7.28036">
        <ele>464</ele>
        <time>2018-07-28T07:42:15.000Z</time>
      </trkpt>
      <trkpt lat="43.9473" lon="7.28034">
        <ele>465</ele>
        <time>2018-07-28T07:42:20.000Z</time>
      </trkpt>
      <trkpt lat="43.94733" lon="7.28033">
        <ele>465</ele>
        <time>2018-07-28T07:42:22.000Z</time>
      </trkpt>
      <trkpt lat="43.94743" lon="7.28031">
        <ele>465</ele>
        <time>2018-07-28T07:42:27.000Z</time>
      </trkpt>
      <trkpt lat="43.94749" lon="7.28029">
        <ele>465</ele>
        <time>2018-07-28T07:42:30.000Z</time>
      </trkpt>
      <trkpt lat="43.94759" lon="7.28033">
        <ele>476</ele>
        <time>2018-07-28T07:42:35.000Z</time>
      </trkpt>
      <trkpt lat="43.94761" lon="7.28035">
        <ele>476</ele>
        <time>2018-07-28T07:42:36.000Z</time>
      </trkpt>
      <trkpt lat="43.94768" lon="7.28051">
        <ele>476</ele>
        <time>2018-07-28T07:42:43.000Z</time>
      </trkpt>
      <trkpt lat="43.94769" lon="7.28054">
        <ele>476</ele>
        <time>2018-07-28T07:42:44.000Z</time>
      </trkpt>
      <trkpt lat="43.94772" lon="7.28068">
        <ele>475</ele>
        <time>2018-07-28T07:42:50.000Z</time>
      </trkpt>
      <trkpt lat="43.94772" lon="7.28071">
        <ele>475</ele>
        <time>2018-07-28T07:42:51.000Z</time>
      </trkpt>
      <trkpt lat="43.94774" lon="7.28087">
        <ele>472</ele>
        <time>2018-07-28T07:42:58.000Z</time>
      </trkpt>
      <trkpt lat="43.94775" lon="7.28089">
        <ele>472</ele>
        <time>2018-07-28T07:42:59.000Z</time>
      </trkpt>
      <trkpt lat="43.94777" lon="7.28104">
        <ele>473</ele>
        <time>2018-07-28T07:43:05.000Z</time>
      </trkpt>
      <trkpt lat="43.94778" lon="7.28109">
        <ele>474</ele>
        <time>2018-07-28T07:43:07.000Z</time>
      </trkpt>
      <trkpt lat="43.94781" lon="7.28125">
        <ele>474</ele>
        <time>2018-07-28T07:43:13.000Z</time>
      </trkpt>
      <trkpt lat="43.94782" lon="7.28127">
        <ele>474</ele>
        <time>2018-07-28T07:43:14.000Z</time>
      </trkpt>
      <trkpt lat="43.94787" lon="7.28144">
        <ele>474</ele>
        <time>2018-07-28T07:43:21.000Z</time>
      </trkpt>
      <trkpt lat="43.94788" lon="7.28147">
        <ele>474</ele>
        <time>2018-07-28T07:43:22.000Z</time>
      </trkpt>
      <trkpt lat="43.94793" lon="7.28165">
        <ele>475</ele>
        <time>2018-07-28T07:43:29.000Z</time>
      </trkpt>
      <trkpt lat="43.94796" lon="7.28177">
        <ele>469</ele>
        <time>2018-07-28T07:43:34.000Z</time>
      </trkpt>
      <trkpt lat="43.94799" lon="7.28185">
        <ele>469</ele>
        <time>2018-07-28T07:43:37.000Z</time>
      </trkpt>
      <trkpt lat="43.94804" lon="7.28196">
        <ele>469</ele>
        <time>2018-07-28T07:43:42.000Z</time>
      </trkpt>
      <trkpt lat="43.94807" lon="7.28203">
        <ele>469</ele>
        <time>2018-07-28T07:43:45.000Z</time>
      </trkpt>
      <trkpt lat="43.94815" lon="7.28212">
        <ele>469</ele>
        <time>2018-07-28T07:43:50.000Z</time>
      </trkpt>
      <trkpt lat="43.94817" lon="7.28216">
        <ele>469</ele>
        <time>2018-07-28T07:43:52.000Z</time>
      </trkpt>
      <trkpt lat="43.94821" lon="7.28221">
        <ele>470</ele>
        <time>2018-07-28T07:43:55.000Z</time>
      </trkpt>
      <trkpt lat="43.94827" lon="7.28227">
        <ele>470</ele>
        <time>2018-07-28T07:44:00.000Z</time>
      </trkpt>
      <trkpt lat="43.94834" lon="7.28232">
        <ele>486</ele>
        <time>2018-07-28T07:44:04.000Z</time>
      </trkpt>
      <trkpt lat="43.94839" lon="7.28235">
        <ele>485</ele>
        <time>2018-07-28T07:44:07.000Z</time>
      </trkpt>
      <trkpt lat="43.94847" lon="7.28243">
        <ele>485</ele>
        <time>2018-07-28T07:44:12.000Z</time>
      </trkpt>
      <trkpt lat="43.94853" lon="7.28251">
        <ele>477</ele>
        <time>2018-07-28T07:44:16.000Z</time>
      </trkpt>
      <trkpt lat="43.94857" lon="7.28259">
        <ele>478</ele>
        <time>2018-07-28T07:44:19.000Z</time>
      </trkpt>
      <trkpt lat="43.94862" lon="7.2827">
        <ele>478</ele>
        <time>2018-07-28T07:44:24.000Z</time>
      </trkpt>
      <trkpt lat="43.94868" lon="7.28282">
        <ele>477</ele>
        <time>2018-07-28T07:44:29.000Z</time>
      </trkpt>
      <trkpt lat="43.9487" lon="7.2829">
        <ele>477</ele>
        <time>2018-07-28T07:44:32.000Z</time>
      </trkpt>
      <trkpt lat="43.94877" lon="7.28296">
        <ele>477</ele>
        <time>2018-07-28T07:44:36.000Z</time>
      </trkpt>
      <trkpt lat="43.94884" lon="7.28295">
        <ele>478</ele>
        <time>2018-07-28T07:44:40.000Z</time>
      </trkpt>
      <trkpt lat="43.94885" lon="7.28292">
        <ele>478</ele>
        <time>2018-07-28T07:44:41.000Z</time>
      </trkpt>
      <trkpt lat="43.94883" lon="7.28281">
        <ele>480</ele>
        <time>2018-07-28T07:44:46.000Z</time>
      </trkpt>
      <trkpt lat="43.9488" lon="7.28275">
        <ele>480</ele>
        <time>2018-07-28T07:44:49.000Z</time>
      </trkpt>
      <trkpt lat="43.94876" lon="7.2827">
        <ele>480</ele>
        <time>2018-07-28T07:44:52.000Z</time>
      </trkpt>
      <trkpt lat="43.94871" lon="7.2826">
        <ele>480</ele>
        <time>2018-07-28T07:44:56.000Z</time>
      </trkpt>
      <trkpt lat="43.94869" lon="7.28255">
        <ele>480</ele>
        <time>2018-07-28T07:44:58.000Z</time>
      </trkpt>
      <trkpt lat="43.9486" lon="7.28233">
        <ele>491</ele>
        <time>2018-07-28T07:45:06.000Z</time>
      </trkpt>
      <trkpt lat="43.94859" lon="7.28231">
        <ele>491</ele>
        <time>2018-07-28T07:45:07.000Z</time>
      </trkpt>
      <trkpt lat="43.9485" lon="7.28214">
        <ele>492</ele>
        <time>2018-07-28T07:45:14.000Z</time>
      </trkpt>
      <trkpt lat="43.94845" lon="7.28197">
        <ele>493</ele>
        <time>2018-07-28T07:45:20.000Z</time>
      </trkpt>
      <trkpt lat="43.94841" lon="7.28173">
        <ele>492</ele>
        <time>2018-07-28T07:45:28.000Z</time>
      </trkpt>
      <trkpt lat="43.9484" lon="7.2817">
        <ele>491</ele>
        <time>2018-07-28T07:45:29.000Z</time>
      </trkpt>
      <trkpt lat="43.94839" lon="7.28155">
        <ele>497</ele>
        <time>2018-07-28T07:45:34.000Z</time>
      </trkpt>
      <trkpt lat="43.94839" lon="7.28144">
        <ele>501</ele>
        <time>2018-07-28T07:45:38.000Z</time>
      </trkpt>
      <trkpt lat="43.94839" lon="7.28137">
        <ele>502</ele>
        <time>2018-07-28T07:45:41.000Z</time>
      </trkpt>
      <trkpt lat="43.94838" lon="7.28123">
        <ele>504</ele>
        <time>2018-07-28T07:45:46.000Z</time>
      </trkpt>
      <trkpt lat="43.94838" lon="7.28118">
        <ele>504</ele>
        <time>2018-07-28T07:45:48.000Z</time>
      </trkpt>
      <trkpt lat="43.94838" lon="7.28104">
        <ele>503</ele>
        <time>2018-07-28T07:45:53.000Z</time>
      </trkpt>
      <trkpt lat="43.94838" lon="7.28101">
        <ele>502</ele>
        <time>2018-07-28T07:45:54.000Z</time>
      </trkpt>
      <trkpt lat="43.94836" lon="7.28088">
        <ele>499</ele>
        <time>2018-07-28T07:45:59.000Z</time>
      </trkpt>
      <trkpt lat="43.94837" lon="7.28082">
        <ele>498</ele>
        <time>2018-07-28T07:46:01.000Z</time>
      </trkpt>
      <trkpt lat="43.94837" lon="7.28072">
        <ele>502</ele>
        <time>2018-07-28T07:46:05.000Z</time>
      </trkpt>
      <trkpt lat="43.94838" lon="7.28063">
        <ele>504</ele>
        <time>2018-07-28T07:46:08.000Z</time>
      </trkpt>
      <trkpt lat="43.94841" lon="7.28046">
        <ele>506</ele>
        <time>2018-07-28T07:46:14.000Z</time>
      </trkpt>
      <trkpt lat="43.94847" lon="7.28032">
        <ele>506</ele>
        <time>2018-07-28T07:46:20.000Z</time>
      </trkpt>
      <trkpt lat="43.94852" lon="7.28019">
        <ele>505</ele>
        <time>2018-07-28T07:46:26.000Z</time>
      </trkpt>
      <trkpt lat="43.94855" lon="7.28013">
        <ele>505</ele>
        <time>2018-07-28T07:46:29.000Z</time>
      </trkpt>
      <trkpt lat="43.94857" lon="7.28006">
        <ele>505</ele>
        <time>2018-07-28T07:46:32.000Z</time>
      </trkpt>
      <trkpt lat="43.94862" lon="7.27995">
        <ele>504</ele>
        <time>2018-07-28T07:46:37.000Z</time>
      </trkpt>
      <trkpt lat="43.94866" lon="7.27989">
        <ele>505</ele>
        <time>2018-07-28T07:46:40.000Z</time>
      </trkpt>
      <trkpt lat="43.94874" lon="7.2798">
        <ele>507</ele>
        <time>2018-07-28T07:46:45.000Z</time>
      </trkpt>
      <trkpt lat="43.94877" lon="7.27976">
        <ele>507</ele>
        <time>2018-07-28T07:46:47.000Z</time>
      </trkpt>
      <trkpt lat="43.94884" lon="7.27963">
        <ele>508</ele>
        <time>2018-07-28T07:46:53.000Z</time>
      </trkpt>
      <trkpt lat="43.94887" lon="7.27958">
        <ele>508</ele>
        <time>2018-07-28T07:46:55.000Z</time>
      </trkpt>
      <trkpt lat="43.94891" lon="7.27939">
        <ele>508</ele>
        <time>2018-07-28T07:47:02.000Z</time>
      </trkpt>
      <trkpt lat="43.94892" lon="7.27937">
        <ele>509</ele>
        <time>2018-07-28T07:47:03.000Z</time>
      </trkpt>
      <trkpt lat="43.94894" lon="7.27922">
        <ele>509</ele>
        <time>2018-07-28T07:47:08.000Z</time>
      </trkpt>
      <trkpt lat="43.94895" lon="7.27916">
        <ele>508</ele>
        <time>2018-07-28T07:47:10.000Z</time>
      </trkpt>
      <trkpt lat="43.94896" lon="7.27903">
        <ele>507</ele>
        <time>2018-07-28T07:47:15.000Z</time>
      </trkpt>
      <trkpt lat="43.94898" lon="7.27895">
        <ele>507</ele>
        <time>2018-07-28T07:47:18.000Z</time>
      </trkpt>
      <trkpt lat="43.949" lon="7.27884">
        <ele>507</ele>
        <time>2018-07-28T07:47:22.000Z</time>
      </trkpt>
      <trkpt lat="43.94903" lon="7.2787">
        <ele>507</ele>
        <time>2018-07-28T07:47:28.000Z</time>
      </trkpt>
      <trkpt lat="43.94904" lon="7.27866">
        <ele>507</ele>
        <time>2018-07-28T07:47:29.000Z</time>
      </trkpt>
      <trkpt lat="43.94907" lon="7.2785">
        <ele>509</ele>
        <time>2018-07-28T07:47:35.000Z</time>
      </trkpt>
      <trkpt lat="43.94909" lon="7.27845">
        <ele>510</ele>
        <time>2018-07-28T07:47:37.000Z</time>
      </trkpt>
      <trkpt lat="43.94915" lon="7.27825">
        <ele>511</ele>
        <time>2018-07-28T07:47:45.000Z</time>
      </trkpt>
      <trkpt lat="43.9492" lon="7.27812">
        <ele>517</ele>
        <time>2018-07-28T07:47:51.000Z</time>
      </trkpt>
      <trkpt lat="43.94924" lon="7.27805">
        <ele>517</ele>
        <time>2018-07-28T07:47:54.000Z</time>
      </trkpt>
      <trkpt lat="43.94928" lon="7.27796">
        <ele>517</ele>
        <time>2018-07-28T07:47:58.000Z</time>
      </trkpt>
      <trkpt lat="43.94934" lon="7.27788">
        <ele>517</ele>
        <time>2018-07-28T07:48:02.000Z</time>
      </trkpt>
      <trkpt lat="43.94938" lon="7.27783">
        <ele>517</ele>
        <time>2018-07-28T07:48:05.000Z</time>
      </trkpt>
      <trkpt lat="43.94947" lon="7.27775">
        <ele>517</ele>
        <time>2018-07-28T07:48:11.000Z</time>
      </trkpt>
      <trkpt lat="43.94948" lon="7.27773">
        <ele>517</ele>
        <time>2018-07-28T07:48:12.000Z</time>
      </trkpt>
      <trkpt lat="43.94957" lon="7.27767">
        <ele>518</ele>
        <time>2018-07-28T07:48:17.000Z</time>
      </trkpt>
      <trkpt lat="43.94958" lon="7.27766">
        <ele>518</ele>
        <time>2018-07-28T07:48:18.000Z</time>
      </trkpt>
      <trkpt lat="43.94968" lon="7.2776">
        <ele>519</ele>
        <time>2018-07-28T07:48:24.000Z</time>
      </trkpt>
      <trkpt lat="43.94973" lon="7.27757">
        <ele>519</ele>
        <time>2018-07-28T07:48:27.000Z</time>
      </trkpt>
      <trkpt lat="43.94981" lon="7.27752">
        <ele>519</ele>
        <time>2018-07-28T07:48:32.000Z</time>
      </trkpt>
      <trkpt lat="43.94989" lon="7.27748">
        <ele>515</ele>
        <time>2018-07-28T07:48:37.000Z</time>
      </trkpt>
      <trkpt lat="43.94994" lon="7.27747">
        <ele>516</ele>
        <time>2018-07-28T07:48:40.000Z</time>
      </trkpt>
      <trkpt lat="43.95001" lon="7.27746">
        <ele>521</ele>
        <time>2018-07-28T07:48:44.000Z</time>
      </trkpt>
      <trkpt lat="43.95006" lon="7.27745">
        <ele>521</ele>
        <time>2018-07-28T07:48:47.000Z</time>
      </trkpt>
      <trkpt lat="43.95014" lon="7.27746">
        <ele>522</ele>
        <time>2018-07-28T07:48:52.000Z</time>
      </trkpt>
      <trkpt lat="43.9502" lon="7.27747">
        <ele>523</ele>
        <time>2018-07-28T07:48:55.000Z</time>
      </trkpt>
      <trkpt lat="43.95033" lon="7.27751">
        <ele>534</ele>
        <time>2018-07-28T07:49:02.000Z</time>
      </trkpt>
      <trkpt lat="43.95047" lon="7.27751">
        <ele>537</ele>
        <time>2018-07-28T07:49:09.000Z</time>
      </trkpt>
      <trkpt lat="43.9505" lon="7.27749">
        <ele>528</ele>
        <time>2018-07-28T07:49:11.000Z</time>
      </trkpt>
      <trkpt lat="43.95059" lon="7.27744">
        <ele>530</ele>
        <time>2018-07-28T07:49:16.000Z</time>
      </trkpt>
      <trkpt lat="43.95063" lon="7.27741">
        <ele>531</ele>
        <time>2018-07-28T07:49:18.000Z</time>
      </trkpt>
      <trkpt lat="43.95069" lon="7.27735">
        <ele>531</ele>
        <time>2018-07-28T07:49:22.000Z</time>
      </trkpt>
      <trkpt lat="43.95077" lon="7.27724">
        <ele>530</ele>
        <time>2018-07-28T07:49:28.000Z</time>
      </trkpt>
      <trkpt lat="43.95079" lon="7.27722">
        <ele>530</ele>
        <time>2018-07-28T07:49:29.000Z</time>
      </trkpt>
      <trkpt lat="43.95088" lon="7.27709">
        <ele>547</ele>
        <time>2018-07-28T07:49:36.000Z</time>
      </trkpt>
      <trkpt lat="43.95095" lon="7.27695">
        <ele>545</ele>
        <time>2018-07-28T07:49:42.000Z</time>
      </trkpt>
      <trkpt lat="43.95098" lon="7.27687">
        <ele>544</ele>
        <time>2018-07-28T07:49:45.000Z</time>
      </trkpt>
      <trkpt lat="43.951" lon="7.2768">
        <ele>543</ele>
        <time>2018-07-28T07:49:48.000Z</time>
      </trkpt>
      <trkpt lat="43.95104" lon="7.27663">
        <ele>538</ele>
        <time>2018-07-28T07:49:54.000Z</time>
      </trkpt>
      <trkpt lat="43.95104" lon="7.2766">
        <ele>538</ele>
        <time>2018-07-28T07:49:55.000Z</time>
      </trkpt>
      <trkpt lat="43.95107" lon="7.27645">
        <ele>540</ele>
        <time>2018-07-28T07:50:01.000Z</time>
      </trkpt>
      <trkpt lat="43.95108" lon="7.2764">
        <ele>541</ele>
        <time>2018-07-28T07:50:03.000Z</time>
      </trkpt>
      <trkpt lat="43.95109" lon="7.27627">
        <ele>541</ele>
        <time>2018-07-28T07:50:08.000Z</time>
      </trkpt>
      <trkpt lat="43.9511" lon="7.27622">
        <ele>541</ele>
        <time>2018-07-28T07:50:10.000Z</time>
      </trkpt>
      <trkpt lat="43.95113" lon="7.27607">
        <ele>541</ele>
        <time>2018-07-28T07:50:16.000Z</time>
      </trkpt>
      <trkpt lat="43.95116" lon="7.27595">
        <ele>541</ele>
        <time>2018-07-28T07:50:21.000Z</time>
      </trkpt>
      <trkpt lat="43.95117" lon="7.2759">
        <ele>541</ele>
        <time>2018-07-28T07:50:23.000Z</time>
      </trkpt>
      <trkpt lat="43.95122" lon="7.27574">
        <ele>538</ele>
        <time>2018-07-28T07:50:30.000Z</time>
      </trkpt>
      <trkpt lat="43.95123" lon="7.27572">
        <ele>538</ele>
        <time>2018-07-28T07:50:31.000Z</time>
      </trkpt>
      <trkpt lat="43.95129" lon="7.27554">
        <ele>538</ele>
        <time>2018-07-28T07:50:39.000Z</time>
      </trkpt>
      <trkpt lat="43.95129" lon="7.27552">
        <ele>538</ele>
        <time>2018-07-28T07:50:40.000Z</time>
      </trkpt>
      <trkpt lat="43.95137" lon="7.27537">
        <ele>539</ele>
        <time>2018-07-28T07:50:47.000Z</time>
      </trkpt>
      <trkpt lat="43.95139" lon="7.27532">
        <ele>539</ele>
        <time>2018-07-28T07:50:49.000Z</time>
      </trkpt>
      <trkpt lat="43.95146" lon="7.27519">
        <ele>540</ele>
        <time>2018-07-28T07:50:56.000Z</time>
      </trkpt>
      <trkpt lat="43.9515" lon="7.27513">
        <ele>541</ele>
        <time>2018-07-28T07:50:59.000Z</time>
      </trkpt>
      <trkpt lat="43.95154" lon="7.27502">
        <ele>543</ele>
        <time>2018-07-28T07:51:04.000Z</time>
      </trkpt>
      <trkpt lat="43.95157" lon="7.27495">
        <ele>539</ele>
        <time>2018-07-28T07:51:07.000Z</time>
      </trkpt>
      <trkpt lat="43.9516" lon="7.27486">
        <ele>536</ele>
        <time>2018-07-28T07:51:11.000Z</time>
      </trkpt>
      <trkpt lat="43.95165" lon="7.27472">
        <ele>532</ele>
        <time>2018-07-28T07:51:17.000Z</time>
      </trkpt>
      <trkpt lat="43.95166" lon="7.2747">
        <ele>531</ele>
        <time>2018-07-28T07:51:18.000Z</time>
      </trkpt>
      <trkpt lat="43.95172" lon="7.27461">
        <ele>542</ele>
        <time>2018-07-28T07:51:23.000Z</time>
      </trkpt>
      <trkpt lat="43.95174" lon="7.27459">
        <ele>542</ele>
        <time>2018-07-28T07:51:24.000Z</time>
      </trkpt>
      <trkpt lat="43.95185" lon="7.27454">
        <ele>541</ele>
        <time>2018-07-28T07:51:30.000Z</time>
      </trkpt>
      <trkpt lat="43.95199" lon="7.27458">
        <ele>543</ele>
        <time>2018-07-28T07:51:38.000Z</time>
      </trkpt>
      <trkpt lat="43.95201" lon="7.27459">
        <ele>543</ele>
        <time>2018-07-28T07:51:39.000Z</time>
      </trkpt>
      <trkpt lat="43.95209" lon="7.27465">
        <ele>544</ele>
        <time>2018-07-28T07:51:44.000Z</time>
      </trkpt>
      <trkpt lat="43.95214" lon="7.27468">
        <ele>545</ele>
        <time>2018-07-28T07:51:47.000Z</time>
      </trkpt>
      <trkpt lat="43.9522" lon="7.27471">
        <ele>546</ele>
        <time>2018-07-28T07:51:51.000Z</time>
      </trkpt>
      <trkpt lat="43.95226" lon="7.27472">
        <ele>548</ele>
        <time>2018-07-28T07:51:54.000Z</time>
      </trkpt>
      <trkpt lat="43.95235" lon="7.27472">
        <ele>549</ele>
        <time>2018-07-28T07:51:58.000Z</time>
      </trkpt>
      <trkpt lat="43.95241" lon="7.27473">
        <ele>549</ele>
        <time>2018-07-28T07:52:01.000Z</time>
      </trkpt>
      <trkpt lat="43.95247" lon="7.27473">
        <ele>550</ele>
        <time>2018-07-28T07:52:04.000Z</time>
      </trkpt>
      <trkpt lat="43.95255" lon="7.27474">
        <ele>553</ele>
        <time>2018-07-28T07:52:08.000Z</time>
      </trkpt>
      <trkpt lat="43.95263" lon="7.27476">
        <ele>553</ele>
        <time>2018-07-28T07:52:12.000Z</time>
      </trkpt>
      <trkpt lat="43.95269" lon="7.27479">
        <ele>554</ele>
        <time>2018-07-28T07:52:15.000Z</time>
      </trkpt>
      <trkpt lat="43.95274" lon="7.27482">
        <ele>554</ele>
        <time>2018-07-28T07:52:18.000Z</time>
      </trkpt>
      <trkpt lat="43.95283" lon="7.27488">
        <ele>554</ele>
        <time>2018-07-28T07:52:23.000Z</time>
      </trkpt>
      <trkpt lat="43.95287" lon="7.2749">
        <ele>554</ele>
        <time>2018-07-28T07:52:25.000Z</time>
      </trkpt>
      <trkpt lat="43.95294" lon="7.27494">
        <ele>554</ele>
        <time>2018-07-28T07:52:29.000Z</time>
      </trkpt>
      <trkpt lat="43.95301" lon="7.27494">
        <ele>554</ele>
        <time>2018-07-28T07:52:32.000Z</time>
      </trkpt>
      <trkpt lat="43.95309" lon="7.27497">
        <ele>555</ele>
        <time>2018-07-28T07:52:36.000Z</time>
      </trkpt>
      <trkpt lat="43.9531" lon="7.27498">
        <ele>555</ele>
        <time>2018-07-28T07:52:37.000Z</time>
      </trkpt>
      <trkpt lat="43.95319" lon="7.27501">
        <ele>568</ele>
        <time>2018-07-28T07:52:42.000Z</time>
      </trkpt>
      <trkpt lat="43.95323" lon="7.27504">
        <ele>567</ele>
        <time>2018-07-28T07:52:44.000Z</time>
      </trkpt>
      <trkpt lat="43.95333" lon="7.2751">
        <ele>566</ele>
        <time>2018-07-28T07:52:49.000Z</time>
      </trkpt>
      <trkpt lat="43.95339" lon="7.27515">
        <ele>567</ele>
        <time>2018-07-28T07:52:52.000Z</time>
      </trkpt>
      <trkpt lat="43.95347" lon="7.27521">
        <ele>569</ele>
        <time>2018-07-28T07:52:56.000Z</time>
      </trkpt>
      <trkpt lat="43.9536" lon="7.27527">
        <ele>570</ele>
        <time>2018-07-28T07:53:02.000Z</time>
      </trkpt>
      <trkpt lat="43.95378" lon="7.27536">
        <ele>571</ele>
        <time>2018-07-28T07:53:10.000Z</time>
      </trkpt>
      <trkpt lat="43.9538" lon="7.27537">
        <ele>571</ele>
        <time>2018-07-28T07:53:11.000Z</time>
      </trkpt>
      <trkpt lat="43.95404" lon="7.27542">
        <ele>571</ele>
        <time>2018-07-28T07:53:20.000Z</time>
      </trkpt>
      <trkpt lat="43.95424" lon="7.27539">
        <ele>572</ele>
        <time>2018-07-28T07:53:27.000Z</time>
      </trkpt>
      <trkpt lat="43.95432" lon="7.27538">
        <ele>572</ele>
        <time>2018-07-28T07:53:30.000Z</time>
      </trkpt>
      <trkpt lat="43.9544" lon="7.27536">
        <ele>572</ele>
        <time>2018-07-28T07:53:33.000Z</time>
      </trkpt>
      <trkpt lat="43.95442" lon="7.27534">
        <ele>572</ele>
        <time>2018-07-28T07:53:34.000Z</time>
      </trkpt>
      <trkpt lat="43.95449" lon="7.27529">
        <ele>572</ele>
        <time>2018-07-28T07:53:37.000Z</time>
      </trkpt>
      <trkpt lat="43.95454" lon="7.27525">
        <ele>573</ele>
        <time>2018-07-28T07:53:40.000Z</time>
      </trkpt>
      <trkpt lat="43.95459" lon="7.27521">
        <ele>573</ele>
        <time>2018-07-28T07:53:43.000Z</time>
      </trkpt>
      <trkpt lat="43.95466" lon="7.27516">
        <ele>573</ele>
        <time>2018-07-28T07:53:47.000Z</time>
      </trkpt>
      <trkpt lat="43.95468" lon="7.27514">
        <ele>573</ele>
        <time>2018-07-28T07:53:48.000Z</time>
      </trkpt>
      <trkpt lat="43.95476" lon="7.27507">
        <ele>574</ele>
        <time>2018-07-28T07:53:53.000Z</time>
      </trkpt>
      <trkpt lat="43.95483" lon="7.275">
        <ele>571</ele>
        <time>2018-07-28T07:53:58.000Z</time>
      </trkpt>
      <trkpt lat="43.95485" lon="7.27498">
        <ele>571</ele>
        <time>2018-07-28T07:53:59.000Z</time>
      </trkpt>
      <trkpt lat="43.95494" lon="7.2749">
        <ele>572</ele>
        <time>2018-07-28T07:54:05.000Z</time>
      </trkpt>
      <trkpt lat="43.95497" lon="7.27487">
        <ele>572</ele>
        <time>2018-07-28T07:54:07.000Z</time>
      </trkpt>
      <trkpt lat="43.95502" lon="7.27483">
        <ele>578</ele>
        <time>2018-07-28T07:54:10.000Z</time>
      </trkpt>
      <trkpt lat="43.95511" lon="7.27474">
        <ele>579</ele>
        <time>2018-07-28T07:54:16.000Z</time>
      </trkpt>
      <trkpt lat="43.95512" lon="7.27472">
        <ele>580</ele>
        <time>2018-07-28T07:54:17.000Z</time>
      </trkpt>
      <trkpt lat="43.95523" lon="7.27458">
        <ele>580</ele>
        <time>2018-07-28T07:54:24.000Z</time>
      </trkpt>
      <trkpt lat="43.95527" lon="7.27452">
        <ele>581</ele>
        <time>2018-07-28T07:54:27.000Z</time>
      </trkpt>
      <trkpt lat="43.95535" lon="7.2744">
        <ele>581</ele>
        <time>2018-07-28T07:54:33.000Z</time>
      </trkpt>
      <trkpt lat="43.95538" lon="7.27436">
        <ele>581</ele>
        <time>2018-07-28T07:54:35.000Z</time>
      </trkpt>
      <trkpt lat="43.95545" lon="7.27418">
        <ele>582</ele>
        <time>2018-07-28T07:54:42.000Z</time>
      </trkpt>
      <trkpt lat="43.95547" lon="7.2741">
        <ele>580</ele>
        <time>2018-07-28T07:54:45.000Z</time>
      </trkpt>
      <trkpt lat="43.95549" lon="7.27397">
        <ele>579</ele>
        <time>2018-07-28T07:54:50.000Z</time>
      </trkpt>
      <trkpt lat="43.95551" lon="7.27391">
        <ele>579</ele>
        <time>2018-07-28T07:54:52.000Z</time>
      </trkpt>
      <trkpt lat="43.95557" lon="7.27384">
        <ele>580</ele>
        <time>2018-07-28T07:54:56.000Z</time>
      </trkpt>
      <trkpt lat="43.95561" lon="7.2738">
        <ele>580</ele>
        <time>2018-07-28T07:54:59.000Z</time>
      </trkpt>
      <trkpt lat="43.95568" lon="7.27374">
        <ele>581</ele>
        <time>2018-07-28T07:55:04.000Z</time>
      </trkpt>
      <trkpt lat="43.95569" lon="7.27373">
        <ele>581</ele>
        <time>2018-07-28T07:55:05.000Z</time>
      </trkpt>
      <trkpt lat="43.95578" lon="7.27366">
        <ele>581</ele>
        <time>2018-07-28T07:55:10.000Z</time>
      </trkpt>
      <trkpt lat="43.95582" lon="7.27362">
        <ele>582</ele>
        <time>2018-07-28T07:55:13.000Z</time>
      </trkpt>
      <trkpt lat="43.95588" lon="7.27358">
        <ele>595</ele>
        <time>2018-07-28T07:55:16.000Z</time>
      </trkpt>
      <trkpt lat="43.95598" lon="7.27351">
        <ele>595</ele>
        <time>2018-07-28T07:55:21.000Z</time>
      </trkpt>
      <trkpt lat="43.95607" lon="7.27345">
        <ele>597</ele>
        <time>2018-07-28T07:55:26.000Z</time>
      </trkpt>
      <trkpt lat="43.95613" lon="7.27337">
        <ele>598</ele>
        <time>2018-07-28T07:55:31.000Z</time>
      </trkpt>
      <trkpt lat="43.95615" lon="7.27334">
        <ele>599</ele>
        <time>2018-07-28T07:55:33.000Z</time>
      </trkpt>
      <trkpt lat="43.95616" lon="7.27323">
        <ele>602</ele>
        <time>2018-07-28T07:55:37.000Z</time>
      </trkpt>
      <trkpt lat="43.95615" lon="7.27319">
        <ele>602</ele>
        <time>2018-07-28T07:55:39.000Z</time>
      </trkpt>
      <trkpt lat="43.95612" lon="7.27313">
        <ele>601</ele>
        <time>2018-07-28T07:55:42.000Z</time>
      </trkpt>
      <trkpt lat="43.95605" lon="7.27305">
        <ele>601</ele>
        <time>2018-07-28T07:55:47.000Z</time>
      </trkpt>
      <trkpt lat="43.95604" lon="7.27304">
        <ele>601</ele>
        <time>2018-07-28T07:55:48.000Z</time>
      </trkpt>
      <trkpt lat="43.95597" lon="7.27293">
        <ele>601</ele>
        <time>2018-07-28T07:55:54.000Z</time>
      </trkpt>
      <trkpt lat="43.95595" lon="7.27291">
        <ele>601</ele>
        <time>2018-07-28T07:55:55.000Z</time>
      </trkpt>
      <trkpt lat="43.95591" lon="7.27284">
        <ele>601</ele>
        <time>2018-07-28T07:55:59.000Z</time>
      </trkpt>
      <trkpt lat="43.95588" lon="7.27281">
        <ele>601</ele>
        <time>2018-07-28T07:56:01.000Z</time>
      </trkpt>
      <trkpt lat="43.95584" lon="7.27273">
        <ele>601</ele>
        <time>2018-07-28T07:56:05.000Z</time>
      </trkpt>
      <trkpt lat="43.95583" lon="7.27267">
        <ele>590</ele>
        <time>2018-07-28T07:56:07.000Z</time>
      </trkpt>
      <trkpt lat="43.95578" lon="7.2726">
        <ele>591</ele>
        <time>2018-07-28T07:56:11.000Z</time>
      </trkpt>
      <trkpt lat="43.95574" lon="7.27255">
        <ele>592</ele>
        <time>2018-07-28T07:56:14.000Z</time>
      </trkpt>
      <trkpt lat="43.95572" lon="7.27249">
        <ele>595</ele>
        <time>2018-07-28T07:56:17.000Z</time>
      </trkpt>
      <trkpt lat="43.95569" lon="7.27242">
        <ele>594</ele>
        <time>2018-07-28T07:56:20.000Z</time>
      </trkpt>
      <trkpt lat="43.95567" lon="7.27236">
        <ele>594</ele>
        <time>2018-07-28T07:56:23.000Z</time>
      </trkpt>
      <trkpt lat="43.95563" lon="7.27228">
        <ele>593</ele>
        <time>2018-07-28T07:56:27.000Z</time>
      </trkpt>
      <trkpt lat="43.9556" lon="7.27222">
        <ele>593</ele>
        <time>2018-07-28T07:56:30.000Z</time>
      </trkpt>
      <trkpt lat="43.95556" lon="7.27214">
        <ele>593</ele>
        <time>2018-07-28T07:56:34.000Z</time>
      </trkpt>
      <trkpt lat="43.95555" lon="7.27209">
        <ele>593</ele>
        <time>2018-07-28T07:56:36.000Z</time>
      </trkpt>
      <trkpt lat="43.95551" lon="7.27199">
        <ele>594</ele>
        <time>2018-07-28T07:56:41.000Z</time>
      </trkpt>
      <trkpt lat="43.95547" lon="7.27187">
        <ele>594</ele>
        <time>2018-07-28T07:56:46.000Z</time>
      </trkpt>
      <trkpt lat="43.95547" lon="7.27184">
        <ele>594</ele>
        <time>2018-07-28T07:56:47.000Z</time>
      </trkpt>
      <trkpt lat="43.95549" lon="7.27169">
        <ele>595</ele>
        <time>2018-07-28T07:56:53.000Z</time>
      </trkpt>
      <trkpt lat="43.95549" lon="7.27166">
        <ele>596</ele>
        <time>2018-07-28T07:56:54.000Z</time>
      </trkpt>
      <trkpt lat="43.95556" lon="7.27152">
        <ele>597</ele>
        <time>2018-07-28T07:57:00.000Z</time>
      </trkpt>
      <trkpt lat="43.95559" lon="7.27147">
        <ele>597</ele>
        <time>2018-07-28T07:57:02.000Z</time>
      </trkpt>
      <trkpt lat="43.95567" lon="7.27134">
        <ele>597</ele>
        <time>2018-07-28T07:57:08.000Z</time>
      </trkpt>
      <trkpt lat="43.95569" lon="7.2713">
        <ele>597</ele>
        <time>2018-07-28T07:57:10.000Z</time>
      </trkpt>
      <trkpt lat="43.95576" lon="7.27119">
        <ele>597</ele>
        <time>2018-07-28T07:57:15.000Z</time>
      </trkpt>
      <trkpt lat="43.95582" lon="7.27109">
        <ele>597</ele>
        <time>2018-07-28T07:57:19.000Z</time>
      </trkpt>
      <trkpt lat="43.95587" lon="7.27102">
        <ele>606</ele>
        <time>2018-07-28T07:57:22.000Z</time>
      </trkpt>
      <trkpt lat="43.95595" lon="7.27093">
        <ele>605</ele>
        <time>2018-07-28T07:57:27.000Z</time>
      </trkpt>
      <trkpt lat="43.95602" lon="7.27086">
        <ele>606</ele>
        <time>2018-07-28T07:57:31.000Z</time>
      </trkpt>
      <trkpt lat="43.9561" lon="7.27084">
        <ele>607</ele>
        <time>2018-07-28T07:57:35.000Z</time>
      </trkpt>
      <trkpt lat="43.95615" lon="7.27085">
        <ele>608</ele>
        <time>2018-07-28T07:57:37.000Z</time>
      </trkpt>
      <trkpt lat="43.95628" lon="7.27088">
        <ele>610</ele>
        <time>2018-07-28T07:57:43.000Z</time>
      </trkpt>
      <trkpt lat="43.95636" lon="7.27085">
        <ele>610</ele>
        <time>2018-07-28T07:57:46.000Z</time>
      </trkpt>
      <trkpt lat="43.9565" lon="7.27079">
        <ele>607</ele>
        <time>2018-07-28T07:57:52.000Z</time>
      </trkpt>
      <trkpt lat="43.95655" lon="7.27077">
        <ele>608</ele>
        <time>2018-07-28T07:57:54.000Z</time>
      </trkpt>
      <trkpt lat="43.95671" lon="7.27072">
        <ele>615</ele>
        <time>2018-07-28T07:58:00.000Z</time>
      </trkpt>
      <trkpt lat="43.95682" lon="7.27069">
        <ele>616</ele>
        <time>2018-07-28T07:58:05.000Z</time>
      </trkpt>
      <trkpt lat="43.95701" lon="7.27062">
        <ele>618</ele>
        <time>2018-07-28T07:58:13.000Z</time>
      </trkpt>
      <trkpt lat="43.95705" lon="7.2706">
        <ele>618</ele>
        <time>2018-07-28T07:58:15.000Z</time>
      </trkpt>
      <trkpt lat="43.95716" lon="7.27055">
        <ele>619</ele>
        <time>2018-07-28T07:58:20.000Z</time>
      </trkpt>
      <trkpt lat="43.95722" lon="7.27052">
        <ele>619</ele>
        <time>2018-07-28T07:58:23.000Z</time>
      </trkpt>
      <trkpt lat="43.95726" lon="7.27053">
        <ele>620</ele>
        <time>2018-07-28T07:58:26.000Z</time>
      </trkpt>
      <trkpt lat="43.95727" lon="7.27055">
        <ele>620</ele>
        <time>2018-07-28T07:58:27.000Z</time>
      </trkpt>
      <trkpt lat="43.95727" lon="7.27056">
        <ele>620</ele>
        <time>2018-07-28T07:58:28.000Z</time>
      </trkpt>
      <trkpt lat="43.95726" lon="7.27065">
        <ele>621</ele>
        <time>2018-07-28T07:58:33.000Z</time>
      </trkpt>
      <trkpt lat="43.95724" lon="7.27067">
        <ele>621</ele>
        <time>2018-07-28T07:58:34.000Z</time>
      </trkpt>
      <trkpt lat="43.95721" lon="7.27072">
        <ele>621</ele>
        <time>2018-07-28T07:58:37.000Z</time>
      </trkpt>
      <trkpt lat="43.9572" lon="7.27074">
        <ele>621</ele>
        <time>2018-07-28T07:58:38.000Z</time>
      </trkpt>
      <trkpt lat="43.9571" lon="7.27088">
        <ele>626</ele>
        <time>2018-07-28T07:58:46.000Z</time>
      </trkpt>
      <trkpt lat="43.95709" lon="7.2709">
        <ele>625</ele>
        <time>2018-07-28T07:58:47.000Z</time>
      </trkpt>
      <trkpt lat="43.95699" lon="7.27102">
        <ele>624</ele>
        <time>2018-07-28T07:58:54.000Z</time>
      </trkpt>
      <trkpt lat="43.95697" lon="7.27103">
        <ele>624</ele>
        <time>2018-07-28T07:58:55.000Z</time>
      </trkpt>
      <trkpt lat="43.95686" lon="7.27114">
        <ele>624</ele>
        <time>2018-07-28T07:59:02.000Z</time>
      </trkpt>
      <trkpt lat="43.95682" lon="7.27118">
        <ele>624</ele>
        <time>2018-07-28T07:59:04.000Z</time>
      </trkpt>
      <trkpt lat="43.95667" lon="7.27134">
        <ele>624</ele>
        <time>2018-07-28T07:59:12.000Z</time>
      </trkpt>
      <trkpt lat="43.95664" lon="7.27137">
        <ele>614</ele>
        <time>2018-07-28T07:59:14.000Z</time>
      </trkpt>
      <trkpt lat="43.95659" lon="7.27144">
        <ele>615</ele>
        <time>2018-07-28T07:59:17.000Z</time>
      </trkpt>
      <trkpt lat="43.95653" lon="7.27159">
        <ele>617</ele>
        <time>2018-07-28T07:59:22.000Z</time>
      </trkpt>
      <trkpt lat="43.95653" lon="7.27165">
        <ele>617</ele>
        <time>2018-07-28T07:59:24.000Z</time>
      </trkpt>
      <trkpt lat="43.95656" lon="7.27182">
        <ele>617</ele>
        <time>2018-07-28T07:59:29.000Z</time>
      </trkpt>
      <trkpt lat="43.95658" lon="7.27192">
        <ele>617</ele>
        <time>2018-07-28T07:59:32.000Z</time>
      </trkpt>
      <trkpt lat="43.95663" lon="7.27212">
        <ele>616</ele>
        <time>2018-07-28T07:59:38.000Z</time>
      </trkpt>
      <trkpt lat="43.95664" lon="7.27219">
        <ele>616</ele>
        <time>2018-07-28T07:59:40.000Z</time>
      </trkpt>
      <trkpt lat="43.95665" lon="7.27239">
        <ele>619</ele>
        <time>2018-07-28T07:59:46.000Z</time>
      </trkpt>
      <trkpt lat="43.95665" lon="7.27242">
        <ele>620</ele>
        <time>2018-07-28T07:59:47.000Z</time>
      </trkpt>
      <trkpt lat="43.9567" lon="7.27263">
        <ele>627</ele>
        <time>2018-07-28T07:59:53.000Z</time>
      </trkpt>
      <trkpt lat="43.95674" lon="7.27268">
        <ele>628</ele>
        <time>2018-07-28T07:59:55.000Z</time>
      </trkpt>
      <trkpt lat="43.9568" lon="7.27277">
        <ele>630</ele>
        <time>2018-07-28T07:59:59.000Z</time>
      </trkpt>
      <trkpt lat="43.95686" lon="7.27283">
        <ele>630</ele>
        <time>2018-07-28T08:00:02.000Z</time>
      </trkpt>
      <trkpt lat="43.9569" lon="7.27287">
        <ele>631</ele>
        <time>2018-07-28T08:00:04.000Z</time>
      </trkpt>
      <trkpt lat="43.95698" lon="7.27298">
        <ele>631</ele>
        <time>2018-07-28T08:00:09.000Z</time>
      </trkpt>
      <trkpt lat="43.95701" lon="7.27301">
        <ele>632</ele>
        <time>2018-07-28T08:00:11.000Z</time>
      </trkpt>
      <trkpt lat="43.95707" lon="7.27307">
        <ele>633</ele>
        <time>2018-07-28T08:00:14.000Z</time>
      </trkpt>
      <trkpt lat="43.95716" lon="7.27316">
        <ele>634</ele>
        <time>2018-07-28T08:00:19.000Z</time>
      </trkpt>
      <trkpt lat="43.95726" lon="7.27324">
        <ele>636</ele>
        <time>2018-07-28T08:00:24.000Z</time>
      </trkpt>
      <trkpt lat="43.9573" lon="7.27327">
        <ele>637</ele>
        <time>2018-07-28T08:00:26.000Z</time>
      </trkpt>
      <trkpt lat="43.95734" lon="7.2733">
        <ele>639</ele>
        <time>2018-07-28T08:00:29.000Z</time>
      </trkpt>
      <trkpt lat="43.95741" lon="7.27334">
        <ele>639</ele>
        <time>2018-07-28T08:00:33.000Z</time>
      </trkpt>
      <trkpt lat="43.95743" lon="7.27335">
        <ele>640</ele>
        <time>2018-07-28T08:00:34.000Z</time>
      </trkpt>
      <trkpt lat="43.9575" lon="7.27339">
        <ele>646</ele>
        <time>2018-07-28T08:00:39.000Z</time>
      </trkpt>
      <trkpt lat="43.95753" lon="7.27341">
        <ele>647</ele>
        <time>2018-07-28T08:00:41.000Z</time>
      </trkpt>
      <trkpt lat="43.95757" lon="7.27345">
        <ele>649</ele>
        <time>2018-07-28T08:00:45.000Z</time>
      </trkpt>
      <trkpt lat="43.95758" lon="7.27347">
        <ele>649</ele>
        <time>2018-07-28T08:00:46.000Z</time>
      </trkpt>
      <trkpt lat="43.95758" lon="7.27348">
        <ele>650</ele>
        <time>2018-07-28T08:00:47.000Z</time>
      </trkpt>
      <trkpt lat="43.95759" lon="7.27356">
        <ele>651</ele>
        <time>2018-07-28T08:00:50.000Z</time>
      </trkpt>
      <trkpt lat="43.95761" lon="7.27362">
        <ele>651</ele>
        <time>2018-07-28T08:00:52.000Z</time>
      </trkpt>
      <trkpt lat="43.95761" lon="7.27368">
        <ele>651</ele>
        <time>2018-07-28T08:00:54.000Z</time>
      </trkpt>
      <trkpt lat="43.95758" lon="7.27379">
        <ele>650</ele>
        <time>2018-07-28T08:00:57.000Z</time>
      </trkpt>
      <trkpt lat="43.95757" lon="7.27382">
        <ele>650</ele>
        <time>2018-07-28T08:00:58.000Z</time>
      </trkpt>
      <trkpt lat="43.95757" lon="7.27401">
        <ele>646</ele>
        <time>2018-07-28T08:01:03.000Z</time>
      </trkpt>
      <trkpt lat="43.95758" lon="7.27405">
        <ele>646</ele>
        <time>2018-07-28T08:01:04.000Z</time>
      </trkpt>
      <trkpt lat="43.95768" lon="7.27434">
        <ele>648</ele>
        <time>2018-07-28T08:01:12.000Z</time>
      </trkpt>
      <trkpt lat="43.95769" lon="7.27437">
        <ele>648</ele>
        <time>2018-07-28T08:01:13.000Z</time>
      </trkpt>
      <trkpt lat="43.95769" lon="7.27462">
        <ele>650</ele>
        <time>2018-07-28T08:01:19.000Z</time>
      </trkpt>
      <trkpt lat="43.95768" lon="7.27466">
        <ele>650</ele>
        <time>2018-07-28T08:01:20.000Z</time>
      </trkpt>
      <trkpt lat="43.95766" lon="7.27498">
        <ele>648</ele>
        <time>2018-07-28T08:01:27.000Z</time>
      </trkpt>
      <trkpt lat="43.95761" lon="7.27529">
        <ele>654</ele>
        <time>2018-07-28T08:01:34.000Z</time>
      </trkpt>
      <trkpt lat="43.95756" lon="7.27535">
        <ele>655</ele>
        <time>2018-07-28T08:01:36.000Z</time>
      </trkpt>
      <trkpt lat="43.95746" lon="7.27545">
        <ele>642</ele>
        <time>2018-07-28T08:01:40.000Z</time>
      </trkpt>
      <trkpt lat="43.95735" lon="7.27553">
        <ele>643</ele>
        <time>2018-07-28T08:01:44.000Z</time>
      </trkpt>
      <trkpt lat="43.95726" lon="7.27561">
        <ele>642</ele>
        <time>2018-07-28T08:01:47.000Z</time>
      </trkpt>
      <trkpt lat="43.95713" lon="7.27581">
        <ele>641</ele>
        <time>2018-07-28T08:01:52.000Z</time>
      </trkpt>
      <trkpt lat="43.95706" lon="7.27607">
        <ele>646</ele>
        <time>2018-07-28T08:01:58.000Z</time>
      </trkpt>
      <trkpt lat="43.95706" lon="7.27611">
        <ele>647</ele>
        <time>2018-07-28T08:01:59.000Z</time>
      </trkpt>
      <trkpt lat="43.95706" lon="7.27636">
        <ele>648</ele>
        <time>2018-07-28T08:02:04.000Z</time>
      </trkpt>
      <trkpt lat="43.95706" lon="7.27671">
        <ele>653</ele>
        <time>2018-07-28T08:02:11.000Z</time>
      </trkpt>
      <trkpt lat="43.95696" lon="7.27695">
        <ele>652</ele>
        <time>2018-07-28T08:02:16.000Z</time>
      </trkpt>
      <trkpt lat="43.95692" lon="7.27702">
        <ele>652</ele>
        <time>2018-07-28T08:02:18.000Z</time>
      </trkpt>
      <trkpt lat="43.95681" lon="7.27722">
        <ele>653</ele>
        <time>2018-07-28T08:02:23.000Z</time>
      </trkpt>
      <trkpt lat="43.95671" lon="7.27751">
        <ele>655</ele>
        <time>2018-07-28T08:02:29.000Z</time>
      </trkpt>
      <trkpt lat="43.95669" lon="7.27756">
        <ele>656</ele>
        <time>2018-07-28T08:02:30.000Z</time>
      </trkpt>
      <trkpt lat="43.95658" lon="7.27765">
        <ele>654</ele>
        <time>2018-07-28T08:02:34.000Z</time>
      </trkpt>
      <trkpt lat="43.95654" lon="7.27765">
        <ele>654</ele>
        <time>2018-07-28T08:02:35.000Z</time>
      </trkpt>
      <trkpt lat="43.95641" lon="7.27763">
        <ele>653</ele>
        <time>2018-07-28T08:02:39.000Z</time>
      </trkpt>
      <trkpt lat="43.95628" lon="7.27762">
        <ele>652</ele>
        <time>2018-07-28T08:02:43.000Z</time>
      </trkpt>
      <trkpt lat="43.95621" lon="7.27766">
        <ele>651</ele>
        <time>2018-07-28T08:02:45.000Z</time>
      </trkpt>
      <trkpt lat="43.95604" lon="7.27778">
        <ele>651</ele>
        <time>2018-07-28T08:02:50.000Z</time>
      </trkpt>
      <trkpt lat="43.95596" lon="7.27784">
        <ele>651</ele>
        <time>2018-07-28T08:02:53.000Z</time>
      </trkpt>
      <trkpt lat="43.95588" lon="7.27796">
        <ele>653</ele>
        <time>2018-07-28T08:02:56.000Z</time>
      </trkpt>
      <trkpt lat="43.95585" lon="7.27805">
        <ele>654</ele>
        <time>2018-07-28T08:02:58.000Z</time>
      </trkpt>
      <trkpt lat="43.95582" lon="7.27816">
        <ele>645</ele>
        <time>2018-07-28T08:03:00.000Z</time>
      </trkpt>
      <trkpt lat="43.95573" lon="7.2785">
        <ele>652</ele>
        <time>2018-07-28T08:03:07.000Z</time>
      </trkpt>
      <trkpt lat="43.95563" lon="7.27883">
        <ele>651</ele>
        <time>2018-07-28T08:03:14.000Z</time>
      </trkpt>
      <trkpt lat="43.95561" lon="7.27887">
        <ele>651</ele>
        <time>2018-07-28T08:03:15.000Z</time>
      </trkpt>
      <trkpt lat="43.95548" lon="7.27929">
        <ele>655</ele>
        <time>2018-07-28T08:03:25.000Z</time>
      </trkpt>
      <trkpt lat="43.95544" lon="7.27943">
        <ele>655</ele>
        <time>2018-07-28T08:03:29.000Z</time>
      </trkpt>
      <trkpt lat="43.95545" lon="7.27946">
        <ele>655</ele>
        <time>2018-07-28T08:03:30.000Z</time>
      </trkpt>
      <trkpt lat="43.95555" lon="7.27966">
        <ele>655</ele>
        <time>2018-07-28T08:03:36.000Z</time>
      </trkpt>
      <trkpt lat="43.95566" lon="7.27976">
        <ele>656</ele>
        <time>2018-07-28T08:03:42.000Z</time>
      </trkpt>
      <trkpt lat="43.95568" lon="7.27978">
        <ele>656</ele>
        <time>2018-07-28T08:03:43.000Z</time>
      </trkpt>
      <trkpt lat="43.95582" lon="7.27982">
        <ele>656</ele>
        <time>2018-07-28T08:03:49.000Z</time>
      </trkpt>
      <trkpt lat="43.95594" lon="7.27989">
        <ele>662</ele>
        <time>2018-07-28T08:03:55.000Z</time>
      </trkpt>
      <trkpt lat="43.95609" lon="7.27995">
        <ele>665</ele>
        <time>2018-07-28T08:04:02.000Z</time>
      </trkpt>
      <trkpt lat="43.95616" lon="7.27999">
        <ele>667</ele>
        <time>2018-07-28T08:04:08.000Z</time>
      </trkpt>
      <trkpt lat="43.95616" lon="7.28001">
        <ele>660</ele>
        <time>2018-07-28T08:04:09.000Z</time>
      </trkpt>
      <trkpt lat="43.95613" lon="7.28002">
        <ele>659</ele>
        <time>2018-07-28T08:04:11.000Z</time>
      </trkpt>
      <trkpt lat="43.95611" lon="7.28001">
        <ele>659</ele>
        <time>2018-07-28T08:04:12.000Z</time>
      </trkpt>
      <trkpt lat="43.95607" lon="7.27997">
        <ele>665</ele>
        <time>2018-07-28T08:04:14.000Z</time>
      </trkpt>
      <trkpt lat="43.95595" lon="7.27991">
        <ele>662</ele>
        <time>2018-07-28T08:04:18.000Z</time>
      </trkpt>
      <trkpt lat="43.95588" lon="7.27987">
        <ele>661</ele>
        <time>2018-07-28T08:04:20.000Z</time>
      </trkpt>
      <trkpt lat="43.95577" lon="7.27981">
        <ele>656</ele>
        <time>2018-07-28T08:04:23.000Z</time>
      </trkpt>
      <trkpt lat="43.95571" lon="7.27979">
        <ele>656</ele>
        <time>2018-07-28T08:04:24.000Z</time>
      </trkpt>
      <trkpt lat="43.95556" lon="7.27967">
        <ele>655</ele>
        <time>2018-07-28T08:04:27.000Z</time>
      </trkpt>
      <trkpt lat="43.95552" lon="7.2796">
        <ele>655</ele>
        <time>2018-07-28T08:04:28.000Z</time>
      </trkpt>
      <trkpt lat="43.95547" lon="7.27945">
        <ele>655</ele>
        <time>2018-07-28T08:04:30.000Z</time>
      </trkpt>
      <trkpt lat="43.95546" lon="7.27938">
        <ele>655</ele>
        <time>2018-07-28T08:04:31.000Z</time>
      </trkpt>
      <trkpt lat="43.95549" lon="7.27917">
        <ele>656</ele>
        <time>2018-07-28T08:04:34.000Z</time>
      </trkpt>
      <trkpt lat="43.95554" lon="7.27902">
        <ele>652</ele>
        <time>2018-07-28T08:04:36.000Z</time>
      </trkpt>
      <trkpt lat="43.95564" lon="7.27873">
        <ele>651</ele>
        <time>2018-07-28T08:04:40.000Z</time>
      </trkpt>
      <trkpt lat="43.95582" lon="7.27813">
        <ele>644</ele>
        <time>2018-07-28T08:04:48.000Z</time>
      </trkpt>
      <trkpt lat="43.95586" lon="7.27798">
        <ele>653</ele>
        <time>2018-07-28T08:04:50.000Z</time>
      </trkpt>
      <trkpt lat="43.95598" lon="7.27784">
        <ele>651</ele>
        <time>2018-07-28T08:04:53.000Z</time>
      </trkpt>
      <trkpt lat="43.95603" lon="7.2778">
        <ele>651</ele>
        <time>2018-07-28T08:04:54.000Z</time>
      </trkpt>
      <trkpt lat="43.95616" lon="7.27769">
        <ele>651</ele>
        <time>2018-07-28T08:04:57.000Z</time>
      </trkpt>
      <trkpt lat="43.95626" lon="7.27763">
        <ele>652</ele>
        <time>2018-07-28T08:04:59.000Z</time>
      </trkpt>
      <trkpt lat="43.95632" lon="7.27761">
        <ele>652</ele>
        <time>2018-07-28T08:05:00.000Z</time>
      </trkpt>
      <trkpt lat="43.95641" lon="7.27763">
        <ele>654</ele>
        <time>2018-07-28T08:05:02.000Z</time>
      </trkpt>
      <trkpt lat="43.9565" lon="7.27767">
        <ele>654</ele>
        <time>2018-07-28T08:05:04.000Z</time>
      </trkpt>
      <trkpt lat="43.9566" lon="7.27768">
        <ele>655</ele>
        <time>2018-07-28T08:05:06.000Z</time>
      </trkpt>
      <trkpt lat="43.95664" lon="7.27766">
        <ele>654</ele>
        <time>2018-07-28T08:05:07.000Z</time>
      </trkpt>
      <trkpt lat="43.95676" lon="7.27751">
        <ele>657</ele>
        <time>2018-07-28T08:05:10.000Z</time>
      </trkpt>
      <trkpt lat="43.95681" lon="7.27746">
        <ele>653</ele>
        <time>2018-07-28T08:05:11.000Z</time>
      </trkpt>
      <trkpt lat="43.95682" lon="7.27736">
        <ele>653</ele>
        <time>2018-07-28T08:05:12.000Z</time>
      </trkpt>
      <trkpt lat="43.95685" lon="7.27729">
        <ele>653</ele>
        <time>2018-07-28T08:05:13.000Z</time>
      </trkpt>
      <trkpt lat="43.95691" lon="7.27716">
        <ele>653</ele>
        <time>2018-07-28T08:05:15.000Z</time>
      </trkpt>
      <trkpt lat="43.95698" lon="7.27704">
        <ele>653</ele>
        <time>2018-07-28T08:05:17.000Z</time>
      </trkpt>
      <trkpt lat="43.95712" lon="7.27682">
        <ele>653</ele>
        <time>2018-07-28T08:05:21.000Z</time>
      </trkpt>
      <trkpt lat="43.95718" lon="7.27676">
        <ele>654</ele>
        <time>2018-07-28T08:05:23.000Z</time>
      </trkpt>
      <trkpt lat="43.95725" lon="7.27663">
        <ele>651</ele>
        <time>2018-07-28T08:05:27.000Z</time>
      </trkpt>
      <trkpt lat="43.95725" lon="7.27657">
        <ele>651</ele>
        <time>2018-07-28T08:05:29.000Z</time>
      </trkpt>
      <trkpt lat="43.95724" lon="7.27644">
        <ele>650</ele>
        <time>2018-07-28T08:05:33.000Z</time>
      </trkpt>
      <trkpt lat="43.9573" lon="7.27627">
        <ele>650</ele>
        <time>2018-07-28T08:05:39.000Z</time>
      </trkpt>
      <trkpt lat="43.95733" lon="7.27622">
        <ele>650</ele>
        <time>2018-07-28T08:05:42.000Z</time>
      </trkpt>
      <trkpt lat="43.95736" lon="7.27619">
        <ele>650</ele>
        <time>2018-07-28T08:05:44.000Z</time>
      </trkpt>
      <trkpt lat="43.95742" lon="7.27614">
        <ele>650</ele>
        <time>2018-07-28T08:05:47.000Z</time>
      </trkpt>
      <trkpt lat="43.95745" lon="7.27611">
        <ele>650</ele>
        <time>2018-07-28T08:05:49.000Z</time>
      </trkpt>
      <trkpt lat="43.95748" lon="7.27608">
        <ele>651</ele>
        <time>2018-07-28T08:05:51.000Z</time>
      </trkpt>
      <trkpt lat="43.95753" lon="7.27604">
        <ele>660</ele>
        <time>2018-07-28T08:05:54.000Z</time>
      </trkpt>
      <trkpt lat="43.95755" lon="7.27602">
        <ele>660</ele>
        <time>2018-07-28T08:05:55.000Z</time>
      </trkpt>
      <trkpt lat="43.95757" lon="7.276">
        <ele>660</ele>
        <time>2018-07-28T08:05:56.000Z</time>
      </trkpt>
      <trkpt lat="43.95765" lon="7.2759">
        <ele>660</ele>
        <time>2018-07-28T08:06:00.000Z</time>
      </trkpt>
      <trkpt lat="43.95766" lon="7.27588">
        <ele>660</ele>
        <time>2018-07-28T08:06:01.000Z</time>
      </trkpt>
      <trkpt lat="43.95774" lon="7.27572">
        <ele>658</ele>
        <time>2018-07-28T08:06:08.000Z</time>
      </trkpt>
      <trkpt lat="43.9578" lon="7.27559">
        <ele>658</ele>
        <time>2018-07-28T08:06:14.000Z</time>
      </trkpt>
      <trkpt lat="43.95781" lon="7.27557">
        <ele>658</ele>
        <time>2018-07-28T08:06:15.000Z</time>
      </trkpt>
      <trkpt lat="43.95788" lon="7.27547">
        <ele>659</ele>
        <time>2018-07-28T08:06:20.000Z</time>
      </trkpt>
      <trkpt lat="43.95789" lon="7.27545">
        <ele>659</ele>
        <time>2018-07-28T08:06:21.000Z</time>
      </trkpt>
      <trkpt lat="43.95797" lon="7.27534">
        <ele>659</ele>
        <time>2018-07-28T08:06:27.000Z</time>
      </trkpt>
      <trkpt lat="43.95807" lon="7.27523">
        <ele>660</ele>
        <time>2018-07-28T08:06:34.000Z</time>
      </trkpt>
      <trkpt lat="43.95813" lon="7.27519">
        <ele>661</ele>
        <time>2018-07-28T08:06:38.000Z</time>
      </trkpt>
      <trkpt lat="43.95818" lon="7.27513">
        <ele>662</ele>
        <time>2018-07-28T08:06:41.000Z</time>
      </trkpt>
      <trkpt lat="43.95825" lon="7.27503">
        <ele>664</ele>
        <time>2018-07-28T08:06:46.000Z</time>
      </trkpt>
      <trkpt lat="43.95826" lon="7.275">
        <ele>664</ele>
        <time>2018-07-28T08:06:47.000Z</time>
      </trkpt>
      <trkpt lat="43.95829" lon="7.27487">
        <ele>661</ele>
        <time>2018-07-28T08:06:52.000Z</time>
      </trkpt>
      <trkpt lat="43.95829" lon="7.27481">
        <ele>660</ele>
        <time>2018-07-28T08:06:54.000Z</time>
      </trkpt>
      <trkpt lat="43.95831" lon="7.2747">
        <ele>658</ele>
        <time>2018-07-28T08:06:58.000Z</time>
      </trkpt>
      <trkpt lat="43.95831" lon="7.27462">
        <ele>658</ele>
        <time>2018-07-28T08:07:01.000Z</time>
      </trkpt>
      <trkpt lat="43.95833" lon="7.27454">
        <ele>658</ele>
        <time>2018-07-28T08:07:04.000Z</time>
      </trkpt>
      <trkpt lat="43.95833" lon="7.27442">
        <ele>659</ele>
        <time>2018-07-28T08:07:09.000Z</time>
      </trkpt>
      <trkpt lat="43.95834" lon="7.2744">
        <ele>675</ele>
        <time>2018-07-28T08:07:10.000Z</time>
      </trkpt>
      <trkpt lat="43.95835" lon="7.27427">
        <ele>672</ele>
        <time>2018-07-28T08:07:15.000Z</time>
      </trkpt>
      <trkpt lat="43.95836" lon="7.27425">
        <ele>671</ele>
        <time>2018-07-28T08:07:16.000Z</time>
      </trkpt>
      <trkpt lat="43.9584" lon="7.27413">
        <ele>671</ele>
        <time>2018-07-28T08:07:21.000Z</time>
      </trkpt>
      <trkpt lat="43.95843" lon="7.27408">
        <ele>674</ele>
        <time>2018-07-28T08:07:24.000Z</time>
      </trkpt>
      <trkpt lat="43.95849" lon="7.27404">
        <ele>677</ele>
        <time>2018-07-28T08:07:28.000Z</time>
      </trkpt>
      <trkpt lat="43.95856" lon="7.27398">
        <ele>680</ele>
        <time>2018-07-28T08:07:32.000Z</time>
      </trkpt>
      <trkpt lat="43.95859" lon="7.27393">
        <ele>682</ele>
        <time>2018-07-28T08:07:34.000Z</time>
      </trkpt>
      <trkpt lat="43.95861" lon="7.27387">
        <ele>683</ele>
        <time>2018-07-28T08:07:36.000Z</time>
      </trkpt>
      <trkpt lat="43.95863" lon="7.27377">
        <ele>683</ele>
        <time>2018-07-28T08:07:39.000Z</time>
      </trkpt>
      <trkpt lat="43.95863" lon="7.27374">
        <ele>684</ele>
        <time>2018-07-28T08:07:40.000Z</time>
      </trkpt>
      <trkpt lat="43.95863" lon="7.27365">
        <ele>684</ele>
        <time>2018-07-28T08:07:43.000Z</time>
      </trkpt>
      <trkpt lat="43.9586" lon="7.27354">
        <ele>683</ele>
        <time>2018-07-28T08:07:47.000Z</time>
      </trkpt>
      <trkpt lat="43.95859" lon="7.27351">
        <ele>683</ele>
        <time>2018-07-28T08:07:48.000Z</time>
      </trkpt>
      <trkpt lat="43.95854" lon="7.27342">
        <ele>682</ele>
        <time>2018-07-28T08:07:52.000Z</time>
      </trkpt>
      <trkpt lat="43.95851" lon="7.27338">
        <ele>681</ele>
        <time>2018-07-28T08:07:54.000Z</time>
      </trkpt>
      <trkpt lat="43.95847" lon="7.27332">
        <ele>682</ele>
        <time>2018-07-28T08:07:57.000Z</time>
      </trkpt>
      <trkpt lat="43.95842" lon="7.27323">
        <ele>681</ele>
        <time>2018-07-28T08:08:01.000Z</time>
      </trkpt>
      <trkpt lat="43.95839" lon="7.27319">
        <ele>682</ele>
        <time>2018-07-28T08:08:03.000Z</time>
      </trkpt>
      <trkpt lat="43.9583" lon="7.27308">
        <ele>668</ele>
        <time>2018-07-28T08:08:08.000Z</time>
      </trkpt>
      <trkpt lat="43.95824" lon="7.27303">
        <ele>667</ele>
        <time>2018-07-28T08:08:11.000Z</time>
      </trkpt>
      <trkpt lat="43.95817" lon="7.27294">
        <ele>666</ele>
        <time>2018-07-28T08:08:16.000Z</time>
      </trkpt>
      <trkpt lat="43.95813" lon="7.27288">
        <ele>666</ele>
        <time>2018-07-28T08:08:19.000Z</time>
      </trkpt>
      <trkpt lat="43.95811" lon="7.2728">
        <ele>666</ele>
        <time>2018-07-28T08:08:22.000Z</time>
      </trkpt>
      <trkpt lat="43.95812" lon="7.27261">
        <ele>668</ele>
        <time>2018-07-28T08:08:28.000Z</time>
      </trkpt>
      <trkpt lat="43.95822" lon="7.27246">
        <ele>672</ele>
        <time>2018-07-28T08:08:34.000Z</time>
      </trkpt>
      <trkpt lat="43.95835" lon="7.27236">
        <ele>683</ele>
        <time>2018-07-28T08:08:40.000Z</time>
      </trkpt>
      <trkpt lat="43.95837" lon="7.27234">
        <ele>683</ele>
        <time>2018-07-28T08:08:41.000Z</time>
      </trkpt>
      <trkpt lat="43.95855" lon="7.27222">
        <ele>686</ele>
        <time>2018-07-28T08:08:49.000Z</time>
      </trkpt>
      <trkpt lat="43.95864" lon="7.27209">
        <ele>686</ele>
        <time>2018-07-28T08:08:55.000Z</time>
      </trkpt>
      <trkpt lat="43.95867" lon="7.27205">
        <ele>687</ele>
        <time>2018-07-28T08:08:57.000Z</time>
      </trkpt>
      <trkpt lat="43.95872" lon="7.27197">
        <ele>687</ele>
        <time>2018-07-28T08:09:01.000Z</time>
      </trkpt>
      <trkpt lat="43.95878" lon="7.27183">
        <ele>687</ele>
        <time>2018-07-28T08:09:06.000Z</time>
      </trkpt>
      <trkpt lat="43.95879" lon="7.27181">
        <ele>687</ele>
        <time>2018-07-28T08:09:07.000Z</time>
      </trkpt>
      <trkpt lat="43.95884" lon="7.27164">
        <ele>681</ele>
        <time>2018-07-28T08:09:13.000Z</time>
      </trkpt>
      <trkpt lat="43.95887" lon="7.27158">
        <ele>681</ele>
        <time>2018-07-28T08:09:15.000Z</time>
      </trkpt>
      <trkpt lat="43.95893" lon="7.27148">
        <ele>682</ele>
        <time>2018-07-28T08:09:19.000Z</time>
      </trkpt>
      <trkpt lat="43.95901" lon="7.27128">
        <ele>680</ele>
        <time>2018-07-28T08:09:25.000Z</time>
      </trkpt>
      <trkpt lat="43.95908" lon="7.27106">
        <ele>679</ele>
        <time>2018-07-28T08:09:31.000Z</time>
      </trkpt>
      <trkpt lat="43.95919" lon="7.27079">
        <ele>683</ele>
        <time>2018-07-28T08:09:39.000Z</time>
      </trkpt>
      <trkpt lat="43.95936" lon="7.27058">
        <ele>685</ele>
        <time>2018-07-28T08:09:45.000Z</time>
      </trkpt>
      <trkpt lat="43.9595" lon="7.27042">
        <ele>686</ele>
        <time>2018-07-28T08:09:50.000Z</time>
      </trkpt>
      <trkpt lat="43.95952" lon="7.27039">
        <ele>686</ele>
        <time>2018-07-28T08:09:51.000Z</time>
      </trkpt>
      <trkpt lat="43.9596" lon="7.27018">
        <ele>685</ele>
        <time>2018-07-28T08:09:56.000Z</time>
      </trkpt>
      <trkpt lat="43.95965" lon="7.26999">
        <ele>672</ele>
        <time>2018-07-28T08:10:01.000Z</time>
      </trkpt>
      <trkpt lat="43.95971" lon="7.26982">
        <ele>672</ele>
        <time>2018-07-28T08:10:06.000Z</time>
      </trkpt>
      <trkpt lat="43.95981" lon="7.26969">
        <ele>671</ele>
        <time>2018-07-28T08:10:11.000Z</time>
      </trkpt>
      <trkpt lat="43.95988" lon="7.26966">
        <ele>672</ele>
        <time>2018-07-28T08:10:13.000Z</time>
      </trkpt>
      <trkpt lat="43.95994" lon="7.26965">
        <ele>672</ele>
        <time>2018-07-28T08:10:15.000Z</time>
      </trkpt>
      <trkpt lat="43.96002" lon="7.26968">
        <ele>680</ele>
        <time>2018-07-28T08:10:17.000Z</time>
      </trkpt>
      <trkpt lat="43.96011" lon="7.26973">
        <ele>681</ele>
        <time>2018-07-28T08:10:19.000Z</time>
      </trkpt>
      <trkpt lat="43.96018" lon="7.26979">
        <ele>682</ele>
        <time>2018-07-28T08:10:22.000Z</time>
      </trkpt>
      <trkpt lat="43.9602" lon="7.2698">
        <ele>682</ele>
        <time>2018-07-28T08:10:23.000Z</time>
      </trkpt>
      <trkpt lat="43.96032" lon="7.26982">
        <ele>682</ele>
        <time>2018-07-28T08:10:28.000Z</time>
      </trkpt>
      <trkpt lat="43.96038" lon="7.26984">
        <ele>683</ele>
        <time>2018-07-28T08:10:32.000Z</time>
      </trkpt>
      <trkpt lat="43.96039" lon="7.26985">
        <ele>683</ele>
        <time>2018-07-28T08:10:33.000Z</time>
      </trkpt>
      <trkpt lat="43.96041" lon="7.26988">
        <ele>683</ele>
        <time>2018-07-28T08:10:36.000Z</time>
      </trkpt>
      <trkpt lat="43.96043" lon="7.2699">
        <ele>684</ele>
        <time>2018-07-28T08:10:37.000Z</time>
      </trkpt>
      <trkpt lat="43.96044" lon="7.26991">
        <ele>684</ele>
        <time>2018-07-28T08:10:41.000Z</time>
      </trkpt>
      <trkpt lat="43.96045" lon="7.26991">
        <ele>684</ele>
        <time>2018-07-28T08:10:43.000Z</time>
      </trkpt>
      <trkpt lat="43.96045" lon="7.26991">
        <ele>684</ele>
        <time>2018-07-28T08:10:46.000Z</time>
      </trkpt>
      <trkpt lat="43.96043" lon="7.26991">
        <ele>684</ele>
        <time>2018-07-28T08:10:47.000Z</time>
      </trkpt>
      <trkpt lat="43.96042" lon="7.26991">
        <ele>684</ele>
        <time>2018-07-28T08:10:52.000Z</time>
      </trkpt>
      <trkpt lat="43.96048" lon="7.26992">
        <ele>684</ele>
        <time>2018-07-28T08:11:00.000Z</time>
      </trkpt>
      <trkpt lat="43.96046" lon="7.26991">
        <ele>684</ele>
        <time>2018-07-28T08:11:06.000Z</time>
      </trkpt>
      <trkpt lat="43.96048" lon="7.26992">
        <ele>685</ele>
        <time>2018-07-28T08:11:11.000Z</time>
      </trkpt>
      <trkpt lat="43.96051" lon="7.26991">
        <ele>685</ele>
        <time>2018-07-28T08:11:12.000Z</time>
      </trkpt>
      <trkpt lat="43.96057" lon="7.26984">
        <ele>684</ele>
        <time>2018-07-28T08:11:15.000Z</time>
      </trkpt>
      <trkpt lat="43.96071" lon="7.26981">
        <ele>686</ele>
        <time>2018-07-28T08:11:19.000Z</time>
      </trkpt>
      <trkpt lat="43.96088" lon="7.26976">
        <ele>691</ele>
        <time>2018-07-28T08:11:23.000Z</time>
      </trkpt>
      <trkpt lat="43.96102" lon="7.2698">
        <ele>692</ele>
        <time>2018-07-28T08:11:27.000Z</time>
      </trkpt>
      <trkpt lat="43.96113" lon="7.26983">
        <ele>693</ele>
        <time>2018-07-28T08:11:30.000Z</time>
      </trkpt>
      <trkpt lat="43.96116" lon="7.26983">
        <ele>693</ele>
        <time>2018-07-28T08:11:31.000Z</time>
      </trkpt>
      <trkpt lat="43.96129" lon="7.26991">
        <ele>696</ele>
        <time>2018-07-28T08:11:35.000Z</time>
      </trkpt>
      <trkpt lat="43.9613" lon="7.26992">
        <ele>697</ele>
        <time>2018-07-28T08:11:36.000Z</time>
      </trkpt>
      <trkpt lat="43.96131" lon="7.26993">
        <ele>697</ele>
        <time>2018-07-28T08:11:38.000Z</time>
      </trkpt>
      <trkpt lat="43.96133" lon="7.26993">
        <ele>697</ele>
        <time>2018-07-28T08:11:39.000Z</time>
      </trkpt>
      <trkpt lat="43.96136" lon="7.26994">
        <ele>698</ele>
        <time>2018-07-28T08:11:41.000Z</time>
      </trkpt>
      <trkpt lat="43.96138" lon="7.26994">
        <ele>699</ele>
        <time>2018-07-28T08:11:43.000Z</time>
      </trkpt>
      <trkpt lat="43.9614" lon="7.26994">
        <ele>700</ele>
        <time>2018-07-28T08:11:45.000Z</time>
      </trkpt>
      <trkpt lat="43.96147" lon="7.26995">
        <ele>703</ele>
        <time>2018-07-28T08:11:47.000Z</time>
      </trkpt>
      <trkpt lat="43.96157" lon="7.2699">
        <ele>706</ele>
        <time>2018-07-28T08:11:50.000Z</time>
      </trkpt>
      <trkpt lat="43.96161" lon="7.26987">
        <ele>706</ele>
        <time>2018-07-28T08:11:52.000Z</time>
      </trkpt>
      <trkpt lat="43.96165" lon="7.26982">
        <ele>704</ele>
        <time>2018-07-28T08:11:54.000Z</time>
      </trkpt>
      <trkpt lat="43.96172" lon="7.2697">
        <ele>714</ele>
        <time>2018-07-28T08:11:59.000Z</time>
      </trkpt>
      <trkpt lat="43.96183" lon="7.26959">
        <ele>712</ele>
        <time>2018-07-28T08:12:04.000Z</time>
      </trkpt>
      <trkpt lat="43.962" lon="7.26951">
        <ele>713</ele>
        <time>2018-07-28T08:12:11.000Z</time>
      </trkpt>
      <trkpt lat="43.96206" lon="7.26946">
        <ele>713</ele>
        <time>2018-07-28T08:12:14.000Z</time>
      </trkpt>
      <trkpt lat="43.9621" lon="7.26943">
        <ele>713</ele>
        <time>2018-07-28T08:12:17.000Z</time>
      </trkpt>
      <trkpt lat="43.96212" lon="7.26942">
        <ele>713</ele>
        <time>2018-07-28T08:12:18.000Z</time>
      </trkpt>
      <trkpt lat="43.96218" lon="7.2694">
        <ele>714</ele>
        <time>2018-07-28T08:12:21.000Z</time>
      </trkpt>
      <trkpt lat="43.96222" lon="7.26941">
        <ele>715</ele>
        <time>2018-07-28T08:12:24.000Z</time>
      </trkpt>
      <trkpt lat="43.96224" lon="7.26941">
        <ele>715</ele>
        <time>2018-07-28T08:12:25.000Z</time>
      </trkpt>
      <trkpt lat="43.96233" lon="7.26937">
        <ele>716</ele>
        <time>2018-07-28T08:12:30.000Z</time>
      </trkpt>
      <trkpt lat="43.96234" lon="7.26936">
        <ele>716</ele>
        <time>2018-07-28T08:12:31.000Z</time>
      </trkpt>
      <trkpt lat="43.96245" lon="7.2693">
        <ele>714</ele>
        <time>2018-07-28T08:12:37.000Z</time>
      </trkpt>
      <trkpt lat="43.96247" lon="7.26928">
        <ele>714</ele>
        <time>2018-07-28T08:12:38.000Z</time>
      </trkpt>
      <trkpt lat="43.96254" lon="7.26921">
        <ele>721</ele>
        <time>2018-07-28T08:12:43.000Z</time>
      </trkpt>
      <trkpt lat="43.9626" lon="7.26916">
        <ele>714</ele>
        <time>2018-07-28T08:12:46.000Z</time>
      </trkpt>
      <trkpt lat="43.96265" lon="7.26914">
        <ele>716</ele>
        <time>2018-07-28T08:12:49.000Z</time>
      </trkpt>
      <trkpt lat="43.96266" lon="7.26912">
        <ele>716</ele>
        <time>2018-07-28T08:12:50.000Z</time>
      </trkpt>
      <trkpt lat="43.96271" lon="7.26907">
        <ele>718</ele>
        <time>2018-07-28T08:12:53.000Z</time>
      </trkpt>
      <trkpt lat="43.96272" lon="7.26906">
        <ele>718</ele>
        <time>2018-07-28T08:12:54.000Z</time>
      </trkpt>
      <trkpt lat="43.96278" lon="7.26903">
        <ele>720</ele>
        <time>2018-07-28T08:12:57.000Z</time>
      </trkpt>
      <trkpt lat="43.96281" lon="7.26901">
        <ele>720</ele>
        <time>2018-07-28T08:12:59.000Z</time>
      </trkpt>
      <trkpt lat="43.96282" lon="7.26901">
        <ele>721</ele>
        <time>2018-07-28T08:13:00.000Z</time>
      </trkpt>
      <trkpt lat="43.96284" lon="7.26899">
        <ele>721</ele>
        <time>2018-07-28T08:13:03.000Z</time>
      </trkpt>
      <trkpt lat="43.96287" lon="7.26897">
        <ele>722</ele>
        <time>2018-07-28T08:13:05.000Z</time>
      </trkpt>
      <trkpt lat="43.96288" lon="7.26894">
        <ele>722</ele>
        <time>2018-07-28T08:13:07.000Z</time>
      </trkpt>
      <trkpt lat="43.96289" lon="7.26893">
        <ele>722</ele>
        <time>2018-07-28T08:13:08.000Z</time>
      </trkpt>
      <trkpt lat="43.9629" lon="7.26891">
        <ele>722</ele>
        <time>2018-07-28T08:13:10.000Z</time>
      </trkpt>
      <trkpt lat="43.96292" lon="7.26888">
        <ele>722</ele>
        <time>2018-07-28T08:13:12.000Z</time>
      </trkpt>
      <trkpt lat="43.96296" lon="7.26879">
        <ele>722</ele>
        <time>2018-07-28T08:13:16.000Z</time>
      </trkpt>
      <trkpt lat="43.96298" lon="7.26871">
        <ele>721</ele>
        <time>2018-07-28T08:13:19.000Z</time>
      </trkpt>
      <trkpt lat="43.96299" lon="7.26866">
        <ele>720</ele>
        <time>2018-07-28T08:13:21.000Z</time>
      </trkpt>
      <trkpt lat="43.96299" lon="7.26865">
        <ele>720</ele>
        <time>2018-07-28T08:13:22.000Z</time>
      </trkpt>
      <trkpt lat="43.96305" lon="7.26854">
        <ele>720</ele>
        <time>2018-07-28T08:13:27.000Z</time>
      </trkpt>
      <trkpt lat="43.96311" lon="7.26845">
        <ele>721</ele>
        <time>2018-07-28T08:13:32.000Z</time>
      </trkpt>
      <trkpt lat="43.96317" lon="7.26842">
        <ele>721</ele>
        <time>2018-07-28T08:13:35.000Z</time>
      </trkpt>
      <trkpt lat="43.9632" lon="7.26841">
        <ele>722</ele>
        <time>2018-07-28T08:13:37.000Z</time>
      </trkpt>
      <trkpt lat="43.96322" lon="7.2684">
        <ele>722</ele>
        <time>2018-07-28T08:13:39.000Z</time>
      </trkpt>
      <trkpt lat="43.96327" lon="7.26841">
        <ele>723</ele>
        <time>2018-07-28T08:13:42.000Z</time>
      </trkpt>
      <trkpt lat="43.9633" lon="7.26841">
        <ele>723</ele>
        <time>2018-07-28T08:13:44.000Z</time>
      </trkpt>
      <trkpt lat="43.96337" lon="7.26841">
        <ele>732</ele>
        <time>2018-07-28T08:13:47.000Z</time>
      </trkpt>
      <trkpt lat="43.96348" lon="7.2684">
        <ele>736</ele>
        <time>2018-07-28T08:13:52.000Z</time>
      </trkpt>
      <trkpt lat="43.96351" lon="7.26839">
        <ele>737</ele>
        <time>2018-07-28T08:13:53.000Z</time>
      </trkpt>
      <trkpt lat="43.96366" lon="7.26833">
        <ele>720</ele>
        <time>2018-07-28T08:13:59.000Z</time>
      </trkpt>
      <trkpt lat="43.96381" lon="7.26828">
        <ele>721</ele>
        <time>2018-07-28T08:14:04.000Z</time>
      </trkpt>
      <trkpt lat="43.96386" lon="7.26822">
        <ele>721</ele>
        <time>2018-07-28T08:14:07.000Z</time>
      </trkpt>
      <trkpt lat="43.9639" lon="7.26818">
        <ele>722</ele>
        <time>2018-07-28T08:14:09.000Z</time>
      </trkpt>
      <trkpt lat="43.96394" lon="7.26814">
        <ele>721</ele>
        <time>2018-07-28T08:14:11.000Z</time>
      </trkpt>
      <trkpt lat="43.964" lon="7.2681">
        <ele>721</ele>
        <time>2018-07-28T08:14:14.000Z</time>
      </trkpt>
      <trkpt lat="43.96404" lon="7.26811">
        <ele>722</ele>
        <time>2018-07-28T08:14:16.000Z</time>
      </trkpt>
      <trkpt lat="43.96405" lon="7.26811">
        <ele>723</ele>
        <time>2018-07-28T08:14:17.000Z</time>
      </trkpt>
      <trkpt lat="43.96407" lon="7.2681">
        <ele>723</ele>
        <time>2018-07-28T08:14:18.000Z</time>
      </trkpt>
      <trkpt lat="43.96418" lon="7.26814">
        <ele>729</ele>
        <time>2018-07-28T08:14:23.000Z</time>
      </trkpt>
      <trkpt lat="43.96426" lon="7.26819">
        <ele>729</ele>
        <time>2018-07-28T08:14:27.000Z</time>
      </trkpt>
      <trkpt lat="43.96427" lon="7.26819">
        <ele>729</ele>
        <time>2018-07-28T08:14:29.000Z</time>
      </trkpt>
      <trkpt lat="43.96432" lon="7.26822">
        <ele>729</ele>
        <time>2018-07-28T08:14:30.000Z</time>
      </trkpt>
      <trkpt lat="43.96439" lon="7.26824">
        <ele>728</ele>
        <time>2018-07-28T08:14:33.000Z</time>
      </trkpt>
      <trkpt lat="43.9645" lon="7.26831">
        <ele>728</ele>
        <time>2018-07-28T08:14:37.000Z</time>
      </trkpt>
      <trkpt lat="43.96453" lon="7.26833">
        <ele>728</ele>
        <time>2018-07-28T08:14:38.000Z</time>
      </trkpt>
      <trkpt lat="43.96461" lon="7.2684">
        <ele>750</ele>
        <time>2018-07-28T08:14:41.000Z</time>
      </trkpt>
      <trkpt lat="43.96464" lon="7.26842">
        <ele>750</ele>
        <time>2018-07-28T08:14:43.000Z</time>
      </trkpt>
      <trkpt lat="43.9647" lon="7.26845">
        <ele>750</ele>
        <time>2018-07-28T08:14:45.000Z</time>
      </trkpt>
      <trkpt lat="43.96476" lon="7.26848">
        <ele>749</ele>
        <time>2018-07-28T08:14:47.000Z</time>
      </trkpt>
      <trkpt lat="43.96485" lon="7.26852">
        <ele>749</ele>
        <time>2018-07-28T08:14:50.000Z</time>
      </trkpt>
      <trkpt lat="43.96498" lon="7.26857">
        <ele>749</ele>
        <time>2018-07-28T08:14:55.000Z</time>
      </trkpt>
      <trkpt lat="43.965" lon="7.26857">
        <ele>748</ele>
        <time>2018-07-28T08:14:56.000Z</time>
      </trkpt>
      <trkpt lat="43.96511" lon="7.26857">
        <ele>749</ele>
        <time>2018-07-28T08:15:00.000Z</time>
      </trkpt>
      <trkpt lat="43.96513" lon="7.26856">
        <ele>749</ele>
        <time>2018-07-28T08:15:01.000Z</time>
      </trkpt>
      <trkpt lat="43.96518" lon="7.26856">
        <ele>749</ele>
        <time>2018-07-28T08:15:03.000Z</time>
      </trkpt>
      <trkpt lat="43.96522" lon="7.26855">
        <ele>749</ele>
        <time>2018-07-28T08:15:04.000Z</time>
      </trkpt>
      <trkpt lat="43.96539" lon="7.26855">
        <ele>751</ele>
        <time>2018-07-28T08:15:10.000Z</time>
      </trkpt>
      <trkpt lat="43.96547" lon="7.26855">
        <ele>751</ele>
        <time>2018-07-28T08:15:14.000Z</time>
      </trkpt>
      <trkpt lat="43.96548" lon="7.26855">
        <ele>751</ele>
        <time>2018-07-28T08:15:15.000Z</time>
      </trkpt>
      <trkpt lat="43.96558" lon="7.26856">
        <ele>750</ele>
        <time>2018-07-28T08:15:19.000Z</time>
      </trkpt>
      <trkpt lat="43.9656" lon="7.26856">
        <ele>750</ele>
        <time>2018-07-28T08:15:20.000Z</time>
      </trkpt>
      <trkpt lat="43.96565" lon="7.26857">
        <ele>750</ele>
        <time>2018-07-28T08:15:24.000Z</time>
      </trkpt>
      <trkpt lat="43.96569" lon="7.26859">
        <ele>751</ele>
        <time>2018-07-28T08:15:26.000Z</time>
      </trkpt>
      <trkpt lat="43.96572" lon="7.26859">
        <ele>750</ele>
        <time>2018-07-28T08:15:29.000Z</time>
      </trkpt>
      <trkpt lat="43.96574" lon="7.2686">
        <ele>751</ele>
        <time>2018-07-28T08:15:30.000Z</time>
      </trkpt>
      <trkpt lat="43.96582" lon="7.26859">
        <ele>750</ele>
        <time>2018-07-28T08:15:35.000Z</time>
      </trkpt>
      <trkpt lat="43.96587" lon="7.26858">
        <ele>758</ele>
        <time>2018-07-28T08:15:38.000Z</time>
      </trkpt>
      <trkpt lat="43.96592" lon="7.26858">
        <ele>759</ele>
        <time>2018-07-28T08:15:40.000Z</time>
      </trkpt>
      <trkpt lat="43.96597" lon="7.26858">
        <ele>760</ele>
        <time>2018-07-28T08:15:43.000Z</time>
      </trkpt>
      <trkpt lat="43.96599" lon="7.26857">
        <ele>761</ele>
        <time>2018-07-28T08:15:46.000Z</time>
      </trkpt>
      <trkpt lat="43.96604" lon="7.26855">
        <ele>761</ele>
        <time>2018-07-28T08:15:48.000Z</time>
      </trkpt>
      <trkpt lat="43.96606" lon="7.26853">
        <ele>761</ele>
        <time>2018-07-28T08:15:50.000Z</time>
      </trkpt>
      <trkpt lat="43.96613" lon="7.26851">
        <ele>763</ele>
        <time>2018-07-28T08:15:54.000Z</time>
      </trkpt>
      <trkpt lat="43.96616" lon="7.26851">
        <ele>763</ele>
        <time>2018-07-28T08:15:56.000Z</time>
      </trkpt>
      <trkpt lat="43.96617" lon="7.26849">
        <ele>763</ele>
        <time>2018-07-28T08:15:57.000Z</time>
      </trkpt>
      <trkpt lat="43.96621" lon="7.26847">
        <ele>764</ele>
        <time>2018-07-28T08:16:00.000Z</time>
      </trkpt>
      <trkpt lat="43.96626" lon="7.26846">
        <ele>765</ele>
        <time>2018-07-28T08:16:04.000Z</time>
      </trkpt>
      <trkpt lat="43.9663" lon="7.26845">
        <ele>766</ele>
        <time>2018-07-28T08:16:06.000Z</time>
      </trkpt>
      <trkpt lat="43.96635" lon="7.26842">
        <ele>766</ele>
        <time>2018-07-28T08:16:10.000Z</time>
      </trkpt>
      <trkpt lat="43.9664" lon="7.2684">
        <ele>766</ele>
        <time>2018-07-28T08:16:13.000Z</time>
      </trkpt>
      <trkpt lat="43.96641" lon="7.26839">
        <ele>766</ele>
        <time>2018-07-28T08:16:15.000Z</time>
      </trkpt>
      <trkpt lat="43.96644" lon="7.26836">
        <ele>766</ele>
        <time>2018-07-28T08:16:18.000Z</time>
      </trkpt>
      <trkpt lat="43.96646" lon="7.26835">
        <ele>766</ele>
        <time>2018-07-28T08:16:19.000Z</time>
      </trkpt>
      <trkpt lat="43.96649" lon="7.26834">
        <ele>766</ele>
        <time>2018-07-28T08:16:21.000Z</time>
      </trkpt>
      <trkpt lat="43.96651" lon="7.26833">
        <ele>766</ele>
        <time>2018-07-28T08:16:23.000Z</time>
      </trkpt>
      <trkpt lat="43.96654" lon="7.26832">
        <ele>754</ele>
        <time>2018-07-28T08:16:25.000Z</time>
      </trkpt>
      <trkpt lat="43.96658" lon="7.2683">
        <ele>756</ele>
        <time>2018-07-28T08:16:29.000Z</time>
      </trkpt>
      <trkpt lat="43.96662" lon="7.26826">
        <ele>756</ele>
        <time>2018-07-28T08:16:33.000Z</time>
      </trkpt>
      <trkpt lat="43.96663" lon="7.26824">
        <ele>756</ele>
        <time>2018-07-28T08:16:35.000Z</time>
      </trkpt>
      <trkpt lat="43.96666" lon="7.26822">
        <ele>754</ele>
        <time>2018-07-28T08:16:38.000Z</time>
      </trkpt>
      <trkpt lat="43.96666" lon="7.26821">
        <ele>754</ele>
        <time>2018-07-28T08:16:39.000Z</time>
      </trkpt>
      <trkpt lat="43.96668" lon="7.26819">
        <ele>765</ele>
        <time>2018-07-28T08:16:41.000Z</time>
      </trkpt>
      <trkpt lat="43.96672" lon="7.26813">
        <ele>765</ele>
        <time>2018-07-28T08:16:46.000Z</time>
      </trkpt>
      <trkpt lat="43.96672" lon="7.26812">
        <ele>765</ele>
        <time>2018-07-28T08:16:47.000Z</time>
      </trkpt>
      <trkpt lat="43.96674" lon="7.26812">
        <ele>766</ele>
        <time>2018-07-28T08:16:48.000Z</time>
      </trkpt>
      <trkpt lat="43.96677" lon="7.26808">
        <ele>766</ele>
        <time>2018-07-28T08:16:52.000Z</time>
      </trkpt>
      <trkpt lat="43.96679" lon="7.26807">
        <ele>766</ele>
        <time>2018-07-28T08:16:53.000Z</time>
      </trkpt>
      <trkpt lat="43.96683" lon="7.26803">
        <ele>766</ele>
        <time>2018-07-28T08:16:58.000Z</time>
      </trkpt>
      <trkpt lat="43.96684" lon="7.26801">
        <ele>765</ele>
        <time>2018-07-28T08:17:00.000Z</time>
      </trkpt>
      <trkpt lat="43.96688" lon="7.26795">
        <ele>765</ele>
        <time>2018-07-28T08:17:04.000Z</time>
      </trkpt>
      <trkpt lat="43.96689" lon="7.26794">
        <ele>765</ele>
        <time>2018-07-28T08:17:05.000Z</time>
      </trkpt>
      <trkpt lat="43.9669" lon="7.26793">
        <ele>765</ele>
        <time>2018-07-28T08:17:06.000Z</time>
      </trkpt>
      <trkpt lat="43.96695" lon="7.26785">
        <ele>764</ele>
        <time>2018-07-28T08:17:12.000Z</time>
      </trkpt>
      <trkpt lat="43.96696" lon="7.26784">
        <ele>764</ele>
        <time>2018-07-28T08:17:13.000Z</time>
      </trkpt>
      <trkpt lat="43.96701" lon="7.26778">
        <ele>764</ele>
        <time>2018-07-28T08:17:18.000Z</time>
      </trkpt>
      <trkpt lat="43.96704" lon="7.26775">
        <ele>764</ele>
        <time>2018-07-28T08:17:20.000Z</time>
      </trkpt>
      <trkpt lat="43.96706" lon="7.26774">
        <ele>764</ele>
        <time>2018-07-28T08:17:22.000Z</time>
      </trkpt>
      <trkpt lat="43.96708" lon="7.26773">
        <ele>765</ele>
        <time>2018-07-28T08:17:24.000Z</time>
      </trkpt>
      <trkpt lat="43.96709" lon="7.26774">
        <ele>765</ele>
        <time>2018-07-28T08:17:25.000Z</time>
      </trkpt>
      <trkpt lat="43.9671" lon="7.26774">
        <ele>765</ele>
        <time>2018-07-28T08:17:27.000Z</time>
      </trkpt>
      <trkpt lat="43.96712" lon="7.26774">
        <ele>766</ele>
        <time>2018-07-28T08:17:29.000Z</time>
      </trkpt>
      <trkpt lat="43.96718" lon="7.26773">
        <ele>767</ele>
        <time>2018-07-28T08:17:33.000Z</time>
      </trkpt>
      <trkpt lat="43.96719" lon="7.26773">
        <ele>767</ele>
        <time>2018-07-28T08:17:34.000Z</time>
      </trkpt>
      <trkpt lat="43.96725" lon="7.26773">
        <ele>768</ele>
        <time>2018-07-28T08:17:38.000Z</time>
      </trkpt>
      <trkpt lat="43.96727" lon="7.26772">
        <ele>769</ele>
        <time>2018-07-28T08:17:40.000Z</time>
      </trkpt>
      <trkpt lat="43.96732" lon="7.26767">
        <ele>768</ele>
        <time>2018-07-28T08:17:45.000Z</time>
      </trkpt>
      <trkpt lat="43.96734" lon="7.26766">
        <ele>768</ele>
        <time>2018-07-28T08:17:46.000Z</time>
      </trkpt>
      <trkpt lat="43.96738" lon="7.26763">
        <ele>768</ele>
        <time>2018-07-28T08:17:50.000Z</time>
      </trkpt>
      <trkpt lat="43.96739" lon="7.26762">
        <ele>768</ele>
        <time>2018-07-28T08:17:51.000Z</time>
      </trkpt>
      <trkpt lat="43.9674" lon="7.26761">
        <ele>768</ele>
        <time>2018-07-28T08:17:52.000Z</time>
      </trkpt>
      <trkpt lat="43.96745" lon="7.26757">
        <ele>768</ele>
        <time>2018-07-28T08:17:56.000Z</time>
      </trkpt>
      <trkpt lat="43.96747" lon="7.26756">
        <ele>768</ele>
        <time>2018-07-28T08:17:57.000Z</time>
      </trkpt>
      <trkpt lat="43.96751" lon="7.26749">
        <ele>767</ele>
        <time>2018-07-28T08:18:02.000Z</time>
      </trkpt>
      <trkpt lat="43.96753" lon="7.26744">
        <ele>766</ele>
        <time>2018-07-28T08:18:04.000Z</time>
      </trkpt>
      <trkpt lat="43.96755" lon="7.26731">
        <ele>763</ele>
        <time>2018-07-28T08:18:10.000Z</time>
      </trkpt>
      <trkpt lat="43.96758" lon="7.26726">
        <ele>762</ele>
        <time>2018-07-28T08:18:13.000Z</time>
      </trkpt>
      <trkpt lat="43.96761" lon="7.26721">
        <ele>761</ele>
        <time>2018-07-28T08:18:16.000Z</time>
      </trkpt>
      <trkpt lat="43.96765" lon="7.26718">
        <ele>760</ele>
        <time>2018-07-28T08:18:19.000Z</time>
      </trkpt>
      <trkpt lat="43.96769" lon="7.26716">
        <ele>760</ele>
        <time>2018-07-28T08:18:22.000Z</time>
      </trkpt>
      <trkpt lat="43.96774" lon="7.26716">
        <ele>761</ele>
        <time>2018-07-28T08:18:26.000Z</time>
      </trkpt>
      <trkpt lat="43.96776" lon="7.26716">
        <ele>761</ele>
        <time>2018-07-28T08:18:28.000Z</time>
      </trkpt>
      <trkpt lat="43.96777" lon="7.26716">
        <ele>761</ele>
        <time>2018-07-28T08:18:29.000Z</time>
      </trkpt>
      <trkpt lat="43.96779" lon="7.26716">
        <ele>761</ele>
        <time>2018-07-28T08:18:30.000Z</time>
      </trkpt>
      <trkpt lat="43.96785" lon="7.26715">
        <ele>762</ele>
        <time>2018-07-28T08:18:34.000Z</time>
      </trkpt>
      <trkpt lat="43.9679" lon="7.26714">
        <ele>762</ele>
        <time>2018-07-28T08:18:38.000Z</time>
      </trkpt>
      <trkpt lat="43.96792" lon="7.26715">
        <ele>763</ele>
        <time>2018-07-28T08:18:40.000Z</time>
      </trkpt>
      <trkpt lat="43.96798" lon="7.26716">
        <ele>764</ele>
        <time>2018-07-28T08:18:44.000Z</time>
      </trkpt>
      <trkpt lat="43.96798" lon="7.26716">
        <ele>764</ele>
        <time>2018-07-28T08:18:45.000Z</time>
      </trkpt>
      <trkpt lat="43.96802" lon="7.26718">
        <ele>765</ele>
        <time>2018-07-28T08:18:49.000Z</time>
      </trkpt>
      <trkpt lat="43.96808" lon="7.26716">
        <ele>766</ele>
        <time>2018-07-28T08:18:54.000Z</time>
      </trkpt>
      <trkpt lat="43.96812" lon="7.26716">
        <ele>766</ele>
        <time>2018-07-28T08:18:56.000Z</time>
      </trkpt>
      <trkpt lat="43.96816" lon="7.26714">
        <ele>767</ele>
        <time>2018-07-28T08:18:59.000Z</time>
      </trkpt>
      <trkpt lat="43.9682" lon="7.26712">
        <ele>767</ele>
        <time>2018-07-28T08:19:02.000Z</time>
      </trkpt>
      <trkpt lat="43.96824" lon="7.2671">
        <ele>766</ele>
        <time>2018-07-28T08:19:05.000Z</time>
      </trkpt>
      <trkpt lat="43.96828" lon="7.26709">
        <ele>766</ele>
        <time>2018-07-28T08:19:09.000Z</time>
      </trkpt>
      <trkpt lat="43.96834" lon="7.26708">
        <ele>771</ele>
        <time>2018-07-28T08:19:14.000Z</time>
      </trkpt>
      <trkpt lat="43.96835" lon="7.26708">
        <ele>771</ele>
        <time>2018-07-28T08:19:15.000Z</time>
      </trkpt>
      <trkpt lat="43.9684" lon="7.26709">
        <ele>771</ele>
        <time>2018-07-28T08:19:20.000Z</time>
      </trkpt>
      <trkpt lat="43.96841" lon="7.26709">
        <ele>771</ele>
        <time>2018-07-28T08:19:21.000Z</time>
      </trkpt>
      <trkpt lat="43.96847" lon="7.26707">
        <ele>770</ele>
        <time>2018-07-28T08:19:26.000Z</time>
      </trkpt>
      <trkpt lat="43.96848" lon="7.26706">
        <ele>770</ele>
        <time>2018-07-28T08:19:27.000Z</time>
      </trkpt>
      <trkpt lat="43.96855" lon="7.26703">
        <ele>768</ele>
        <time>2018-07-28T08:19:33.000Z</time>
      </trkpt>
      <trkpt lat="43.9686" lon="7.267">
        <ele>767</ele>
        <time>2018-07-28T08:19:38.000Z</time>
      </trkpt>
      <trkpt lat="43.96864" lon="7.26696">
        <ele>766</ele>
        <time>2018-07-28T08:19:41.000Z</time>
      </trkpt>
      <trkpt lat="43.96872" lon="7.26696">
        <ele>766</ele>
        <time>2018-07-28T08:19:48.000Z</time>
      </trkpt>
      <trkpt lat="43.96872" lon="7.26699">
        <ele>767</ele>
        <time>2018-07-28T08:19:50.000Z</time>
      </trkpt>
      <trkpt lat="43.96872" lon="7.26704">
        <ele>768</ele>
        <time>2018-07-28T08:19:53.000Z</time>
      </trkpt>
      <trkpt lat="43.96874" lon="7.26714">
        <ele>770</ele>
        <time>2018-07-28T08:19:58.000Z</time>
      </trkpt>
      <trkpt lat="43.96874" lon="7.26716">
        <ele>770</ele>
        <time>2018-07-28T08:19:59.000Z</time>
      </trkpt>
      <trkpt lat="43.96874" lon="7.26724">
        <ele>772</ele>
        <time>2018-07-28T08:20:03.000Z</time>
      </trkpt>
      <trkpt lat="43.96875" lon="7.26726">
        <ele>772</ele>
        <time>2018-07-28T08:20:04.000Z</time>
      </trkpt>
      <trkpt lat="43.96881" lon="7.26738">
        <ele>773</ele>
        <time>2018-07-28T08:20:10.000Z</time>
      </trkpt>
      <trkpt lat="43.96882" lon="7.2674">
        <ele>773</ele>
        <time>2018-07-28T08:20:11.000Z</time>
      </trkpt>
      <trkpt lat="43.96889" lon="7.2675">
        <ele>795</ele>
        <time>2018-07-28T08:20:17.000Z</time>
      </trkpt>
      <trkpt lat="43.96896" lon="7.26757">
        <ele>793</ele>
        <time>2018-07-28T08:20:20.000Z</time>
      </trkpt>
      <trkpt lat="43.96898" lon="7.2676">
        <ele>793</ele>
        <time>2018-07-28T08:20:21.000Z</time>
      </trkpt>
      <trkpt lat="43.96897" lon="7.26762">
        <ele>794</ele>
        <time>2018-07-28T08:20:22.000Z</time>
      </trkpt>
      <trkpt lat="43.96901" lon="7.26767">
        <ele>794</ele>
        <time>2018-07-28T08:20:24.000Z</time>
      </trkpt>
      <trkpt lat="43.96907" lon="7.26776">
        <ele>797</ele>
        <time>2018-07-28T08:20:28.000Z</time>
      </trkpt>
      <trkpt lat="43.96907" lon="7.26778">
        <ele>798</ele>
        <time>2018-07-28T08:20:29.000Z</time>
      </trkpt>
      <trkpt lat="43.96909" lon="7.26787">
        <ele>801</ele>
        <time>2018-07-28T08:20:32.000Z</time>
      </trkpt>
      <trkpt lat="43.9691" lon="7.2679">
        <ele>802</ele>
        <time>2018-07-28T08:20:33.000Z</time>
      </trkpt>
      <trkpt lat="43.96911" lon="7.26793">
        <ele>803</ele>
        <time>2018-07-28T08:20:34.000Z</time>
      </trkpt>
      <trkpt lat="43.96918" lon="7.26805">
        <ele>797</ele>
        <time>2018-07-28T08:20:38.000Z</time>
      </trkpt>
      <trkpt lat="43.96923" lon="7.26813">
        <ele>800</ele>
        <time>2018-07-28T08:20:43.000Z</time>
      </trkpt>
      <trkpt lat="43.96925" lon="7.26815">
        <ele>800</ele>
        <time>2018-07-28T08:20:44.000Z</time>
      </trkpt>
      <trkpt lat="43.96928" lon="7.26816">
        <ele>800</ele>
        <time>2018-07-28T08:20:46.000Z</time>
      </trkpt>
      <trkpt lat="43.96934" lon="7.26813">
        <ele>798</ele>
        <time>2018-07-28T08:20:49.000Z</time>
      </trkpt>
      <trkpt lat="43.96936" lon="7.2681">
        <ele>796</ele>
        <time>2018-07-28T08:20:51.000Z</time>
      </trkpt>
      <trkpt lat="43.9694" lon="7.26808">
        <ele>795</ele>
        <time>2018-07-28T08:20:54.000Z</time>
      </trkpt>
      <trkpt lat="43.96944" lon="7.26808">
        <ele>795</ele>
        <time>2018-07-28T08:20:55.000Z</time>
      </trkpt>
      <trkpt lat="43.96963" lon="7.26811">
        <ele>793</ele>
        <time>2018-07-28T08:21:00.000Z</time>
      </trkpt>
      <trkpt lat="43.96986" lon="7.26808">
        <ele>792</ele>
        <time>2018-07-28T08:21:07.000Z</time>
      </trkpt>
      <trkpt lat="43.96994" lon="7.26803">
        <ele>791</ele>
        <time>2018-07-28T08:21:10.000Z</time>
      </trkpt>
      <trkpt lat="43.97" lon="7.26801">
        <ele>790</ele>
        <time>2018-07-28T08:21:12.000Z</time>
      </trkpt>
      <trkpt lat="43.97006" lon="7.26807">
        <ele>786</ele>
        <time>2018-07-28T08:21:15.000Z</time>
      </trkpt>
      <trkpt lat="43.97014" lon="7.26812">
        <ele>787</ele>
        <time>2018-07-28T08:21:19.000Z</time>
      </trkpt>
      <trkpt lat="43.97017" lon="7.26812">
        <ele>787</ele>
        <time>2018-07-28T08:21:20.000Z</time>
      </trkpt>
      <trkpt lat="43.97024" lon="7.26814">
        <ele>786</ele>
        <time>2018-07-28T08:21:23.000Z</time>
      </trkpt>
      <trkpt lat="43.97035" lon="7.26817">
        <ele>786</ele>
        <time>2018-07-28T08:21:28.000Z</time>
      </trkpt>
      <trkpt lat="43.97041" lon="7.26818">
        <ele>785</ele>
        <time>2018-07-28T08:21:30.000Z</time>
      </trkpt>
      <trkpt lat="43.97047" lon="7.26821">
        <ele>786</ele>
        <time>2018-07-28T08:21:33.000Z</time>
      </trkpt>
      <trkpt lat="43.97061" lon="7.26825">
        <ele>787</ele>
        <time>2018-07-28T08:21:39.000Z</time>
      </trkpt>
      <trkpt lat="43.97063" lon="7.26826">
        <ele>787</ele>
        <time>2018-07-28T08:21:40.000Z</time>
      </trkpt>
      <trkpt lat="43.97067" lon="7.2683">
        <ele>788</ele>
        <time>2018-07-28T08:21:42.000Z</time>
      </trkpt>
      <trkpt lat="43.9707" lon="7.26834">
        <ele>803</ele>
        <time>2018-07-28T08:21:44.000Z</time>
      </trkpt>
      <trkpt lat="43.97073" lon="7.26838">
        <ele>802</ele>
        <time>2018-07-28T08:21:48.000Z</time>
      </trkpt>
      <trkpt lat="43.9708" lon="7.26839">
        <ele>799</ele>
        <time>2018-07-28T08:21:50.000Z</time>
      </trkpt>
      <trkpt lat="43.97101" lon="7.26844">
        <ele>800</ele>
        <time>2018-07-28T08:21:57.000Z</time>
      </trkpt>
      <trkpt lat="43.97114" lon="7.2685">
        <ele>801</ele>
        <time>2018-07-28T08:22:02.000Z</time>
      </trkpt>
      <trkpt lat="43.97121" lon="7.26852">
        <ele>801</ele>
        <time>2018-07-28T08:22:05.000Z</time>
      </trkpt>
      <trkpt lat="43.97128" lon="7.26853">
        <ele>801</ele>
        <time>2018-07-28T08:22:08.000Z</time>
      </trkpt>
      <trkpt lat="43.97141" lon="7.26853">
        <ele>798</ele>
        <time>2018-07-28T08:22:14.000Z</time>
      </trkpt>
      <trkpt lat="43.97146" lon="7.26854">
        <ele>798</ele>
        <time>2018-07-28T08:22:16.000Z</time>
      </trkpt>
      <trkpt lat="43.97153" lon="7.26855">
        <ele>796</ele>
        <time>2018-07-28T08:22:19.000Z</time>
      </trkpt>
      <trkpt lat="43.97164" lon="7.26861">
        <ele>798</ele>
        <time>2018-07-28T08:22:24.000Z</time>
      </trkpt>
      <trkpt lat="43.97166" lon="7.26875">
        <ele>802</ele>
        <time>2018-07-28T08:22:29.000Z</time>
      </trkpt>
      <trkpt lat="43.97166" lon="7.26878">
        <ele>803</ele>
        <time>2018-07-28T08:22:30.000Z</time>
      </trkpt>
      <trkpt lat="43.97168" lon="7.26887">
        <ele>799</ele>
        <time>2018-07-28T08:22:34.000Z</time>
      </trkpt>
      <trkpt lat="43.97169" lon="7.26889">
        <ele>800</ele>
        <time>2018-07-28T08:22:35.000Z</time>
      </trkpt>
      <trkpt lat="43.97179" lon="7.26888">
        <ele>799</ele>
        <time>2018-07-28T08:22:39.000Z</time>
      </trkpt>
      <trkpt lat="43.97189" lon="7.26887">
        <ele>797</ele>
        <time>2018-07-28T08:22:43.000Z</time>
      </trkpt>
      <trkpt lat="43.97192" lon="7.2689">
        <ele>798</ele>
        <time>2018-07-28T08:22:45.000Z</time>
      </trkpt>
      <trkpt lat="43.97195" lon="7.26892">
        <ele>798</ele>
        <time>2018-07-28T08:22:46.000Z</time>
      </trkpt>
      <trkpt lat="43.97201" lon="7.26902">
        <ele>799</ele>
        <time>2018-07-28T08:22:50.000Z</time>
      </trkpt>
      <trkpt lat="43.97204" lon="7.26909">
        <ele>799</ele>
        <time>2018-07-28T08:22:54.000Z</time>
      </trkpt>
      <trkpt lat="43.97207" lon="7.26913">
        <ele>799</ele>
        <time>2018-07-28T08:22:57.000Z</time>
      </trkpt>
      <trkpt lat="43.97215" lon="7.2692">
        <ele>816</ele>
        <time>2018-07-28T08:23:01.000Z</time>
      </trkpt>
      <trkpt lat="43.97219" lon="7.26923">
        <ele>816</ele>
        <time>2018-07-28T08:23:03.000Z</time>
      </trkpt>
      <trkpt lat="43.97225" lon="7.26929">
        <ele>815</ele>
        <time>2018-07-28T08:23:06.000Z</time>
      </trkpt>
      <trkpt lat="43.97225" lon="7.26933">
        <ele>816</ele>
        <time>2018-07-28T08:23:08.000Z</time>
      </trkpt>
      <trkpt lat="43.97227" lon="7.26935">
        <ele>816</ele>
        <time>2018-07-28T08:23:09.000Z</time>
      </trkpt>
      <trkpt lat="43.97233" lon="7.26945">
        <ele>817</ele>
        <time>2018-07-28T08:23:14.000Z</time>
      </trkpt>
      <trkpt lat="43.97234" lon="7.26947">
        <ele>817</ele>
        <time>2018-07-28T08:23:15.000Z</time>
      </trkpt>
      <trkpt lat="43.9724" lon="7.26958">
        <ele>819</ele>
        <time>2018-07-28T08:23:20.000Z</time>
      </trkpt>
      <trkpt lat="43.97243" lon="7.26964">
        <ele>820</ele>
        <time>2018-07-28T08:23:22.000Z</time>
      </trkpt>
      <trkpt lat="43.97243" lon="7.26966">
        <ele>820</ele>
        <time>2018-07-28T08:23:23.000Z</time>
      </trkpt>
      <trkpt lat="43.97246" lon="7.26971">
        <ele>821</ele>
        <time>2018-07-28T08:23:25.000Z</time>
      </trkpt>
      <trkpt lat="43.97255" lon="7.26978">
        <ele>819</ele>
        <time>2018-07-28T08:23:30.000Z</time>
      </trkpt>
      <trkpt lat="43.97257" lon="7.26978">
        <ele>819</ele>
        <time>2018-07-28T08:23:31.000Z</time>
      </trkpt>
      <trkpt lat="43.97259" lon="7.26978">
        <ele>819</ele>
        <time>2018-07-28T08:23:32.000Z</time>
      </trkpt>
      <trkpt lat="43.97262" lon="7.26972">
        <ele>818</ele>
        <time>2018-07-28T08:23:35.000Z</time>
      </trkpt>
      <trkpt lat="43.97261" lon="7.26959">
        <ele>816</ele>
        <time>2018-07-28T08:23:40.000Z</time>
      </trkpt>
      <trkpt lat="43.97262" lon="7.2695">
        <ele>814</ele>
        <time>2018-07-28T08:23:43.000Z</time>
      </trkpt>
      <trkpt lat="43.97263" lon="7.2694">
        <ele>812</ele>
        <time>2018-07-28T08:23:46.000Z</time>
      </trkpt>
      <trkpt lat="43.97267" lon="7.26927">
        <ele>810</ele>
        <time>2018-07-28T08:23:51.000Z</time>
      </trkpt>
      <trkpt lat="43.9727" lon="7.26911">
        <ele>800</ele>
        <time>2018-07-28T08:23:56.000Z</time>
      </trkpt>
      <trkpt lat="43.97272" lon="7.26909">
        <ele>800</ele>
        <time>2018-07-28T08:23:57.000Z</time>
      </trkpt>
      <trkpt lat="43.97275" lon="7.26904">
        <ele>800</ele>
        <time>2018-07-28T08:24:00.000Z</time>
      </trkpt>
      <trkpt lat="43.97279" lon="7.26899">
        <ele>799</ele>
        <time>2018-07-28T08:24:04.000Z</time>
      </trkpt>
      <trkpt lat="43.97281" lon="7.26896">
        <ele>799</ele>
        <time>2018-07-28T08:24:06.000Z</time>
      </trkpt>
      <trkpt lat="43.97288" lon="7.2689">
        <ele>799</ele>
        <time>2018-07-28T08:24:12.000Z</time>
      </trkpt>
      <trkpt lat="43.97291" lon="7.26888">
        <ele>800</ele>
        <time>2018-07-28T08:24:14.000Z</time>
      </trkpt>
      <trkpt lat="43.97295" lon="7.2689">
        <ele>800</ele>
        <time>2018-07-28T08:24:17.000Z</time>
      </trkpt>
      <trkpt lat="43.97299" lon="7.26892">
        <ele>801</ele>
        <time>2018-07-28T08:24:20.000Z</time>
      </trkpt>
      <trkpt lat="43.97302" lon="7.26893">
        <ele>801</ele>
        <time>2018-07-28T08:24:21.000Z</time>
      </trkpt>
      <trkpt lat="43.9731" lon="7.26896">
        <ele>803</ele>
        <time>2018-07-28T08:24:26.000Z</time>
      </trkpt>
      <trkpt lat="43.97314" lon="7.26898">
        <ele>803</ele>
        <time>2018-07-28T08:24:28.000Z</time>
      </trkpt>
      <trkpt lat="43.97319" lon="7.26901">
        <ele>805</ele>
        <time>2018-07-28T08:24:32.000Z</time>
      </trkpt>
      <trkpt lat="43.97323" lon="7.26901">
        <ele>805</ele>
        <time>2018-07-28T08:24:34.000Z</time>
      </trkpt>
      <trkpt lat="43.97326" lon="7.26904">
        <ele>807</ele>
        <time>2018-07-28T08:24:36.000Z</time>
      </trkpt>
      <trkpt lat="43.97329" lon="7.26907">
        <ele>808</ele>
        <time>2018-07-28T08:24:38.000Z</time>
      </trkpt>
      <trkpt lat="43.97329" lon="7.26908">
        <ele>808</ele>
        <time>2018-07-28T08:24:39.000Z</time>
      </trkpt>
      <trkpt lat="43.97331" lon="7.2691">
        <ele>809</ele>
        <time>2018-07-28T08:24:41.000Z</time>
      </trkpt>
      <trkpt lat="43.97334" lon="7.26912">
        <ele>814</ele>
        <time>2018-07-28T08:24:43.000Z</time>
      </trkpt>
      <trkpt lat="43.97337" lon="7.26915">
        <ele>814</ele>
        <time>2018-07-28T08:24:45.000Z</time>
      </trkpt>
      <trkpt lat="43.97339" lon="7.26915">
        <ele>814</ele>
        <time>2018-07-28T08:24:46.000Z</time>
      </trkpt>
      <trkpt lat="43.97345" lon="7.26919">
        <ele>819</ele>
        <time>2018-07-28T08:24:51.000Z</time>
      </trkpt>
      <trkpt lat="43.97353" lon="7.26921">
        <ele>823</ele>
        <time>2018-07-28T08:24:55.000Z</time>
      </trkpt>
      <trkpt lat="43.97358" lon="7.26922">
        <ele>824</ele>
        <time>2018-07-28T08:24:57.000Z</time>
      </trkpt>
      <trkpt lat="43.97361" lon="7.26922">
        <ele>825</ele>
        <time>2018-07-28T08:24:59.000Z</time>
      </trkpt>
      <trkpt lat="43.97371" lon="7.26922">
        <ele>826</ele>
        <time>2018-07-28T08:25:05.000Z</time>
      </trkpt>
      <trkpt lat="43.97387" lon="7.26922">
        <ele>828</ele>
        <time>2018-07-28T08:25:12.000Z</time>
      </trkpt>
      <trkpt lat="43.97391" lon="7.26922">
        <ele>829</ele>
        <time>2018-07-28T08:25:14.000Z</time>
      </trkpt>
      <trkpt lat="43.97395" lon="7.26922">
        <ele>829</ele>
        <time>2018-07-28T08:25:17.000Z</time>
      </trkpt>
      <trkpt lat="43.97401" lon="7.26918">
        <ele>829</ele>
        <time>2018-07-28T08:25:20.000Z</time>
      </trkpt>
      <trkpt lat="43.97404" lon="7.26914">
        <ele>825</ele>
        <time>2018-07-28T08:25:22.000Z</time>
      </trkpt>
      <trkpt lat="43.97405" lon="7.26905">
        <ele>825</ele>
        <time>2018-07-28T08:25:25.000Z</time>
      </trkpt>
      <trkpt lat="43.97403" lon="7.26901">
        <ele>824</ele>
        <time>2018-07-28T08:25:27.000Z</time>
      </trkpt>
      <trkpt lat="43.974" lon="7.26899">
        <ele>824</ele>
        <time>2018-07-28T08:25:29.000Z</time>
      </trkpt>
      <trkpt lat="43.97396" lon="7.26896">
        <ele>823</ele>
        <time>2018-07-28T08:25:31.000Z</time>
      </trkpt>
      <trkpt lat="43.97395" lon="7.26895">
        <ele>823</ele>
        <time>2018-07-28T08:25:32.000Z</time>
      </trkpt>
      <trkpt lat="43.97388" lon="7.26885">
        <ele>822</ele>
        <time>2018-07-28T08:25:37.000Z</time>
      </trkpt>
      <trkpt lat="43.97386" lon="7.2688">
        <ele>822</ele>
        <time>2018-07-28T08:25:39.000Z</time>
      </trkpt>
      <trkpt lat="43.97381" lon="7.26869">
        <ele>821</ele>
        <time>2018-07-28T08:25:44.000Z</time>
      </trkpt>
      <trkpt lat="43.9738" lon="7.2686">
        <ele>821</ele>
        <time>2018-07-28T08:25:47.000Z</time>
      </trkpt>
      <trkpt lat="43.97382" lon="7.26846">
        <ele>822</ele>
        <time>2018-07-28T08:25:52.000Z</time>
      </trkpt>
      <trkpt lat="43.97382" lon="7.26845">
        <ele>822</ele>
        <time>2018-07-28T08:25:53.000Z</time>
      </trkpt>
      <trkpt lat="43.97385" lon="7.26831">
        <ele>832</ele>
        <time>2018-07-28T08:25:58.000Z</time>
      </trkpt>
      <trkpt lat="43.97385" lon="7.26826">
        <ele>832</ele>
        <time>2018-07-28T08:26:00.000Z</time>
      </trkpt>
      <trkpt lat="43.97383" lon="7.26816">
        <ele>832</ele>
        <time>2018-07-28T08:26:04.000Z</time>
      </trkpt>
      <trkpt lat="43.9738" lon="7.26812">
        <ele>832</ele>
        <time>2018-07-28T08:26:06.000Z</time>
      </trkpt>
      <trkpt lat="43.97374" lon="7.26802">
        <ele>832</ele>
        <time>2018-07-28T08:26:11.000Z</time>
      </trkpt>
      <trkpt lat="43.97375" lon="7.26795">
        <ele>833</ele>
        <time>2018-07-28T08:26:13.000Z</time>
      </trkpt>
      <trkpt lat="43.97377" lon="7.26789">
        <ele>834</ele>
        <time>2018-07-28T08:26:15.000Z</time>
      </trkpt>
      <trkpt lat="43.97379" lon="7.26774">
        <ele>838</ele>
        <time>2018-07-28T08:26:20.000Z</time>
      </trkpt>
      <trkpt lat="43.9738" lon="7.26771">
        <ele>838</ele>
        <time>2018-07-28T08:26:21.000Z</time>
      </trkpt>
      <trkpt lat="43.97379" lon="7.26761">
        <ele>840</ele>
        <time>2018-07-28T08:26:25.000Z</time>
      </trkpt>
      <trkpt lat="43.97377" lon="7.26755">
        <ele>839</ele>
        <time>2018-07-28T08:26:28.000Z</time>
      </trkpt>
      <trkpt lat="43.97376" lon="7.26755">
        <ele>839</ele>
        <time>2018-07-28T08:26:29.000Z</time>
      </trkpt>
      <trkpt lat="43.97371" lon="7.26752">
        <ele>837</ele>
        <time>2018-07-28T08:26:33.000Z</time>
      </trkpt>
      <trkpt lat="43.9737" lon="7.26753">
        <ele>836</ele>
        <time>2018-07-28T08:26:34.000Z</time>
      </trkpt>
      <trkpt lat="43.97369" lon="7.26753">
        <ele>836</ele>
        <time>2018-07-28T08:26:35.000Z</time>
      </trkpt>
      <trkpt lat="43.97363" lon="7.26751">
        <ele>834</ele>
        <time>2018-07-28T08:26:39.000Z</time>
      </trkpt>
      <trkpt lat="43.97358" lon="7.26749">
        <ele>850</ele>
        <time>2018-07-28T08:26:43.000Z</time>
      </trkpt>
      <trkpt lat="43.97352" lon="7.26745">
        <ele>846</ele>
        <time>2018-07-28T08:26:48.000Z</time>
      </trkpt>
      <trkpt lat="43.9735" lon="7.26743">
        <ele>845</ele>
        <time>2018-07-28T08:26:50.000Z</time>
      </trkpt>
      <trkpt lat="43.97347" lon="7.26738">
        <ele>845</ele>
        <time>2018-07-28T08:26:54.000Z</time>
      </trkpt>
      <trkpt lat="43.97346" lon="7.26732">
        <ele>848</ele>
        <time>2018-07-28T08:26:58.000Z</time>
      </trkpt>
      <trkpt lat="43.97346" lon="7.26726">
        <ele>851</ele>
        <time>2018-07-28T08:27:01.000Z</time>
      </trkpt>
      <trkpt lat="43.97345" lon="7.26722">
        <ele>853</ele>
        <time>2018-07-28T08:27:04.000Z</time>
      </trkpt>
      <trkpt lat="43.97343" lon="7.26718">
        <ele>854</ele>
        <time>2018-07-28T08:27:07.000Z</time>
      </trkpt>
      <trkpt lat="43.97341" lon="7.26716">
        <ele>855</ele>
        <time>2018-07-28T08:27:10.000Z</time>
      </trkpt>
      <trkpt lat="43.9734" lon="7.26715">
        <ele>855</ele>
        <time>2018-07-28T08:27:11.000Z</time>
      </trkpt>
      <trkpt lat="43.97332" lon="7.26709">
        <ele>828</ele>
        <time>2018-07-28T08:27:18.000Z</time>
      </trkpt>
      <trkpt lat="43.97329" lon="7.26706">
        <ele>829</ele>
        <time>2018-07-28T08:27:21.000Z</time>
      </trkpt>
      <trkpt lat="43.97327" lon="7.26705">
        <ele>829</ele>
        <time>2018-07-28T08:27:23.000Z</time>
      </trkpt>
      <trkpt lat="43.97325" lon="7.26703">
        <ele>830</ele>
        <time>2018-07-28T08:27:25.000Z</time>
      </trkpt>
      <trkpt lat="43.97322" lon="7.267">
        <ele>830</ele>
        <time>2018-07-28T08:27:28.000Z</time>
      </trkpt>
      <trkpt lat="43.97319" lon="7.26695">
        <ele>832</ele>
        <time>2018-07-28T08:27:32.000Z</time>
      </trkpt>
      <trkpt lat="43.97318" lon="7.26693">
        <ele>832</ele>
        <time>2018-07-28T08:27:33.000Z</time>
      </trkpt>
      <trkpt lat="43.97315" lon="7.26683">
        <ele>836</ele>
        <time>2018-07-28T08:27:39.000Z</time>
      </trkpt>
      <trkpt lat="43.97315" lon="7.26681">
        <ele>836</ele>
        <time>2018-07-28T08:27:40.000Z</time>
      </trkpt>
      <trkpt lat="43.97314" lon="7.26668">
        <ele>839</ele>
        <time>2018-07-28T08:27:47.000Z</time>
      </trkpt>
      <trkpt lat="43.97315" lon="7.26659">
        <ele>855</ele>
        <time>2018-07-28T08:27:53.000Z</time>
      </trkpt>
      <trkpt lat="43.97316" lon="7.26655">
        <ele>855</ele>
        <time>2018-07-28T08:27:55.000Z</time>
      </trkpt>
      <trkpt lat="43.97317" lon="7.2665">
        <ele>855</ele>
        <time>2018-07-28T08:27:59.000Z</time>
      </trkpt>
      <trkpt lat="43.97318" lon="7.26644">
        <ele>855</ele>
        <time>2018-07-28T08:28:03.000Z</time>
      </trkpt>
      <trkpt lat="43.97317" lon="7.26639">
        <ele>855</ele>
        <time>2018-07-28T08:28:06.000Z</time>
      </trkpt>
      <trkpt lat="43.97317" lon="7.26637">
        <ele>855</ele>
        <time>2018-07-28T08:28:08.000Z</time>
      </trkpt>
      <trkpt lat="43.97315" lon="7.26634">
        <ele>855</ele>
        <time>2018-07-28T08:28:12.000Z</time>
      </trkpt>
      <trkpt lat="43.97309" lon="7.26631">
        <ele>854</ele>
        <time>2018-07-28T08:28:17.000Z</time>
      </trkpt>
      <trkpt lat="43.97307" lon="7.2663">
        <ele>854</ele>
        <time>2018-07-28T08:28:19.000Z</time>
      </trkpt>
      <trkpt lat="43.97306" lon="7.2663">
        <ele>854</ele>
        <time>2018-07-28T08:28:20.000Z</time>
      </trkpt>
      <trkpt lat="43.97305" lon="7.26628">
        <ele>853</ele>
        <time>2018-07-28T08:28:22.000Z</time>
      </trkpt>
      <trkpt lat="43.97304" lon="7.26628">
        <ele>853</ele>
        <time>2018-07-28T08:28:23.000Z</time>
      </trkpt>
      <trkpt lat="43.97302" lon="7.26626">
        <ele>853</ele>
        <time>2018-07-28T08:28:25.000Z</time>
      </trkpt>
      <trkpt lat="43.97297" lon="7.26623">
        <ele>852</ele>
        <time>2018-07-28T08:28:30.000Z</time>
      </trkpt>
      <trkpt lat="43.97294" lon="7.26622">
        <ele>851</ele>
        <time>2018-07-28T08:28:32.000Z</time>
      </trkpt>
      <trkpt lat="43.97286" lon="7.26616">
        <ele>849</ele>
        <time>2018-07-28T08:28:38.000Z</time>
      </trkpt>
      <trkpt lat="43.97276" lon="7.26609">
        <ele>847</ele>
        <time>2018-07-28T08:28:45.000Z</time>
      </trkpt>
      <trkpt lat="43.97273" lon="7.26603">
        <ele>846</ele>
        <time>2018-07-28T08:28:49.000Z</time>
      </trkpt>
      <trkpt lat="43.97273" lon="7.26602">
        <ele>846</ele>
        <time>2018-07-28T08:28:50.000Z</time>
      </trkpt>
      <trkpt lat="43.97273" lon="7.26601">
        <ele>846</ele>
        <time>2018-07-28T08:28:51.000Z</time>
      </trkpt>
      <trkpt lat="43.97274" lon="7.26599">
        <ele>847</ele>
        <time>2018-07-28T08:28:53.000Z</time>
      </trkpt>
      <trkpt lat="43.97274" lon="7.26597">
        <ele>847</ele>
        <time>2018-07-28T08:28:54.000Z</time>
      </trkpt>
      <trkpt lat="43.97276" lon="7.26594">
        <ele>848</ele>
        <time>2018-07-28T08:28:58.000Z</time>
      </trkpt>
      <trkpt lat="43.97277" lon="7.26593">
        <ele>848</ele>
        <time>2018-07-28T08:28:59.000Z</time>
      </trkpt>
      <trkpt lat="43.97279" lon="7.26585">
        <ele>849</ele>
        <time>2018-07-28T08:29:05.000Z</time>
      </trkpt>
      <trkpt lat="43.9728" lon="7.26582">
        <ele>859</ele>
        <time>2018-07-28T08:29:07.000Z</time>
      </trkpt>
      <trkpt lat="43.9728" lon="7.26575">
        <ele>859</ele>
        <time>2018-07-28T08:29:12.000Z</time>
      </trkpt>
      <trkpt lat="43.97279" lon="7.26572">
        <ele>860</ele>
        <time>2018-07-28T08:29:14.000Z</time>
      </trkpt>
      <trkpt lat="43.97279" lon="7.26564">
        <ele>860</ele>
        <time>2018-07-28T08:29:19.000Z</time>
      </trkpt>
      <trkpt lat="43.9728" lon="7.26562">
        <ele>861</ele>
        <time>2018-07-28T08:29:21.000Z</time>
      </trkpt>
      <trkpt lat="43.9728" lon="7.26558">
        <ele>861</ele>
        <time>2018-07-28T08:29:24.000Z</time>
      </trkpt>
      <trkpt lat="43.9728" lon="7.26556">
        <ele>862</ele>
        <time>2018-07-28T08:29:26.000Z</time>
      </trkpt>
      <trkpt lat="43.97281" lon="7.26549">
        <ele>863</ele>
        <time>2018-07-28T08:29:31.000Z</time>
      </trkpt>
      <trkpt lat="43.97282" lon="7.26546">
        <ele>863</ele>
        <time>2018-07-28T08:29:33.000Z</time>
      </trkpt>
      <trkpt lat="43.97283" lon="7.26538">
        <ele>864</ele>
        <time>2018-07-28T08:29:38.000Z</time>
      </trkpt>
      <trkpt lat="43.97284" lon="7.26537">
        <ele>864</ele>
        <time>2018-07-28T08:29:39.000Z</time>
      </trkpt>
      <trkpt lat="43.97287" lon="7.26531">
        <ele>866</ele>
        <time>2018-07-28T08:29:44.000Z</time>
      </trkpt>
      <trkpt lat="43.97288" lon="7.2653">
        <ele>866</ele>
        <time>2018-07-28T08:29:45.000Z</time>
      </trkpt>
      <trkpt lat="43.97291" lon="7.26524">
        <ele>867</ele>
        <time>2018-07-28T08:29:50.000Z</time>
      </trkpt>
      <trkpt lat="43.97291" lon="7.26523">
        <ele>867</ele>
        <time>2018-07-28T08:29:51.000Z</time>
      </trkpt>
      <trkpt lat="43.97291" lon="7.26521">
        <ele>867</ele>
        <time>2018-07-28T08:29:52.000Z</time>
      </trkpt>
      <trkpt lat="43.97292" lon="7.26514">
        <ele>868</ele>
        <time>2018-07-28T08:29:56.000Z</time>
      </trkpt>
      <trkpt lat="43.97292" lon="7.2651">
        <ele>868</ele>
        <time>2018-07-28T08:29:58.000Z</time>
      </trkpt>
      <trkpt lat="43.97291" lon="7.26504">
        <ele>868</ele>
        <time>2018-07-28T08:30:02.000Z</time>
      </trkpt>
      <trkpt lat="43.9729" lon="7.26501">
        <ele>867</ele>
        <time>2018-07-28T08:30:04.000Z</time>
      </trkpt>
      <trkpt lat="43.97289" lon="7.26494">
        <ele>871</ele>
        <time>2018-07-28T08:30:08.000Z</time>
      </trkpt>
      <trkpt lat="43.97288" lon="7.26491">
        <ele>870</ele>
        <time>2018-07-28T08:30:10.000Z</time>
      </trkpt>
      <trkpt lat="43.97286" lon="7.26487">
        <ele>870</ele>
        <time>2018-07-28T08:30:13.000Z</time>
      </trkpt>
      <trkpt lat="43.97283" lon="7.26482">
        <ele>869</ele>
        <time>2018-07-28T08:30:17.000Z</time>
      </trkpt>
      <trkpt lat="43.97279" lon="7.26476">
        <ele>868</ele>
        <time>2018-07-28T08:30:22.000Z</time>
      </trkpt>
      <trkpt lat="43.97277" lon="7.26472">
        <ele>868</ele>
        <time>2018-07-28T08:30:25.000Z</time>
      </trkpt>
      <trkpt lat="43.97273" lon="7.26464">
        <ele>868</ele>
        <time>2018-07-28T08:30:31.000Z</time>
      </trkpt>
      <trkpt lat="43.97273" lon="7.26463">
        <ele>868</ele>
        <time>2018-07-28T08:30:32.000Z</time>
      </trkpt>
      <trkpt lat="43.97271" lon="7.26459">
        <ele>868</ele>
        <time>2018-07-28T08:30:36.000Z</time>
      </trkpt>
      <trkpt lat="43.97271" lon="7.26457">
        <ele>868</ele>
        <time>2018-07-28T08:30:37.000Z</time>
      </trkpt>
      <trkpt lat="43.97269" lon="7.26447">
        <ele>869</ele>
        <time>2018-07-28T08:30:42.000Z</time>
      </trkpt>
      <trkpt lat="43.97268" lon="7.26442">
        <ele>868</ele>
        <time>2018-07-28T08:30:45.000Z</time>
      </trkpt>
      <trkpt lat="43.97268" lon="7.2644">
        <ele>868</ele>
        <time>2018-07-28T08:30:46.000Z</time>
      </trkpt>
      <trkpt lat="43.9727" lon="7.26436">
        <ele>869</ele>
        <time>2018-07-28T08:30:49.000Z</time>
      </trkpt>
      <trkpt lat="43.97272" lon="7.26436">
        <ele>869</ele>
        <time>2018-07-28T08:30:51.000Z</time>
      </trkpt>
      <trkpt lat="43.97275" lon="7.26439">
        <ele>870</ele>
        <time>2018-07-28T08:30:54.000Z</time>
      </trkpt>
      <trkpt lat="43.97276" lon="7.2644">
        <ele>870</ele>
        <time>2018-07-28T08:30:55.000Z</time>
      </trkpt>
      <trkpt lat="43.97279" lon="7.26448">
        <ele>870</ele>
        <time>2018-07-28T08:31:00.000Z</time>
      </trkpt>
      <trkpt lat="43.9728" lon="7.26449">
        <ele>870</ele>
        <time>2018-07-28T08:31:01.000Z</time>
      </trkpt>
      <trkpt lat="43.97286" lon="7.26448">
        <ele>871</ele>
        <time>2018-07-28T08:31:04.000Z</time>
      </trkpt>
      <trkpt lat="43.97292" lon="7.26443">
        <ele>873</ele>
        <time>2018-07-28T08:31:08.000Z</time>
      </trkpt>
      <trkpt lat="43.97294" lon="7.26441">
        <ele>873</ele>
        <time>2018-07-28T08:31:09.000Z</time>
      </trkpt>
      <trkpt lat="43.97304" lon="7.26432">
        <ele>876</ele>
        <time>2018-07-28T08:31:14.000Z</time>
      </trkpt>
      <trkpt lat="43.9731" lon="7.26418">
        <ele>878</ele>
        <time>2018-07-28T08:31:19.000Z</time>
      </trkpt>
      <trkpt lat="43.97312" lon="7.2641">
        <ele>876</ele>
        <time>2018-07-28T08:31:22.000Z</time>
      </trkpt>
      <trkpt lat="43.97318" lon="7.26394">
        <ele>875</ele>
        <time>2018-07-28T08:31:27.000Z</time>
      </trkpt>
      <trkpt lat="43.97322" lon="7.26368">
        <ele>871</ele>
        <time>2018-07-28T08:31:34.000Z</time>
      </trkpt>
      <trkpt lat="43.97322" lon="7.26361">
        <ele>871</ele>
        <time>2018-07-28T08:31:36.000Z</time>
      </trkpt>
      <trkpt lat="43.97325" lon="7.2634">
        <ele>869</ele>
        <time>2018-07-28T08:31:42.000Z</time>
      </trkpt>
      <trkpt lat="43.97331" lon="7.26324">
        <ele>864</ele>
        <time>2018-07-28T08:31:47.000Z</time>
      </trkpt>
      <trkpt lat="43.97333" lon="7.26321">
        <ele>863</ele>
        <time>2018-07-28T08:31:48.000Z</time>
      </trkpt>
      <trkpt lat="43.97343" lon="7.26319">
        <ele>859</ele>
        <time>2018-07-28T08:31:52.000Z</time>
      </trkpt>
      <trkpt lat="43.97349" lon="7.26324">
        <ele>858</ele>
        <time>2018-07-28T08:31:56.000Z</time>
      </trkpt>
      <trkpt lat="43.97361" lon="7.26333">
        <ele>856</ele>
        <time>2018-07-28T08:32:02.000Z</time>
      </trkpt>
      <trkpt lat="43.9737" lon="7.26341">
        <ele>876</ele>
        <time>2018-07-28T08:32:07.000Z</time>
      </trkpt>
      <trkpt lat="43.97372" lon="7.26343">
        <ele>876</ele>
        <time>2018-07-28T08:32:09.000Z</time>
      </trkpt>
      <trkpt lat="43.97376" lon="7.26348">
        <ele>877</ele>
        <time>2018-07-28T08:32:12.000Z</time>
      </trkpt>
      <trkpt lat="43.97378" lon="7.26352">
        <ele>877</ele>
        <time>2018-07-28T08:32:14.000Z</time>
      </trkpt>
      <trkpt lat="43.97384" lon="7.26361">
        <ele>879</ele>
        <time>2018-07-28T08:32:19.000Z</time>
      </trkpt>
      <trkpt lat="43.9739" lon="7.26368">
        <ele>881</ele>
        <time>2018-07-28T08:32:23.000Z</time>
      </trkpt>
      <trkpt lat="43.97394" lon="7.26372">
        <ele>882</ele>
        <time>2018-07-28T08:32:25.000Z</time>
      </trkpt>
      <trkpt lat="43.97407" lon="7.26375">
        <ele>883</ele>
        <time>2018-07-28T08:32:31.000Z</time>
      </trkpt>
      <trkpt lat="43.97424" lon="7.26371">
        <ele>872</ele>
        <time>2018-07-28T08:32:37.000Z</time>
      </trkpt>
      <trkpt lat="43.9743" lon="7.26369">
        <ele>871</ele>
        <time>2018-07-28T08:32:39.000Z</time>
      </trkpt>
      <trkpt lat="43.97445" lon="7.26372">
        <ele>869</ele>
        <time>2018-07-28T08:32:46.000Z</time>
      </trkpt>
      <trkpt lat="43.97454" lon="7.2638">
        <ele>870</ele>
        <time>2018-07-28T08:32:50.000Z</time>
      </trkpt>
      <trkpt lat="43.97466" lon="7.26377">
        <ele>867</ele>
        <time>2018-07-28T08:32:54.000Z</time>
      </trkpt>
      <trkpt lat="43.97478" lon="7.26381">
        <ele>866</ele>
        <time>2018-07-28T08:32:58.000Z</time>
      </trkpt>
      <trkpt lat="43.97499" lon="7.26395">
        <ele>870</ele>
        <time>2018-07-28T08:33:05.000Z</time>
      </trkpt>
      <trkpt lat="43.97504" lon="7.26412">
        <ele>870</ele>
        <time>2018-07-28T08:33:09.000Z</time>
      </trkpt>
      <trkpt lat="43.97507" lon="7.26429">
        <ele>882</ele>
        <time>2018-07-28T08:33:14.000Z</time>
      </trkpt>
      <trkpt lat="43.97515" lon="7.2644">
        <ele>884</ele>
        <time>2018-07-28T08:33:18.000Z</time>
      </trkpt>
      <trkpt lat="43.97526" lon="7.26454">
        <ele>886</ele>
        <time>2018-07-28T08:33:22.000Z</time>
      </trkpt>
      <trkpt lat="43.97528" lon="7.26457">
        <ele>886</ele>
        <time>2018-07-28T08:33:23.000Z</time>
      </trkpt>
      <trkpt lat="43.97543" lon="7.26467">
        <ele>886</ele>
        <time>2018-07-28T08:33:28.000Z</time>
      </trkpt>
      <trkpt lat="43.97557" lon="7.26479">
        <ele>886</ele>
        <time>2018-07-28T08:33:33.000Z</time>
      </trkpt>
      <trkpt lat="43.97561" lon="7.26484">
        <ele>887</ele>
        <time>2018-07-28T08:33:35.000Z</time>
      </trkpt>
      <trkpt lat="43.97562" lon="7.26485">
        <ele>887</ele>
        <time>2018-07-28T08:33:36.000Z</time>
      </trkpt>
      <trkpt lat="43.97566" lon="7.26488">
        <ele>887</ele>
        <time>2018-07-28T08:33:40.000Z</time>
      </trkpt>
      <trkpt lat="43.9757" lon="7.26489">
        <ele>887</ele>
        <time>2018-07-28T08:33:46.000Z</time>
      </trkpt>
      <trkpt lat="43.97575" lon="7.26491">
        <ele>887</ele>
        <time>2018-07-28T08:33:53.000Z</time>
      </trkpt>
      <trkpt lat="43.97586" lon="7.2649">
        <ele>879</ele>
        <time>2018-07-28T08:33:58.000Z</time>
      </trkpt>
      <trkpt lat="43.97604" lon="7.26482">
        <ele>868</ele>
        <time>2018-07-28T08:34:03.000Z</time>
      </trkpt>
      <trkpt lat="43.97619" lon="7.26491">
        <ele>866</ele>
        <time>2018-07-28T08:34:07.000Z</time>
      </trkpt>
      <trkpt lat="43.97627" lon="7.26507">
        <ele>890</ele>
        <time>2018-07-28T08:34:11.000Z</time>
      </trkpt>
      <trkpt lat="43.97628" lon="7.26511">
        <ele>890</ele>
        <time>2018-07-28T08:34:12.000Z</time>
      </trkpt>
      <trkpt lat="43.97633" lon="7.26533">
        <ele>893</ele>
        <time>2018-07-28T08:34:17.000Z</time>
      </trkpt>
      <trkpt lat="43.97637" lon="7.26552">
        <ele>897</ele>
        <time>2018-07-28T08:34:21.000Z</time>
      </trkpt>
      <trkpt lat="43.97637" lon="7.26555">
        <ele>897</ele>
        <time>2018-07-28T08:34:22.000Z</time>
      </trkpt>
      <trkpt lat="43.97639" lon="7.26565">
        <ele>898</ele>
        <time>2018-07-28T08:34:24.000Z</time>
      </trkpt>
      <trkpt lat="43.97639" lon="7.26568">
        <ele>898</ele>
        <time>2018-07-28T08:34:25.000Z</time>
      </trkpt>
      <trkpt lat="43.97638" lon="7.26571">
        <ele>899</ele>
        <time>2018-07-28T08:34:26.000Z</time>
      </trkpt>
      <trkpt lat="43.97642" lon="7.26579">
        <ele>898</ele>
        <time>2018-07-28T08:34:28.000Z</time>
      </trkpt>
      <trkpt lat="43.97644" lon="7.26585">
        <ele>914</ele>
        <time>2018-07-28T08:34:30.000Z</time>
      </trkpt>
      <trkpt lat="43.97644" lon="7.26586">
        <ele>914</ele>
        <time>2018-07-28T08:34:32.000Z</time>
      </trkpt>
      <trkpt lat="43.97648" lon="7.26593">
        <ele>913</ele>
        <time>2018-07-28T08:34:36.000Z</time>
      </trkpt>
      <trkpt lat="43.97647" lon="7.26592">
        <ele>913</ele>
        <time>2018-07-28T08:34:37.000Z</time>
      </trkpt>
      <trkpt lat="43.97647" lon="7.26595">
        <ele>914</ele>
        <time>2018-07-28T08:34:38.000Z</time>
      </trkpt>
      <trkpt lat="43.97647" lon="7.26599">
        <ele>916</ele>
        <time>2018-07-28T08:34:40.000Z</time>
      </trkpt>
      <trkpt lat="43.97648" lon="7.26606">
        <ele>918</ele>
        <time>2018-07-28T08:34:42.000Z</time>
      </trkpt>
      <trkpt lat="43.97652" lon="7.26621">
        <ele>921</ele>
        <time>2018-07-28T08:34:46.000Z</time>
      </trkpt>
      <trkpt lat="43.97655" lon="7.26629">
        <ele>922</ele>
        <time>2018-07-28T08:34:48.000Z</time>
      </trkpt>
      <trkpt lat="43.97661" lon="7.26639">
        <ele>923</ele>
        <time>2018-07-28T08:34:51.000Z</time>
      </trkpt>
      <trkpt lat="43.97665" lon="7.26642">
        <ele>922</ele>
        <time>2018-07-28T08:34:53.000Z</time>
      </trkpt>
      <trkpt lat="43.97668" lon="7.26641">
        <ele>904</ele>
        <time>2018-07-28T08:34:55.000Z</time>
      </trkpt>
      <trkpt lat="43.97671" lon="7.26634">
        <ele>902</ele>
        <time>2018-07-28T08:34:58.000Z</time>
      </trkpt>
      <trkpt lat="43.9768" lon="7.26622">
        <ele>898</ele>
        <time>2018-07-28T08:35:02.000Z</time>
      </trkpt>
      <trkpt lat="43.97682" lon="7.2662">
        <ele>898</ele>
        <time>2018-07-28T08:35:03.000Z</time>
      </trkpt>
      <trkpt lat="43.97697" lon="7.26603">
        <ele>894</ele>
        <time>2018-07-28T08:35:09.000Z</time>
      </trkpt>
      <trkpt lat="43.97705" lon="7.26599">
        <ele>893</ele>
        <time>2018-07-28T08:35:11.000Z</time>
      </trkpt>
      <trkpt lat="43.97708" lon="7.26602">
        <ele>892</ele>
        <time>2018-07-28T08:35:12.000Z</time>
      </trkpt>
      <trkpt lat="43.97712" lon="7.26611">
        <ele>893</ele>
        <time>2018-07-28T08:35:15.000Z</time>
      </trkpt>
      <trkpt lat="43.97716" lon="7.26616">
        <ele>893</ele>
        <time>2018-07-28T08:35:17.000Z</time>
      </trkpt>
      <trkpt lat="43.97718" lon="7.2662">
        <ele>894</ele>
        <time>2018-07-28T08:35:19.000Z</time>
      </trkpt>
      <trkpt lat="43.9772" lon="7.26621">
        <ele>894</ele>
        <time>2018-07-28T08:35:21.000Z</time>
      </trkpt>
      <trkpt lat="43.97721" lon="7.26624">
        <ele>894</ele>
        <time>2018-07-28T08:35:23.000Z</time>
      </trkpt>
      <trkpt lat="43.97723" lon="7.26625">
        <ele>894</ele>
        <time>2018-07-28T08:35:24.000Z</time>
      </trkpt>
      <trkpt lat="43.97723" lon="7.26626">
        <ele>895</ele>
        <time>2018-07-28T08:35:25.000Z</time>
      </trkpt>
      <trkpt lat="43.97725" lon="7.26627">
        <ele>895</ele>
        <time>2018-07-28T08:35:26.000Z</time>
      </trkpt>
      <trkpt lat="43.97726" lon="7.26629">
        <ele>895</ele>
        <time>2018-07-28T08:35:27.000Z</time>
      </trkpt>
      <trkpt lat="43.97737" lon="7.26639">
        <ele>896</ele>
        <time>2018-07-28T08:35:32.000Z</time>
      </trkpt>
      <trkpt lat="43.97753" lon="7.26644">
        <ele>894</ele>
        <time>2018-07-28T08:35:37.000Z</time>
      </trkpt>
      <trkpt lat="43.97762" lon="7.26656">
        <ele>896</ele>
        <time>2018-07-28T08:35:41.000Z</time>
      </trkpt>
      <trkpt lat="43.9777" lon="7.26662">
        <ele>896</ele>
        <time>2018-07-28T08:35:46.000Z</time>
      </trkpt>
      <trkpt lat="43.9778" lon="7.26669">
        <ele>912</ele>
        <time>2018-07-28T08:35:52.000Z</time>
      </trkpt>
      <trkpt lat="43.97782" lon="7.26673">
        <ele>912</ele>
        <time>2018-07-28T08:35:54.000Z</time>
      </trkpt>
      <trkpt lat="43.97784" lon="7.2668">
        <ele>913</ele>
        <time>2018-07-28T08:35:56.000Z</time>
      </trkpt>
      <trkpt lat="43.97787" lon="7.26685">
        <ele>914</ele>
        <time>2018-07-28T08:35:58.000Z</time>
      </trkpt>
      <trkpt lat="43.97792" lon="7.26688">
        <ele>915</ele>
        <time>2018-07-28T08:36:00.000Z</time>
      </trkpt>
      <trkpt lat="43.97798" lon="7.26688">
        <ele>915</ele>
        <time>2018-07-28T08:36:05.000Z</time>
      </trkpt>
      <trkpt lat="43.97805" lon="7.26681">
        <ele>913</ele>
        <time>2018-07-28T08:36:10.000Z</time>
      </trkpt>
      <trkpt lat="43.97819" lon="7.26672">
        <ele>909</ele>
        <time>2018-07-28T08:36:15.000Z</time>
      </trkpt>
      <trkpt lat="43.97838" lon="7.26675">
        <ele>911</ele>
        <time>2018-07-28T08:36:20.000Z</time>
      </trkpt>
      <trkpt lat="43.97851" lon="7.26678">
        <ele>918</ele>
        <time>2018-07-28T08:36:24.000Z</time>
      </trkpt>
      <trkpt lat="43.97867" lon="7.26683">
        <ele>924</ele>
        <time>2018-07-28T08:36:29.000Z</time>
      </trkpt>
      <trkpt lat="43.97883" lon="7.26675">
        <ele>927</ele>
        <time>2018-07-28T08:36:34.000Z</time>
      </trkpt>
      <trkpt lat="43.97886" lon="7.26675">
        <ele>927</ele>
        <time>2018-07-28T08:36:38.000Z</time>
      </trkpt>
      <trkpt lat="43.97888" lon="7.26674">
        <ele>927</ele>
        <time>2018-07-28T08:36:43.000Z</time>
      </trkpt>
      <trkpt lat="43.97888" lon="7.26671">
        <ele>927</ele>
        <time>2018-07-28T08:36:48.000Z</time>
      </trkpt>
      <trkpt lat="43.97887" lon="7.26662">
        <ele>920</ele>
        <time>2018-07-28T08:36:53.000Z</time>
      </trkpt>
      <trkpt lat="43.97887" lon="7.26661">
        <ele>920</ele>
        <time>2018-07-28T08:36:54.000Z</time>
      </trkpt>
      <trkpt lat="43.97886" lon="7.26661">
        <ele>920</ele>
        <time>2018-07-28T08:36:59.000Z</time>
      </trkpt>
      <trkpt lat="43.97885" lon="7.26658">
        <ele>919</ele>
        <time>2018-07-28T08:37:01.000Z</time>
      </trkpt>
      <trkpt lat="43.97883" lon="7.26653">
        <ele>919</ele>
        <time>2018-07-28T08:37:04.000Z</time>
      </trkpt>
      <trkpt lat="43.97878" lon="7.26637">
        <ele>917</ele>
        <time>2018-07-28T08:37:09.000Z</time>
      </trkpt>
      <trkpt lat="43.9787" lon="7.2663">
        <ele>915</ele>
        <time>2018-07-28T08:37:14.000Z</time>
      </trkpt>
      <trkpt lat="43.97862" lon="7.26621">
        <ele>913</ele>
        <time>2018-07-28T08:37:19.000Z</time>
      </trkpt>
      <trkpt lat="43.97857" lon="7.26614">
        <ele>911</ele>
        <time>2018-07-28T08:37:26.000Z</time>
      </trkpt>
      <trkpt lat="43.97855" lon="7.26611">
        <ele>910</ele>
        <time>2018-07-28T08:37:32.000Z</time>
      </trkpt>
      <trkpt lat="43.97852" lon="7.26605">
        <ele>908</ele>
        <time>2018-07-28T08:37:36.000Z</time>
      </trkpt>
      <trkpt lat="43.97845" lon="7.26594">
        <ele>902</ele>
        <time>2018-07-28T08:37:41.000Z</time>
      </trkpt>
      <trkpt lat="43.97836" lon="7.26575">
        <ele>901</ele>
        <time>2018-07-28T08:37:48.000Z</time>
      </trkpt>
      <trkpt lat="43.97829" lon="7.26566">
        <ele>887</ele>
        <time>2018-07-28T08:37:52.000Z</time>
      </trkpt>
      <trkpt lat="43.97825" lon="7.26558">
        <ele>887</ele>
        <time>2018-07-28T08:37:55.000Z</time>
      </trkpt>
      <trkpt lat="43.97819" lon="7.26543">
        <ele>888</ele>
        <time>2018-07-28T08:38:00.000Z</time>
      </trkpt>
      <trkpt lat="43.97818" lon="7.26539">
        <ele>888</ele>
        <time>2018-07-28T08:38:01.000Z</time>
      </trkpt>
      <trkpt lat="43.97814" lon="7.26517">
        <ele>892</ele>
        <time>2018-07-28T08:38:07.000Z</time>
      </trkpt>
      <trkpt lat="43.97812" lon="7.26507">
        <ele>894</ele>
        <time>2018-07-28T08:38:10.000Z</time>
      </trkpt>
      <trkpt lat="43.9781" lon="7.26487">
        <ele>896</ele>
        <time>2018-07-28T08:38:15.000Z</time>
      </trkpt>
      <trkpt lat="43.97809" lon="7.26466">
        <ele>895</ele>
        <time>2018-07-28T08:38:20.000Z</time>
      </trkpt>
      <trkpt lat="43.97808" lon="7.26453">
        <ele>895</ele>
        <time>2018-07-28T08:38:23.000Z</time>
      </trkpt>
      <trkpt lat="43.97805" lon="7.26435">
        <ele>896</ele>
        <time>2018-07-28T08:38:27.000Z</time>
      </trkpt>
      <trkpt lat="43.97804" lon="7.26432">
        <ele>897</ele>
        <time>2018-07-28T08:38:28.000Z</time>
      </trkpt>
      <trkpt lat="43.97802" lon="7.26424">
        <ele>896</ele>
        <time>2018-07-28T08:38:30.000Z</time>
      </trkpt>
      <trkpt lat="43.978" lon="7.26412">
        <ele>897</ele>
        <time>2018-07-28T08:38:33.000Z</time>
      </trkpt>
      <trkpt lat="43.97801" lon="7.264">
        <ele>896</ele>
        <time>2018-07-28T08:38:36.000Z</time>
      </trkpt>
      <trkpt lat="43.97797" lon="7.26377">
        <ele>894</ele>
        <time>2018-07-28T08:38:43.000Z</time>
      </trkpt>
      <trkpt lat="43.97787" lon="7.26351">
        <ele>890</ele>
        <time>2018-07-28T08:38:50.000Z</time>
      </trkpt>
      <trkpt lat="43.97783" lon="7.26338">
        <ele>888</ele>
        <time>2018-07-28T08:38:54.000Z</time>
      </trkpt>
      <trkpt lat="43.97784" lon="7.26324">
        <ele>880</ele>
        <time>2018-07-28T08:38:58.000Z</time>
      </trkpt>
      <trkpt lat="43.97793" lon="7.26318">
        <ele>882</ele>
        <time>2018-07-28T08:39:02.000Z</time>
      </trkpt>
      <trkpt lat="43.97796" lon="7.26316">
        <ele>883</ele>
        <time>2018-07-28T08:39:03.000Z</time>
      </trkpt>
      <trkpt lat="43.97806" lon="7.26307">
        <ele>885</ele>
        <time>2018-07-28T08:39:08.000Z</time>
      </trkpt>
      <trkpt lat="43.97809" lon="7.26304">
        <ele>885</ele>
        <time>2018-07-28T08:39:09.000Z</time>
      </trkpt>
      <trkpt lat="43.97815" lon="7.26298">
        <ele>885</ele>
        <time>2018-07-28T08:39:12.000Z</time>
      </trkpt>
      <trkpt lat="43.97823" lon="7.26291">
        <ele>885</ele>
        <time>2018-07-28T08:39:16.000Z</time>
      </trkpt>
      <trkpt lat="43.97827" lon="7.26291">
        <ele>886</ele>
        <time>2018-07-28T08:39:18.000Z</time>
      </trkpt>
      <trkpt lat="43.97834" lon="7.26293">
        <ele>914</ele>
        <time>2018-07-28T08:39:21.000Z</time>
      </trkpt>
      <trkpt lat="43.97838" lon="7.26295">
        <ele>915</ele>
        <time>2018-07-28T08:39:24.000Z</time>
      </trkpt>
      <trkpt lat="43.97839" lon="7.26296">
        <ele>915</ele>
        <time>2018-07-28T08:39:25.000Z</time>
      </trkpt>
      <trkpt lat="43.97844" lon="7.26298">
        <ele>917</ele>
        <time>2018-07-28T08:39:29.000Z</time>
      </trkpt>
      <trkpt lat="43.97848" lon="7.26299">
        <ele>917</ele>
        <time>2018-07-28T08:39:31.000Z</time>
      </trkpt>
      <trkpt lat="43.97858" lon="7.26297">
        <ele>919</ele>
        <time>2018-07-28T08:39:37.000Z</time>
      </trkpt>
      <trkpt lat="43.97866" lon="7.26291">
        <ele>920</ele>
        <time>2018-07-28T08:39:42.000Z</time>
      </trkpt>
      <trkpt lat="43.97869" lon="7.26289">
        <ele>920</ele>
        <time>2018-07-28T08:39:44.000Z</time>
      </trkpt>
      <trkpt lat="43.97878" lon="7.26281">
        <ele>921</ele>
        <time>2018-07-28T08:39:49.000Z</time>
      </trkpt>
      <trkpt lat="43.9788" lon="7.26279">
        <ele>921</ele>
        <time>2018-07-28T08:39:50.000Z</time>
      </trkpt>
      <trkpt lat="43.97884" lon="7.26266">
        <ele>921</ele>
        <time>2018-07-28T08:39:54.000Z</time>
      </trkpt>
      <trkpt lat="43.97886" lon="7.26256">
        <ele>921</ele>
        <time>2018-07-28T08:39:57.000Z</time>
      </trkpt>
      <trkpt lat="43.9789" lon="7.2624">
        <ele>904</ele>
        <time>2018-07-28T08:40:02.000Z</time>
      </trkpt>
      <trkpt lat="43.97891" lon="7.26238">
        <ele>903</ele>
        <time>2018-07-28T08:40:03.000Z</time>
      </trkpt>
      <trkpt lat="43.97894" lon="7.26229">
        <ele>902</ele>
        <time>2018-07-28T08:40:07.000Z</time>
      </trkpt>
      <trkpt lat="43.97895" lon="7.26227">
        <ele>902</ele>
        <time>2018-07-28T08:40:08.000Z</time>
      </trkpt>
      <trkpt lat="43.97897" lon="7.26218">
        <ele>900</ele>
        <time>2018-07-28T08:40:12.000Z</time>
      </trkpt>
      <trkpt lat="43.979" lon="7.26214">
        <ele>899</ele>
        <time>2018-07-28T08:40:14.000Z</time>
      </trkpt>
      <trkpt lat="43.97909" lon="7.26206">
        <ele>899</ele>
        <time>2018-07-28T08:40:19.000Z</time>
      </trkpt>
      <trkpt lat="43.97917" lon="7.26206">
        <ele>899</ele>
        <time>2018-07-28T08:40:24.000Z</time>
      </trkpt>
      <trkpt lat="43.97928" lon="7.26204">
        <ele>918</ele>
        <time>2018-07-28T08:40:31.000Z</time>
      </trkpt>
      <trkpt lat="43.97929" lon="7.26204">
        <ele>918</ele>
        <time>2018-07-28T08:40:32.000Z</time>
      </trkpt>
      <trkpt lat="43.97938" lon="7.26201">
        <ele>918</ele>
        <time>2018-07-28T08:40:38.000Z</time>
      </trkpt>
      <trkpt lat="43.97939" lon="7.26201">
        <ele>918</ele>
        <time>2018-07-28T08:40:39.000Z</time>
      </trkpt>
      <trkpt lat="43.97944" lon="7.26199">
        <ele>918</ele>
        <time>2018-07-28T08:40:43.000Z</time>
      </trkpt>
      <trkpt lat="43.97948" lon="7.26198">
        <ele>918</ele>
        <time>2018-07-28T08:40:45.000Z</time>
      </trkpt>
      <trkpt lat="43.97955" lon="7.26196">
        <ele>919</ele>
        <time>2018-07-28T08:40:50.000Z</time>
      </trkpt>
      <trkpt lat="43.97964" lon="7.26193">
        <ele>919</ele>
        <time>2018-07-28T08:40:56.000Z</time>
      </trkpt>
      <trkpt lat="43.97967" lon="7.26192">
        <ele>919</ele>
        <time>2018-07-28T08:40:58.000Z</time>
      </trkpt>
      <trkpt lat="43.97971" lon="7.2619">
        <ele>919</ele>
        <time>2018-07-28T08:41:01.000Z</time>
      </trkpt>
      <trkpt lat="43.97977" lon="7.26186">
        <ele>918</ele>
        <time>2018-07-28T08:41:05.000Z</time>
      </trkpt>
      <trkpt lat="43.97982" lon="7.26184">
        <ele>917</ele>
        <time>2018-07-28T08:41:08.000Z</time>
      </trkpt>
      <trkpt lat="43.9799" lon="7.26182">
        <ele>916</ele>
        <time>2018-07-28T08:41:13.000Z</time>
      </trkpt>
      <trkpt lat="43.97992" lon="7.26182">
        <ele>916</ele>
        <time>2018-07-28T08:41:14.000Z</time>
      </trkpt>
      <trkpt lat="43.97999" lon="7.2618">
        <ele>915</ele>
        <time>2018-07-28T08:41:19.000Z</time>
      </trkpt>
      <trkpt lat="43.98002" lon="7.26179">
        <ele>913</ele>
        <time>2018-07-28T08:41:21.000Z</time>
      </trkpt>
      <trkpt lat="43.98011" lon="7.26181">
        <ele>914</ele>
        <time>2018-07-28T08:41:26.000Z</time>
      </trkpt>
      <trkpt lat="43.98012" lon="7.26183">
        <ele>914</ele>
        <time>2018-07-28T08:41:27.000Z</time>
      </trkpt>
      <trkpt lat="43.98018" lon="7.262">
        <ele>919</ele>
        <time>2018-07-28T08:41:33.000Z</time>
      </trkpt>
      <trkpt lat="43.98025" lon="7.26215">
        <ele>923</ele>
        <time>2018-07-28T08:41:38.000Z</time>
      </trkpt>
      <trkpt lat="43.98027" lon="7.26222">
        <ele>925</ele>
        <time>2018-07-28T08:41:40.000Z</time>
      </trkpt>
      <trkpt lat="43.98033" lon="7.2624">
        <ele>928</ele>
        <time>2018-07-28T08:41:45.000Z</time>
      </trkpt>
      <trkpt lat="43.98042" lon="7.26259">
        <ele>959</ele>
        <time>2018-07-28T08:41:51.000Z</time>
      </trkpt>
      <trkpt lat="43.98045" lon="7.26259">
        <ele>958</ele>
        <time>2018-07-28T08:41:52.000Z</time>
      </trkpt>
      <trkpt lat="43.9805" lon="7.26258">
        <ele>956</ele>
        <time>2018-07-28T08:41:54.000Z</time>
      </trkpt>
      <trkpt lat="43.98053" lon="7.26259">
        <ele>956</ele>
        <time>2018-07-28T08:41:55.000Z</time>
      </trkpt>
      <trkpt lat="43.98061" lon="7.26265">
        <ele>955</ele>
        <time>2018-07-28T08:41:58.000Z</time>
      </trkpt>
      <trkpt lat="43.98072" lon="7.26283">
        <ele>960</ele>
        <time>2018-07-28T08:42:04.000Z</time>
      </trkpt>
      <trkpt lat="43.98074" lon="7.26291">
        <ele>964</ele>
        <time>2018-07-28T08:42:07.000Z</time>
      </trkpt>
      <trkpt lat="43.98084" lon="7.26302">
        <ele>962</ele>
        <time>2018-07-28T08:42:11.000Z</time>
      </trkpt>
      <trkpt lat="43.98088" lon="7.26304">
        <ele>963</ele>
        <time>2018-07-28T08:42:12.000Z</time>
      </trkpt>
      <trkpt lat="43.98092" lon="7.26306">
        <ele>964</ele>
        <time>2018-07-28T08:42:14.000Z</time>
      </trkpt>
      <trkpt lat="43.98095" lon="7.26304">
        <ele>963</ele>
        <time>2018-07-28T08:42:15.000Z</time>
      </trkpt>
      <trkpt lat="43.98103" lon="7.26298">
        <ele>959</ele>
        <time>2018-07-28T08:42:18.000Z</time>
      </trkpt>
      <trkpt lat="43.9811" lon="7.2629">
        <ele>956</ele>
        <time>2018-07-28T08:42:21.000Z</time>
      </trkpt>
      <trkpt lat="43.98122" lon="7.26271">
        <ele>950</ele>
        <time>2018-07-28T08:42:27.000Z</time>
      </trkpt>
      <trkpt lat="43.98135" lon="7.26262">
        <ele>948</ele>
        <time>2018-07-28T08:42:32.000Z</time>
      </trkpt>
      <trkpt lat="43.98138" lon="7.26261">
        <ele>947</ele>
        <time>2018-07-28T08:42:33.000Z</time>
      </trkpt>
      <trkpt lat="43.98152" lon="7.26267">
        <ele>945</ele>
        <time>2018-07-28T08:42:38.000Z</time>
      </trkpt>
      <trkpt lat="43.98166" lon="7.26278">
        <ele>949</ele>
        <time>2018-07-28T08:42:43.000Z</time>
      </trkpt>
      <trkpt lat="43.98176" lon="7.26287">
        <ele>950</ele>
        <time>2018-07-28T08:42:47.000Z</time>
      </trkpt>
      <trkpt lat="43.98178" lon="7.2629">
        <ele>951</ele>
        <time>2018-07-28T08:42:48.000Z</time>
      </trkpt>
      <trkpt lat="43.98192" lon="7.26306">
        <ele>956</ele>
        <time>2018-07-28T08:42:54.000Z</time>
      </trkpt>
      <trkpt lat="43.98198" lon="7.26309">
        <ele>957</ele>
        <time>2018-07-28T08:42:58.000Z</time>
      </trkpt>
      <trkpt lat="43.98202" lon="7.26306">
        <ele>955</ele>
        <time>2018-07-28T08:43:00.000Z</time>
      </trkpt>
      <trkpt lat="43.98207" lon="7.263">
        <ele>953</ele>
        <time>2018-07-28T08:43:02.000Z</time>
      </trkpt>
      <trkpt lat="43.98223" lon="7.26287">
        <ele>949</ele>
        <time>2018-07-28T08:43:08.000Z</time>
      </trkpt>
      <trkpt lat="43.98234" lon="7.26284">
        <ele>947</ele>
        <time>2018-07-28T08:43:12.000Z</time>
      </trkpt>
      <trkpt lat="43.98236" lon="7.26281">
        <ele>946</ele>
        <time>2018-07-28T08:43:13.000Z</time>
      </trkpt>
      <trkpt lat="43.98249" lon="7.26277">
        <ele>944</ele>
        <time>2018-07-28T08:43:18.000Z</time>
      </trkpt>
      <trkpt lat="43.98254" lon="7.26283">
        <ele>941</ele>
        <time>2018-07-28T08:43:20.000Z</time>
      </trkpt>
      <trkpt lat="43.98264" lon="7.2629">
        <ele>944</ele>
        <time>2018-07-28T08:43:23.000Z</time>
      </trkpt>
      <trkpt lat="43.98277" lon="7.26295">
        <ele>944</ele>
        <time>2018-07-28T08:43:27.000Z</time>
      </trkpt>
      <trkpt lat="43.98288" lon="7.26302">
        <ele>946</ele>
        <time>2018-07-28T08:43:31.000Z</time>
      </trkpt>
      <trkpt lat="43.9829" lon="7.26304">
        <ele>946</ele>
        <time>2018-07-28T08:43:32.000Z</time>
      </trkpt>
      <trkpt lat="43.98306" lon="7.26312">
        <ele>947</ele>
        <time>2018-07-28T08:43:38.000Z</time>
      </trkpt>
      <trkpt lat="43.98309" lon="7.26313">
        <ele>948</ele>
        <time>2018-07-28T08:43:39.000Z</time>
      </trkpt>
      <trkpt lat="43.98323" lon="7.2632">
        <ele>951</ele>
        <time>2018-07-28T08:43:44.000Z</time>
      </trkpt>
      <trkpt lat="43.98326" lon="7.26323">
        <ele>952</ele>
        <time>2018-07-28T08:43:45.000Z</time>
      </trkpt>
      <trkpt lat="43.98335" lon="7.26328">
        <ele>956</ele>
        <time>2018-07-28T08:43:49.000Z</time>
      </trkpt>
      <trkpt lat="43.98338" lon="7.26327">
        <ele>955</ele>
        <time>2018-07-28T08:43:50.000Z</time>
      </trkpt>
      <trkpt lat="43.98346" lon="7.26321">
        <ele>951</ele>
        <time>2018-07-28T08:43:53.000Z</time>
      </trkpt>
      <trkpt lat="43.98356" lon="7.26322">
        <ele>950</ele>
        <time>2018-07-28T08:43:56.000Z</time>
      </trkpt>
      <trkpt lat="43.98358" lon="7.26324">
        <ele>951</ele>
        <time>2018-07-28T08:43:57.000Z</time>
      </trkpt>
      <trkpt lat="43.98371" lon="7.26332">
        <ele>951</ele>
        <time>2018-07-28T08:44:02.000Z</time>
      </trkpt>
      <trkpt lat="43.98383" lon="7.26326">
        <ele>952</ele>
        <time>2018-07-28T08:44:06.000Z</time>
      </trkpt>
      <trkpt lat="43.98385" lon="7.26322">
        <ele>952</ele>
        <time>2018-07-28T08:44:07.000Z</time>
      </trkpt>
      <trkpt lat="43.98393" lon="7.26317">
        <ele>952</ele>
        <time>2018-07-28T08:44:10.000Z</time>
      </trkpt>
      <trkpt lat="43.98396" lon="7.26315">
        <ele>953</ele>
        <time>2018-07-28T08:44:11.000Z</time>
      </trkpt>
      <trkpt lat="43.98412" lon="7.26308">
        <ele>952</ele>
        <time>2018-07-28T08:44:16.000Z</time>
      </trkpt>
      <trkpt lat="43.98423" lon="7.26288">
        <ele>953</ele>
        <time>2018-07-28T08:44:21.000Z</time>
      </trkpt>
      <trkpt lat="43.98425" lon="7.26283">
        <ele>952</ele>
        <time>2018-07-28T08:44:22.000Z</time>
      </trkpt>
      <trkpt lat="43.98435" lon="7.26278">
        <ele>951</ele>
        <time>2018-07-28T08:44:25.000Z</time>
      </trkpt>
      <trkpt lat="43.98446" lon="7.26284">
        <ele>955</ele>
        <time>2018-07-28T08:44:29.000Z</time>
      </trkpt>
      <trkpt lat="43.98449" lon="7.26289">
        <ele>956</ele>
        <time>2018-07-28T08:44:31.000Z</time>
      </trkpt>
      <trkpt lat="43.98456" lon="7.26297">
        <ele>959</ele>
        <time>2018-07-28T08:44:35.000Z</time>
      </trkpt>
      <trkpt lat="43.98461" lon="7.263">
        <ele>960</ele>
        <time>2018-07-28T08:44:37.000Z</time>
      </trkpt>
      <trkpt lat="43.98468" lon="7.26305">
        <ele>962</ele>
        <time>2018-07-28T08:44:40.000Z</time>
      </trkpt>
      <trkpt lat="43.98474" lon="7.26305">
        <ele>963</ele>
        <time>2018-07-28T08:44:44.000Z</time>
      </trkpt>
      <trkpt lat="43.98473" lon="7.26304">
        <ele>963</ele>
        <time>2018-07-28T08:44:45.000Z</time>
      </trkpt>
      <trkpt lat="43.98478" lon="7.263">
        <ele>962</ele>
        <time>2018-07-28T08:44:50.000Z</time>
      </trkpt>
      <trkpt lat="43.98484" lon="7.26287">
        <ele>959</ele>
        <time>2018-07-28T08:44:57.000Z</time>
      </trkpt>
      <trkpt lat="43.98489" lon="7.26266">
        <ele>953</ele>
        <time>2018-07-28T08:45:04.000Z</time>
      </trkpt>
      <trkpt lat="43.98494" lon="7.2626">
        <ele>951</ele>
        <time>2018-07-28T08:45:07.000Z</time>
      </trkpt>
      <trkpt lat="43.98499" lon="7.26259">
        <ele>950</ele>
        <time>2018-07-28T08:45:09.000Z</time>
      </trkpt>
      <trkpt lat="43.98501" lon="7.26259">
        <ele>954</ele>
        <time>2018-07-28T08:45:10.000Z</time>
      </trkpt>
      <trkpt lat="43.98507" lon="7.26264">
        <ele>958</ele>
        <time>2018-07-28T08:45:14.000Z</time>
      </trkpt>
      <trkpt lat="43.98509" lon="7.26265">
        <ele>959</ele>
        <time>2018-07-28T08:45:15.000Z</time>
      </trkpt>
      <trkpt lat="43.98513" lon="7.26276">
        <ele>964</ele>
        <time>2018-07-28T08:45:20.000Z</time>
      </trkpt>
      <trkpt lat="43.98514" lon="7.26278">
        <ele>965</ele>
        <time>2018-07-28T08:45:21.000Z</time>
      </trkpt>
      <trkpt lat="43.98523" lon="7.26292">
        <ele>969</ele>
        <time>2018-07-28T08:45:28.000Z</time>
      </trkpt>
      <trkpt lat="43.98525" lon="7.26294">
        <ele>970</ele>
        <time>2018-07-28T08:45:29.000Z</time>
      </trkpt>
      <trkpt lat="43.98532" lon="7.26299">
        <ele>971</ele>
        <time>2018-07-28T08:45:33.000Z</time>
      </trkpt>
      <trkpt lat="43.98534" lon="7.263">
        <ele>971</ele>
        <time>2018-07-28T08:45:35.000Z</time>
      </trkpt>
      <trkpt lat="43.98537" lon="7.26301">
        <ele>971</ele>
        <time>2018-07-28T08:45:36.000Z</time>
      </trkpt>
      <trkpt lat="43.98538" lon="7.26301">
        <ele>971</ele>
        <time>2018-07-28T08:45:37.000Z</time>
      </trkpt>
      <trkpt lat="43.98548" lon="7.26304">
        <ele>972</ele>
        <time>2018-07-28T08:45:42.000Z</time>
      </trkpt>
      <trkpt lat="43.98553" lon="7.26305">
        <ele>973</ele>
        <time>2018-07-28T08:45:44.000Z</time>
      </trkpt>
      <trkpt lat="43.98561" lon="7.26305">
        <ele>973</ele>
        <time>2018-07-28T08:45:47.000Z</time>
      </trkpt>
      <trkpt lat="43.98571" lon="7.2631">
        <ele>975</ele>
        <time>2018-07-28T08:45:53.000Z</time>
      </trkpt>
      <trkpt lat="43.98574" lon="7.26312">
        <ele>975</ele>
        <time>2018-07-28T08:45:54.000Z</time>
      </trkpt>
      <trkpt lat="43.98578" lon="7.26315">
        <ele>976</ele>
        <time>2018-07-28T08:45:57.000Z</time>
      </trkpt>
      <trkpt lat="43.98585" lon="7.26316">
        <ele>987</ele>
        <time>2018-07-28T08:46:01.000Z</time>
      </trkpt>
      <trkpt lat="43.98587" lon="7.26316">
        <ele>987</ele>
        <time>2018-07-28T08:46:03.000Z</time>
      </trkpt>
      <trkpt lat="43.98596" lon="7.26319">
        <ele>988</ele>
        <time>2018-07-28T08:46:09.000Z</time>
      </trkpt>
      <trkpt lat="43.98604" lon="7.26322">
        <ele>990</ele>
        <time>2018-07-28T08:46:14.000Z</time>
      </trkpt>
      <trkpt lat="43.98607" lon="7.26321">
        <ele>991</ele>
        <time>2018-07-28T08:46:17.000Z</time>
      </trkpt>
      <trkpt lat="43.98611" lon="7.26317">
        <ele>991</ele>
        <time>2018-07-28T08:46:19.000Z</time>
      </trkpt>
      <trkpt lat="43.98614" lon="7.26311">
        <ele>992</ele>
        <time>2018-07-28T08:46:23.000Z</time>
      </trkpt>
      <trkpt lat="43.98615" lon="7.26308">
        <ele>992</ele>
        <time>2018-07-28T08:46:24.000Z</time>
      </trkpt>
      <trkpt lat="43.9861" lon="7.26292">
        <ele>991</ele>
        <time>2018-07-28T08:46:29.000Z</time>
      </trkpt>
      <trkpt lat="43.98597" lon="7.26272">
        <ele>984</ele>
        <time>2018-07-28T08:46:34.000Z</time>
      </trkpt>
      <trkpt lat="43.98595" lon="7.26268">
        <ele>982</ele>
        <time>2018-07-28T08:46:35.000Z</time>
      </trkpt>
      <trkpt lat="43.98584" lon="7.26242">
        <ele>972</ele>
        <time>2018-07-28T08:46:40.000Z</time>
      </trkpt>
      <trkpt lat="43.98587" lon="7.26227">
        <ele>978</ele>
        <time>2018-07-28T08:46:43.000Z</time>
      </trkpt>
      <trkpt lat="43.98591" lon="7.262">
        <ele>980</ele>
        <time>2018-07-28T08:46:49.000Z</time>
      </trkpt>
      <trkpt lat="43.98591" lon="7.26196">
        <ele>979</ele>
        <time>2018-07-28T08:46:50.000Z</time>
      </trkpt>
      <trkpt lat="43.9859" lon="7.26187">
        <ele>976</ele>
        <time>2018-07-28T08:46:53.000Z</time>
      </trkpt>
      <trkpt lat="43.98589" lon="7.2618">
        <ele>973</ele>
        <time>2018-07-28T08:46:55.000Z</time>
      </trkpt>
      <trkpt lat="43.98588" lon="7.26174">
        <ele>969</ele>
        <time>2018-07-28T08:46:57.000Z</time>
      </trkpt>
      <trkpt lat="43.98586" lon="7.26168">
        <ele>964</ele>
        <time>2018-07-28T08:47:00.000Z</time>
      </trkpt>
      <trkpt lat="43.98583" lon="7.26157">
        <ele>953</ele>
        <time>2018-07-28T08:47:04.000Z</time>
      </trkpt>
      <trkpt lat="43.98582" lon="7.26155">
        <ele>952</ele>
        <time>2018-07-28T08:47:05.000Z</time>
      </trkpt>
      <trkpt lat="43.98581" lon="7.26152">
        <ele>950</ele>
        <time>2018-07-28T08:47:06.000Z</time>
      </trkpt>
      <trkpt lat="43.98577" lon="7.26138">
        <ele>944</ele>
        <time>2018-07-28T08:47:11.000Z</time>
      </trkpt>
      <trkpt lat="43.98579" lon="7.26135">
        <ele>944</ele>
        <time>2018-07-28T08:47:12.000Z</time>
      </trkpt>
      <trkpt lat="43.98586" lon="7.26132">
        <ele>970</ele>
        <time>2018-07-28T08:47:15.000Z</time>
      </trkpt>
      <trkpt lat="43.98589" lon="7.26131">
        <ele>970</ele>
        <time>2018-07-28T08:47:16.000Z</time>
      </trkpt>
      <trkpt lat="43.98612" lon="7.26119">
        <ele>974</ele>
        <time>2018-07-28T08:47:24.000Z</time>
      </trkpt>
      <trkpt lat="43.98631" lon="7.26116">
        <ele>980</ele>
        <time>2018-07-28T08:47:30.000Z</time>
      </trkpt>
      <trkpt lat="43.98638" lon="7.26115">
        <ele>982</ele>
        <time>2018-07-28T08:47:33.000Z</time>
      </trkpt>
      <trkpt lat="43.98639" lon="7.26112">
        <ele>982</ele>
        <time>2018-07-28T08:47:34.000Z</time>
      </trkpt>
      <trkpt lat="43.9864" lon="7.26098">
        <ele>982</ele>
        <time>2018-07-28T08:47:37.000Z</time>
      </trkpt>
      <trkpt lat="43.98648" lon="7.26081">
        <ele>974</ele>
        <time>2018-07-28T08:47:42.000Z</time>
      </trkpt>
      <trkpt lat="43.98649" lon="7.26078">
        <ele>974</ele>
        <time>2018-07-28T08:47:46.000Z</time>
      </trkpt>
      <trkpt lat="43.98658" lon="7.26068">
        <ele>975</ele>
        <time>2018-07-28T08:47:50.000Z</time>
      </trkpt>
      <trkpt lat="43.98663" lon="7.26057">
        <ele>970</ele>
        <time>2018-07-28T08:47:53.000Z</time>
      </trkpt>
      <trkpt lat="43.98666" lon="7.26052">
        <ele>967</ele>
        <time>2018-07-28T08:47:55.000Z</time>
      </trkpt>
      <trkpt lat="43.98671" lon="7.26027">
        <ele>982</ele>
        <time>2018-07-28T08:48:01.000Z</time>
      </trkpt>
      <trkpt lat="43.98679" lon="7.25999">
        <ele>962</ele>
        <time>2018-07-28T08:48:07.000Z</time>
      </trkpt>
      <trkpt lat="43.98689" lon="7.25983">
        <ele>962</ele>
        <time>2018-07-28T08:48:11.000Z</time>
      </trkpt>
      <trkpt lat="43.98694" lon="7.25978">
        <ele>962</ele>
        <time>2018-07-28T08:48:13.000Z</time>
      </trkpt>
      <trkpt lat="43.987" lon="7.2597">
        <ele>961</ele>
        <time>2018-07-28T08:48:17.000Z</time>
      </trkpt>
      <trkpt lat="43.98703" lon="7.25966">
        <ele>961</ele>
        <time>2018-07-28T08:48:19.000Z</time>
      </trkpt>
      <trkpt lat="43.98707" lon="7.25963">
        <ele>961</ele>
        <time>2018-07-28T08:48:21.000Z</time>
      </trkpt>
      <trkpt lat="43.98709" lon="7.25963">
        <ele>961</ele>
        <time>2018-07-28T08:48:22.000Z</time>
      </trkpt>
      <trkpt lat="43.98712" lon="7.25965">
        <ele>962</ele>
        <time>2018-07-28T08:48:24.000Z</time>
      </trkpt>
      <trkpt lat="43.98714" lon="7.25967">
        <ele>963</ele>
        <time>2018-07-28T08:48:25.000Z</time>
      </trkpt>
      <trkpt lat="43.98716" lon="7.25968">
        <ele>963</ele>
        <time>2018-07-28T08:48:26.000Z</time>
      </trkpt>
      <trkpt lat="43.98721" lon="7.25974">
        <ele>965</ele>
        <time>2018-07-28T08:48:30.000Z</time>
      </trkpt>
      <trkpt lat="43.98723" lon="7.25975">
        <ele>966</ele>
        <time>2018-07-28T08:48:31.000Z</time>
      </trkpt>
      <trkpt lat="43.98729" lon="7.2598">
        <ele>968</ele>
        <time>2018-07-28T08:48:35.000Z</time>
      </trkpt>
      <trkpt lat="43.98734" lon="7.25986">
        <ele>971</ele>
        <time>2018-07-28T08:48:40.000Z</time>
      </trkpt>
      <trkpt lat="43.98735" lon="7.25987">
        <ele>972</ele>
        <time>2018-07-28T08:48:41.000Z</time>
      </trkpt>
      <trkpt lat="43.9874" lon="7.25992">
        <ele>975</ele>
        <time>2018-07-28T08:48:45.000Z</time>
      </trkpt>
      <trkpt lat="43.98741" lon="7.25993">
        <ele>976</ele>
        <time>2018-07-28T08:48:46.000Z</time>
      </trkpt>
      <trkpt lat="43.98748" lon="7.25999">
        <ele>983</ele>
        <time>2018-07-28T08:48:51.000Z</time>
      </trkpt>
      <trkpt lat="43.9875" lon="7.26">
        <ele>985</ele>
        <time>2018-07-28T08:48:52.000Z</time>
      </trkpt>
      <trkpt lat="43.98752" lon="7.26001">
        <ele>986</ele>
        <time>2018-07-28T08:48:53.000Z</time>
      </trkpt>
      <trkpt lat="43.98756" lon="7.26004">
        <ele>988</ele>
        <time>2018-07-28T08:48:56.000Z</time>
      </trkpt>
      <trkpt lat="43.98757" lon="7.26005">
        <ele>989</ele>
        <time>2018-07-28T08:48:57.000Z</time>
      </trkpt>
      <trkpt lat="43.98759" lon="7.26006">
        <ele>989</ele>
        <time>2018-07-28T08:48:58.000Z</time>
      </trkpt>
      <trkpt lat="43.98764" lon="7.26009">
        <ele>991</ele>
        <time>2018-07-28T08:49:02.000Z</time>
      </trkpt>
      <trkpt lat="43.98766" lon="7.26011">
        <ele>991</ele>
        <time>2018-07-28T08:49:03.000Z</time>
      </trkpt>
      <trkpt lat="43.98775" lon="7.26017">
        <ele>993</ele>
        <time>2018-07-28T08:49:09.000Z</time>
      </trkpt>
      <trkpt lat="43.98776" lon="7.26018">
        <ele>993</ele>
        <time>2018-07-28T08:49:10.000Z</time>
      </trkpt>
      <trkpt lat="43.98785" lon="7.26023">
        <ele>993</ele>
        <time>2018-07-28T08:49:15.000Z</time>
      </trkpt>
      <trkpt lat="43.98788" lon="7.26026">
        <ele>994</ele>
        <time>2018-07-28T08:49:17.000Z</time>
      </trkpt>
      <trkpt lat="43.9879" lon="7.2603">
        <ele>994</ele>
        <time>2018-07-28T08:49:21.000Z</time>
      </trkpt>
      <trkpt lat="43.98792" lon="7.26031">
        <ele>994</ele>
        <time>2018-07-28T08:49:23.000Z</time>
      </trkpt>
      <trkpt lat="43.98797" lon="7.26035">
        <ele>995</ele>
        <time>2018-07-28T08:49:27.000Z</time>
      </trkpt>
      <trkpt lat="43.988" lon="7.26037">
        <ele>995</ele>
        <time>2018-07-28T08:49:30.000Z</time>
      </trkpt>
      <trkpt lat="43.98804" lon="7.26041">
        <ele>995</ele>
        <time>2018-07-28T08:49:34.000Z</time>
      </trkpt>
      <trkpt lat="43.98806" lon="7.26041">
        <ele>995</ele>
        <time>2018-07-28T08:49:35.000Z</time>
      </trkpt>
      <trkpt lat="43.98807" lon="7.26042">
        <ele>995</ele>
        <time>2018-07-28T08:49:36.000Z</time>
      </trkpt>
      <trkpt lat="43.98812" lon="7.26045">
        <ele>995</ele>
        <time>2018-07-28T08:49:40.000Z</time>
      </trkpt>
      <trkpt lat="43.98815" lon="7.26047">
        <ele>995</ele>
        <time>2018-07-28T08:49:42.000Z</time>
      </trkpt>
      <trkpt lat="43.9882" lon="7.26057">
        <ele>997</ele>
        <time>2018-07-28T08:49:47.000Z</time>
      </trkpt>
      <trkpt lat="43.98821" lon="7.26061">
        <ele>998</ele>
        <time>2018-07-28T08:49:49.000Z</time>
      </trkpt>
      <trkpt lat="43.98822" lon="7.26061">
        <ele>998</ele>
        <time>2018-07-28T08:49:51.000Z</time>
      </trkpt>
      <trkpt lat="43.98823" lon="7.26062">
        <ele>998</ele>
        <time>2018-07-28T08:49:54.000Z</time>
      </trkpt>
      <trkpt lat="43.98824" lon="7.26062">
        <ele>998</ele>
        <time>2018-07-28T08:49:56.000Z</time>
      </trkpt>
      <trkpt lat="43.98826" lon="7.26066">
        <ele>999</ele>
        <time>2018-07-28T08:50:02.000Z</time>
      </trkpt>
      <trkpt lat="43.98828" lon="7.26069">
        <ele>999</ele>
        <time>2018-07-28T08:50:05.000Z</time>
      </trkpt>
      <trkpt lat="43.98833" lon="7.2607">
        <ele>999</ele>
        <time>2018-07-28T08:50:08.000Z</time>
      </trkpt>
      <trkpt lat="43.98841" lon="7.26072">
        <ele>995</ele>
        <time>2018-07-28T08:50:14.000Z</time>
      </trkpt>
      <trkpt lat="43.98846" lon="7.26073">
        <ele>994</ele>
        <time>2018-07-28T08:50:17.000Z</time>
      </trkpt>
      <trkpt lat="43.98853" lon="7.2608">
        <ele>993</ele>
        <time>2018-07-28T08:50:22.000Z</time>
      </trkpt>
      <trkpt lat="43.98864" lon="7.26082">
        <ele>991</ele>
        <time>2018-07-28T08:50:27.000Z</time>
      </trkpt>
      <trkpt lat="43.98868" lon="7.26083">
        <ele>991</ele>
        <time>2018-07-28T08:50:29.000Z</time>
      </trkpt>
      <trkpt lat="43.98873" lon="7.26085">
        <ele>1020</ele>
        <time>2018-07-28T08:50:32.000Z</time>
      </trkpt>
      <trkpt lat="43.98879" lon="7.26089">
        <ele>1020</ele>
        <time>2018-07-28T08:50:36.000Z</time>
      </trkpt>
      <trkpt lat="43.98883" lon="7.2609">
        <ele>1020</ele>
        <time>2018-07-28T08:50:39.000Z</time>
      </trkpt>
      <trkpt lat="43.98888" lon="7.26089">
        <ele>1018</ele>
        <time>2018-07-28T08:50:42.000Z</time>
      </trkpt>
      <trkpt lat="43.98896" lon="7.26088">
        <ele>1015</ele>
        <time>2018-07-28T08:50:46.000Z</time>
      </trkpt>
      <trkpt lat="43.98899" lon="7.26089">
        <ele>1013</ele>
        <time>2018-07-28T08:50:48.000Z</time>
      </trkpt>
      <trkpt lat="43.98905" lon="7.2609">
        <ele>1010</ele>
        <time>2018-07-28T08:50:51.000Z</time>
      </trkpt>
      <trkpt lat="43.9891" lon="7.26093">
        <ele>1009</ele>
        <time>2018-07-28T08:50:54.000Z</time>
      </trkpt>
      <trkpt lat="43.98912" lon="7.26095">
        <ele>1009</ele>
        <time>2018-07-28T08:50:56.000Z</time>
      </trkpt>
      <trkpt lat="43.98914" lon="7.26095">
        <ele>1009</ele>
        <time>2018-07-28T08:50:57.000Z</time>
      </trkpt>
      <trkpt lat="43.98923" lon="7.26093">
        <ele>1010</ele>
        <time>2018-07-28T08:51:02.000Z</time>
      </trkpt>
      <trkpt lat="43.98931" lon="7.26087">
        <ele>1012</ele>
        <time>2018-07-28T08:51:07.000Z</time>
      </trkpt>
      <trkpt lat="43.98933" lon="7.26085">
        <ele>1014</ele>
        <time>2018-07-28T08:51:09.000Z</time>
      </trkpt>
      <trkpt lat="43.98938" lon="7.26084">
        <ele>1017</ele>
        <time>2018-07-28T08:51:13.000Z</time>
      </trkpt>
      <trkpt lat="43.98943" lon="7.26082">
        <ele>999</ele>
        <time>2018-07-28T08:51:17.000Z</time>
      </trkpt>
      <trkpt lat="43.98944" lon="7.26082">
        <ele>999</ele>
        <time>2018-07-28T08:51:18.000Z</time>
      </trkpt>
      <trkpt lat="43.98945" lon="7.26081">
        <ele>999</ele>
        <time>2018-07-28T08:51:19.000Z</time>
      </trkpt>
      <trkpt lat="43.9895" lon="7.2608">
        <ele>1000</ele>
        <time>2018-07-28T08:51:23.000Z</time>
      </trkpt>
      <trkpt lat="43.98953" lon="7.26079">
        <ele>1001</ele>
        <time>2018-07-28T08:51:25.000Z</time>
      </trkpt>
      <trkpt lat="43.98961" lon="7.2608">
        <ele>1002</ele>
        <time>2018-07-28T08:51:31.000Z</time>
      </trkpt>
      <trkpt lat="43.98964" lon="7.26081">
        <ele>1003</ele>
        <time>2018-07-28T08:51:33.000Z</time>
      </trkpt>
      <trkpt lat="43.9897" lon="7.26087">
        <ele>1026</ele>
        <time>2018-07-28T08:51:38.000Z</time>
      </trkpt>
      <trkpt lat="43.9897" lon="7.26088">
        <ele>1026</ele>
        <time>2018-07-28T08:51:39.000Z</time>
      </trkpt>
      <trkpt lat="43.98972" lon="7.26092">
        <ele>1027</ele>
        <time>2018-07-28T08:51:41.000Z</time>
      </trkpt>
      <trkpt lat="43.98972" lon="7.26093">
        <ele>1027</ele>
        <time>2018-07-28T08:51:42.000Z</time>
      </trkpt>
      <trkpt lat="43.98978" lon="7.26098">
        <ele>1028</ele>
        <time>2018-07-28T08:51:47.000Z</time>
      </trkpt>
      <trkpt lat="43.98983" lon="7.26097">
        <ele>1027</ele>
        <time>2018-07-28T08:51:50.000Z</time>
      </trkpt>
      <trkpt lat="43.98985" lon="7.26095">
        <ele>1027</ele>
        <time>2018-07-28T08:51:51.000Z</time>
      </trkpt>
      <trkpt lat="43.98989" lon="7.26091">
        <ele>1025</ele>
        <time>2018-07-28T08:51:53.000Z</time>
      </trkpt>
      <trkpt lat="43.98991" lon="7.26089">
        <ele>1024</ele>
        <time>2018-07-28T08:51:54.000Z</time>
      </trkpt>
      <trkpt lat="43.98993" lon="7.26087">
        <ele>1023</ele>
        <time>2018-07-28T08:51:55.000Z</time>
      </trkpt>
      <trkpt lat="43.99003" lon="7.26084">
        <ele>1025</ele>
        <time>2018-07-28T08:51:59.000Z</time>
      </trkpt>
      <trkpt lat="43.99016" lon="7.26088">
        <ele>1038</ele>
        <time>2018-07-28T08:52:05.000Z</time>
      </trkpt>
      <trkpt lat="43.99027" lon="7.26095">
        <ele>1046</ele>
        <time>2018-07-28T08:52:11.000Z</time>
      </trkpt>
      <trkpt lat="43.99034" lon="7.26089">
        <ele>1048</ele>
        <time>2018-07-28T08:52:16.000Z</time>
      </trkpt>
      <trkpt lat="43.99035" lon="7.26083">
        <ele>1036</ele>
        <time>2018-07-28T08:52:18.000Z</time>
      </trkpt>
      <trkpt lat="43.99034" lon="7.26077">
        <ele>1035</ele>
        <time>2018-07-28T08:52:20.000Z</time>
      </trkpt>
      <trkpt lat="43.99034" lon="7.26061">
        <ele>1035</ele>
        <time>2018-07-28T08:52:24.000Z</time>
      </trkpt>
      <trkpt lat="43.99032" lon="7.26049">
        <ele>1035</ele>
        <time>2018-07-28T08:52:28.000Z</time>
      </trkpt>
      <trkpt lat="43.99028" lon="7.26033">
        <ele>1032</ele>
        <time>2018-07-28T08:52:33.000Z</time>
      </trkpt>
      <trkpt lat="43.99026" lon="7.26027">
        <ele>1031</ele>
        <time>2018-07-28T08:52:35.000Z</time>
      </trkpt>
      <trkpt lat="43.99021" lon="7.26013">
        <ele>1026</ele>
        <time>2018-07-28T08:52:39.000Z</time>
      </trkpt>
      <trkpt lat="43.9902" lon="7.26009">
        <ele>1025</ele>
        <time>2018-07-28T08:52:41.000Z</time>
      </trkpt>
      <trkpt lat="43.9902" lon="7.26001">
        <ele>1023</ele>
        <time>2018-07-28T08:52:47.000Z</time>
      </trkpt>
      <trkpt lat="43.99021" lon="7.26001">
        <ele>1024</ele>
        <time>2018-07-28T08:52:54.000Z</time>
      </trkpt>
      <trkpt lat="43.9902" lon="7.26">
        <ele>1021</ele>
        <time>2018-07-28T08:52:58.000Z</time>
      </trkpt>
      <trkpt lat="43.9902" lon="7.25997">
        <ele>1021</ele>
        <time>2018-07-28T08:53:03.000Z</time>
      </trkpt>
      <trkpt lat="43.99019" lon="7.25994">
        <ele>1021</ele>
        <time>2018-07-28T08:53:09.000Z</time>
      </trkpt>
      <trkpt lat="43.9902" lon="7.25994">
        <ele>1022</ele>
        <time>2018-07-28T08:53:31.000Z</time>
      </trkpt>
      <trkpt lat="43.99021" lon="7.25997">
        <ele>1022</ele>
        <time>2018-07-28T08:53:38.000Z</time>
      </trkpt>
      <trkpt lat="43.99021" lon="7.25998">
        <ele>1022</ele>
        <time>2018-07-28T08:53:46.000Z</time>
      </trkpt>
      <trkpt lat="43.99021" lon="7.25998">
        <ele>1022</ele>
        <time>2018-07-28T08:53:52.000Z</time>
      </trkpt>
      <trkpt lat="43.99021" lon="7.26001">
        <ele>1024</ele>
        <time>2018-07-28T08:53:57.000Z</time>
      </trkpt>
      <trkpt lat="43.99022" lon="7.26002">
        <ele>1024</ele>
        <time>2018-07-28T08:54:08.000Z</time>
      </trkpt>
      <trkpt lat="43.99022" lon="7.26002">
        <ele>1024</ele>
        <time>2018-07-28T08:54:18.000Z</time>
      </trkpt>
      <trkpt lat="43.99021" lon="7.26002">
        <ele>1024</ele>
        <time>2018-07-28T08:54:31.000Z</time>
      </trkpt>
      <trkpt lat="43.99021" lon="7.26002">
        <ele>1024</ele>
        <time>2018-07-28T08:54:40.000Z</time>
      </trkpt>
      <trkpt lat="43.9902" lon="7.26002">
        <ele>1023</ele>
        <time>2018-07-28T08:54:47.000Z</time>
      </trkpt>
      <trkpt lat="43.99021" lon="7.26003">
        <ele>1024</ele>
        <time>2018-07-28T08:54:53.000Z</time>
      </trkpt>
      <trkpt lat="43.99022" lon="7.26004">
        <ele>1025</ele>
        <time>2018-07-28T08:54:56.000Z</time>
      </trkpt>
      <trkpt lat="43.99022" lon="7.26004">
        <ele>1025</ele>
        <time>2018-07-28T08:54:58.000Z</time>
      </trkpt>
      <trkpt lat="43.99021" lon="7.26003">
        <ele>1024</ele>
        <time>2018-07-28T08:55:06.000Z</time>
      </trkpt>
      <trkpt lat="43.99021" lon="7.26003">
        <ele>1024</ele>
        <time>2018-07-28T08:55:18.000Z</time>
      </trkpt>
      <trkpt lat="43.99021" lon="7.26003">
        <ele>1024</ele>
        <time>2018-07-28T08:55:23.000Z</time>
      </trkpt>
      <trkpt lat="43.99021" lon="7.26003">
        <ele>1024</ele>
        <time>2018-07-28T08:55:33.000Z</time>
      </trkpt>
      <trkpt lat="43.99021" lon="7.26004">
        <ele>1024</ele>
        <time>2018-07-28T08:55:43.000Z</time>
      </trkpt>
      <trkpt lat="43.99021" lon="7.26004">
        <ele>1024</ele>
        <time>2018-07-28T08:55:52.000Z</time>
      </trkpt>
      <trkpt lat="43.99021" lon="7.26004">
        <ele>1024</ele>
        <time>2018-07-28T08:55:59.000Z</time>
      </trkpt>
      <trkpt lat="43.99021" lon="7.26003">
        <ele>1024</ele>
        <time>2018-07-28T08:56:05.000Z</time>
      </trkpt>
      <trkpt lat="43.99022" lon="7.26004">
        <ele>1025</ele>
        <time>2018-07-28T08:56:18.000Z</time>
      </trkpt>
      <trkpt lat="43.99023" lon="7.26006">
        <ele>1026</ele>
        <time>2018-07-28T08:56:32.000Z</time>
      </trkpt>
      <trkpt lat="43.99023" lon="7.26006">
        <ele>1026</ele>
        <time>2018-07-28T08:56:43.000Z</time>
      </trkpt>
      <trkpt lat="43.99022" lon="7.26006">
        <ele>1025</ele>
        <time>2018-07-28T08:56:50.000Z</time>
      </trkpt>
      <trkpt lat="43.99023" lon="7.26007">
        <ele>1025</ele>
        <time>2018-07-28T08:56:55.000Z</time>
      </trkpt>
      <trkpt lat="43.99022" lon="7.26006">
        <ele>1025</ele>
        <time>2018-07-28T08:57:04.000Z</time>
      </trkpt>
      <trkpt lat="43.99022" lon="7.26006">
        <ele>1025</ele>
        <time>2018-07-28T08:57:12.000Z</time>
      </trkpt>
      <trkpt lat="43.99023" lon="7.26005">
        <ele>1025</ele>
        <time>2018-07-28T08:57:14.000Z</time>
      </trkpt>
      <trkpt lat="43.99023" lon="7.26005">
        <ele>1026</ele>
        <time>2018-07-28T08:57:18.000Z</time>
      </trkpt>
      <trkpt lat="43.99022" lon="7.26005">
        <ele>1025</ele>
        <time>2018-07-28T08:57:19.000Z</time>
      </trkpt>
      <trkpt lat="43.99023" lon="7.26005">
        <ele>1025</ele>
        <time>2018-07-28T08:57:22.000Z</time>
      </trkpt>
      <trkpt lat="43.99022" lon="7.26004">
        <ele>1025</ele>
        <time>2018-07-28T08:57:29.000Z</time>
      </trkpt>
      <trkpt lat="43.99023" lon="7.26004">
        <ele>1025</ele>
        <time>2018-07-28T08:57:34.000Z</time>
      </trkpt>
      <trkpt lat="43.99023" lon="7.26004">
        <ele>1025</ele>
        <time>2018-07-28T08:57:40.000Z</time>
      </trkpt>
      <trkpt lat="43.99023" lon="7.26003">
        <ele>1025</ele>
        <time>2018-07-28T08:57:48.000Z</time>
      </trkpt>
      <trkpt lat="43.99023" lon="7.26002">
        <ele>1025</ele>
        <time>2018-07-28T08:57:54.000Z</time>
      </trkpt>
      <trkpt lat="43.99022" lon="7.26">
        <ele>1023</ele>
        <time>2018-07-28T08:57:59.000Z</time>
      </trkpt>
      <trkpt lat="43.99022" lon="7.25996">
        <ele>1023</ele>
        <time>2018-07-28T08:58:01.000Z</time>
      </trkpt>
      <trkpt lat="43.99024" lon="7.25983">
        <ele>1026</ele>
        <time>2018-07-28T08:58:07.000Z</time>
      </trkpt>
      <trkpt lat="43.99028" lon="7.25972">
        <ele>1028</ele>
        <time>2018-07-28T08:58:11.000Z</time>
      </trkpt>
      <trkpt lat="43.99031" lon="7.25961">
        <ele>1030</ele>
        <time>2018-07-28T08:58:15.000Z</time>
      </trkpt>
      <trkpt lat="43.99034" lon="7.25944">
        <ele>1030</ele>
        <time>2018-07-28T08:58:21.000Z</time>
      </trkpt>
      <trkpt lat="43.99035" lon="7.25942">
        <ele>1031</ele>
        <time>2018-07-28T08:58:22.000Z</time>
      </trkpt>
      <trkpt lat="43.99037" lon="7.25933">
        <ele>1031</ele>
        <time>2018-07-28T08:58:26.000Z</time>
      </trkpt>
      <trkpt lat="43.9904" lon="7.25928">
        <ele>1032</ele>
        <time>2018-07-28T08:58:29.000Z</time>
      </trkpt>
      <trkpt lat="43.99041" lon="7.25916">
        <ele>1033</ele>
        <time>2018-07-28T08:58:35.000Z</time>
      </trkpt>
      <trkpt lat="43.99041" lon="7.25912">
        <ele>1033</ele>
        <time>2018-07-28T08:58:37.000Z</time>
      </trkpt>
      <trkpt lat="43.99041" lon="7.25908">
        <ele>1033</ele>
        <time>2018-07-28T08:58:39.000Z</time>
      </trkpt>
      <trkpt lat="43.99039" lon="7.25898">
        <ele>1033</ele>
        <time>2018-07-28T08:58:44.000Z</time>
      </trkpt>
      <trkpt lat="43.99038" lon="7.25894">
        <ele>1033</ele>
        <time>2018-07-28T08:58:46.000Z</time>
      </trkpt>
      <trkpt lat="43.99036" lon="7.25886">
        <ele>1032</ele>
        <time>2018-07-28T08:58:51.000Z</time>
      </trkpt>
      <trkpt lat="43.99036" lon="7.25884">
        <ele>1032</ele>
        <time>2018-07-28T08:58:52.000Z</time>
      </trkpt>
      <trkpt lat="43.99035" lon="7.25874">
        <ele>1032</ele>
        <time>2018-07-28T08:58:57.000Z</time>
      </trkpt>
      <trkpt lat="43.99034" lon="7.25868">
        <ele>1032</ele>
        <time>2018-07-28T08:59:00.000Z</time>
      </trkpt>
      <trkpt lat="43.99035" lon="7.25862">
        <ele>1032</ele>
        <time>2018-07-28T08:59:03.000Z</time>
      </trkpt>
      <trkpt lat="43.99036" lon="7.25854">
        <ele>1032</ele>
        <time>2018-07-28T08:59:07.000Z</time>
      </trkpt>
      <trkpt lat="43.99037" lon="7.25853">
        <ele>1033</ele>
        <time>2018-07-28T08:59:08.000Z</time>
      </trkpt>
      <trkpt lat="43.9904" lon="7.25844">
        <ele>1034</ele>
        <time>2018-07-28T08:59:13.000Z</time>
      </trkpt>
      <trkpt lat="43.99041" lon="7.2584">
        <ele>1034</ele>
        <time>2018-07-28T08:59:15.000Z</time>
      </trkpt>
      <trkpt lat="43.99043" lon="7.2583">
        <ele>1038</ele>
        <time>2018-07-28T08:59:20.000Z</time>
      </trkpt>
      <trkpt lat="43.99043" lon="7.25824">
        <ele>1038</ele>
        <time>2018-07-28T08:59:23.000Z</time>
      </trkpt>
      <trkpt lat="43.99042" lon="7.25815">
        <ele>1037</ele>
        <time>2018-07-28T08:59:28.000Z</time>
      </trkpt>
      <trkpt lat="43.9904" lon="7.2581">
        <ele>1037</ele>
        <time>2018-07-28T08:59:31.000Z</time>
      </trkpt>
      <trkpt lat="43.99039" lon="7.25803">
        <ele>1036</ele>
        <time>2018-07-28T08:59:35.000Z</time>
      </trkpt>
      <trkpt lat="43.99037" lon="7.25794">
        <ele>1036</ele>
        <time>2018-07-28T08:59:41.000Z</time>
      </trkpt>
      <trkpt lat="43.99037" lon="7.25787">
        <ele>1036</ele>
        <time>2018-07-28T08:59:45.000Z</time>
      </trkpt>
      <trkpt lat="43.99037" lon="7.25782">
        <ele>1037</ele>
        <time>2018-07-28T08:59:48.000Z</time>
      </trkpt>
      <trkpt lat="43.99037" lon="7.25777">
        <ele>1037</ele>
        <time>2018-07-28T08:59:51.000Z</time>
      </trkpt>
      <trkpt lat="43.99037" lon="7.25768">
        <ele>1037</ele>
        <time>2018-07-28T08:59:56.000Z</time>
      </trkpt>
      <trkpt lat="43.99037" lon="7.25766">
        <ele>1037</ele>
        <time>2018-07-28T08:59:57.000Z</time>
      </trkpt>
      <trkpt lat="43.99038" lon="7.25756">
        <ele>1037</ele>
        <time>2018-07-28T09:00:03.000Z</time>
      </trkpt>
      <trkpt lat="43.99038" lon="7.25753">
        <ele>1037</ele>
        <time>2018-07-28T09:00:05.000Z</time>
      </trkpt>
      <trkpt lat="43.99039" lon="7.25743">
        <ele>1036</ele>
        <time>2018-07-28T09:00:10.000Z</time>
      </trkpt>
      <trkpt lat="43.99038" lon="7.25732">
        <ele>1035</ele>
        <time>2018-07-28T09:00:16.000Z</time>
      </trkpt>
      <trkpt lat="43.99038" lon="7.2573">
        <ele>1035</ele>
        <time>2018-07-28T09:00:17.000Z</time>
      </trkpt>
      <trkpt lat="43.99039" lon="7.25715">
        <ele>1035</ele>
        <time>2018-07-28T09:00:25.000Z</time>
      </trkpt>
      <trkpt lat="43.9904" lon="7.25707">
        <ele>1035</ele>
        <time>2018-07-28T09:00:30.000Z</time>
      </trkpt>
      <trkpt lat="43.9904" lon="7.25705">
        <ele>1035</ele>
        <time>2018-07-28T09:00:31.000Z</time>
      </trkpt>
      <trkpt lat="43.99042" lon="7.25698">
        <ele>1035</ele>
        <time>2018-07-28T09:00:36.000Z</time>
      </trkpt>
      <trkpt lat="43.99045" lon="7.25688">
        <ele>1035</ele>
        <time>2018-07-28T09:00:41.000Z</time>
      </trkpt>
      <trkpt lat="43.99048" lon="7.25683">
        <ele>1036</ele>
        <time>2018-07-28T09:00:44.000Z</time>
      </trkpt>
      <trkpt lat="43.99054" lon="7.25677">
        <ele>1037</ele>
        <time>2018-07-28T09:00:49.000Z</time>
      </trkpt>
      <trkpt lat="43.99057" lon="7.25675">
        <ele>1038</ele>
        <time>2018-07-28T09:00:52.000Z</time>
      </trkpt>
      <trkpt lat="43.99063" lon="7.25671">
        <ele>1039</ele>
        <time>2018-07-28T09:00:56.000Z</time>
      </trkpt>
      <trkpt lat="43.99064" lon="7.2567">
        <ele>1039</ele>
        <time>2018-07-28T09:00:57.000Z</time>
      </trkpt>
      <trkpt lat="43.99073" lon="7.25666">
        <ele>1039</ele>
        <time>2018-07-28T09:01:02.000Z</time>
      </trkpt>
      <trkpt lat="43.99079" lon="7.25665">
        <ele>1042</ele>
        <time>2018-07-28T09:01:06.000Z</time>
      </trkpt>
      <trkpt lat="43.99086" lon="7.25666">
        <ele>1044</ele>
        <time>2018-07-28T09:01:10.000Z</time>
      </trkpt>
      <trkpt lat="43.99093" lon="7.25671">
        <ele>1051</ele>
        <time>2018-07-28T09:01:14.000Z</time>
      </trkpt>
      <trkpt lat="43.99097" lon="7.25674">
        <ele>1053</ele>
        <time>2018-07-28T09:01:17.000Z</time>
      </trkpt>
      <trkpt lat="43.99106" lon="7.25676">
        <ele>1057</ele>
        <time>2018-07-28T09:01:22.000Z</time>
      </trkpt>
      <trkpt lat="43.99109" lon="7.25679">
        <ele>1058</ele>
        <time>2018-07-28T09:01:24.000Z</time>
      </trkpt>
      <trkpt lat="43.9912" lon="7.25684">
        <ele>1061</ele>
        <time>2018-07-28T09:01:30.000Z</time>
      </trkpt>
      <trkpt lat="43.99131" lon="7.25682">
        <ele>1062</ele>
        <time>2018-07-28T09:01:36.000Z</time>
      </trkpt>
      <trkpt lat="43.99133" lon="7.25682">
        <ele>1063</ele>
        <time>2018-07-28T09:01:37.000Z</time>
      </trkpt>
      <trkpt lat="43.99145" lon="7.25681">
        <ele>1064</ele>
        <time>2018-07-28T09:01:44.000Z</time>
      </trkpt>
      <trkpt lat="43.99149" lon="7.25679">
        <ele>1064</ele>
        <time>2018-07-28T09:01:46.000Z</time>
      </trkpt>
      <trkpt lat="43.99152" lon="7.25678">
        <ele>1063</ele>
        <time>2018-07-28T09:01:48.000Z</time>
      </trkpt>
      <trkpt lat="43.99156" lon="7.25679">
        <ele>1063</ele>
        <time>2018-07-28T09:01:50.000Z</time>
      </trkpt>
      <trkpt lat="43.99161" lon="7.2568">
        <ele>1064</ele>
        <time>2018-07-28T09:01:53.000Z</time>
      </trkpt>
      <trkpt lat="43.99165" lon="7.25679">
        <ele>1063</ele>
        <time>2018-07-28T09:01:55.000Z</time>
      </trkpt>
      <trkpt lat="43.9917" lon="7.25677">
        <ele>1071</ele>
        <time>2018-07-28T09:01:57.000Z</time>
      </trkpt>
      <trkpt lat="43.99179" lon="7.25669">
        <ele>1073</ele>
        <time>2018-07-28T09:02:01.000Z</time>
      </trkpt>
      <trkpt lat="43.99183" lon="7.25666">
        <ele>1062</ele>
        <time>2018-07-28T09:02:03.000Z</time>
      </trkpt>
      <trkpt lat="43.99191" lon="7.25662">
        <ele>1062</ele>
        <time>2018-07-28T09:02:06.000Z</time>
      </trkpt>
      <trkpt lat="43.992" lon="7.25657">
        <ele>1063</ele>
        <time>2018-07-28T09:02:09.000Z</time>
      </trkpt>
      <trkpt lat="43.99222" lon="7.25643">
        <ele>1065</ele>
        <time>2018-07-28T09:02:16.000Z</time>
      </trkpt>
      <trkpt lat="43.99232" lon="7.25641">
        <ele>1066</ele>
        <time>2018-07-28T09:02:21.000Z</time>
      </trkpt>
      <trkpt lat="43.99243" lon="7.25635">
        <ele>1066</ele>
        <time>2018-07-28T09:02:27.000Z</time>
      </trkpt>
      <trkpt lat="43.99247" lon="7.25632">
        <ele>1065</ele>
        <time>2018-07-28T09:02:30.000Z</time>
      </trkpt>
      <trkpt lat="43.99253" lon="7.25627">
        <ele>1078</ele>
        <time>2018-07-28T09:02:34.000Z</time>
      </trkpt>
      <trkpt lat="43.99266" lon="7.25622">
        <ele>1078</ele>
        <time>2018-07-28T09:02:39.000Z</time>
      </trkpt>
      <trkpt lat="43.99276" lon="7.25616">
        <ele>1078</ele>
        <time>2018-07-28T09:02:43.000Z</time>
      </trkpt>
      <trkpt lat="43.99278" lon="7.25612">
        <ele>1077</ele>
        <time>2018-07-28T09:02:44.000Z</time>
      </trkpt>
      <trkpt lat="43.99289" lon="7.25597">
        <ele>1077</ele>
        <time>2018-07-28T09:02:49.000Z</time>
      </trkpt>
      <trkpt lat="43.99292" lon="7.25597">
        <ele>1078</ele>
        <time>2018-07-28T09:02:53.000Z</time>
      </trkpt>
      <trkpt lat="43.99293" lon="7.25597">
        <ele>1078</ele>
        <time>2018-07-28T09:02:54.000Z</time>
      </trkpt>
      <trkpt lat="43.99295" lon="7.25595">
        <ele>1078</ele>
        <time>2018-07-28T09:03:00.000Z</time>
      </trkpt>
      <trkpt lat="43.99296" lon="7.25596">
        <ele>1079</ele>
        <time>2018-07-28T09:03:01.000Z</time>
      </trkpt>
      <trkpt lat="43.99297" lon="7.25595">
        <ele>1079</ele>
        <time>2018-07-28T09:03:07.000Z</time>
      </trkpt>
      <trkpt lat="43.99297" lon="7.25595">
        <ele>1079</ele>
        <time>2018-07-28T09:03:09.000Z</time>
      </trkpt>
      <trkpt lat="43.99301" lon="7.25596">
        <ele>1080</ele>
        <time>2018-07-28T09:03:17.000Z</time>
      </trkpt>
      <trkpt lat="43.99302" lon="7.25596">
        <ele>1080</ele>
        <time>2018-07-28T09:03:19.000Z</time>
      </trkpt>
      <trkpt lat="43.99303" lon="7.25596">
        <ele>1080</ele>
        <time>2018-07-28T09:03:24.000Z</time>
      </trkpt>
      <trkpt lat="43.99306" lon="7.25596">
        <ele>1080</ele>
        <time>2018-07-28T09:03:29.000Z</time>
      </trkpt>
      <trkpt lat="43.99307" lon="7.25596">
        <ele>1081</ele>
        <time>2018-07-28T09:03:31.000Z</time>
      </trkpt>
      <trkpt lat="43.99309" lon="7.25597">
        <ele>1081</ele>
        <time>2018-07-28T09:03:35.000Z</time>
      </trkpt>
      <trkpt lat="43.99311" lon="7.25596">
        <ele>1081</ele>
        <time>2018-07-28T09:03:38.000Z</time>
      </trkpt>
      <trkpt lat="43.99312" lon="7.25592">
        <ele>1081</ele>
        <time>2018-07-28T09:03:42.000Z</time>
      </trkpt>
      <trkpt lat="43.99313" lon="7.2559">
        <ele>1081</ele>
        <time>2018-07-28T09:03:44.000Z</time>
      </trkpt>
      <trkpt lat="43.99313" lon="7.25587">
        <ele>1081</ele>
        <time>2018-07-28T09:03:47.000Z</time>
      </trkpt>
      <trkpt lat="43.99314" lon="7.25584">
        <ele>1081</ele>
        <time>2018-07-28T09:03:50.000Z</time>
      </trkpt>
      <trkpt lat="43.99316" lon="7.25579">
        <ele>1074</ele>
        <time>2018-07-28T09:03:57.000Z</time>
      </trkpt>
      <trkpt lat="43.99318" lon="7.25575">
        <ele>1074</ele>
        <time>2018-07-28T09:04:03.000Z</time>
      </trkpt>
      <trkpt lat="43.9932" lon="7.2557">
        <ele>1074</ele>
        <time>2018-07-28T09:04:08.000Z</time>
      </trkpt>
      <trkpt lat="43.99321" lon="7.25569">
        <ele>1074</ele>
        <time>2018-07-28T09:04:10.000Z</time>
      </trkpt>
      <trkpt lat="43.99324" lon="7.25567">
        <ele>1074</ele>
        <time>2018-07-28T09:04:15.000Z</time>
      </trkpt>
      <trkpt lat="43.99326" lon="7.25564">
        <ele>1074</ele>
        <time>2018-07-28T09:04:19.000Z</time>
      </trkpt>
      <trkpt lat="43.99327" lon="7.25563">
        <ele>1074</ele>
        <time>2018-07-28T09:04:21.000Z</time>
      </trkpt>
      <trkpt lat="43.99331" lon="7.25558">
        <ele>1073</ele>
        <time>2018-07-28T09:04:27.000Z</time>
      </trkpt>
      <trkpt lat="43.99332" lon="7.25558">
        <ele>1073</ele>
        <time>2018-07-28T09:04:28.000Z</time>
      </trkpt>
      <trkpt lat="43.99337" lon="7.25554">
        <ele>1089</ele>
        <time>2018-07-28T09:04:35.000Z</time>
      </trkpt>
      <trkpt lat="43.99338" lon="7.25554">
        <ele>1089</ele>
        <time>2018-07-28T09:04:36.000Z</time>
      </trkpt>
      <trkpt lat="43.99339" lon="7.25554">
        <ele>1089</ele>
        <time>2018-07-28T09:04:41.000Z</time>
      </trkpt>
      <trkpt lat="43.9934" lon="7.25553">
        <ele>1089</ele>
        <time>2018-07-28T09:04:43.000Z</time>
      </trkpt>
      <trkpt lat="43.99343" lon="7.25552">
        <ele>1089</ele>
        <time>2018-07-28T09:04:49.000Z</time>
      </trkpt>
      <trkpt lat="43.99345" lon="7.25552">
        <ele>1090</ele>
        <time>2018-07-28T09:04:52.000Z</time>
      </trkpt>
      <trkpt lat="43.99349" lon="7.25552">
        <ele>1090</ele>
        <time>2018-07-28T09:04:57.000Z</time>
      </trkpt>
      <trkpt lat="43.99349" lon="7.25552">
        <ele>1090</ele>
        <time>2018-07-28T09:04:58.000Z</time>
      </trkpt>
      <trkpt lat="43.99349" lon="7.25552">
        <ele>1090</ele>
        <time>2018-07-28T09:05:03.000Z</time>
      </trkpt>
      <trkpt lat="43.99349" lon="7.25552">
        <ele>1090</ele>
        <time>2018-07-28T09:05:04.000Z</time>
      </trkpt>
      <trkpt lat="43.9935" lon="7.25551">
        <ele>1090</ele>
        <time>2018-07-28T09:05:05.000Z</time>
      </trkpt>
      <trkpt lat="43.99354" lon="7.25551">
        <ele>1091</ele>
        <time>2018-07-28T09:05:09.000Z</time>
      </trkpt>
      <trkpt lat="43.99361" lon="7.25551">
        <ele>1092</ele>
        <time>2018-07-28T09:05:16.000Z</time>
      </trkpt>
      <trkpt lat="43.99361" lon="7.25552">
        <ele>1093</ele>
        <time>2018-07-28T09:05:17.000Z</time>
      </trkpt>
      <trkpt lat="43.99362" lon="7.25554">
        <ele>1093</ele>
        <time>2018-07-28T09:05:19.000Z</time>
      </trkpt>
      <trkpt lat="43.99362" lon="7.25556">
        <ele>1093</ele>
        <time>2018-07-28T09:05:21.000Z</time>
      </trkpt>
      <trkpt lat="43.99361" lon="7.25556">
        <ele>1093</ele>
        <time>2018-07-28T09:05:22.000Z</time>
      </trkpt>
      <trkpt lat="43.9936" lon="7.25556">
        <ele>1093</ele>
        <time>2018-07-28T09:05:23.000Z</time>
      </trkpt>
      <trkpt lat="43.99357" lon="7.25558">
        <ele>1092</ele>
        <time>2018-07-28T09:05:28.000Z</time>
      </trkpt>
      <trkpt lat="43.99356" lon="7.2556">
        <ele>1091</ele>
        <time>2018-07-28T09:05:31.000Z</time>
      </trkpt>
      <trkpt lat="43.99354" lon="7.25562">
        <ele>1091</ele>
        <time>2018-07-28T09:05:34.000Z</time>
      </trkpt>
      <trkpt lat="43.99354" lon="7.25565">
        <ele>1091</ele>
        <time>2018-07-28T09:05:38.000Z</time>
      </trkpt>
      <trkpt lat="43.99355" lon="7.25565">
        <ele>1091</ele>
        <time>2018-07-28T09:05:41.000Z</time>
      </trkpt>
      <trkpt lat="43.99357" lon="7.25565">
        <ele>1092</ele>
        <time>2018-07-28T09:05:46.000Z</time>
      </trkpt>
      <trkpt lat="43.99357" lon="7.25566">
        <ele>1092</ele>
        <time>2018-07-28T09:05:47.000Z</time>
      </trkpt>
      <trkpt lat="43.9936" lon="7.25566">
        <ele>1093</ele>
        <time>2018-07-28T09:05:54.000Z</time>
      </trkpt>
      <trkpt lat="43.99364" lon="7.25565">
        <ele>1094</ele>
        <time>2018-07-28T09:05:59.000Z</time>
      </trkpt>
      <trkpt lat="43.99366" lon="7.25566">
        <ele>1094</ele>
        <time>2018-07-28T09:06:01.000Z</time>
      </trkpt>
      <trkpt lat="43.99369" lon="7.25567">
        <ele>1095</ele>
        <time>2018-07-28T09:06:06.000Z</time>
      </trkpt>
      <trkpt lat="43.9937" lon="7.25568">
        <ele>1095</ele>
        <time>2018-07-28T09:06:07.000Z</time>
      </trkpt>
      <trkpt lat="43.99373" lon="7.25569">
        <ele>1096</ele>
        <time>2018-07-28T09:06:13.000Z</time>
      </trkpt>
      <trkpt lat="43.99375" lon="7.25569">
        <ele>1097</ele>
        <time>2018-07-28T09:06:16.000Z</time>
      </trkpt>
      <trkpt lat="43.99377" lon="7.25572">
        <ele>1098</ele>
        <time>2018-07-28T09:06:20.000Z</time>
      </trkpt>
      <trkpt lat="43.9938" lon="7.25574">
        <ele>1099</ele>
        <time>2018-07-28T09:06:24.000Z</time>
      </trkpt>
      <trkpt lat="43.99381" lon="7.25575">
        <ele>1100</ele>
        <time>2018-07-28T09:06:25.000Z</time>
      </trkpt>
      <trkpt lat="43.99385" lon="7.25577">
        <ele>1101</ele>
        <time>2018-07-28T09:06:31.000Z</time>
      </trkpt>
      <trkpt lat="43.99386" lon="7.25578">
        <ele>1102</ele>
        <time>2018-07-28T09:06:36.000Z</time>
      </trkpt>
      <trkpt lat="43.99389" lon="7.2558">
        <ele>1104</ele>
        <time>2018-07-28T09:06:40.000Z</time>
      </trkpt>
      <trkpt lat="43.99393" lon="7.25582">
        <ele>1106</ele>
        <time>2018-07-28T09:06:44.000Z</time>
      </trkpt>
      <trkpt lat="43.99394" lon="7.25583">
        <ele>1106</ele>
        <time>2018-07-28T09:06:48.000Z</time>
      </trkpt>
      <trkpt lat="43.99397" lon="7.25584">
        <ele>1118</ele>
        <time>2018-07-28T09:06:50.000Z</time>
      </trkpt>
      <trkpt lat="43.99396" lon="7.25583">
        <ele>1107</ele>
        <time>2018-07-28T09:06:51.000Z</time>
      </trkpt>
      <trkpt lat="43.99398" lon="7.25583">
        <ele>1118</ele>
        <time>2018-07-28T09:06:57.000Z</time>
      </trkpt>
      <trkpt lat="43.994" lon="7.25584">
        <ele>1119</ele>
        <time>2018-07-28T09:07:11.000Z</time>
      </trkpt>
      <trkpt lat="43.99403" lon="7.25587">
        <ele>1120</ele>
        <time>2018-07-28T09:07:17.000Z</time>
      </trkpt>
      <trkpt lat="43.99408" lon="7.25587">
        <ele>1121</ele>
        <time>2018-07-28T09:07:20.000Z</time>
      </trkpt>
      <trkpt lat="43.9941" lon="7.25584">
        <ele>1122</ele>
        <time>2018-07-28T09:07:22.000Z</time>
      </trkpt>
      <trkpt lat="43.9941" lon="7.25578">
        <ele>1116</ele>
        <time>2018-07-28T09:07:26.000Z</time>
      </trkpt>
      <trkpt lat="43.9941" lon="7.25575">
        <ele>1114</ele>
        <time>2018-07-28T09:07:30.000Z</time>
      </trkpt>
      <trkpt lat="43.9941" lon="7.25574">
        <ele>1113</ele>
        <time>2018-07-28T09:07:37.000Z</time>
      </trkpt>
      <trkpt lat="43.9941" lon="7.25569">
        <ele>1111</ele>
        <time>2018-07-28T09:07:42.000Z</time>
      </trkpt>
      <trkpt lat="43.99411" lon="7.25568">
        <ele>1110</ele>
        <time>2018-07-28T09:07:44.000Z</time>
      </trkpt>
      <trkpt lat="43.99411" lon="7.25564">
        <ele>1108</ele>
        <time>2018-07-28T09:07:49.000Z</time>
      </trkpt>
      <trkpt lat="43.99411" lon="7.25562">
        <ele>1107</ele>
        <time>2018-07-28T09:07:51.000Z</time>
      </trkpt>
      <trkpt lat="43.99411" lon="7.2556">
        <ele>1107</ele>
        <time>2018-07-28T09:07:59.000Z</time>
      </trkpt>
      <trkpt lat="43.99411" lon="7.25558">
        <ele>1106</ele>
        <time>2018-07-28T09:08:02.000Z</time>
      </trkpt>
      <trkpt lat="43.99411" lon="7.25555">
        <ele>1105</ele>
        <time>2018-07-28T09:08:05.000Z</time>
      </trkpt>
      <trkpt lat="43.99411" lon="7.25548">
        <ele>1103</ele>
        <time>2018-07-28T09:08:12.000Z</time>
      </trkpt>
      <trkpt lat="43.99411" lon="7.25548">
        <ele>1103</ele>
        <time>2018-07-28T09:08:13.000Z</time>
      </trkpt>
      <trkpt lat="43.9941" lon="7.25542">
        <ele>1102</ele>
        <time>2018-07-28T09:08:19.000Z</time>
      </trkpt>
      <trkpt lat="43.9941" lon="7.2554">
        <ele>1101</ele>
        <time>2018-07-28T09:08:21.000Z</time>
      </trkpt>
      <trkpt lat="43.99413" lon="7.25533">
        <ele>1101</ele>
        <time>2018-07-28T09:08:28.000Z</time>
      </trkpt>
      <trkpt lat="43.99412" lon="7.25533">
        <ele>1101</ele>
        <time>2018-07-28T09:08:29.000Z</time>
      </trkpt>
      <trkpt lat="43.99414" lon="7.25527">
        <ele>1100</ele>
        <time>2018-07-28T09:08:37.000Z</time>
      </trkpt>
      <trkpt lat="43.99414" lon="7.25524">
        <ele>1100</ele>
        <time>2018-07-28T09:08:40.000Z</time>
      </trkpt>
      <trkpt lat="43.99416" lon="7.2552">
        <ele>1101</ele>
        <time>2018-07-28T09:08:45.000Z</time>
      </trkpt>
      <trkpt lat="43.99416" lon="7.25514">
        <ele>1101</ele>
        <time>2018-07-28T09:08:51.000Z</time>
      </trkpt>
      <trkpt lat="43.99417" lon="7.25512">
        <ele>1101</ele>
        <time>2018-07-28T09:08:53.000Z</time>
      </trkpt>
      <trkpt lat="43.99419" lon="7.25507">
        <ele>1114</ele>
        <time>2018-07-28T09:09:00.000Z</time>
      </trkpt>
      <trkpt lat="43.99419" lon="7.25505">
        <ele>1112</ele>
        <time>2018-07-28T09:09:02.000Z</time>
      </trkpt>
      <trkpt lat="43.9942" lon="7.25502">
        <ele>1110</ele>
        <time>2018-07-28T09:09:08.000Z</time>
      </trkpt>
      <trkpt lat="43.99421" lon="7.255">
        <ele>1111</ele>
        <time>2018-07-28T09:09:10.000Z</time>
      </trkpt>
      <trkpt lat="43.99421" lon="7.25501">
        <ele>1110</ele>
        <time>2018-07-28T09:09:13.000Z</time>
      </trkpt>
      <trkpt lat="43.99422" lon="7.25499">
        <ele>1108</ele>
        <time>2018-07-28T09:09:20.000Z</time>
      </trkpt>
      <trkpt lat="43.99424" lon="7.25499">
        <ele>1110</ele>
        <time>2018-07-28T09:09:22.000Z</time>
      </trkpt>
      <trkpt lat="43.99424" lon="7.25502">
        <ele>1114</ele>
        <time>2018-07-28T09:09:25.000Z</time>
      </trkpt>
      <trkpt lat="43.99423" lon="7.25504">
        <ele>1114</ele>
        <time>2018-07-28T09:09:28.000Z</time>
      </trkpt>
      <trkpt lat="43.99423" lon="7.25505">
        <ele>1115</ele>
        <time>2018-07-28T09:09:29.000Z</time>
      </trkpt>
      <trkpt lat="43.99423" lon="7.25507">
        <ele>1116</ele>
        <time>2018-07-28T09:09:31.000Z</time>
      </trkpt>
      <trkpt lat="43.99423" lon="7.25508">
        <ele>1117</ele>
        <time>2018-07-28T09:09:34.000Z</time>
      </trkpt>
      <trkpt lat="43.99424" lon="7.25509">
        <ele>1119</ele>
        <time>2018-07-28T09:09:37.000Z</time>
      </trkpt>
      <trkpt lat="43.99426" lon="7.25505">
        <ele>1118</ele>
        <time>2018-07-28T09:09:42.000Z</time>
      </trkpt>
      <trkpt lat="43.99428" lon="7.25504">
        <ele>1119</ele>
        <time>2018-07-28T09:09:45.000Z</time>
      </trkpt>
      <trkpt lat="43.99429" lon="7.255">
        <ele>1119</ele>
        <time>2018-07-28T09:09:49.000Z</time>
      </trkpt>
      <trkpt lat="43.9943" lon="7.25499">
        <ele>1114</ele>
        <time>2018-07-28T09:09:51.000Z</time>
      </trkpt>
      <trkpt lat="43.99432" lon="7.25495">
        <ele>1116</ele>
        <time>2018-07-28T09:09:57.000Z</time>
      </trkpt>
      <trkpt lat="43.99435" lon="7.25492">
        <ele>1117</ele>
        <time>2018-07-28T09:10:03.000Z</time>
      </trkpt>
      <trkpt lat="43.99435" lon="7.25491">
        <ele>1117</ele>
        <time>2018-07-28T09:10:06.000Z</time>
      </trkpt>
      <trkpt lat="43.99437" lon="7.25489">
        <ele>1119</ele>
        <time>2018-07-28T09:10:10.000Z</time>
      </trkpt>
      <trkpt lat="43.99439" lon="7.25488">
        <ele>1120</ele>
        <time>2018-07-28T09:10:13.000Z</time>
      </trkpt>
      <trkpt lat="43.9944" lon="7.25488">
        <ele>1120</ele>
        <time>2018-07-28T09:10:17.000Z</time>
      </trkpt>
      <trkpt lat="43.9944" lon="7.25488">
        <ele>1120</ele>
        <time>2018-07-28T09:10:18.000Z</time>
      </trkpt>
      <trkpt lat="43.99442" lon="7.25486">
        <ele>1121</ele>
        <time>2018-07-28T09:10:24.000Z</time>
      </trkpt>
      <trkpt lat="43.99443" lon="7.2549">
        <ele>1121</ele>
        <time>2018-07-28T09:10:30.000Z</time>
      </trkpt>
      <trkpt lat="43.99443" lon="7.25489">
        <ele>1121</ele>
        <time>2018-07-28T09:10:31.000Z</time>
      </trkpt>
      <trkpt lat="43.99442" lon="7.25494">
        <ele>1121</ele>
        <time>2018-07-28T09:10:36.000Z</time>
      </trkpt>
      <trkpt lat="43.99442" lon="7.25496">
        <ele>1120</ele>
        <time>2018-07-28T09:10:39.000Z</time>
      </trkpt>
      <trkpt lat="43.99441" lon="7.25499">
        <ele>1120</ele>
        <time>2018-07-28T09:10:43.000Z</time>
      </trkpt>
      <trkpt lat="43.99441" lon="7.25502">
        <ele>1129</ele>
        <time>2018-07-28T09:10:47.000Z</time>
      </trkpt>
      <trkpt lat="43.99441" lon="7.25502">
        <ele>1129</ele>
        <time>2018-07-28T09:10:49.000Z</time>
      </trkpt>
      <trkpt lat="43.9944" lon="7.25506">
        <ele>1129</ele>
        <time>2018-07-28T09:10:54.000Z</time>
      </trkpt>
      <trkpt lat="43.99441" lon="7.25508">
        <ele>1130</ele>
        <time>2018-07-28T09:10:56.000Z</time>
      </trkpt>
      <trkpt lat="43.99441" lon="7.25511">
        <ele>1131</ele>
        <time>2018-07-28T09:11:00.000Z</time>
      </trkpt>
      <trkpt lat="43.99442" lon="7.25512">
        <ele>1131</ele>
        <time>2018-07-28T09:11:02.000Z</time>
      </trkpt>
      <trkpt lat="43.99443" lon="7.25509">
        <ele>1132</ele>
        <time>2018-07-28T09:11:07.000Z</time>
      </trkpt>
      <trkpt lat="43.99445" lon="7.25502">
        <ele>1132</ele>
        <time>2018-07-28T09:11:14.000Z</time>
      </trkpt>
      <trkpt lat="43.99445" lon="7.25502">
        <ele>1132</ele>
        <time>2018-07-28T09:11:15.000Z</time>
      </trkpt>
      <trkpt lat="43.99447" lon="7.25498">
        <ele>1123</ele>
        <time>2018-07-28T09:11:20.000Z</time>
      </trkpt>
      <trkpt lat="43.99448" lon="7.25496">
        <ele>1124</ele>
        <time>2018-07-28T09:11:24.000Z</time>
      </trkpt>
      <trkpt lat="43.9945" lon="7.25494">
        <ele>1125</ele>
        <time>2018-07-28T09:11:27.000Z</time>
      </trkpt>
      <trkpt lat="43.99451" lon="7.25494">
        <ele>1125</ele>
        <time>2018-07-28T09:11:30.000Z</time>
      </trkpt>
      <trkpt lat="43.99452" lon="7.25493">
        <ele>1126</ele>
        <time>2018-07-28T09:11:33.000Z</time>
      </trkpt>
      <trkpt lat="43.99455" lon="7.2549">
        <ele>1127</ele>
        <time>2018-07-28T09:11:39.000Z</time>
      </trkpt>
      <trkpt lat="43.99455" lon="7.2549">
        <ele>1127</ele>
        <time>2018-07-28T09:11:40.000Z</time>
      </trkpt>
      <trkpt lat="43.99456" lon="7.25487">
        <ele>1128</ele>
        <time>2018-07-28T09:11:44.000Z</time>
      </trkpt>
      <trkpt lat="43.99457" lon="7.25485">
        <ele>1128</ele>
        <time>2018-07-28T09:11:46.000Z</time>
      </trkpt>
      <trkpt lat="43.9946" lon="7.25486">
        <ele>1130</ele>
        <time>2018-07-28T09:11:52.000Z</time>
      </trkpt>
      <trkpt lat="43.9946" lon="7.2549">
        <ele>1130</ele>
        <time>2018-07-28T09:11:58.000Z</time>
      </trkpt>
      <trkpt lat="43.9946" lon="7.25491">
        <ele>1130</ele>
        <time>2018-07-28T09:12:00.000Z</time>
      </trkpt>
      <trkpt lat="43.99461" lon="7.25494">
        <ele>1130</ele>
        <time>2018-07-28T09:12:03.000Z</time>
      </trkpt>
      <trkpt lat="43.9946" lon="7.25495">
        <ele>1130</ele>
        <time>2018-07-28T09:12:04.000Z</time>
      </trkpt>
      <trkpt lat="43.9946" lon="7.25495">
        <ele>1130</ele>
        <time>2018-07-28T09:12:05.000Z</time>
      </trkpt>
      <trkpt lat="43.9946" lon="7.25499">
        <ele>1130</ele>
        <time>2018-07-28T09:12:10.000Z</time>
      </trkpt>
      <trkpt lat="43.99459" lon="7.25502">
        <ele>1140</ele>
        <time>2018-07-28T09:12:13.000Z</time>
      </trkpt>
      <trkpt lat="43.99459" lon="7.25503">
        <ele>1140</ele>
        <time>2018-07-28T09:12:17.000Z</time>
      </trkpt>
      <trkpt lat="43.99459" lon="7.25505">
        <ele>1140</ele>
        <time>2018-07-28T09:12:20.000Z</time>
      </trkpt>
      <trkpt lat="43.99461" lon="7.25505">
        <ele>1141</ele>
        <time>2018-07-28T09:12:24.000Z</time>
      </trkpt>
      <trkpt lat="43.99462" lon="7.25503">
        <ele>1142</ele>
        <time>2018-07-28T09:12:27.000Z</time>
      </trkpt>
      <trkpt lat="43.99462" lon="7.25502">
        <ele>1142</ele>
        <time>2018-07-28T09:12:28.000Z</time>
      </trkpt>
      <trkpt lat="43.99463" lon="7.25501">
        <ele>1143</ele>
        <time>2018-07-28T09:12:30.000Z</time>
      </trkpt>
      <trkpt lat="43.99465" lon="7.255">
        <ele>1133</ele>
        <time>2018-07-28T09:12:33.000Z</time>
      </trkpt>
      <trkpt lat="43.99466" lon="7.25498">
        <ele>1134</ele>
        <time>2018-07-28T09:12:35.000Z</time>
      </trkpt>
      <trkpt lat="43.99467" lon="7.25497">
        <ele>1134</ele>
        <time>2018-07-28T09:12:36.000Z</time>
      </trkpt>
      <trkpt lat="43.99469" lon="7.25494">
        <ele>1135</ele>
        <time>2018-07-28T09:12:41.000Z</time>
      </trkpt>
      <trkpt lat="43.99469" lon="7.25492">
        <ele>1135</ele>
        <time>2018-07-28T09:12:42.000Z</time>
      </trkpt>
      <trkpt lat="43.99472" lon="7.25488">
        <ele>1136</ele>
        <time>2018-07-28T09:12:48.000Z</time>
      </trkpt>
      <trkpt lat="43.99474" lon="7.25486">
        <ele>1137</ele>
        <time>2018-07-28T09:12:55.000Z</time>
      </trkpt>
      <trkpt lat="43.99477" lon="7.25484">
        <ele>1138</ele>
        <time>2018-07-28T09:12:59.000Z</time>
      </trkpt>
      <trkpt lat="43.99478" lon="7.25483">
        <ele>1138</ele>
        <time>2018-07-28T09:13:01.000Z</time>
      </trkpt>
      <trkpt lat="43.9948" lon="7.25482">
        <ele>1139</ele>
        <time>2018-07-28T09:13:07.000Z</time>
      </trkpt>
      <trkpt lat="43.99483" lon="7.25483">
        <ele>1141</ele>
        <time>2018-07-28T09:13:12.000Z</time>
      </trkpt>
      <trkpt lat="43.99483" lon="7.25484">
        <ele>1141</ele>
        <time>2018-07-28T09:13:13.000Z</time>
      </trkpt>
      <trkpt lat="43.99482" lon="7.25488">
        <ele>1142</ele>
        <time>2018-07-28T09:13:18.000Z</time>
      </trkpt>
      <trkpt lat="43.99481" lon="7.25489">
        <ele>1142</ele>
        <time>2018-07-28T09:13:19.000Z</time>
      </trkpt>
      <trkpt lat="43.99482" lon="7.25491">
        <ele>1143</ele>
        <time>2018-07-28T09:13:24.000Z</time>
      </trkpt>
      <trkpt lat="43.99483" lon="7.2549">
        <ele>1144</ele>
        <time>2018-07-28T09:13:26.000Z</time>
      </trkpt>
      <trkpt lat="43.99484" lon="7.25486">
        <ele>1143</ele>
        <time>2018-07-28T09:13:33.000Z</time>
      </trkpt>
      <trkpt lat="43.99484" lon="7.25486">
        <ele>1143</ele>
        <time>2018-07-28T09:13:34.000Z</time>
      </trkpt>
      <trkpt lat="43.99485" lon="7.25484">
        <ele>1142</ele>
        <time>2018-07-28T09:13:38.000Z</time>
      </trkpt>
      <trkpt lat="43.99488" lon="7.25478">
        <ele>1141</ele>
        <time>2018-07-28T09:13:44.000Z</time>
      </trkpt>
      <trkpt lat="43.99489" lon="7.25478">
        <ele>1141</ele>
        <time>2018-07-28T09:13:45.000Z</time>
      </trkpt>
      <trkpt lat="43.99491" lon="7.25475">
        <ele>1141</ele>
        <time>2018-07-28T09:13:47.000Z</time>
      </trkpt>
      <trkpt lat="43.99492" lon="7.25473">
        <ele>1140</ele>
        <time>2018-07-28T09:13:49.000Z</time>
      </trkpt>
      <trkpt lat="43.99493" lon="7.25471">
        <ele>1139</ele>
        <time>2018-07-28T09:13:55.000Z</time>
      </trkpt>
      <trkpt lat="43.99495" lon="7.25469">
        <ele>1139</ele>
        <time>2018-07-28T09:13:59.000Z</time>
      </trkpt>
      <trkpt lat="43.99495" lon="7.25469">
        <ele>1139</ele>
        <time>2018-07-28T09:14:00.000Z</time>
      </trkpt>
      <trkpt lat="43.99496" lon="7.25468">
        <ele>1138</ele>
        <time>2018-07-28T09:14:07.000Z</time>
      </trkpt>
      <trkpt lat="43.99497" lon="7.25468">
        <ele>1138</ele>
        <time>2018-07-28T09:14:11.000Z</time>
      </trkpt>
      <trkpt lat="43.99497" lon="7.25468">
        <ele>1138</ele>
        <time>2018-07-28T09:14:13.000Z</time>
      </trkpt>
      <trkpt lat="43.99497" lon="7.25465">
        <ele>1137</ele>
        <time>2018-07-28T09:14:21.000Z</time>
      </trkpt>
      <trkpt lat="43.99499" lon="7.25459">
        <ele>1136</ele>
        <time>2018-07-28T09:14:28.000Z</time>
      </trkpt>
      <trkpt lat="43.995" lon="7.25455">
        <ele>1163</ele>
        <time>2018-07-28T09:14:36.000Z</time>
      </trkpt>
      <trkpt lat="43.99502" lon="7.25453">
        <ele>1163</ele>
        <time>2018-07-28T09:14:43.000Z</time>
      </trkpt>
      <trkpt lat="43.99505" lon="7.2545">
        <ele>1162</ele>
        <time>2018-07-28T09:14:50.000Z</time>
      </trkpt>
      <trkpt lat="43.99509" lon="7.25447">
        <ele>1161</ele>
        <time>2018-07-28T09:14:55.000Z</time>
      </trkpt>
      <trkpt lat="43.99512" lon="7.25445">
        <ele>1161</ele>
        <time>2018-07-28T09:14:57.000Z</time>
      </trkpt>
      <trkpt lat="43.99515" lon="7.25444">
        <ele>1162</ele>
        <time>2018-07-28T09:14:59.000Z</time>
      </trkpt>
      <trkpt lat="43.99518" lon="7.25443">
        <ele>1162</ele>
        <time>2018-07-28T09:15:01.000Z</time>
      </trkpt>
      <trkpt lat="43.99524" lon="7.2544">
        <ele>1163</ele>
        <time>2018-07-28T09:15:04.000Z</time>
      </trkpt>
      <trkpt lat="43.99533" lon="7.25435">
        <ele>1164</ele>
        <time>2018-07-28T09:15:09.000Z</time>
      </trkpt>
      <trkpt lat="43.99534" lon="7.25433">
        <ele>1164</ele>
        <time>2018-07-28T09:15:10.000Z</time>
      </trkpt>
      <trkpt lat="43.99546" lon="7.25424">
        <ele>1167</ele>
        <time>2018-07-28T09:15:17.000Z</time>
      </trkpt>
      <trkpt lat="43.99545" lon="7.25424">
        <ele>1166</ele>
        <time>2018-07-28T09:15:18.000Z</time>
      </trkpt>
      <trkpt lat="43.99547" lon="7.25422">
        <ele>1167</ele>
        <time>2018-07-28T09:15:23.000Z</time>
      </trkpt>
      <trkpt lat="43.99548" lon="7.25422">
        <ele>1167</ele>
        <time>2018-07-28T09:15:24.000Z</time>
      </trkpt>
      <trkpt lat="43.99549" lon="7.25421">
        <ele>1167</ele>
        <time>2018-07-28T09:15:26.000Z</time>
      </trkpt>
      <trkpt lat="43.99549" lon="7.2542">
        <ele>1167</ele>
        <time>2018-07-28T09:15:29.000Z</time>
      </trkpt>
      <trkpt lat="43.99551" lon="7.25418">
        <ele>1167</ele>
        <time>2018-07-28T09:15:31.000Z</time>
      </trkpt>
      <trkpt lat="43.99553" lon="7.25414">
        <ele>1155</ele>
        <time>2018-07-28T09:15:33.000Z</time>
      </trkpt>
      <trkpt lat="43.99555" lon="7.25413">
        <ele>1155</ele>
        <time>2018-07-28T09:15:34.000Z</time>
      </trkpt>
      <trkpt lat="43.99559" lon="7.2541">
        <ele>1156</ele>
        <time>2018-07-28T09:15:37.000Z</time>
      </trkpt>
      <trkpt lat="43.99561" lon="7.25409">
        <ele>1157</ele>
        <time>2018-07-28T09:15:38.000Z</time>
      </trkpt>
      <trkpt lat="43.99566" lon="7.25404">
        <ele>1158</ele>
        <time>2018-07-28T09:15:42.000Z</time>
      </trkpt>
      <trkpt lat="43.99568" lon="7.25403">
        <ele>1159</ele>
        <time>2018-07-28T09:15:43.000Z</time>
      </trkpt>
      <trkpt lat="43.99573" lon="7.25401">
        <ele>1159</ele>
        <time>2018-07-28T09:15:46.000Z</time>
      </trkpt>
      <trkpt lat="43.99577" lon="7.254">
        <ele>1160</ele>
        <time>2018-07-28T09:15:48.000Z</time>
      </trkpt>
      <trkpt lat="43.9959" lon="7.254">
        <ele>1177</ele>
        <time>2018-07-28T09:15:54.000Z</time>
      </trkpt>
      <trkpt lat="43.99594" lon="7.254">
        <ele>1178</ele>
        <time>2018-07-28T09:15:56.000Z</time>
      </trkpt>
      <trkpt lat="43.99599" lon="7.25399">
        <ele>1179</ele>
        <time>2018-07-28T09:16:00.000Z</time>
      </trkpt>
      <trkpt lat="43.99609" lon="7.254">
        <ele>1181</ele>
        <time>2018-07-28T09:16:05.000Z</time>
      </trkpt>
      <trkpt lat="43.9961" lon="7.25399">
        <ele>1181</ele>
        <time>2018-07-28T09:16:10.000Z</time>
      </trkpt>
      <trkpt lat="43.99612" lon="7.25398">
        <ele>1181</ele>
        <time>2018-07-28T09:16:14.000Z</time>
      </trkpt>
      <trkpt lat="43.99614" lon="7.25399">
        <ele>1182</ele>
        <time>2018-07-28T09:16:24.000Z</time>
      </trkpt>
      <trkpt lat="43.99616" lon="7.254">
        <ele>1182</ele>
        <time>2018-07-28T09:16:27.000Z</time>
      </trkpt>
      <trkpt lat="43.99617" lon="7.25399">
        <ele>1182</ele>
        <time>2018-07-28T09:16:30.000Z</time>
      </trkpt>
      <trkpt lat="43.9962" lon="7.254">
        <ele>1183</ele>
        <time>2018-07-28T09:16:36.000Z</time>
      </trkpt>
      <trkpt lat="43.99621" lon="7.254">
        <ele>1183</ele>
        <time>2018-07-28T09:16:37.000Z</time>
      </trkpt>
      <trkpt lat="43.99625" lon="7.25401">
        <ele>1184</ele>
        <time>2018-07-28T09:16:43.000Z</time>
      </trkpt>
      <trkpt lat="43.99626" lon="7.25402">
        <ele>1185</ele>
        <time>2018-07-28T09:16:47.000Z</time>
      </trkpt>
      <trkpt lat="43.99627" lon="7.25402">
        <ele>1185</ele>
        <time>2018-07-28T09:16:48.000Z</time>
      </trkpt>
      <trkpt lat="43.99629" lon="7.25402">
        <ele>1185</ele>
        <time>2018-07-28T09:16:53.000Z</time>
      </trkpt>
      <trkpt lat="43.99629" lon="7.25402">
        <ele>1185</ele>
        <time>2018-07-28T09:16:54.000Z</time>
      </trkpt>
      <trkpt lat="43.99631" lon="7.25399">
        <ele>1185</ele>
        <time>2018-07-28T09:17:00.000Z</time>
      </trkpt>
      <trkpt lat="43.99631" lon="7.25398">
        <ele>1186</ele>
        <time>2018-07-28T09:17:01.000Z</time>
      </trkpt>
      <trkpt lat="43.99631" lon="7.25393">
        <ele>1186</ele>
        <time>2018-07-28T09:17:06.000Z</time>
      </trkpt>
      <trkpt lat="43.99631" lon="7.25392">
        <ele>1186</ele>
        <time>2018-07-28T09:17:08.000Z</time>
      </trkpt>
      <trkpt lat="43.99632" lon="7.2539">
        <ele>1186</ele>
        <time>2018-07-28T09:17:13.000Z</time>
      </trkpt>
      <trkpt lat="43.99632" lon="7.25389">
        <ele>1186</ele>
        <time>2018-07-28T09:17:15.000Z</time>
      </trkpt>
      <trkpt lat="43.99633" lon="7.25389">
        <ele>1186</ele>
        <time>2018-07-28T09:17:21.000Z</time>
      </trkpt>
      <trkpt lat="43.99634" lon="7.25389">
        <ele>1186</ele>
        <time>2018-07-28T09:17:25.000Z</time>
      </trkpt>
      <trkpt lat="43.99633" lon="7.25389">
        <ele>1186</ele>
        <time>2018-07-28T09:17:28.000Z</time>
      </trkpt>
      <trkpt lat="43.99634" lon="7.25387">
        <ele>1186</ele>
        <time>2018-07-28T09:17:34.000Z</time>
      </trkpt>
      <trkpt lat="43.99637" lon="7.25384">
        <ele>1187</ele>
        <time>2018-07-28T09:17:41.000Z</time>
      </trkpt>
      <trkpt lat="43.99638" lon="7.25382">
        <ele>1187</ele>
        <time>2018-07-28T09:17:46.000Z</time>
      </trkpt>
      <trkpt lat="43.99638" lon="7.25381">
        <ele>1187</ele>
        <time>2018-07-28T09:17:49.000Z</time>
      </trkpt>
      <trkpt lat="43.9964" lon="7.25378">
        <ele>1188</ele>
        <time>2018-07-28T09:17:53.000Z</time>
      </trkpt>
      <trkpt lat="43.9964" lon="7.25377">
        <ele>1188</ele>
        <time>2018-07-28T09:17:55.000Z</time>
      </trkpt>
      <trkpt lat="43.99641" lon="7.25374">
        <ele>1188</ele>
        <time>2018-07-28T09:17:59.000Z</time>
      </trkpt>
      <trkpt lat="43.9964" lon="7.25374">
        <ele>1188</ele>
        <time>2018-07-28T09:18:00.000Z</time>
      </trkpt>
      <trkpt lat="43.9964" lon="7.25373">
        <ele>1188</ele>
        <time>2018-07-28T09:18:01.000Z</time>
      </trkpt>
      <trkpt lat="43.9964" lon="7.25369">
        <ele>1189</ele>
        <time>2018-07-28T09:18:05.000Z</time>
      </trkpt>
      <trkpt lat="43.99641" lon="7.25368">
        <ele>1189</ele>
        <time>2018-07-28T09:18:07.000Z</time>
      </trkpt>
      <trkpt lat="43.99642" lon="7.25362">
        <ele>1190</ele>
        <time>2018-07-28T09:18:13.000Z</time>
      </trkpt>
      <trkpt lat="43.99642" lon="7.25361">
        <ele>1190</ele>
        <time>2018-07-28T09:18:15.000Z</time>
      </trkpt>
      <trkpt lat="43.99642" lon="7.25359">
        <ele>1190</ele>
        <time>2018-07-28T09:18:19.000Z</time>
      </trkpt>
      <trkpt lat="43.99642" lon="7.25356">
        <ele>1191</ele>
        <time>2018-07-28T09:18:22.000Z</time>
      </trkpt>
      <trkpt lat="43.99643" lon="7.25354">
        <ele>1191</ele>
        <time>2018-07-28T09:18:25.000Z</time>
      </trkpt>
      <trkpt lat="43.99644" lon="7.25353">
        <ele>1192</ele>
        <time>2018-07-28T09:18:27.000Z</time>
      </trkpt>
      <trkpt lat="43.99644" lon="7.25352">
        <ele>1192</ele>
        <time>2018-07-28T09:18:29.000Z</time>
      </trkpt>
      <trkpt lat="43.99644" lon="7.25351">
        <ele>1192</ele>
        <time>2018-07-28T09:18:30.000Z</time>
      </trkpt>
      <trkpt lat="43.99645" lon="7.25348">
        <ele>1193</ele>
        <time>2018-07-28T09:18:37.000Z</time>
      </trkpt>
      <trkpt lat="43.99645" lon="7.25343">
        <ele>1194</ele>
        <time>2018-07-28T09:18:43.000Z</time>
      </trkpt>
      <trkpt lat="43.99646" lon="7.25343">
        <ele>1194</ele>
        <time>2018-07-28T09:18:44.000Z</time>
      </trkpt>
      <trkpt lat="43.99644" lon="7.25338">
        <ele>1194</ele>
        <time>2018-07-28T09:18:50.000Z</time>
      </trkpt>
      <trkpt lat="43.99644" lon="7.25332">
        <ele>1203</ele>
        <time>2018-07-28T09:18:57.000Z</time>
      </trkpt>
      <trkpt lat="43.99642" lon="7.25328">
        <ele>1203</ele>
        <time>2018-07-28T09:19:03.000Z</time>
      </trkpt>
      <trkpt lat="43.99642" lon="7.25326">
        <ele>1203</ele>
        <time>2018-07-28T09:19:05.000Z</time>
      </trkpt>
      <trkpt lat="43.99641" lon="7.25323">
        <ele>1202</ele>
        <time>2018-07-28T09:19:10.000Z</time>
      </trkpt>
      <trkpt lat="43.9964" lon="7.25322">
        <ele>1202</ele>
        <time>2018-07-28T09:19:11.000Z</time>
      </trkpt>
      <trkpt lat="43.99639" lon="7.2532">
        <ele>1202</ele>
        <time>2018-07-28T09:19:14.000Z</time>
      </trkpt>
      <trkpt lat="43.9964" lon="7.2532">
        <ele>1202</ele>
        <time>2018-07-28T09:19:15.000Z</time>
      </trkpt>
      <trkpt lat="43.99638" lon="7.25319">
        <ele>1201</ele>
        <time>2018-07-28T09:19:16.000Z</time>
      </trkpt>
      <trkpt lat="43.99637" lon="7.25315">
        <ele>1201</ele>
        <time>2018-07-28T09:19:23.000Z</time>
      </trkpt>
      <trkpt lat="43.99636" lon="7.25308">
        <ele>1202</ele>
        <time>2018-07-28T09:19:30.000Z</time>
      </trkpt>
      <trkpt lat="43.99636" lon="7.25307">
        <ele>1201</ele>
        <time>2018-07-28T09:19:31.000Z</time>
      </trkpt>
      <trkpt lat="43.99635" lon="7.25303">
        <ele>1202</ele>
        <time>2018-07-28T09:19:36.000Z</time>
      </trkpt>
      <trkpt lat="43.99634" lon="7.253">
        <ele>1202</ele>
        <time>2018-07-28T09:19:39.000Z</time>
      </trkpt>
      <trkpt lat="43.99631" lon="7.25298">
        <ele>1202</ele>
        <time>2018-07-28T09:19:43.000Z</time>
      </trkpt>
      <trkpt lat="43.99628" lon="7.25294">
        <ele>1201</ele>
        <time>2018-07-28T09:19:47.000Z</time>
      </trkpt>
      <trkpt lat="43.99625" lon="7.2529">
        <ele>1201</ele>
        <time>2018-07-28T09:19:51.000Z</time>
      </trkpt>
      <trkpt lat="43.99621" lon="7.25285">
        <ele>1201</ele>
        <time>2018-07-28T09:19:56.000Z</time>
      </trkpt>
      <trkpt lat="43.9962" lon="7.25284">
        <ele>1201</ele>
        <time>2018-07-28T09:19:58.000Z</time>
      </trkpt>
      <trkpt lat="43.99618" lon="7.2528">
        <ele>1201</ele>
        <time>2018-07-28T09:20:04.000Z</time>
      </trkpt>
      <trkpt lat="43.99616" lon="7.25279">
        <ele>1201</ele>
        <time>2018-07-28T09:20:06.000Z</time>
      </trkpt>
      <trkpt lat="43.99612" lon="7.25276">
        <ele>1200</ele>
        <time>2018-07-28T09:20:12.000Z</time>
      </trkpt>
      <trkpt lat="43.99608" lon="7.25275">
        <ele>1199</ele>
        <time>2018-07-28T09:20:18.000Z</time>
      </trkpt>
      <trkpt lat="43.99605" lon="7.25274">
        <ele>1198</ele>
        <time>2018-07-28T09:20:25.000Z</time>
      </trkpt>
      <trkpt lat="43.99603" lon="7.25273">
        <ele>1198</ele>
        <time>2018-07-28T09:20:27.000Z</time>
      </trkpt>
      <trkpt lat="43.99601" lon="7.25271">
        <ele>1198</ele>
        <time>2018-07-28T09:20:32.000Z</time>
      </trkpt>
      <trkpt lat="43.996" lon="7.2527">
        <ele>1198</ele>
        <time>2018-07-28T09:20:33.000Z</time>
      </trkpt>
      <trkpt lat="43.99595" lon="7.25266">
        <ele>1197</ele>
        <time>2018-07-28T09:20:39.000Z</time>
      </trkpt>
      <trkpt lat="43.99593" lon="7.25261">
        <ele>1197</ele>
        <time>2018-07-28T09:20:44.000Z</time>
      </trkpt>
      <trkpt lat="43.99592" lon="7.2526">
        <ele>1196</ele>
        <time>2018-07-28T09:20:46.000Z</time>
      </trkpt>
      <trkpt lat="43.9959" lon="7.25254">
        <ele>1196</ele>
        <time>2018-07-28T09:20:52.000Z</time>
      </trkpt>
      <trkpt lat="43.99587" lon="7.25248">
        <ele>1199</ele>
        <time>2018-07-28T09:20:58.000Z</time>
      </trkpt>
      <trkpt lat="43.99583" lon="7.25237">
        <ele>1188</ele>
        <time>2018-07-28T09:21:06.000Z</time>
      </trkpt>
      <trkpt lat="43.9958" lon="7.2523">
        <ele>1187</ele>
        <time>2018-07-28T09:21:11.000Z</time>
      </trkpt>
      <trkpt lat="43.99579" lon="7.25229">
        <ele>1186</ele>
        <time>2018-07-28T09:21:12.000Z</time>
      </trkpt>
      <trkpt lat="43.99575" lon="7.25219">
        <ele>1185</ele>
        <time>2018-07-28T09:21:19.000Z</time>
      </trkpt>
      <trkpt lat="43.99572" lon="7.25216">
        <ele>1185</ele>
        <time>2018-07-28T09:21:23.000Z</time>
      </trkpt>
      <trkpt lat="43.9957" lon="7.25214">
        <ele>1184</ele>
        <time>2018-07-28T09:21:27.000Z</time>
      </trkpt>
      <trkpt lat="43.99567" lon="7.25211">
        <ele>1184</ele>
        <time>2018-07-28T09:21:31.000Z</time>
      </trkpt>
      <trkpt lat="43.99564" lon="7.2521">
        <ele>1184</ele>
        <time>2018-07-28T09:21:36.000Z</time>
      </trkpt>
      <trkpt lat="43.99562" lon="7.25209">
        <ele>1183</ele>
        <time>2018-07-28T09:21:39.000Z</time>
      </trkpt>
      <trkpt lat="43.9956" lon="7.25208">
        <ele>1183</ele>
        <time>2018-07-28T09:21:43.000Z</time>
      </trkpt>
      <trkpt lat="43.99559" lon="7.25207">
        <ele>1183</ele>
        <time>2018-07-28T09:21:45.000Z</time>
      </trkpt>
      <trkpt lat="43.99557" lon="7.25204">
        <ele>1183</ele>
        <time>2018-07-28T09:21:50.000Z</time>
      </trkpt>
      <trkpt lat="43.99557" lon="7.25202">
        <ele>1183</ele>
        <time>2018-07-28T09:21:52.000Z</time>
      </trkpt>
      <trkpt lat="43.99557" lon="7.25198">
        <ele>1184</ele>
        <time>2018-07-28T09:21:58.000Z</time>
      </trkpt>
      <trkpt lat="43.99557" lon="7.25197">
        <ele>1184</ele>
        <time>2018-07-28T09:21:59.000Z</time>
      </trkpt>
      <trkpt lat="43.99559" lon="7.25195">
        <ele>1184</ele>
        <time>2018-07-28T09:22:05.000Z</time>
      </trkpt>
      <trkpt lat="43.99559" lon="7.25195">
        <ele>1185</ele>
        <time>2018-07-28T09:22:06.000Z</time>
      </trkpt>
      <trkpt lat="43.99561" lon="7.25198">
        <ele>1185</ele>
        <time>2018-07-28T09:22:12.000Z</time>
      </trkpt>
      <trkpt lat="43.99562" lon="7.25199">
        <ele>1185</ele>
        <time>2018-07-28T09:22:15.000Z</time>
      </trkpt>
      <trkpt lat="43.99564" lon="7.25199">
        <ele>1185</ele>
        <time>2018-07-28T09:22:20.000Z</time>
      </trkpt>
      <trkpt lat="43.99565" lon="7.25198">
        <ele>1185</ele>
        <time>2018-07-28T09:22:23.000Z</time>
      </trkpt>
      <trkpt lat="43.99565" lon="7.25197">
        <ele>1186</ele>
        <time>2018-07-28T09:22:25.000Z</time>
      </trkpt>
      <trkpt lat="43.99563" lon="7.25193">
        <ele>1186</ele>
        <time>2018-07-28T09:22:32.000Z</time>
      </trkpt>
      <trkpt lat="43.99562" lon="7.25192">
        <ele>1186</ele>
        <time>2018-07-28T09:22:33.000Z</time>
      </trkpt>
      <trkpt lat="43.99562" lon="7.25191">
        <ele>1186</ele>
        <time>2018-07-28T09:22:38.000Z</time>
      </trkpt>
      <trkpt lat="43.99561" lon="7.2519">
        <ele>1186</ele>
        <time>2018-07-28T09:22:40.000Z</time>
      </trkpt>
      <trkpt lat="43.99561" lon="7.25185">
        <ele>1187</ele>
        <time>2018-07-28T09:22:45.000Z</time>
      </trkpt>
      <trkpt lat="43.99563" lon="7.25184">
        <ele>1188</ele>
        <time>2018-07-28T09:22:48.000Z</time>
      </trkpt>
      <trkpt lat="43.99564" lon="7.25185">
        <ele>1188</ele>
        <time>2018-07-28T09:22:51.000Z</time>
      </trkpt>
      <trkpt lat="43.99565" lon="7.25186">
        <ele>1188</ele>
        <time>2018-07-28T09:22:54.000Z</time>
      </trkpt>
      <trkpt lat="43.99567" lon="7.25188">
        <ele>1188</ele>
        <time>2018-07-28T09:22:58.000Z</time>
      </trkpt>
      <trkpt lat="43.99569" lon="7.25189">
        <ele>1188</ele>
        <time>2018-07-28T09:23:02.000Z</time>
      </trkpt>
      <trkpt lat="43.99571" lon="7.2519">
        <ele>1189</ele>
        <time>2018-07-28T09:23:06.000Z</time>
      </trkpt>
      <trkpt lat="43.99573" lon="7.25192">
        <ele>1189</ele>
        <time>2018-07-28T09:23:10.000Z</time>
      </trkpt>
      <trkpt lat="43.99576" lon="7.25192">
        <ele>1189</ele>
        <time>2018-07-28T09:23:14.000Z</time>
      </trkpt>
      <trkpt lat="43.99579" lon="7.25193">
        <ele>1189</ele>
        <time>2018-07-28T09:23:19.000Z</time>
      </trkpt>
      <trkpt lat="43.9958" lon="7.25193">
        <ele>1189</ele>
        <time>2018-07-28T09:23:22.000Z</time>
      </trkpt>
      <trkpt lat="43.99582" lon="7.25192">
        <ele>1190</ele>
        <time>2018-07-28T09:23:29.000Z</time>
      </trkpt>
      <trkpt lat="43.99582" lon="7.25192">
        <ele>1190</ele>
        <time>2018-07-28T09:23:30.000Z</time>
      </trkpt>
      <trkpt lat="43.99581" lon="7.25189">
        <ele>1191</ele>
        <time>2018-07-28T09:23:36.000Z</time>
      </trkpt>
      <trkpt lat="43.99578" lon="7.25187">
        <ele>1191</ele>
        <time>2018-07-28T09:23:41.000Z</time>
      </trkpt>
      <trkpt lat="43.99578" lon="7.25187">
        <ele>1191</ele>
        <time>2018-07-28T09:23:44.000Z</time>
      </trkpt>
      <trkpt lat="43.99578" lon="7.25187">
        <ele>1191</ele>
        <time>2018-07-28T09:23:45.000Z</time>
      </trkpt>
      <trkpt lat="43.99577" lon="7.25187">
        <ele>1191</ele>
        <time>2018-07-28T09:23:50.000Z</time>
      </trkpt>
      <trkpt lat="43.99576" lon="7.25186">
        <ele>1191</ele>
        <time>2018-07-28T09:23:56.000Z</time>
      </trkpt>
      <trkpt lat="43.99574" lon="7.25181">
        <ele>1193</ele>
        <time>2018-07-28T09:24:02.000Z</time>
      </trkpt>
      <trkpt lat="43.99575" lon="7.2518">
        <ele>1193</ele>
        <time>2018-07-28T09:24:03.000Z</time>
      </trkpt>
      <trkpt lat="43.99577" lon="7.25179">
        <ele>1194</ele>
        <time>2018-07-28T09:24:06.000Z</time>
      </trkpt>
      <trkpt lat="43.99577" lon="7.25179">
        <ele>1195</ele>
        <time>2018-07-28T09:24:07.000Z</time>
      </trkpt>
      <trkpt lat="43.99578" lon="7.2518">
        <ele>1195</ele>
        <time>2018-07-28T09:24:08.000Z</time>
      </trkpt>
      <trkpt lat="43.9958" lon="7.2518">
        <ele>1195</ele>
        <time>2018-07-28T09:24:11.000Z</time>
      </trkpt>
      <trkpt lat="43.99581" lon="7.2518">
        <ele>1195</ele>
        <time>2018-07-28T09:24:12.000Z</time>
      </trkpt>
      <trkpt lat="43.99582" lon="7.25181">
        <ele>1195</ele>
        <time>2018-07-28T09:24:14.000Z</time>
      </trkpt>
      <trkpt lat="43.99583" lon="7.25181">
        <ele>1195</ele>
        <time>2018-07-28T09:24:15.000Z</time>
      </trkpt>
      <trkpt lat="43.99583" lon="7.25181">
        <ele>1195</ele>
        <time>2018-07-28T09:24:16.000Z</time>
      </trkpt>
      <trkpt lat="43.99584" lon="7.25181">
        <ele>1212</ele>
        <time>2018-07-28T09:24:17.000Z</time>
      </trkpt>
      <trkpt lat="43.99586" lon="7.25182">
        <ele>1212</ele>
        <time>2018-07-28T09:24:20.000Z</time>
      </trkpt>
      <trkpt lat="43.99587" lon="7.25182">
        <ele>1212</ele>
        <time>2018-07-28T09:24:23.000Z</time>
      </trkpt>
      <trkpt lat="43.99588" lon="7.25182">
        <ele>1212</ele>
        <time>2018-07-28T09:24:25.000Z</time>
      </trkpt>
      <trkpt lat="43.99591" lon="7.25184">
        <ele>1213</ele>
        <time>2018-07-28T09:24:29.000Z</time>
      </trkpt>
      <trkpt lat="43.99592" lon="7.25185">
        <ele>1213</ele>
        <time>2018-07-28T09:24:31.000Z</time>
      </trkpt>
      <trkpt lat="43.99594" lon="7.25187">
        <ele>1214</ele>
        <time>2018-07-28T09:24:37.000Z</time>
      </trkpt>
      <trkpt lat="43.99594" lon="7.25188">
        <ele>1214</ele>
        <time>2018-07-28T09:24:39.000Z</time>
      </trkpt>
      <trkpt lat="43.99597" lon="7.25189">
        <ele>1215</ele>
        <time>2018-07-28T09:24:44.000Z</time>
      </trkpt>
      <trkpt lat="43.99598" lon="7.2519">
        <ele>1215</ele>
        <time>2018-07-28T09:24:45.000Z</time>
      </trkpt>
      <trkpt lat="43.99601" lon="7.25191">
        <ele>1215</ele>
        <time>2018-07-28T09:24:52.000Z</time>
      </trkpt>
      <trkpt lat="43.99602" lon="7.25192">
        <ele>1216</ele>
        <time>2018-07-28T09:24:57.000Z</time>
      </trkpt>
      <trkpt lat="43.99606" lon="7.25195">
        <ele>1217</ele>
        <time>2018-07-28T09:25:03.000Z</time>
      </trkpt>
      <trkpt lat="43.99608" lon="7.25196">
        <ele>1217</ele>
        <time>2018-07-28T09:25:06.000Z</time>
      </trkpt>
      <trkpt lat="43.9961" lon="7.25197">
        <ele>1217</ele>
        <time>2018-07-28T09:25:10.000Z</time>
      </trkpt>
      <trkpt lat="43.99611" lon="7.25198">
        <ele>1218</ele>
        <time>2018-07-28T09:25:12.000Z</time>
      </trkpt>
      <trkpt lat="43.99612" lon="7.25199">
        <ele>1218</ele>
        <time>2018-07-28T09:25:16.000Z</time>
      </trkpt>
      <trkpt lat="43.99613" lon="7.252">
        <ele>1218</ele>
        <time>2018-07-28T09:25:19.000Z</time>
      </trkpt>
      <trkpt lat="43.99614" lon="7.252">
        <ele>1218</ele>
        <time>2018-07-28T09:25:22.000Z</time>
      </trkpt>
      <trkpt lat="43.99616" lon="7.25202">
        <ele>1219</ele>
        <time>2018-07-28T09:25:27.000Z</time>
      </trkpt>
      <trkpt lat="43.99617" lon="7.25204">
        <ele>1219</ele>
        <time>2018-07-28T09:25:29.000Z</time>
      </trkpt>
      <trkpt lat="43.99619" lon="7.25205">
        <ele>1219</ele>
        <time>2018-07-28T09:25:35.000Z</time>
      </trkpt>
      <trkpt lat="43.99621" lon="7.25206">
        <ele>1220</ele>
        <time>2018-07-28T09:25:41.000Z</time>
      </trkpt>
      <trkpt lat="43.99622" lon="7.25208">
        <ele>1220</ele>
        <time>2018-07-28T09:25:43.000Z</time>
      </trkpt>
      <trkpt lat="43.99625" lon="7.25208">
        <ele>1220</ele>
        <time>2018-07-28T09:25:48.000Z</time>
      </trkpt>
      <trkpt lat="43.99625" lon="7.25208">
        <ele>1221</ele>
        <time>2018-07-28T09:25:49.000Z</time>
      </trkpt>
      <trkpt lat="43.99628" lon="7.25207">
        <ele>1221</ele>
        <time>2018-07-28T09:25:54.000Z</time>
      </trkpt>
      <trkpt lat="43.99629" lon="7.25207">
        <ele>1222</ele>
        <time>2018-07-28T09:25:55.000Z</time>
      </trkpt>
      <trkpt lat="43.99632" lon="7.25207">
        <ele>1222</ele>
        <time>2018-07-28T09:26:01.000Z</time>
      </trkpt>
      <trkpt lat="43.99636" lon="7.25207">
        <ele>1223</ele>
        <time>2018-07-28T09:26:08.000Z</time>
      </trkpt>
      <trkpt lat="43.99636" lon="7.25207">
        <ele>1223</ele>
        <time>2018-07-28T09:26:09.000Z</time>
      </trkpt>
      <trkpt lat="43.99639" lon="7.25208">
        <ele>1224</ele>
        <time>2018-07-28T09:26:15.000Z</time>
      </trkpt>
      <trkpt lat="43.9964" lon="7.25207">
        <ele>1224</ele>
        <time>2018-07-28T09:26:17.000Z</time>
      </trkpt>
      <trkpt lat="43.99639" lon="7.25205">
        <ele>1224</ele>
        <time>2018-07-28T09:26:21.000Z</time>
      </trkpt>
      <trkpt lat="43.99638" lon="7.25204">
        <ele>1224</ele>
        <time>2018-07-28T09:26:24.000Z</time>
      </trkpt>
      <trkpt lat="43.99636" lon="7.25202">
        <ele>1224</ele>
        <time>2018-07-28T09:26:28.000Z</time>
      </trkpt>
      <trkpt lat="43.99635" lon="7.25201">
        <ele>1224</ele>
        <time>2018-07-28T09:26:30.000Z</time>
      </trkpt>
      <trkpt lat="43.99634" lon="7.25198">
        <ele>1223</ele>
        <time>2018-07-28T09:26:34.000Z</time>
      </trkpt>
      <trkpt lat="43.99634" lon="7.25198">
        <ele>1223</ele>
        <time>2018-07-28T09:26:36.000Z</time>
      </trkpt>
      <trkpt lat="43.99635" lon="7.25196">
        <ele>1224</ele>
        <time>2018-07-28T09:26:38.000Z</time>
      </trkpt>
      <trkpt lat="43.99636" lon="7.25196">
        <ele>1224</ele>
        <time>2018-07-28T09:26:39.000Z</time>
      </trkpt>
      <trkpt lat="43.99638" lon="7.25197">
        <ele>1225</ele>
        <time>2018-07-28T09:26:44.000Z</time>
      </trkpt>
      <trkpt lat="43.99638" lon="7.25197">
        <ele>1225</ele>
        <time>2018-07-28T09:26:47.000Z</time>
      </trkpt>
      <trkpt lat="43.99641" lon="7.25197">
        <ele>1225</ele>
        <time>2018-07-28T09:26:51.000Z</time>
      </trkpt>
      <trkpt lat="43.99641" lon="7.25196">
        <ele>1226</ele>
        <time>2018-07-28T09:26:54.000Z</time>
      </trkpt>
      <trkpt lat="43.99642" lon="7.25196">
        <ele>1226</ele>
        <time>2018-07-28T09:26:58.000Z</time>
      </trkpt>
      <trkpt lat="43.99643" lon="7.25194">
        <ele>1226</ele>
        <time>2018-07-28T09:26:59.000Z</time>
      </trkpt>
      <trkpt lat="43.99645" lon="7.25193">
        <ele>1227</ele>
        <time>2018-07-28T09:27:05.000Z</time>
      </trkpt>
      <trkpt lat="43.99645" lon="7.25193">
        <ele>1227</ele>
        <time>2018-07-28T09:27:15.000Z</time>
      </trkpt>
      <trkpt lat="43.99649" lon="7.25191">
        <ele>1228</ele>
        <time>2018-07-28T09:27:22.000Z</time>
      </trkpt>
      <trkpt lat="43.99653" lon="7.25191">
        <ele>1229</ele>
        <time>2018-07-28T09:27:28.000Z</time>
      </trkpt>
      <trkpt lat="43.99653" lon="7.25192">
        <ele>1229</ele>
        <time>2018-07-28T09:27:30.000Z</time>
      </trkpt>
      <trkpt lat="43.99652" lon="7.25192">
        <ele>1229</ele>
        <time>2018-07-28T09:27:36.000Z</time>
      </trkpt>
      <trkpt lat="43.99648" lon="7.25193">
        <ele>1228</ele>
        <time>2018-07-28T09:27:42.000Z</time>
      </trkpt>
      <trkpt lat="43.99648" lon="7.25193">
        <ele>1228</ele>
        <time>2018-07-28T09:27:49.000Z</time>
      </trkpt>
      <trkpt lat="43.99646" lon="7.25194">
        <ele>1227</ele>
        <time>2018-07-28T09:27:57.000Z</time>
      </trkpt>
      <trkpt lat="43.99646" lon="7.25194">
        <ele>1227</ele>
        <time>2018-07-28T09:27:59.000Z</time>
      </trkpt>
      <trkpt lat="43.99644" lon="7.25195">
        <ele>1226</ele>
        <time>2018-07-28T09:28:07.000Z</time>
      </trkpt>
      <trkpt lat="43.99644" lon="7.25195">
        <ele>1226</ele>
        <time>2018-07-28T09:28:10.000Z</time>
      </trkpt>
      <trkpt lat="43.99644" lon="7.25195">
        <ele>1226</ele>
        <time>2018-07-28T09:28:15.000Z</time>
      </trkpt>
      <trkpt lat="43.99643" lon="7.25195">
        <ele>1226</ele>
        <time>2018-07-28T09:28:27.000Z</time>
      </trkpt>
      <trkpt lat="43.99642" lon="7.25195">
        <ele>1226</ele>
        <time>2018-07-28T09:28:35.000Z</time>
      </trkpt>
      <trkpt lat="43.99642" lon="7.25195">
        <ele>1226</ele>
        <time>2018-07-28T09:28:43.000Z</time>
      </trkpt>
      <trkpt lat="43.99643" lon="7.25196">
        <ele>1226</ele>
        <time>2018-07-28T09:28:49.000Z</time>
      </trkpt>
      <trkpt lat="43.99642" lon="7.25196">
        <ele>1226</ele>
        <time>2018-07-28T09:29:01.000Z</time>
      </trkpt>
      <trkpt lat="43.99641" lon="7.25195">
        <ele>1226</ele>
        <time>2018-07-28T09:29:06.000Z</time>
      </trkpt>
      <trkpt lat="43.9964" lon="7.25196">
        <ele>1225</ele>
        <time>2018-07-28T09:29:12.000Z</time>
      </trkpt>
      <trkpt lat="43.9964" lon="7.25196">
        <ele>1225</ele>
        <time>2018-07-28T09:29:19.000Z</time>
      </trkpt>
      <trkpt lat="43.9964" lon="7.25196">
        <ele>1225</ele>
        <time>2018-07-28T09:29:30.000Z</time>
      </trkpt>
      <trkpt lat="43.9964" lon="7.25197">
        <ele>1225</ele>
        <time>2018-07-28T09:29:42.000Z</time>
      </trkpt>
      <trkpt lat="43.9964" lon="7.25198">
        <ele>1225</ele>
        <time>2018-07-28T09:29:54.000Z</time>
      </trkpt>
      <trkpt lat="43.9964" lon="7.25198">
        <ele>1225</ele>
        <time>2018-07-28T09:30:09.000Z</time>
      </trkpt>
      <trkpt lat="43.99641" lon="7.25198">
        <ele>1225</ele>
        <time>2018-07-28T09:30:22.000Z</time>
      </trkpt>
      <trkpt lat="43.99641" lon="7.25198">
        <ele>1225</ele>
        <time>2018-07-28T09:30:31.000Z</time>
      </trkpt>
      <trkpt lat="43.9964" lon="7.25198">
        <ele>1225</ele>
        <time>2018-07-28T09:30:42.000Z</time>
      </trkpt>
      <trkpt lat="43.9964" lon="7.25197">
        <ele>1225</ele>
        <time>2018-07-28T09:30:55.000Z</time>
      </trkpt>
      <trkpt lat="43.9964" lon="7.25197">
        <ele>1225</ele>
        <time>2018-07-28T09:31:12.000Z</time>
      </trkpt>
      <trkpt lat="43.9964" lon="7.25197">
        <ele>1225</ele>
        <time>2018-07-28T09:31:34.000Z</time>
      </trkpt>
      <trkpt lat="43.99639" lon="7.25197">
        <ele>1225</ele>
        <time>2018-07-28T09:31:55.000Z</time>
      </trkpt>
      <trkpt lat="43.99639" lon="7.25197">
        <ele>1225</ele>
        <time>2018-07-28T09:32:03.000Z</time>
      </trkpt>
      <trkpt lat="43.99639" lon="7.25197">
        <ele>1225</ele>
        <time>2018-07-28T09:32:09.000Z</time>
      </trkpt>
      <trkpt lat="43.9964" lon="7.25197">
        <ele>1225</ele>
        <time>2018-07-28T09:32:12.000Z</time>
      </trkpt>
      <trkpt lat="43.99639" lon="7.25197">
        <ele>1225</ele>
        <time>2018-07-28T09:32:14.000Z</time>
      </trkpt>
      <trkpt lat="43.99639" lon="7.25197">
        <ele>1225</ele>
        <time>2018-07-28T09:32:16.000Z</time>
      </trkpt>
      <trkpt lat="43.99639" lon="7.25196">
        <ele>1225</ele>
        <time>2018-07-28T09:32:22.000Z</time>
      </trkpt>
      <trkpt lat="43.99639" lon="7.25194">
        <ele>1225</ele>
        <time>2018-07-28T09:32:36.000Z</time>
      </trkpt>
      <trkpt lat="43.99644" lon="7.25195">
        <ele>1226</ele>
        <time>2018-07-28T09:32:42.000Z</time>
      </trkpt>
      <trkpt lat="43.99647" lon="7.25195">
        <ele>1227</ele>
        <time>2018-07-28T09:32:46.000Z</time>
      </trkpt>
      <trkpt lat="43.99648" lon="7.25195">
        <ele>1227</ele>
        <time>2018-07-28T09:32:48.000Z</time>
      </trkpt>
      <trkpt lat="43.9965" lon="7.25196">
        <ele>1228</ele>
        <time>2018-07-28T09:32:51.000Z</time>
      </trkpt>
      <trkpt lat="43.99651" lon="7.25196">
        <ele>1228</ele>
        <time>2018-07-28T09:32:53.000Z</time>
      </trkpt>
      <trkpt lat="43.99653" lon="7.25196">
        <ele>1228</ele>
        <time>2018-07-28T09:32:56.000Z</time>
      </trkpt>
      <trkpt lat="43.99659" lon="7.25197">
        <ele>1229</ele>
        <time>2018-07-28T09:33:03.000Z</time>
      </trkpt>
      <trkpt lat="43.99659" lon="7.25197">
        <ele>1229</ele>
        <time>2018-07-28T09:33:04.000Z</time>
      </trkpt>
      <trkpt lat="43.99665" lon="7.25196">
        <ele>1230</ele>
        <time>2018-07-28T09:33:12.000Z</time>
      </trkpt>
      <trkpt lat="43.99668" lon="7.25196">
        <ele>1254</ele>
        <time>2018-07-28T09:33:18.000Z</time>
      </trkpt>
      <trkpt lat="43.9967" lon="7.25195">
        <ele>1255</ele>
        <time>2018-07-28T09:33:20.000Z</time>
      </trkpt>
      <trkpt lat="43.99671" lon="7.25194">
        <ele>1255</ele>
        <time>2018-07-28T09:33:23.000Z</time>
      </trkpt>
      <trkpt lat="43.99675" lon="7.25193">
        <ele>1255</ele>
        <time>2018-07-28T09:33:29.000Z</time>
      </trkpt>
      <trkpt lat="43.99678" lon="7.25191">
        <ele>1255</ele>
        <time>2018-07-28T09:33:36.000Z</time>
      </trkpt>
      <trkpt lat="43.99679" lon="7.25191">
        <ele>1255</ele>
        <time>2018-07-28T09:33:38.000Z</time>
      </trkpt>
      <trkpt lat="43.9968" lon="7.25192">
        <ele>1256</ele>
        <time>2018-07-28T09:33:41.000Z</time>
      </trkpt>
      <trkpt lat="43.99684" lon="7.25194">
        <ele>1257</ele>
        <time>2018-07-28T09:33:47.000Z</time>
      </trkpt>
      <trkpt lat="43.99688" lon="7.25195">
        <ele>1258</ele>
        <time>2018-07-28T09:33:53.000Z</time>
      </trkpt>
      <trkpt lat="43.9969" lon="7.25194">
        <ele>1258</ele>
        <time>2018-07-28T09:33:55.000Z</time>
      </trkpt>
      <trkpt lat="43.99694" lon="7.25197">
        <ele>1259</ele>
        <time>2018-07-28T09:34:01.000Z</time>
      </trkpt>
      <trkpt lat="43.99695" lon="7.25197">
        <ele>1259</ele>
        <time>2018-07-28T09:34:02.000Z</time>
      </trkpt>
      <trkpt lat="43.99697" lon="7.25197">
        <ele>1260</ele>
        <time>2018-07-28T09:34:06.000Z</time>
      </trkpt>
      <trkpt lat="43.99699" lon="7.25198">
        <ele>1260</ele>
        <time>2018-07-28T09:34:08.000Z</time>
      </trkpt>
      <trkpt lat="43.99701" lon="7.25197">
        <ele>1261</ele>
        <time>2018-07-28T09:34:10.000Z</time>
      </trkpt>
      <trkpt lat="43.99704" lon="7.25195">
        <ele>1261</ele>
        <time>2018-07-28T09:34:15.000Z</time>
      </trkpt>
      <trkpt lat="43.99706" lon="7.25195">
        <ele>1262</ele>
        <time>2018-07-28T09:34:18.000Z</time>
      </trkpt>
      <trkpt lat="43.99709" lon="7.25194">
        <ele>1263</ele>
        <time>2018-07-28T09:34:22.000Z</time>
      </trkpt>
      <trkpt lat="43.99713" lon="7.25194">
        <ele>1264</ele>
        <time>2018-07-28T09:34:27.000Z</time>
      </trkpt>
      <trkpt lat="43.99715" lon="7.25194">
        <ele>1264</ele>
        <time>2018-07-28T09:34:30.000Z</time>
      </trkpt>
      <trkpt lat="43.99718" lon="7.25194">
        <ele>1265</ele>
        <time>2018-07-28T09:34:35.000Z</time>
      </trkpt>
      <trkpt lat="43.9972" lon="7.25193">
        <ele>1265</ele>
        <time>2018-07-28T09:34:38.000Z</time>
      </trkpt>
      <trkpt lat="43.99722" lon="7.25193">
        <ele>1266</ele>
        <time>2018-07-28T09:34:43.000Z</time>
      </trkpt>
      <trkpt lat="43.99722" lon="7.25196">
        <ele>1266</ele>
        <time>2018-07-28T09:34:46.000Z</time>
      </trkpt>
      <trkpt lat="43.99722" lon="7.25197">
        <ele>1266</ele>
        <time>2018-07-28T09:34:50.000Z</time>
      </trkpt>
      <trkpt lat="43.99721" lon="7.25199">
        <ele>1265</ele>
        <time>2018-07-28T09:34:53.000Z</time>
      </trkpt>
      <trkpt lat="43.9972" lon="7.25199">
        <ele>1265</ele>
        <time>2018-07-28T09:34:56.000Z</time>
      </trkpt>
      <trkpt lat="43.99718" lon="7.252">
        <ele>1265</ele>
        <time>2018-07-28T09:35:00.000Z</time>
      </trkpt>
      <trkpt lat="43.99716" lon="7.25201">
        <ele>1264</ele>
        <time>2018-07-28T09:35:03.000Z</time>
      </trkpt>
      <trkpt lat="43.99715" lon="7.25202">
        <ele>1264</ele>
        <time>2018-07-28T09:35:09.000Z</time>
      </trkpt>
      <trkpt lat="43.99714" lon="7.25203">
        <ele>1264</ele>
        <time>2018-07-28T09:35:11.000Z</time>
      </trkpt>
      <trkpt lat="43.99713" lon="7.25204">
        <ele>1264</ele>
        <time>2018-07-28T09:35:15.000Z</time>
      </trkpt>
      <trkpt lat="43.99711" lon="7.25205">
        <ele>1263</ele>
        <time>2018-07-28T09:35:19.000Z</time>
      </trkpt>
      <trkpt lat="43.99709" lon="7.25206">
        <ele>1263</ele>
        <time>2018-07-28T09:35:24.000Z</time>
      </trkpt>
      <trkpt lat="43.99709" lon="7.25207">
        <ele>1263</ele>
        <time>2018-07-28T09:35:26.000Z</time>
      </trkpt>
      <trkpt lat="43.99706" lon="7.2521">
        <ele>1262</ele>
        <time>2018-07-28T09:35:34.000Z</time>
      </trkpt>
      <trkpt lat="43.99705" lon="7.2521">
        <ele>1262</ele>
        <time>2018-07-28T09:35:35.000Z</time>
      </trkpt>
      <trkpt lat="43.99702" lon="7.25212">
        <ele>1261</ele>
        <time>2018-07-28T09:35:41.000Z</time>
      </trkpt>
      <trkpt lat="43.99701" lon="7.25212">
        <ele>1260</ele>
        <time>2018-07-28T09:35:43.000Z</time>
      </trkpt>
      <trkpt lat="43.99696" lon="7.25217">
        <ele>1259</ele>
        <time>2018-07-28T09:35:51.000Z</time>
      </trkpt>
      <trkpt lat="43.99692" lon="7.25221">
        <ele>1258</ele>
        <time>2018-07-28T09:35:58.000Z</time>
      </trkpt>
      <trkpt lat="43.99692" lon="7.25221">
        <ele>1258</ele>
        <time>2018-07-28T09:35:59.000Z</time>
      </trkpt>
      <trkpt lat="43.99693" lon="7.25224">
        <ele>1258</ele>
        <time>2018-07-28T09:36:06.000Z</time>
      </trkpt>
      <trkpt lat="43.99694" lon="7.25224">
        <ele>1258</ele>
        <time>2018-07-28T09:36:13.000Z</time>
      </trkpt>
      <trkpt lat="43.99696" lon="7.25225">
        <ele>1258</ele>
        <time>2018-07-28T09:36:16.000Z</time>
      </trkpt>
      <trkpt lat="43.99699" lon="7.25225">
        <ele>1259</ele>
        <time>2018-07-28T09:36:23.000Z</time>
      </trkpt>
      <trkpt lat="43.997" lon="7.25225">
        <ele>1260</ele>
        <time>2018-07-28T09:36:25.000Z</time>
      </trkpt>
      <trkpt lat="43.99704" lon="7.25226">
        <ele>1261</ele>
        <time>2018-07-28T09:36:32.000Z</time>
      </trkpt>
      <trkpt lat="43.99708" lon="7.25227">
        <ele>1262</ele>
        <time>2018-07-28T09:36:39.000Z</time>
      </trkpt>
      <trkpt lat="43.99709" lon="7.25228">
        <ele>1263</ele>
        <time>2018-07-28T09:36:42.000Z</time>
      </trkpt>
      <trkpt lat="43.9971" lon="7.25229">
        <ele>1263</ele>
        <time>2018-07-28T09:36:48.000Z</time>
      </trkpt>
      <trkpt lat="43.99712" lon="7.2523">
        <ele>1264</ele>
        <time>2018-07-28T09:36:50.000Z</time>
      </trkpt>
      <trkpt lat="43.99714" lon="7.25231">
        <ele>1265</ele>
        <time>2018-07-28T09:36:54.000Z</time>
      </trkpt>
      <trkpt lat="43.99716" lon="7.25232">
        <ele>1265</ele>
        <time>2018-07-28T09:36:59.000Z</time>
      </trkpt>
      <trkpt lat="43.99717" lon="7.25232">
        <ele>1266</ele>
        <time>2018-07-28T09:37:01.000Z</time>
      </trkpt>
      <trkpt lat="43.9972" lon="7.25234">
        <ele>1267</ele>
        <time>2018-07-28T09:37:09.000Z</time>
      </trkpt>
      <trkpt lat="43.99722" lon="7.25236">
        <ele>1268</ele>
        <time>2018-07-28T09:37:15.000Z</time>
      </trkpt>
      <trkpt lat="43.99722" lon="7.25236">
        <ele>1268</ele>
        <time>2018-07-28T09:37:16.000Z</time>
      </trkpt>
      <trkpt lat="43.99725" lon="7.25237">
        <ele>1270</ele>
        <time>2018-07-28T09:37:22.000Z</time>
      </trkpt>
      <trkpt lat="43.99727" lon="7.25237">
        <ele>1271</ele>
        <time>2018-07-28T09:37:24.000Z</time>
      </trkpt>
      <trkpt lat="43.99732" lon="7.25237">
        <ele>1273</ele>
        <time>2018-07-28T09:37:31.000Z</time>
      </trkpt>
      <trkpt lat="43.99736" lon="7.25239">
        <ele>1276</ele>
        <time>2018-07-28T09:37:39.000Z</time>
      </trkpt>
      <trkpt lat="43.9974" lon="7.25241">
        <ele>1278</ele>
        <time>2018-07-28T09:37:45.000Z</time>
      </trkpt>
      <trkpt lat="43.9974" lon="7.25241">
        <ele>1278</ele>
        <time>2018-07-28T09:37:47.000Z</time>
      </trkpt>
      <trkpt lat="43.99744" lon="7.25243">
        <ele>1281</ele>
        <time>2018-07-28T09:37:52.000Z</time>
      </trkpt>
      <trkpt lat="43.99745" lon="7.25243">
        <ele>1282</ele>
        <time>2018-07-28T09:37:55.000Z</time>
      </trkpt>
      <trkpt lat="43.99748" lon="7.25242">
        <ele>1282</ele>
        <time>2018-07-28T09:38:00.000Z</time>
      </trkpt>
      <trkpt lat="43.99749" lon="7.25243">
        <ele>1283</ele>
        <time>2018-07-28T09:38:04.000Z</time>
      </trkpt>
      <trkpt lat="43.99751" lon="7.25243">
        <ele>1294</ele>
        <time>2018-07-28T09:38:08.000Z</time>
      </trkpt>
      <trkpt lat="43.99752" lon="7.25244">
        <ele>1294</ele>
        <time>2018-07-28T09:38:12.000Z</time>
      </trkpt>
      <trkpt lat="43.99753" lon="7.25243">
        <ele>1295</ele>
        <time>2018-07-28T09:38:17.000Z</time>
      </trkpt>
      <trkpt lat="43.99754" lon="7.25244">
        <ele>1295</ele>
        <time>2018-07-28T09:38:18.000Z</time>
      </trkpt>
      <trkpt lat="43.99757" lon="7.25244">
        <ele>1296</ele>
        <time>2018-07-28T09:38:25.000Z</time>
      </trkpt>
      <trkpt lat="43.99758" lon="7.25244">
        <ele>1296</ele>
        <time>2018-07-28T09:38:27.000Z</time>
      </trkpt>
      <trkpt lat="43.99758" lon="7.25246">
        <ele>1296</ele>
        <time>2018-07-28T09:38:32.000Z</time>
      </trkpt>
      <trkpt lat="43.99756" lon="7.25248">
        <ele>1294</ele>
        <time>2018-07-28T09:38:36.000Z</time>
      </trkpt>
      <trkpt lat="43.99755" lon="7.25249">
        <ele>1293</ele>
        <time>2018-07-28T09:38:39.000Z</time>
      </trkpt>
      <trkpt lat="43.99752" lon="7.25251">
        <ele>1291</ele>
        <time>2018-07-28T09:38:44.000Z</time>
      </trkpt>
      <trkpt lat="43.9975" lon="7.25253">
        <ele>1292</ele>
        <time>2018-07-28T09:38:47.000Z</time>
      </trkpt>
      <trkpt lat="43.99749" lon="7.25256">
        <ele>1282</ele>
        <time>2018-07-28T09:38:52.000Z</time>
      </trkpt>
      <trkpt lat="43.99747" lon="7.25257">
        <ele>1281</ele>
        <time>2018-07-28T09:38:55.000Z</time>
      </trkpt>
      <trkpt lat="43.99746" lon="7.25259">
        <ele>1278</ele>
        <time>2018-07-28T09:38:59.000Z</time>
      </trkpt>
      <trkpt lat="43.99747" lon="7.25261">
        <ele>1277</ele>
        <time>2018-07-28T09:39:03.000Z</time>
      </trkpt>
      <trkpt lat="43.99749" lon="7.2526">
        <ele>1278</ele>
        <time>2018-07-28T09:39:06.000Z</time>
      </trkpt>
      <trkpt lat="43.99753" lon="7.25259">
        <ele>1295</ele>
        <time>2018-07-28T09:39:11.000Z</time>
      </trkpt>
      <trkpt lat="43.99757" lon="7.2526">
        <ele>1296</ele>
        <time>2018-07-28T09:39:16.000Z</time>
      </trkpt>
      <trkpt lat="43.99758" lon="7.25261">
        <ele>1296</ele>
        <time>2018-07-28T09:39:18.000Z</time>
      </trkpt>
      <trkpt lat="43.9976" lon="7.25262">
        <ele>1297</ele>
        <time>2018-07-28T09:39:23.000Z</time>
      </trkpt>
      <trkpt lat="43.99762" lon="7.25262">
        <ele>1298</ele>
        <time>2018-07-28T09:39:25.000Z</time>
      </trkpt>
      <trkpt lat="43.99765" lon="7.25262">
        <ele>1298</ele>
        <time>2018-07-28T09:39:29.000Z</time>
      </trkpt>
      <trkpt lat="43.99768" lon="7.25261">
        <ele>1300</ele>
        <time>2018-07-28T09:39:33.000Z</time>
      </trkpt>
      <trkpt lat="43.99774" lon="7.25263">
        <ele>1302</ele>
        <time>2018-07-28T09:39:41.000Z</time>
      </trkpt>
      <trkpt lat="43.99778" lon="7.25263">
        <ele>1303</ele>
        <time>2018-07-28T09:39:47.000Z</time>
      </trkpt>
      <trkpt lat="43.99783" lon="7.25261">
        <ele>1305</ele>
        <time>2018-07-28T09:39:55.000Z</time>
      </trkpt>
      <trkpt lat="43.99783" lon="7.25261">
        <ele>1305</ele>
        <time>2018-07-28T09:39:56.000Z</time>
      </trkpt>
      <trkpt lat="43.99788" lon="7.25258">
        <ele>1307</ele>
        <time>2018-07-28T09:40:04.000Z</time>
      </trkpt>
      <trkpt lat="43.99788" lon="7.25257">
        <ele>1307</ele>
        <time>2018-07-28T09:40:05.000Z</time>
      </trkpt>
      <trkpt lat="43.99791" lon="7.25256">
        <ele>1309</ele>
        <time>2018-07-28T09:40:12.000Z</time>
      </trkpt>
      <trkpt lat="43.99792" lon="7.25256">
        <ele>1309</ele>
        <time>2018-07-28T09:40:20.000Z</time>
      </trkpt>
      <trkpt lat="43.99792" lon="7.25256">
        <ele>1309</ele>
        <time>2018-07-28T09:40:33.000Z</time>
      </trkpt>
      <trkpt lat="43.99794" lon="7.25253">
        <ele>1310</ele>
        <time>2018-07-28T09:40:40.000Z</time>
      </trkpt>
      <trkpt lat="43.99795" lon="7.25251">
        <ele>1311</ele>
        <time>2018-07-28T09:40:45.000Z</time>
      </trkpt>
      <trkpt lat="43.99799" lon="7.25247">
        <ele>1314</ele>
        <time>2018-07-28T09:40:50.000Z</time>
      </trkpt>
      <trkpt lat="43.998" lon="7.25245">
        <ele>1314</ele>
        <time>2018-07-28T09:40:51.000Z</time>
      </trkpt>
      <trkpt lat="43.99802" lon="7.25239">
        <ele>1315</ele>
        <time>2018-07-28T09:40:57.000Z</time>
      </trkpt>
      <trkpt lat="43.99806" lon="7.25232">
        <ele>1316</ele>
        <time>2018-07-28T09:41:04.000Z</time>
      </trkpt>
      <trkpt lat="43.9981" lon="7.25222">
        <ele>1316</ele>
        <time>2018-07-28T09:41:11.000Z</time>
      </trkpt>
      <trkpt lat="43.99812" lon="7.25219">
        <ele>1316</ele>
        <time>2018-07-28T09:41:15.000Z</time>
      </trkpt>
      <trkpt lat="43.99813" lon="7.25217">
        <ele>1316</ele>
        <time>2018-07-28T09:41:30.000Z</time>
      </trkpt>
      <trkpt lat="43.99814" lon="7.25216">
        <ele>1316</ele>
        <time>2018-07-28T09:41:36.000Z</time>
      </trkpt>
      <trkpt lat="43.99814" lon="7.25217">
        <ele>1316</ele>
        <time>2018-07-28T09:41:37.000Z</time>
      </trkpt>
      <trkpt lat="43.99815" lon="7.25214">
        <ele>1316</ele>
        <time>2018-07-28T09:41:43.000Z</time>
      </trkpt>
      <trkpt lat="43.99818" lon="7.25213">
        <ele>1316</ele>
        <time>2018-07-28T09:41:47.000Z</time>
      </trkpt>
      <trkpt lat="43.99819" lon="7.25212">
        <ele>1316</ele>
        <time>2018-07-28T09:41:48.000Z</time>
      </trkpt>
      <trkpt lat="43.99822" lon="7.25207">
        <ele>1317</ele>
        <time>2018-07-28T09:41:52.000Z</time>
      </trkpt>
      <trkpt lat="43.99823" lon="7.25206">
        <ele>1317</ele>
        <time>2018-07-28T09:41:53.000Z</time>
      </trkpt>
      <trkpt lat="43.99826" lon="7.25201">
        <ele>1317</ele>
        <time>2018-07-28T09:41:56.000Z</time>
      </trkpt>
      <trkpt lat="43.99827" lon="7.25198">
        <ele>1317</ele>
        <time>2018-07-28T09:41:58.000Z</time>
      </trkpt>
      <trkpt lat="43.99828" lon="7.25197">
        <ele>1317</ele>
        <time>2018-07-28T09:41:59.000Z</time>
      </trkpt>
      <trkpt lat="43.9983" lon="7.25191">
        <ele>1318</ele>
        <time>2018-07-28T09:42:04.000Z</time>
      </trkpt>
      <trkpt lat="43.9983" lon="7.25191">
        <ele>1318</ele>
        <time>2018-07-28T09:42:05.000Z</time>
      </trkpt>
      <trkpt lat="43.99832" lon="7.25189">
        <ele>1319</ele>
        <time>2018-07-28T09:42:11.000Z</time>
      </trkpt>
      <trkpt lat="43.99833" lon="7.25186">
        <ele>1345</ele>
        <time>2018-07-28T09:42:15.000Z</time>
      </trkpt>
      <trkpt lat="43.99834" lon="7.25184">
        <ele>1344</ele>
        <time>2018-07-28T09:42:17.000Z</time>
      </trkpt>
      <trkpt lat="43.99835" lon="7.25182">
        <ele>1343</ele>
        <time>2018-07-28T09:42:22.000Z</time>
      </trkpt>
      <trkpt lat="43.99835" lon="7.25181">
        <ele>1343</ele>
        <time>2018-07-28T09:42:23.000Z</time>
      </trkpt>
      <trkpt lat="43.99836" lon="7.25177">
        <ele>1340</ele>
        <time>2018-07-28T09:42:27.000Z</time>
      </trkpt>
      <trkpt lat="43.99836" lon="7.25176">
        <ele>1339</ele>
        <time>2018-07-28T09:42:28.000Z</time>
      </trkpt>
      <trkpt lat="43.99837" lon="7.25172">
        <ele>1335</ele>
        <time>2018-07-28T09:42:33.000Z</time>
      </trkpt>
      <trkpt lat="43.99836" lon="7.25169">
        <ele>1332</ele>
        <time>2018-07-28T09:42:35.000Z</time>
      </trkpt>
      <trkpt lat="43.99835" lon="7.25162">
        <ele>1333</ele>
        <time>2018-07-28T09:42:40.000Z</time>
      </trkpt>
      <trkpt lat="43.99835" lon="7.25151">
        <ele>1340</ele>
        <time>2018-07-28T09:42:44.000Z</time>
      </trkpt>
      <trkpt lat="43.99835" lon="7.25148">
        <ele>1341</ele>
        <time>2018-07-28T09:42:45.000Z</time>
      </trkpt>
      <trkpt lat="43.99836" lon="7.25141">
        <ele>1343</ele>
        <time>2018-07-28T09:42:48.000Z</time>
      </trkpt>
      <trkpt lat="43.99836" lon="7.25135">
        <ele>1344</ele>
        <time>2018-07-28T09:42:53.000Z</time>
      </trkpt>
      <trkpt lat="43.99836" lon="7.25131">
        <ele>1344</ele>
        <time>2018-07-28T09:42:56.000Z</time>
      </trkpt>
      <trkpt lat="43.99836" lon="7.2513">
        <ele>1344</ele>
        <time>2018-07-28T09:42:59.000Z</time>
      </trkpt>
      <trkpt lat="43.99836" lon="7.25126">
        <ele>1344</ele>
        <time>2018-07-28T09:43:01.000Z</time>
      </trkpt>
      <trkpt lat="43.99837" lon="7.2512">
        <ele>1344</ele>
        <time>2018-07-28T09:43:04.000Z</time>
      </trkpt>
      <trkpt lat="43.9984" lon="7.25101">
        <ele>1338</ele>
        <time>2018-07-28T09:43:09.000Z</time>
      </trkpt>
      <trkpt lat="43.99844" lon="7.25082">
        <ele>1328</ele>
        <time>2018-07-28T09:43:13.000Z</time>
      </trkpt>
      <trkpt lat="43.99847" lon="7.25068">
        <ele>1333</ele>
        <time>2018-07-28T09:43:17.000Z</time>
      </trkpt>
      <trkpt lat="43.99852" lon="7.25053">
        <ele>1336</ele>
        <time>2018-07-28T09:43:23.000Z</time>
      </trkpt>
      <trkpt lat="43.99854" lon="7.2504">
        <ele>1336</ele>
        <time>2018-07-28T09:43:27.000Z</time>
      </trkpt>
      <trkpt lat="43.99857" lon="7.25028">
        <ele>1334</ele>
        <time>2018-07-28T09:43:31.000Z</time>
      </trkpt>
      <trkpt lat="43.9986" lon="7.25007">
        <ele>1332</ele>
        <time>2018-07-28T09:43:37.000Z</time>
      </trkpt>
      <trkpt lat="43.99862" lon="7.24999">
        <ele>1319</ele>
        <time>2018-07-28T09:43:40.000Z</time>
      </trkpt>
      <trkpt lat="43.99863" lon="7.24998">
        <ele>1319</ele>
        <time>2018-07-28T09:43:41.000Z</time>
      </trkpt>
      <trkpt lat="43.99865" lon="7.24994">
        <ele>1320</ele>
        <time>2018-07-28T09:43:43.000Z</time>
      </trkpt>
      <trkpt lat="43.99868" lon="7.24987">
        <ele>1321</ele>
        <time>2018-07-28T09:43:47.000Z</time>
      </trkpt>
      <trkpt lat="43.9987" lon="7.24983">
        <ele>1321</ele>
        <time>2018-07-28T09:43:49.000Z</time>
      </trkpt>
      <trkpt lat="43.99871" lon="7.24981">
        <ele>1321</ele>
        <time>2018-07-28T09:43:51.000Z</time>
      </trkpt>
      <trkpt lat="43.99873" lon="7.24977">
        <ele>1321</ele>
        <time>2018-07-28T09:43:53.000Z</time>
      </trkpt>
      <trkpt lat="43.99874" lon="7.24976">
        <ele>1322</ele>
        <time>2018-07-28T09:43:54.000Z</time>
      </trkpt>
      <trkpt lat="43.99879" lon="7.24969">
        <ele>1322</ele>
        <time>2018-07-28T09:43:58.000Z</time>
      </trkpt>
      <trkpt lat="43.99881" lon="7.24966">
        <ele>1322</ele>
        <time>2018-07-28T09:44:00.000Z</time>
      </trkpt>
      <trkpt lat="43.99886" lon="7.24958">
        <ele>1322</ele>
        <time>2018-07-28T09:44:04.000Z</time>
      </trkpt>
      <trkpt lat="43.99891" lon="7.24954">
        <ele>1322</ele>
        <time>2018-07-28T09:44:07.000Z</time>
      </trkpt>
      <trkpt lat="43.99895" lon="7.2495">
        <ele>1322</ele>
        <time>2018-07-28T09:44:10.000Z</time>
      </trkpt>
      <trkpt lat="43.99898" lon="7.24946">
        <ele>1322</ele>
        <time>2018-07-28T09:44:13.000Z</time>
      </trkpt>
      <trkpt lat="43.99901" lon="7.24943">
        <ele>1322</ele>
        <time>2018-07-28T09:44:15.000Z</time>
      </trkpt>
      <trkpt lat="43.99902" lon="7.24942">
        <ele>1322</ele>
        <time>2018-07-28T09:44:16.000Z</time>
      </trkpt>
      <trkpt lat="43.99908" lon="7.24939">
        <ele>1323</ele>
        <time>2018-07-28T09:44:21.000Z</time>
      </trkpt>
      <trkpt lat="43.99909" lon="7.24938">
        <ele>1323</ele>
        <time>2018-07-28T09:44:22.000Z</time>
      </trkpt>
      <trkpt lat="43.99912" lon="7.24937">
        <ele>1323</ele>
        <time>2018-07-28T09:44:25.000Z</time>
      </trkpt>
      <trkpt lat="43.99916" lon="7.24936">
        <ele>1323</ele>
        <time>2018-07-28T09:44:29.000Z</time>
      </trkpt>
      <trkpt lat="43.99919" lon="7.24935">
        <ele>1335</ele>
        <time>2018-07-28T09:44:31.000Z</time>
      </trkpt>
      <trkpt lat="43.99922" lon="7.24935">
        <ele>1336</ele>
        <time>2018-07-28T09:44:35.000Z</time>
      </trkpt>
      <trkpt lat="43.99925" lon="7.24934">
        <ele>1336</ele>
        <time>2018-07-28T09:44:42.000Z</time>
      </trkpt>
      <trkpt lat="43.99927" lon="7.24934">
        <ele>1336</ele>
        <time>2018-07-28T09:44:45.000Z</time>
      </trkpt>
      <trkpt lat="43.9993" lon="7.24934">
        <ele>1337</ele>
        <time>2018-07-28T09:44:49.000Z</time>
      </trkpt>
      <trkpt lat="43.99931" lon="7.24935">
        <ele>1337</ele>
        <time>2018-07-28T09:44:50.000Z</time>
      </trkpt>
      <trkpt lat="43.99935" lon="7.24936">
        <ele>1338</ele>
        <time>2018-07-28T09:44:56.000Z</time>
      </trkpt>
      <trkpt lat="43.99937" lon="7.24937">
        <ele>1338</ele>
        <time>2018-07-28T09:44:58.000Z</time>
      </trkpt>
      <trkpt lat="43.99939" lon="7.24936">
        <ele>1339</ele>
        <time>2018-07-28T09:45:02.000Z</time>
      </trkpt>
      <trkpt lat="43.99942" lon="7.24938">
        <ele>1340</ele>
        <time>2018-07-28T09:45:04.000Z</time>
      </trkpt>
      <trkpt lat="43.99945" lon="7.24941">
        <ele>1341</ele>
        <time>2018-07-28T09:45:07.000Z</time>
      </trkpt>
      <trkpt lat="43.99949" lon="7.24939">
        <ele>1341</ele>
        <time>2018-07-28T09:45:11.000Z</time>
      </trkpt>
      <trkpt lat="43.99951" lon="7.24938">
        <ele>1341</ele>
        <time>2018-07-28T09:45:12.000Z</time>
      </trkpt>
      <trkpt lat="43.99956" lon="7.24939">
        <ele>1341</ele>
        <time>2018-07-28T09:45:15.000Z</time>
      </trkpt>
      <trkpt lat="43.99957" lon="7.24941">
        <ele>1342</ele>
        <time>2018-07-28T09:45:16.000Z</time>
      </trkpt>
      <trkpt lat="43.99961" lon="7.24943">
        <ele>1342</ele>
        <time>2018-07-28T09:45:20.000Z</time>
      </trkpt>
      <trkpt lat="43.99964" lon="7.24943">
        <ele>1342</ele>
        <time>2018-07-28T09:45:26.000Z</time>
      </trkpt>
      <trkpt lat="43.99971" lon="7.24947">
        <ele>1343</ele>
        <time>2018-07-28T09:45:31.000Z</time>
      </trkpt>
      <trkpt lat="43.99972" lon="7.24947">
        <ele>1343</ele>
        <time>2018-07-28T09:45:32.000Z</time>
      </trkpt>
      <trkpt lat="43.99974" lon="7.24948">
        <ele>1344</ele>
        <time>2018-07-28T09:45:33.000Z</time>
      </trkpt>
      <trkpt lat="43.99978" lon="7.24951">
        <ele>1344</ele>
        <time>2018-07-28T09:45:37.000Z</time>
      </trkpt>
      <trkpt lat="43.99985" lon="7.24955">
        <ele>1345</ele>
        <time>2018-07-28T09:45:44.000Z</time>
      </trkpt>
      <trkpt lat="43.99987" lon="7.24955">
        <ele>1345</ele>
        <time>2018-07-28T09:45:45.000Z</time>
      </trkpt>
      <trkpt lat="43.99993" lon="7.24955">
        <ele>1345</ele>
        <time>2018-07-28T09:45:49.000Z</time>
      </trkpt>
      <trkpt lat="43.99994" lon="7.24955">
        <ele>1346</ele>
        <time>2018-07-28T09:45:50.000Z</time>
      </trkpt>
      <trkpt lat="44.00002" lon="7.24959">
        <ele>1350</ele>
        <time>2018-07-28T09:45:55.000Z</time>
      </trkpt>
      <trkpt lat="44.00006" lon="7.24962">
        <ele>1350</ele>
        <time>2018-07-28T09:45:57.000Z</time>
      </trkpt>
      <trkpt lat="44.00008" lon="7.24965">
        <ele>1351</ele>
        <time>2018-07-28T09:45:59.000Z</time>
      </trkpt>
      <trkpt lat="44.00017" lon="7.24974">
        <ele>1353</ele>
        <time>2018-07-28T09:46:05.000Z</time>
      </trkpt>
      <trkpt lat="44.00025" lon="7.24978">
        <ele>1353</ele>
        <time>2018-07-28T09:46:09.000Z</time>
      </trkpt>
      <trkpt lat="44.00031" lon="7.24981">
        <ele>1353</ele>
        <time>2018-07-28T09:46:13.000Z</time>
      </trkpt>
      <trkpt lat="44.00035" lon="7.24982">
        <ele>1353</ele>
        <time>2018-07-28T09:46:16.000Z</time>
      </trkpt>
      <trkpt lat="44.0004" lon="7.24983">
        <ele>1353</ele>
        <time>2018-07-28T09:46:19.000Z</time>
      </trkpt>
      <trkpt lat="44.00043" lon="7.24983">
        <ele>1353</ele>
        <time>2018-07-28T09:46:21.000Z</time>
      </trkpt>
      <trkpt lat="44.00049" lon="7.24983">
        <ele>1353</ele>
        <time>2018-07-28T09:46:25.000Z</time>
      </trkpt>
      <trkpt lat="44.00052" lon="7.24984">
        <ele>1353</ele>
        <time>2018-07-28T09:46:28.000Z</time>
      </trkpt>
      <trkpt lat="44.00054" lon="7.24984">
        <ele>1353</ele>
        <time>2018-07-28T09:46:29.000Z</time>
      </trkpt>
      <trkpt lat="44.00057" lon="7.24985">
        <ele>1353</ele>
        <time>2018-07-28T09:46:31.000Z</time>
      </trkpt>
      <trkpt lat="44.00057" lon="7.24985">
        <ele>1353</ele>
        <time>2018-07-28T09:46:32.000Z</time>
      </trkpt>
      <trkpt lat="44.00058" lon="7.24987">
        <ele>1353</ele>
        <time>2018-07-28T09:46:36.000Z</time>
      </trkpt>
      <trkpt lat="44.0006" lon="7.24988">
        <ele>1353</ele>
        <time>2018-07-28T09:46:40.000Z</time>
      </trkpt>
      <trkpt lat="44.00061" lon="7.24989">
        <ele>1353</ele>
        <time>2018-07-28T09:46:42.000Z</time>
      </trkpt>
      <trkpt lat="44.00064" lon="7.24991">
        <ele>1354</ele>
        <time>2018-07-28T09:46:47.000Z</time>
      </trkpt>
      <trkpt lat="44.00065" lon="7.24991">
        <ele>1354</ele>
        <time>2018-07-28T09:46:50.000Z</time>
      </trkpt>
      <trkpt lat="44.00068" lon="7.24994">
        <ele>1354</ele>
        <time>2018-07-28T09:46:54.000Z</time>
      </trkpt>
      <trkpt lat="44.0007" lon="7.24996">
        <ele>1354</ele>
        <time>2018-07-28T09:46:59.000Z</time>
      </trkpt>
      <trkpt lat="44.00072" lon="7.24998">
        <ele>1355</ele>
        <time>2018-07-28T09:47:02.000Z</time>
      </trkpt>
      <trkpt lat="44.00076" lon="7.25001">
        <ele>1364</ele>
        <time>2018-07-28T09:47:07.000Z</time>
      </trkpt>
      <trkpt lat="44.00077" lon="7.25003">
        <ele>1364</ele>
        <time>2018-07-28T09:47:09.000Z</time>
      </trkpt>
      <trkpt lat="44.00081" lon="7.25006">
        <ele>1363</ele>
        <time>2018-07-28T09:47:15.000Z</time>
      </trkpt>
      <trkpt lat="44.00086" lon="7.25009">
        <ele>1365</ele>
        <time>2018-07-28T09:47:21.000Z</time>
      </trkpt>
      <trkpt lat="44.00087" lon="7.25009">
        <ele>1365</ele>
        <time>2018-07-28T09:47:22.000Z</time>
      </trkpt>
      <trkpt lat="44.00088" lon="7.2501">
        <ele>1366</ele>
        <time>2018-07-28T09:47:27.000Z</time>
      </trkpt>
      <trkpt lat="44.00093" lon="7.25011">
        <ele>1368</ele>
        <time>2018-07-28T09:47:32.000Z</time>
      </trkpt>
      <trkpt lat="44.00098" lon="7.25013">
        <ele>1371</ele>
        <time>2018-07-28T09:47:36.000Z</time>
      </trkpt>
      <trkpt lat="44.00102" lon="7.25015">
        <ele>1372</ele>
        <time>2018-07-28T09:47:39.000Z</time>
      </trkpt>
      <trkpt lat="44.00105" lon="7.25015">
        <ele>1373</ele>
        <time>2018-07-28T09:47:42.000Z</time>
      </trkpt>
      <trkpt lat="44.00107" lon="7.25014">
        <ele>1373</ele>
        <time>2018-07-28T09:47:45.000Z</time>
      </trkpt>
      <trkpt lat="44.00109" lon="7.25013">
        <ele>1373</ele>
        <time>2018-07-28T09:47:47.000Z</time>
      </trkpt>
      <trkpt lat="44.0011" lon="7.25013">
        <ele>1374</ele>
        <time>2018-07-28T09:47:48.000Z</time>
      </trkpt>
      <trkpt lat="44.00116" lon="7.25013">
        <ele>1375</ele>
        <time>2018-07-28T09:47:54.000Z</time>
      </trkpt>
      <trkpt lat="44.00118" lon="7.25014">
        <ele>1375</ele>
        <time>2018-07-28T09:47:55.000Z</time>
      </trkpt>
      <trkpt lat="44.00123" lon="7.25015">
        <ele>1376</ele>
        <time>2018-07-28T09:47:59.000Z</time>
      </trkpt>
      <trkpt lat="44.00129" lon="7.25012">
        <ele>1376</ele>
        <time>2018-07-28T09:48:04.000Z</time>
      </trkpt>
      <trkpt lat="44.00131" lon="7.2501">
        <ele>1376</ele>
        <time>2018-07-28T09:48:09.000Z</time>
      </trkpt>
      <trkpt lat="44.00133" lon="7.2501">
        <ele>1376</ele>
        <time>2018-07-28T09:48:13.000Z</time>
      </trkpt>
      <trkpt lat="44.00136" lon="7.25008">
        <ele>1376</ele>
        <time>2018-07-28T09:48:18.000Z</time>
      </trkpt>
      <trkpt lat="44.00139" lon="7.25005">
        <ele>1376</ele>
        <time>2018-07-28T09:48:24.000Z</time>
      </trkpt>
      <trkpt lat="44.00144" lon="7.25001">
        <ele>1375</ele>
        <time>2018-07-28T09:48:31.000Z</time>
      </trkpt>
      <trkpt lat="44.00145" lon="7.25">
        <ele>1375</ele>
        <time>2018-07-28T09:48:32.000Z</time>
      </trkpt>
      <trkpt lat="44.00146" lon="7.24998">
        <ele>1365</ele>
        <time>2018-07-28T09:48:35.000Z</time>
      </trkpt>
      <trkpt lat="44.00148" lon="7.24996">
        <ele>1365</ele>
        <time>2018-07-28T09:48:37.000Z</time>
      </trkpt>
      <trkpt lat="44.00159" lon="7.2498">
        <ele>1365</ele>
        <time>2018-07-28T09:48:47.000Z</time>
      </trkpt>
      <trkpt lat="44.00173" lon="7.24958">
        <ele>1376</ele>
        <time>2018-07-28T09:48:55.000Z</time>
      </trkpt>
      <trkpt lat="44.00183" lon="7.24944">
        <ele>1376</ele>
        <time>2018-07-28T09:49:01.000Z</time>
      </trkpt>
      <trkpt lat="44.00189" lon="7.24935">
        <ele>1376</ele>
        <time>2018-07-28T09:49:06.000Z</time>
      </trkpt>
      <trkpt lat="44.0019" lon="7.24934">
        <ele>1376</ele>
        <time>2018-07-28T09:49:07.000Z</time>
      </trkpt>
      <trkpt lat="44.00193" lon="7.24931">
        <ele>1377</ele>
        <time>2018-07-28T09:49:10.000Z</time>
      </trkpt>
      <trkpt lat="44.00197" lon="7.24927">
        <ele>1377</ele>
        <time>2018-07-28T09:49:14.000Z</time>
      </trkpt>
      <trkpt lat="44.00202" lon="7.24923">
        <ele>1378</ele>
        <time>2018-07-28T09:49:18.000Z</time>
      </trkpt>
      <trkpt lat="44.00205" lon="7.2492">
        <ele>1379</ele>
        <time>2018-07-28T09:49:21.000Z</time>
      </trkpt>
      <trkpt lat="44.00206" lon="7.24918">
        <ele>1379</ele>
        <time>2018-07-28T09:49:23.000Z</time>
      </trkpt>
      <trkpt lat="44.00207" lon="7.24917">
        <ele>1379</ele>
        <time>2018-07-28T09:49:27.000Z</time>
      </trkpt>
      <trkpt lat="44.0021" lon="7.24915">
        <ele>1378</ele>
        <time>2018-07-28T09:49:32.000Z</time>
      </trkpt>
      <trkpt lat="44.0021" lon="7.24914">
        <ele>1378</ele>
        <time>2018-07-28T09:49:33.000Z</time>
      </trkpt>
      <trkpt lat="44.00214" lon="7.24909">
        <ele>1379</ele>
        <time>2018-07-28T09:49:40.000Z</time>
      </trkpt>
      <trkpt lat="44.00214" lon="7.24908">
        <ele>1379</ele>
        <time>2018-07-28T09:49:41.000Z</time>
      </trkpt>
      <trkpt lat="44.00217" lon="7.24905">
        <ele>1380</ele>
        <time>2018-07-28T09:49:46.000Z</time>
      </trkpt>
      <trkpt lat="44.00218" lon="7.24903">
        <ele>1380</ele>
        <time>2018-07-28T09:49:49.000Z</time>
      </trkpt>
      <trkpt lat="44.00221" lon="7.24899">
        <ele>1380</ele>
        <time>2018-07-28T09:49:55.000Z</time>
      </trkpt>
      <trkpt lat="44.00222" lon="7.24898">
        <ele>1381</ele>
        <time>2018-07-28T09:49:56.000Z</time>
      </trkpt>
      <trkpt lat="44.00224" lon="7.24894">
        <ele>1381</ele>
        <time>2018-07-28T09:50:03.000Z</time>
      </trkpt>
      <trkpt lat="44.00226" lon="7.24891">
        <ele>1381</ele>
        <time>2018-07-28T09:50:09.000Z</time>
      </trkpt>
      <trkpt lat="44.00228" lon="7.24887">
        <ele>1381</ele>
        <time>2018-07-28T09:50:13.000Z</time>
      </trkpt>
      <trkpt lat="44.00229" lon="7.24885">
        <ele>1381</ele>
        <time>2018-07-28T09:50:16.000Z</time>
      </trkpt>
      <trkpt lat="44.00231" lon="7.24881">
        <ele>1381</ele>
        <time>2018-07-28T09:50:22.000Z</time>
      </trkpt>
      <trkpt lat="44.00234" lon="7.24876">
        <ele>1382</ele>
        <time>2018-07-28T09:50:29.000Z</time>
      </trkpt>
      <trkpt lat="44.00235" lon="7.24874">
        <ele>1382</ele>
        <time>2018-07-28T09:50:31.000Z</time>
      </trkpt>
      <trkpt lat="44.00236" lon="7.2487">
        <ele>1382</ele>
        <time>2018-07-28T09:50:37.000Z</time>
      </trkpt>
      <trkpt lat="44.00238" lon="7.24867">
        <ele>1382</ele>
        <time>2018-07-28T09:50:41.000Z</time>
      </trkpt>
      <trkpt lat="44.00239" lon="7.24863">
        <ele>1382</ele>
        <time>2018-07-28T09:50:45.000Z</time>
      </trkpt>
      <trkpt lat="44.0024" lon="7.2486">
        <ele>1383</ele>
        <time>2018-07-28T09:50:47.000Z</time>
      </trkpt>
      <trkpt lat="44.00241" lon="7.24857">
        <ele>1383</ele>
        <time>2018-07-28T09:50:51.000Z</time>
      </trkpt>
      <trkpt lat="44.00242" lon="7.24855">
        <ele>1384</ele>
        <time>2018-07-28T09:50:54.000Z</time>
      </trkpt>
      <trkpt lat="44.00244" lon="7.24852">
        <ele>1384</ele>
        <time>2018-07-28T09:50:57.000Z</time>
      </trkpt>
      <trkpt lat="44.00246" lon="7.24848">
        <ele>1385</ele>
        <time>2018-07-28T09:51:02.000Z</time>
      </trkpt>
      <trkpt lat="44.00247" lon="7.24847">
        <ele>1385</ele>
        <time>2018-07-28T09:51:04.000Z</time>
      </trkpt>
      <trkpt lat="44.00249" lon="7.24845">
        <ele>1386</ele>
        <time>2018-07-28T09:51:09.000Z</time>
      </trkpt>
      <trkpt lat="44.0025" lon="7.24844">
        <ele>1397</ele>
        <time>2018-07-28T09:51:12.000Z</time>
      </trkpt>
      <trkpt lat="44.00254" lon="7.24844">
        <ele>1397</ele>
        <time>2018-07-28T09:51:17.000Z</time>
      </trkpt>
      <trkpt lat="44.00254" lon="7.24844">
        <ele>1397</ele>
        <time>2018-07-28T09:51:19.000Z</time>
      </trkpt>
      <trkpt lat="44.00257" lon="7.24844">
        <ele>1398</ele>
        <time>2018-07-28T09:51:25.000Z</time>
      </trkpt>
      <trkpt lat="44.00261" lon="7.24846">
        <ele>1400</ele>
        <time>2018-07-28T09:51:31.000Z</time>
      </trkpt>
      <trkpt lat="44.00262" lon="7.24848">
        <ele>1400</ele>
        <time>2018-07-28T09:51:34.000Z</time>
      </trkpt>
      <trkpt lat="44.00264" lon="7.2485">
        <ele>1401</ele>
        <time>2018-07-28T09:51:37.000Z</time>
      </trkpt>
      <trkpt lat="44.00266" lon="7.24853">
        <ele>1402</ele>
        <time>2018-07-28T09:51:42.000Z</time>
      </trkpt>
      <trkpt lat="44.00267" lon="7.24854">
        <ele>1403</ele>
        <time>2018-07-28T09:51:43.000Z</time>
      </trkpt>
      <trkpt lat="44.00268" lon="7.24856">
        <ele>1403</ele>
        <time>2018-07-28T09:51:47.000Z</time>
      </trkpt>
      <trkpt lat="44.00271" lon="7.2486">
        <ele>1405</ele>
        <time>2018-07-28T09:51:52.000Z</time>
      </trkpt>
      <trkpt lat="44.00274" lon="7.24864">
        <ele>1406</ele>
        <time>2018-07-28T09:51:58.000Z</time>
      </trkpt>
      <trkpt lat="44.00275" lon="7.24865">
        <ele>1406</ele>
        <time>2018-07-28T09:52:00.000Z</time>
      </trkpt>
      <trkpt lat="44.00277" lon="7.24868">
        <ele>1406</ele>
        <time>2018-07-28T09:52:04.000Z</time>
      </trkpt>
      <trkpt lat="44.00279" lon="7.24871">
        <ele>1407</ele>
        <time>2018-07-28T09:52:09.000Z</time>
      </trkpt>
      <trkpt lat="44.00279" lon="7.24871">
        <ele>1407</ele>
        <time>2018-07-28T09:52:10.000Z</time>
      </trkpt>
      <trkpt lat="44.00283" lon="7.24873">
        <ele>1408</ele>
        <time>2018-07-28T09:52:15.000Z</time>
      </trkpt>
      <trkpt lat="44.00283" lon="7.24872">
        <ele>1408</ele>
        <time>2018-07-28T09:52:16.000Z</time>
      </trkpt>
      <trkpt lat="44.00286" lon="7.2487">
        <ele>1409</ele>
        <time>2018-07-28T09:52:21.000Z</time>
      </trkpt>
      <trkpt lat="44.00287" lon="7.24869">
        <ele>1409</ele>
        <time>2018-07-28T09:52:23.000Z</time>
      </trkpt>
      <trkpt lat="44.0029" lon="7.24866">
        <ele>1409</ele>
        <time>2018-07-28T09:52:27.000Z</time>
      </trkpt>
      <trkpt lat="44.00293" lon="7.24863">
        <ele>1410</ele>
        <time>2018-07-28T09:52:32.000Z</time>
      </trkpt>
      <trkpt lat="44.00294" lon="7.24863">
        <ele>1410</ele>
        <time>2018-07-28T09:52:33.000Z</time>
      </trkpt>
      <trkpt lat="44.00298" lon="7.2486">
        <ele>1411</ele>
        <time>2018-07-28T09:52:39.000Z</time>
      </trkpt>
      <trkpt lat="44.00299" lon="7.2486">
        <ele>1412</ele>
        <time>2018-07-28T09:52:40.000Z</time>
      </trkpt>
      <trkpt lat="44.00301" lon="7.24859">
        <ele>1412</ele>
        <time>2018-07-28T09:52:45.000Z</time>
      </trkpt>
      <trkpt lat="44.00301" lon="7.24859">
        <ele>1412</ele>
        <time>2018-07-28T09:52:46.000Z</time>
      </trkpt>
      <trkpt lat="44.00305" lon="7.24859">
        <ele>1413</ele>
        <time>2018-07-28T09:52:53.000Z</time>
      </trkpt>
      <trkpt lat="44.00306" lon="7.2486">
        <ele>1413</ele>
        <time>2018-07-28T09:52:54.000Z</time>
      </trkpt>
      <trkpt lat="44.00308" lon="7.24864">
        <ele>1414</ele>
        <time>2018-07-28T09:53:00.000Z</time>
      </trkpt>
      <trkpt lat="44.00308" lon="7.24865">
        <ele>1414</ele>
        <time>2018-07-28T09:53:01.000Z</time>
      </trkpt>
      <trkpt lat="44.0031" lon="7.24866">
        <ele>1414</ele>
        <time>2018-07-28T09:53:06.000Z</time>
      </trkpt>
      <trkpt lat="44.00312" lon="7.24869">
        <ele>1414</ele>
        <time>2018-07-28T09:53:10.000Z</time>
      </trkpt>
      <trkpt lat="44.00313" lon="7.24869">
        <ele>1415</ele>
        <time>2018-07-28T09:53:14.000Z</time>
      </trkpt>
      <trkpt lat="44.00315" lon="7.24871">
        <ele>1415</ele>
        <time>2018-07-28T09:53:17.000Z</time>
      </trkpt>
      <trkpt lat="44.00317" lon="7.24871">
        <ele>1415</ele>
        <time>2018-07-28T09:53:22.000Z</time>
      </trkpt>
      <trkpt lat="44.00318" lon="7.24871">
        <ele>1416</ele>
        <time>2018-07-28T09:53:25.000Z</time>
      </trkpt>
      <trkpt lat="44.0032" lon="7.24872">
        <ele>1416</ele>
        <time>2018-07-28T09:53:29.000Z</time>
      </trkpt>
      <trkpt lat="44.00322" lon="7.24871">
        <ele>1416</ele>
        <time>2018-07-28T09:53:32.000Z</time>
      </trkpt>
      <trkpt lat="44.00323" lon="7.2487">
        <ele>1416</ele>
        <time>2018-07-28T09:53:37.000Z</time>
      </trkpt>
      <trkpt lat="44.00326" lon="7.24869">
        <ele>1417</ele>
        <time>2018-07-28T09:53:41.000Z</time>
      </trkpt>
      <trkpt lat="44.00326" lon="7.24869">
        <ele>1417</ele>
        <time>2018-07-28T09:53:44.000Z</time>
      </trkpt>
      <trkpt lat="44.00329" lon="7.24868">
        <ele>1417</ele>
        <time>2018-07-28T09:53:51.000Z</time>
      </trkpt>
      <trkpt lat="44.00333" lon="7.24867">
        <ele>1418</ele>
        <time>2018-07-28T09:53:57.000Z</time>
      </trkpt>
      <trkpt lat="44.00335" lon="7.24865">
        <ele>1443</ele>
        <time>2018-07-28T09:54:02.000Z</time>
      </trkpt>
      <trkpt lat="44.00337" lon="7.24863">
        <ele>1443</ele>
        <time>2018-07-28T09:54:04.000Z</time>
      </trkpt>
      <trkpt lat="44.00337" lon="7.24862">
        <ele>1443</ele>
        <time>2018-07-28T09:54:05.000Z</time>
      </trkpt>
      <trkpt lat="44.0034" lon="7.2486">
        <ele>1442</ele>
        <time>2018-07-28T09:54:09.000Z</time>
      </trkpt>
      <trkpt lat="44.00341" lon="7.24858">
        <ele>1442</ele>
        <time>2018-07-28T09:54:11.000Z</time>
      </trkpt>
      <trkpt lat="44.00341" lon="7.24857">
        <ele>1442</ele>
        <time>2018-07-28T09:54:12.000Z</time>
      </trkpt>
      <trkpt lat="44.00342" lon="7.24856">
        <ele>1442</ele>
        <time>2018-07-28T09:54:15.000Z</time>
      </trkpt>
      <trkpt lat="44.00341" lon="7.24854">
        <ele>1441</ele>
        <time>2018-07-28T09:54:16.000Z</time>
      </trkpt>
      <trkpt lat="44.00341" lon="7.24853">
        <ele>1441</ele>
        <time>2018-07-28T09:54:17.000Z</time>
      </trkpt>
      <trkpt lat="44.00341" lon="7.24848">
        <ele>1439</ele>
        <time>2018-07-28T09:54:20.000Z</time>
      </trkpt>
      <trkpt lat="44.0034" lon="7.24846">
        <ele>1438</ele>
        <time>2018-07-28T09:54:22.000Z</time>
      </trkpt>
      <trkpt lat="44.0034" lon="7.24841">
        <ele>1435</ele>
        <time>2018-07-28T09:54:26.000Z</time>
      </trkpt>
      <trkpt lat="44.00339" lon="7.24839">
        <ele>1434</ele>
        <time>2018-07-28T09:54:28.000Z</time>
      </trkpt>
      <trkpt lat="44.00338" lon="7.24826">
        <ele>1435</ele>
        <time>2018-07-28T09:54:35.000Z</time>
      </trkpt>
      <trkpt lat="44.00337" lon="7.24814">
        <ele>1441</ele>
        <time>2018-07-28T09:54:41.000Z</time>
      </trkpt>
      <trkpt lat="44.00337" lon="7.24798">
        <ele>1446</ele>
        <time>2018-07-28T09:54:47.000Z</time>
      </trkpt>
      <trkpt lat="44.00335" lon="7.24784">
        <ele>1447</ele>
        <time>2018-07-28T09:54:52.000Z</time>
      </trkpt>
      <trkpt lat="44.00334" lon="7.24776">
        <ele>1446</ele>
        <time>2018-07-28T09:54:55.000Z</time>
      </trkpt>
      <trkpt lat="44.00332" lon="7.24768">
        <ele>1425</ele>
        <time>2018-07-28T09:54:58.000Z</time>
      </trkpt>
      <trkpt lat="44.0033" lon="7.24754">
        <ele>1432</ele>
        <time>2018-07-28T09:55:04.000Z</time>
      </trkpt>
      <trkpt lat="44.0033" lon="7.2475">
        <ele>1433</ele>
        <time>2018-07-28T09:55:06.000Z</time>
      </trkpt>
      <trkpt lat="44.0033" lon="7.24747">
        <ele>1434</ele>
        <time>2018-07-28T09:55:08.000Z</time>
      </trkpt>
      <trkpt lat="44.00331" lon="7.24747">
        <ele>1434</ele>
        <time>2018-07-28T09:55:10.000Z</time>
      </trkpt>
      <trkpt lat="44.00331" lon="7.24744">
        <ele>1433</ele>
        <time>2018-07-28T09:55:11.000Z</time>
      </trkpt>
      <trkpt lat="44.00331" lon="7.24741">
        <ele>1432</ele>
        <time>2018-07-28T09:55:15.000Z</time>
      </trkpt>
      <trkpt lat="44.00331" lon="7.2474">
        <ele>1432</ele>
        <time>2018-07-28T09:55:16.000Z</time>
      </trkpt>
      <trkpt lat="44.00332" lon="7.24734">
        <ele>1431</ele>
        <time>2018-07-28T09:55:22.000Z</time>
      </trkpt>
      <trkpt lat="44.00332" lon="7.24732">
        <ele>1430</ele>
        <time>2018-07-28T09:55:24.000Z</time>
      </trkpt>
      <trkpt lat="44.00333" lon="7.24729">
        <ele>1430</ele>
        <time>2018-07-28T09:55:29.000Z</time>
      </trkpt>
      <trkpt lat="44.00333" lon="7.24728">
        <ele>1430</ele>
        <time>2018-07-28T09:55:30.000Z</time>
      </trkpt>
      <trkpt lat="44.00334" lon="7.24725">
        <ele>1452</ele>
        <time>2018-07-28T09:55:35.000Z</time>
      </trkpt>
      <trkpt lat="44.00334" lon="7.24721">
        <ele>1453</ele>
        <time>2018-07-28T09:55:40.000Z</time>
      </trkpt>
      <trkpt lat="44.00334" lon="7.24721">
        <ele>1453</ele>
        <time>2018-07-28T09:55:42.000Z</time>
      </trkpt>
      <trkpt lat="44.00335" lon="7.24718">
        <ele>1453</ele>
        <time>2018-07-28T09:55:45.000Z</time>
      </trkpt>
      <trkpt lat="44.00335" lon="7.24715">
        <ele>1454</ele>
        <time>2018-07-28T09:55:48.000Z</time>
      </trkpt>
      <trkpt lat="44.00334" lon="7.24714">
        <ele>1454</ele>
        <time>2018-07-28T09:55:50.000Z</time>
      </trkpt>
      <trkpt lat="44.00334" lon="7.24711">
        <ele>1454</ele>
        <time>2018-07-28T09:55:55.000Z</time>
      </trkpt>
      <trkpt lat="44.00333" lon="7.24709">
        <ele>1430</ele>
        <time>2018-07-28T09:55:57.000Z</time>
      </trkpt>
      <trkpt lat="44.00332" lon="7.24705">
        <ele>1430</ele>
        <time>2018-07-28T09:56:02.000Z</time>
      </trkpt>
      <trkpt lat="44.00332" lon="7.24704">
        <ele>1430</ele>
        <time>2018-07-28T09:56:03.000Z</time>
      </trkpt>
      <trkpt lat="44.00331" lon="7.24698">
        <ele>1431</ele>
        <time>2018-07-28T09:56:10.000Z</time>
      </trkpt>
      <trkpt lat="44.00331" lon="7.24697">
        <ele>1431</ele>
        <time>2018-07-28T09:56:11.000Z</time>
      </trkpt>
      <trkpt lat="44.00329" lon="7.24691">
        <ele>1432</ele>
        <time>2018-07-28T09:56:17.000Z</time>
      </trkpt>
      <trkpt lat="44.00327" lon="7.24686">
        <ele>1433</ele>
        <time>2018-07-28T09:56:21.000Z</time>
      </trkpt>
      <trkpt lat="44.00326" lon="7.24683">
        <ele>1434</ele>
        <time>2018-07-28T09:56:24.000Z</time>
      </trkpt>
      <trkpt lat="44.00326" lon="7.24681">
        <ele>1435</ele>
        <time>2018-07-28T09:56:29.000Z</time>
      </trkpt>
      <trkpt lat="44.00323" lon="7.24674">
        <ele>1436</ele>
        <time>2018-07-28T09:56:36.000Z</time>
      </trkpt>
      <trkpt lat="44.00323" lon="7.24673">
        <ele>1437</ele>
        <time>2018-07-28T09:56:37.000Z</time>
      </trkpt>
      <trkpt lat="44.00322" lon="7.24664">
        <ele>1437</ele>
        <time>2018-07-28T09:56:44.000Z</time>
      </trkpt>
      <trkpt lat="44.00323" lon="7.24654">
        <ele>1435</ele>
        <time>2018-07-28T09:56:52.000Z</time>
      </trkpt>
      <trkpt lat="44.00326" lon="7.2465">
        <ele>1434</ele>
        <time>2018-07-28T09:56:58.000Z</time>
      </trkpt>
      <trkpt lat="44.00327" lon="7.24649">
        <ele>1434</ele>
        <time>2018-07-28T09:56:59.000Z</time>
      </trkpt>
      <trkpt lat="44.00328" lon="7.24648">
        <ele>1434</ele>
        <time>2018-07-28T09:57:01.000Z</time>
      </trkpt>
      <trkpt lat="44.00331" lon="7.24648">
        <ele>1434</ele>
        <time>2018-07-28T09:57:04.000Z</time>
      </trkpt>
      <trkpt lat="44.00334" lon="7.24648">
        <ele>1450</ele>
        <time>2018-07-28T09:57:07.000Z</time>
      </trkpt>
      <trkpt lat="44.00338" lon="7.24649">
        <ele>1451</ele>
        <time>2018-07-28T09:57:12.000Z</time>
      </trkpt>
      <trkpt lat="44.0034" lon="7.2465">
        <ele>1451</ele>
        <time>2018-07-28T09:57:15.000Z</time>
      </trkpt>
      <trkpt lat="44.00344" lon="7.24651">
        <ele>1451</ele>
        <time>2018-07-28T09:57:20.000Z</time>
      </trkpt>
      <trkpt lat="44.00346" lon="7.24651">
        <ele>1452</ele>
        <time>2018-07-28T09:57:24.000Z</time>
      </trkpt>
      <trkpt lat="44.00347" lon="7.2465">
        <ele>1452</ele>
        <time>2018-07-28T09:57:26.000Z</time>
      </trkpt>
      <trkpt lat="44.0035" lon="7.2465">
        <ele>1453</ele>
        <time>2018-07-28T09:57:31.000Z</time>
      </trkpt>
      <trkpt lat="44.00351" lon="7.2465">
        <ele>1453</ele>
        <time>2018-07-28T09:57:33.000Z</time>
      </trkpt>
      <trkpt lat="44.00351" lon="7.24649">
        <ele>1453</ele>
        <time>2018-07-28T09:57:39.000Z</time>
      </trkpt>
      <trkpt lat="44.00355" lon="7.24649">
        <ele>1454</ele>
        <time>2018-07-28T09:57:45.000Z</time>
      </trkpt>
      <trkpt lat="44.00356" lon="7.24649">
        <ele>1454</ele>
        <time>2018-07-28T09:57:49.000Z</time>
      </trkpt>
      <trkpt lat="44.00357" lon="7.24649">
        <ele>1454</ele>
        <time>2018-07-28T09:57:50.000Z</time>
      </trkpt>
      <trkpt lat="44.0036" lon="7.24648">
        <ele>1455</ele>
        <time>2018-07-28T09:57:56.000Z</time>
      </trkpt>
      <trkpt lat="44.0036" lon="7.24648">
        <ele>1455</ele>
        <time>2018-07-28T09:57:57.000Z</time>
      </trkpt>
      <trkpt lat="44.00363" lon="7.24646">
        <ele>1456</ele>
        <time>2018-07-28T09:58:03.000Z</time>
      </trkpt>
      <trkpt lat="44.00363" lon="7.24647">
        <ele>1456</ele>
        <time>2018-07-28T09:58:04.000Z</time>
      </trkpt>
      <trkpt lat="44.00365" lon="7.24646">
        <ele>1456</ele>
        <time>2018-07-28T09:58:09.000Z</time>
      </trkpt>
      <trkpt lat="44.00366" lon="7.24645">
        <ele>1457</ele>
        <time>2018-07-28T09:58:12.000Z</time>
      </trkpt>
      <trkpt lat="44.00367" lon="7.24643">
        <ele>1457</ele>
        <time>2018-07-28T09:58:15.000Z</time>
      </trkpt>
      <trkpt lat="44.00369" lon="7.24642">
        <ele>1457</ele>
        <time>2018-07-28T09:58:19.000Z</time>
      </trkpt>
      <trkpt lat="44.0037" lon="7.24641">
        <ele>1458</ele>
        <time>2018-07-28T09:58:20.000Z</time>
      </trkpt>
      <trkpt lat="44.00374" lon="7.24639">
        <ele>1458</ele>
        <time>2018-07-28T09:58:26.000Z</time>
      </trkpt>
      <trkpt lat="44.00375" lon="7.24638">
        <ele>1458</ele>
        <time>2018-07-28T09:58:27.000Z</time>
      </trkpt>
      <trkpt lat="44.00378" lon="7.24635">
        <ele>1459</ele>
        <time>2018-07-28T09:58:32.000Z</time>
      </trkpt>
      <trkpt lat="44.0038" lon="7.24633">
        <ele>1459</ele>
        <time>2018-07-28T09:58:35.000Z</time>
      </trkpt>
      <trkpt lat="44.00381" lon="7.24634">
        <ele>1460</ele>
        <time>2018-07-28T09:58:41.000Z</time>
      </trkpt>
      <trkpt lat="44.00383" lon="7.24637">
        <ele>1460</ele>
        <time>2018-07-28T09:58:47.000Z</time>
      </trkpt>
      <trkpt lat="44.00385" lon="7.24635">
        <ele>1461</ele>
        <time>2018-07-28T09:58:50.000Z</time>
      </trkpt>
      <trkpt lat="44.00386" lon="7.24632">
        <ele>1461</ele>
        <time>2018-07-28T09:58:52.000Z</time>
      </trkpt>
      <trkpt lat="44.00387" lon="7.24629">
        <ele>1461</ele>
        <time>2018-07-28T09:58:54.000Z</time>
      </trkpt>
      <trkpt lat="44.0039" lon="7.24624">
        <ele>1461</ele>
        <time>2018-07-28T09:58:58.000Z</time>
      </trkpt>
      <trkpt lat="44.00392" lon="7.2462">
        <ele>1461</ele>
        <time>2018-07-28T09:59:01.000Z</time>
      </trkpt>
      <trkpt lat="44.00394" lon="7.24615">
        <ele>1461</ele>
        <time>2018-07-28T09:59:05.000Z</time>
      </trkpt>
      <trkpt lat="44.00395" lon="7.24614">
        <ele>1461</ele>
        <time>2018-07-28T09:59:06.000Z</time>
      </trkpt>
      <trkpt lat="44.00397" lon="7.24609">
        <ele>1461</ele>
        <time>2018-07-28T09:59:10.000Z</time>
      </trkpt>
      <trkpt lat="44.00398" lon="7.24608">
        <ele>1461</ele>
        <time>2018-07-28T09:59:11.000Z</time>
      </trkpt>
      <trkpt lat="44.004" lon="7.24609">
        <ele>1461</ele>
        <time>2018-07-28T09:59:14.000Z</time>
      </trkpt>
      <trkpt lat="44.004" lon="7.2461">
        <ele>1462</ele>
        <time>2018-07-28T09:59:15.000Z</time>
      </trkpt>
      <trkpt lat="44.004" lon="7.24611">
        <ele>1461</ele>
        <time>2018-07-28T09:59:16.000Z</time>
      </trkpt>
      <trkpt lat="44.00399" lon="7.24612">
        <ele>1461</ele>
        <time>2018-07-28T09:59:17.000Z</time>
      </trkpt>
      <trkpt lat="44.00399" lon="7.24614">
        <ele>1461</ele>
        <time>2018-07-28T09:59:19.000Z</time>
      </trkpt>
      <trkpt lat="44.00396" lon="7.2462">
        <ele>1461</ele>
        <time>2018-07-28T09:59:23.000Z</time>
      </trkpt>
      <trkpt lat="44.00395" lon="7.24622">
        <ele>1461</ele>
        <time>2018-07-28T09:59:25.000Z</time>
      </trkpt>
      <trkpt lat="44.00395" lon="7.24624">
        <ele>1462</ele>
        <time>2018-07-28T09:59:26.000Z</time>
      </trkpt>
      <trkpt lat="44.00395" lon="7.24627">
        <ele>1462</ele>
        <time>2018-07-28T09:59:28.000Z</time>
      </trkpt>
      <trkpt lat="44.00395" lon="7.24627">
        <ele>1462</ele>
        <time>2018-07-28T09:59:29.000Z</time>
      </trkpt>
      <trkpt lat="44.00394" lon="7.24629">
        <ele>1462</ele>
        <time>2018-07-28T09:59:30.000Z</time>
      </trkpt>
      <trkpt lat="44.00394" lon="7.24633">
        <ele>1462</ele>
        <time>2018-07-28T09:59:34.000Z</time>
      </trkpt>
      <trkpt lat="44.00393" lon="7.24634">
        <ele>1462</ele>
        <time>2018-07-28T09:59:35.000Z</time>
      </trkpt>
      <trkpt lat="44.00392" lon="7.24639">
        <ele>1463</ele>
        <time>2018-07-28T09:59:39.000Z</time>
      </trkpt>
      <trkpt lat="44.00392" lon="7.2464">
        <ele>1463</ele>
        <time>2018-07-28T09:59:40.000Z</time>
      </trkpt>
      <trkpt lat="44.00391" lon="7.24641">
        <ele>1463</ele>
        <time>2018-07-28T09:59:41.000Z</time>
      </trkpt>
      <trkpt lat="44.0039" lon="7.24643">
        <ele>1463</ele>
        <time>2018-07-28T09:59:43.000Z</time>
      </trkpt>
      <trkpt lat="44.0039" lon="7.24648">
        <ele>1464</ele>
        <time>2018-07-28T09:59:46.000Z</time>
      </trkpt>
      <trkpt lat="44.00389" lon="7.24652">
        <ele>1464</ele>
        <time>2018-07-28T09:59:49.000Z</time>
      </trkpt>
      <trkpt lat="44.00388" lon="7.24655">
        <ele>1464</ele>
        <time>2018-07-28T09:59:51.000Z</time>
      </trkpt>
      <trkpt lat="44.00388" lon="7.24656">
        <ele>1464</ele>
        <time>2018-07-28T09:59:52.000Z</time>
      </trkpt>
      <trkpt lat="44.00388" lon="7.2466">
        <ele>1465</ele>
        <time>2018-07-28T09:59:55.000Z</time>
      </trkpt>
      <trkpt lat="44.00388" lon="7.24664">
        <ele>1465</ele>
        <time>2018-07-28T09:59:59.000Z</time>
      </trkpt>
      <trkpt lat="44.00389" lon="7.24665">
        <ele>1466</ele>
        <time>2018-07-28T10:00:00.000Z</time>
      </trkpt>
      <trkpt lat="44.00392" lon="7.24665">
        <ele>1467</ele>
        <time>2018-07-28T10:00:04.000Z</time>
      </trkpt>
      <trkpt lat="44.00395" lon="7.24663">
        <ele>1468</ele>
        <time>2018-07-28T10:00:07.000Z</time>
      </trkpt>
      <trkpt lat="44.00398" lon="7.24661">
        <ele>1469</ele>
        <time>2018-07-28T10:00:11.000Z</time>
      </trkpt>
      <trkpt lat="44.00401" lon="7.24659">
        <ele>1471</ele>
        <time>2018-07-28T10:00:15.000Z</time>
      </trkpt>
      <trkpt lat="44.00402" lon="7.24659">
        <ele>1471</ele>
        <time>2018-07-28T10:00:16.000Z</time>
      </trkpt>
      <trkpt lat="44.00402" lon="7.2466">
        <ele>1471</ele>
        <time>2018-07-28T10:00:17.000Z</time>
      </trkpt>
      <trkpt lat="44.00406" lon="7.24659">
        <ele>1473</ele>
        <time>2018-07-28T10:00:22.000Z</time>
      </trkpt>
      <trkpt lat="44.00409" lon="7.24657">
        <ele>1474</ele>
        <time>2018-07-28T10:00:27.000Z</time>
      </trkpt>
      <trkpt lat="44.0041" lon="7.24657">
        <ele>1474</ele>
        <time>2018-07-28T10:00:28.000Z</time>
      </trkpt>
      <trkpt lat="44.00412" lon="7.24656">
        <ele>1474</ele>
        <time>2018-07-28T10:00:33.000Z</time>
      </trkpt>
      <trkpt lat="44.00413" lon="7.24655">
        <ele>1474</ele>
        <time>2018-07-28T10:00:35.000Z</time>
      </trkpt>
      <trkpt lat="44.00416" lon="7.24654">
        <ele>1474</ele>
        <time>2018-07-28T10:00:40.000Z</time>
      </trkpt>
      <trkpt lat="44.00418" lon="7.24653">
        <ele>1491</ele>
        <time>2018-07-28T10:00:43.000Z</time>
      </trkpt>
      <trkpt lat="44.00421" lon="7.24652">
        <ele>1492</ele>
        <time>2018-07-28T10:00:48.000Z</time>
      </trkpt>
      <trkpt lat="44.00422" lon="7.24651">
        <ele>1492</ele>
        <time>2018-07-28T10:00:52.000Z</time>
      </trkpt>
      <trkpt lat="44.00423" lon="7.2465">
        <ele>1492</ele>
        <time>2018-07-28T10:00:53.000Z</time>
      </trkpt>
      <trkpt lat="44.00426" lon="7.24648">
        <ele>1493</ele>
        <time>2018-07-28T10:00:59.000Z</time>
      </trkpt>
      <trkpt lat="44.00427" lon="7.24647">
        <ele>1494</ele>
        <time>2018-07-28T10:01:01.000Z</time>
      </trkpt>
      <trkpt lat="44.00429" lon="7.24646">
        <ele>1494</ele>
        <time>2018-07-28T10:01:06.000Z</time>
      </trkpt>
      <trkpt lat="44.00431" lon="7.24645">
        <ele>1495</ele>
        <time>2018-07-28T10:01:09.000Z</time>
      </trkpt>
      <trkpt lat="44.00432" lon="7.24644">
        <ele>1495</ele>
        <time>2018-07-28T10:01:12.000Z</time>
      </trkpt>
      <trkpt lat="44.00434" lon="7.24642">
        <ele>1496</ele>
        <time>2018-07-28T10:01:17.000Z</time>
      </trkpt>
      <trkpt lat="44.00435" lon="7.24642">
        <ele>1496</ele>
        <time>2018-07-28T10:01:20.000Z</time>
      </trkpt>
      <trkpt lat="44.00438" lon="7.24639">
        <ele>1497</ele>
        <time>2018-07-28T10:01:24.000Z</time>
      </trkpt>
      <trkpt lat="44.00439" lon="7.24637">
        <ele>1497</ele>
        <time>2018-07-28T10:01:27.000Z</time>
      </trkpt>
      <trkpt lat="44.00443" lon="7.24632">
        <ele>1498</ele>
        <time>2018-07-28T10:01:33.000Z</time>
      </trkpt>
      <trkpt lat="44.00444" lon="7.24632">
        <ele>1498</ele>
        <time>2018-07-28T10:01:36.000Z</time>
      </trkpt>
      <trkpt lat="44.00445" lon="7.24632">
        <ele>1499</ele>
        <time>2018-07-28T10:01:41.000Z</time>
      </trkpt>
      <trkpt lat="44.00447" lon="7.24629">
        <ele>1499</ele>
        <time>2018-07-28T10:01:47.000Z</time>
      </trkpt>
      <trkpt lat="44.00451" lon="7.24625">
        <ele>1500</ele>
        <time>2018-07-28T10:01:53.000Z</time>
      </trkpt>
      <trkpt lat="44.00452" lon="7.24623">
        <ele>1500</ele>
        <time>2018-07-28T10:01:55.000Z</time>
      </trkpt>
      <trkpt lat="44.00455" lon="7.2462">
        <ele>1501</ele>
        <time>2018-07-28T10:02:00.000Z</time>
      </trkpt>
      <trkpt lat="44.00457" lon="7.24617">
        <ele>1501</ele>
        <time>2018-07-28T10:02:04.000Z</time>
      </trkpt>
      <trkpt lat="44.00459" lon="7.24614">
        <ele>1501</ele>
        <time>2018-07-28T10:02:08.000Z</time>
      </trkpt>
      <trkpt lat="44.00462" lon="7.24611">
        <ele>1502</ele>
        <time>2018-07-28T10:02:13.000Z</time>
      </trkpt>
      <trkpt lat="44.00462" lon="7.24611">
        <ele>1502</ele>
        <time>2018-07-28T10:02:15.000Z</time>
      </trkpt>
      <trkpt lat="44.00465" lon="7.24608">
        <ele>1503</ele>
        <time>2018-07-28T10:02:19.000Z</time>
      </trkpt>
      <trkpt lat="44.00466" lon="7.24607">
        <ele>1503</ele>
        <time>2018-07-28T10:02:21.000Z</time>
      </trkpt>
      <trkpt lat="44.00468" lon="7.24604">
        <ele>1504</ele>
        <time>2018-07-28T10:02:26.000Z</time>
      </trkpt>
      <trkpt lat="44.00469" lon="7.24603">
        <ele>1504</ele>
        <time>2018-07-28T10:02:27.000Z</time>
      </trkpt>
      <trkpt lat="44.00471" lon="7.24599">
        <ele>1505</ele>
        <time>2018-07-28T10:02:33.000Z</time>
      </trkpt>
      <trkpt lat="44.00471" lon="7.24599">
        <ele>1505</ele>
        <time>2018-07-28T10:02:36.000Z</time>
      </trkpt>
      <trkpt lat="44.00472" lon="7.24594">
        <ele>1506</ele>
        <time>2018-07-28T10:02:42.000Z</time>
      </trkpt>
      <trkpt lat="44.00472" lon="7.24594">
        <ele>1506</ele>
        <time>2018-07-28T10:02:43.000Z</time>
      </trkpt>
      <trkpt lat="44.00475" lon="7.24586">
        <ele>1507</ele>
        <time>2018-07-28T10:02:51.000Z</time>
      </trkpt>
      <trkpt lat="44.00476" lon="7.24584">
        <ele>1508</ele>
        <time>2018-07-28T10:02:54.000Z</time>
      </trkpt>
      <trkpt lat="44.00478" lon="7.24582">
        <ele>1500</ele>
        <time>2018-07-28T10:02:57.000Z</time>
      </trkpt>
      <trkpt lat="44.00482" lon="7.24576">
        <ele>1502</ele>
        <time>2018-07-28T10:03:03.000Z</time>
      </trkpt>
      <trkpt lat="44.00483" lon="7.24575">
        <ele>1502</ele>
        <time>2018-07-28T10:03:05.000Z</time>
      </trkpt>
      <trkpt lat="44.00485" lon="7.24571">
        <ele>1502</ele>
        <time>2018-07-28T10:03:09.000Z</time>
      </trkpt>
      <trkpt lat="44.00487" lon="7.24569">
        <ele>1502</ele>
        <time>2018-07-28T10:03:13.000Z</time>
      </trkpt>
      <trkpt lat="44.00489" lon="7.24566">
        <ele>1502</ele>
        <time>2018-07-28T10:03:16.000Z</time>
      </trkpt>
      <trkpt lat="44.0049" lon="7.24565">
        <ele>1502</ele>
        <time>2018-07-28T10:03:17.000Z</time>
      </trkpt>
      <trkpt lat="44.00491" lon="7.24563">
        <ele>1501</ele>
        <time>2018-07-28T10:03:20.000Z</time>
      </trkpt>
      <trkpt lat="44.00493" lon="7.24557">
        <ele>1499</ele>
        <time>2018-07-28T10:03:26.000Z</time>
      </trkpt>
      <trkpt lat="44.00494" lon="7.24556">
        <ele>1499</ele>
        <time>2018-07-28T10:03:27.000Z</time>
      </trkpt>
      <trkpt lat="44.00496" lon="7.2455">
        <ele>1498</ele>
        <time>2018-07-28T10:03:34.000Z</time>
      </trkpt>
      <trkpt lat="44.00496" lon="7.24549">
        <ele>1497</ele>
        <time>2018-07-28T10:03:35.000Z</time>
      </trkpt>
      <trkpt lat="44.00499" lon="7.24544">
        <ele>1497</ele>
        <time>2018-07-28T10:03:41.000Z</time>
      </trkpt>
      <trkpt lat="44.00501" lon="7.24541">
        <ele>1526</ele>
        <time>2018-07-28T10:03:45.000Z</time>
      </trkpt>
      <trkpt lat="44.00503" lon="7.2454">
        <ele>1525</ele>
        <time>2018-07-28T10:03:48.000Z</time>
      </trkpt>
      <trkpt lat="44.00506" lon="7.24537">
        <ele>1525</ele>
        <time>2018-07-28T10:03:53.000Z</time>
      </trkpt>
      <trkpt lat="44.00506" lon="7.24536">
        <ele>1525</ele>
        <time>2018-07-28T10:03:55.000Z</time>
      </trkpt>
      <trkpt lat="44.0051" lon="7.24534">
        <ele>1525</ele>
        <time>2018-07-28T10:04:01.000Z</time>
      </trkpt>
      <trkpt lat="44.00512" lon="7.24534">
        <ele>1526</ele>
        <time>2018-07-28T10:04:03.000Z</time>
      </trkpt>
      <trkpt lat="44.00515" lon="7.24531">
        <ele>1526</ele>
        <time>2018-07-28T10:04:09.000Z</time>
      </trkpt>
      <trkpt lat="44.00516" lon="7.24531">
        <ele>1526</ele>
        <time>2018-07-28T10:04:10.000Z</time>
      </trkpt>
      <trkpt lat="44.0052" lon="7.24529">
        <ele>1527</ele>
        <time>2018-07-28T10:04:16.000Z</time>
      </trkpt>
      <trkpt lat="44.00522" lon="7.24528">
        <ele>1527</ele>
        <time>2018-07-28T10:04:19.000Z</time>
      </trkpt>
      <trkpt lat="44.00524" lon="7.24527">
        <ele>1527</ele>
        <time>2018-07-28T10:04:23.000Z</time>
      </trkpt>
      <trkpt lat="44.00527" lon="7.24526">
        <ele>1528</ele>
        <time>2018-07-28T10:04:27.000Z</time>
      </trkpt>
      <trkpt lat="44.00529" lon="7.24525">
        <ele>1528</ele>
        <time>2018-07-28T10:04:30.000Z</time>
      </trkpt>
      <trkpt lat="44.00532" lon="7.24524">
        <ele>1529</ele>
        <time>2018-07-28T10:04:34.000Z</time>
      </trkpt>
      <trkpt lat="44.00535" lon="7.24523">
        <ele>1530</ele>
        <time>2018-07-28T10:04:38.000Z</time>
      </trkpt>
      <trkpt lat="44.00537" lon="7.24523">
        <ele>1530</ele>
        <time>2018-07-28T10:04:42.000Z</time>
      </trkpt>
      <trkpt lat="44.00539" lon="7.24521">
        <ele>1531</ele>
        <time>2018-07-28T10:04:45.000Z</time>
      </trkpt>
      <trkpt lat="44.00541" lon="7.2452">
        <ele>1531</ele>
        <time>2018-07-28T10:04:48.000Z</time>
      </trkpt>
      <trkpt lat="44.00543" lon="7.24517">
        <ele>1532</ele>
        <time>2018-07-28T10:04:53.000Z</time>
      </trkpt>
      <trkpt lat="44.00544" lon="7.24515">
        <ele>1532</ele>
        <time>2018-07-28T10:04:55.000Z</time>
      </trkpt>
      <trkpt lat="44.00546" lon="7.24511">
        <ele>1533</ele>
        <time>2018-07-28T10:05:00.000Z</time>
      </trkpt>
      <trkpt lat="44.00546" lon="7.2451">
        <ele>1533</ele>
        <time>2018-07-28T10:05:01.000Z</time>
      </trkpt>
      <trkpt lat="44.00547" lon="7.24502">
        <ele>1533</ele>
        <time>2018-07-28T10:05:09.000Z</time>
      </trkpt>
      <trkpt lat="44.00549" lon="7.24498">
        <ele>1526</ele>
        <time>2018-07-28T10:05:16.000Z</time>
      </trkpt>
      <trkpt lat="44.00551" lon="7.24493">
        <ele>1527</ele>
        <time>2018-07-28T10:05:22.000Z</time>
      </trkpt>
      <trkpt lat="44.00553" lon="7.24491">
        <ele>1527</ele>
        <time>2018-07-28T10:05:25.000Z</time>
      </trkpt>
      <trkpt lat="44.00554" lon="7.2449">
        <ele>1528</ele>
        <time>2018-07-28T10:05:27.000Z</time>
      </trkpt>
      <trkpt lat="44.00556" lon="7.24485">
        <ele>1528</ele>
        <time>2018-07-28T10:05:33.000Z</time>
      </trkpt>
      <trkpt lat="44.00557" lon="7.24485">
        <ele>1528</ele>
        <time>2018-07-28T10:05:34.000Z</time>
      </trkpt>
      <trkpt lat="44.00559" lon="7.2448">
        <ele>1528</ele>
        <time>2018-07-28T10:05:40.000Z</time>
      </trkpt>
      <trkpt lat="44.00561" lon="7.24476">
        <ele>1528</ele>
        <time>2018-07-28T10:05:44.000Z</time>
      </trkpt>
      <trkpt lat="44.00561" lon="7.24476">
        <ele>1528</ele>
        <time>2018-07-28T10:05:45.000Z</time>
      </trkpt>
      <trkpt lat="44.00563" lon="7.24469">
        <ele>1528</ele>
        <time>2018-07-28T10:05:52.000Z</time>
      </trkpt>
      <trkpt lat="44.00564" lon="7.24467">
        <ele>1528</ele>
        <time>2018-07-28T10:05:54.000Z</time>
      </trkpt>
      <trkpt lat="44.00566" lon="7.24463">
        <ele>1527</ele>
        <time>2018-07-28T10:05:58.000Z</time>
      </trkpt>
      <trkpt lat="44.00567" lon="7.24459">
        <ele>1527</ele>
        <time>2018-07-28T10:06:01.000Z</time>
      </trkpt>
      <trkpt lat="44.00567" lon="7.24457">
        <ele>1527</ele>
        <time>2018-07-28T10:06:03.000Z</time>
      </trkpt>
      <trkpt lat="44.00569" lon="7.24451">
        <ele>1527</ele>
        <time>2018-07-28T10:06:09.000Z</time>
      </trkpt>
      <trkpt lat="44.00569" lon="7.24451">
        <ele>1527</ele>
        <time>2018-07-28T10:06:11.000Z</time>
      </trkpt>
      <trkpt lat="44.0057" lon="7.24448">
        <ele>1527</ele>
        <time>2018-07-28T10:06:15.000Z</time>
      </trkpt>
      <trkpt lat="44.0057" lon="7.24446">
        <ele>1527</ele>
        <time>2018-07-28T10:06:16.000Z</time>
      </trkpt>
      <trkpt lat="44.00572" lon="7.24437">
        <ele>1528</ele>
        <time>2018-07-28T10:06:22.000Z</time>
      </trkpt>
      <trkpt lat="44.00573" lon="7.24433">
        <ele>1529</ele>
        <time>2018-07-28T10:06:24.000Z</time>
      </trkpt>
      <trkpt lat="44.00574" lon="7.2443">
        <ele>1530</ele>
        <time>2018-07-28T10:06:26.000Z</time>
      </trkpt>
      <trkpt lat="44.00575" lon="7.24429">
        <ele>1531</ele>
        <time>2018-07-28T10:06:27.000Z</time>
      </trkpt>
      <trkpt lat="44.00576" lon="7.24429">
        <ele>1531</ele>
        <time>2018-07-28T10:06:28.000Z</time>
      </trkpt>
      <trkpt lat="44.0058" lon="7.24426">
        <ele>1532</ele>
        <time>2018-07-28T10:06:32.000Z</time>
      </trkpt>
      <trkpt lat="44.00581" lon="7.24425">
        <ele>1533</ele>
        <time>2018-07-28T10:06:33.000Z</time>
      </trkpt>
      <trkpt lat="44.00585" lon="7.24423">
        <ele>1544</ele>
        <time>2018-07-28T10:06:37.000Z</time>
      </trkpt>
      <trkpt lat="44.00586" lon="7.24423">
        <ele>1544</ele>
        <time>2018-07-28T10:06:38.000Z</time>
      </trkpt>
      <trkpt lat="44.00589" lon="7.24421">
        <ele>1544</ele>
        <time>2018-07-28T10:06:42.000Z</time>
      </trkpt>
      <trkpt lat="44.00593" lon="7.24417">
        <ele>1546</ele>
        <time>2018-07-28T10:06:46.000Z</time>
      </trkpt>
      <trkpt lat="44.00596" lon="7.24415">
        <ele>1545</ele>
        <time>2018-07-28T10:06:48.000Z</time>
      </trkpt>
      <trkpt lat="44.006" lon="7.24411">
        <ele>1547</ele>
        <time>2018-07-28T10:06:52.000Z</time>
      </trkpt>
      <trkpt lat="44.00603" lon="7.24409">
        <ele>1548</ele>
        <time>2018-07-28T10:06:55.000Z</time>
      </trkpt>
      <trkpt lat="44.00606" lon="7.24405">
        <ele>1550</ele>
        <time>2018-07-28T10:06:59.000Z</time>
      </trkpt>
      <trkpt lat="44.00607" lon="7.24404">
        <ele>1550</ele>
        <time>2018-07-28T10:07:00.000Z</time>
      </trkpt>
      <trkpt lat="44.00609" lon="7.24401">
        <ele>1551</ele>
        <time>2018-07-28T10:07:03.000Z</time>
      </trkpt>
      <trkpt lat="44.00611" lon="7.24398">
        <ele>1552</ele>
        <time>2018-07-28T10:07:06.000Z</time>
      </trkpt>
      <trkpt lat="44.00618" lon="7.24392">
        <ele>1553</ele>
        <time>2018-07-28T10:07:13.000Z</time>
      </trkpt>
      <trkpt lat="44.00624" lon="7.24387">
        <ele>1555</ele>
        <time>2018-07-28T10:07:19.000Z</time>
      </trkpt>
      <trkpt lat="44.00626" lon="7.24385">
        <ele>1555</ele>
        <time>2018-07-28T10:07:21.000Z</time>
      </trkpt>
      <trkpt lat="44.0063" lon="7.24381">
        <ele>1556</ele>
        <time>2018-07-28T10:07:26.000Z</time>
      </trkpt>
      <trkpt lat="44.00633" lon="7.24377">
        <ele>1557</ele>
        <time>2018-07-28T10:07:30.000Z</time>
      </trkpt>
      <trkpt lat="44.00635" lon="7.24374">
        <ele>1557</ele>
        <time>2018-07-28T10:07:32.000Z</time>
      </trkpt>
      <trkpt lat="44.00637" lon="7.24372">
        <ele>1557</ele>
        <time>2018-07-28T10:07:34.000Z</time>
      </trkpt>
      <trkpt lat="44.00639" lon="7.24369">
        <ele>1558</ele>
        <time>2018-07-28T10:07:37.000Z</time>
      </trkpt>
      <trkpt lat="44.00642" lon="7.24361">
        <ele>1558</ele>
        <time>2018-07-28T10:07:41.000Z</time>
      </trkpt>
      <trkpt lat="44.00642" lon="7.2436">
        <ele>1559</ele>
        <time>2018-07-28T10:07:42.000Z</time>
      </trkpt>
      <trkpt lat="44.00643" lon="7.24356">
        <ele>1559</ele>
        <time>2018-07-28T10:07:44.000Z</time>
      </trkpt>
      <trkpt lat="44.00646" lon="7.24348">
        <ele>1560</ele>
        <time>2018-07-28T10:07:48.000Z</time>
      </trkpt>
      <trkpt lat="44.00648" lon="7.24345">
        <ele>1561</ele>
        <time>2018-07-28T10:07:51.000Z</time>
      </trkpt>
      <trkpt lat="44.00649" lon="7.24341">
        <ele>1562</ele>
        <time>2018-07-28T10:07:54.000Z</time>
      </trkpt>
      <trkpt lat="44.00649" lon="7.24337">
        <ele>1562</ele>
        <time>2018-07-28T10:07:58.000Z</time>
      </trkpt>
      <trkpt lat="44.0065" lon="7.24334">
        <ele>1562</ele>
        <time>2018-07-28T10:08:00.000Z</time>
      </trkpt>
      <trkpt lat="44.00651" lon="7.24331">
        <ele>1563</ele>
        <time>2018-07-28T10:08:02.000Z</time>
      </trkpt>
      <trkpt lat="44.00652" lon="7.24328">
        <ele>1563</ele>
        <time>2018-07-28T10:08:06.000Z</time>
      </trkpt>
      <trkpt lat="44.00652" lon="7.24327">
        <ele>1563</ele>
        <time>2018-07-28T10:08:07.000Z</time>
      </trkpt>
      <trkpt lat="44.00653" lon="7.24321">
        <ele>1562</ele>
        <time>2018-07-28T10:08:12.000Z</time>
      </trkpt>
      <trkpt lat="44.00653" lon="7.2432">
        <ele>1562</ele>
        <time>2018-07-28T10:08:13.000Z</time>
      </trkpt>
      <trkpt lat="44.00654" lon="7.24315">
        <ele>1562</ele>
        <time>2018-07-28T10:08:18.000Z</time>
      </trkpt>
      <trkpt lat="44.00655" lon="7.24312">
        <ele>1562</ele>
        <time>2018-07-28T10:08:21.000Z</time>
      </trkpt>
      <trkpt lat="44.00655" lon="7.24309">
        <ele>1561</ele>
        <time>2018-07-28T10:08:25.000Z</time>
      </trkpt>
      <trkpt lat="44.00655" lon="7.24307">
        <ele>1561</ele>
        <time>2018-07-28T10:08:26.000Z</time>
      </trkpt>
      <trkpt lat="44.00655" lon="7.24299">
        <ele>1561</ele>
        <time>2018-07-28T10:08:32.000Z</time>
      </trkpt>
      <trkpt lat="44.00656" lon="7.24298">
        <ele>1561</ele>
        <time>2018-07-28T10:08:33.000Z</time>
      </trkpt>
      <trkpt lat="44.00655" lon="7.24292">
        <ele>1561</ele>
        <time>2018-07-28T10:08:37.000Z</time>
      </trkpt>
      <trkpt lat="44.00654" lon="7.24288">
        <ele>1561</ele>
        <time>2018-07-28T10:08:40.000Z</time>
      </trkpt>
      <trkpt lat="44.00653" lon="7.24286">
        <ele>1561</ele>
        <time>2018-07-28T10:08:42.000Z</time>
      </trkpt>
      <trkpt lat="44.00654" lon="7.24282">
        <ele>1561</ele>
        <time>2018-07-28T10:08:47.000Z</time>
      </trkpt>
      <trkpt lat="44.00654" lon="7.24278">
        <ele>1562</ele>
        <time>2018-07-28T10:08:51.000Z</time>
      </trkpt>
      <trkpt lat="44.00655" lon="7.24272">
        <ele>1564</ele>
        <time>2018-07-28T10:08:55.000Z</time>
      </trkpt>
      <trkpt lat="44.00654" lon="7.24265">
        <ele>1565</ele>
        <time>2018-07-28T10:09:00.000Z</time>
      </trkpt>
      <trkpt lat="44.00654" lon="7.2426">
        <ele>1567</ele>
        <time>2018-07-28T10:09:04.000Z</time>
      </trkpt>
      <trkpt lat="44.00653" lon="7.24253">
        <ele>1568</ele>
        <time>2018-07-28T10:09:10.000Z</time>
      </trkpt>
      <trkpt lat="44.00654" lon="7.24253">
        <ele>1568</ele>
        <time>2018-07-28T10:09:12.000Z</time>
      </trkpt>
      <trkpt lat="44.00654" lon="7.24251">
        <ele>1569</ele>
        <time>2018-07-28T10:09:21.000Z</time>
      </trkpt>
      <trkpt lat="44.00656" lon="7.2425">
        <ele>1571</ele>
        <time>2018-07-28T10:09:36.000Z</time>
      </trkpt>
      <trkpt lat="44.00656" lon="7.24249">
        <ele>1571</ele>
        <time>2018-07-28T10:09:43.000Z</time>
      </trkpt>
      <trkpt lat="44.00656" lon="7.24247">
        <ele>1571</ele>
        <time>2018-07-28T10:09:53.000Z</time>
      </trkpt>
      <trkpt lat="44.00656" lon="7.24245">
        <ele>1571</ele>
        <time>2018-07-28T10:10:09.000Z</time>
      </trkpt>
      <trkpt lat="44.00657" lon="7.24241">
        <ele>1570</ele>
        <time>2018-07-28T10:10:18.000Z</time>
      </trkpt>
      <trkpt lat="44.00658" lon="7.24238">
        <ele>1570</ele>
        <time>2018-07-28T10:10:23.000Z</time>
      </trkpt>
      <trkpt lat="44.00659" lon="7.24237">
        <ele>1570</ele>
        <time>2018-07-28T10:10:24.000Z</time>
      </trkpt>
      <trkpt lat="44.00659" lon="7.2423">
        <ele>1568</ele>
        <time>2018-07-28T10:10:32.000Z</time>
      </trkpt>
      <trkpt lat="44.00659" lon="7.24229">
        <ele>1568</ele>
        <time>2018-07-28T10:10:33.000Z</time>
      </trkpt>
      <trkpt lat="44.00659" lon="7.24225">
        <ele>1568</ele>
        <time>2018-07-28T10:10:39.000Z</time>
      </trkpt>
      <trkpt lat="44.00659" lon="7.24221">
        <ele>1567</ele>
        <time>2018-07-28T10:10:44.000Z</time>
      </trkpt>
      <trkpt lat="44.0066" lon="7.2422">
        <ele>1567</ele>
        <time>2018-07-28T10:10:46.000Z</time>
      </trkpt>
      <trkpt lat="44.0066" lon="7.24218">
        <ele>1567</ele>
        <time>2018-07-28T10:10:50.000Z</time>
      </trkpt>
      <trkpt lat="44.00661" lon="7.24216">
        <ele>1567</ele>
        <time>2018-07-28T10:10:53.000Z</time>
      </trkpt>
      <trkpt lat="44.00662" lon="7.24214">
        <ele>1567</ele>
        <time>2018-07-28T10:10:57.000Z</time>
      </trkpt>
      <trkpt lat="44.00665" lon="7.24212">
        <ele>1568</ele>
        <time>2018-07-28T10:11:03.000Z</time>
      </trkpt>
      <trkpt lat="44.00665" lon="7.24211">
        <ele>1568</ele>
        <time>2018-07-28T10:11:04.000Z</time>
      </trkpt>
      <trkpt lat="44.00666" lon="7.24209">
        <ele>1568</ele>
        <time>2018-07-28T10:11:10.000Z</time>
      </trkpt>
      <trkpt lat="44.00667" lon="7.24207">
        <ele>1590</ele>
        <time>2018-07-28T10:11:13.000Z</time>
      </trkpt>
      <trkpt lat="44.00668" lon="7.24206">
        <ele>1590</ele>
        <time>2018-07-28T10:11:17.000Z</time>
      </trkpt>
      <trkpt lat="44.00669" lon="7.24204">
        <ele>1590</ele>
        <time>2018-07-28T10:11:22.000Z</time>
      </trkpt>
      <trkpt lat="44.00669" lon="7.24204">
        <ele>1590</ele>
        <time>2018-07-28T10:11:23.000Z</time>
      </trkpt>
      <trkpt lat="44.00671" lon="7.24204">
        <ele>1591</ele>
        <time>2018-07-28T10:11:29.000Z</time>
      </trkpt>
      <trkpt lat="44.00674" lon="7.24203">
        <ele>1591</ele>
        <time>2018-07-28T10:11:35.000Z</time>
      </trkpt>
      <trkpt lat="44.00675" lon="7.24202">
        <ele>1591</ele>
        <time>2018-07-28T10:11:37.000Z</time>
      </trkpt>
      <trkpt lat="44.00677" lon="7.24201">
        <ele>1591</ele>
        <time>2018-07-28T10:11:42.000Z</time>
      </trkpt>
      <trkpt lat="44.00678" lon="7.242">
        <ele>1591</ele>
        <time>2018-07-28T10:11:44.000Z</time>
      </trkpt>
      <trkpt lat="44.00679" lon="7.242">
        <ele>1591</ele>
        <time>2018-07-28T10:11:47.000Z</time>
      </trkpt>
      <trkpt lat="44.00681" lon="7.24199">
        <ele>1592</ele>
        <time>2018-07-28T10:11:51.000Z</time>
      </trkpt>
      <trkpt lat="44.00682" lon="7.24198">
        <ele>1592</ele>
        <time>2018-07-28T10:11:53.000Z</time>
      </trkpt>
      <trkpt lat="44.00684" lon="7.24195">
        <ele>1592</ele>
        <time>2018-07-28T10:11:59.000Z</time>
      </trkpt>
      <trkpt lat="44.00685" lon="7.24194">
        <ele>1592</ele>
        <time>2018-07-28T10:12:00.000Z</time>
      </trkpt>
      <trkpt lat="44.00686" lon="7.24192">
        <ele>1592</ele>
        <time>2018-07-28T10:12:15.000Z</time>
      </trkpt>
      <trkpt lat="44.00688" lon="7.24191">
        <ele>1592</ele>
        <time>2018-07-28T10:12:24.000Z</time>
      </trkpt>
      <trkpt lat="44.00691" lon="7.24187">
        <ele>1593</ele>
        <time>2018-07-28T10:12:30.000Z</time>
      </trkpt>
      <trkpt lat="44.00692" lon="7.24186">
        <ele>1593</ele>
        <time>2018-07-28T10:12:31.000Z</time>
      </trkpt>
      <trkpt lat="44.00693" lon="7.24185">
        <ele>1593</ele>
        <time>2018-07-28T10:12:32.000Z</time>
      </trkpt>
      <trkpt lat="44.00695" lon="7.2418">
        <ele>1593</ele>
        <time>2018-07-28T10:12:36.000Z</time>
      </trkpt>
      <trkpt lat="44.00696" lon="7.24179">
        <ele>1593</ele>
        <time>2018-07-28T10:12:37.000Z</time>
      </trkpt>
      <trkpt lat="44.00697" lon="7.24178">
        <ele>1594</ele>
        <time>2018-07-28T10:12:38.000Z</time>
      </trkpt>
      <trkpt lat="44.00703" lon="7.24173">
        <ele>1595</ele>
        <time>2018-07-28T10:12:43.000Z</time>
      </trkpt>
      <trkpt lat="44.00704" lon="7.24172">
        <ele>1595</ele>
        <time>2018-07-28T10:12:44.000Z</time>
      </trkpt>
      <trkpt lat="44.00707" lon="7.2417">
        <ele>1596</ele>
        <time>2018-07-28T10:12:47.000Z</time>
      </trkpt>
      <trkpt lat="44.00709" lon="7.24167">
        <ele>1597</ele>
        <time>2018-07-28T10:12:50.000Z</time>
      </trkpt>
      <trkpt lat="44.00709" lon="7.24166">
        <ele>1595</ele>
        <time>2018-07-28T10:12:51.000Z</time>
      </trkpt>
      <trkpt lat="44.0071" lon="7.24165">
        <ele>1595</ele>
        <time>2018-07-28T10:12:52.000Z</time>
      </trkpt>
      <trkpt lat="44.0071" lon="7.24163">
        <ele>1595</ele>
        <time>2018-07-28T10:12:53.000Z</time>
      </trkpt>
      <trkpt lat="44.00714" lon="7.24161">
        <ele>1596</ele>
        <time>2018-07-28T10:12:56.000Z</time>
      </trkpt>
      <trkpt lat="44.00714" lon="7.24161">
        <ele>1596</ele>
        <time>2018-07-28T10:12:57.000Z</time>
      </trkpt>
      <trkpt lat="44.00717" lon="7.24157">
        <ele>1596</ele>
        <time>2018-07-28T10:13:00.000Z</time>
      </trkpt>
      <trkpt lat="44.00718" lon="7.24156">
        <ele>1597</ele>
        <time>2018-07-28T10:13:01.000Z</time>
      </trkpt>
      <trkpt lat="44.00721" lon="7.24153">
        <ele>1597</ele>
        <time>2018-07-28T10:13:05.000Z</time>
      </trkpt>
      <trkpt lat="44.00722" lon="7.24152">
        <ele>1597</ele>
        <time>2018-07-28T10:13:06.000Z</time>
      </trkpt>
      <trkpt lat="44.00725" lon="7.24149">
        <ele>1598</ele>
        <time>2018-07-28T10:13:10.000Z</time>
      </trkpt>
      <trkpt lat="44.00726" lon="7.24148">
        <ele>1598</ele>
        <time>2018-07-28T10:13:11.000Z</time>
      </trkpt>
      <trkpt lat="44.00728" lon="7.24147">
        <ele>1598</ele>
        <time>2018-07-28T10:13:13.000Z</time>
      </trkpt>
      <trkpt lat="44.0073" lon="7.24143">
        <ele>1598</ele>
        <time>2018-07-28T10:13:17.000Z</time>
      </trkpt>
      <trkpt lat="44.00731" lon="7.24142">
        <ele>1598</ele>
        <time>2018-07-28T10:13:18.000Z</time>
      </trkpt>
      <trkpt lat="44.00733" lon="7.2414">
        <ele>1598</ele>
        <time>2018-07-28T10:13:21.000Z</time>
      </trkpt>
      <trkpt lat="44.00736" lon="7.24139">
        <ele>1599</ele>
        <time>2018-07-28T10:13:23.000Z</time>
      </trkpt>
      <trkpt lat="44.00741" lon="7.24136">
        <ele>1599</ele>
        <time>2018-07-28T10:13:28.000Z</time>
      </trkpt>
      <trkpt lat="44.00742" lon="7.24135">
        <ele>1599</ele>
        <time>2018-07-28T10:13:29.000Z</time>
      </trkpt>
      <trkpt lat="44.00744" lon="7.24131">
        <ele>1598</ele>
        <time>2018-07-28T10:13:33.000Z</time>
      </trkpt>
      <trkpt lat="44.00746" lon="7.24129">
        <ele>1598</ele>
        <time>2018-07-28T10:13:35.000Z</time>
      </trkpt>
      <trkpt lat="44.00749" lon="7.24126">
        <ele>1598</ele>
        <time>2018-07-28T10:13:39.000Z</time>
      </trkpt>
      <trkpt lat="44.00754" lon="7.24122">
        <ele>1612</ele>
        <time>2018-07-28T10:13:43.000Z</time>
      </trkpt>
      <trkpt lat="44.0076" lon="7.24116">
        <ele>1612</ele>
        <time>2018-07-28T10:13:49.000Z</time>
      </trkpt>
      <trkpt lat="44.0076" lon="7.24115">
        <ele>1612</ele>
        <time>2018-07-28T10:13:50.000Z</time>
      </trkpt>
      <trkpt lat="44.00764" lon="7.24113">
        <ele>1612</ele>
        <time>2018-07-28T10:13:55.000Z</time>
      </trkpt>
      <trkpt lat="44.00765" lon="7.24112">
        <ele>1612</ele>
        <time>2018-07-28T10:13:56.000Z</time>
      </trkpt>
      <trkpt lat="44.00766" lon="7.24112">
        <ele>1612</ele>
        <time>2018-07-28T10:13:58.000Z</time>
      </trkpt>
      <trkpt lat="44.00767" lon="7.24112">
        <ele>1612</ele>
        <time>2018-07-28T10:14:02.000Z</time>
      </trkpt>
      <trkpt lat="44.00768" lon="7.24112">
        <ele>1612</ele>
        <time>2018-07-28T10:14:14.000Z</time>
      </trkpt>
      <trkpt lat="44.00767" lon="7.24113">
        <ele>1612</ele>
        <time>2018-07-28T10:14:21.000Z</time>
      </trkpt>
      <trkpt lat="44.00767" lon="7.24112">
        <ele>1612</ele>
        <time>2018-07-28T10:14:24.000Z</time>
      </trkpt>
      <trkpt lat="44.00769" lon="7.24109">
        <ele>1612</ele>
        <time>2018-07-28T10:14:30.000Z</time>
      </trkpt>
      <trkpt lat="44.0077" lon="7.24107">
        <ele>1612</ele>
        <time>2018-07-28T10:14:32.000Z</time>
      </trkpt>
      <trkpt lat="44.00772" lon="7.24105">
        <ele>1612</ele>
        <time>2018-07-28T10:14:34.000Z</time>
      </trkpt>
      <trkpt lat="44.00773" lon="7.24104">
        <ele>1612</ele>
        <time>2018-07-28T10:14:35.000Z</time>
      </trkpt>
      <trkpt lat="44.00776" lon="7.24101">
        <ele>1612</ele>
        <time>2018-07-28T10:14:39.000Z</time>
      </trkpt>
      <trkpt lat="44.00777" lon="7.24099">
        <ele>1612</ele>
        <time>2018-07-28T10:14:40.000Z</time>
      </trkpt>
      <trkpt lat="44.00779" lon="7.24097">
        <ele>1612</ele>
        <time>2018-07-28T10:14:42.000Z</time>
      </trkpt>
      <trkpt lat="44.00782" lon="7.24094">
        <ele>1613</ele>
        <time>2018-07-28T10:14:45.000Z</time>
      </trkpt>
      <trkpt lat="44.00783" lon="7.24094">
        <ele>1613</ele>
        <time>2018-07-28T10:14:46.000Z</time>
      </trkpt>
      <trkpt lat="44.00785" lon="7.24092">
        <ele>1613</ele>
        <time>2018-07-28T10:14:51.000Z</time>
      </trkpt>
      <trkpt lat="44.00786" lon="7.24092">
        <ele>1613</ele>
        <time>2018-07-28T10:14:52.000Z</time>
      </trkpt>
      <trkpt lat="44.00788" lon="7.24089">
        <ele>1614</ele>
        <time>2018-07-28T10:14:58.000Z</time>
      </trkpt>
      <trkpt lat="44.00789" lon="7.24088">
        <ele>1614</ele>
        <time>2018-07-28T10:15:00.000Z</time>
      </trkpt>
      <trkpt lat="44.00792" lon="7.24087">
        <ele>1614</ele>
        <time>2018-07-28T10:15:05.000Z</time>
      </trkpt>
      <trkpt lat="44.00792" lon="7.24087">
        <ele>1614</ele>
        <time>2018-07-28T10:15:07.000Z</time>
      </trkpt>
      <trkpt lat="44.00794" lon="7.24088">
        <ele>1615</ele>
        <time>2018-07-28T10:15:12.000Z</time>
      </trkpt>
      <trkpt lat="44.00794" lon="7.24088">
        <ele>1615</ele>
        <time>2018-07-28T10:15:13.000Z</time>
      </trkpt>
      <trkpt lat="44.00797" lon="7.24086">
        <ele>1615</ele>
        <time>2018-07-28T10:15:19.000Z</time>
      </trkpt>
      <trkpt lat="44.00798" lon="7.24085">
        <ele>1615</ele>
        <time>2018-07-28T10:15:20.000Z</time>
      </trkpt>
      <trkpt lat="44.00801" lon="7.24082">
        <ele>1611</ele>
        <time>2018-07-28T10:15:28.000Z</time>
      </trkpt>
      <trkpt lat="44.00802" lon="7.24081">
        <ele>1611</ele>
        <time>2018-07-28T10:15:38.000Z</time>
      </trkpt>
      <trkpt lat="44.00806" lon="7.24083">
        <ele>1616</ele>
        <time>2018-07-28T10:15:47.000Z</time>
      </trkpt>
      <trkpt lat="44.00812" lon="7.24086">
        <ele>1617</ele>
        <time>2018-07-28T10:15:55.000Z</time>
      </trkpt>
      <trkpt lat="44.00813" lon="7.24087">
        <ele>1617</ele>
        <time>2018-07-28T10:15:56.000Z</time>
      </trkpt>
      <trkpt lat="44.00814" lon="7.24089">
        <ele>1618</ele>
        <time>2018-07-28T10:16:01.000Z</time>
      </trkpt>
      <trkpt lat="44.00814" lon="7.2409">
        <ele>1618</ele>
        <time>2018-07-28T10:16:02.000Z</time>
      </trkpt>
      <trkpt lat="44.00814" lon="7.24091">
        <ele>1618</ele>
        <time>2018-07-28T10:16:06.000Z</time>
      </trkpt>
      <trkpt lat="44.00816" lon="7.2409">
        <ele>1618</ele>
        <time>2018-07-28T10:16:09.000Z</time>
      </trkpt>
      <trkpt lat="44.00817" lon="7.24089">
        <ele>1618</ele>
        <time>2018-07-28T10:16:10.000Z</time>
      </trkpt>
      <trkpt lat="44.00821" lon="7.24087">
        <ele>1618</ele>
        <time>2018-07-28T10:16:14.000Z</time>
      </trkpt>
      <trkpt lat="44.00822" lon="7.24086">
        <ele>1619</ele>
        <time>2018-07-28T10:16:16.000Z</time>
      </trkpt>
      <trkpt lat="44.00826" lon="7.24084">
        <ele>1619</ele>
        <time>2018-07-28T10:16:23.000Z</time>
      </trkpt>
      <trkpt lat="44.00829" lon="7.24084">
        <ele>1619</ele>
        <time>2018-07-28T10:16:29.000Z</time>
      </trkpt>
      <trkpt lat="44.00831" lon="7.24084">
        <ele>1620</ele>
        <time>2018-07-28T10:16:32.000Z</time>
      </trkpt>
      <trkpt lat="44.00833" lon="7.24088">
        <ele>1620</ele>
        <time>2018-07-28T10:16:36.000Z</time>
      </trkpt>
      <trkpt lat="44.00834" lon="7.24089">
        <ele>1624</ele>
        <time>2018-07-28T10:16:40.000Z</time>
      </trkpt>
      <trkpt lat="44.00834" lon="7.24093">
        <ele>1627</ele>
        <time>2018-07-28T10:16:48.000Z</time>
      </trkpt>
      <trkpt lat="44.00832" lon="7.24097">
        <ele>1619</ele>
        <time>2018-07-28T10:16:53.000Z</time>
      </trkpt>
      <trkpt lat="44.00831" lon="7.24104">
        <ele>1619</ele>
        <time>2018-07-28T10:16:59.000Z</time>
      </trkpt>
      <trkpt lat="44.00831" lon="7.24105">
        <ele>1619</ele>
        <time>2018-07-28T10:17:00.000Z</time>
      </trkpt>
      <trkpt lat="44.00829" lon="7.24111">
        <ele>1619</ele>
        <time>2018-07-28T10:17:04.000Z</time>
      </trkpt>
      <trkpt lat="44.00827" lon="7.24114">
        <ele>1620</ele>
        <time>2018-07-28T10:17:07.000Z</time>
      </trkpt>
      <trkpt lat="44.00826" lon="7.24119">
        <ele>1620</ele>
        <time>2018-07-28T10:17:10.000Z</time>
      </trkpt>
      <trkpt lat="44.00825" lon="7.24124">
        <ele>1620</ele>
        <time>2018-07-28T10:17:14.000Z</time>
      </trkpt>
      <trkpt lat="44.00823" lon="7.24128">
        <ele>1621</ele>
        <time>2018-07-28T10:17:17.000Z</time>
      </trkpt>
      <trkpt lat="44.0082" lon="7.24134">
        <ele>1621</ele>
        <time>2018-07-28T10:17:22.000Z</time>
      </trkpt>
      <trkpt lat="44.00815" lon="7.24142">
        <ele>1622</ele>
        <time>2018-07-28T10:17:29.000Z</time>
      </trkpt>
      <trkpt lat="44.00812" lon="7.24148">
        <ele>1623</ele>
        <time>2018-07-28T10:17:35.000Z</time>
      </trkpt>
      <trkpt lat="44.00812" lon="7.24153">
        <ele>1623</ele>
        <time>2018-07-28T10:17:38.000Z</time>
      </trkpt>
      <trkpt lat="44.00814" lon="7.24156">
        <ele>1624</ele>
        <time>2018-07-28T10:17:41.000Z</time>
      </trkpt>
      <trkpt lat="44.00814" lon="7.24156">
        <ele>1625</ele>
        <time>2018-07-28T10:17:42.000Z</time>
      </trkpt>
      <trkpt lat="44.00817" lon="7.24154">
        <ele>1625</ele>
        <time>2018-07-28T10:17:45.000Z</time>
      </trkpt>
      <trkpt lat="44.00818" lon="7.24153">
        <ele>1625</ele>
        <time>2018-07-28T10:17:46.000Z</time>
      </trkpt>
      <trkpt lat="44.00821" lon="7.24148">
        <ele>1625</ele>
        <time>2018-07-28T10:17:50.000Z</time>
      </trkpt>
      <trkpt lat="44.00823" lon="7.24146">
        <ele>1624</ele>
        <time>2018-07-28T10:17:52.000Z</time>
      </trkpt>
      <trkpt lat="44.00825" lon="7.24145">
        <ele>1624</ele>
        <time>2018-07-28T10:17:53.000Z</time>
      </trkpt>
      <trkpt lat="44.0083" lon="7.24141">
        <ele>1624</ele>
        <time>2018-07-28T10:17:58.000Z</time>
      </trkpt>
      <trkpt lat="44.0084" lon="7.24135">
        <ele>1638</ele>
        <time>2018-07-28T10:18:05.000Z</time>
      </trkpt>
      <trkpt lat="44.00841" lon="7.24134">
        <ele>1638</ele>
        <time>2018-07-28T10:18:06.000Z</time>
      </trkpt>
      <trkpt lat="44.00846" lon="7.24127">
        <ele>1637</ele>
        <time>2018-07-28T10:18:11.000Z</time>
      </trkpt>
      <trkpt lat="44.00848" lon="7.24125">
        <ele>1637</ele>
        <time>2018-07-28T10:18:13.000Z</time>
      </trkpt>
      <trkpt lat="44.0085" lon="7.24124">
        <ele>1637</ele>
        <time>2018-07-28T10:18:14.000Z</time>
      </trkpt>
      <trkpt lat="44.00853" lon="7.2412">
        <ele>1637</ele>
        <time>2018-07-28T10:18:17.000Z</time>
      </trkpt>
      <trkpt lat="44.00856" lon="7.24117">
        <ele>1637</ele>
        <time>2018-07-28T10:18:20.000Z</time>
      </trkpt>
      <trkpt lat="44.00859" lon="7.24115">
        <ele>1637</ele>
        <time>2018-07-28T10:18:22.000Z</time>
      </trkpt>
      <trkpt lat="44.00869" lon="7.24109">
        <ele>1638</ele>
        <time>2018-07-28T10:18:29.000Z</time>
      </trkpt>
      <trkpt lat="44.0087" lon="7.24108">
        <ele>1638</ele>
        <time>2018-07-28T10:18:30.000Z</time>
      </trkpt>
      <trkpt lat="44.0088" lon="7.241">
        <ele>1640</ele>
        <time>2018-07-28T10:18:37.000Z</time>
      </trkpt>
      <trkpt lat="44.00889" lon="7.24093">
        <ele>1641</ele>
        <time>2018-07-28T10:18:43.000Z</time>
      </trkpt>
      <trkpt lat="44.00893" lon="7.24091">
        <ele>1642</ele>
        <time>2018-07-28T10:18:45.000Z</time>
      </trkpt>
      <trkpt lat="44.00902" lon="7.24082">
        <ele>1639</ele>
        <time>2018-07-28T10:18:51.000Z</time>
      </trkpt>
      <trkpt lat="44.00911" lon="7.24074">
        <ele>1640</ele>
        <time>2018-07-28T10:18:57.000Z</time>
      </trkpt>
      <trkpt lat="44.00913" lon="7.2407">
        <ele>1639</ele>
        <time>2018-07-28T10:18:59.000Z</time>
      </trkpt>
      <trkpt lat="44.00918" lon="7.24062">
        <ele>1653</ele>
        <time>2018-07-28T10:19:03.000Z</time>
      </trkpt>
      <trkpt lat="44.00922" lon="7.24054">
        <ele>1654</ele>
        <time>2018-07-28T10:19:07.000Z</time>
      </trkpt>
      <trkpt lat="44.00924" lon="7.2405">
        <ele>1655</ele>
        <time>2018-07-28T10:19:09.000Z</time>
      </trkpt>
      <trkpt lat="44.00926" lon="7.24043">
        <ele>1655</ele>
        <time>2018-07-28T10:19:12.000Z</time>
      </trkpt>
      <trkpt lat="44.00928" lon="7.24037">
        <ele>1655</ele>
        <time>2018-07-28T10:19:15.000Z</time>
      </trkpt>
      <trkpt lat="44.00929" lon="7.24032">
        <ele>1654</ele>
        <time>2018-07-28T10:19:17.000Z</time>
      </trkpt>
      <trkpt lat="44.00932" lon="7.24012">
        <ele>1651</ele>
        <time>2018-07-28T10:19:24.000Z</time>
      </trkpt>
      <trkpt lat="44.00929" lon="7.23998">
        <ele>1647</ele>
        <time>2018-07-28T10:19:29.000Z</time>
      </trkpt>
      <trkpt lat="44.00929" lon="7.23995">
        <ele>1647</ele>
        <time>2018-07-28T10:19:30.000Z</time>
      </trkpt>
      <trkpt lat="44.00926" lon="7.23981">
        <ele>1649</ele>
        <time>2018-07-28T10:19:36.000Z</time>
      </trkpt>
      <trkpt lat="44.00925" lon="7.23976">
        <ele>1650</ele>
        <time>2018-07-28T10:19:38.000Z</time>
      </trkpt>
      <trkpt lat="44.00928" lon="7.23958">
        <ele>1652</ele>
        <time>2018-07-28T10:19:45.000Z</time>
      </trkpt>
      <trkpt lat="44.00929" lon="7.23952">
        <ele>1652</ele>
        <time>2018-07-28T10:19:47.000Z</time>
      </trkpt>
      <trkpt lat="44.00934" lon="7.23941">
        <ele>1652</ele>
        <time>2018-07-28T10:19:52.000Z</time>
      </trkpt>
      <trkpt lat="44.00939" lon="7.23934">
        <ele>1653</ele>
        <time>2018-07-28T10:19:56.000Z</time>
      </trkpt>
      <trkpt lat="44.00941" lon="7.23932">
        <ele>1653</ele>
        <time>2018-07-28T10:19:58.000Z</time>
      </trkpt>
      <trkpt lat="44.00948" lon="7.23925">
        <ele>1655</ele>
        <time>2018-07-28T10:20:02.000Z</time>
      </trkpt>
      <trkpt lat="44.00952" lon="7.23918">
        <ele>1656</ele>
        <time>2018-07-28T10:20:06.000Z</time>
      </trkpt>
      <trkpt lat="44.00953" lon="7.23917">
        <ele>1656</ele>
        <time>2018-07-28T10:20:07.000Z</time>
      </trkpt>
      <trkpt lat="44.00955" lon="7.23917">
        <ele>1657</ele>
        <time>2018-07-28T10:20:08.000Z</time>
      </trkpt>
      <trkpt lat="44.00956" lon="7.2392">
        <ele>1657</ele>
        <time>2018-07-28T10:20:10.000Z</time>
      </trkpt>
      <trkpt lat="44.00955" lon="7.23922">
        <ele>1657</ele>
        <time>2018-07-28T10:20:11.000Z</time>
      </trkpt>
      <trkpt lat="44.00955" lon="7.23924">
        <ele>1657</ele>
        <time>2018-07-28T10:20:12.000Z</time>
      </trkpt>
      <trkpt lat="44.00955" lon="7.23939">
        <ele>1657</ele>
        <time>2018-07-28T10:20:19.000Z</time>
      </trkpt>
      <trkpt lat="44.00958" lon="7.23945">
        <ele>1657</ele>
        <time>2018-07-28T10:20:23.000Z</time>
      </trkpt>
      <trkpt lat="44.0096" lon="7.23949">
        <ele>1658</ele>
        <time>2018-07-28T10:20:26.000Z</time>
      </trkpt>
      <trkpt lat="44.00962" lon="7.23951">
        <ele>1658</ele>
        <time>2018-07-28T10:20:28.000Z</time>
      </trkpt>
      <trkpt lat="44.00968" lon="7.23956">
        <ele>1659</ele>
        <time>2018-07-28T10:20:34.000Z</time>
      </trkpt>
      <trkpt lat="44.00969" lon="7.23956">
        <ele>1659</ele>
        <time>2018-07-28T10:20:35.000Z</time>
      </trkpt>
      <trkpt lat="44.00975" lon="7.23957">
        <ele>1660</ele>
        <time>2018-07-28T10:20:40.000Z</time>
      </trkpt>
      <trkpt lat="44.00978" lon="7.23962">
        <ele>1661</ele>
        <time>2018-07-28T10:20:44.000Z</time>
      </trkpt>
      <trkpt lat="44.00979" lon="7.23964">
        <ele>1661</ele>
        <time>2018-07-28T10:20:46.000Z</time>
      </trkpt>
      <trkpt lat="44.00979" lon="7.23968">
        <ele>1661</ele>
        <time>2018-07-28T10:20:49.000Z</time>
      </trkpt>
      <trkpt lat="44.0098" lon="7.23969">
        <ele>1661</ele>
        <time>2018-07-28T10:20:53.000Z</time>
      </trkpt>
      <trkpt lat="44.00981" lon="7.2397">
        <ele>1662</ele>
        <time>2018-07-28T10:21:01.000Z</time>
      </trkpt>
      <trkpt lat="44.00984" lon="7.23969">
        <ele>1662</ele>
        <time>2018-07-28T10:21:05.000Z</time>
      </trkpt>
      <trkpt lat="44.00987" lon="7.23971">
        <ele>1663</ele>
        <time>2018-07-28T10:21:09.000Z</time>
      </trkpt>
      <trkpt lat="44.00988" lon="7.23971">
        <ele>1663</ele>
        <time>2018-07-28T10:21:11.000Z</time>
      </trkpt>
      <trkpt lat="44.00991" lon="7.2397">
        <ele>1663</ele>
        <time>2018-07-28T10:21:17.000Z</time>
      </trkpt>
      <trkpt lat="44.00992" lon="7.2397">
        <ele>1663</ele>
        <time>2018-07-28T10:21:18.000Z</time>
      </trkpt>
      <trkpt lat="44.00994" lon="7.23975">
        <ele>1664</ele>
        <time>2018-07-28T10:21:25.000Z</time>
      </trkpt>
      <trkpt lat="44.00996" lon="7.2398">
        <ele>1665</ele>
        <time>2018-07-28T10:21:31.000Z</time>
      </trkpt>
      <trkpt lat="44.00995" lon="7.2398">
        <ele>1665</ele>
        <time>2018-07-28T10:21:35.000Z</time>
      </trkpt>
      <trkpt lat="44.00995" lon="7.23981">
        <ele>1666</ele>
        <time>2018-07-28T10:21:48.000Z</time>
      </trkpt>
      <trkpt lat="44.00996" lon="7.23981">
        <ele>1666</ele>
        <time>2018-07-28T10:21:51.000Z</time>
      </trkpt>
      <trkpt lat="44.00997" lon="7.23982">
        <ele>1666</ele>
        <time>2018-07-28T10:21:52.000Z</time>
      </trkpt>
      <trkpt lat="44.00998" lon="7.23986">
        <ele>1667</ele>
        <time>2018-07-28T10:21:57.000Z</time>
      </trkpt>
      <trkpt lat="44.00999" lon="7.23991">
        <ele>1669</ele>
        <time>2018-07-28T10:22:02.000Z</time>
      </trkpt>
      <trkpt lat="44.00999" lon="7.23991">
        <ele>1669</ele>
        <time>2018-07-28T10:22:03.000Z</time>
      </trkpt>
      <trkpt lat="44.01" lon="7.23993">
        <ele>1679</ele>
        <time>2018-07-28T10:22:12.000Z</time>
      </trkpt>
      <trkpt lat="44.01001" lon="7.23994">
        <ele>1678</ele>
        <time>2018-07-28T10:22:15.000Z</time>
      </trkpt>
      <trkpt lat="44.01001" lon="7.23996">
        <ele>1678</ele>
        <time>2018-07-28T10:22:19.000Z</time>
      </trkpt>
      <trkpt lat="44.01001" lon="7.23999">
        <ele>1675</ele>
        <time>2018-07-28T10:22:28.000Z</time>
      </trkpt>
      <trkpt lat="44.01001" lon="7.24002">
        <ele>1676</ele>
        <time>2018-07-28T10:22:31.000Z</time>
      </trkpt>
      <trkpt lat="44.01002" lon="7.24004">
        <ele>1678</ele>
        <time>2018-07-28T10:22:36.000Z</time>
      </trkpt>
      <trkpt lat="44.01003" lon="7.24006">
        <ele>1680</ele>
        <time>2018-07-28T10:22:40.000Z</time>
      </trkpt>
      <trkpt lat="44.01003" lon="7.24006">
        <ele>1680</ele>
        <time>2018-07-28T10:22:41.000Z</time>
      </trkpt>
      <trkpt lat="44.01005" lon="7.24008">
        <ele>1682</ele>
        <time>2018-07-28T10:22:45.000Z</time>
      </trkpt>
      <trkpt lat="44.01005" lon="7.24008">
        <ele>1682</ele>
        <time>2018-07-28T10:22:47.000Z</time>
      </trkpt>
      <trkpt lat="44.01006" lon="7.24008">
        <ele>1682</ele>
        <time>2018-07-28T10:22:51.000Z</time>
      </trkpt>
      <trkpt lat="44.01006" lon="7.24008">
        <ele>1683</ele>
        <time>2018-07-28T10:22:59.000Z</time>
      </trkpt>
      <trkpt lat="44.01006" lon="7.2401">
        <ele>1684</ele>
        <time>2018-07-28T10:23:07.000Z</time>
      </trkpt>
      <trkpt lat="44.01007" lon="7.24012">
        <ele>1685</ele>
        <time>2018-07-28T10:23:11.000Z</time>
      </trkpt>
      <trkpt lat="44.01007" lon="7.24011">
        <ele>1685</ele>
        <time>2018-07-28T10:23:14.000Z</time>
      </trkpt>
      <trkpt lat="44.01006" lon="7.24011">
        <ele>1684</ele>
        <time>2018-07-28T10:23:23.000Z</time>
      </trkpt>
      <trkpt lat="44.01005" lon="7.2401">
        <ele>1683</ele>
        <time>2018-07-28T10:23:28.000Z</time>
      </trkpt>
      <trkpt lat="44.01004" lon="7.24009">
        <ele>1683</ele>
        <time>2018-07-28T10:23:30.000Z</time>
      </trkpt>
      <trkpt lat="44.01003" lon="7.24009">
        <ele>1682</ele>
        <time>2018-07-28T10:23:33.000Z</time>
      </trkpt>
      <trkpt lat="44.01003" lon="7.24009">
        <ele>1682</ele>
        <time>2018-07-28T10:23:34.000Z</time>
      </trkpt>
      <trkpt lat="44.01002" lon="7.2401">
        <ele>1682</ele>
        <time>2018-07-28T10:23:36.000Z</time>
      </trkpt>
      <trkpt lat="44.01001" lon="7.24011">
        <ele>1683</ele>
        <time>2018-07-28T10:23:41.000Z</time>
      </trkpt>
      <trkpt lat="44.01001" lon="7.24012">
        <ele>1683</ele>
        <time>2018-07-28T10:23:48.000Z</time>
      </trkpt>
      <trkpt lat="44.01002" lon="7.24013">
        <ele>1684</ele>
        <time>2018-07-28T10:23:57.000Z</time>
      </trkpt>
      <trkpt lat="44.01003" lon="7.24015">
        <ele>1685</ele>
        <time>2018-07-28T10:24:04.000Z</time>
      </trkpt>
      <trkpt lat="44.01004" lon="7.24016">
        <ele>1686</ele>
        <time>2018-07-28T10:24:12.000Z</time>
      </trkpt>
      <trkpt lat="44.01004" lon="7.24019">
        <ele>1687</ele>
        <time>2018-07-28T10:24:18.000Z</time>
      </trkpt>
      <trkpt lat="44.01005" lon="7.2402">
        <ele>1688</ele>
        <time>2018-07-28T10:24:21.000Z</time>
      </trkpt>
      <trkpt lat="44.01005" lon="7.24021">
        <ele>1688</ele>
        <time>2018-07-28T10:24:25.000Z</time>
      </trkpt>
      <trkpt lat="44.01005" lon="7.24021">
        <ele>1688</ele>
        <time>2018-07-28T10:24:28.000Z</time>
      </trkpt>
      <trkpt lat="44.01005" lon="7.24022">
        <ele>1689</ele>
        <time>2018-07-28T10:24:32.000Z</time>
      </trkpt>
      <trkpt lat="44.01005" lon="7.24021">
        <ele>1688</ele>
        <time>2018-07-28T10:24:39.000Z</time>
      </trkpt>
      <trkpt lat="44.01005" lon="7.2402">
        <ele>1688</ele>
        <time>2018-07-28T10:24:43.000Z</time>
      </trkpt>
      <trkpt lat="44.01005" lon="7.24019">
        <ele>1688</ele>
        <time>2018-07-28T10:24:48.000Z</time>
      </trkpt>
      <trkpt lat="44.01006" lon="7.2402">
        <ele>1688</ele>
        <time>2018-07-28T10:24:53.000Z</time>
      </trkpt>
      <trkpt lat="44.01006" lon="7.2402">
        <ele>1688</ele>
        <time>2018-07-28T10:24:54.000Z</time>
      </trkpt>
      <trkpt lat="44.01007" lon="7.24021">
        <ele>1689</ele>
        <time>2018-07-28T10:24:59.000Z</time>
      </trkpt>
      <trkpt lat="44.01007" lon="7.2402">
        <ele>1688</ele>
        <time>2018-07-28T10:25:05.000Z</time>
      </trkpt>
      <trkpt lat="44.01006" lon="7.2402">
        <ele>1688</ele>
        <time>2018-07-28T10:25:06.000Z</time>
      </trkpt>
      <trkpt lat="44.01007" lon="7.2402">
        <ele>1688</ele>
        <time>2018-07-28T10:25:11.000Z</time>
      </trkpt>
      <trkpt lat="44.01006" lon="7.24021">
        <ele>1689</ele>
        <time>2018-07-28T10:25:15.000Z</time>
      </trkpt>
      <trkpt lat="44.01006" lon="7.24026">
        <ele>1690</ele>
        <time>2018-07-28T10:25:23.000Z</time>
      </trkpt>
      <trkpt lat="44.01007" lon="7.24027">
        <ele>1690</ele>
        <time>2018-07-28T10:25:25.000Z</time>
      </trkpt>
      <trkpt lat="44.01008" lon="7.2403">
        <ele>1691</ele>
        <time>2018-07-28T10:25:29.000Z</time>
      </trkpt>
      <trkpt lat="44.01009" lon="7.24026">
        <ele>1690</ele>
        <time>2018-07-28T10:25:36.000Z</time>
      </trkpt>
      <trkpt lat="44.01007" lon="7.24025">
        <ele>1690</ele>
        <time>2018-07-28T10:25:46.000Z</time>
      </trkpt>
      <trkpt lat="44.01006" lon="7.24026">
        <ele>1690</ele>
        <time>2018-07-28T10:25:52.000Z</time>
      </trkpt>
      <trkpt lat="44.01006" lon="7.24027">
        <ele>1690</ele>
        <time>2018-07-28T10:26:02.000Z</time>
      </trkpt>
      <trkpt lat="44.01007" lon="7.24027">
        <ele>1690</ele>
        <time>2018-07-28T10:26:07.000Z</time>
      </trkpt>
      <trkpt lat="44.00996" lon="7.24079">
        <ele>1680</ele>
        <time>2018-07-28T10:31:08.000Z</time>
      </trkpt>
      <trkpt lat="44.00996" lon="7.24079">
        <ele>1680</ele>
        <time>2018-07-28T10:31:09.000Z</time>
      </trkpt>
      <trkpt lat="44.00996" lon="7.24079">
        <ele>1680</ele>
        <time>2018-07-28T10:31:11.000Z</time>
      </trkpt>
      <trkpt lat="44.00991" lon="7.24076">
        <ele>1676</ele>
        <time>2018-07-28T11:16:02.000Z</time>
      </trkpt>
      <trkpt lat="44.00992" lon="7.24076">
        <ele>1676</ele>
        <time>2018-07-28T11:16:06.000Z</time>
      </trkpt>
      <trkpt lat="44.00992" lon="7.24077">
        <ele>1677</ele>
        <time>2018-07-28T11:16:07.000Z</time>
      </trkpt>
      <trkpt lat="44.00992" lon="7.24076">
        <ele>1676</ele>
        <time>2018-07-28T11:16:10.000Z</time>
      </trkpt>
      <trkpt lat="44.00991" lon="7.24076">
        <ele>1676</ele>
        <time>2018-07-28T11:16:16.000Z</time>
      </trkpt>
      <trkpt lat="44.00991" lon="7.24074">
        <ele>1675</ele>
        <time>2018-07-28T11:16:25.000Z</time>
      </trkpt>
      <trkpt lat="44.0099" lon="7.24074">
        <ele>1675</ele>
        <time>2018-07-28T11:16:33.000Z</time>
      </trkpt>
      <trkpt lat="44.0099" lon="7.24074">
        <ele>1675</ele>
        <time>2018-07-28T11:16:43.000Z</time>
      </trkpt>
      <trkpt lat="44.00991" lon="7.24074">
        <ele>1675</ele>
        <time>2018-07-28T11:16:51.000Z</time>
      </trkpt>
      <trkpt lat="44.00993" lon="7.24074">
        <ele>1676</ele>
        <time>2018-07-28T11:17:05.000Z</time>
      </trkpt>
      <trkpt lat="44.00994" lon="7.24074">
        <ele>1676</ele>
        <time>2018-07-28T11:17:13.000Z</time>
      </trkpt>
      <trkpt lat="44.00992" lon="7.24071">
        <ele>1674</ele>
        <time>2018-07-28T11:17:19.000Z</time>
      </trkpt>
      <trkpt lat="44.0099" lon="7.24071">
        <ele>1674</ele>
        <time>2018-07-28T11:17:29.000Z</time>
      </trkpt>
      <trkpt lat="44.00987" lon="7.2407">
        <ele>1672</ele>
        <time>2018-07-28T11:17:44.000Z</time>
      </trkpt>
      <trkpt lat="44.00987" lon="7.24069">
        <ele>1672</ele>
        <time>2018-07-28T11:17:53.000Z</time>
      </trkpt>
      <trkpt lat="44.00988" lon="7.24071">
        <ele>1673</ele>
        <time>2018-07-28T11:18:02.000Z</time>
      </trkpt>
      <trkpt lat="44.00988" lon="7.2407">
        <ele>1673</ele>
        <time>2018-07-28T11:18:14.000Z</time>
      </trkpt>
      <trkpt lat="44.00986" lon="7.24069">
        <ele>1672</ele>
        <time>2018-07-28T11:18:23.000Z</time>
      </trkpt>
      <trkpt lat="44.00985" lon="7.24069">
        <ele>1671</ele>
        <time>2018-07-28T11:18:30.000Z</time>
      </trkpt>
      <trkpt lat="44.00986" lon="7.2407">
        <ele>1672</ele>
        <time>2018-07-28T11:18:36.000Z</time>
      </trkpt>
      <trkpt lat="44.00986" lon="7.2407">
        <ele>1672</ele>
        <time>2018-07-28T11:18:45.000Z</time>
      </trkpt>
      <trkpt lat="44.00985" lon="7.24069">
        <ele>1671</ele>
        <time>2018-07-28T11:18:53.000Z</time>
      </trkpt>
      <trkpt lat="44.00986" lon="7.24069">
        <ele>1672</ele>
        <time>2018-07-28T11:19:01.000Z</time>
      </trkpt>
      <trkpt lat="44.00986" lon="7.24069">
        <ele>1672</ele>
        <time>2018-07-28T11:19:11.000Z</time>
      </trkpt>
      <trkpt lat="44.00984" lon="7.2407">
        <ele>1671</ele>
        <time>2018-07-28T11:19:21.000Z</time>
      </trkpt>
      <trkpt lat="44.00985" lon="7.24072">
        <ele>1672</ele>
        <time>2018-07-28T11:19:26.000Z</time>
      </trkpt>
      <trkpt lat="44.00982" lon="7.24077">
        <ele>1672</ele>
        <time>2018-07-28T11:19:33.000Z</time>
      </trkpt>
      <trkpt lat="44.00978" lon="7.24088">
        <ele>1676</ele>
        <time>2018-07-28T11:19:39.000Z</time>
      </trkpt>
      <trkpt lat="44.00973" lon="7.24106">
        <ele>1675</ele>
        <time>2018-07-28T11:19:47.000Z</time>
      </trkpt>
      <trkpt lat="44.00967" lon="7.24127">
        <ele>1675</ele>
        <time>2018-07-28T11:19:55.000Z</time>
      </trkpt>
      <trkpt lat="44.00963" lon="7.24143">
        <ele>1675</ele>
        <time>2018-07-28T11:20:01.000Z</time>
      </trkpt>
      <trkpt lat="44.00959" lon="7.24154">
        <ele>1675</ele>
        <time>2018-07-28T11:20:05.000Z</time>
      </trkpt>
      <trkpt lat="44.00951" lon="7.24177">
        <ele>1680</ele>
        <time>2018-07-28T11:20:14.000Z</time>
      </trkpt>
      <trkpt lat="44.0095" lon="7.2418">
        <ele>1680</ele>
        <time>2018-07-28T11:20:15.000Z</time>
      </trkpt>
      <trkpt lat="44.00941" lon="7.24213">
        <ele>1680</ele>
        <time>2018-07-28T11:20:26.000Z</time>
      </trkpt>
      <trkpt lat="44.00933" lon="7.24253">
        <ele>1681</ele>
        <time>2018-07-28T11:20:37.000Z</time>
      </trkpt>
      <trkpt lat="44.0093" lon="7.24264">
        <ele>1683</ele>
        <time>2018-07-28T11:20:40.000Z</time>
      </trkpt>
      <trkpt lat="44.00926" lon="7.24283">
        <ele>1687</ele>
        <time>2018-07-28T11:20:45.000Z</time>
      </trkpt>
      <trkpt lat="44.0092" lon="7.24312">
        <ele>1689</ele>
        <time>2018-07-28T11:20:53.000Z</time>
      </trkpt>
      <trkpt lat="44.00917" lon="7.24329">
        <ele>1686</ele>
        <time>2018-07-28T11:20:58.000Z</time>
      </trkpt>
      <trkpt lat="44.00916" lon="7.24333">
        <ele>1684</ele>
        <time>2018-07-28T11:20:59.000Z</time>
      </trkpt>
      <trkpt lat="44.00909" lon="7.24367">
        <ele>1677</ele>
        <time>2018-07-28T11:21:09.000Z</time>
      </trkpt>
      <trkpt lat="44.00905" lon="7.2439">
        <ele>1680</ele>
        <time>2018-07-28T11:21:16.000Z</time>
      </trkpt>
      <trkpt lat="44.00904" lon="7.24397">
        <ele>1682</ele>
        <time>2018-07-28T11:21:18.000Z</time>
      </trkpt>
      <trkpt lat="44.00902" lon="7.24408">
        <ele>1684</ele>
        <time>2018-07-28T11:21:22.000Z</time>
      </trkpt>
      <trkpt lat="44.00901" lon="7.24427">
        <ele>1687</ele>
        <time>2018-07-28T11:21:28.000Z</time>
      </trkpt>
      <trkpt lat="44.00901" lon="7.24451">
        <ele>1683</ele>
        <time>2018-07-28T11:21:35.000Z</time>
      </trkpt>
      <trkpt lat="44.009" lon="7.24469">
        <ele>1683</ele>
        <time>2018-07-28T11:21:41.000Z</time>
      </trkpt>
      <trkpt lat="44.009" lon="7.24472">
        <ele>1684</ele>
        <time>2018-07-28T11:21:42.000Z</time>
      </trkpt>
      <trkpt lat="44.009" lon="7.245">
        <ele>1687</ele>
        <time>2018-07-28T11:21:50.000Z</time>
      </trkpt>
      <trkpt lat="44.00901" lon="7.24522">
        <ele>1684</ele>
        <time>2018-07-28T11:21:57.000Z</time>
      </trkpt>
      <trkpt lat="44.00906" lon="7.24548">
        <ele>1682</ele>
        <time>2018-07-28T11:22:04.000Z</time>
      </trkpt>
      <trkpt lat="44.0091" lon="7.24582">
        <ele>1688</ele>
        <time>2018-07-28T11:22:13.000Z</time>
      </trkpt>
      <trkpt lat="44.00915" lon="7.24617">
        <ele>1682</ele>
        <time>2018-07-28T11:22:22.000Z</time>
      </trkpt>
      <trkpt lat="44.00916" lon="7.24623">
        <ele>1682</ele>
        <time>2018-07-28T11:22:24.000Z</time>
      </trkpt>
      <trkpt lat="44.00921" lon="7.24645">
        <ele>1698</ele>
        <time>2018-07-28T11:22:31.000Z</time>
      </trkpt>
      <trkpt lat="44.00924" lon="7.24661">
        <ele>1695</ele>
        <time>2018-07-28T11:22:36.000Z</time>
      </trkpt>
      <trkpt lat="44.00925" lon="7.24672">
        <ele>1694</ele>
        <time>2018-07-28T11:22:39.000Z</time>
      </trkpt>
      <trkpt lat="44.00927" lon="7.24683">
        <ele>1696</ele>
        <time>2018-07-28T11:22:42.000Z</time>
      </trkpt>
      <trkpt lat="44.0093" lon="7.24712">
        <ele>1697</ele>
        <time>2018-07-28T11:22:50.000Z</time>
      </trkpt>
      <trkpt lat="44.0093" lon="7.24718">
        <ele>1697</ele>
        <time>2018-07-28T11:22:52.000Z</time>
      </trkpt>
      <trkpt lat="44.00927" lon="7.24737">
        <ele>1694</ele>
        <time>2018-07-28T11:22:58.000Z</time>
      </trkpt>
      <trkpt lat="44.00926" lon="7.24743">
        <ele>1693</ele>
        <time>2018-07-28T11:23:00.000Z</time>
      </trkpt>
      <trkpt lat="44.0092" lon="7.24764">
        <ele>1694</ele>
        <time>2018-07-28T11:23:07.000Z</time>
      </trkpt>
      <trkpt lat="44.00918" lon="7.24774">
        <ele>1695</ele>
        <time>2018-07-28T11:23:10.000Z</time>
      </trkpt>
      <trkpt lat="44.00914" lon="7.24789">
        <ele>1686</ele>
        <time>2018-07-28T11:23:15.000Z</time>
      </trkpt>
      <trkpt lat="44.0091" lon="7.24811">
        <ele>1687</ele>
        <time>2018-07-28T11:23:22.000Z</time>
      </trkpt>
      <trkpt lat="44.00909" lon="7.24831">
        <ele>1690</ele>
        <time>2018-07-28T11:23:27.000Z</time>
      </trkpt>
      <trkpt lat="44.00908" lon="7.24873">
        <ele>1690</ele>
        <time>2018-07-28T11:23:37.000Z</time>
      </trkpt>
      <trkpt lat="44.00907" lon="7.24906">
        <ele>1691</ele>
        <time>2018-07-28T11:23:46.000Z</time>
      </trkpt>
      <trkpt lat="44.00907" lon="7.24926">
        <ele>1692</ele>
        <time>2018-07-28T11:23:52.000Z</time>
      </trkpt>
      <trkpt lat="44.00899" lon="7.24931">
        <ele>1691</ele>
        <time>2018-07-28T11:23:56.000Z</time>
      </trkpt>
      <trkpt lat="44.00898" lon="7.24929">
        <ele>1691</ele>
        <time>2018-07-28T11:23:58.000Z</time>
      </trkpt>
      <trkpt lat="44.00897" lon="7.24928">
        <ele>1691</ele>
        <time>2018-07-28T11:23:59.000Z</time>
      </trkpt>
      <trkpt lat="44.00897" lon="7.24928">
        <ele>1691</ele>
        <time>2018-07-28T11:24:01.000Z</time>
      </trkpt>
      <trkpt lat="44.00897" lon="7.24929">
        <ele>1691</ele>
        <time>2018-07-28T11:24:05.000Z</time>
      </trkpt>
      <trkpt lat="44.00896" lon="7.24928">
        <ele>1691</ele>
        <time>2018-07-28T11:24:22.000Z</time>
      </trkpt>
      <trkpt lat="44.00895" lon="7.24928">
        <ele>1691</ele>
        <time>2018-07-28T11:24:34.000Z</time>
      </trkpt>
      <trkpt lat="44.00894" lon="7.24926">
        <ele>1691</ele>
        <time>2018-07-28T11:24:43.000Z</time>
      </trkpt>
      <trkpt lat="44.00895" lon="7.24925">
        <ele>1691</ele>
        <time>2018-07-28T11:24:51.000Z</time>
      </trkpt>
      <trkpt lat="44.00894" lon="7.24923">
        <ele>1691</ele>
        <time>2018-07-28T11:24:59.000Z</time>
      </trkpt>
      <trkpt lat="44.00893" lon="7.24922">
        <ele>1691</ele>
        <time>2018-07-28T11:25:05.000Z</time>
      </trkpt>
      <trkpt lat="44.00892" lon="7.24924">
        <ele>1691</ele>
        <time>2018-07-28T11:25:11.000Z</time>
      </trkpt>
      <trkpt lat="44.00891" lon="7.24925">
        <ele>1691</ele>
        <time>2018-07-28T11:25:18.000Z</time>
      </trkpt>
      <trkpt lat="44.0089" lon="7.24922">
        <ele>1691</ele>
        <time>2018-07-28T11:25:25.000Z</time>
      </trkpt>
      <trkpt lat="44.00886" lon="7.24919">
        <ele>1690</ele>
        <time>2018-07-28T11:25:30.000Z</time>
      </trkpt>
      <trkpt lat="44.00882" lon="7.24917">
        <ele>1690</ele>
        <time>2018-07-28T11:25:31.000Z</time>
      </trkpt>
      <trkpt lat="44.00872" lon="7.24915">
        <ele>1689</ele>
        <time>2018-07-28T11:25:33.000Z</time>
      </trkpt>
      <trkpt lat="44.00866" lon="7.24916">
        <ele>1689</ele>
        <time>2018-07-28T11:25:34.000Z</time>
      </trkpt>
      <trkpt lat="44.00861" lon="7.24917">
        <ele>1689</ele>
        <time>2018-07-28T11:25:35.000Z</time>
      </trkpt>
      <trkpt lat="44.00856" lon="7.2492">
        <ele>1689</ele>
        <time>2018-07-28T11:25:36.000Z</time>
      </trkpt>
      <trkpt lat="44.00851" lon="7.24921">
        <ele>1689</ele>
        <time>2018-07-28T11:25:37.000Z</time>
      </trkpt>
      <trkpt lat="44.00841" lon="7.24919">
        <ele>1688</ele>
        <time>2018-07-28T11:25:39.000Z</time>
      </trkpt>
      <trkpt lat="44.00835" lon="7.24919">
        <ele>1687</ele>
        <time>2018-07-28T11:25:40.000Z</time>
      </trkpt>
      <trkpt lat="44.00829" lon="7.24918">
        <ele>1686</ele>
        <time>2018-07-28T11:25:41.000Z</time>
      </trkpt>
      <trkpt lat="44.00823" lon="7.24918">
        <ele>1685</ele>
        <time>2018-07-28T11:25:42.000Z</time>
      </trkpt>
      <trkpt lat="44.00811" lon="7.24916">
        <ele>1682</ele>
        <time>2018-07-28T11:25:44.000Z</time>
      </trkpt>
      <trkpt lat="44.008" lon="7.24913">
        <ele>1680</ele>
        <time>2018-07-28T11:25:46.000Z</time>
      </trkpt>
      <trkpt lat="44.00788" lon="7.24913">
        <ele>1679</ele>
        <time>2018-07-28T11:25:48.000Z</time>
      </trkpt>
      <trkpt lat="44.00777" lon="7.24913">
        <ele>1678</ele>
        <time>2018-07-28T11:25:50.000Z</time>
      </trkpt>
      <trkpt lat="44.00772" lon="7.24913">
        <ele>1678</ele>
        <time>2018-07-28T11:25:51.000Z</time>
      </trkpt>
      <trkpt lat="44.00756" lon="7.24911">
        <ele>1677</ele>
        <time>2018-07-28T11:25:54.000Z</time>
      </trkpt>
      <trkpt lat="44.00743" lon="7.24911">
        <ele>1672</ele>
        <time>2018-07-28T11:25:56.000Z</time>
      </trkpt>
      <trkpt lat="44.00736" lon="7.24913">
        <ele>1669</ele>
        <time>2018-07-28T11:25:57.000Z</time>
      </trkpt>
      <trkpt lat="44.00731" lon="7.24916">
        <ele>1667</ele>
        <time>2018-07-28T11:25:58.000Z</time>
      </trkpt>
      <trkpt lat="44.00726" lon="7.24921">
        <ele>1670</ele>
        <time>2018-07-28T11:25:59.000Z</time>
      </trkpt>
      <trkpt lat="44.00722" lon="7.24927">
        <ele>1669</ele>
        <time>2018-07-28T11:26:00.000Z</time>
      </trkpt>
      <trkpt lat="44.00717" lon="7.24934">
        <ele>1668</ele>
        <time>2018-07-28T11:26:01.000Z</time>
      </trkpt>
      <trkpt lat="44.00711" lon="7.2494">
        <ele>1667</ele>
        <time>2018-07-28T11:26:02.000Z</time>
      </trkpt>
      <trkpt lat="44.00697" lon="7.2495">
        <ele>1665</ele>
        <time>2018-07-28T11:26:04.000Z</time>
      </trkpt>
      <trkpt lat="44.0069" lon="7.24955">
        <ele>1665</ele>
        <time>2018-07-28T11:26:05.000Z</time>
      </trkpt>
      <trkpt lat="44.00684" lon="7.24961">
        <ele>1664</ele>
        <time>2018-07-28T11:26:06.000Z</time>
      </trkpt>
      <trkpt lat="44.00678" lon="7.24967">
        <ele>1663</ele>
        <time>2018-07-28T11:26:07.000Z</time>
      </trkpt>
      <trkpt lat="44.00673" lon="7.24973">
        <ele>1663</ele>
        <time>2018-07-28T11:26:08.000Z</time>
      </trkpt>
      <trkpt lat="44.00664" lon="7.24984">
        <ele>1646</ele>
        <time>2018-07-28T11:26:10.000Z</time>
      </trkpt>
      <trkpt lat="44.00658" lon="7.24991">
        <ele>1648</ele>
        <time>2018-07-28T11:26:13.000Z</time>
      </trkpt>
      <trkpt lat="44.00657" lon="7.24993">
        <ele>1648</ele>
        <time>2018-07-28T11:26:14.000Z</time>
      </trkpt>
      <trkpt lat="44.00657" lon="7.24993">
        <ele>1648</ele>
        <time>2018-07-28T11:26:17.000Z</time>
      </trkpt>
      <trkpt lat="44.00657" lon="7.24993">
        <ele>1648</ele>
        <time>2018-07-28T11:26:18.000Z</time>
      </trkpt>
      <trkpt lat="44.0066" lon="7.24996">
        <ele>1651</ele>
        <time>2018-07-28T11:26:39.000Z</time>
      </trkpt>
      <trkpt lat="44.00661" lon="7.25009">
        <ele>1649</ele>
        <time>2018-07-28T11:26:44.000Z</time>
      </trkpt>
      <trkpt lat="44.00662" lon="7.25021">
        <ele>1644</ele>
        <time>2018-07-28T11:26:46.000Z</time>
      </trkpt>
      <trkpt lat="44.00663" lon="7.25027">
        <ele>1643</ele>
        <time>2018-07-28T11:26:47.000Z</time>
      </trkpt>
      <trkpt lat="44.00665" lon="7.25034">
        <ele>1642</ele>
        <time>2018-07-28T11:26:48.000Z</time>
      </trkpt>
      <trkpt lat="44.00668" lon="7.25039">
        <ele>1657</ele>
        <time>2018-07-28T11:26:49.000Z</time>
      </trkpt>
      <trkpt lat="44.00672" lon="7.25045">
        <ele>1657</ele>
        <time>2018-07-28T11:26:50.000Z</time>
      </trkpt>
      <trkpt lat="44.00674" lon="7.25051">
        <ele>1656</ele>
        <time>2018-07-28T11:26:51.000Z</time>
      </trkpt>
      <trkpt lat="44.00677" lon="7.25058">
        <ele>1655</ele>
        <time>2018-07-28T11:26:52.000Z</time>
      </trkpt>
      <trkpt lat="44.0068" lon="7.25063">
        <ele>1655</ele>
        <time>2018-07-28T11:26:53.000Z</time>
      </trkpt>
      <trkpt lat="44.00684" lon="7.25068">
        <ele>1654</ele>
        <time>2018-07-28T11:26:54.000Z</time>
      </trkpt>
      <trkpt lat="44.0069" lon="7.25073">
        <ele>1655</ele>
        <time>2018-07-28T11:26:55.000Z</time>
      </trkpt>
      <trkpt lat="44.00695" lon="7.25078">
        <ele>1656</ele>
        <time>2018-07-28T11:26:56.000Z</time>
      </trkpt>
      <trkpt lat="44.00701" lon="7.25082">
        <ele>1657</ele>
        <time>2018-07-28T11:26:57.000Z</time>
      </trkpt>
      <trkpt lat="44.00706" lon="7.25087">
        <ele>1642</ele>
        <time>2018-07-28T11:26:58.000Z</time>
      </trkpt>
      <trkpt lat="44.00717" lon="7.25101">
        <ele>1642</ele>
        <time>2018-07-28T11:27:00.000Z</time>
      </trkpt>
      <trkpt lat="44.0073" lon="7.25114">
        <ele>1641</ele>
        <time>2018-07-28T11:27:02.000Z</time>
      </trkpt>
      <trkpt lat="44.00742" lon="7.25127">
        <ele>1639</ele>
        <time>2018-07-28T11:27:04.000Z</time>
      </trkpt>
      <trkpt lat="44.00751" lon="7.25135">
        <ele>1647</ele>
        <time>2018-07-28T11:27:06.000Z</time>
      </trkpt>
      <trkpt lat="44.00754" lon="7.25138">
        <ele>1646</ele>
        <time>2018-07-28T11:27:07.000Z</time>
      </trkpt>
      <trkpt lat="44.00758" lon="7.25143">
        <ele>1645</ele>
        <time>2018-07-28T11:27:08.000Z</time>
      </trkpt>
      <trkpt lat="44.00762" lon="7.25147">
        <ele>1644</ele>
        <time>2018-07-28T11:27:09.000Z</time>
      </trkpt>
      <trkpt lat="44.00765" lon="7.25152">
        <ele>1643</ele>
        <time>2018-07-28T11:27:10.000Z</time>
      </trkpt>
      <trkpt lat="44.00768" lon="7.25158">
        <ele>1643</ele>
        <time>2018-07-28T11:27:11.000Z</time>
      </trkpt>
      <trkpt lat="44.00773" lon="7.25167">
        <ele>1626</ele>
        <time>2018-07-28T11:27:13.000Z</time>
      </trkpt>
      <trkpt lat="44.00777" lon="7.25174">
        <ele>1625</ele>
        <time>2018-07-28T11:27:14.000Z</time>
      </trkpt>
      <trkpt lat="44.00794" lon="7.25193">
        <ele>1624</ele>
        <time>2018-07-28T11:27:18.000Z</time>
      </trkpt>
      <trkpt lat="44.00802" lon="7.25198">
        <ele>1625</ele>
        <time>2018-07-28T11:27:19.000Z</time>
      </trkpt>
      <trkpt lat="44.00809" lon="7.25203">
        <ele>1624</ele>
        <time>2018-07-28T11:27:20.000Z</time>
      </trkpt>
      <trkpt lat="44.00815" lon="7.25206">
        <ele>1624</ele>
        <time>2018-07-28T11:27:21.000Z</time>
      </trkpt>
      <trkpt lat="44.00821" lon="7.25209">
        <ele>1624</ele>
        <time>2018-07-28T11:27:22.000Z</time>
      </trkpt>
      <trkpt lat="44.00831" lon="7.25217">
        <ele>1622</ele>
        <time>2018-07-28T11:27:24.000Z</time>
      </trkpt>
      <trkpt lat="44.00836" lon="7.25219">
        <ele>1636</ele>
        <time>2018-07-28T11:27:25.000Z</time>
      </trkpt>
      <trkpt lat="44.0084" lon="7.25222">
        <ele>1635</ele>
        <time>2018-07-28T11:27:26.000Z</time>
      </trkpt>
      <trkpt lat="44.00843" lon="7.25227">
        <ele>1633</ele>
        <time>2018-07-28T11:27:27.000Z</time>
      </trkpt>
      <trkpt lat="44.00846" lon="7.2523">
        <ele>1633</ele>
        <time>2018-07-28T11:27:28.000Z</time>
      </trkpt>
      <trkpt lat="44.0085" lon="7.25233">
        <ele>1633</ele>
        <time>2018-07-28T11:27:29.000Z</time>
      </trkpt>
      <trkpt lat="44.00854" lon="7.25237">
        <ele>1633</ele>
        <time>2018-07-28T11:27:30.000Z</time>
      </trkpt>
      <trkpt lat="44.00857" lon="7.25242">
        <ele>1633</ele>
        <time>2018-07-28T11:27:31.000Z</time>
      </trkpt>
      <trkpt lat="44.00861" lon="7.25246">
        <ele>1633</ele>
        <time>2018-07-28T11:27:32.000Z</time>
      </trkpt>
      <trkpt lat="44.00865" lon="7.25251">
        <ele>1614</ele>
        <time>2018-07-28T11:27:33.000Z</time>
      </trkpt>
      <trkpt lat="44.00868" lon="7.25257">
        <ele>1615</ele>
        <time>2018-07-28T11:27:34.000Z</time>
      </trkpt>
      <trkpt lat="44.00874" lon="7.25269">
        <ele>1614</ele>
        <time>2018-07-28T11:27:36.000Z</time>
      </trkpt>
      <trkpt lat="44.00878" lon="7.25275">
        <ele>1614</ele>
        <time>2018-07-28T11:27:37.000Z</time>
      </trkpt>
      <trkpt lat="44.00882" lon="7.25281">
        <ele>1614</ele>
        <time>2018-07-28T11:27:38.000Z</time>
      </trkpt>
      <trkpt lat="44.00884" lon="7.25287">
        <ele>1613</ele>
        <time>2018-07-28T11:27:39.000Z</time>
      </trkpt>
      <trkpt lat="44.00887" lon="7.25296">
        <ele>1611</ele>
        <time>2018-07-28T11:27:40.000Z</time>
      </trkpt>
      <trkpt lat="44.00896" lon="7.25309">
        <ele>1610</ele>
        <time>2018-07-28T11:27:42.000Z</time>
      </trkpt>
      <trkpt lat="44.00899" lon="7.25315">
        <ele>1610</ele>
        <time>2018-07-28T11:27:43.000Z</time>
      </trkpt>
      <trkpt lat="44.009" lon="7.25329">
        <ele>1609</ele>
        <time>2018-07-28T11:27:45.000Z</time>
      </trkpt>
      <trkpt lat="44.00898" lon="7.25356">
        <ele>1592</ele>
        <time>2018-07-28T11:27:49.000Z</time>
      </trkpt>
      <trkpt lat="44.00897" lon="7.25363">
        <ele>1591</ele>
        <time>2018-07-28T11:27:51.000Z</time>
      </trkpt>
      <trkpt lat="44.00896" lon="7.25363">
        <ele>1590</ele>
        <time>2018-07-28T11:27:52.000Z</time>
      </trkpt>
      <trkpt lat="44.00895" lon="7.25361">
        <ele>1591</ele>
        <time>2018-07-28T11:27:56.000Z</time>
      </trkpt>
      <trkpt lat="44.00896" lon="7.2536">
        <ele>1591</ele>
        <time>2018-07-28T11:27:57.000Z</time>
      </trkpt>
      <trkpt lat="44.00896" lon="7.25357">
        <ele>1592</ele>
        <time>2018-07-28T11:28:07.000Z</time>
      </trkpt>
      <trkpt lat="44.00895" lon="7.25349">
        <ele>1593</ele>
        <time>2018-07-28T11:28:20.000Z</time>
      </trkpt>
      <trkpt lat="44.00895" lon="7.25347">
        <ele>1593</ele>
        <time>2018-07-28T11:28:21.000Z</time>
      </trkpt>
      <trkpt lat="44.00893" lon="7.25339">
        <ele>1594</ele>
        <time>2018-07-28T11:28:24.000Z</time>
      </trkpt>
      <trkpt lat="44.00892" lon="7.25337">
        <ele>1593</ele>
        <time>2018-07-28T11:28:25.000Z</time>
      </trkpt>
      <trkpt lat="44.00886" lon="7.2533">
        <ele>1607</ele>
        <time>2018-07-28T11:28:27.000Z</time>
      </trkpt>
      <trkpt lat="44.00881" lon="7.25321">
        <ele>1607</ele>
        <time>2018-07-28T11:28:29.000Z</time>
      </trkpt>
      <trkpt lat="44.00873" lon="7.25315">
        <ele>1606</ele>
        <time>2018-07-28T11:28:31.000Z</time>
      </trkpt>
      <trkpt lat="44.0087" lon="7.25312">
        <ele>1605</ele>
        <time>2018-07-28T11:28:32.000Z</time>
      </trkpt>
      <trkpt lat="44.00867" lon="7.25311">
        <ele>1605</ele>
        <time>2018-07-28T11:28:33.000Z</time>
      </trkpt>
      <trkpt lat="44.00864" lon="7.25309">
        <ele>1605</ele>
        <time>2018-07-28T11:28:34.000Z</time>
      </trkpt>
      <trkpt lat="44.00862" lon="7.25306">
        <ele>1605</ele>
        <time>2018-07-28T11:28:35.000Z</time>
      </trkpt>
      <trkpt lat="44.0086" lon="7.25303">
        <ele>1605</ele>
        <time>2018-07-28T11:28:36.000Z</time>
      </trkpt>
      <trkpt lat="44.00854" lon="7.25294">
        <ele>1606</ele>
        <time>2018-07-28T11:28:38.000Z</time>
      </trkpt>
      <trkpt lat="44.00851" lon="7.25293">
        <ele>1606</ele>
        <time>2018-07-28T11:28:39.000Z</time>
      </trkpt>
      <trkpt lat="44.00848" lon="7.25294">
        <ele>1606</ele>
        <time>2018-07-28T11:28:41.000Z</time>
      </trkpt>
      <trkpt lat="44.00848" lon="7.25293">
        <ele>1606</ele>
        <time>2018-07-28T11:28:43.000Z</time>
      </trkpt>
      <trkpt lat="44.00847" lon="7.25292">
        <ele>1606</ele>
        <time>2018-07-28T11:28:46.000Z</time>
      </trkpt>
      <trkpt lat="44.00846" lon="7.25289">
        <ele>1607</ele>
        <time>2018-07-28T11:28:57.000Z</time>
      </trkpt>
      <trkpt lat="44.00843" lon="7.25286">
        <ele>1607</ele>
        <time>2018-07-28T11:29:06.000Z</time>
      </trkpt>
      <trkpt lat="44.00843" lon="7.25285">
        <ele>1608</ele>
        <time>2018-07-28T11:29:16.000Z</time>
      </trkpt>
      <trkpt lat="44.00842" lon="7.25285">
        <ele>1608</ele>
        <time>2018-07-28T11:29:25.000Z</time>
      </trkpt>
      <trkpt lat="44.00841" lon="7.25284">
        <ele>1608</ele>
        <time>2018-07-28T11:29:33.000Z</time>
      </trkpt>
      <trkpt lat="44.00839" lon="7.25286">
        <ele>1607</ele>
        <time>2018-07-28T11:29:40.000Z</time>
      </trkpt>
      <trkpt lat="44.00838" lon="7.25288">
        <ele>1606</ele>
        <time>2018-07-28T11:29:42.000Z</time>
      </trkpt>
      <trkpt lat="44.00836" lon="7.2529">
        <ele>1606</ele>
        <time>2018-07-28T11:29:45.000Z</time>
      </trkpt>
      <trkpt lat="44.0083" lon="7.25293">
        <ele>1587</ele>
        <time>2018-07-28T11:29:50.000Z</time>
      </trkpt>
      <trkpt lat="44.00822" lon="7.25293">
        <ele>1587</ele>
        <time>2018-07-28T11:29:54.000Z</time>
      </trkpt>
      <trkpt lat="44.0082" lon="7.25292">
        <ele>1587</ele>
        <time>2018-07-28T11:29:55.000Z</time>
      </trkpt>
      <trkpt lat="44.00817" lon="7.25292">
        <ele>1586</ele>
        <time>2018-07-28T11:29:57.000Z</time>
      </trkpt>
      <trkpt lat="44.00815" lon="7.25292">
        <ele>1586</ele>
        <time>2018-07-28T11:29:58.000Z</time>
      </trkpt>
      <trkpt lat="44.00815" lon="7.25292">
        <ele>1586</ele>
        <time>2018-07-28T11:30:01.000Z</time>
      </trkpt>
      <trkpt lat="44.00815" lon="7.25292">
        <ele>1586</ele>
        <time>2018-07-28T11:30:02.000Z</time>
      </trkpt>
      <trkpt lat="44.00814" lon="7.2529">
        <ele>1586</ele>
        <time>2018-07-28T11:30:16.000Z</time>
      </trkpt>
      <trkpt lat="44.0081" lon="7.2529">
        <ele>1586</ele>
        <time>2018-07-28T11:30:18.000Z</time>
      </trkpt>
      <trkpt lat="44.00805" lon="7.25291">
        <ele>1585</ele>
        <time>2018-07-28T11:30:20.000Z</time>
      </trkpt>
      <trkpt lat="44.00799" lon="7.2529">
        <ele>1584</ele>
        <time>2018-07-28T11:30:22.000Z</time>
      </trkpt>
      <trkpt lat="44.00793" lon="7.25289">
        <ele>1583</ele>
        <time>2018-07-28T11:30:24.000Z</time>
      </trkpt>
      <trkpt lat="44.00789" lon="7.25289">
        <ele>1583</ele>
        <time>2018-07-28T11:30:25.000Z</time>
      </trkpt>
      <trkpt lat="44.00785" lon="7.25289">
        <ele>1582</ele>
        <time>2018-07-28T11:30:26.000Z</time>
      </trkpt>
      <trkpt lat="44.00781" lon="7.25288">
        <ele>1582</ele>
        <time>2018-07-28T11:30:27.000Z</time>
      </trkpt>
      <trkpt lat="44.00777" lon="7.25286">
        <ele>1582</ele>
        <time>2018-07-28T11:30:28.000Z</time>
      </trkpt>
      <trkpt lat="44.00766" lon="7.2528">
        <ele>1582</ele>
        <time>2018-07-28T11:30:31.000Z</time>
      </trkpt>
      <trkpt lat="44.00758" lon="7.25277">
        <ele>1583</ele>
        <time>2018-07-28T11:30:33.000Z</time>
      </trkpt>
      <trkpt lat="44.00753" lon="7.25272">
        <ele>1584</ele>
        <time>2018-07-28T11:30:35.000Z</time>
      </trkpt>
      <trkpt lat="44.0075" lon="7.25271">
        <ele>1584</ele>
        <time>2018-07-28T11:30:36.000Z</time>
      </trkpt>
      <trkpt lat="44.00747" lon="7.25269">
        <ele>1574</ele>
        <time>2018-07-28T11:30:37.000Z</time>
      </trkpt>
      <trkpt lat="44.00745" lon="7.25268">
        <ele>1574</ele>
        <time>2018-07-28T11:30:38.000Z</time>
      </trkpt>
      <trkpt lat="44.00742" lon="7.25269">
        <ele>1573</ele>
        <time>2018-07-28T11:30:39.000Z</time>
      </trkpt>
      <trkpt lat="44.00734" lon="7.25267">
        <ele>1572</ele>
        <time>2018-07-28T11:30:41.000Z</time>
      </trkpt>
      <trkpt lat="44.00724" lon="7.25263">
        <ele>1570</ele>
        <time>2018-07-28T11:30:43.000Z</time>
      </trkpt>
      <trkpt lat="44.00714" lon="7.25259">
        <ele>1569</ele>
        <time>2018-07-28T11:30:45.000Z</time>
      </trkpt>
      <trkpt lat="44.00709" lon="7.25256">
        <ele>1568</ele>
        <time>2018-07-28T11:30:46.000Z</time>
      </trkpt>
      <trkpt lat="44.00702" lon="7.25254">
        <ele>1567</ele>
        <time>2018-07-28T11:30:48.000Z</time>
      </trkpt>
      <trkpt lat="44.00703" lon="7.25255">
        <ele>1567</ele>
        <time>2018-07-28T11:30:49.000Z</time>
      </trkpt>
      <trkpt lat="44.00703" lon="7.25255">
        <ele>1567</ele>
        <time>2018-07-28T11:30:50.000Z</time>
      </trkpt>
      <trkpt lat="44.00702" lon="7.25257">
        <ele>1567</ele>
        <time>2018-07-28T11:30:53.000Z</time>
      </trkpt>
      <trkpt lat="44.00699" lon="7.25258">
        <ele>1567</ele>
        <time>2018-07-28T11:30:57.000Z</time>
      </trkpt>
      <trkpt lat="44.00696" lon="7.25258">
        <ele>1567</ele>
        <time>2018-07-28T11:30:59.000Z</time>
      </trkpt>
      <trkpt lat="44.00694" lon="7.25257">
        <ele>1567</ele>
        <time>2018-07-28T11:31:05.000Z</time>
      </trkpt>
      <trkpt lat="44.0069" lon="7.25258">
        <ele>1566</ele>
        <time>2018-07-28T11:31:12.000Z</time>
      </trkpt>
      <trkpt lat="44.00689" lon="7.25258">
        <ele>1567</ele>
        <time>2018-07-28T11:31:13.000Z</time>
      </trkpt>
      <trkpt lat="44.00681" lon="7.25257">
        <ele>1567</ele>
        <time>2018-07-28T11:31:17.000Z</time>
      </trkpt>
      <trkpt lat="44.00679" lon="7.25256">
        <ele>1568</ele>
        <time>2018-07-28T11:31:18.000Z</time>
      </trkpt>
      <trkpt lat="44.00665" lon="7.25255">
        <ele>1567</ele>
        <time>2018-07-28T11:31:23.000Z</time>
      </trkpt>
      <trkpt lat="44.00651" lon="7.25258">
        <ele>1559</ele>
        <time>2018-07-28T11:31:27.000Z</time>
      </trkpt>
      <trkpt lat="44.00641" lon="7.2526">
        <ele>1555</ele>
        <time>2018-07-28T11:31:29.000Z</time>
      </trkpt>
      <trkpt lat="44.00636" lon="7.2526">
        <ele>1553</ele>
        <time>2018-07-28T11:31:30.000Z</time>
      </trkpt>
      <trkpt lat="44.00632" lon="7.2526">
        <ele>1552</ele>
        <time>2018-07-28T11:31:31.000Z</time>
      </trkpt>
      <trkpt lat="44.00627" lon="7.25259">
        <ele>1552</ele>
        <time>2018-07-28T11:31:32.000Z</time>
      </trkpt>
      <trkpt lat="44.00624" lon="7.25256">
        <ele>1551</ele>
        <time>2018-07-28T11:31:33.000Z</time>
      </trkpt>
      <trkpt lat="44.00622" lon="7.25253">
        <ele>1551</ele>
        <time>2018-07-28T11:31:34.000Z</time>
      </trkpt>
      <trkpt lat="44.00619" lon="7.25251">
        <ele>1551</ele>
        <time>2018-07-28T11:31:35.000Z</time>
      </trkpt>
      <trkpt lat="44.00614" lon="7.25245">
        <ele>1572</ele>
        <time>2018-07-28T11:31:37.000Z</time>
      </trkpt>
      <trkpt lat="44.00612" lon="7.25244">
        <ele>1571</ele>
        <time>2018-07-28T11:31:38.000Z</time>
      </trkpt>
      <trkpt lat="44.00609" lon="7.25242">
        <ele>1570</ele>
        <time>2018-07-28T11:31:39.000Z</time>
      </trkpt>
      <trkpt lat="44.00601" lon="7.25235">
        <ele>1570</ele>
        <time>2018-07-28T11:31:42.000Z</time>
      </trkpt>
      <trkpt lat="44.00594" lon="7.25231">
        <ele>1569</ele>
        <time>2018-07-28T11:31:44.000Z</time>
      </trkpt>
      <trkpt lat="44.0059" lon="7.25229">
        <ele>1569</ele>
        <time>2018-07-28T11:31:45.000Z</time>
      </trkpt>
      <trkpt lat="44.0058" lon="7.25227">
        <ele>1561</ele>
        <time>2018-07-28T11:31:48.000Z</time>
      </trkpt>
      <trkpt lat="44.00574" lon="7.25223">
        <ele>1563</ele>
        <time>2018-07-28T11:31:50.000Z</time>
      </trkpt>
      <trkpt lat="44.00571" lon="7.25223">
        <ele>1563</ele>
        <time>2018-07-28T11:31:51.000Z</time>
      </trkpt>
      <trkpt lat="44.00568" lon="7.25224">
        <ele>1562</ele>
        <time>2018-07-28T11:31:52.000Z</time>
      </trkpt>
      <trkpt lat="44.00556" lon="7.25234">
        <ele>1561</ele>
        <time>2018-07-28T11:31:55.000Z</time>
      </trkpt>
      <trkpt lat="44.00543" lon="7.25244">
        <ele>1559</ele>
        <time>2018-07-28T11:31:57.000Z</time>
      </trkpt>
      <trkpt lat="44.00536" lon="7.25248">
        <ele>1558</ele>
        <time>2018-07-28T11:31:58.000Z</time>
      </trkpt>
      <trkpt lat="44.0053" lon="7.25251">
        <ele>1537</ele>
        <time>2018-07-28T11:31:59.000Z</time>
      </trkpt>
      <trkpt lat="44.0052" lon="7.25256">
        <ele>1537</ele>
        <time>2018-07-28T11:32:01.000Z</time>
      </trkpt>
      <trkpt lat="44.00516" lon="7.25258">
        <ele>1537</ele>
        <time>2018-07-28T11:32:02.000Z</time>
      </trkpt>
      <trkpt lat="44.00513" lon="7.25258">
        <ele>1537</ele>
        <time>2018-07-28T11:32:03.000Z</time>
      </trkpt>
      <trkpt lat="44.00508" lon="7.2526">
        <ele>1538</ele>
        <time>2018-07-28T11:32:04.000Z</time>
      </trkpt>
      <trkpt lat="44.00499" lon="7.2526">
        <ele>1535</ele>
        <time>2018-07-28T11:32:06.000Z</time>
      </trkpt>
      <trkpt lat="44.00492" lon="7.25262">
        <ele>1533</ele>
        <time>2018-07-28T11:32:08.000Z</time>
      </trkpt>
      <trkpt lat="44.00487" lon="7.25265">
        <ele>1530</ele>
        <time>2018-07-28T11:32:09.000Z</time>
      </trkpt>
      <trkpt lat="44.00483" lon="7.25267">
        <ele>1528</ele>
        <time>2018-07-28T11:32:10.000Z</time>
      </trkpt>
      <trkpt lat="44.00477" lon="7.2527">
        <ele>1527</ele>
        <time>2018-07-28T11:32:11.000Z</time>
      </trkpt>
      <trkpt lat="44.00471" lon="7.25272">
        <ele>1525</ele>
        <time>2018-07-28T11:32:12.000Z</time>
      </trkpt>
      <trkpt lat="44.00466" lon="7.25274">
        <ele>1524</ele>
        <time>2018-07-28T11:32:13.000Z</time>
      </trkpt>
      <trkpt lat="44.00461" lon="7.25274">
        <ele>1524</ele>
        <time>2018-07-28T11:32:14.000Z</time>
      </trkpt>
      <trkpt lat="44.0045" lon="7.25276">
        <ele>1523</ele>
        <time>2018-07-28T11:32:16.000Z</time>
      </trkpt>
      <trkpt lat="44.00444" lon="7.25278">
        <ele>1523</ele>
        <time>2018-07-28T11:32:17.000Z</time>
      </trkpt>
      <trkpt lat="44.00432" lon="7.25279">
        <ele>1522</ele>
        <time>2018-07-28T11:32:19.000Z</time>
      </trkpt>
      <trkpt lat="44.00426" lon="7.2528">
        <ele>1522</ele>
        <time>2018-07-28T11:32:20.000Z</time>
      </trkpt>
      <trkpt lat="44.00419" lon="7.25281">
        <ele>1522</ele>
        <time>2018-07-28T11:32:21.000Z</time>
      </trkpt>
      <trkpt lat="44.00408" lon="7.25282">
        <ele>1512</ele>
        <time>2018-07-28T11:32:23.000Z</time>
      </trkpt>
      <trkpt lat="44.00402" lon="7.25282">
        <ele>1512</ele>
        <time>2018-07-28T11:32:25.000Z</time>
      </trkpt>
      <trkpt lat="44.00401" lon="7.2528">
        <ele>1512</ele>
        <time>2018-07-28T11:32:29.000Z</time>
      </trkpt>
      <trkpt lat="44.00397" lon="7.2528">
        <ele>1511</ele>
        <time>2018-07-28T11:32:48.000Z</time>
      </trkpt>
      <trkpt lat="44.00396" lon="7.2528">
        <ele>1511</ele>
        <time>2018-07-28T11:33:02.000Z</time>
      </trkpt>
      <trkpt lat="44.00391" lon="7.25283">
        <ele>1510</ele>
        <time>2018-07-28T11:33:08.000Z</time>
      </trkpt>
      <trkpt lat="44.00391" lon="7.25283">
        <ele>1510</ele>
        <time>2018-07-28T11:33:09.000Z</time>
      </trkpt>
      <trkpt lat="44.0039" lon="7.25283">
        <ele>1510</ele>
        <time>2018-07-28T11:33:13.000Z</time>
      </trkpt>
      <trkpt lat="44.0039" lon="7.25282">
        <ele>1510</ele>
        <time>2018-07-28T11:33:16.000Z</time>
      </trkpt>
      <trkpt lat="44.00389" lon="7.25283">
        <ele>1509</ele>
        <time>2018-07-28T11:33:27.000Z</time>
      </trkpt>
      <trkpt lat="44.00385" lon="7.2529">
        <ele>1508</ele>
        <time>2018-07-28T11:33:31.000Z</time>
      </trkpt>
      <trkpt lat="44.00379" lon="7.253">
        <ele>1507</ele>
        <time>2018-07-28T11:33:34.000Z</time>
      </trkpt>
      <trkpt lat="44.00375" lon="7.25306">
        <ele>1506</ele>
        <time>2018-07-28T11:33:36.000Z</time>
      </trkpt>
      <trkpt lat="44.00371" lon="7.25312">
        <ele>1506</ele>
        <time>2018-07-28T11:33:37.000Z</time>
      </trkpt>
      <trkpt lat="44.00369" lon="7.25317">
        <ele>1505</ele>
        <time>2018-07-28T11:33:38.000Z</time>
      </trkpt>
      <trkpt lat="44.00366" lon="7.25322">
        <ele>1505</ele>
        <time>2018-07-28T11:33:39.000Z</time>
      </trkpt>
      <trkpt lat="44.00359" lon="7.2533">
        <ele>1504</ele>
        <time>2018-07-28T11:33:41.000Z</time>
      </trkpt>
      <trkpt lat="44.0035" lon="7.25337">
        <ele>1496</ele>
        <time>2018-07-28T11:33:43.000Z</time>
      </trkpt>
      <trkpt lat="44.00344" lon="7.2534">
        <ele>1496</ele>
        <time>2018-07-28T11:33:44.000Z</time>
      </trkpt>
      <trkpt lat="44.00334" lon="7.25346">
        <ele>1496</ele>
        <time>2018-07-28T11:33:46.000Z</time>
      </trkpt>
      <trkpt lat="44.00325" lon="7.25351">
        <ele>1498</ele>
        <time>2018-07-28T11:33:48.000Z</time>
      </trkpt>
      <trkpt lat="44.00318" lon="7.25359">
        <ele>1497</ele>
        <time>2018-07-28T11:33:50.000Z</time>
      </trkpt>
      <trkpt lat="44.00315" lon="7.25362">
        <ele>1497</ele>
        <time>2018-07-28T11:33:51.000Z</time>
      </trkpt>
      <trkpt lat="44.00312" lon="7.25362">
        <ele>1497</ele>
        <time>2018-07-28T11:33:52.000Z</time>
      </trkpt>
      <trkpt lat="44.00309" lon="7.25366">
        <ele>1497</ele>
        <time>2018-07-28T11:33:55.000Z</time>
      </trkpt>
      <trkpt lat="44.00316" lon="7.25369">
        <ele>1496</ele>
        <time>2018-07-28T11:33:58.000Z</time>
      </trkpt>
      <trkpt lat="44.00316" lon="7.25371">
        <ele>1496</ele>
        <time>2018-07-28T11:33:59.000Z</time>
      </trkpt>
      <trkpt lat="44.00313" lon="7.25372">
        <ele>1496</ele>
        <time>2018-07-28T11:34:02.000Z</time>
      </trkpt>
      <trkpt lat="44.0031" lon="7.25374">
        <ele>1496</ele>
        <time>2018-07-28T11:34:04.000Z</time>
      </trkpt>
      <trkpt lat="44.00304" lon="7.25378">
        <ele>1496</ele>
        <time>2018-07-28T11:34:06.000Z</time>
      </trkpt>
      <trkpt lat="44.00298" lon="7.25381">
        <ele>1496</ele>
        <time>2018-07-28T11:34:08.000Z</time>
      </trkpt>
      <trkpt lat="44.00292" lon="7.2539">
        <ele>1496</ele>
        <time>2018-07-28T11:34:10.000Z</time>
      </trkpt>
      <trkpt lat="44.0029" lon="7.25397">
        <ele>1496</ele>
        <time>2018-07-28T11:34:11.000Z</time>
      </trkpt>
      <trkpt lat="44.00287" lon="7.25403">
        <ele>1497</ele>
        <time>2018-07-28T11:34:12.000Z</time>
      </trkpt>
      <trkpt lat="44.00285" lon="7.25409">
        <ele>1497</ele>
        <time>2018-07-28T11:34:13.000Z</time>
      </trkpt>
      <trkpt lat="44.00283" lon="7.25416">
        <ele>1497</ele>
        <time>2018-07-28T11:34:14.000Z</time>
      </trkpt>
      <trkpt lat="44.00282" lon="7.25423">
        <ele>1487</ele>
        <time>2018-07-28T11:34:15.000Z</time>
      </trkpt>
      <trkpt lat="44.00282" lon="7.2543">
        <ele>1486</ele>
        <time>2018-07-28T11:34:16.000Z</time>
      </trkpt>
      <trkpt lat="44.0028" lon="7.25434">
        <ele>1486</ele>
        <time>2018-07-28T11:34:17.000Z</time>
      </trkpt>
      <trkpt lat="44.00279" lon="7.25437">
        <ele>1485</ele>
        <time>2018-07-28T11:34:18.000Z</time>
      </trkpt>
      <trkpt lat="44.00274" lon="7.25442">
        <ele>1485</ele>
        <time>2018-07-28T11:34:20.000Z</time>
      </trkpt>
      <trkpt lat="44.00267" lon="7.25447">
        <ele>1486</ele>
        <time>2018-07-28T11:34:22.000Z</time>
      </trkpt>
      <trkpt lat="44.00263" lon="7.2545">
        <ele>1485</ele>
        <time>2018-07-28T11:34:23.000Z</time>
      </trkpt>
      <trkpt lat="44.00258" lon="7.25455">
        <ele>1484</ele>
        <time>2018-07-28T11:34:24.000Z</time>
      </trkpt>
      <trkpt lat="44.00255" lon="7.25459">
        <ele>1484</ele>
        <time>2018-07-28T11:34:25.000Z</time>
      </trkpt>
      <trkpt lat="44.00252" lon="7.25464">
        <ele>1483</ele>
        <time>2018-07-28T11:34:26.000Z</time>
      </trkpt>
      <trkpt lat="44.0025" lon="7.25469">
        <ele>1494</ele>
        <time>2018-07-28T11:34:27.000Z</time>
      </trkpt>
      <trkpt lat="44.00246" lon="7.25472">
        <ele>1493</ele>
        <time>2018-07-28T11:34:28.000Z</time>
      </trkpt>
      <trkpt lat="44.00243" lon="7.25479">
        <ele>1491</ele>
        <time>2018-07-28T11:34:29.000Z</time>
      </trkpt>
      <trkpt lat="44.00237" lon="7.25495">
        <ele>1488</ele>
        <time>2018-07-28T11:34:31.000Z</time>
      </trkpt>
      <trkpt lat="44.00235" lon="7.25504">
        <ele>1476</ele>
        <time>2018-07-28T11:34:32.000Z</time>
      </trkpt>
      <trkpt lat="44.00231" lon="7.25511">
        <ele>1475</ele>
        <time>2018-07-28T11:34:33.000Z</time>
      </trkpt>
      <trkpt lat="44.00228" lon="7.25518">
        <ele>1474</ele>
        <time>2018-07-28T11:34:34.000Z</time>
      </trkpt>
      <trkpt lat="44.00224" lon="7.25524">
        <ele>1473</ele>
        <time>2018-07-28T11:34:35.000Z</time>
      </trkpt>
      <trkpt lat="44.00215" lon="7.25536">
        <ele>1471</ele>
        <time>2018-07-28T11:34:37.000Z</time>
      </trkpt>
      <trkpt lat="44.00208" lon="7.25542">
        <ele>1471</ele>
        <time>2018-07-28T11:34:39.000Z</time>
      </trkpt>
      <trkpt lat="44.00198" lon="7.25551">
        <ele>1470</ele>
        <time>2018-07-28T11:34:42.000Z</time>
      </trkpt>
      <trkpt lat="44.00184" lon="7.25564">
        <ele>1468</ele>
        <time>2018-07-28T11:34:46.000Z</time>
      </trkpt>
      <trkpt lat="44.00182" lon="7.25567">
        <ele>1467</ele>
        <time>2018-07-28T11:34:47.000Z</time>
      </trkpt>
      <trkpt lat="44.00179" lon="7.25569">
        <ele>1466</ele>
        <time>2018-07-28T11:34:48.000Z</time>
      </trkpt>
      <trkpt lat="44.00173" lon="7.2557">
        <ele>1466</ele>
        <time>2018-07-28T11:34:50.000Z</time>
      </trkpt>
      <trkpt lat="44.00171" lon="7.25571">
        <ele>1465</ele>
        <time>2018-07-28T11:34:52.000Z</time>
      </trkpt>
      <trkpt lat="44.00171" lon="7.25573">
        <ele>1465</ele>
        <time>2018-07-28T11:34:53.000Z</time>
      </trkpt>
      <trkpt lat="44.00171" lon="7.25574">
        <ele>1465</ele>
        <time>2018-07-28T11:34:54.000Z</time>
      </trkpt>
      <trkpt lat="44.00171" lon="7.25578">
        <ele>1463</ele>
        <time>2018-07-28T11:34:57.000Z</time>
      </trkpt>
      <trkpt lat="44.00173" lon="7.25583">
        <ele>1463</ele>
        <time>2018-07-28T11:35:00.000Z</time>
      </trkpt>
      <trkpt lat="44.00171" lon="7.25585">
        <ele>1456</ele>
        <time>2018-07-28T11:35:02.000Z</time>
      </trkpt>
      <trkpt lat="44.00171" lon="7.25586">
        <ele>1455</ele>
        <time>2018-07-28T11:35:03.000Z</time>
      </trkpt>
      <trkpt lat="44.00171" lon="7.25589">
        <ele>1454</ele>
        <time>2018-07-28T11:35:04.000Z</time>
      </trkpt>
      <trkpt lat="44.00168" lon="7.2559">
        <ele>1454</ele>
        <time>2018-07-28T11:35:06.000Z</time>
      </trkpt>
      <trkpt lat="44.0016" lon="7.25588">
        <ele>1453</ele>
        <time>2018-07-28T11:35:09.000Z</time>
      </trkpt>
      <trkpt lat="44.00156" lon="7.25588">
        <ele>1451</ele>
        <time>2018-07-28T11:35:10.000Z</time>
      </trkpt>
      <trkpt lat="44.00152" lon="7.25587">
        <ele>1449</ele>
        <time>2018-07-28T11:35:11.000Z</time>
      </trkpt>
      <trkpt lat="44.00147" lon="7.25586">
        <ele>1447</ele>
        <time>2018-07-28T11:35:12.000Z</time>
      </trkpt>
      <trkpt lat="44.00144" lon="7.25586">
        <ele>1446</ele>
        <time>2018-07-28T11:35:13.000Z</time>
      </trkpt>
      <trkpt lat="44.00139" lon="7.25587">
        <ele>1444</ele>
        <time>2018-07-28T11:35:14.000Z</time>
      </trkpt>
      <trkpt lat="44.00135" lon="7.25588">
        <ele>1443</ele>
        <time>2018-07-28T11:35:15.000Z</time>
      </trkpt>
      <trkpt lat="44.00127" lon="7.25591">
        <ele>1441</ele>
        <time>2018-07-28T11:35:17.000Z</time>
      </trkpt>
      <trkpt lat="44.00117" lon="7.25597">
        <ele>1440</ele>
        <time>2018-07-28T11:35:19.000Z</time>
      </trkpt>
      <trkpt lat="44.00113" lon="7.256">
        <ele>1439</ele>
        <time>2018-07-28T11:35:20.000Z</time>
      </trkpt>
      <trkpt lat="44.00109" lon="7.25601">
        <ele>1439</ele>
        <time>2018-07-28T11:35:21.000Z</time>
      </trkpt>
      <trkpt lat="44.00107" lon="7.25601">
        <ele>1439</ele>
        <time>2018-07-28T11:35:22.000Z</time>
      </trkpt>
      <trkpt lat="44.00104" lon="7.25602">
        <ele>1439</ele>
        <time>2018-07-28T11:35:24.000Z</time>
      </trkpt>
      <trkpt lat="44.00104" lon="7.25602">
        <ele>1439</ele>
        <time>2018-07-28T11:35:26.000Z</time>
      </trkpt>
      <trkpt lat="44.00103" lon="7.25602">
        <ele>1439</ele>
        <time>2018-07-28T11:35:29.000Z</time>
      </trkpt>
      <trkpt lat="44.00102" lon="7.25603">
        <ele>1439</ele>
        <time>2018-07-28T11:35:30.000Z</time>
      </trkpt>
      <trkpt lat="44.00101" lon="7.25603">
        <ele>1439</ele>
        <time>2018-07-28T11:35:32.000Z</time>
      </trkpt>
      <trkpt lat="44.00103" lon="7.25604">
        <ele>1439</ele>
        <time>2018-07-28T11:35:38.000Z</time>
      </trkpt>
      <trkpt lat="44.00103" lon="7.25605">
        <ele>1439</ele>
        <time>2018-07-28T11:35:39.000Z</time>
      </trkpt>
      <trkpt lat="44.00102" lon="7.25607">
        <ele>1438</ele>
        <time>2018-07-28T11:35:42.000Z</time>
      </trkpt>
      <trkpt lat="44.00102" lon="7.25607">
        <ele>1438</ele>
        <time>2018-07-28T11:35:43.000Z</time>
      </trkpt>
      <trkpt lat="44.001" lon="7.25608">
        <ele>1438</ele>
        <time>2018-07-28T11:35:47.000Z</time>
      </trkpt>
      <trkpt lat="44.00099" lon="7.25609">
        <ele>1438</ele>
        <time>2018-07-28T11:35:48.000Z</time>
      </trkpt>
      <trkpt lat="44.00089" lon="7.25613">
        <ele>1437</ele>
        <time>2018-07-28T11:35:51.000Z</time>
      </trkpt>
      <trkpt lat="44.00085" lon="7.25613">
        <ele>1437</ele>
        <time>2018-07-28T11:35:52.000Z</time>
      </trkpt>
      <trkpt lat="44.00077" lon="7.25615">
        <ele>1432</ele>
        <time>2018-07-28T11:35:54.000Z</time>
      </trkpt>
      <trkpt lat="44.00073" lon="7.25617">
        <ele>1431</ele>
        <time>2018-07-28T11:35:55.000Z</time>
      </trkpt>
      <trkpt lat="44.00069" lon="7.2562">
        <ele>1430</ele>
        <time>2018-07-28T11:35:56.000Z</time>
      </trkpt>
      <trkpt lat="44.00064" lon="7.25623">
        <ele>1429</ele>
        <time>2018-07-28T11:35:57.000Z</time>
      </trkpt>
      <trkpt lat="44.00055" lon="7.25627">
        <ele>1428</ele>
        <time>2018-07-28T11:35:59.000Z</time>
      </trkpt>
      <trkpt lat="44.0005" lon="7.2563">
        <ele>1427</ele>
        <time>2018-07-28T11:36:00.000Z</time>
      </trkpt>
      <trkpt lat="44.00039" lon="7.25637">
        <ele>1427</ele>
        <time>2018-07-28T11:36:02.000Z</time>
      </trkpt>
      <trkpt lat="44.00035" lon="7.2564">
        <ele>1427</ele>
        <time>2018-07-28T11:36:03.000Z</time>
      </trkpt>
      <trkpt lat="44.00031" lon="7.25643">
        <ele>1427</ele>
        <time>2018-07-28T11:36:04.000Z</time>
      </trkpt>
      <trkpt lat="44.00025" lon="7.25653">
        <ele>1427</ele>
        <time>2018-07-28T11:36:06.000Z</time>
      </trkpt>
      <trkpt lat="44.00022" lon="7.25658">
        <ele>1428</ele>
        <time>2018-07-28T11:36:07.000Z</time>
      </trkpt>
      <trkpt lat="44.0002" lon="7.25664">
        <ele>1428</ele>
        <time>2018-07-28T11:36:08.000Z</time>
      </trkpt>
      <trkpt lat="44.00018" lon="7.25672">
        <ele>1419</ele>
        <time>2018-07-28T11:36:09.000Z</time>
      </trkpt>
      <trkpt lat="44.00017" lon="7.2568">
        <ele>1418</ele>
        <time>2018-07-28T11:36:10.000Z</time>
      </trkpt>
      <trkpt lat="44.00016" lon="7.25688">
        <ele>1416</ele>
        <time>2018-07-28T11:36:11.000Z</time>
      </trkpt>
      <trkpt lat="44.00015" lon="7.25697">
        <ele>1414</ele>
        <time>2018-07-28T11:36:12.000Z</time>
      </trkpt>
      <trkpt lat="44.00014" lon="7.25703">
        <ele>1412</ele>
        <time>2018-07-28T11:36:13.000Z</time>
      </trkpt>
      <trkpt lat="44.00012" lon="7.2571">
        <ele>1411</ele>
        <time>2018-07-28T11:36:14.000Z</time>
      </trkpt>
      <trkpt lat="44.00008" lon="7.25736">
        <ele>1408</ele>
        <time>2018-07-28T11:36:18.000Z</time>
      </trkpt>
      <trkpt lat="44.00007" lon="7.25741">
        <ele>1408</ele>
        <time>2018-07-28T11:36:19.000Z</time>
      </trkpt>
      <trkpt lat="44" lon="7.25742">
        <ele>1411</ele>
        <time>2018-07-28T11:36:21.000Z</time>
      </trkpt>
      <trkpt lat="43.99995" lon="7.25744">
        <ele>1411</ele>
        <time>2018-07-28T11:36:22.000Z</time>
      </trkpt>
      <trkpt lat="43.99992" lon="7.25744">
        <ele>1411</ele>
        <time>2018-07-28T11:36:23.000Z</time>
      </trkpt>
      <trkpt lat="43.99983" lon="7.25746">
        <ele>1413</ele>
        <time>2018-07-28T11:36:25.000Z</time>
      </trkpt>
      <trkpt lat="43.99972" lon="7.25749">
        <ele>1414</ele>
        <time>2018-07-28T11:36:27.000Z</time>
      </trkpt>
      <trkpt lat="43.99962" lon="7.25753">
        <ele>1399</ele>
        <time>2018-07-28T11:36:29.000Z</time>
      </trkpt>
      <trkpt lat="43.99958" lon="7.25754">
        <ele>1399</ele>
        <time>2018-07-28T11:36:30.000Z</time>
      </trkpt>
      <trkpt lat="43.99955" lon="7.25754">
        <ele>1400</ele>
        <time>2018-07-28T11:36:31.000Z</time>
      </trkpt>
      <trkpt lat="43.99946" lon="7.25755">
        <ele>1401</ele>
        <time>2018-07-28T11:36:33.000Z</time>
      </trkpt>
      <trkpt lat="43.99941" lon="7.25754">
        <ele>1402</ele>
        <time>2018-07-28T11:36:34.000Z</time>
      </trkpt>
      <trkpt lat="43.99935" lon="7.25753">
        <ele>1404</ele>
        <time>2018-07-28T11:36:35.000Z</time>
      </trkpt>
      <trkpt lat="43.9993" lon="7.25752">
        <ele>1407</ele>
        <time>2018-07-28T11:36:36.000Z</time>
      </trkpt>
      <trkpt lat="43.99921" lon="7.25753">
        <ele>1412</ele>
        <time>2018-07-28T11:36:38.000Z</time>
      </trkpt>
      <trkpt lat="43.99916" lon="7.25756">
        <ele>1413</ele>
        <time>2018-07-28T11:36:39.000Z</time>
      </trkpt>
      <trkpt lat="43.99911" lon="7.25759">
        <ele>1411</ele>
        <time>2018-07-28T11:36:40.000Z</time>
      </trkpt>
      <trkpt lat="43.99903" lon="7.25766">
        <ele>1409</ele>
        <time>2018-07-28T11:36:43.000Z</time>
      </trkpt>
      <trkpt lat="43.99893" lon="7.25781">
        <ele>1405</ele>
        <time>2018-07-28T11:36:47.000Z</time>
      </trkpt>
      <trkpt lat="43.99884" lon="7.25793">
        <ele>1404</ele>
        <time>2018-07-28T11:36:52.000Z</time>
      </trkpt>
      <trkpt lat="43.99883" lon="7.25795">
        <ele>1404</ele>
        <time>2018-07-28T11:36:53.000Z</time>
      </trkpt>
      <trkpt lat="43.99878" lon="7.25808">
        <ele>1403</ele>
        <time>2018-07-28T11:36:56.000Z</time>
      </trkpt>
      <trkpt lat="43.99873" lon="7.25814">
        <ele>1403</ele>
        <time>2018-07-28T11:36:58.000Z</time>
      </trkpt>
      <trkpt lat="43.99868" lon="7.2583">
        <ele>1403</ele>
        <time>2018-07-28T11:37:01.000Z</time>
      </trkpt>
      <trkpt lat="43.99867" lon="7.25844">
        <ele>1386</ele>
        <time>2018-07-28T11:37:04.000Z</time>
      </trkpt>
      <trkpt lat="43.99868" lon="7.25849">
        <ele>1385</ele>
        <time>2018-07-28T11:37:08.000Z</time>
      </trkpt>
      <trkpt lat="43.99868" lon="7.2585">
        <ele>1385</ele>
        <time>2018-07-28T11:37:09.000Z</time>
      </trkpt>
      <trkpt lat="43.99867" lon="7.25852">
        <ele>1385</ele>
        <time>2018-07-28T11:37:11.000Z</time>
      </trkpt>
      <trkpt lat="43.99866" lon="7.25853">
        <ele>1385</ele>
        <time>2018-07-28T11:37:13.000Z</time>
      </trkpt>
      <trkpt lat="43.9986" lon="7.25853">
        <ele>1386</ele>
        <time>2018-07-28T11:37:18.000Z</time>
      </trkpt>
      <trkpt lat="43.99857" lon="7.25853">
        <ele>1387</ele>
        <time>2018-07-28T11:37:19.000Z</time>
      </trkpt>
      <trkpt lat="43.99851" lon="7.25856">
        <ele>1388</ele>
        <time>2018-07-28T11:37:22.000Z</time>
      </trkpt>
      <trkpt lat="43.99847" lon="7.2586">
        <ele>1388</ele>
        <time>2018-07-28T11:37:24.000Z</time>
      </trkpt>
      <trkpt lat="43.99845" lon="7.25863">
        <ele>1387</ele>
        <time>2018-07-28T11:37:25.000Z</time>
      </trkpt>
      <trkpt lat="43.99843" lon="7.25867">
        <ele>1386</ele>
        <time>2018-07-28T11:37:26.000Z</time>
      </trkpt>
      <trkpt lat="43.99838" lon="7.25872">
        <ele>1385</ele>
        <time>2018-07-28T11:37:28.000Z</time>
      </trkpt>
      <trkpt lat="43.99835" lon="7.25875">
        <ele>1384</ele>
        <time>2018-07-28T11:37:29.000Z</time>
      </trkpt>
      <trkpt lat="43.99831" lon="7.25879">
        <ele>1392</ele>
        <time>2018-07-28T11:37:31.000Z</time>
      </trkpt>
      <trkpt lat="43.99829" lon="7.25882">
        <ele>1391</ele>
        <time>2018-07-28T11:37:32.000Z</time>
      </trkpt>
      <trkpt lat="43.99828" lon="7.25885">
        <ele>1391</ele>
        <time>2018-07-28T11:37:33.000Z</time>
      </trkpt>
      <trkpt lat="43.99822" lon="7.25889">
        <ele>1390</ele>
        <time>2018-07-28T11:37:35.000Z</time>
      </trkpt>
      <trkpt lat="43.9982" lon="7.25891">
        <ele>1390</ele>
        <time>2018-07-28T11:37:36.000Z</time>
      </trkpt>
      <trkpt lat="43.99819" lon="7.25892">
        <ele>1390</ele>
        <time>2018-07-28T11:37:37.000Z</time>
      </trkpt>
      <trkpt lat="43.99818" lon="7.25894">
        <ele>1389</ele>
        <time>2018-07-28T11:37:38.000Z</time>
      </trkpt>
      <trkpt lat="43.99818" lon="7.25896">
        <ele>1389</ele>
        <time>2018-07-28T11:37:40.000Z</time>
      </trkpt>
      <trkpt lat="43.99819" lon="7.25896">
        <ele>1389</ele>
        <time>2018-07-28T11:37:41.000Z</time>
      </trkpt>
      <trkpt lat="43.99821" lon="7.25895">
        <ele>1389</ele>
        <time>2018-07-28T11:37:43.000Z</time>
      </trkpt>
      <trkpt lat="43.99824" lon="7.25894">
        <ele>1389</ele>
        <time>2018-07-28T11:37:45.000Z</time>
      </trkpt>
      <trkpt lat="43.99825" lon="7.25893">
        <ele>1389</ele>
        <time>2018-07-28T11:37:46.000Z</time>
      </trkpt>
      <trkpt lat="43.99828" lon="7.25893">
        <ele>1389</ele>
        <time>2018-07-28T11:37:48.000Z</time>
      </trkpt>
      <trkpt lat="43.99826" lon="7.25896">
        <ele>1388</ele>
        <time>2018-07-28T11:37:50.000Z</time>
      </trkpt>
      <trkpt lat="43.99822" lon="7.259">
        <ele>1388</ele>
        <time>2018-07-28T11:37:53.000Z</time>
      </trkpt>
      <trkpt lat="43.99819" lon="7.25906">
        <ele>1387</ele>
        <time>2018-07-28T11:37:55.000Z</time>
      </trkpt>
      <trkpt lat="43.99815" lon="7.25916">
        <ele>1387</ele>
        <time>2018-07-28T11:37:57.000Z</time>
      </trkpt>
      <trkpt lat="43.9981" lon="7.25928">
        <ele>1373</ele>
        <time>2018-07-28T11:37:59.000Z</time>
      </trkpt>
      <trkpt lat="43.99807" lon="7.25935">
        <ele>1372</ele>
        <time>2018-07-28T11:38:00.000Z</time>
      </trkpt>
      <trkpt lat="43.99804" lon="7.25942">
        <ele>1371</ele>
        <time>2018-07-28T11:38:01.000Z</time>
      </trkpt>
      <trkpt lat="43.99801" lon="7.2595">
        <ele>1369</ele>
        <time>2018-07-28T11:38:03.000Z</time>
      </trkpt>
      <trkpt lat="43.998" lon="7.25952">
        <ele>1369</ele>
        <time>2018-07-28T11:38:04.000Z</time>
      </trkpt>
      <trkpt lat="43.998" lon="7.25954">
        <ele>1369</ele>
        <time>2018-07-28T11:38:05.000Z</time>
      </trkpt>
      <trkpt lat="43.99801" lon="7.25955">
        <ele>1368</ele>
        <time>2018-07-28T11:38:06.000Z</time>
      </trkpt>
      <trkpt lat="43.998" lon="7.25954">
        <ele>1368</ele>
        <time>2018-07-28T11:38:07.000Z</time>
      </trkpt>
      <trkpt lat="43.99802" lon="7.25954">
        <ele>1368</ele>
        <time>2018-07-28T11:38:08.000Z</time>
      </trkpt>
      <trkpt lat="43.99807" lon="7.25948">
        <ele>1369</ele>
        <time>2018-07-28T11:38:11.000Z</time>
      </trkpt>
      <trkpt lat="43.99811" lon="7.25944">
        <ele>1370</ele>
        <time>2018-07-28T11:38:13.000Z</time>
      </trkpt>
      <trkpt lat="43.99812" lon="7.25942">
        <ele>1371</ele>
        <time>2018-07-28T11:38:14.000Z</time>
      </trkpt>
      <trkpt lat="43.99813" lon="7.25941">
        <ele>1371</ele>
        <time>2018-07-28T11:38:15.000Z</time>
      </trkpt>
      <trkpt lat="43.99815" lon="7.25944">
        <ele>1370</ele>
        <time>2018-07-28T11:38:17.000Z</time>
      </trkpt>
      <trkpt lat="43.99811" lon="7.2596">
        <ele>1366</ele>
        <time>2018-07-28T11:38:20.000Z</time>
      </trkpt>
      <trkpt lat="43.99809" lon="7.25966">
        <ele>1364</ele>
        <time>2018-07-28T11:38:21.000Z</time>
      </trkpt>
      <trkpt lat="43.99807" lon="7.25971">
        <ele>1363</ele>
        <time>2018-07-28T11:38:22.000Z</time>
      </trkpt>
      <trkpt lat="43.99806" lon="7.25975">
        <ele>1362</ele>
        <time>2018-07-28T11:38:23.000Z</time>
      </trkpt>
      <trkpt lat="43.99805" lon="7.2598">
        <ele>1361</ele>
        <time>2018-07-28T11:38:24.000Z</time>
      </trkpt>
      <trkpt lat="43.99802" lon="7.2599">
        <ele>1360</ele>
        <time>2018-07-28T11:38:26.000Z</time>
      </trkpt>
      <trkpt lat="43.99797" lon="7.25994">
        <ele>1360</ele>
        <time>2018-07-28T11:38:28.000Z</time>
      </trkpt>
      <trkpt lat="43.99789" lon="7.25992">
        <ele>1363</ele>
        <time>2018-07-28T11:38:31.000Z</time>
      </trkpt>
      <trkpt lat="43.99782" lon="7.25993">
        <ele>1364</ele>
        <time>2018-07-28T11:38:36.000Z</time>
      </trkpt>
      <trkpt lat="43.99777" lon="7.25994">
        <ele>1364</ele>
        <time>2018-07-28T11:38:37.000Z</time>
      </trkpt>
      <trkpt lat="43.99773" lon="7.25995">
        <ele>1364</ele>
        <time>2018-07-28T11:38:38.000Z</time>
      </trkpt>
      <trkpt lat="43.99769" lon="7.25996">
        <ele>1365</ele>
        <time>2018-07-28T11:38:39.000Z</time>
      </trkpt>
      <trkpt lat="43.99766" lon="7.25997">
        <ele>1365</ele>
        <time>2018-07-28T11:38:40.000Z</time>
      </trkpt>
      <trkpt lat="43.99759" lon="7.26003">
        <ele>1351</ele>
        <time>2018-07-28T11:38:43.000Z</time>
      </trkpt>
      <trkpt lat="43.99754" lon="7.26011">
        <ele>1349</ele>
        <time>2018-07-28T11:38:45.000Z</time>
      </trkpt>
      <trkpt lat="43.9975" lon="7.26016">
        <ele>1357</ele>
        <time>2018-07-28T11:38:46.000Z</time>
      </trkpt>
      <trkpt lat="43.99746" lon="7.2602">
        <ele>1355</ele>
        <time>2018-07-28T11:38:47.000Z</time>
      </trkpt>
      <trkpt lat="43.99742" lon="7.26025">
        <ele>1354</ele>
        <time>2018-07-28T11:38:48.000Z</time>
      </trkpt>
      <trkpt lat="43.99739" lon="7.26029">
        <ele>1352</ele>
        <time>2018-07-28T11:38:49.000Z</time>
      </trkpt>
      <trkpt lat="43.99738" lon="7.26033">
        <ele>1351</ele>
        <time>2018-07-28T11:38:50.000Z</time>
      </trkpt>
      <trkpt lat="43.99735" lon="7.26037">
        <ele>1350</ele>
        <time>2018-07-28T11:38:51.000Z</time>
      </trkpt>
      <trkpt lat="43.99729" lon="7.26046">
        <ele>1348</ele>
        <time>2018-07-28T11:38:53.000Z</time>
      </trkpt>
      <trkpt lat="43.99725" lon="7.26051">
        <ele>1347</ele>
        <time>2018-07-28T11:38:54.000Z</time>
      </trkpt>
      <trkpt lat="43.9972" lon="7.26059">
        <ele>1346</ele>
        <time>2018-07-28T11:38:56.000Z</time>
      </trkpt>
      <trkpt lat="43.99716" lon="7.26067">
        <ele>1345</ele>
        <time>2018-07-28T11:38:58.000Z</time>
      </trkpt>
      <trkpt lat="43.99709" lon="7.26082">
        <ele>1345</ele>
        <time>2018-07-28T11:39:01.000Z</time>
      </trkpt>
      <trkpt lat="43.99706" lon="7.26088">
        <ele>1321</ele>
        <time>2018-07-28T11:39:02.000Z</time>
      </trkpt>
      <trkpt lat="43.99704" lon="7.26094">
        <ele>1322</ele>
        <time>2018-07-28T11:39:03.000Z</time>
      </trkpt>
      <trkpt lat="43.99702" lon="7.26098">
        <ele>1321</ele>
        <time>2018-07-28T11:39:04.000Z</time>
      </trkpt>
      <trkpt lat="43.997" lon="7.26101">
        <ele>1321</ele>
        <time>2018-07-28T11:39:05.000Z</time>
      </trkpt>
      <trkpt lat="43.99697" lon="7.26106">
        <ele>1321</ele>
        <time>2018-07-28T11:39:06.000Z</time>
      </trkpt>
      <trkpt lat="43.99694" lon="7.2611">
        <ele>1321</ele>
        <time>2018-07-28T11:39:07.000Z</time>
      </trkpt>
      <trkpt lat="43.9969" lon="7.26113">
        <ele>1321</ele>
        <time>2018-07-28T11:39:08.000Z</time>
      </trkpt>
      <trkpt lat="43.99681" lon="7.26116">
        <ele>1321</ele>
        <time>2018-07-28T11:39:10.000Z</time>
      </trkpt>
      <trkpt lat="43.99674" lon="7.26124">
        <ele>1319</ele>
        <time>2018-07-28T11:39:12.000Z</time>
      </trkpt>
      <trkpt lat="43.9967" lon="7.2613">
        <ele>1317</ele>
        <time>2018-07-28T11:39:13.000Z</time>
      </trkpt>
      <trkpt lat="43.99666" lon="7.26135">
        <ele>1332</ele>
        <time>2018-07-28T11:39:14.000Z</time>
      </trkpt>
      <trkpt lat="43.99662" lon="7.26141">
        <ele>1329</ele>
        <time>2018-07-28T11:39:15.000Z</time>
      </trkpt>
      <trkpt lat="43.99658" lon="7.26147">
        <ele>1327</ele>
        <time>2018-07-28T11:39:16.000Z</time>
      </trkpt>
      <trkpt lat="43.99656" lon="7.26152">
        <ele>1324</ele>
        <time>2018-07-28T11:39:17.000Z</time>
      </trkpt>
      <trkpt lat="43.99655" lon="7.26156">
        <ele>1323</ele>
        <time>2018-07-28T11:39:18.000Z</time>
      </trkpt>
      <trkpt lat="43.99651" lon="7.26165">
        <ele>1321</ele>
        <time>2018-07-28T11:39:20.000Z</time>
      </trkpt>
      <trkpt lat="43.9965" lon="7.2617">
        <ele>1302</ele>
        <time>2018-07-28T11:39:21.000Z</time>
      </trkpt>
      <trkpt lat="43.99648" lon="7.2618">
        <ele>1300</ele>
        <time>2018-07-28T11:39:23.000Z</time>
      </trkpt>
      <trkpt lat="43.99647" lon="7.26185">
        <ele>1299</ele>
        <time>2018-07-28T11:39:24.000Z</time>
      </trkpt>
      <trkpt lat="43.99647" lon="7.26189">
        <ele>1298</ele>
        <time>2018-07-28T11:39:25.000Z</time>
      </trkpt>
      <trkpt lat="43.99647" lon="7.26193">
        <ele>1297</ele>
        <time>2018-07-28T11:39:26.000Z</time>
      </trkpt>
      <trkpt lat="43.99645" lon="7.26195">
        <ele>1296</ele>
        <time>2018-07-28T11:39:27.000Z</time>
      </trkpt>
      <trkpt lat="43.99643" lon="7.26196">
        <ele>1296</ele>
        <time>2018-07-28T11:39:28.000Z</time>
      </trkpt>
      <trkpt lat="43.99638" lon="7.26198">
        <ele>1296</ele>
        <time>2018-07-28T11:39:30.000Z</time>
      </trkpt>
      <trkpt lat="43.9963" lon="7.26199">
        <ele>1296</ele>
        <time>2018-07-28T11:39:32.000Z</time>
      </trkpt>
      <trkpt lat="43.99626" lon="7.26198">
        <ele>1296</ele>
        <time>2018-07-28T11:39:33.000Z</time>
      </trkpt>
      <trkpt lat="43.99622" lon="7.26198">
        <ele>1297</ele>
        <time>2018-07-28T11:39:34.000Z</time>
      </trkpt>
      <trkpt lat="43.99621" lon="7.26198">
        <ele>1297</ele>
        <time>2018-07-28T11:39:36.000Z</time>
      </trkpt>
      <trkpt lat="43.99621" lon="7.26198">
        <ele>1297</ele>
        <time>2018-07-28T11:39:38.000Z</time>
      </trkpt>
      <trkpt lat="43.99618" lon="7.26198">
        <ele>1297</ele>
        <time>2018-07-28T11:39:42.000Z</time>
      </trkpt>
      <trkpt lat="43.99613" lon="7.26199">
        <ele>1297</ele>
        <time>2018-07-28T11:39:48.000Z</time>
      </trkpt>
      <trkpt lat="43.9961" lon="7.26199">
        <ele>1298</ele>
        <time>2018-07-28T11:39:50.000Z</time>
      </trkpt>
      <trkpt lat="43.99605" lon="7.262">
        <ele>1298</ele>
        <time>2018-07-28T11:39:52.000Z</time>
      </trkpt>
      <trkpt lat="43.99593" lon="7.26201">
        <ele>1298</ele>
        <time>2018-07-28T11:39:56.000Z</time>
      </trkpt>
      <trkpt lat="43.9958" lon="7.26206">
        <ele>1304</ele>
        <time>2018-07-28T11:40:00.000Z</time>
      </trkpt>
      <trkpt lat="43.99578" lon="7.26206">
        <ele>1304</ele>
        <time>2018-07-28T11:40:01.000Z</time>
      </trkpt>
      <trkpt lat="43.99566" lon="7.2621">
        <ele>1303</ele>
        <time>2018-07-28T11:40:05.000Z</time>
      </trkpt>
      <trkpt lat="43.99563" lon="7.26211">
        <ele>1303</ele>
        <time>2018-07-28T11:40:06.000Z</time>
      </trkpt>
      <trkpt lat="43.99553" lon="7.26218">
        <ele>1302</ele>
        <time>2018-07-28T11:40:10.000Z</time>
      </trkpt>
      <trkpt lat="43.99547" lon="7.26223">
        <ele>1301</ele>
        <time>2018-07-28T11:40:12.000Z</time>
      </trkpt>
      <trkpt lat="43.99539" lon="7.2623">
        <ele>1300</ele>
        <time>2018-07-28T11:40:14.000Z</time>
      </trkpt>
      <trkpt lat="43.99535" lon="7.26232">
        <ele>1301</ele>
        <time>2018-07-28T11:40:15.000Z</time>
      </trkpt>
      <trkpt lat="43.99531" lon="7.26234">
        <ele>1300</ele>
        <time>2018-07-28T11:40:16.000Z</time>
      </trkpt>
      <trkpt lat="43.99524" lon="7.26246">
        <ele>1298</ele>
        <time>2018-07-28T11:40:19.000Z</time>
      </trkpt>
      <trkpt lat="43.99516" lon="7.26253">
        <ele>1278</ele>
        <time>2018-07-28T11:40:21.000Z</time>
      </trkpt>
      <trkpt lat="43.99511" lon="7.26255">
        <ele>1280</ele>
        <time>2018-07-28T11:40:22.000Z</time>
      </trkpt>
      <trkpt lat="43.99501" lon="7.26258">
        <ele>1284</ele>
        <time>2018-07-28T11:40:24.000Z</time>
      </trkpt>
      <trkpt lat="43.99496" lon="7.26259">
        <ele>1284</ele>
        <time>2018-07-28T11:40:26.000Z</time>
      </trkpt>
      <trkpt lat="43.99487" lon="7.26267">
        <ele>1279</ele>
        <time>2018-07-28T11:40:30.000Z</time>
      </trkpt>
      <trkpt lat="43.99486" lon="7.26267">
        <ele>1278</ele>
        <time>2018-07-28T11:40:31.000Z</time>
      </trkpt>
      <trkpt lat="43.99484" lon="7.26269">
        <ele>1278</ele>
        <time>2018-07-28T11:40:32.000Z</time>
      </trkpt>
      <trkpt lat="43.99478" lon="7.26278">
        <ele>1274</ele>
        <time>2018-07-28T11:40:35.000Z</time>
      </trkpt>
      <trkpt lat="43.99474" lon="7.26282">
        <ele>1273</ele>
        <time>2018-07-28T11:40:36.000Z</time>
      </trkpt>
      <trkpt lat="43.99464" lon="7.26293">
        <ele>1271</ele>
        <time>2018-07-28T11:40:39.000Z</time>
      </trkpt>
      <trkpt lat="43.9946" lon="7.26297">
        <ele>1270</ele>
        <time>2018-07-28T11:40:40.000Z</time>
      </trkpt>
      <trkpt lat="43.99457" lon="7.263">
        <ele>1270</ele>
        <time>2018-07-28T11:40:41.000Z</time>
      </trkpt>
      <trkpt lat="43.99452" lon="7.26308">
        <ele>1269</ele>
        <time>2018-07-28T11:40:43.000Z</time>
      </trkpt>
      <trkpt lat="43.99449" lon="7.26314">
        <ele>1269</ele>
        <time>2018-07-28T11:40:44.000Z</time>
      </trkpt>
      <trkpt lat="43.99446" lon="7.2632">
        <ele>1268</ele>
        <time>2018-07-28T11:40:45.000Z</time>
      </trkpt>
      <trkpt lat="43.99442" lon="7.26331">
        <ele>1268</ele>
        <time>2018-07-28T11:40:47.000Z</time>
      </trkpt>
      <trkpt lat="43.9944" lon="7.26337">
        <ele>1258</ele>
        <time>2018-07-28T11:40:48.000Z</time>
      </trkpt>
      <trkpt lat="43.99438" lon="7.26343">
        <ele>1258</ele>
        <time>2018-07-28T11:40:49.000Z</time>
      </trkpt>
      <trkpt lat="43.99434" lon="7.26348">
        <ele>1258</ele>
        <time>2018-07-28T11:40:50.000Z</time>
      </trkpt>
      <trkpt lat="43.9943" lon="7.26359">
        <ele>1257</ele>
        <time>2018-07-28T11:40:52.000Z</time>
      </trkpt>
      <trkpt lat="43.99427" lon="7.26364">
        <ele>1256</ele>
        <time>2018-07-28T11:40:53.000Z</time>
      </trkpt>
      <trkpt lat="43.99423" lon="7.26372">
        <ele>1255</ele>
        <time>2018-07-28T11:40:54.000Z</time>
      </trkpt>
      <trkpt lat="43.99418" lon="7.26383">
        <ele>1254</ele>
        <time>2018-07-28T11:40:56.000Z</time>
      </trkpt>
      <trkpt lat="43.99412" lon="7.26398">
        <ele>1257</ele>
        <time>2018-07-28T11:40:59.000Z</time>
      </trkpt>
      <trkpt lat="43.99409" lon="7.26403">
        <ele>1257</ele>
        <time>2018-07-28T11:41:00.000Z</time>
      </trkpt>
      <trkpt lat="43.99405" lon="7.26406">
        <ele>1257</ele>
        <time>2018-07-28T11:41:01.000Z</time>
      </trkpt>
      <trkpt lat="43.99395" lon="7.26415">
        <ele>1257</ele>
        <time>2018-07-28T11:41:03.000Z</time>
      </trkpt>
      <trkpt lat="43.99391" lon="7.26419">
        <ele>1253</ele>
        <time>2018-07-28T11:41:04.000Z</time>
      </trkpt>
      <trkpt lat="43.99387" lon="7.26423">
        <ele>1253</ele>
        <time>2018-07-28T11:41:05.000Z</time>
      </trkpt>
      <trkpt lat="43.99385" lon="7.26426">
        <ele>1252</ele>
        <time>2018-07-28T11:41:07.000Z</time>
      </trkpt>
      <trkpt lat="43.99387" lon="7.26426">
        <ele>1253</ele>
        <time>2018-07-28T11:41:09.000Z</time>
      </trkpt>
      <trkpt lat="43.99391" lon="7.26425">
        <ele>1253</ele>
        <time>2018-07-28T11:41:10.000Z</time>
      </trkpt>
      <trkpt lat="43.99407" lon="7.26418">
        <ele>1255</ele>
        <time>2018-07-28T11:41:14.000Z</time>
      </trkpt>
      <trkpt lat="43.99417" lon="7.26413">
        <ele>1257</ele>
        <time>2018-07-28T11:41:16.000Z</time>
      </trkpt>
      <trkpt lat="43.99421" lon="7.2641">
        <ele>1256</ele>
        <time>2018-07-28T11:41:17.000Z</time>
      </trkpt>
      <trkpt lat="43.99426" lon="7.26408">
        <ele>1254</ele>
        <time>2018-07-28T11:41:20.000Z</time>
      </trkpt>
      <trkpt lat="43.99425" lon="7.26411">
        <ele>1255</ele>
        <time>2018-07-28T11:41:21.000Z</time>
      </trkpt>
      <trkpt lat="43.99419" lon="7.2642">
        <ele>1253</ele>
        <time>2018-07-28T11:41:23.000Z</time>
      </trkpt>
      <trkpt lat="43.99406" lon="7.26435">
        <ele>1253</ele>
        <time>2018-07-28T11:41:26.000Z</time>
      </trkpt>
      <trkpt lat="43.99402" lon="7.2644">
        <ele>1252</ele>
        <time>2018-07-28T11:41:27.000Z</time>
      </trkpt>
      <trkpt lat="43.99398" lon="7.26445">
        <ele>1251</ele>
        <time>2018-07-28T11:41:28.000Z</time>
      </trkpt>
      <trkpt lat="43.99393" lon="7.26457">
        <ele>1249</ele>
        <time>2018-07-28T11:41:30.000Z</time>
      </trkpt>
      <trkpt lat="43.9939" lon="7.2646">
        <ele>1249</ele>
        <time>2018-07-28T11:41:31.000Z</time>
      </trkpt>
      <trkpt lat="43.9939" lon="7.26461">
        <ele>1249</ele>
        <time>2018-07-28T11:41:32.000Z</time>
      </trkpt>
      <trkpt lat="43.99391" lon="7.26461">
        <ele>1249</ele>
        <time>2018-07-28T11:41:34.000Z</time>
      </trkpt>
      <trkpt lat="43.99392" lon="7.2646">
        <ele>1249</ele>
        <time>2018-07-28T11:41:35.000Z</time>
      </trkpt>
      <trkpt lat="43.99396" lon="7.26451">
        <ele>1250</ele>
        <time>2018-07-28T11:41:38.000Z</time>
      </trkpt>
      <trkpt lat="43.994" lon="7.26448">
        <ele>1251</ele>
        <time>2018-07-28T11:41:39.000Z</time>
      </trkpt>
      <trkpt lat="43.99406" lon="7.26446">
        <ele>1251</ele>
        <time>2018-07-28T11:41:40.000Z</time>
      </trkpt>
      <trkpt lat="43.99411" lon="7.26445">
        <ele>1251</ele>
        <time>2018-07-28T11:41:41.000Z</time>
      </trkpt>
      <trkpt lat="43.99417" lon="7.26442">
        <ele>1238</ele>
        <time>2018-07-28T11:41:42.000Z</time>
      </trkpt>
      <trkpt lat="43.99423" lon="7.26439">
        <ele>1239</ele>
        <time>2018-07-28T11:41:43.000Z</time>
      </trkpt>
      <trkpt lat="43.99429" lon="7.26435">
        <ele>1239</ele>
        <time>2018-07-28T11:41:44.000Z</time>
      </trkpt>
      <trkpt lat="43.99431" lon="7.26432">
        <ele>1239</ele>
        <time>2018-07-28T11:41:45.000Z</time>
      </trkpt>
      <trkpt lat="43.99438" lon="7.26429">
        <ele>1237</ele>
        <time>2018-07-28T11:41:48.000Z</time>
      </trkpt>
      <trkpt lat="43.99438" lon="7.26433">
        <ele>1236</ele>
        <time>2018-07-28T11:41:49.000Z</time>
      </trkpt>
      <trkpt lat="43.99435" lon="7.26444">
        <ele>1234</ele>
        <time>2018-07-28T11:41:51.000Z</time>
      </trkpt>
      <trkpt lat="43.99432" lon="7.2645">
        <ele>1233</ele>
        <time>2018-07-28T11:41:52.000Z</time>
      </trkpt>
      <trkpt lat="43.9943" lon="7.26455">
        <ele>1232</ele>
        <time>2018-07-28T11:41:53.000Z</time>
      </trkpt>
      <trkpt lat="43.99427" lon="7.26461">
        <ele>1231</ele>
        <time>2018-07-28T11:41:54.000Z</time>
      </trkpt>
      <trkpt lat="43.99424" lon="7.26465">
        <ele>1231</ele>
        <time>2018-07-28T11:41:55.000Z</time>
      </trkpt>
      <trkpt lat="43.99421" lon="7.26468">
        <ele>1231</ele>
        <time>2018-07-28T11:41:56.000Z</time>
      </trkpt>
      <trkpt lat="43.99418" lon="7.2647">
        <ele>1231</ele>
        <time>2018-07-28T11:41:57.000Z</time>
      </trkpt>
      <trkpt lat="43.99407" lon="7.26476">
        <ele>1245</ele>
        <time>2018-07-28T11:42:00.000Z</time>
      </trkpt>
      <trkpt lat="43.99403" lon="7.26479">
        <ele>1245</ele>
        <time>2018-07-28T11:42:01.000Z</time>
      </trkpt>
      <trkpt lat="43.99397" lon="7.26487">
        <ele>1244</ele>
        <time>2018-07-28T11:42:03.000Z</time>
      </trkpt>
      <trkpt lat="43.99393" lon="7.26495">
        <ele>1244</ele>
        <time>2018-07-28T11:42:05.000Z</time>
      </trkpt>
      <trkpt lat="43.99392" lon="7.26499">
        <ele>1244</ele>
        <time>2018-07-28T11:42:06.000Z</time>
      </trkpt>
      <trkpt lat="43.99386" lon="7.26507">
        <ele>1233</ele>
        <time>2018-07-28T11:42:09.000Z</time>
      </trkpt>
      <trkpt lat="43.99384" lon="7.2651">
        <ele>1233</ele>
        <time>2018-07-28T11:42:10.000Z</time>
      </trkpt>
      <trkpt lat="43.99381" lon="7.26522">
        <ele>1232</ele>
        <time>2018-07-28T11:42:12.000Z</time>
      </trkpt>
      <trkpt lat="43.9938" lon="7.26529">
        <ele>1231</ele>
        <time>2018-07-28T11:42:13.000Z</time>
      </trkpt>
      <trkpt lat="43.9938" lon="7.26537">
        <ele>1230</ele>
        <time>2018-07-28T11:42:14.000Z</time>
      </trkpt>
      <trkpt lat="43.99379" lon="7.26554">
        <ele>1227</ele>
        <time>2018-07-28T11:42:16.000Z</time>
      </trkpt>
      <trkpt lat="43.99379" lon="7.26561">
        <ele>1226</ele>
        <time>2018-07-28T11:42:17.000Z</time>
      </trkpt>
      <trkpt lat="43.99378" lon="7.26578">
        <ele>1224</ele>
        <time>2018-07-28T11:42:19.000Z</time>
      </trkpt>
      <trkpt lat="43.99378" lon="7.26591">
        <ele>1206</ele>
        <time>2018-07-28T11:42:21.000Z</time>
      </trkpt>
      <trkpt lat="43.99379" lon="7.26597">
        <ele>1206</ele>
        <time>2018-07-28T11:42:22.000Z</time>
      </trkpt>
      <trkpt lat="43.9938" lon="7.26603">
        <ele>1205</ele>
        <time>2018-07-28T11:42:23.000Z</time>
      </trkpt>
      <trkpt lat="43.9938" lon="7.2661">
        <ele>1204</ele>
        <time>2018-07-28T11:42:24.000Z</time>
      </trkpt>
      <trkpt lat="43.99381" lon="7.26615">
        <ele>1203</ele>
        <time>2018-07-28T11:42:25.000Z</time>
      </trkpt>
      <trkpt lat="43.99375" lon="7.2662">
        <ele>1203</ele>
        <time>2018-07-28T11:42:27.000Z</time>
      </trkpt>
      <trkpt lat="43.99367" lon="7.26619">
        <ele>1204</ele>
        <time>2018-07-28T11:42:29.000Z</time>
      </trkpt>
      <trkpt lat="43.99357" lon="7.26619">
        <ele>1204</ele>
        <time>2018-07-28T11:42:31.000Z</time>
      </trkpt>
      <trkpt lat="43.99348" lon="7.26619">
        <ele>1205</ele>
        <time>2018-07-28T11:42:33.000Z</time>
      </trkpt>
      <trkpt lat="43.99338" lon="7.26618">
        <ele>1206</ele>
        <time>2018-07-28T11:42:35.000Z</time>
      </trkpt>
      <trkpt lat="43.99332" lon="7.26619">
        <ele>1208</ele>
        <time>2018-07-28T11:42:36.000Z</time>
      </trkpt>
      <trkpt lat="43.99326" lon="7.26621">
        <ele>1207</ele>
        <time>2018-07-28T11:42:37.000Z</time>
      </trkpt>
      <trkpt lat="43.99319" lon="7.26628">
        <ele>1205</ele>
        <time>2018-07-28T11:42:39.000Z</time>
      </trkpt>
      <trkpt lat="43.9931" lon="7.26636">
        <ele>1203</ele>
        <time>2018-07-28T11:42:41.000Z</time>
      </trkpt>
      <trkpt lat="43.99305" lon="7.2664">
        <ele>1202</ele>
        <time>2018-07-28T11:42:42.000Z</time>
      </trkpt>
      <trkpt lat="43.993" lon="7.26643">
        <ele>1202</ele>
        <time>2018-07-28T11:42:43.000Z</time>
      </trkpt>
      <trkpt lat="43.99292" lon="7.2665">
        <ele>1202</ele>
        <time>2018-07-28T11:42:45.000Z</time>
      </trkpt>
      <trkpt lat="43.99287" lon="7.26655">
        <ele>1201</ele>
        <time>2018-07-28T11:42:47.000Z</time>
      </trkpt>
      <trkpt lat="43.99283" lon="7.26662">
        <ele>1201</ele>
        <time>2018-07-28T11:42:49.000Z</time>
      </trkpt>
      <trkpt lat="43.99279" lon="7.26671">
        <ele>1183</ele>
        <time>2018-07-28T11:42:51.000Z</time>
      </trkpt>
      <trkpt lat="43.99277" lon="7.26675">
        <ele>1183</ele>
        <time>2018-07-28T11:42:52.000Z</time>
      </trkpt>
      <trkpt lat="43.99272" lon="7.26682">
        <ele>1182</ele>
        <time>2018-07-28T11:42:54.000Z</time>
      </trkpt>
      <trkpt lat="43.99269" lon="7.26686">
        <ele>1182</ele>
        <time>2018-07-28T11:42:55.000Z</time>
      </trkpt>
      <trkpt lat="43.9926" lon="7.26691">
        <ele>1182</ele>
        <time>2018-07-28T11:42:58.000Z</time>
      </trkpt>
      <trkpt lat="43.99258" lon="7.26693">
        <ele>1181</ele>
        <time>2018-07-28T11:42:59.000Z</time>
      </trkpt>
      <trkpt lat="43.99255" lon="7.26695">
        <ele>1181</ele>
        <time>2018-07-28T11:43:00.000Z</time>
      </trkpt>
      <trkpt lat="43.9925" lon="7.26702">
        <ele>1177</ele>
        <time>2018-07-28T11:43:02.000Z</time>
      </trkpt>
      <trkpt lat="43.99247" lon="7.26706">
        <ele>1176</ele>
        <time>2018-07-28T11:43:03.000Z</time>
      </trkpt>
      <trkpt lat="43.99244" lon="7.26709">
        <ele>1175</ele>
        <time>2018-07-28T11:43:04.000Z</time>
      </trkpt>
      <trkpt lat="43.99238" lon="7.26714">
        <ele>1174</ele>
        <time>2018-07-28T11:43:06.000Z</time>
      </trkpt>
      <trkpt lat="43.99236" lon="7.26718">
        <ele>1173</ele>
        <time>2018-07-28T11:43:07.000Z</time>
      </trkpt>
      <trkpt lat="43.99235" lon="7.26722">
        <ele>1172</ele>
        <time>2018-07-28T11:43:08.000Z</time>
      </trkpt>
      <trkpt lat="43.99231" lon="7.26732">
        <ele>1170</ele>
        <time>2018-07-28T11:43:10.000Z</time>
      </trkpt>
      <trkpt lat="43.99224" lon="7.26742">
        <ele>1169</ele>
        <time>2018-07-28T11:43:12.000Z</time>
      </trkpt>
      <trkpt lat="43.99221" lon="7.26747">
        <ele>1169</ele>
        <time>2018-07-28T11:43:13.000Z</time>
      </trkpt>
      <trkpt lat="43.99214" lon="7.2676">
        <ele>1161</ele>
        <time>2018-07-28T11:43:15.000Z</time>
      </trkpt>
      <trkpt lat="43.99211" lon="7.26768">
        <ele>1161</ele>
        <time>2018-07-28T11:43:16.000Z</time>
      </trkpt>
      <trkpt lat="43.99209" lon="7.26774">
        <ele>1161</ele>
        <time>2018-07-28T11:43:17.000Z</time>
      </trkpt>
      <trkpt lat="43.99206" lon="7.26779">
        <ele>1161</ele>
        <time>2018-07-28T11:43:18.000Z</time>
      </trkpt>
      <trkpt lat="43.99204" lon="7.26782">
        <ele>1161</ele>
        <time>2018-07-28T11:43:19.000Z</time>
      </trkpt>
      <trkpt lat="43.99203" lon="7.26783">
        <ele>1161</ele>
        <time>2018-07-28T11:43:22.000Z</time>
      </trkpt>
      <trkpt lat="43.99203" lon="7.26783">
        <ele>1161</ele>
        <time>2018-07-28T11:43:25.000Z</time>
      </trkpt>
      <trkpt lat="43.99203" lon="7.26783">
        <ele>1161</ele>
        <time>2018-07-28T11:43:27.000Z</time>
      </trkpt>
      <trkpt lat="43.99203" lon="7.26782">
        <ele>1161</ele>
        <time>2018-07-28T11:43:36.000Z</time>
      </trkpt>
      <trkpt lat="43.99202" lon="7.26781">
        <ele>1162</ele>
        <time>2018-07-28T11:43:45.000Z</time>
      </trkpt>
      <trkpt lat="43.99202" lon="7.26783">
        <ele>1162</ele>
        <time>2018-07-28T11:44:01.000Z</time>
      </trkpt>
      <trkpt lat="43.99202" lon="7.26782">
        <ele>1162</ele>
        <time>2018-07-28T11:44:12.000Z</time>
      </trkpt>
      <trkpt lat="43.99202" lon="7.26782">
        <ele>1162</ele>
        <time>2018-07-28T11:44:21.000Z</time>
      </trkpt>
      <trkpt lat="43.99202" lon="7.26779">
        <ele>1162</ele>
        <time>2018-07-28T11:44:26.000Z</time>
      </trkpt>
      <trkpt lat="43.99202" lon="7.26779">
        <ele>1162</ele>
        <time>2018-07-28T11:44:28.000Z</time>
      </trkpt>
      <trkpt lat="43.99202" lon="7.26779">
        <ele>1162</ele>
        <time>2018-07-28T11:44:48.000Z</time>
      </trkpt>
      <trkpt lat="43.99202" lon="7.26781">
        <ele>1162</ele>
        <time>2018-07-28T11:45:08.000Z</time>
      </trkpt>
      <trkpt lat="43.99202" lon="7.26781">
        <ele>1162</ele>
        <time>2018-07-28T11:45:17.000Z</time>
      </trkpt>
      <trkpt lat="43.99204" lon="7.26781">
        <ele>1161</ele>
        <time>2018-07-28T11:45:35.000Z</time>
      </trkpt>
      <trkpt lat="43.99203" lon="7.26781">
        <ele>1161</ele>
        <time>2018-07-28T11:45:45.000Z</time>
      </trkpt>
      <trkpt lat="43.99202" lon="7.26782">
        <ele>1161</ele>
        <time>2018-07-28T11:45:54.000Z</time>
      </trkpt>
      <trkpt lat="43.99202" lon="7.26782">
        <ele>1162</ele>
        <time>2018-07-28T11:46:22.000Z</time>
      </trkpt>
      <trkpt lat="43.99202" lon="7.26783">
        <ele>1162</ele>
        <time>2018-07-28T11:46:43.000Z</time>
      </trkpt>
      <trkpt lat="43.992" lon="7.26786">
        <ele>1162</ele>
        <time>2018-07-28T11:46:48.000Z</time>
      </trkpt>
      <trkpt lat="43.99199" lon="7.26788">
        <ele>1162</ele>
        <time>2018-07-28T11:46:49.000Z</time>
      </trkpt>
      <trkpt lat="43.99191" lon="7.26795">
        <ele>1163</ele>
        <time>2018-07-28T11:46:53.000Z</time>
      </trkpt>
      <trkpt lat="43.99187" lon="7.26798">
        <ele>1163</ele>
        <time>2018-07-28T11:46:54.000Z</time>
      </trkpt>
      <trkpt lat="43.99168" lon="7.26814">
        <ele>1169</ele>
        <time>2018-07-28T11:47:01.000Z</time>
      </trkpt>
      <trkpt lat="43.99152" lon="7.2682">
        <ele>1177</ele>
        <time>2018-07-28T11:47:07.000Z</time>
      </trkpt>
      <trkpt lat="43.99145" lon="7.26822">
        <ele>1177</ele>
        <time>2018-07-28T11:47:11.000Z</time>
      </trkpt>
      <trkpt lat="43.99143" lon="7.26823">
        <ele>1177</ele>
        <time>2018-07-28T11:47:12.000Z</time>
      </trkpt>
      <trkpt lat="43.99138" lon="7.26826">
        <ele>1177</ele>
        <time>2018-07-28T11:47:15.000Z</time>
      </trkpt>
      <trkpt lat="43.99136" lon="7.26826">
        <ele>1177</ele>
        <time>2018-07-28T11:47:16.000Z</time>
      </trkpt>
      <trkpt lat="43.99135" lon="7.26826">
        <ele>1177</ele>
        <time>2018-07-28T11:47:17.000Z</time>
      </trkpt>
      <trkpt lat="43.99129" lon="7.26827">
        <ele>1178</ele>
        <time>2018-07-28T11:47:21.000Z</time>
      </trkpt>
      <trkpt lat="43.99127" lon="7.26828">
        <ele>1178</ele>
        <time>2018-07-28T11:47:22.000Z</time>
      </trkpt>
      <trkpt lat="43.9912" lon="7.26829">
        <ele>1179</ele>
        <time>2018-07-28T11:47:26.000Z</time>
      </trkpt>
      <trkpt lat="43.99118" lon="7.2683">
        <ele>1180</ele>
        <time>2018-07-28T11:47:27.000Z</time>
      </trkpt>
      <trkpt lat="43.99111" lon="7.26831">
        <ele>1181</ele>
        <time>2018-07-28T11:47:32.000Z</time>
      </trkpt>
      <trkpt lat="43.99106" lon="7.26831">
        <ele>1182</ele>
        <time>2018-07-28T11:47:35.000Z</time>
      </trkpt>
      <trkpt lat="43.99105" lon="7.26831">
        <ele>1183</ele>
        <time>2018-07-28T11:47:36.000Z</time>
      </trkpt>
      <trkpt lat="43.99103" lon="7.2683">
        <ele>1183</ele>
        <time>2018-07-28T11:47:37.000Z</time>
      </trkpt>
      <trkpt lat="43.99096" lon="7.26829">
        <ele>1186</ele>
        <time>2018-07-28T11:47:42.000Z</time>
      </trkpt>
      <trkpt lat="43.99095" lon="7.26828">
        <ele>1186</ele>
        <time>2018-07-28T11:47:43.000Z</time>
      </trkpt>
      <trkpt lat="43.99091" lon="7.26827">
        <ele>1187</ele>
        <time>2018-07-28T11:47:46.000Z</time>
      </trkpt>
      <trkpt lat="43.9909" lon="7.26827">
        <ele>1188</ele>
        <time>2018-07-28T11:47:47.000Z</time>
      </trkpt>
      <trkpt lat="43.99083" lon="7.26826">
        <ele>1189</ele>
        <time>2018-07-28T11:47:52.000Z</time>
      </trkpt>
      <trkpt lat="43.99077" lon="7.26823">
        <ele>1187</ele>
        <time>2018-07-28T11:47:57.000Z</time>
      </trkpt>
      <trkpt lat="43.99075" lon="7.26823">
        <ele>1186</ele>
        <time>2018-07-28T11:47:58.000Z</time>
      </trkpt>
      <trkpt lat="43.99067" lon="7.2682">
        <ele>1183</ele>
        <time>2018-07-28T11:48:04.000Z</time>
      </trkpt>
      <trkpt lat="43.99064" lon="7.26819">
        <ele>1182</ele>
        <time>2018-07-28T11:48:06.000Z</time>
      </trkpt>
      <trkpt lat="43.99061" lon="7.26818">
        <ele>1182</ele>
        <time>2018-07-28T11:48:08.000Z</time>
      </trkpt>
      <trkpt lat="43.99057" lon="7.26817">
        <ele>1181</ele>
        <time>2018-07-28T11:48:10.000Z</time>
      </trkpt>
      <trkpt lat="43.99053" lon="7.26815">
        <ele>1180</ele>
        <time>2018-07-28T11:48:13.000Z</time>
      </trkpt>
      <trkpt lat="43.99051" lon="7.26814">
        <ele>1180</ele>
        <time>2018-07-28T11:48:14.000Z</time>
      </trkpt>
      <trkpt lat="43.99038" lon="7.26817">
        <ele>1179</ele>
        <time>2018-07-28T11:48:21.000Z</time>
      </trkpt>
      <trkpt lat="43.99034" lon="7.26825">
        <ele>1179</ele>
        <time>2018-07-28T11:48:24.000Z</time>
      </trkpt>
      <trkpt lat="43.99033" lon="7.26834">
        <ele>1192</ele>
        <time>2018-07-28T11:48:26.000Z</time>
      </trkpt>
      <trkpt lat="43.99034" lon="7.26867">
        <ele>1195</ele>
        <time>2018-07-28T11:48:34.000Z</time>
      </trkpt>
      <trkpt lat="43.9903" lon="7.26891">
        <ele>1198</ele>
        <time>2018-07-28T11:48:39.000Z</time>
      </trkpt>
      <trkpt lat="43.99027" lon="7.26893">
        <ele>1198</ele>
        <time>2018-07-28T11:48:40.000Z</time>
      </trkpt>
      <trkpt lat="43.99019" lon="7.26897">
        <ele>1198</ele>
        <time>2018-07-28T11:48:43.000Z</time>
      </trkpt>
      <trkpt lat="43.99008" lon="7.269">
        <ele>1198</ele>
        <time>2018-07-28T11:48:48.000Z</time>
      </trkpt>
      <trkpt lat="43.99005" lon="7.26902">
        <ele>1199</ele>
        <time>2018-07-28T11:48:49.000Z</time>
      </trkpt>
      <trkpt lat="43.98995" lon="7.26905">
        <ele>1193</ele>
        <time>2018-07-28T11:48:52.000Z</time>
      </trkpt>
      <trkpt lat="43.98979" lon="7.26912">
        <ele>1189</ele>
        <time>2018-07-28T11:48:58.000Z</time>
      </trkpt>
      <trkpt lat="43.98976" lon="7.26914">
        <ele>1189</ele>
        <time>2018-07-28T11:48:59.000Z</time>
      </trkpt>
      <trkpt lat="43.98966" lon="7.26923">
        <ele>1195</ele>
        <time>2018-07-28T11:49:04.000Z</time>
      </trkpt>
      <trkpt lat="43.98961" lon="7.26938">
        <ele>1194</ele>
        <time>2018-07-28T11:49:07.000Z</time>
      </trkpt>
      <trkpt lat="43.98961" lon="7.26944">
        <ele>1195</ele>
        <time>2018-07-28T11:49:08.000Z</time>
      </trkpt>
      <trkpt lat="43.98964" lon="7.26963">
        <ele>1196</ele>
        <time>2018-07-28T11:49:11.000Z</time>
      </trkpt>
      <trkpt lat="43.98965" lon="7.26971">
        <ele>1197</ele>
        <time>2018-07-28T11:49:12.000Z</time>
      </trkpt>
      <trkpt lat="43.98966" lon="7.26977">
        <ele>1197</ele>
        <time>2018-07-28T11:49:13.000Z</time>
      </trkpt>
      <trkpt lat="43.98967" lon="7.26991">
        <ele>1198</ele>
        <time>2018-07-28T11:49:15.000Z</time>
      </trkpt>
      <trkpt lat="43.98969" lon="7.27004">
        <ele>1202</ele>
        <time>2018-07-28T11:49:17.000Z</time>
      </trkpt>
      <trkpt lat="43.98964" lon="7.27017">
        <ele>1201</ele>
        <time>2018-07-28T11:49:19.000Z</time>
      </trkpt>
      <trkpt lat="43.98959" lon="7.27022">
        <ele>1200</ele>
        <time>2018-07-28T11:49:21.000Z</time>
      </trkpt>
      <trkpt lat="43.98954" lon="7.27028">
        <ele>1199</ele>
        <time>2018-07-28T11:49:23.000Z</time>
      </trkpt>
      <trkpt lat="43.98946" lon="7.27034">
        <ele>1198</ele>
        <time>2018-07-28T11:49:26.000Z</time>
      </trkpt>
      <trkpt lat="43.98939" lon="7.2704">
        <ele>1198</ele>
        <time>2018-07-28T11:49:29.000Z</time>
      </trkpt>
      <trkpt lat="43.98922" lon="7.27052">
        <ele>1196</ele>
        <time>2018-07-28T11:49:36.000Z</time>
      </trkpt>
      <trkpt lat="43.98921" lon="7.27053">
        <ele>1196</ele>
        <time>2018-07-28T11:49:37.000Z</time>
      </trkpt>
      <trkpt lat="43.9892" lon="7.27055">
        <ele>1196</ele>
        <time>2018-07-28T11:49:40.000Z</time>
      </trkpt>
      <trkpt lat="43.98919" lon="7.27055">
        <ele>1196</ele>
        <time>2018-07-28T11:49:49.000Z</time>
      </trkpt>
      <trkpt lat="43.98919" lon="7.27055">
        <ele>1196</ele>
        <time>2018-07-28T11:49:51.000Z</time>
      </trkpt>
      <trkpt lat="43.98918" lon="7.27056">
        <ele>1196</ele>
        <time>2018-07-28T11:49:59.000Z</time>
      </trkpt>
      <trkpt lat="43.98917" lon="7.27057">
        <ele>1196</ele>
        <time>2018-07-28T11:50:20.000Z</time>
      </trkpt>
      <trkpt lat="43.98917" lon="7.27057">
        <ele>1196</ele>
        <time>2018-07-28T11:50:26.000Z</time>
      </trkpt>
      <trkpt lat="43.98917" lon="7.27057">
        <ele>1196</ele>
        <time>2018-07-28T11:50:31.000Z</time>
      </trkpt>
      <trkpt lat="43.98916" lon="7.27058">
        <ele>1190</ele>
        <time>2018-07-28T11:50:47.000Z</time>
      </trkpt>
      <trkpt lat="43.98917" lon="7.27057">
        <ele>1190</ele>
        <time>2018-07-28T11:50:51.000Z</time>
      </trkpt>
      <trkpt lat="43.98916" lon="7.27057">
        <ele>1190</ele>
        <time>2018-07-28T11:51:02.000Z</time>
      </trkpt>
      <trkpt lat="43.98916" lon="7.27059">
        <ele>1190</ele>
        <time>2018-07-28T11:51:09.000Z</time>
      </trkpt>
      <trkpt lat="43.98916" lon="7.2706">
        <ele>1190</ele>
        <time>2018-07-28T11:51:16.000Z</time>
      </trkpt>
      <trkpt lat="43.98918" lon="7.27075">
        <ele>1193</ele>
        <time>2018-07-28T11:51:21.000Z</time>
      </trkpt>
      <trkpt lat="43.98921" lon="7.27088">
        <ele>1190</ele>
        <time>2018-07-28T11:51:24.000Z</time>
      </trkpt>
      <trkpt lat="43.98925" lon="7.27095">
        <ele>1189</ele>
        <time>2018-07-28T11:51:26.000Z</time>
      </trkpt>
      <trkpt lat="43.98928" lon="7.271">
        <ele>1189</ele>
        <time>2018-07-28T11:51:28.000Z</time>
      </trkpt>
      <trkpt lat="43.98928" lon="7.271">
        <ele>1189</ele>
        <time>2018-07-28T11:51:30.000Z</time>
      </trkpt>
      <trkpt lat="43.98927" lon="7.27101">
        <ele>1189</ele>
        <time>2018-07-28T11:51:32.000Z</time>
      </trkpt>
      <trkpt lat="43.98926" lon="7.27101">
        <ele>1189</ele>
        <time>2018-07-28T11:51:33.000Z</time>
      </trkpt>
      <trkpt lat="43.98926" lon="7.27101">
        <ele>1189</ele>
        <time>2018-07-28T11:51:36.000Z</time>
      </trkpt>
      <trkpt lat="43.9892" lon="7.27099">
        <ele>1189</ele>
        <time>2018-07-28T11:51:40.000Z</time>
      </trkpt>
      <trkpt lat="43.98914" lon="7.27097">
        <ele>1182</ele>
        <time>2018-07-28T11:51:42.000Z</time>
      </trkpt>
      <trkpt lat="43.98902" lon="7.27099">
        <ele>1179</ele>
        <time>2018-07-28T11:51:45.000Z</time>
      </trkpt>
      <trkpt lat="43.98897" lon="7.27099">
        <ele>1178</ele>
        <time>2018-07-28T11:51:46.000Z</time>
      </trkpt>
      <trkpt lat="43.98888" lon="7.27101">
        <ele>1176</ele>
        <time>2018-07-28T11:51:48.000Z</time>
      </trkpt>
      <trkpt lat="43.98884" lon="7.27104">
        <ele>1175</ele>
        <time>2018-07-28T11:51:49.000Z</time>
      </trkpt>
      <trkpt lat="43.9888" lon="7.27106">
        <ele>1174</ele>
        <time>2018-07-28T11:51:50.000Z</time>
      </trkpt>
      <trkpt lat="43.98875" lon="7.27108">
        <ele>1173</ele>
        <time>2018-07-28T11:51:51.000Z</time>
      </trkpt>
      <trkpt lat="43.98865" lon="7.27106">
        <ele>1173</ele>
        <time>2018-07-28T11:51:53.000Z</time>
      </trkpt>
      <trkpt lat="43.98855" lon="7.271">
        <ele>1174</ele>
        <time>2018-07-28T11:51:55.000Z</time>
      </trkpt>
      <trkpt lat="43.9885" lon="7.27098">
        <ele>1174</ele>
        <time>2018-07-28T11:51:56.000Z</time>
      </trkpt>
      <trkpt lat="43.98846" lon="7.27097">
        <ele>1175</ele>
        <time>2018-07-28T11:51:57.000Z</time>
      </trkpt>
      <trkpt lat="43.98837" lon="7.27095">
        <ele>1176</ele>
        <time>2018-07-28T11:51:59.000Z</time>
      </trkpt>
      <trkpt lat="43.98833" lon="7.27095">
        <ele>1171</ele>
        <time>2018-07-28T11:52:00.000Z</time>
      </trkpt>
      <trkpt lat="43.98825" lon="7.27097">
        <ele>1168</ele>
        <time>2018-07-28T11:52:02.000Z</time>
      </trkpt>
      <trkpt lat="43.98821" lon="7.27097">
        <ele>1166</ele>
        <time>2018-07-28T11:52:03.000Z</time>
      </trkpt>
      <trkpt lat="43.98813" lon="7.27097">
        <ele>1163</ele>
        <time>2018-07-28T11:52:05.000Z</time>
      </trkpt>
      <trkpt lat="43.9881" lon="7.27096">
        <ele>1162</ele>
        <time>2018-07-28T11:52:06.000Z</time>
      </trkpt>
      <trkpt lat="43.98807" lon="7.27096">
        <ele>1162</ele>
        <time>2018-07-28T11:52:07.000Z</time>
      </trkpt>
      <trkpt lat="43.98798" lon="7.27092">
        <ele>1160</ele>
        <time>2018-07-28T11:52:09.000Z</time>
      </trkpt>
      <trkpt lat="43.98789" lon="7.27091">
        <ele>1158</ele>
        <time>2018-07-28T11:52:11.000Z</time>
      </trkpt>
      <trkpt lat="43.98779" lon="7.2709">
        <ele>1158</ele>
        <time>2018-07-28T11:52:13.000Z</time>
      </trkpt>
      <trkpt lat="43.98772" lon="7.27091">
        <ele>1157</ele>
        <time>2018-07-28T11:52:15.000Z</time>
      </trkpt>
      <trkpt lat="43.98767" lon="7.27092">
        <ele>1157</ele>
        <time>2018-07-28T11:52:16.000Z</time>
      </trkpt>
      <trkpt lat="43.98763" lon="7.27092">
        <ele>1158</ele>
        <time>2018-07-28T11:52:17.000Z</time>
      </trkpt>
      <trkpt lat="43.98757" lon="7.27094">
        <ele>1158</ele>
        <time>2018-07-28T11:52:19.000Z</time>
      </trkpt>
      <trkpt lat="43.98754" lon="7.27098">
        <ele>1157</ele>
        <time>2018-07-28T11:52:20.000Z</time>
      </trkpt>
      <trkpt lat="43.9875" lon="7.27102">
        <ele>1149</ele>
        <time>2018-07-28T11:52:21.000Z</time>
      </trkpt>
      <trkpt lat="43.98747" lon="7.27104">
        <ele>1148</ele>
        <time>2018-07-28T11:52:22.000Z</time>
      </trkpt>
      <trkpt lat="43.98745" lon="7.27105">
        <ele>1147</ele>
        <time>2018-07-28T11:52:23.000Z</time>
      </trkpt>
      <trkpt lat="43.98743" lon="7.27107">
        <ele>1146</ele>
        <time>2018-07-28T11:52:24.000Z</time>
      </trkpt>
      <trkpt lat="43.98743" lon="7.27109">
        <ele>1145</ele>
        <time>2018-07-28T11:52:25.000Z</time>
      </trkpt>
      <trkpt lat="43.98744" lon="7.27109">
        <ele>1146</ele>
        <time>2018-07-28T11:52:26.000Z</time>
      </trkpt>
      <trkpt lat="43.98746" lon="7.27108">
        <ele>1146</ele>
        <time>2018-07-28T11:52:28.000Z</time>
      </trkpt>
      <trkpt lat="43.98748" lon="7.27107">
        <ele>1146</ele>
        <time>2018-07-28T11:52:29.000Z</time>
      </trkpt>
      <trkpt lat="43.98751" lon="7.27109">
        <ele>1153</ele>
        <time>2018-07-28T11:52:31.000Z</time>
      </trkpt>
      <trkpt lat="43.98751" lon="7.2711">
        <ele>1153</ele>
        <time>2018-07-28T11:52:32.000Z</time>
      </trkpt>
      <trkpt lat="43.98747" lon="7.27113">
        <ele>1144</ele>
        <time>2018-07-28T11:52:34.000Z</time>
      </trkpt>
      <trkpt lat="43.98744" lon="7.27116">
        <ele>1143</ele>
        <time>2018-07-28T11:52:35.000Z</time>
      </trkpt>
      <trkpt lat="43.98732" lon="7.27117">
        <ele>1141</ele>
        <time>2018-07-28T11:52:38.000Z</time>
      </trkpt>
      <trkpt lat="43.98727" lon="7.27115">
        <ele>1142</ele>
        <time>2018-07-28T11:52:39.000Z</time>
      </trkpt>
      <trkpt lat="43.98723" lon="7.27112">
        <ele>1142</ele>
        <time>2018-07-28T11:52:40.000Z</time>
      </trkpt>
      <trkpt lat="43.98719" lon="7.2711">
        <ele>1142</ele>
        <time>2018-07-28T11:52:41.000Z</time>
      </trkpt>
      <trkpt lat="43.98715" lon="7.2711">
        <ele>1142</ele>
        <time>2018-07-28T11:52:42.000Z</time>
      </trkpt>
      <trkpt lat="43.98712" lon="7.27113">
        <ele>1141</ele>
        <time>2018-07-28T11:52:43.000Z</time>
      </trkpt>
      <trkpt lat="43.98704" lon="7.27122">
        <ele>1138</ele>
        <time>2018-07-28T11:52:45.000Z</time>
      </trkpt>
      <trkpt lat="43.987" lon="7.27126">
        <ele>1137</ele>
        <time>2018-07-28T11:52:46.000Z</time>
      </trkpt>
      <trkpt lat="43.98698" lon="7.27131">
        <ele>1136</ele>
        <time>2018-07-28T11:52:47.000Z</time>
      </trkpt>
      <trkpt lat="43.98688" lon="7.2714">
        <ele>1132</ele>
        <time>2018-07-28T11:52:50.000Z</time>
      </trkpt>
      <trkpt lat="43.98685" lon="7.27139">
        <ele>1132</ele>
        <time>2018-07-28T11:52:51.000Z</time>
      </trkpt>
      <trkpt lat="43.98681" lon="7.27136">
        <ele>1133</ele>
        <time>2018-07-28T11:52:52.000Z</time>
      </trkpt>
      <trkpt lat="43.98674" lon="7.27129">
        <ele>1135</ele>
        <time>2018-07-28T11:52:54.000Z</time>
      </trkpt>
      <trkpt lat="43.98667" lon="7.27125">
        <ele>1137</ele>
        <time>2018-07-28T11:52:56.000Z</time>
      </trkpt>
      <trkpt lat="43.98664" lon="7.27121">
        <ele>1135</ele>
        <time>2018-07-28T11:52:57.000Z</time>
      </trkpt>
      <trkpt lat="43.98662" lon="7.27116">
        <ele>1137</ele>
        <time>2018-07-28T11:52:58.000Z</time>
      </trkpt>
      <trkpt lat="43.98658" lon="7.27112">
        <ele>1138</ele>
        <time>2018-07-28T11:52:59.000Z</time>
      </trkpt>
      <trkpt lat="43.98651" lon="7.27112">
        <ele>1138</ele>
        <time>2018-07-28T11:53:01.000Z</time>
      </trkpt>
      <trkpt lat="43.98643" lon="7.27116">
        <ele>1136</ele>
        <time>2018-07-28T11:53:03.000Z</time>
      </trkpt>
      <trkpt lat="43.98638" lon="7.27116">
        <ele>1135</ele>
        <time>2018-07-28T11:53:04.000Z</time>
      </trkpt>
      <trkpt lat="43.98629" lon="7.27119">
        <ele>1134</ele>
        <time>2018-07-28T11:53:07.000Z</time>
      </trkpt>
      <trkpt lat="43.98626" lon="7.27122">
        <ele>1133</ele>
        <time>2018-07-28T11:53:08.000Z</time>
      </trkpt>
      <trkpt lat="43.98622" lon="7.27126">
        <ele>1132</ele>
        <time>2018-07-28T11:53:09.000Z</time>
      </trkpt>
      <trkpt lat="43.98614" lon="7.27128">
        <ele>1132</ele>
        <time>2018-07-28T11:53:11.000Z</time>
      </trkpt>
      <trkpt lat="43.98605" lon="7.27129">
        <ele>1131</ele>
        <time>2018-07-28T11:53:13.000Z</time>
      </trkpt>
      <trkpt lat="43.98601" lon="7.2713">
        <ele>1131</ele>
        <time>2018-07-28T11:53:14.000Z</time>
      </trkpt>
      <trkpt lat="43.98593" lon="7.27137">
        <ele>1128</ele>
        <time>2018-07-28T11:53:16.000Z</time>
      </trkpt>
      <trkpt lat="43.98588" lon="7.27139">
        <ele>1127</ele>
        <time>2018-07-28T11:53:17.000Z</time>
      </trkpt>
      <trkpt lat="43.98578" lon="7.27139">
        <ele>1128</ele>
        <time>2018-07-28T11:53:19.000Z</time>
      </trkpt>
      <trkpt lat="43.98564" lon="7.27128">
        <ele>1133</ele>
        <time>2018-07-28T11:53:22.000Z</time>
      </trkpt>
      <trkpt lat="43.98561" lon="7.27128">
        <ele>1133</ele>
        <time>2018-07-28T11:53:23.000Z</time>
      </trkpt>
      <trkpt lat="43.98557" lon="7.27131">
        <ele>1133</ele>
        <time>2018-07-28T11:53:24.000Z</time>
      </trkpt>
      <trkpt lat="43.98552" lon="7.2714">
        <ele>1131</ele>
        <time>2018-07-28T11:53:26.000Z</time>
      </trkpt>
      <trkpt lat="43.98546" lon="7.27151">
        <ele>1130</ele>
        <time>2018-07-28T11:53:28.000Z</time>
      </trkpt>
      <trkpt lat="43.98543" lon="7.27156">
        <ele>1129</ele>
        <time>2018-07-28T11:53:29.000Z</time>
      </trkpt>
      <trkpt lat="43.9854" lon="7.27163">
        <ele>1129</ele>
        <time>2018-07-28T11:53:30.000Z</time>
      </trkpt>
      <trkpt lat="43.98534" lon="7.27173">
        <ele>1108</ele>
        <time>2018-07-28T11:53:32.000Z</time>
      </trkpt>
      <trkpt lat="43.9853" lon="7.27176">
        <ele>1108</ele>
        <time>2018-07-28T11:53:33.000Z</time>
      </trkpt>
      <trkpt lat="43.98515" lon="7.27175">
        <ele>1113</ele>
        <time>2018-07-28T11:53:36.000Z</time>
      </trkpt>
      <trkpt lat="43.98501" lon="7.27182">
        <ele>1114</ele>
        <time>2018-07-28T11:53:39.000Z</time>
      </trkpt>
      <trkpt lat="43.98496" lon="7.27194">
        <ele>1110</ele>
        <time>2018-07-28T11:53:41.000Z</time>
      </trkpt>
      <trkpt lat="43.98493" lon="7.272">
        <ele>1108</ele>
        <time>2018-07-28T11:53:42.000Z</time>
      </trkpt>
      <trkpt lat="43.98491" lon="7.27205">
        <ele>1107</ele>
        <time>2018-07-28T11:53:43.000Z</time>
      </trkpt>
      <trkpt lat="43.98489" lon="7.27213">
        <ele>1106</ele>
        <time>2018-07-28T11:53:44.000Z</time>
      </trkpt>
      <trkpt lat="43.98485" lon="7.27234">
        <ele>1103</ele>
        <time>2018-07-28T11:53:47.000Z</time>
      </trkpt>
      <trkpt lat="43.98484" lon="7.2724">
        <ele>1102</ele>
        <time>2018-07-28T11:53:48.000Z</time>
      </trkpt>
      <trkpt lat="43.98482" lon="7.27253">
        <ele>1096</ele>
        <time>2018-07-28T11:53:50.000Z</time>
      </trkpt>
      <trkpt lat="43.9848" lon="7.27258">
        <ele>1096</ele>
        <time>2018-07-28T11:53:51.000Z</time>
      </trkpt>
      <trkpt lat="43.98465" lon="7.27277">
        <ele>1094</ele>
        <time>2018-07-28T11:53:55.000Z</time>
      </trkpt>
      <trkpt lat="43.98456" lon="7.2729">
        <ele>1093</ele>
        <time>2018-07-28T11:53:58.000Z</time>
      </trkpt>
      <trkpt lat="43.98453" lon="7.27301">
        <ele>1093</ele>
        <time>2018-07-28T11:54:00.000Z</time>
      </trkpt>
      <trkpt lat="43.98452" lon="7.27311">
        <ele>1093</ele>
        <time>2018-07-28T11:54:04.000Z</time>
      </trkpt>
      <trkpt lat="43.98453" lon="7.27311">
        <ele>1093</ele>
        <time>2018-07-28T11:54:10.000Z</time>
      </trkpt>
      <trkpt lat="43.98453" lon="7.27311">
        <ele>1093</ele>
        <time>2018-07-28T11:54:11.000Z</time>
      </trkpt>
      <trkpt lat="43.98452" lon="7.27311">
        <ele>1093</ele>
        <time>2018-07-28T11:54:16.000Z</time>
      </trkpt>
      <trkpt lat="43.98452" lon="7.27311">
        <ele>1093</ele>
        <time>2018-07-28T11:54:28.000Z</time>
      </trkpt>
      <trkpt lat="43.98452" lon="7.2731">
        <ele>1093</ele>
        <time>2018-07-28T11:54:41.000Z</time>
      </trkpt>
      <trkpt lat="43.98452" lon="7.27311">
        <ele>1093</ele>
        <time>2018-07-28T11:54:51.000Z</time>
      </trkpt>
      <trkpt lat="43.98452" lon="7.2731">
        <ele>1093</ele>
        <time>2018-07-28T11:55:19.000Z</time>
      </trkpt>
      <trkpt lat="43.98452" lon="7.2731">
        <ele>1093</ele>
        <time>2018-07-28T11:55:28.000Z</time>
      </trkpt>
      <trkpt lat="43.98453" lon="7.27309">
        <ele>1093</ele>
        <time>2018-07-28T11:55:52.000Z</time>
      </trkpt>
      <trkpt lat="43.98453" lon="7.27308">
        <ele>1093</ele>
        <time>2018-07-28T11:56:15.000Z</time>
      </trkpt>
      <trkpt lat="43.98453" lon="7.27307">
        <ele>1093</ele>
        <time>2018-07-28T11:56:28.000Z</time>
      </trkpt>
      <trkpt lat="43.98453" lon="7.27308">
        <ele>1093</ele>
        <time>2018-07-28T11:56:36.000Z</time>
      </trkpt>
      <trkpt lat="43.98454" lon="7.27307">
        <ele>1093</ele>
        <time>2018-07-28T11:56:49.000Z</time>
      </trkpt>
      <trkpt lat="43.98453" lon="7.27307">
        <ele>1093</ele>
        <time>2018-07-28T11:56:57.000Z</time>
      </trkpt>
      <trkpt lat="43.98454" lon="7.27308">
        <ele>1093</ele>
        <time>2018-07-28T11:57:01.000Z</time>
      </trkpt>
      <trkpt lat="43.98455" lon="7.2731">
        <ele>1093</ele>
        <time>2018-07-28T11:57:03.000Z</time>
      </trkpt>
      <trkpt lat="43.98457" lon="7.27311">
        <ele>1093</ele>
        <time>2018-07-28T11:57:15.000Z</time>
      </trkpt>
      <trkpt lat="43.98456" lon="7.27311">
        <ele>1093</ele>
        <time>2018-07-28T11:57:24.000Z</time>
      </trkpt>
      <trkpt lat="43.98456" lon="7.27311">
        <ele>1093</ele>
        <time>2018-07-28T11:57:37.000Z</time>
      </trkpt>
      <trkpt lat="43.98456" lon="7.27311">
        <ele>1093</ele>
        <time>2018-07-28T11:57:51.000Z</time>
      </trkpt>
      <trkpt lat="43.98455" lon="7.2731">
        <ele>1093</ele>
        <time>2018-07-28T11:57:58.000Z</time>
      </trkpt>
      <trkpt lat="43.98454" lon="7.2731">
        <ele>1093</ele>
        <time>2018-07-28T11:58:20.000Z</time>
      </trkpt>
      <trkpt lat="43.98454" lon="7.27311">
        <ele>1093</ele>
        <time>2018-07-28T11:58:26.000Z</time>
      </trkpt>
      <trkpt lat="43.98454" lon="7.27311">
        <ele>1093</ele>
        <time>2018-07-28T11:58:33.000Z</time>
      </trkpt>
      <trkpt lat="43.98454" lon="7.27311">
        <ele>1093</ele>
        <time>2018-07-28T11:58:50.000Z</time>
      </trkpt>
      <trkpt lat="43.98454" lon="7.27311">
        <ele>1093</ele>
        <time>2018-07-28T11:59:07.000Z</time>
      </trkpt>
      <trkpt lat="43.98453" lon="7.27311">
        <ele>1093</ele>
        <time>2018-07-28T11:59:19.000Z</time>
      </trkpt>
      <trkpt lat="43.98453" lon="7.27311">
        <ele>1093</ele>
        <time>2018-07-28T11:59:35.000Z</time>
      </trkpt>
      <trkpt lat="43.98452" lon="7.27309">
        <ele>1093</ele>
        <time>2018-07-28T11:59:55.000Z</time>
      </trkpt>
      <trkpt lat="43.98452" lon="7.27308">
        <ele>1093</ele>
        <time>2018-07-28T11:59:59.000Z</time>
      </trkpt>
      <trkpt lat="43.98451" lon="7.27308">
        <ele>1093</ele>
        <time>2018-07-28T12:00:03.000Z</time>
      </trkpt>
      <trkpt lat="43.98451" lon="7.27308">
        <ele>1093</ele>
        <time>2018-07-28T12:00:12.000Z</time>
      </trkpt>
      <trkpt lat="43.98451" lon="7.27307">
        <ele>1093</ele>
        <time>2018-07-28T12:00:21.000Z</time>
      </trkpt>
      <trkpt lat="43.98451" lon="7.27307">
        <ele>1093</ele>
        <time>2018-07-28T12:00:31.000Z</time>
      </trkpt>
      <trkpt lat="43.98451" lon="7.27308">
        <ele>1093</ele>
        <time>2018-07-28T12:00:43.000Z</time>
      </trkpt>
      <trkpt lat="43.98451" lon="7.27308">
        <ele>1093</ele>
        <time>2018-07-28T12:00:59.000Z</time>
      </trkpt>
      <trkpt lat="43.9845" lon="7.27308">
        <ele>1093</ele>
        <time>2018-07-28T12:01:17.000Z</time>
      </trkpt>
      <trkpt lat="43.98451" lon="7.27309">
        <ele>1093</ele>
        <time>2018-07-28T12:01:26.000Z</time>
      </trkpt>
      <trkpt lat="43.98452" lon="7.27309">
        <ele>1093</ele>
        <time>2018-07-28T12:01:29.000Z</time>
      </trkpt>
      <trkpt lat="43.98453" lon="7.2731">
        <ele>1093</ele>
        <time>2018-07-28T12:01:31.000Z</time>
      </trkpt>
      <trkpt lat="43.98455" lon="7.27312">
        <ele>1093</ele>
        <time>2018-07-28T12:01:36.000Z</time>
      </trkpt>
      <trkpt lat="43.98455" lon="7.27312">
        <ele>1093</ele>
        <time>2018-07-28T12:01:43.000Z</time>
      </trkpt>
      <trkpt lat="43.98455" lon="7.27312">
        <ele>1093</ele>
        <time>2018-07-28T12:01:52.000Z</time>
      </trkpt>
      <trkpt lat="43.98455" lon="7.27312">
        <ele>1093</ele>
        <time>2018-07-28T12:02:00.000Z</time>
      </trkpt>
      <trkpt lat="43.98455" lon="7.27309">
        <ele>1093</ele>
        <time>2018-07-28T12:02:09.000Z</time>
      </trkpt>
      <trkpt lat="43.98453" lon="7.27308">
        <ele>1093</ele>
        <time>2018-07-28T12:02:15.000Z</time>
      </trkpt>
      <trkpt lat="43.98453" lon="7.27308">
        <ele>1093</ele>
        <time>2018-07-28T12:02:22.000Z</time>
      </trkpt>
      <trkpt lat="43.98453" lon="7.27312">
        <ele>1093</ele>
        <time>2018-07-28T12:02:35.000Z</time>
      </trkpt>
      <trkpt lat="43.98452" lon="7.27312">
        <ele>1093</ele>
        <time>2018-07-28T12:02:43.000Z</time>
      </trkpt>
      <trkpt lat="43.98452" lon="7.27312">
        <ele>1093</ele>
        <time>2018-07-28T12:03:11.000Z</time>
      </trkpt>
      <trkpt lat="43.98452" lon="7.27311">
        <ele>1093</ele>
        <time>2018-07-28T12:03:12.000Z</time>
      </trkpt>
      <trkpt lat="43.98453" lon="7.27301">
        <ele>1093</ele>
        <time>2018-07-28T12:03:18.000Z</time>
      </trkpt>
      <trkpt lat="43.98453" lon="7.27301">
        <ele>1093</ele>
        <time>2018-07-28T12:03:22.000Z</time>
      </trkpt>
      <trkpt lat="43.98453" lon="7.27308">
        <ele>1093</ele>
        <time>2018-07-28T12:03:29.000Z</time>
      </trkpt>
      <trkpt lat="43.98452" lon="7.27312">
        <ele>1093</ele>
        <time>2018-07-28T12:03:36.000Z</time>
      </trkpt>
      <trkpt lat="43.98453" lon="7.27309">
        <ele>1093</ele>
        <time>2018-07-28T12:03:42.000Z</time>
      </trkpt>
      <trkpt lat="43.98455" lon="7.27294">
        <ele>1093</ele>
        <time>2018-07-28T12:03:47.000Z</time>
      </trkpt>
      <trkpt lat="43.98467" lon="7.27275">
        <ele>1094</ele>
        <time>2018-07-28T12:03:54.000Z</time>
      </trkpt>
      <trkpt lat="43.9848" lon="7.27259">
        <ele>1096</ele>
        <time>2018-07-28T12:04:01.000Z</time>
      </trkpt>
      <trkpt lat="43.98483" lon="7.27252">
        <ele>1097</ele>
        <time>2018-07-28T12:04:04.000Z</time>
      </trkpt>
      <trkpt lat="43.98484" lon="7.27243">
        <ele>1102</ele>
        <time>2018-07-28T12:04:08.000Z</time>
      </trkpt>
      <trkpt lat="43.98483" lon="7.27238">
        <ele>1102</ele>
        <time>2018-07-28T12:04:13.000Z</time>
      </trkpt>
      <trkpt lat="43.98483" lon="7.27239">
        <ele>1102</ele>
        <time>2018-07-28T12:04:19.000Z</time>
      </trkpt>
      <trkpt lat="43.98483" lon="7.2724">
        <ele>1102</ele>
        <time>2018-07-28T12:04:25.000Z</time>
      </trkpt>
      <trkpt lat="43.98483" lon="7.2724">
        <ele>1102</ele>
        <time>2018-07-28T12:04:35.000Z</time>
      </trkpt>
      <trkpt lat="43.98484" lon="7.2724">
        <ele>1102</ele>
        <time>2018-07-28T12:04:48.000Z</time>
      </trkpt>
      <trkpt lat="43.98484" lon="7.27241">
        <ele>1102</ele>
        <time>2018-07-28T12:04:54.000Z</time>
      </trkpt>
      <trkpt lat="43.98484" lon="7.27241">
        <ele>1102</ele>
        <time>2018-07-28T12:05:10.000Z</time>
      </trkpt>
      <trkpt lat="43.98484" lon="7.27242">
        <ele>1102</ele>
        <time>2018-07-28T12:05:17.000Z</time>
      </trkpt>
      <trkpt lat="43.98484" lon="7.27242">
        <ele>1102</ele>
        <time>2018-07-28T12:05:34.000Z</time>
      </trkpt>
      <trkpt lat="43.98484" lon="7.27243">
        <ele>1102</ele>
        <time>2018-07-28T12:05:44.000Z</time>
      </trkpt>
      <trkpt lat="43.98484" lon="7.27244">
        <ele>1102</ele>
        <time>2018-07-28T12:05:55.000Z</time>
      </trkpt>
      <trkpt lat="43.98484" lon="7.27242">
        <ele>1102</ele>
        <time>2018-07-28T12:06:12.000Z</time>
      </trkpt>
      <trkpt lat="43.98485" lon="7.27241">
        <ele>1102</ele>
        <time>2018-07-28T12:06:29.000Z</time>
      </trkpt>
      <trkpt lat="43.98485" lon="7.27241">
        <ele>1102</ele>
        <time>2018-07-28T12:06:40.000Z</time>
      </trkpt>
      <trkpt lat="43.98485" lon="7.27241">
        <ele>1102</ele>
        <time>2018-07-28T12:06:46.000Z</time>
      </trkpt>
      <trkpt lat="43.98484" lon="7.27241">
        <ele>1102</ele>
        <time>2018-07-28T12:06:52.000Z</time>
      </trkpt>
      <trkpt lat="43.98484" lon="7.2724">
        <ele>1102</ele>
        <time>2018-07-28T12:07:06.000Z</time>
      </trkpt>
      <trkpt lat="43.98484" lon="7.27239">
        <ele>1102</ele>
        <time>2018-07-28T12:07:31.000Z</time>
      </trkpt>
      <trkpt lat="43.98484" lon="7.27239">
        <ele>1102</ele>
        <time>2018-07-28T12:07:42.000Z</time>
      </trkpt>
      <trkpt lat="43.98484" lon="7.27238">
        <ele>1102</ele>
        <time>2018-07-28T12:07:58.000Z</time>
      </trkpt>
      <trkpt lat="43.98484" lon="7.27238">
        <ele>1102</ele>
        <time>2018-07-28T12:08:10.000Z</time>
      </trkpt>
      <trkpt lat="43.98484" lon="7.27238">
        <ele>1102</ele>
        <time>2018-07-28T12:08:21.000Z</time>
      </trkpt>
      <trkpt lat="43.98484" lon="7.27238">
        <ele>1102</ele>
        <time>2018-07-28T12:08:36.000Z</time>
      </trkpt>
      <trkpt lat="43.98484" lon="7.27239">
        <ele>1102</ele>
        <time>2018-07-28T12:08:51.000Z</time>
      </trkpt>
      <trkpt lat="43.98484" lon="7.27239">
        <ele>1102</ele>
        <time>2018-07-28T12:08:59.000Z</time>
      </trkpt>
      <trkpt lat="43.98484" lon="7.27239">
        <ele>1102</ele>
        <time>2018-07-28T12:09:11.000Z</time>
      </trkpt>
      <trkpt lat="43.98484" lon="7.27239">
        <ele>1102</ele>
        <time>2018-07-28T12:09:24.000Z</time>
      </trkpt>
      <trkpt lat="43.98484" lon="7.27238">
        <ele>1102</ele>
        <time>2018-07-28T12:09:32.000Z</time>
      </trkpt>
      <trkpt lat="43.98484" lon="7.27238">
        <ele>1102</ele>
        <time>2018-07-28T12:09:42.000Z</time>
      </trkpt>
      <trkpt lat="43.98485" lon="7.27239">
        <ele>1102</ele>
        <time>2018-07-28T12:09:50.000Z</time>
      </trkpt>
      <trkpt lat="43.98485" lon="7.27239">
        <ele>1102</ele>
        <time>2018-07-28T12:10:01.000Z</time>
      </trkpt>
      <trkpt lat="43.98485" lon="7.27238">
        <ele>1102</ele>
        <time>2018-07-28T12:10:18.000Z</time>
      </trkpt>
      <trkpt lat="43.98485" lon="7.27238">
        <ele>1102</ele>
        <time>2018-07-28T12:10:30.000Z</time>
      </trkpt>
      <trkpt lat="43.98485" lon="7.27238">
        <ele>1102</ele>
        <time>2018-07-28T12:10:38.000Z</time>
      </trkpt>
      <trkpt lat="43.98485" lon="7.27239">
        <ele>1102</ele>
        <time>2018-07-28T12:10:46.000Z</time>
      </trkpt>
      <trkpt lat="43.98485" lon="7.27239">
        <ele>1102</ele>
        <time>2018-07-28T12:11:10.000Z</time>
      </trkpt>
      <trkpt lat="43.98485" lon="7.27238">
        <ele>1102</ele>
        <time>2018-07-28T12:11:25.000Z</time>
      </trkpt>
      <trkpt lat="43.98484" lon="7.27239">
        <ele>1102</ele>
        <time>2018-07-28T12:11:53.000Z</time>
      </trkpt>
      <trkpt lat="43.98484" lon="7.27239">
        <ele>1102</ele>
        <time>2018-07-28T12:12:05.000Z</time>
      </trkpt>
      <trkpt lat="43.98484" lon="7.27239">
        <ele>1102</ele>
        <time>2018-07-28T12:12:16.000Z</time>
      </trkpt>
      <trkpt lat="43.98484" lon="7.27239">
        <ele>1102</ele>
        <time>2018-07-28T12:12:34.000Z</time>
      </trkpt>
      <trkpt lat="43.98484" lon="7.27239">
        <ele>1102</ele>
        <time>2018-07-28T12:12:45.000Z</time>
      </trkpt>
      <trkpt lat="43.98484" lon="7.2724">
        <ele>1102</ele>
        <time>2018-07-28T12:12:52.000Z</time>
      </trkpt>
      <trkpt lat="43.98484" lon="7.2724">
        <ele>1102</ele>
        <time>2018-07-28T12:13:11.000Z</time>
      </trkpt>
      <trkpt lat="43.98484" lon="7.27241">
        <ele>1102</ele>
        <time>2018-07-28T12:13:20.000Z</time>
      </trkpt>
      <trkpt lat="43.98484" lon="7.2724">
        <ele>1102</ele>
        <time>2018-07-28T12:13:35.000Z</time>
      </trkpt>
      <trkpt lat="43.98484" lon="7.2724">
        <ele>1102</ele>
        <time>2018-07-28T12:13:51.000Z</time>
      </trkpt>
      <trkpt lat="43.98484" lon="7.27241">
        <ele>1102</ele>
        <time>2018-07-28T12:14:02.000Z</time>
      </trkpt>
      <trkpt lat="43.98484" lon="7.2724">
        <ele>1102</ele>
        <time>2018-07-28T12:14:19.000Z</time>
      </trkpt>
      <trkpt lat="43.98484" lon="7.2724">
        <ele>1102</ele>
        <time>2018-07-28T12:14:20.000Z</time>
      </trkpt>
      <trkpt lat="43.98484" lon="7.27239">
        <ele>1102</ele>
        <time>2018-07-28T12:14:43.000Z</time>
      </trkpt>
      <trkpt lat="43.98485" lon="7.27239">
        <ele>1102</ele>
        <time>2018-07-28T12:14:52.000Z</time>
      </trkpt>
      <trkpt lat="43.98484" lon="7.27238">
        <ele>1102</ele>
        <time>2018-07-28T12:15:08.000Z</time>
      </trkpt>
      <trkpt lat="43.98484" lon="7.27238">
        <ele>1102</ele>
        <time>2018-07-28T12:15:29.000Z</time>
      </trkpt>
      <trkpt lat="43.98484" lon="7.27237">
        <ele>1102</ele>
        <time>2018-07-28T12:15:43.000Z</time>
      </trkpt>
      <trkpt lat="43.98484" lon="7.27238">
        <ele>1102</ele>
        <time>2018-07-28T12:16:06.000Z</time>
      </trkpt>
      <trkpt lat="43.98484" lon="7.27239">
        <ele>1102</ele>
        <time>2018-07-28T12:16:20.000Z</time>
      </trkpt>
      <trkpt lat="43.98484" lon="7.27239">
        <ele>1102</ele>
        <time>2018-07-28T12:16:37.000Z</time>
      </trkpt>
      <trkpt lat="43.98484" lon="7.2724">
        <ele>1102</ele>
        <time>2018-07-28T12:16:45.000Z</time>
      </trkpt>
      <trkpt lat="43.98484" lon="7.2724">
        <ele>1102</ele>
        <time>2018-07-28T12:17:00.000Z</time>
      </trkpt>
      <trkpt lat="43.98484" lon="7.2724">
        <ele>1102</ele>
        <time>2018-07-28T12:17:18.000Z</time>
      </trkpt>
      <trkpt lat="43.98484" lon="7.27242">
        <ele>1102</ele>
        <time>2018-07-28T12:17:33.000Z</time>
      </trkpt>
      <trkpt lat="43.98484" lon="7.27242">
        <ele>1102</ele>
        <time>2018-07-28T12:17:43.000Z</time>
      </trkpt>
      <trkpt lat="43.98483" lon="7.27241">
        <ele>1102</ele>
        <time>2018-07-28T12:18:08.000Z</time>
      </trkpt>
      <trkpt lat="43.98483" lon="7.27241">
        <ele>1102</ele>
        <time>2018-07-28T12:18:25.000Z</time>
      </trkpt>
      <trkpt lat="43.98482" lon="7.27242">
        <ele>1102</ele>
        <time>2018-07-28T12:18:43.000Z</time>
      </trkpt>
      <trkpt lat="43.98483" lon="7.27242">
        <ele>1102</ele>
        <time>2018-07-28T12:18:51.000Z</time>
      </trkpt>
      <trkpt lat="43.98482" lon="7.27243">
        <ele>1102</ele>
        <time>2018-07-28T12:19:05.000Z</time>
      </trkpt>
      <trkpt lat="43.98483" lon="7.27243">
        <ele>1102</ele>
        <time>2018-07-28T12:19:16.000Z</time>
      </trkpt>
      <trkpt lat="43.98483" lon="7.27243">
        <ele>1102</ele>
        <time>2018-07-28T12:19:25.000Z</time>
      </trkpt>
      <trkpt lat="43.98486" lon="7.27243">
        <ele>1102</ele>
        <time>2018-07-28T12:19:47.000Z</time>
      </trkpt>
      <trkpt lat="43.98486" lon="7.27243">
        <ele>1102</ele>
        <time>2018-07-28T12:20:12.000Z</time>
      </trkpt>
      <trkpt lat="43.98486" lon="7.27243">
        <ele>1102</ele>
        <time>2018-07-28T12:20:45.000Z</time>
      </trkpt>
      <trkpt lat="43.98485" lon="7.27243">
        <ele>1102</ele>
        <time>2018-07-28T12:21:09.000Z</time>
      </trkpt>
      <trkpt lat="43.98485" lon="7.27244">
        <ele>1102</ele>
        <time>2018-07-28T12:21:23.000Z</time>
      </trkpt>
      <trkpt lat="43.98485" lon="7.27243">
        <ele>1102</ele>
        <time>2018-07-28T12:21:50.000Z</time>
      </trkpt>
      <trkpt lat="43.98484" lon="7.2724">
        <ele>1102</ele>
        <time>2018-07-28T12:21:55.000Z</time>
      </trkpt>
      <trkpt lat="43.98484" lon="7.2724">
        <ele>1102</ele>
        <time>2018-07-28T12:22:05.000Z</time>
      </trkpt>
      <trkpt lat="43.98484" lon="7.2724">
        <ele>1102</ele>
        <time>2018-07-28T12:22:25.000Z</time>
      </trkpt>
      <trkpt lat="43.98484" lon="7.27239">
        <ele>1102</ele>
        <time>2018-07-28T12:22:48.000Z</time>
      </trkpt>
      <trkpt lat="43.98485" lon="7.2724">
        <ele>1102</ele>
        <time>2018-07-28T12:22:59.000Z</time>
      </trkpt>
      <trkpt lat="43.98486" lon="7.27239">
        <ele>1102</ele>
        <time>2018-07-28T12:23:12.000Z</time>
      </trkpt>
      <trkpt lat="43.98487" lon="7.27239">
        <ele>1102</ele>
        <time>2018-07-28T12:23:32.000Z</time>
      </trkpt>
      <trkpt lat="43.98487" lon="7.2724">
        <ele>1102</ele>
        <time>2018-07-28T12:23:46.000Z</time>
      </trkpt>
      <trkpt lat="43.98486" lon="7.27241">
        <ele>1102</ele>
        <time>2018-07-28T12:24:08.000Z</time>
      </trkpt>
      <trkpt lat="43.98486" lon="7.27241">
        <ele>1102</ele>
        <time>2018-07-28T12:24:22.000Z</time>
      </trkpt>
      <trkpt lat="43.98486" lon="7.2724">
        <ele>1102</ele>
        <time>2018-07-28T12:24:37.000Z</time>
      </trkpt>
      <trkpt lat="43.98486" lon="7.2724">
        <ele>1102</ele>
        <time>2018-07-28T12:24:47.000Z</time>
      </trkpt>
      <trkpt lat="43.98486" lon="7.2724">
        <ele>1102</ele>
        <time>2018-07-28T12:25:05.000Z</time>
      </trkpt>
      <trkpt lat="43.98485" lon="7.2724">
        <ele>1102</ele>
        <time>2018-07-28T12:25:26.000Z</time>
      </trkpt>
      <trkpt lat="43.98485" lon="7.27241">
        <ele>1102</ele>
        <time>2018-07-28T12:25:35.000Z</time>
      </trkpt>
      <trkpt lat="43.98485" lon="7.2724">
        <ele>1102</ele>
        <time>2018-07-28T12:25:58.000Z</time>
      </trkpt>
      <trkpt lat="43.98486" lon="7.2724">
        <ele>1102</ele>
        <time>2018-07-28T12:26:09.000Z</time>
      </trkpt>
      <trkpt lat="43.98486" lon="7.2724">
        <ele>1102</ele>
        <time>2018-07-28T12:26:24.000Z</time>
      </trkpt>
      <trkpt lat="43.98486" lon="7.2724">
        <ele>1102</ele>
        <time>2018-07-28T12:26:35.000Z</time>
      </trkpt>
      <trkpt lat="43.98486" lon="7.27241">
        <ele>1102</ele>
        <time>2018-07-28T12:26:44.000Z</time>
      </trkpt>
      <trkpt lat="43.98486" lon="7.27241">
        <ele>1102</ele>
        <time>2018-07-28T12:26:53.000Z</time>
      </trkpt>
      <trkpt lat="43.98487" lon="7.27241">
        <ele>1102</ele>
        <time>2018-07-28T12:27:09.000Z</time>
      </trkpt>
      <trkpt lat="43.98489" lon="7.27242">
        <ele>1102</ele>
        <time>2018-07-28T12:27:28.000Z</time>
      </trkpt>
      <trkpt lat="43.98489" lon="7.27242">
        <ele>1102</ele>
        <time>2018-07-28T12:27:41.000Z</time>
      </trkpt>
      <trkpt lat="43.98488" lon="7.27239">
        <ele>1102</ele>
        <time>2018-07-28T12:27:59.000Z</time>
      </trkpt>
      <trkpt lat="43.98488" lon="7.27238">
        <ele>1102</ele>
        <time>2018-07-28T12:28:05.000Z</time>
      </trkpt>
      <trkpt lat="43.98487" lon="7.27239">
        <ele>1102</ele>
        <time>2018-07-28T12:28:14.000Z</time>
      </trkpt>
      <trkpt lat="43.98486" lon="7.27241">
        <ele>1102</ele>
        <time>2018-07-28T12:28:25.000Z</time>
      </trkpt>
      <trkpt lat="43.98485" lon="7.2724">
        <ele>1102</ele>
        <time>2018-07-28T12:28:33.000Z</time>
      </trkpt>
      <trkpt lat="43.98485" lon="7.27239">
        <ele>1102</ele>
        <time>2018-07-28T12:28:42.000Z</time>
      </trkpt>
      <trkpt lat="43.98485" lon="7.27239">
        <ele>1102</ele>
        <time>2018-07-28T12:28:51.000Z</time>
      </trkpt>
      <trkpt lat="43.98485" lon="7.27239">
        <ele>1102</ele>
        <time>2018-07-28T12:29:05.000Z</time>
      </trkpt>
      <trkpt lat="43.98486" lon="7.27239">
        <ele>1102</ele>
        <time>2018-07-28T12:29:16.000Z</time>
      </trkpt>
      <trkpt lat="43.98485" lon="7.27241">
        <ele>1102</ele>
        <time>2018-07-28T12:29:25.000Z</time>
      </trkpt>
      <trkpt lat="43.98485" lon="7.27241">
        <ele>1102</ele>
        <time>2018-07-28T12:29:40.000Z</time>
      </trkpt>
      <trkpt lat="43.98485" lon="7.27242">
        <ele>1102</ele>
        <time>2018-07-28T12:29:54.000Z</time>
      </trkpt>
      <trkpt lat="43.98485" lon="7.27242">
        <ele>1102</ele>
        <time>2018-07-28T12:30:02.000Z</time>
      </trkpt>
      <trkpt lat="43.98485" lon="7.27242">
        <ele>1102</ele>
        <time>2018-07-28T12:30:09.000Z</time>
      </trkpt>
      <trkpt lat="43.98485" lon="7.27243">
        <ele>1102</ele>
        <time>2018-07-28T12:30:18.000Z</time>
      </trkpt>
      <trkpt lat="43.98485" lon="7.27242">
        <ele>1102</ele>
        <time>2018-07-28T12:30:24.000Z</time>
      </trkpt>
      <trkpt lat="43.98485" lon="7.2724">
        <ele>1102</ele>
        <time>2018-07-28T12:30:31.000Z</time>
      </trkpt>
      <trkpt lat="43.98484" lon="7.27239">
        <ele>1102</ele>
        <time>2018-07-28T12:30:38.000Z</time>
      </trkpt>
      <trkpt lat="43.98484" lon="7.27238">
        <ele>1102</ele>
        <time>2018-07-28T12:31:01.000Z</time>
      </trkpt>
      <trkpt lat="43.98484" lon="7.27239">
        <ele>1102</ele>
        <time>2018-07-28T12:31:23.000Z</time>
      </trkpt>
      <trkpt lat="43.98484" lon="7.2724">
        <ele>1102</ele>
        <time>2018-07-28T12:31:31.000Z</time>
      </trkpt>
      <trkpt lat="43.98484" lon="7.2724">
        <ele>1102</ele>
        <time>2018-07-28T12:31:39.000Z</time>
      </trkpt>
      <trkpt lat="43.98484" lon="7.2724">
        <ele>1102</ele>
        <time>2018-07-28T12:31:53.000Z</time>
      </trkpt>
      <trkpt lat="43.98484" lon="7.27239">
        <ele>1102</ele>
        <time>2018-07-28T12:32:13.000Z</time>
      </trkpt>
      <trkpt lat="43.98484" lon="7.27239">
        <ele>1102</ele>
        <time>2018-07-28T12:32:38.000Z</time>
      </trkpt>
      <trkpt lat="43.98484" lon="7.27239">
        <ele>1102</ele>
        <time>2018-07-28T12:33:05.000Z</time>
      </trkpt>
      <trkpt lat="43.98483" lon="7.27239">
        <ele>1102</ele>
        <time>2018-07-28T12:33:11.000Z</time>
      </trkpt>
      <trkpt lat="43.98484" lon="7.27239">
        <ele>1102</ele>
        <time>2018-07-28T12:33:25.000Z</time>
      </trkpt>
      <trkpt lat="43.98487" lon="7.27239">
        <ele>1102</ele>
        <time>2018-07-28T12:33:37.000Z</time>
      </trkpt>
      <trkpt lat="43.98487" lon="7.2724">
        <ele>1102</ele>
        <time>2018-07-28T12:33:44.000Z</time>
      </trkpt>
      <trkpt lat="43.98487" lon="7.27239">
        <ele>1102</ele>
        <time>2018-07-28T12:33:57.000Z</time>
      </trkpt>
      <trkpt lat="43.98487" lon="7.27238">
        <ele>1102</ele>
        <time>2018-07-28T12:34:08.000Z</time>
      </trkpt>
      <trkpt lat="43.98486" lon="7.27249">
        <ele>1102</ele>
        <time>2018-07-28T12:34:13.000Z</time>
      </trkpt>
      <trkpt lat="43.98476" lon="7.27265">
        <ele>1095</ele>
        <time>2018-07-28T12:34:18.000Z</time>
      </trkpt>
      <trkpt lat="43.98461" lon="7.27283">
        <ele>1093</ele>
        <time>2018-07-28T12:34:23.000Z</time>
      </trkpt>
      <trkpt lat="43.98457" lon="7.27291">
        <ele>1093</ele>
        <time>2018-07-28T12:34:25.000Z</time>
      </trkpt>
      <trkpt lat="43.98457" lon="7.27313">
        <ele>1093</ele>
        <time>2018-07-28T12:34:30.000Z</time>
      </trkpt>
      <trkpt lat="43.98453" lon="7.27332">
        <ele>1093</ele>
        <time>2018-07-28T12:34:35.000Z</time>
      </trkpt>
      <trkpt lat="43.98453" lon="7.27332">
        <ele>1093</ele>
        <time>2018-07-28T12:34:38.000Z</time>
      </trkpt>
      <trkpt lat="43.98453" lon="7.27332">
        <ele>1093</ele>
        <time>2018-07-28T12:34:46.000Z</time>
      </trkpt>
      <trkpt lat="43.98453" lon="7.27334">
        <ele>1095</ele>
        <time>2018-07-28T12:34:52.000Z</time>
      </trkpt>
      <trkpt lat="43.98452" lon="7.27341">
        <ele>1095</ele>
        <time>2018-07-28T12:34:55.000Z</time>
      </trkpt>
      <trkpt lat="43.98445" lon="7.27363">
        <ele>1097</ele>
        <time>2018-07-28T12:35:01.000Z</time>
      </trkpt>
      <trkpt lat="43.98442" lon="7.27392">
        <ele>1100</ele>
        <time>2018-07-28T12:35:07.000Z</time>
      </trkpt>
      <trkpt lat="43.98441" lon="7.27397">
        <ele>1101</ele>
        <time>2018-07-28T12:35:08.000Z</time>
      </trkpt>
      <trkpt lat="43.98443" lon="7.27422">
        <ele>1107</ele>
        <time>2018-07-28T12:35:13.000Z</time>
      </trkpt>
      <trkpt lat="43.98448" lon="7.27445">
        <ele>1105</ele>
        <time>2018-07-28T12:35:18.000Z</time>
      </trkpt>
      <trkpt lat="43.98447" lon="7.27452">
        <ele>1105</ele>
        <time>2018-07-28T12:35:19.000Z</time>
      </trkpt>
      <trkpt lat="43.98444" lon="7.2746">
        <ele>1106</ele>
        <time>2018-07-28T12:35:21.000Z</time>
      </trkpt>
      <trkpt lat="43.98445" lon="7.27466">
        <ele>1106</ele>
        <time>2018-07-28T12:35:23.000Z</time>
      </trkpt>
      <trkpt lat="43.98449" lon="7.27474">
        <ele>1106</ele>
        <time>2018-07-28T12:35:24.000Z</time>
      </trkpt>
      <trkpt lat="43.98455" lon="7.27494">
        <ele>1105</ele>
        <time>2018-07-28T12:35:28.000Z</time>
      </trkpt>
      <trkpt lat="43.9846" lon="7.27516">
        <ele>1104</ele>
        <time>2018-07-28T12:35:32.000Z</time>
      </trkpt>
      <trkpt lat="43.9846" lon="7.27522">
        <ele>1105</ele>
        <time>2018-07-28T12:35:33.000Z</time>
      </trkpt>
      <trkpt lat="43.98459" lon="7.27528">
        <ele>1105</ele>
        <time>2018-07-28T12:35:34.000Z</time>
      </trkpt>
      <trkpt lat="43.9846" lon="7.27555">
        <ele>1105</ele>
        <time>2018-07-28T12:35:39.000Z</time>
      </trkpt>
      <trkpt lat="43.9846" lon="7.2756">
        <ele>1104</ele>
        <time>2018-07-28T12:35:40.000Z</time>
      </trkpt>
      <trkpt lat="43.9846" lon="7.27586">
        <ele>1101</ele>
        <time>2018-07-28T12:35:45.000Z</time>
      </trkpt>
      <trkpt lat="43.98453" lon="7.27604">
        <ele>1102</ele>
        <time>2018-07-28T12:35:49.000Z</time>
      </trkpt>
      <trkpt lat="43.98449" lon="7.27604">
        <ele>1104</ele>
        <time>2018-07-28T12:35:50.000Z</time>
      </trkpt>
      <trkpt lat="43.98435" lon="7.27601">
        <ele>1109</ele>
        <time>2018-07-28T12:35:54.000Z</time>
      </trkpt>
      <trkpt lat="43.98428" lon="7.27613">
        <ele>1107</ele>
        <time>2018-07-28T12:35:57.000Z</time>
      </trkpt>
      <trkpt lat="43.98426" lon="7.27617">
        <ele>1107</ele>
        <time>2018-07-28T12:35:58.000Z</time>
      </trkpt>
      <trkpt lat="43.98409" lon="7.27649">
        <ele>1114</ele>
        <time>2018-07-28T12:36:05.000Z</time>
      </trkpt>
      <trkpt lat="43.98397" lon="7.27669">
        <ele>1110</ele>
        <time>2018-07-28T12:36:11.000Z</time>
      </trkpt>
      <trkpt lat="43.98383" lon="7.27695">
        <ele>1111</ele>
        <time>2018-07-28T12:36:17.000Z</time>
      </trkpt>
      <trkpt lat="43.98373" lon="7.27717">
        <ele>1111</ele>
        <time>2018-07-28T12:36:22.000Z</time>
      </trkpt>
      <trkpt lat="43.98365" lon="7.27735">
        <ele>1111</ele>
        <time>2018-07-28T12:36:27.000Z</time>
      </trkpt>
      <trkpt lat="43.98355" lon="7.27754">
        <ele>1102</ele>
        <time>2018-07-28T12:36:32.000Z</time>
      </trkpt>
      <trkpt lat="43.98345" lon="7.27773">
        <ele>1100</ele>
        <time>2018-07-28T12:36:37.000Z</time>
      </trkpt>
      <trkpt lat="43.98336" lon="7.2778">
        <ele>1099</ele>
        <time>2018-07-28T12:36:42.000Z</time>
      </trkpt>
      <trkpt lat="43.98327" lon="7.27778">
        <ele>1110</ele>
        <time>2018-07-28T12:36:48.000Z</time>
      </trkpt>
      <trkpt lat="43.98316" lon="7.27772">
        <ele>1112</ele>
        <time>2018-07-28T12:36:53.000Z</time>
      </trkpt>
      <trkpt lat="43.98299" lon="7.27772">
        <ele>1111</ele>
        <time>2018-07-28T12:36:58.000Z</time>
      </trkpt>
      <trkpt lat="43.98274" lon="7.27766">
        <ele>1113</ele>
        <time>2018-07-28T12:37:05.000Z</time>
      </trkpt>
      <trkpt lat="43.98257" lon="7.2776">
        <ele>1118</ele>
        <time>2018-07-28T12:37:10.000Z</time>
      </trkpt>
      <trkpt lat="43.98248" lon="7.2777">
        <ele>1121</ele>
        <time>2018-07-28T12:37:13.000Z</time>
      </trkpt>
      <trkpt lat="43.98243" lon="7.2777">
        <ele>1121</ele>
        <time>2018-07-28T12:37:14.000Z</time>
      </trkpt>
      <trkpt lat="43.98237" lon="7.27768">
        <ele>1121</ele>
        <time>2018-07-28T12:37:16.000Z</time>
      </trkpt>
      <trkpt lat="43.9822" lon="7.27772">
        <ele>1121</ele>
        <time>2018-07-28T12:37:21.000Z</time>
      </trkpt>
      <trkpt lat="43.98219" lon="7.27785">
        <ele>1119</ele>
        <time>2018-07-28T12:37:24.000Z</time>
      </trkpt>
      <trkpt lat="43.98218" lon="7.27809">
        <ele>1115</ele>
        <time>2018-07-28T12:37:30.000Z</time>
      </trkpt>
      <trkpt lat="43.98213" lon="7.27815">
        <ele>1114</ele>
        <time>2018-07-28T12:37:33.000Z</time>
      </trkpt>
      <trkpt lat="43.98212" lon="7.27817">
        <ele>1114</ele>
        <time>2018-07-28T12:37:34.000Z</time>
      </trkpt>
      <trkpt lat="43.98201" lon="7.27821">
        <ele>1115</ele>
        <time>2018-07-28T12:37:39.000Z</time>
      </trkpt>
      <trkpt lat="43.98196" lon="7.27826">
        <ele>1115</ele>
        <time>2018-07-28T12:37:42.000Z</time>
      </trkpt>
      <trkpt lat="43.98194" lon="7.27827">
        <ele>1115</ele>
        <time>2018-07-28T12:37:44.000Z</time>
      </trkpt>
      <trkpt lat="43.98192" lon="7.27829">
        <ele>1115</ele>
        <time>2018-07-28T12:37:46.000Z</time>
      </trkpt>
      <trkpt lat="43.98182" lon="7.27831">
        <ele>1115</ele>
        <time>2018-07-28T12:37:52.000Z</time>
      </trkpt>
      <trkpt lat="43.98171" lon="7.27825">
        <ele>1115</ele>
        <time>2018-07-28T12:37:57.000Z</time>
      </trkpt>
      <trkpt lat="43.98167" lon="7.27826">
        <ele>1115</ele>
        <time>2018-07-28T12:37:59.000Z</time>
      </trkpt>
      <trkpt lat="43.98164" lon="7.27827">
        <ele>1118</ele>
        <time>2018-07-28T12:38:00.000Z</time>
      </trkpt>
      <trkpt lat="43.98158" lon="7.27832">
        <ele>1119</ele>
        <time>2018-07-28T12:38:02.000Z</time>
      </trkpt>
      <trkpt lat="43.9815" lon="7.27836">
        <ele>1111</ele>
        <time>2018-07-28T12:38:05.000Z</time>
      </trkpt>
      <trkpt lat="43.98145" lon="7.27838">
        <ele>1110</ele>
        <time>2018-07-28T12:38:07.000Z</time>
      </trkpt>
      <trkpt lat="43.98145" lon="7.27841">
        <ele>1110</ele>
        <time>2018-07-28T12:38:08.000Z</time>
      </trkpt>
      <trkpt lat="43.98144" lon="7.27848">
        <ele>1109</ele>
        <time>2018-07-28T12:38:11.000Z</time>
      </trkpt>
      <trkpt lat="43.98137" lon="7.27858">
        <ele>1109</ele>
        <time>2018-07-28T12:38:15.000Z</time>
      </trkpt>
      <trkpt lat="43.98135" lon="7.2786">
        <ele>1108</ele>
        <time>2018-07-28T12:38:16.000Z</time>
      </trkpt>
      <trkpt lat="43.98123" lon="7.27866">
        <ele>1108</ele>
        <time>2018-07-28T12:38:22.000Z</time>
      </trkpt>
      <trkpt lat="43.98109" lon="7.27873">
        <ele>1108</ele>
        <time>2018-07-28T12:38:29.000Z</time>
      </trkpt>
      <trkpt lat="43.98096" lon="7.27878">
        <ele>1107</ele>
        <time>2018-07-28T12:38:35.000Z</time>
      </trkpt>
      <trkpt lat="43.98085" lon="7.27872">
        <ele>1109</ele>
        <time>2018-07-28T12:38:40.000Z</time>
      </trkpt>
      <trkpt lat="43.98083" lon="7.27866">
        <ele>1116</ele>
        <time>2018-07-28T12:38:42.000Z</time>
      </trkpt>
      <trkpt lat="43.9808" lon="7.27862">
        <ele>1117</ele>
        <time>2018-07-28T12:38:44.000Z</time>
      </trkpt>
      <trkpt lat="43.98072" lon="7.27865">
        <ele>1116</ele>
        <time>2018-07-28T12:38:48.000Z</time>
      </trkpt>
      <trkpt lat="43.98065" lon="7.27866">
        <ele>1116</ele>
        <time>2018-07-28T12:38:51.000Z</time>
      </trkpt>
      <trkpt lat="43.98065" lon="7.27866">
        <ele>1116</ele>
        <time>2018-07-28T12:38:52.000Z</time>
      </trkpt>
      <trkpt lat="43.98063" lon="7.27867">
        <ele>1116</ele>
        <time>2018-07-28T12:38:53.000Z</time>
      </trkpt>
      <trkpt lat="43.98055" lon="7.2787">
        <ele>1116</ele>
        <time>2018-07-28T12:38:57.000Z</time>
      </trkpt>
      <trkpt lat="43.98044" lon="7.27869">
        <ele>1116</ele>
        <time>2018-07-28T12:39:01.000Z</time>
      </trkpt>
      <trkpt lat="43.9804" lon="7.2787">
        <ele>1116</ele>
        <time>2018-07-28T12:39:03.000Z</time>
      </trkpt>
      <trkpt lat="43.98036" lon="7.27869">
        <ele>1116</ele>
        <time>2018-07-28T12:39:05.000Z</time>
      </trkpt>
      <trkpt lat="43.98034" lon="7.27868">
        <ele>1117</ele>
        <time>2018-07-28T12:39:06.000Z</time>
      </trkpt>
      <trkpt lat="43.98025" lon="7.27869">
        <ele>1117</ele>
        <time>2018-07-28T12:39:10.000Z</time>
      </trkpt>
      <trkpt lat="43.98021" lon="7.27873">
        <ele>1116</ele>
        <time>2018-07-28T12:39:12.000Z</time>
      </trkpt>
      <trkpt lat="43.98012" lon="7.27881">
        <ele>1115</ele>
        <time>2018-07-28T12:39:15.000Z</time>
      </trkpt>
      <trkpt lat="43.97999" lon="7.27883">
        <ele>1119</ele>
        <time>2018-07-28T12:39:21.000Z</time>
      </trkpt>
      <trkpt lat="43.97987" lon="7.27886">
        <ele>1119</ele>
        <time>2018-07-28T12:39:26.000Z</time>
      </trkpt>
      <trkpt lat="43.97966" lon="7.27894">
        <ele>1120</ele>
        <time>2018-07-28T12:39:34.000Z</time>
      </trkpt>
      <trkpt lat="43.97953" lon="7.27894">
        <ele>1121</ele>
        <time>2018-07-28T12:39:39.000Z</time>
      </trkpt>
      <trkpt lat="43.97939" lon="7.27895">
        <ele>1121</ele>
        <time>2018-07-28T12:39:44.000Z</time>
      </trkpt>
      <trkpt lat="43.97927" lon="7.2789">
        <ele>1122</ele>
        <time>2018-07-28T12:39:48.000Z</time>
      </trkpt>
      <trkpt lat="43.9792" lon="7.27891">
        <ele>1121</ele>
        <time>2018-07-28T12:39:50.000Z</time>
      </trkpt>
      <trkpt lat="43.97914" lon="7.27896">
        <ele>1130</ele>
        <time>2018-07-28T12:39:52.000Z</time>
      </trkpt>
      <trkpt lat="43.97902" lon="7.27904">
        <ele>1129</ele>
        <time>2018-07-28T12:39:57.000Z</time>
      </trkpt>
      <trkpt lat="43.97898" lon="7.27909">
        <ele>1130</ele>
        <time>2018-07-28T12:40:02.000Z</time>
      </trkpt>
      <trkpt lat="43.97896" lon="7.27912">
        <ele>1130</ele>
        <time>2018-07-28T12:40:12.000Z</time>
      </trkpt>
      <trkpt lat="43.9789" lon="7.27921">
        <ele>1117</ele>
        <time>2018-07-28T12:40:18.000Z</time>
      </trkpt>
      <trkpt lat="43.97887" lon="7.27923">
        <ele>1118</ele>
        <time>2018-07-28T12:40:22.000Z</time>
      </trkpt>
      <trkpt lat="43.97885" lon="7.27923">
        <ele>1118</ele>
        <time>2018-07-28T12:40:32.000Z</time>
      </trkpt>
      <trkpt lat="43.97886" lon="7.27922">
        <ele>1118</ele>
        <time>2018-07-28T12:40:44.000Z</time>
      </trkpt>
      <trkpt lat="43.97886" lon="7.27922">
        <ele>1118</ele>
        <time>2018-07-28T12:40:45.000Z</time>
      </trkpt>
      <trkpt lat="43.97884" lon="7.27923">
        <ele>1119</ele>
        <time>2018-07-28T12:40:55.000Z</time>
      </trkpt>
      <trkpt lat="43.97879" lon="7.27928">
        <ele>1120</ele>
        <time>2018-07-28T12:41:03.000Z</time>
      </trkpt>
      <trkpt lat="43.97872" lon="7.27935">
        <ele>1121</ele>
        <time>2018-07-28T12:41:08.000Z</time>
      </trkpt>
      <trkpt lat="43.97868" lon="7.27946">
        <ele>1120</ele>
        <time>2018-07-28T12:41:12.000Z</time>
      </trkpt>
      <trkpt lat="43.97863" lon="7.27962">
        <ele>1119</ele>
        <time>2018-07-28T12:41:17.000Z</time>
      </trkpt>
      <trkpt lat="43.97861" lon="7.27984">
        <ele>1118</ele>
        <time>2018-07-28T12:41:23.000Z</time>
      </trkpt>
      <trkpt lat="43.97853" lon="7.28002">
        <ele>1113</ele>
        <time>2018-07-28T12:41:28.000Z</time>
      </trkpt>
      <trkpt lat="43.97842" lon="7.28024">
        <ele>1112</ele>
        <time>2018-07-28T12:41:34.000Z</time>
      </trkpt>
      <trkpt lat="43.97842" lon="7.2803">
        <ele>1110</ele>
        <time>2018-07-28T12:41:36.000Z</time>
      </trkpt>
      <trkpt lat="43.9784" lon="7.28036">
        <ele>1109</ele>
        <time>2018-07-28T12:41:38.000Z</time>
      </trkpt>
      <trkpt lat="43.97836" lon="7.28046">
        <ele>1109</ele>
        <time>2018-07-28T12:41:43.000Z</time>
      </trkpt>
      <trkpt lat="43.97831" lon="7.28055">
        <ele>1124</ele>
        <time>2018-07-28T12:41:48.000Z</time>
      </trkpt>
      <trkpt lat="43.97827" lon="7.28066">
        <ele>1122</ele>
        <time>2018-07-28T12:41:54.000Z</time>
      </trkpt>
      <trkpt lat="43.97821" lon="7.28072">
        <ele>1122</ele>
        <time>2018-07-28T12:41:59.000Z</time>
      </trkpt>
      <trkpt lat="43.97818" lon="7.28079">
        <ele>1121</ele>
        <time>2018-07-28T12:42:04.000Z</time>
      </trkpt>
      <trkpt lat="43.97812" lon="7.28093">
        <ele>1117</ele>
        <time>2018-07-28T12:42:10.000Z</time>
      </trkpt>
      <trkpt lat="43.97803" lon="7.28106">
        <ele>1118</ele>
        <time>2018-07-28T12:42:17.000Z</time>
      </trkpt>
      <trkpt lat="43.97798" lon="7.28115">
        <ele>1118</ele>
        <time>2018-07-28T12:42:23.000Z</time>
      </trkpt>
      <trkpt lat="43.97794" lon="7.28121">
        <ele>1118</ele>
        <time>2018-07-28T12:42:28.000Z</time>
      </trkpt>
      <trkpt lat="43.97793" lon="7.28121">
        <ele>1118</ele>
        <time>2018-07-28T12:42:29.000Z</time>
      </trkpt>
      <trkpt lat="43.97791" lon="7.28121">
        <ele>1118</ele>
        <time>2018-07-28T12:42:30.000Z</time>
      </trkpt>
      <trkpt lat="43.97782" lon="7.28125">
        <ele>1119</ele>
        <time>2018-07-28T12:42:36.000Z</time>
      </trkpt>
      <trkpt lat="43.97774" lon="7.28128">
        <ele>1120</ele>
        <time>2018-07-28T12:42:40.000Z</time>
      </trkpt>
      <trkpt lat="43.97771" lon="7.28129">
        <ele>1120</ele>
        <time>2018-07-28T12:42:42.000Z</time>
      </trkpt>
      <trkpt lat="43.97765" lon="7.28129">
        <ele>1121</ele>
        <time>2018-07-28T12:42:45.000Z</time>
      </trkpt>
      <trkpt lat="43.97762" lon="7.2813">
        <ele>1121</ele>
        <time>2018-07-28T12:42:47.000Z</time>
      </trkpt>
      <trkpt lat="43.97761" lon="7.28132">
        <ele>1121</ele>
        <time>2018-07-28T12:42:48.000Z</time>
      </trkpt>
      <trkpt lat="43.97759" lon="7.28133">
        <ele>1121</ele>
        <time>2018-07-28T12:42:49.000Z</time>
      </trkpt>
      <trkpt lat="43.97752" lon="7.28139">
        <ele>1121</ele>
        <time>2018-07-28T12:42:53.000Z</time>
      </trkpt>
      <trkpt lat="43.9775" lon="7.28144">
        <ele>1129</ele>
        <time>2018-07-28T12:42:56.000Z</time>
      </trkpt>
      <trkpt lat="43.97749" lon="7.28151">
        <ele>1128</ele>
        <time>2018-07-28T12:43:00.000Z</time>
      </trkpt>
      <trkpt lat="43.97749" lon="7.28152">
        <ele>1127</ele>
        <time>2018-07-28T12:43:03.000Z</time>
      </trkpt>
      <trkpt lat="43.97749" lon="7.28154">
        <ele>1127</ele>
        <time>2018-07-28T12:43:06.000Z</time>
      </trkpt>
      <trkpt lat="43.97751" lon="7.28157">
        <ele>1122</ele>
        <time>2018-07-28T12:43:21.000Z</time>
      </trkpt>
      <trkpt lat="43.97752" lon="7.28164">
        <ele>1122</ele>
        <time>2018-07-28T12:43:30.000Z</time>
      </trkpt>
      <trkpt lat="43.97753" lon="7.2817">
        <ele>1120</ele>
        <time>2018-07-28T12:43:34.000Z</time>
      </trkpt>
      <trkpt lat="43.97752" lon="7.28175">
        <ele>1117</ele>
        <time>2018-07-28T12:43:37.000Z</time>
      </trkpt>
      <trkpt lat="43.97752" lon="7.28177">
        <ele>1116</ele>
        <time>2018-07-28T12:43:38.000Z</time>
      </trkpt>
      <trkpt lat="43.97749" lon="7.28184">
        <ele>1117</ele>
        <time>2018-07-28T12:43:42.000Z</time>
      </trkpt>
      <trkpt lat="43.97747" lon="7.28188">
        <ele>1117</ele>
        <time>2018-07-28T12:43:45.000Z</time>
      </trkpt>
      <trkpt lat="43.97745" lon="7.28191">
        <ele>1116</ele>
        <time>2018-07-28T12:43:48.000Z</time>
      </trkpt>
      <trkpt lat="43.97742" lon="7.28194">
        <ele>1115</ele>
        <time>2018-07-28T12:43:50.000Z</time>
      </trkpt>
      <trkpt lat="43.97738" lon="7.28196">
        <ele>1114</ele>
        <time>2018-07-28T12:43:54.000Z</time>
      </trkpt>
      <trkpt lat="43.97736" lon="7.28197">
        <ele>1114</ele>
        <time>2018-07-28T12:43:55.000Z</time>
      </trkpt>
      <trkpt lat="43.97727" lon="7.28198">
        <ele>1114</ele>
        <time>2018-07-28T12:44:02.000Z</time>
      </trkpt>
      <trkpt lat="43.9772" lon="7.28199">
        <ele>1113</ele>
        <time>2018-07-28T12:44:07.000Z</time>
      </trkpt>
      <trkpt lat="43.97719" lon="7.28199">
        <ele>1113</ele>
        <time>2018-07-28T12:44:08.000Z</time>
      </trkpt>
      <trkpt lat="43.97711" lon="7.28197">
        <ele>1113</ele>
        <time>2018-07-28T12:44:14.000Z</time>
      </trkpt>
      <trkpt lat="43.9771" lon="7.28197">
        <ele>1113</ele>
        <time>2018-07-28T12:44:15.000Z</time>
      </trkpt>
      <trkpt lat="43.97702" lon="7.28193">
        <ele>1114</ele>
        <time>2018-07-28T12:44:21.000Z</time>
      </trkpt>
      <trkpt lat="43.977" lon="7.28191">
        <ele>1114</ele>
        <time>2018-07-28T12:44:23.000Z</time>
      </trkpt>
      <trkpt lat="43.97695" lon="7.28184">
        <ele>1115</ele>
        <time>2018-07-28T12:44:28.000Z</time>
      </trkpt>
      <trkpt lat="43.97694" lon="7.28183">
        <ele>1115</ele>
        <time>2018-07-28T12:44:29.000Z</time>
      </trkpt>
      <trkpt lat="43.97686" lon="7.2817">
        <ele>1117</ele>
        <time>2018-07-28T12:44:37.000Z</time>
      </trkpt>
      <trkpt lat="43.9768" lon="7.2816">
        <ele>1126</ele>
        <time>2018-07-28T12:44:44.000Z</time>
      </trkpt>
      <trkpt lat="43.97679" lon="7.28159">
        <ele>1127</ele>
        <time>2018-07-28T12:44:45.000Z</time>
      </trkpt>
      <trkpt lat="43.97672" lon="7.28151">
        <ele>1128</ele>
        <time>2018-07-28T12:44:51.000Z</time>
      </trkpt>
      <trkpt lat="43.97669" lon="7.28147">
        <ele>1128</ele>
        <time>2018-07-28T12:44:54.000Z</time>
      </trkpt>
      <trkpt lat="43.97664" lon="7.28143">
        <ele>1132</ele>
        <time>2018-07-28T12:44:58.000Z</time>
      </trkpt>
      <trkpt lat="43.97658" lon="7.28138">
        <ele>1134</ele>
        <time>2018-07-28T12:45:03.000Z</time>
      </trkpt>
      <trkpt lat="43.97657" lon="7.28137">
        <ele>1134</ele>
        <time>2018-07-28T12:45:04.000Z</time>
      </trkpt>
      <trkpt lat="43.97646" lon="7.28133">
        <ele>1135</ele>
        <time>2018-07-28T12:45:12.000Z</time>
      </trkpt>
      <trkpt lat="43.97636" lon="7.28131">
        <ele>1136</ele>
        <time>2018-07-28T12:45:19.000Z</time>
      </trkpt>
      <trkpt lat="43.97632" lon="7.28129">
        <ele>1137</ele>
        <time>2018-07-28T12:45:22.000Z</time>
      </trkpt>
      <trkpt lat="43.97628" lon="7.28128">
        <ele>1137</ele>
        <time>2018-07-28T12:45:25.000Z</time>
      </trkpt>
      <trkpt lat="43.97622" lon="7.28125">
        <ele>1138</ele>
        <time>2018-07-28T12:45:30.000Z</time>
      </trkpt>
      <trkpt lat="43.97618" lon="7.28122">
        <ele>1138</ele>
        <time>2018-07-28T12:45:33.000Z</time>
      </trkpt>
      <trkpt lat="43.97612" lon="7.2812">
        <ele>1139</ele>
        <time>2018-07-28T12:45:37.000Z</time>
      </trkpt>
      <trkpt lat="43.97608" lon="7.28118">
        <ele>1139</ele>
        <time>2018-07-28T12:45:40.000Z</time>
      </trkpt>
      <trkpt lat="43.97607" lon="7.28118">
        <ele>1139</ele>
        <time>2018-07-28T12:45:41.000Z</time>
      </trkpt>
      <trkpt lat="43.97604" lon="7.28118">
        <ele>1139</ele>
        <time>2018-07-28T12:45:43.000Z</time>
      </trkpt>
      <trkpt lat="43.97599" lon="7.28115">
        <ele>1140</ele>
        <time>2018-07-28T12:45:47.000Z</time>
      </trkpt>
      <trkpt lat="43.97597" lon="7.28115">
        <ele>1140</ele>
        <time>2018-07-28T12:45:48.000Z</time>
      </trkpt>
      <trkpt lat="43.9759" lon="7.28115">
        <ele>1141</ele>
        <time>2018-07-28T12:45:53.000Z</time>
      </trkpt>
      <trkpt lat="43.97587" lon="7.28114">
        <ele>1141</ele>
        <time>2018-07-28T12:45:55.000Z</time>
      </trkpt>
      <trkpt lat="43.97585" lon="7.28113">
        <ele>1141</ele>
        <time>2018-07-28T12:45:56.000Z</time>
      </trkpt>
      <trkpt lat="43.97575" lon="7.28111">
        <ele>1145</ele>
        <time>2018-07-28T12:46:02.000Z</time>
      </trkpt>
      <trkpt lat="43.97571" lon="7.28111">
        <ele>1144</ele>
        <time>2018-07-28T12:46:05.000Z</time>
      </trkpt>
      <trkpt lat="43.97565" lon="7.28109">
        <ele>1145</ele>
        <time>2018-07-28T12:46:09.000Z</time>
      </trkpt>
      <trkpt lat="43.97563" lon="7.28108">
        <ele>1145</ele>
        <time>2018-07-28T12:46:11.000Z</time>
      </trkpt>
      <trkpt lat="43.97555" lon="7.28107">
        <ele>1145</ele>
        <time>2018-07-28T12:46:16.000Z</time>
      </trkpt>
      <trkpt lat="43.97554" lon="7.28107">
        <ele>1145</ele>
        <time>2018-07-28T12:46:17.000Z</time>
      </trkpt>
      <trkpt lat="43.97547" lon="7.28107">
        <ele>1145</ele>
        <time>2018-07-28T12:46:21.000Z</time>
      </trkpt>
      <trkpt lat="43.97546" lon="7.28107">
        <ele>1145</ele>
        <time>2018-07-28T12:46:22.000Z</time>
      </trkpt>
      <trkpt lat="43.97544" lon="7.28106">
        <ele>1145</ele>
        <time>2018-07-28T12:46:23.000Z</time>
      </trkpt>
      <trkpt lat="43.97535" lon="7.28108">
        <ele>1145</ele>
        <time>2018-07-28T12:46:29.000Z</time>
      </trkpt>
      <trkpt lat="43.97532" lon="7.28108">
        <ele>1145</ele>
        <time>2018-07-28T12:46:31.000Z</time>
      </trkpt>
      <trkpt lat="43.97523" lon="7.28109">
        <ele>1146</ele>
        <time>2018-07-28T12:46:37.000Z</time>
      </trkpt>
      <trkpt lat="43.97521" lon="7.28109">
        <ele>1146</ele>
        <time>2018-07-28T12:46:39.000Z</time>
      </trkpt>
      <trkpt lat="43.97513" lon="7.28107">
        <ele>1147</ele>
        <time>2018-07-28T12:46:45.000Z</time>
      </trkpt>
      <trkpt lat="43.97505" lon="7.28107">
        <ele>1147</ele>
        <time>2018-07-28T12:46:51.000Z</time>
      </trkpt>
      <trkpt lat="43.97497" lon="7.28107">
        <ele>1155</ele>
        <time>2018-07-28T12:46:56.000Z</time>
      </trkpt>
      <trkpt lat="43.97496" lon="7.28107">
        <ele>1155</ele>
        <time>2018-07-28T12:46:57.000Z</time>
      </trkpt>
      <trkpt lat="43.97488" lon="7.28108">
        <ele>1155</ele>
        <time>2018-07-28T12:47:03.000Z</time>
      </trkpt>
      <trkpt lat="43.97486" lon="7.28109">
        <ele>1155</ele>
        <time>2018-07-28T12:47:04.000Z</time>
      </trkpt>
      <trkpt lat="43.97477" lon="7.28113">
        <ele>1156</ele>
        <time>2018-07-28T12:47:11.000Z</time>
      </trkpt>
      <trkpt lat="43.97474" lon="7.28115">
        <ele>1156</ele>
        <time>2018-07-28T12:47:13.000Z</time>
      </trkpt>
      <trkpt lat="43.97467" lon="7.28127">
        <ele>1156</ele>
        <time>2018-07-28T12:47:19.000Z</time>
      </trkpt>
      <trkpt lat="43.9746" lon="7.28135">
        <ele>1156</ele>
        <time>2018-07-28T12:47:24.000Z</time>
      </trkpt>
      <trkpt lat="43.97454" lon="7.28141">
        <ele>1156</ele>
        <time>2018-07-28T12:47:28.000Z</time>
      </trkpt>
      <trkpt lat="43.9745" lon="7.28145">
        <ele>1157</ele>
        <time>2018-07-28T12:47:31.000Z</time>
      </trkpt>
      <trkpt lat="43.97444" lon="7.28151">
        <ele>1157</ele>
        <time>2018-07-28T12:47:35.000Z</time>
      </trkpt>
      <trkpt lat="43.97434" lon="7.28163">
        <ele>1159</ele>
        <time>2018-07-28T12:47:42.000Z</time>
      </trkpt>
      <trkpt lat="43.97433" lon="7.28165">
        <ele>1159</ele>
        <time>2018-07-28T12:47:43.000Z</time>
      </trkpt>
      <trkpt lat="43.97426" lon="7.28177">
        <ele>1155</ele>
        <time>2018-07-28T12:47:49.000Z</time>
      </trkpt>
      <trkpt lat="43.97425" lon="7.28179">
        <ele>1155</ele>
        <time>2018-07-28T12:47:50.000Z</time>
      </trkpt>
      <trkpt lat="43.97419" lon="7.28186">
        <ele>1154</ele>
        <time>2018-07-28T12:47:55.000Z</time>
      </trkpt>
      <trkpt lat="43.97418" lon="7.28188">
        <ele>1154</ele>
        <time>2018-07-28T12:47:56.000Z</time>
      </trkpt>
      <trkpt lat="43.97413" lon="7.28197">
        <ele>1161</ele>
        <time>2018-07-28T12:48:02.000Z</time>
      </trkpt>
      <trkpt lat="43.97408" lon="7.28201">
        <ele>1161</ele>
        <time>2018-07-28T12:48:07.000Z</time>
      </trkpt>
      <trkpt lat="43.97403" lon="7.2821">
        <ele>1160</ele>
        <time>2018-07-28T12:48:14.000Z</time>
      </trkpt>
      <trkpt lat="43.97397" lon="7.28227">
        <ele>1159</ele>
        <time>2018-07-28T12:48:22.000Z</time>
      </trkpt>
      <trkpt lat="43.97397" lon="7.28229">
        <ele>1159</ele>
        <time>2018-07-28T12:48:23.000Z</time>
      </trkpt>
      <trkpt lat="43.97389" lon="7.28245">
        <ele>1158</ele>
        <time>2018-07-28T12:48:29.000Z</time>
      </trkpt>
      <trkpt lat="43.97384" lon="7.28249">
        <ele>1159</ele>
        <time>2018-07-28T12:48:31.000Z</time>
      </trkpt>
      <trkpt lat="43.97377" lon="7.28252">
        <ele>1150</ele>
        <time>2018-07-28T12:48:35.000Z</time>
      </trkpt>
      <trkpt lat="43.9737" lon="7.28252">
        <ele>1151</ele>
        <time>2018-07-28T12:48:38.000Z</time>
      </trkpt>
      <trkpt lat="43.97364" lon="7.28249">
        <ele>1159</ele>
        <time>2018-07-28T12:48:41.000Z</time>
      </trkpt>
      <trkpt lat="43.97359" lon="7.28245">
        <ele>1160</ele>
        <time>2018-07-28T12:48:44.000Z</time>
      </trkpt>
      <trkpt lat="43.97354" lon="7.28239">
        <ele>1160</ele>
        <time>2018-07-28T12:48:48.000Z</time>
      </trkpt>
      <trkpt lat="43.97353" lon="7.28237">
        <ele>1160</ele>
        <time>2018-07-28T12:48:49.000Z</time>
      </trkpt>
      <trkpt lat="43.97348" lon="7.2823">
        <ele>1160</ele>
        <time>2018-07-28T12:48:54.000Z</time>
      </trkpt>
      <trkpt lat="43.97346" lon="7.28225">
        <ele>1161</ele>
        <time>2018-07-28T12:48:57.000Z</time>
      </trkpt>
      <trkpt lat="43.97343" lon="7.2822">
        <ele>1161</ele>
        <time>2018-07-28T12:49:00.000Z</time>
      </trkpt>
      <trkpt lat="43.97337" lon="7.28213">
        <ele>1162</ele>
        <time>2018-07-28T12:49:05.000Z</time>
      </trkpt>
      <trkpt lat="43.97335" lon="7.2821">
        <ele>1162</ele>
        <time>2018-07-28T12:49:07.000Z</time>
      </trkpt>
      <trkpt lat="43.9733" lon="7.282">
        <ele>1167</ele>
        <time>2018-07-28T12:49:13.000Z</time>
      </trkpt>
      <trkpt lat="43.97327" lon="7.28197">
        <ele>1167</ele>
        <time>2018-07-28T12:49:15.000Z</time>
      </trkpt>
      <trkpt lat="43.97321" lon="7.28189">
        <ele>1168</ele>
        <time>2018-07-28T12:49:20.000Z</time>
      </trkpt>
      <trkpt lat="43.97319" lon="7.28188">
        <ele>1168</ele>
        <time>2018-07-28T12:49:21.000Z</time>
      </trkpt>
      <trkpt lat="43.97305" lon="7.28178">
        <ele>1168</ele>
        <time>2018-07-28T12:49:29.000Z</time>
      </trkpt>
      <trkpt lat="43.97291" lon="7.28164">
        <ele>1170</ele>
        <time>2018-07-28T12:49:38.000Z</time>
      </trkpt>
      <trkpt lat="43.97289" lon="7.28163">
        <ele>1170</ele>
        <time>2018-07-28T12:49:39.000Z</time>
      </trkpt>
      <trkpt lat="43.9728" lon="7.2816">
        <ele>1170</ele>
        <time>2018-07-28T12:49:44.000Z</time>
      </trkpt>
      <trkpt lat="43.9727" lon="7.28155">
        <ele>1170</ele>
        <time>2018-07-28T12:49:49.000Z</time>
      </trkpt>
      <trkpt lat="43.97269" lon="7.28152">
        <ele>1170</ele>
        <time>2018-07-28T12:49:50.000Z</time>
      </trkpt>
      <trkpt lat="43.97269" lon="7.28139">
        <ele>1169</ele>
        <time>2018-07-28T12:49:55.000Z</time>
      </trkpt>
      <trkpt lat="43.97271" lon="7.28134">
        <ele>1169</ele>
        <time>2018-07-28T12:49:57.000Z</time>
      </trkpt>
      <trkpt lat="43.97277" lon="7.28126">
        <ele>1168</ele>
        <time>2018-07-28T12:50:01.000Z</time>
      </trkpt>
      <trkpt lat="43.97288" lon="7.28121">
        <ele>1168</ele>
        <time>2018-07-28T12:50:06.000Z</time>
      </trkpt>
      <trkpt lat="43.97297" lon="7.28119">
        <ele>1169</ele>
        <time>2018-07-28T12:50:10.000Z</time>
      </trkpt>
      <trkpt lat="43.97304" lon="7.2812">
        <ele>1169</ele>
        <time>2018-07-28T12:50:13.000Z</time>
      </trkpt>
      <trkpt lat="43.97321" lon="7.28117">
        <ele>1170</ele>
        <time>2018-07-28T12:50:19.000Z</time>
      </trkpt>
      <trkpt lat="43.97325" lon="7.28115">
        <ele>1170</ele>
        <time>2018-07-28T12:50:21.000Z</time>
      </trkpt>
      <trkpt lat="43.97331" lon="7.28111">
        <ele>1170</ele>
        <time>2018-07-28T12:50:24.000Z</time>
      </trkpt>
      <trkpt lat="43.97337" lon="7.28103">
        <ele>1171</ele>
        <time>2018-07-28T12:50:28.000Z</time>
      </trkpt>
      <trkpt lat="43.9734" lon="7.28098">
        <ele>1171</ele>
        <time>2018-07-28T12:50:30.000Z</time>
      </trkpt>
      <trkpt lat="43.9735" lon="7.28091">
        <ele>1171</ele>
        <time>2018-07-28T12:50:34.000Z</time>
      </trkpt>
      <trkpt lat="43.97352" lon="7.28089">
        <ele>1171</ele>
        <time>2018-07-28T12:50:35.000Z</time>
      </trkpt>
      <trkpt lat="43.97359" lon="7.28086">
        <ele>1171</ele>
        <time>2018-07-28T12:50:39.000Z</time>
      </trkpt>
      <trkpt lat="43.97361" lon="7.28085">
        <ele>1171</ele>
        <time>2018-07-28T12:50:40.000Z</time>
      </trkpt>
      <trkpt lat="43.97371" lon="7.28076">
        <ele>1172</ele>
        <time>2018-07-28T12:50:46.000Z</time>
      </trkpt>
      <trkpt lat="43.97383" lon="7.28068">
        <ele>1172</ele>
        <time>2018-07-28T12:50:52.000Z</time>
      </trkpt>
      <trkpt lat="43.97392" lon="7.28062">
        <ele>1172</ele>
        <time>2018-07-28T12:50:58.000Z</time>
      </trkpt>
      <trkpt lat="43.97386" lon="7.28064">
        <ele>1172</ele>
        <time>2018-07-28T12:51:02.000Z</time>
      </trkpt>
      <trkpt lat="43.97382" lon="7.28068">
        <ele>1172</ele>
        <time>2018-07-28T12:51:05.000Z</time>
      </trkpt>
      <trkpt lat="43.97377" lon="7.28071">
        <ele>1172</ele>
        <time>2018-07-28T12:51:08.000Z</time>
      </trkpt>
      <trkpt lat="43.9737" lon="7.28072">
        <ele>1172</ele>
        <time>2018-07-28T12:51:14.000Z</time>
      </trkpt>
      <trkpt lat="43.9737" lon="7.28072">
        <ele>1172</ele>
        <time>2018-07-28T12:51:24.000Z</time>
      </trkpt>
      <trkpt lat="43.9737" lon="7.2807">
        <ele>1172</ele>
        <time>2018-07-28T12:51:45.000Z</time>
      </trkpt>
      <trkpt lat="43.97369" lon="7.28072">
        <ele>1172</ele>
        <time>2018-07-28T12:52:10.000Z</time>
      </trkpt>
      <trkpt lat="43.97369" lon="7.28073">
        <ele>1172</ele>
        <time>2018-07-28T12:52:15.000Z</time>
      </trkpt>
      <trkpt lat="43.97372" lon="7.28078">
        <ele>1172</ele>
        <time>2018-07-28T12:52:20.000Z</time>
      </trkpt>
      <trkpt lat="43.97368" lon="7.28083">
        <ele>1172</ele>
        <time>2018-07-28T12:52:23.000Z</time>
      </trkpt>
      <trkpt lat="43.97365" lon="7.28086">
        <ele>1170</ele>
        <time>2018-07-28T12:52:25.000Z</time>
      </trkpt>
      <trkpt lat="43.97363" lon="7.28086">
        <ele>1170</ele>
        <time>2018-07-28T12:52:26.000Z</time>
      </trkpt>
      <trkpt lat="43.97359" lon="7.28088">
        <ele>1171</ele>
        <time>2018-07-28T12:52:29.000Z</time>
      </trkpt>
      <trkpt lat="43.97348" lon="7.28096">
        <ele>1171</ele>
        <time>2018-07-28T12:52:35.000Z</time>
      </trkpt>
      <trkpt lat="43.97336" lon="7.2811">
        <ele>1171</ele>
        <time>2018-07-28T12:52:42.000Z</time>
      </trkpt>
      <trkpt lat="43.97325" lon="7.28117">
        <ele>1170</ele>
        <time>2018-07-28T12:52:47.000Z</time>
      </trkpt>
      <trkpt lat="43.97314" lon="7.28123">
        <ele>1169</ele>
        <time>2018-07-28T12:52:50.000Z</time>
      </trkpt>
      <trkpt lat="43.9731" lon="7.28123">
        <ele>1169</ele>
        <time>2018-07-28T12:52:51.000Z</time>
      </trkpt>
      <trkpt lat="43.97306" lon="7.28123">
        <ele>1169</ele>
        <time>2018-07-28T12:52:52.000Z</time>
      </trkpt>
      <trkpt lat="43.97285" lon="7.28125">
        <ele>1169</ele>
        <time>2018-07-28T12:52:57.000Z</time>
      </trkpt>
      <trkpt lat="43.9727" lon="7.2814">
        <ele>1169</ele>
        <time>2018-07-28T12:53:01.000Z</time>
      </trkpt>
      <trkpt lat="43.9727" lon="7.2816">
        <ele>1170</ele>
        <time>2018-07-28T12:53:05.000Z</time>
      </trkpt>
      <trkpt lat="43.97279" lon="7.28164">
        <ele>1170</ele>
        <time>2018-07-28T12:53:07.000Z</time>
      </trkpt>
      <trkpt lat="43.97285" lon="7.28166">
        <ele>1170</ele>
        <time>2018-07-28T12:53:08.000Z</time>
      </trkpt>
      <trkpt lat="43.9729" lon="7.28169">
        <ele>1169</ele>
        <time>2018-07-28T12:53:09.000Z</time>
      </trkpt>
      <trkpt lat="43.97303" lon="7.28182">
        <ele>1168</ele>
        <time>2018-07-28T12:53:12.000Z</time>
      </trkpt>
      <trkpt lat="43.97314" lon="7.28191">
        <ele>1168</ele>
        <time>2018-07-28T12:53:14.000Z</time>
      </trkpt>
      <trkpt lat="43.97326" lon="7.28202">
        <ele>1167</ele>
        <time>2018-07-28T12:53:16.000Z</time>
      </trkpt>
      <trkpt lat="43.97331" lon="7.2821">
        <ele>1166</ele>
        <time>2018-07-28T12:53:17.000Z</time>
      </trkpt>
      <trkpt lat="43.97336" lon="7.28218">
        <ele>1161</ele>
        <time>2018-07-28T12:53:18.000Z</time>
      </trkpt>
      <trkpt lat="43.97347" lon="7.28234">
        <ele>1160</ele>
        <time>2018-07-28T12:53:20.000Z</time>
      </trkpt>
      <trkpt lat="43.97354" lon="7.28249">
        <ele>1159</ele>
        <time>2018-07-28T12:53:22.000Z</time>
      </trkpt>
      <trkpt lat="43.97358" lon="7.28254">
        <ele>1151</ele>
        <time>2018-07-28T12:53:23.000Z</time>
      </trkpt>
      <trkpt lat="43.9737" lon="7.2826">
        <ele>1150</ele>
        <time>2018-07-28T12:53:25.000Z</time>
      </trkpt>
      <trkpt lat="43.97377" lon="7.28259">
        <ele>1150</ele>
        <time>2018-07-28T12:53:26.000Z</time>
      </trkpt>
      <trkpt lat="43.97387" lon="7.28253">
        <ele>1150</ele>
        <time>2018-07-28T12:53:28.000Z</time>
      </trkpt>
      <trkpt lat="43.97391" lon="7.28248">
        <ele>1158</ele>
        <time>2018-07-28T12:53:29.000Z</time>
      </trkpt>
      <trkpt lat="43.97396" lon="7.28232">
        <ele>1159</ele>
        <time>2018-07-28T12:53:31.000Z</time>
      </trkpt>
      <trkpt lat="43.97398" lon="7.28224">
        <ele>1159</ele>
        <time>2018-07-28T12:53:32.000Z</time>
      </trkpt>
      <trkpt lat="43.974" lon="7.28216">
        <ele>1160</ele>
        <time>2018-07-28T12:53:33.000Z</time>
      </trkpt>
      <trkpt lat="43.97403" lon="7.28207">
        <ele>1160</ele>
        <time>2018-07-28T12:53:34.000Z</time>
      </trkpt>
      <trkpt lat="43.97412" lon="7.28194">
        <ele>1161</ele>
        <time>2018-07-28T12:53:36.000Z</time>
      </trkpt>
      <trkpt lat="43.97421" lon="7.2818">
        <ele>1156</ele>
        <time>2018-07-28T12:53:38.000Z</time>
      </trkpt>
      <trkpt lat="43.9743" lon="7.28165">
        <ele>1159</ele>
        <time>2018-07-28T12:53:40.000Z</time>
      </trkpt>
      <trkpt lat="43.97434" lon="7.28157">
        <ele>1159</ele>
        <time>2018-07-28T12:53:41.000Z</time>
      </trkpt>
      <trkpt lat="43.97441" lon="7.28152">
        <ele>1158</ele>
        <time>2018-07-28T12:53:42.000Z</time>
      </trkpt>
      <trkpt lat="43.97447" lon="7.28147">
        <ele>1157</ele>
        <time>2018-07-28T12:53:43.000Z</time>
      </trkpt>
      <trkpt lat="43.97454" lon="7.28141">
        <ele>1156</ele>
        <time>2018-07-28T12:53:44.000Z</time>
      </trkpt>
      <trkpt lat="43.97459" lon="7.28136">
        <ele>1156</ele>
        <time>2018-07-28T12:53:45.000Z</time>
      </trkpt>
      <trkpt lat="43.97462" lon="7.28129">
        <ele>1156</ele>
        <time>2018-07-28T12:53:46.000Z</time>
      </trkpt>
      <trkpt lat="43.97465" lon="7.28124">
        <ele>1156</ele>
        <time>2018-07-28T12:53:47.000Z</time>
      </trkpt>
      <trkpt lat="43.9747" lon="7.28119">
        <ele>1156</ele>
        <time>2018-07-28T12:53:48.000Z</time>
      </trkpt>
      <trkpt lat="43.97484" lon="7.28115">
        <ele>1155</ele>
        <time>2018-07-28T12:53:51.000Z</time>
      </trkpt>
      <trkpt lat="43.97501" lon="7.28112">
        <ele>1147</ele>
        <time>2018-07-28T12:53:54.000Z</time>
      </trkpt>
      <trkpt lat="43.97512" lon="7.2811">
        <ele>1146</ele>
        <time>2018-07-28T12:53:56.000Z</time>
      </trkpt>
      <trkpt lat="43.97525" lon="7.28109">
        <ele>1146</ele>
        <time>2018-07-28T12:53:58.000Z</time>
      </trkpt>
      <trkpt lat="43.97537" lon="7.28105">
        <ele>1145</ele>
        <time>2018-07-28T12:54:00.000Z</time>
      </trkpt>
      <trkpt lat="43.97543" lon="7.28103">
        <ele>1145</ele>
        <time>2018-07-28T12:54:01.000Z</time>
      </trkpt>
      <trkpt lat="43.9755" lon="7.28104">
        <ele>1145</ele>
        <time>2018-07-28T12:54:02.000Z</time>
      </trkpt>
      <trkpt lat="43.97556" lon="7.28106">
        <ele>1145</ele>
        <time>2018-07-28T12:54:03.000Z</time>
      </trkpt>
      <trkpt lat="43.97562" lon="7.28108">
        <ele>1145</ele>
        <time>2018-07-28T12:54:04.000Z</time>
      </trkpt>
      <trkpt lat="43.97574" lon="7.28114">
        <ele>1144</ele>
        <time>2018-07-28T12:54:06.000Z</time>
      </trkpt>
      <trkpt lat="43.97585" lon="7.28118">
        <ele>1140</ele>
        <time>2018-07-28T12:54:08.000Z</time>
      </trkpt>
      <trkpt lat="43.9759" lon="7.2812">
        <ele>1139</ele>
        <time>2018-07-28T12:54:09.000Z</time>
      </trkpt>
      <trkpt lat="43.97601" lon="7.28121">
        <ele>1139</ele>
        <time>2018-07-28T12:54:11.000Z</time>
      </trkpt>
      <trkpt lat="43.97607" lon="7.28122">
        <ele>1138</ele>
        <time>2018-07-28T12:54:12.000Z</time>
      </trkpt>
      <trkpt lat="43.97612" lon="7.28125">
        <ele>1138</ele>
        <time>2018-07-28T12:54:13.000Z</time>
      </trkpt>
      <trkpt lat="43.97619" lon="7.28128">
        <ele>1137</ele>
        <time>2018-07-28T12:54:14.000Z</time>
      </trkpt>
      <trkpt lat="43.97627" lon="7.28133">
        <ele>1136</ele>
        <time>2018-07-28T12:54:16.000Z</time>
      </trkpt>
      <trkpt lat="43.9763" lon="7.28134">
        <ele>1136</ele>
        <time>2018-07-28T12:54:17.000Z</time>
      </trkpt>
      <trkpt lat="43.97638" lon="7.28136">
        <ele>1135</ele>
        <time>2018-07-28T12:54:19.000Z</time>
      </trkpt>
      <trkpt lat="43.9765" lon="7.2814">
        <ele>1134</ele>
        <time>2018-07-28T12:54:22.000Z</time>
      </trkpt>
      <trkpt lat="43.97653" lon="7.28141">
        <ele>1133</ele>
        <time>2018-07-28T12:54:23.000Z</time>
      </trkpt>
      <trkpt lat="43.97658" lon="7.28144">
        <ele>1132</ele>
        <time>2018-07-28T12:54:24.000Z</time>
      </trkpt>
      <trkpt lat="43.97668" lon="7.28155">
        <ele>1126</ele>
        <time>2018-07-28T12:54:27.000Z</time>
      </trkpt>
      <trkpt lat="43.97671" lon="7.28159">
        <ele>1125</ele>
        <time>2018-07-28T12:54:28.000Z</time>
      </trkpt>
      <trkpt lat="43.97678" lon="7.28167">
        <ele>1118</ele>
        <time>2018-07-28T12:54:30.000Z</time>
      </trkpt>
      <trkpt lat="43.9769" lon="7.28189">
        <ele>1114</ele>
        <time>2018-07-28T12:54:34.000Z</time>
      </trkpt>
      <trkpt lat="43.97692" lon="7.28194">
        <ele>1114</ele>
        <time>2018-07-28T12:54:35.000Z</time>
      </trkpt>
      <trkpt lat="43.977" lon="7.28205">
        <ele>1112</ele>
        <time>2018-07-28T12:54:37.000Z</time>
      </trkpt>
      <trkpt lat="43.97709" lon="7.28208">
        <ele>1112</ele>
        <time>2018-07-28T12:54:39.000Z</time>
      </trkpt>
      <trkpt lat="43.9772" lon="7.2821">
        <ele>1112</ele>
        <time>2018-07-28T12:54:41.000Z</time>
      </trkpt>
      <trkpt lat="43.97731" lon="7.28208">
        <ele>1112</ele>
        <time>2018-07-28T12:54:43.000Z</time>
      </trkpt>
      <trkpt lat="43.97742" lon="7.28197">
        <ele>1114</ele>
        <time>2018-07-28T12:54:46.000Z</time>
      </trkpt>
      <trkpt lat="43.97744" lon="7.28193">
        <ele>1115</ele>
        <time>2018-07-28T12:54:47.000Z</time>
      </trkpt>
      <trkpt lat="43.97749" lon="7.28185">
        <ele>1117</ele>
        <time>2018-07-28T12:54:49.000Z</time>
      </trkpt>
      <trkpt lat="43.9775" lon="7.28168">
        <ele>1122</ele>
        <time>2018-07-28T12:54:52.000Z</time>
      </trkpt>
      <trkpt lat="43.97749" lon="7.2815">
        <ele>1128</ele>
        <time>2018-07-28T12:54:55.000Z</time>
      </trkpt>
      <trkpt lat="43.97752" lon="7.28146">
        <ele>1121</ele>
        <time>2018-07-28T12:54:56.000Z</time>
      </trkpt>
      <trkpt lat="43.97758" lon="7.28143">
        <ele>1121</ele>
        <time>2018-07-28T12:54:58.000Z</time>
      </trkpt>
      <trkpt lat="43.97759" lon="7.28142">
        <ele>1121</ele>
        <time>2018-07-28T12:54:59.000Z</time>
      </trkpt>
      <trkpt lat="43.97759" lon="7.28142">
        <ele>1121</ele>
        <time>2018-07-28T12:55:02.000Z</time>
      </trkpt>
      <trkpt lat="43.97759" lon="7.28142">
        <ele>1121</ele>
        <time>2018-07-28T12:55:03.000Z</time>
      </trkpt>
      <trkpt lat="43.97764" lon="7.28144">
        <ele>1120</ele>
        <time>2018-07-28T12:55:10.000Z</time>
      </trkpt>
      <trkpt lat="43.97775" lon="7.28143">
        <ele>1119</ele>
        <time>2018-07-28T12:55:13.000Z</time>
      </trkpt>
      <trkpt lat="43.97781" lon="7.28143">
        <ele>1118</ele>
        <time>2018-07-28T12:55:15.000Z</time>
      </trkpt>
      <trkpt lat="43.97785" lon="7.28142">
        <ele>1118</ele>
        <time>2018-07-28T12:55:17.000Z</time>
      </trkpt>
      <trkpt lat="43.97788" lon="7.28137">
        <ele>1118</ele>
        <time>2018-07-28T12:55:18.000Z</time>
      </trkpt>
      <trkpt lat="43.97794" lon="7.28129">
        <ele>1117</ele>
        <time>2018-07-28T12:55:20.000Z</time>
      </trkpt>
      <trkpt lat="43.97801" lon="7.28121">
        <ele>1117</ele>
        <time>2018-07-28T12:55:22.000Z</time>
      </trkpt>
      <trkpt lat="43.97804" lon="7.28115">
        <ele>1117</ele>
        <time>2018-07-28T12:55:23.000Z</time>
      </trkpt>
      <trkpt lat="43.97814" lon="7.28106">
        <ele>1116</ele>
        <time>2018-07-28T12:55:25.000Z</time>
      </trkpt>
      <trkpt lat="43.97817" lon="7.28101">
        <ele>1116</ele>
        <time>2018-07-28T12:55:26.000Z</time>
      </trkpt>
      <trkpt lat="43.97823" lon="7.2809">
        <ele>1115</ele>
        <time>2018-07-28T12:55:28.000Z</time>
      </trkpt>
      <trkpt lat="43.97826" lon="7.28084">
        <ele>1114</ele>
        <time>2018-07-28T12:55:29.000Z</time>
      </trkpt>
      <trkpt lat="43.97828" lon="7.28076">
        <ele>1118</ele>
        <time>2018-07-28T12:55:30.000Z</time>
      </trkpt>
      <trkpt lat="43.97834" lon="7.28059">
        <ele>1109</ele>
        <time>2018-07-28T12:55:33.000Z</time>
      </trkpt>
      <trkpt lat="43.97835" lon="7.2805">
        <ele>1109</ele>
        <time>2018-07-28T12:55:35.000Z</time>
      </trkpt>
      <trkpt lat="43.97835" lon="7.28041">
        <ele>1109</ele>
        <time>2018-07-28T12:55:37.000Z</time>
      </trkpt>
      <trkpt lat="43.97836" lon="7.28037">
        <ele>1110</ele>
        <time>2018-07-28T12:55:38.000Z</time>
      </trkpt>
      <trkpt lat="43.97841" lon="7.28023">
        <ele>1112</ele>
        <time>2018-07-28T12:55:42.000Z</time>
      </trkpt>
      <trkpt lat="43.9785" lon="7.28016">
        <ele>1112</ele>
        <time>2018-07-28T12:55:46.000Z</time>
      </trkpt>
      <trkpt lat="43.97853" lon="7.28006">
        <ele>1112</ele>
        <time>2018-07-28T12:55:49.000Z</time>
      </trkpt>
      <trkpt lat="43.97853" lon="7.28005">
        <ele>1112</ele>
        <time>2018-07-28T12:55:50.000Z</time>
      </trkpt>
      <trkpt lat="43.97854" lon="7.27996">
        <ele>1119</ele>
        <time>2018-07-28T12:55:54.000Z</time>
      </trkpt>
      <trkpt lat="43.97853" lon="7.27993">
        <ele>1119</ele>
        <time>2018-07-28T12:56:01.000Z</time>
      </trkpt>
      <trkpt lat="43.97854" lon="7.27993">
        <ele>1119</ele>
        <time>2018-07-28T12:56:05.000Z</time>
      </trkpt>
      <trkpt lat="43.97853" lon="7.27995">
        <ele>1119</ele>
        <time>2018-07-28T12:56:08.000Z</time>
      </trkpt>
      <trkpt lat="43.97852" lon="7.28005">
        <ele>1113</ele>
        <time>2018-07-28T12:56:13.000Z</time>
      </trkpt>
      <trkpt lat="43.97847" lon="7.28014">
        <ele>1113</ele>
        <time>2018-07-28T12:56:18.000Z</time>
      </trkpt>
      <trkpt lat="43.97842" lon="7.28023">
        <ele>1112</ele>
        <time>2018-07-28T12:56:23.000Z</time>
      </trkpt>
      <trkpt lat="43.9784" lon="7.28031">
        <ele>1110</ele>
        <time>2018-07-28T12:56:27.000Z</time>
      </trkpt>
      <trkpt lat="43.9784" lon="7.28033">
        <ele>1110</ele>
        <time>2018-07-28T12:56:28.000Z</time>
      </trkpt>
      <trkpt lat="43.97836" lon="7.28046">
        <ele>1109</ele>
        <time>2018-07-28T12:56:35.000Z</time>
      </trkpt>
      <trkpt lat="43.97833" lon="7.28051">
        <ele>1125</ele>
        <time>2018-07-28T12:56:42.000Z</time>
      </trkpt>
      <trkpt lat="43.97836" lon="7.28052">
        <ele>1109</ele>
        <time>2018-07-28T12:56:59.000Z</time>
      </trkpt>
      <trkpt lat="43.97839" lon="7.28054">
        <ele>1108</ele>
        <time>2018-07-28T12:57:22.000Z</time>
      </trkpt>
      <trkpt lat="43.97841" lon="7.28056">
        <ele>1108</ele>
        <time>2018-07-28T12:57:44.000Z</time>
      </trkpt>
      <trkpt lat="43.97843" lon="7.28057">
        <ele>1108</ele>
        <time>2018-07-28T12:57:59.000Z</time>
      </trkpt>
      <trkpt lat="43.97843" lon="7.28058">
        <ele>1108</ele>
        <time>2018-07-28T12:58:17.000Z</time>
      </trkpt>
      <trkpt lat="43.97843" lon="7.28057">
        <ele>1108</ele>
        <time>2018-07-28T12:58:25.000Z</time>
      </trkpt>
      <trkpt lat="43.97844" lon="7.28058">
        <ele>1108</ele>
        <time>2018-07-28T12:58:40.000Z</time>
      </trkpt>
      <trkpt lat="43.97845" lon="7.28059">
        <ele>1108</ele>
        <time>2018-07-28T12:58:56.000Z</time>
      </trkpt>
      <trkpt lat="43.97845" lon="7.28059">
        <ele>1108</ele>
        <time>2018-07-28T12:59:11.000Z</time>
      </trkpt>
      <trkpt lat="43.97844" lon="7.28059">
        <ele>1108</ele>
        <time>2018-07-28T12:59:17.000Z</time>
      </trkpt>
      <trkpt lat="43.97845" lon="7.28057">
        <ele>1108</ele>
        <time>2018-07-28T12:59:19.000Z</time>
      </trkpt>
      <trkpt lat="43.97847" lon="7.28054">
        <ele>1108</ele>
        <time>2018-07-28T12:59:21.000Z</time>
      </trkpt>
      <trkpt lat="43.97848" lon="7.28047">
        <ele>1108</ele>
        <time>2018-07-28T12:59:24.000Z</time>
      </trkpt>
      <trkpt lat="43.97855" lon="7.28032">
        <ele>1108</ele>
        <time>2018-07-28T12:59:28.000Z</time>
      </trkpt>
      <trkpt lat="43.97861" lon="7.28018">
        <ele>1108</ele>
        <time>2018-07-28T12:59:32.000Z</time>
      </trkpt>
      <trkpt lat="43.97862" lon="7.27999">
        <ele>1117</ele>
        <time>2018-07-28T12:59:37.000Z</time>
      </trkpt>
      <trkpt lat="43.97863" lon="7.27975">
        <ele>1118</ele>
        <time>2018-07-28T12:59:42.000Z</time>
      </trkpt>
      <trkpt lat="43.97869" lon="7.27956">
        <ele>1119</ele>
        <time>2018-07-28T12:59:46.000Z</time>
      </trkpt>
      <trkpt lat="43.9788" lon="7.27937">
        <ele>1119</ele>
        <time>2018-07-28T12:59:51.000Z</time>
      </trkpt>
      <trkpt lat="43.97889" lon="7.27924">
        <ele>1117</ele>
        <time>2018-07-28T12:59:55.000Z</time>
      </trkpt>
      <trkpt lat="43.979" lon="7.27916">
        <ele>1128</ele>
        <time>2018-07-28T12:59:59.000Z</time>
      </trkpt>
      <trkpt lat="43.979" lon="7.27915">
        <ele>1127</ele>
        <time>2018-07-28T13:00:00.000Z</time>
      </trkpt>
      <trkpt lat="43.97902" lon="7.27914">
        <ele>1126</ele>
        <time>2018-07-28T13:00:01.000Z</time>
      </trkpt>
      <trkpt lat="43.97904" lon="7.27912">
        <ele>1125</ele>
        <time>2018-07-28T13:00:02.000Z</time>
      </trkpt>
      <trkpt lat="43.97918" lon="7.27912">
        <ele>1114</ele>
        <time>2018-07-28T13:00:06.000Z</time>
      </trkpt>
      <trkpt lat="43.97934" lon="7.27912">
        <ele>1118</ele>
        <time>2018-07-28T13:00:11.000Z</time>
      </trkpt>
      <trkpt lat="43.97952" lon="7.27908">
        <ele>1119</ele>
        <time>2018-07-28T13:00:16.000Z</time>
      </trkpt>
      <trkpt lat="43.97972" lon="7.27902">
        <ele>1117</ele>
        <time>2018-07-28T13:00:21.000Z</time>
      </trkpt>
      <trkpt lat="43.97989" lon="7.27899">
        <ele>1114</ele>
        <time>2018-07-28T13:00:26.000Z</time>
      </trkpt>
      <trkpt lat="43.97992" lon="7.27899">
        <ele>1114</ele>
        <time>2018-07-28T13:00:27.000Z</time>
      </trkpt>
      <trkpt lat="43.98002" lon="7.27893">
        <ele>1111</ele>
        <time>2018-07-28T13:00:30.000Z</time>
      </trkpt>
      <trkpt lat="43.98016" lon="7.27884">
        <ele>1114</ele>
        <time>2018-07-28T13:00:35.000Z</time>
      </trkpt>
      <trkpt lat="43.9803" lon="7.27885">
        <ele>1113</ele>
        <time>2018-07-28T13:00:39.000Z</time>
      </trkpt>
      <trkpt lat="43.98033" lon="7.27885">
        <ele>1113</ele>
        <time>2018-07-28T13:00:40.000Z</time>
      </trkpt>
      <trkpt lat="43.98047" lon="7.27883">
        <ele>1113</ele>
        <time>2018-07-28T13:00:45.000Z</time>
      </trkpt>
      <trkpt lat="43.98059" lon="7.27878">
        <ele>1114</ele>
        <time>2018-07-28T13:00:50.000Z</time>
      </trkpt>
      <trkpt lat="43.98067" lon="7.27875">
        <ele>1114</ele>
        <time>2018-07-28T13:00:53.000Z</time>
      </trkpt>
      <trkpt lat="43.98069" lon="7.27877">
        <ele>1113</ele>
        <time>2018-07-28T13:00:54.000Z</time>
      </trkpt>
      <trkpt lat="43.98085" lon="7.27888">
        <ele>1105</ele>
        <time>2018-07-28T13:01:00.000Z</time>
      </trkpt>
      <trkpt lat="43.98096" lon="7.27885">
        <ele>1106</ele>
        <time>2018-07-28T13:01:04.000Z</time>
      </trkpt>
      <trkpt lat="43.98099" lon="7.27882">
        <ele>1107</ele>
        <time>2018-07-28T13:01:05.000Z</time>
      </trkpt>
      <trkpt lat="43.98121" lon="7.27872">
        <ele>1108</ele>
        <time>2018-07-28T13:01:12.000Z</time>
      </trkpt>
      <trkpt lat="43.98134" lon="7.2786">
        <ele>1108</ele>
        <time>2018-07-28T13:01:18.000Z</time>
      </trkpt>
      <trkpt lat="43.98138" lon="7.27853">
        <ele>1109</ele>
        <time>2018-07-28T13:01:21.000Z</time>
      </trkpt>
      <trkpt lat="43.98139" lon="7.27848">
        <ele>1110</ele>
        <time>2018-07-28T13:01:23.000Z</time>
      </trkpt>
      <trkpt lat="43.9814" lon="7.27845">
        <ele>1110</ele>
        <time>2018-07-28T13:01:24.000Z</time>
      </trkpt>
      <trkpt lat="43.98142" lon="7.27843">
        <ele>1110</ele>
        <time>2018-07-28T13:01:25.000Z</time>
      </trkpt>
      <trkpt lat="43.98143" lon="7.27842">
        <ele>1110</ele>
        <time>2018-07-28T13:01:26.000Z</time>
      </trkpt>
      <trkpt lat="43.98148" lon="7.2784">
        <ele>1110</ele>
        <time>2018-07-28T13:01:28.000Z</time>
      </trkpt>
      <trkpt lat="43.98156" lon="7.27836">
        <ele>1111</ele>
        <time>2018-07-28T13:01:31.000Z</time>
      </trkpt>
      <trkpt lat="43.98167" lon="7.27838">
        <ele>1109</ele>
        <time>2018-07-28T13:01:35.000Z</time>
      </trkpt>
      <trkpt lat="43.98176" lon="7.27843">
        <ele>1105</ele>
        <time>2018-07-28T13:01:39.000Z</time>
      </trkpt>
      <trkpt lat="43.98181" lon="7.2784">
        <ele>1104</ele>
        <time>2018-07-28T13:01:41.000Z</time>
      </trkpt>
      <trkpt lat="43.9819" lon="7.27833">
        <ele>1115</ele>
        <time>2018-07-28T13:01:45.000Z</time>
      </trkpt>
      <trkpt lat="43.98192" lon="7.27832">
        <ele>1115</ele>
        <time>2018-07-28T13:01:46.000Z</time>
      </trkpt>
      <trkpt lat="43.98207" lon="7.27823">
        <ele>1114</ele>
        <time>2018-07-28T13:01:51.000Z</time>
      </trkpt>
      <trkpt lat="43.98215" lon="7.2781">
        <ele>1115</ele>
        <time>2018-07-28T13:01:55.000Z</time>
      </trkpt>
      <trkpt lat="43.98215" lon="7.27806">
        <ele>1116</ele>
        <time>2018-07-28T13:01:56.000Z</time>
      </trkpt>
      <trkpt lat="43.98212" lon="7.27792">
        <ele>1119</ele>
        <time>2018-07-28T13:01:59.000Z</time>
      </trkpt>
      <trkpt lat="43.98217" lon="7.27782">
        <ele>1120</ele>
        <time>2018-07-28T13:02:02.000Z</time>
      </trkpt>
      <trkpt lat="43.98224" lon="7.27781">
        <ele>1119</ele>
        <time>2018-07-28T13:02:04.000Z</time>
      </trkpt>
      <trkpt lat="43.98228" lon="7.2778">
        <ele>1119</ele>
        <time>2018-07-28T13:02:05.000Z</time>
      </trkpt>
      <trkpt lat="43.98242" lon="7.2778">
        <ele>1119</ele>
        <time>2018-07-28T13:02:09.000Z</time>
      </trkpt>
      <trkpt lat="43.98254" lon="7.27771">
        <ele>1115</ele>
        <time>2018-07-28T13:02:13.000Z</time>
      </trkpt>
      <trkpt lat="43.98265" lon="7.27773">
        <ele>1113</ele>
        <time>2018-07-28T13:02:16.000Z</time>
      </trkpt>
      <trkpt lat="43.98269" lon="7.27775">
        <ele>1112</ele>
        <time>2018-07-28T13:02:17.000Z</time>
      </trkpt>
      <trkpt lat="43.98273" lon="7.27778">
        <ele>1111</ele>
        <time>2018-07-28T13:02:18.000Z</time>
      </trkpt>
      <trkpt lat="43.98286" lon="7.27782">
        <ele>1109</ele>
        <time>2018-07-28T13:02:21.000Z</time>
      </trkpt>
      <trkpt lat="43.9832" lon="7.27784">
        <ele>1109</ele>
        <time>2018-07-28T13:02:29.000Z</time>
      </trkpt>
      <trkpt lat="43.98336" lon="7.27789">
        <ele>1096</ele>
        <time>2018-07-28T13:02:34.000Z</time>
      </trkpt>
      <trkpt lat="43.98348" lon="7.27776">
        <ele>1098</ele>
        <time>2018-07-28T13:02:39.000Z</time>
      </trkpt>
      <trkpt lat="43.98358" lon="7.27752">
        <ele>1101</ele>
        <time>2018-07-28T13:02:44.000Z</time>
      </trkpt>
      <trkpt lat="43.98362" lon="7.27748">
        <ele>1112</ele>
        <time>2018-07-28T13:02:45.000Z</time>
      </trkpt>
      <trkpt lat="43.98369" lon="7.27735">
        <ele>1110</ele>
        <time>2018-07-28T13:02:48.000Z</time>
      </trkpt>
      <trkpt lat="43.98372" lon="7.2773">
        <ele>1110</ele>
        <time>2018-07-28T13:02:49.000Z</time>
      </trkpt>
      <trkpt lat="43.98386" lon="7.27701">
        <ele>1110</ele>
        <time>2018-07-28T13:02:55.000Z</time>
      </trkpt>
      <trkpt lat="43.98398" lon="7.27684">
        <ele>1109</ele>
        <time>2018-07-28T13:02:59.000Z</time>
      </trkpt>
      <trkpt lat="43.98403" lon="7.27676">
        <ele>1109</ele>
        <time>2018-07-28T13:03:01.000Z</time>
      </trkpt>
      <trkpt lat="43.98412" lon="7.27664">
        <ele>1109</ele>
        <time>2018-07-28T13:03:04.000Z</time>
      </trkpt>
      <trkpt lat="43.98421" lon="7.27652">
        <ele>1104</ele>
        <time>2018-07-28T13:03:07.000Z</time>
      </trkpt>
      <trkpt lat="43.98428" lon="7.27643">
        <ele>1103</ele>
        <time>2018-07-28T13:03:09.000Z</time>
      </trkpt>
      <trkpt lat="43.98441" lon="7.27627">
        <ele>1103</ele>
        <time>2018-07-28T13:03:13.000Z</time>
      </trkpt>
      <trkpt lat="43.98451" lon="7.27626">
        <ele>1101</ele>
        <time>2018-07-28T13:03:16.000Z</time>
      </trkpt>
      <trkpt lat="43.98454" lon="7.27627">
        <ele>1100</ele>
        <time>2018-07-28T13:03:17.000Z</time>
      </trkpt>
      <trkpt lat="43.9846" lon="7.27626">
        <ele>1099</ele>
        <time>2018-07-28T13:03:19.000Z</time>
      </trkpt>
      <trkpt lat="43.98462" lon="7.27623">
        <ele>1099</ele>
        <time>2018-07-28T13:03:20.000Z</time>
      </trkpt>
      <trkpt lat="43.98464" lon="7.27616">
        <ele>1099</ele>
        <time>2018-07-28T13:03:22.000Z</time>
      </trkpt>
      <trkpt lat="43.98464" lon="7.27605">
        <ele>1099</ele>
        <time>2018-07-28T13:03:24.000Z</time>
      </trkpt>
      <trkpt lat="43.98464" lon="7.27599">
        <ele>1099</ele>
        <time>2018-07-28T13:03:25.000Z</time>
      </trkpt>
      <trkpt lat="43.98462" lon="7.27573">
        <ele>1104</ele>
        <time>2018-07-28T13:03:29.000Z</time>
      </trkpt>
      <trkpt lat="43.98462" lon="7.2756">
        <ele>1104</ele>
        <time>2018-07-28T13:03:31.000Z</time>
      </trkpt>
      <trkpt lat="43.98463" lon="7.27547">
        <ele>1104</ele>
        <time>2018-07-28T13:03:33.000Z</time>
      </trkpt>
      <trkpt lat="43.98463" lon="7.27534">
        <ele>1104</ele>
        <time>2018-07-28T13:03:35.000Z</time>
      </trkpt>
      <trkpt lat="43.98459" lon="7.27517">
        <ele>1105</ele>
        <time>2018-07-28T13:03:38.000Z</time>
      </trkpt>
      <trkpt lat="43.98455" lon="7.27506">
        <ele>1106</ele>
        <time>2018-07-28T13:03:40.000Z</time>
      </trkpt>
      <trkpt lat="43.98451" lon="7.27494">
        <ele>1106</ele>
        <time>2018-07-28T13:03:42.000Z</time>
      </trkpt>
      <trkpt lat="43.98446" lon="7.27478">
        <ele>1107</ele>
        <time>2018-07-28T13:03:45.000Z</time>
      </trkpt>
      <trkpt lat="43.98445" lon="7.27473">
        <ele>1107</ele>
        <time>2018-07-28T13:03:46.000Z</time>
      </trkpt>
      <trkpt lat="43.98446" lon="7.27467">
        <ele>1106</ele>
        <time>2018-07-28T13:03:47.000Z</time>
      </trkpt>
      <trkpt lat="43.98445" lon="7.27455">
        <ele>1106</ele>
        <time>2018-07-28T13:03:49.000Z</time>
      </trkpt>
      <trkpt lat="43.98444" lon="7.27449">
        <ele>1106</ele>
        <time>2018-07-28T13:03:50.000Z</time>
      </trkpt>
      <trkpt lat="43.98443" lon="7.27433">
        <ele>1106</ele>
        <time>2018-07-28T13:03:53.000Z</time>
      </trkpt>
      <trkpt lat="43.98442" lon="7.27421">
        <ele>1107</ele>
        <time>2018-07-28T13:03:55.000Z</time>
      </trkpt>
      <trkpt lat="43.98443" lon="7.27387">
        <ele>1099</ele>
        <time>2018-07-28T13:04:01.000Z</time>
      </trkpt>
      <trkpt lat="43.98452" lon="7.27351">
        <ele>1095</ele>
        <time>2018-07-28T13:04:08.000Z</time>
      </trkpt>
      <trkpt lat="43.98456" lon="7.2732">
        <ele>1093</ele>
        <time>2018-07-28T13:04:15.000Z</time>
      </trkpt>
      <trkpt lat="43.98455" lon="7.27312">
        <ele>1093</ele>
        <time>2018-07-28T13:04:18.000Z</time>
      </trkpt>
      <trkpt lat="43.98454" lon="7.27312">
        <ele>1093</ele>
        <time>2018-07-28T13:04:19.000Z</time>
      </trkpt>
      <trkpt lat="43.98454" lon="7.27312">
        <ele>1093</ele>
        <time>2018-07-28T13:04:24.000Z</time>
      </trkpt>
      <trkpt lat="43.98454" lon="7.27312">
        <ele>1093</ele>
        <time>2018-07-28T13:04:25.000Z</time>
      </trkpt>
      <trkpt lat="43.98454" lon="7.27309">
        <ele>1093</ele>
        <time>2018-07-28T13:04:30.000Z</time>
      </trkpt>
      <trkpt lat="43.98454" lon="7.27307">
        <ele>1093</ele>
        <time>2018-07-28T13:04:31.000Z</time>
      </trkpt>
      <trkpt lat="43.98454" lon="7.27304">
        <ele>1093</ele>
        <time>2018-07-28T13:04:36.000Z</time>
      </trkpt>
      <trkpt lat="43.98454" lon="7.27304">
        <ele>1093</ele>
        <time>2018-07-28T13:04:43.000Z</time>
      </trkpt>
      <trkpt lat="43.9845" lon="7.27317">
        <ele>1093</ele>
        <time>2018-07-28T13:04:49.000Z</time>
      </trkpt>
      <trkpt lat="43.98447" lon="7.27329">
        <ele>1094</ele>
        <time>2018-07-28T13:04:53.000Z</time>
      </trkpt>
      <trkpt lat="43.98446" lon="7.27332">
        <ele>1094</ele>
        <time>2018-07-28T13:04:55.000Z</time>
      </trkpt>
      <trkpt lat="43.98445" lon="7.27335">
        <ele>1096</ele>
        <time>2018-07-28T13:04:57.000Z</time>
      </trkpt>
      <trkpt lat="43.98444" lon="7.27342">
        <ele>1096</ele>
        <time>2018-07-28T13:05:00.000Z</time>
      </trkpt>
      <trkpt lat="43.98443" lon="7.27346">
        <ele>1096</ele>
        <time>2018-07-28T13:05:01.000Z</time>
      </trkpt>
      <trkpt lat="43.98442" lon="7.27351">
        <ele>1097</ele>
        <time>2018-07-28T13:05:02.000Z</time>
      </trkpt>
      <trkpt lat="43.98438" lon="7.27371">
        <ele>1098</ele>
        <time>2018-07-28T13:05:06.000Z</time>
      </trkpt>
      <trkpt lat="43.98438" lon="7.27376">
        <ele>1099</ele>
        <time>2018-07-28T13:05:07.000Z</time>
      </trkpt>
      <trkpt lat="43.98434" lon="7.27401">
        <ele>1105</ele>
        <time>2018-07-28T13:05:13.000Z</time>
      </trkpt>
      <trkpt lat="43.98433" lon="7.27411">
        <ele>1107</ele>
        <time>2018-07-28T13:05:16.000Z</time>
      </trkpt>
      <trkpt lat="43.98434" lon="7.27417">
        <ele>1111</ele>
        <time>2018-07-28T13:05:18.000Z</time>
      </trkpt>
      <trkpt lat="43.98435" lon="7.27427">
        <ele>1110</ele>
        <time>2018-07-28T13:05:22.000Z</time>
      </trkpt>
      <trkpt lat="43.98435" lon="7.2743">
        <ele>1109</ele>
        <time>2018-07-28T13:05:23.000Z</time>
      </trkpt>
      <trkpt lat="43.98435" lon="7.27439">
        <ele>1108</ele>
        <time>2018-07-28T13:05:26.000Z</time>
      </trkpt>
      <trkpt lat="43.98433" lon="7.27445">
        <ele>1108</ele>
        <time>2018-07-28T13:05:28.000Z</time>
      </trkpt>
      <trkpt lat="43.98433" lon="7.27454">
        <ele>1108</ele>
        <time>2018-07-28T13:05:32.000Z</time>
      </trkpt>
      <trkpt lat="43.98433" lon="7.27457">
        <ele>1108</ele>
        <time>2018-07-28T13:05:33.000Z</time>
      </trkpt>
      <trkpt lat="43.98433" lon="7.27466">
        <ele>1109</ele>
        <time>2018-07-28T13:05:37.000Z</time>
      </trkpt>
      <trkpt lat="43.98433" lon="7.27469">
        <ele>1110</ele>
        <time>2018-07-28T13:05:38.000Z</time>
      </trkpt>
      <trkpt lat="43.98433" lon="7.27481">
        <ele>1112</ele>
        <time>2018-07-28T13:05:43.000Z</time>
      </trkpt>
      <trkpt lat="43.98433" lon="7.27484">
        <ele>1113</ele>
        <time>2018-07-28T13:05:44.000Z</time>
      </trkpt>
      <trkpt lat="43.98436" lon="7.27492">
        <ele>1113</ele>
        <time>2018-07-28T13:05:48.000Z</time>
      </trkpt>
      <trkpt lat="43.98436" lon="7.27495">
        <ele>1114</ele>
        <time>2018-07-28T13:05:49.000Z</time>
      </trkpt>
      <trkpt lat="43.98436" lon="7.27502">
        <ele>1115</ele>
        <time>2018-07-28T13:05:52.000Z</time>
      </trkpt>
      <trkpt lat="43.98436" lon="7.27504">
        <ele>1115</ele>
        <time>2018-07-28T13:05:53.000Z</time>
      </trkpt>
      <trkpt lat="43.98437" lon="7.27508">
        <ele>1114</ele>
        <time>2018-07-28T13:05:55.000Z</time>
      </trkpt>
      <trkpt lat="43.98437" lon="7.27512">
        <ele>1114</ele>
        <time>2018-07-28T13:05:57.000Z</time>
      </trkpt>
      <trkpt lat="43.98436" lon="7.27514">
        <ele>1114</ele>
        <time>2018-07-28T13:05:58.000Z</time>
      </trkpt>
      <trkpt lat="43.98436" lon="7.27516">
        <ele>1114</ele>
        <time>2018-07-28T13:05:59.000Z</time>
      </trkpt>
      <trkpt lat="43.98435" lon="7.27517">
        <ele>1113</ele>
        <time>2018-07-28T13:06:00.000Z</time>
      </trkpt>
      <trkpt lat="43.98436" lon="7.27524">
        <ele>1112</ele>
        <time>2018-07-28T13:06:04.000Z</time>
      </trkpt>
      <trkpt lat="43.98436" lon="7.27528">
        <ele>1112</ele>
        <time>2018-07-28T13:06:06.000Z</time>
      </trkpt>
      <trkpt lat="43.98434" lon="7.27533">
        <ele>1111</ele>
        <time>2018-07-28T13:06:09.000Z</time>
      </trkpt>
      <trkpt lat="43.98433" lon="7.27543">
        <ele>1111</ele>
        <time>2018-07-28T13:06:14.000Z</time>
      </trkpt>
      <trkpt lat="43.9843" lon="7.27555">
        <ele>1113</ele>
        <time>2018-07-28T13:06:20.000Z</time>
      </trkpt>
      <trkpt lat="43.98427" lon="7.27559">
        <ele>1114</ele>
        <time>2018-07-28T13:06:22.000Z</time>
      </trkpt>
      <trkpt lat="43.98425" lon="7.27561">
        <ele>1115</ele>
        <time>2018-07-28T13:06:23.000Z</time>
      </trkpt>
      <trkpt lat="43.98419" lon="7.27568">
        <ele>1118</ele>
        <time>2018-07-28T13:06:26.000Z</time>
      </trkpt>
      <trkpt lat="43.98412" lon="7.27577">
        <ele>1124</ele>
        <time>2018-07-28T13:06:31.000Z</time>
      </trkpt>
      <trkpt lat="43.98399" lon="7.27596">
        <ele>1122</ele>
        <time>2018-07-28T13:06:38.000Z</time>
      </trkpt>
      <trkpt lat="43.98397" lon="7.27598">
        <ele>1122</ele>
        <time>2018-07-28T13:06:39.000Z</time>
      </trkpt>
      <trkpt lat="43.98392" lon="7.27604">
        <ele>1121</ele>
        <time>2018-07-28T13:06:43.000Z</time>
      </trkpt>
      <trkpt lat="43.9839" lon="7.27608">
        <ele>1120</ele>
        <time>2018-07-28T13:06:46.000Z</time>
      </trkpt>
      <trkpt lat="43.98387" lon="7.27615">
        <ele>1120</ele>
        <time>2018-07-28T13:06:49.000Z</time>
      </trkpt>
      <trkpt lat="43.98382" lon="7.27623">
        <ele>1120</ele>
        <time>2018-07-28T13:06:52.000Z</time>
      </trkpt>
      <trkpt lat="43.9838" lon="7.27627">
        <ele>1120</ele>
        <time>2018-07-28T13:06:54.000Z</time>
      </trkpt>
      <trkpt lat="43.98379" lon="7.27629">
        <ele>1120</ele>
        <time>2018-07-28T13:06:55.000Z</time>
      </trkpt>
      <trkpt lat="43.98372" lon="7.27643">
        <ele>1120</ele>
        <time>2018-07-28T13:07:01.000Z</time>
      </trkpt>
      <trkpt lat="43.98366" lon="7.27656">
        <ele>1122</ele>
        <time>2018-07-28T13:07:06.000Z</time>
      </trkpt>
      <trkpt lat="43.98363" lon="7.2766">
        <ele>1123</ele>
        <time>2018-07-28T13:07:08.000Z</time>
      </trkpt>
      <trkpt lat="43.98358" lon="7.27666">
        <ele>1124</ele>
        <time>2018-07-28T13:07:12.000Z</time>
      </trkpt>
      <trkpt lat="43.98355" lon="7.27671">
        <ele>1121</ele>
        <time>2018-07-28T13:07:15.000Z</time>
      </trkpt>
      <trkpt lat="43.98352" lon="7.27677">
        <ele>1121</ele>
        <time>2018-07-28T13:07:18.000Z</time>
      </trkpt>
      <trkpt lat="43.98347" lon="7.27685">
        <ele>1121</ele>
        <time>2018-07-28T13:07:21.000Z</time>
      </trkpt>
      <trkpt lat="43.98335" lon="7.27696">
        <ele>1120</ele>
        <time>2018-07-28T13:07:28.000Z</time>
      </trkpt>
      <trkpt lat="43.98329" lon="7.27697">
        <ele>1130</ele>
        <time>2018-07-28T13:07:30.000Z</time>
      </trkpt>
      <trkpt lat="43.98317" lon="7.277">
        <ele>1129</ele>
        <time>2018-07-28T13:07:35.000Z</time>
      </trkpt>
      <trkpt lat="43.98305" lon="7.27701">
        <ele>1129</ele>
        <time>2018-07-28T13:07:40.000Z</time>
      </trkpt>
      <trkpt lat="43.983" lon="7.277">
        <ele>1129</ele>
        <time>2018-07-28T13:07:42.000Z</time>
      </trkpt>
      <trkpt lat="43.98285" lon="7.27699">
        <ele>1129</ele>
        <time>2018-07-28T13:07:47.000Z</time>
      </trkpt>
      <trkpt lat="43.98266" lon="7.27699">
        <ele>1129</ele>
        <time>2018-07-28T13:07:53.000Z</time>
      </trkpt>
      <trkpt lat="43.9825" lon="7.27693">
        <ele>1129</ele>
        <time>2018-07-28T13:07:59.000Z</time>
      </trkpt>
      <trkpt lat="43.98236" lon="7.27693">
        <ele>1136</ele>
        <time>2018-07-28T13:08:06.000Z</time>
      </trkpt>
      <trkpt lat="43.98235" lon="7.27693">
        <ele>1136</ele>
        <time>2018-07-28T13:08:07.000Z</time>
      </trkpt>
      <trkpt lat="43.98229" lon="7.27692">
        <ele>1136</ele>
        <time>2018-07-28T13:08:11.000Z</time>
      </trkpt>
      <trkpt lat="43.98226" lon="7.27691">
        <ele>1137</ele>
        <time>2018-07-28T13:08:16.000Z</time>
      </trkpt>
      <trkpt lat="43.98224" lon="7.27691">
        <ele>1137</ele>
        <time>2018-07-28T13:08:24.000Z</time>
      </trkpt>
      <trkpt lat="43.98223" lon="7.2769">
        <ele>1137</ele>
        <time>2018-07-28T13:08:28.000Z</time>
      </trkpt>
      <trkpt lat="43.98221" lon="7.2769">
        <ele>1137</ele>
        <time>2018-07-28T13:08:31.000Z</time>
      </trkpt>
      <trkpt lat="43.98219" lon="7.27689">
        <ele>1137</ele>
        <time>2018-07-28T13:08:33.000Z</time>
      </trkpt>
      <trkpt lat="43.98208" lon="7.27684">
        <ele>1139</ele>
        <time>2018-07-28T13:08:40.000Z</time>
      </trkpt>
      <trkpt lat="43.98204" lon="7.27683">
        <ele>1140</ele>
        <time>2018-07-28T13:08:42.000Z</time>
      </trkpt>
      <trkpt lat="43.98199" lon="7.27682">
        <ele>1141</ele>
        <time>2018-07-28T13:08:45.000Z</time>
      </trkpt>
      <trkpt lat="43.98196" lon="7.2768">
        <ele>1141</ele>
        <time>2018-07-28T13:08:47.000Z</time>
      </trkpt>
      <trkpt lat="43.98189" lon="7.27675">
        <ele>1143</ele>
        <time>2018-07-28T13:08:51.000Z</time>
      </trkpt>
      <trkpt lat="43.98182" lon="7.27669">
        <ele>1146</ele>
        <time>2018-07-28T13:08:55.000Z</time>
      </trkpt>
      <trkpt lat="43.98181" lon="7.27668">
        <ele>1146</ele>
        <time>2018-07-28T13:08:56.000Z</time>
      </trkpt>
      <trkpt lat="43.98179" lon="7.27668">
        <ele>1147</ele>
        <time>2018-07-28T13:08:57.000Z</time>
      </trkpt>
      <trkpt lat="43.98175" lon="7.27665">
        <ele>1144</ele>
        <time>2018-07-28T13:08:59.000Z</time>
      </trkpt>
      <trkpt lat="43.9817" lon="7.27662">
        <ele>1146</ele>
        <time>2018-07-28T13:09:02.000Z</time>
      </trkpt>
      <trkpt lat="43.98164" lon="7.27659">
        <ele>1151</ele>
        <time>2018-07-28T13:09:05.000Z</time>
      </trkpt>
      <trkpt lat="43.98158" lon="7.27655">
        <ele>1151</ele>
        <time>2018-07-28T13:09:08.000Z</time>
      </trkpt>
      <trkpt lat="43.98154" lon="7.27652">
        <ele>1150</ele>
        <time>2018-07-28T13:09:10.000Z</time>
      </trkpt>
      <trkpt lat="43.98145" lon="7.27641">
        <ele>1149</ele>
        <time>2018-07-28T13:09:15.000Z</time>
      </trkpt>
      <trkpt lat="43.98135" lon="7.27633">
        <ele>1149</ele>
        <time>2018-07-28T13:09:20.000Z</time>
      </trkpt>
      <trkpt lat="43.98134" lon="7.27631">
        <ele>1149</ele>
        <time>2018-07-28T13:09:21.000Z</time>
      </trkpt>
      <trkpt lat="43.98129" lon="7.27625">
        <ele>1149</ele>
        <time>2018-07-28T13:09:24.000Z</time>
      </trkpt>
      <trkpt lat="43.98124" lon="7.2762">
        <ele>1149</ele>
        <time>2018-07-28T13:09:27.000Z</time>
      </trkpt>
      <trkpt lat="43.98114" lon="7.27608">
        <ele>1150</ele>
        <time>2018-07-28T13:09:32.000Z</time>
      </trkpt>
      <trkpt lat="43.98104" lon="7.27603">
        <ele>1151</ele>
        <time>2018-07-28T13:09:36.000Z</time>
      </trkpt>
      <trkpt lat="43.98098" lon="7.27603">
        <ele>1152</ele>
        <time>2018-07-28T13:09:38.000Z</time>
      </trkpt>
      <trkpt lat="43.98088" lon="7.27604">
        <ele>1154</ele>
        <time>2018-07-28T13:09:41.000Z</time>
      </trkpt>
      <trkpt lat="43.98085" lon="7.27602">
        <ele>1154</ele>
        <time>2018-07-28T13:09:42.000Z</time>
      </trkpt>
      <trkpt lat="43.98072" lon="7.27589">
        <ele>1163</ele>
        <time>2018-07-28T13:09:47.000Z</time>
      </trkpt>
      <trkpt lat="43.98058" lon="7.27578">
        <ele>1154</ele>
        <time>2018-07-28T13:09:51.000Z</time>
      </trkpt>
      <trkpt lat="43.98051" lon="7.27573">
        <ele>1154</ele>
        <time>2018-07-28T13:09:53.000Z</time>
      </trkpt>
      <trkpt lat="43.98038" lon="7.2757">
        <ele>1155</ele>
        <time>2018-07-28T13:09:56.000Z</time>
      </trkpt>
      <trkpt lat="43.98032" lon="7.27569">
        <ele>1156</ele>
        <time>2018-07-28T13:09:58.000Z</time>
      </trkpt>
      <trkpt lat="43.98026" lon="7.27567">
        <ele>1157</ele>
        <time>2018-07-28T13:10:00.000Z</time>
      </trkpt>
      <trkpt lat="43.98022" lon="7.2756">
        <ele>1157</ele>
        <time>2018-07-28T13:10:02.000Z</time>
      </trkpt>
      <trkpt lat="43.98019" lon="7.27556">
        <ele>1156</ele>
        <time>2018-07-28T13:10:03.000Z</time>
      </trkpt>
      <trkpt lat="43.98007" lon="7.2754">
        <ele>1153</ele>
        <time>2018-07-28T13:10:07.000Z</time>
      </trkpt>
      <trkpt lat="43.98003" lon="7.27535">
        <ele>1152</ele>
        <time>2018-07-28T13:10:08.000Z</time>
      </trkpt>
      <trkpt lat="43.97997" lon="7.27526">
        <ele>1164</ele>
        <time>2018-07-28T13:10:10.000Z</time>
      </trkpt>
      <trkpt lat="43.97992" lon="7.27519">
        <ele>1162</ele>
        <time>2018-07-28T13:10:11.000Z</time>
      </trkpt>
      <trkpt lat="43.97989" lon="7.27512">
        <ele>1159</ele>
        <time>2018-07-28T13:10:12.000Z</time>
      </trkpt>
      <trkpt lat="43.9798" lon="7.27498">
        <ele>1146</ele>
        <time>2018-07-28T13:10:14.000Z</time>
      </trkpt>
      <trkpt lat="43.97976" lon="7.27491">
        <ele>1146</ele>
        <time>2018-07-28T13:10:15.000Z</time>
      </trkpt>
      <trkpt lat="43.97967" lon="7.2748">
        <ele>1146</ele>
        <time>2018-07-28T13:10:17.000Z</time>
      </trkpt>
      <trkpt lat="43.9796" lon="7.2747">
        <ele>1145</ele>
        <time>2018-07-28T13:10:19.000Z</time>
      </trkpt>
      <trkpt lat="43.97956" lon="7.27466">
        <ele>1145</ele>
        <time>2018-07-28T13:10:20.000Z</time>
      </trkpt>
      <trkpt lat="43.97949" lon="7.27456">
        <ele>1144</ele>
        <time>2018-07-28T13:10:22.000Z</time>
      </trkpt>
      <trkpt lat="43.97939" lon="7.27446">
        <ele>1143</ele>
        <time>2018-07-28T13:10:24.000Z</time>
      </trkpt>
      <trkpt lat="43.97934" lon="7.27443">
        <ele>1143</ele>
        <time>2018-07-28T13:10:25.000Z</time>
      </trkpt>
      <trkpt lat="43.97928" lon="7.27439">
        <ele>1142</ele>
        <time>2018-07-28T13:10:26.000Z</time>
      </trkpt>
      <trkpt lat="43.97922" lon="7.27437">
        <ele>1142</ele>
        <time>2018-07-28T13:10:27.000Z</time>
      </trkpt>
      <trkpt lat="43.97917" lon="7.27435">
        <ele>1147</ele>
        <time>2018-07-28T13:10:28.000Z</time>
      </trkpt>
      <trkpt lat="43.97911" lon="7.27434">
        <ele>1146</ele>
        <time>2018-07-28T13:10:29.000Z</time>
      </trkpt>
      <trkpt lat="43.979" lon="7.27428">
        <ele>1146</ele>
        <time>2018-07-28T13:10:32.000Z</time>
      </trkpt>
      <trkpt lat="43.9789" lon="7.27425">
        <ele>1148</ele>
        <time>2018-07-28T13:10:34.000Z</time>
      </trkpt>
      <trkpt lat="43.97881" lon="7.27418">
        <ele>1148</ele>
        <time>2018-07-28T13:10:36.000Z</time>
      </trkpt>
      <trkpt lat="43.97874" lon="7.27411">
        <ele>1129</ele>
        <time>2018-07-28T13:10:38.000Z</time>
      </trkpt>
      <trkpt lat="43.9787" lon="7.27409">
        <ele>1129</ele>
        <time>2018-07-28T13:10:39.000Z</time>
      </trkpt>
      <trkpt lat="43.97866" lon="7.27407">
        <ele>1129</ele>
        <time>2018-07-28T13:10:40.000Z</time>
      </trkpt>
      <trkpt lat="43.97857" lon="7.27405">
        <ele>1130</ele>
        <time>2018-07-28T13:10:42.000Z</time>
      </trkpt>
      <trkpt lat="43.97851" lon="7.27405">
        <ele>1131</ele>
        <time>2018-07-28T13:10:43.000Z</time>
      </trkpt>
      <trkpt lat="43.97845" lon="7.27407">
        <ele>1132</ele>
        <time>2018-07-28T13:10:44.000Z</time>
      </trkpt>
      <trkpt lat="43.97835" lon="7.27409">
        <ele>1136</ele>
        <time>2018-07-28T13:10:46.000Z</time>
      </trkpt>
      <trkpt lat="43.97824" lon="7.27406">
        <ele>1129</ele>
        <time>2018-07-28T13:10:48.000Z</time>
      </trkpt>
      <trkpt lat="43.97814" lon="7.27404">
        <ele>1125</ele>
        <time>2018-07-28T13:10:50.000Z</time>
      </trkpt>
      <trkpt lat="43.9781" lon="7.27404">
        <ele>1124</ele>
        <time>2018-07-28T13:10:51.000Z</time>
      </trkpt>
      <trkpt lat="43.97808" lon="7.27406">
        <ele>1123</ele>
        <time>2018-07-28T13:10:52.000Z</time>
      </trkpt>
      <trkpt lat="43.97804" lon="7.27412">
        <ele>1123</ele>
        <time>2018-07-28T13:10:54.000Z</time>
      </trkpt>
      <trkpt lat="43.97801" lon="7.27414">
        <ele>1123</ele>
        <time>2018-07-28T13:10:55.000Z</time>
      </trkpt>
      <trkpt lat="43.97794" lon="7.27412">
        <ele>1121</ele>
        <time>2018-07-28T13:10:57.000Z</time>
      </trkpt>
      <trkpt lat="43.9779" lon="7.27414">
        <ele>1120</ele>
        <time>2018-07-28T13:10:58.000Z</time>
      </trkpt>
      <trkpt lat="43.97785" lon="7.27417">
        <ele>1135</ele>
        <time>2018-07-28T13:10:59.000Z</time>
      </trkpt>
      <trkpt lat="43.97781" lon="7.2742">
        <ele>1134</ele>
        <time>2018-07-28T13:11:00.000Z</time>
      </trkpt>
      <trkpt lat="43.97777" lon="7.27423">
        <ele>1133</ele>
        <time>2018-07-28T13:11:01.000Z</time>
      </trkpt>
      <trkpt lat="43.97774" lon="7.27426">
        <ele>1133</ele>
        <time>2018-07-28T13:11:02.000Z</time>
      </trkpt>
      <trkpt lat="43.97767" lon="7.27433">
        <ele>1132</ele>
        <time>2018-07-28T13:11:05.000Z</time>
      </trkpt>
      <trkpt lat="43.97764" lon="7.27438">
        <ele>1133</ele>
        <time>2018-07-28T13:11:06.000Z</time>
      </trkpt>
      <trkpt lat="43.97761" lon="7.27443">
        <ele>1134</ele>
        <time>2018-07-28T13:11:07.000Z</time>
      </trkpt>
      <trkpt lat="43.97759" lon="7.27448">
        <ele>1134</ele>
        <time>2018-07-28T13:11:08.000Z</time>
      </trkpt>
      <trkpt lat="43.97757" lon="7.27451">
        <ele>1135</ele>
        <time>2018-07-28T13:11:09.000Z</time>
      </trkpt>
      <trkpt lat="43.9775" lon="7.27456">
        <ele>1118</ele>
        <time>2018-07-28T13:11:11.000Z</time>
      </trkpt>
      <trkpt lat="43.97746" lon="7.27461">
        <ele>1118</ele>
        <time>2018-07-28T13:11:12.000Z</time>
      </trkpt>
      <trkpt lat="43.97743" lon="7.27463">
        <ele>1119</ele>
        <time>2018-07-28T13:11:13.000Z</time>
      </trkpt>
      <trkpt lat="43.9774" lon="7.27467">
        <ele>1119</ele>
        <time>2018-07-28T13:11:14.000Z</time>
      </trkpt>
      <trkpt lat="43.97737" lon="7.27471">
        <ele>1119</ele>
        <time>2018-07-28T13:11:15.000Z</time>
      </trkpt>
      <trkpt lat="43.97734" lon="7.27474">
        <ele>1120</ele>
        <time>2018-07-28T13:11:16.000Z</time>
      </trkpt>
      <trkpt lat="43.9773" lon="7.27475">
        <ele>1119</ele>
        <time>2018-07-28T13:11:17.000Z</time>
      </trkpt>
      <trkpt lat="43.97725" lon="7.27476">
        <ele>1118</ele>
        <time>2018-07-28T13:11:18.000Z</time>
      </trkpt>
      <trkpt lat="43.97721" lon="7.27479">
        <ele>1118</ele>
        <time>2018-07-28T13:11:19.000Z</time>
      </trkpt>
      <trkpt lat="43.97718" lon="7.27481">
        <ele>1117</ele>
        <time>2018-07-28T13:11:20.000Z</time>
      </trkpt>
      <trkpt lat="43.97714" lon="7.27484">
        <ele>1117</ele>
        <time>2018-07-28T13:11:21.000Z</time>
      </trkpt>
      <trkpt lat="43.97711" lon="7.27487">
        <ele>1116</ele>
        <time>2018-07-28T13:11:22.000Z</time>
      </trkpt>
      <trkpt lat="43.97708" lon="7.27491">
        <ele>1115</ele>
        <time>2018-07-28T13:11:25.000Z</time>
      </trkpt>
      <trkpt lat="43.97706" lon="7.27494">
        <ele>1115</ele>
        <time>2018-07-28T13:11:34.000Z</time>
      </trkpt>
      <trkpt lat="43.97705" lon="7.27496">
        <ele>1115</ele>
        <time>2018-07-28T13:11:40.000Z</time>
      </trkpt>
      <trkpt lat="43.97704" lon="7.27496">
        <ele>1115</ele>
        <time>2018-07-28T13:11:44.000Z</time>
      </trkpt>
      <trkpt lat="43.97703" lon="7.27496">
        <ele>1115</ele>
        <time>2018-07-28T13:11:51.000Z</time>
      </trkpt>
      <trkpt lat="43.97702" lon="7.27498">
        <ele>1114</ele>
        <time>2018-07-28T13:11:54.000Z</time>
      </trkpt>
      <trkpt lat="43.977" lon="7.275">
        <ele>1114</ele>
        <time>2018-07-28T13:11:55.000Z</time>
      </trkpt>
      <trkpt lat="43.97691" lon="7.27507">
        <ele>1130</ele>
        <time>2018-07-28T13:11:59.000Z</time>
      </trkpt>
      <trkpt lat="43.97677" lon="7.27514">
        <ele>1126</ele>
        <time>2018-07-28T13:12:02.000Z</time>
      </trkpt>
      <trkpt lat="43.97673" lon="7.27516">
        <ele>1126</ele>
        <time>2018-07-28T13:12:03.000Z</time>
      </trkpt>
      <trkpt lat="43.97666" lon="7.27519">
        <ele>1116</ele>
        <time>2018-07-28T13:12:05.000Z</time>
      </trkpt>
      <trkpt lat="43.97661" lon="7.2752">
        <ele>1116</ele>
        <time>2018-07-28T13:12:06.000Z</time>
      </trkpt>
      <trkpt lat="43.97657" lon="7.2752">
        <ele>1116</ele>
        <time>2018-07-28T13:12:07.000Z</time>
      </trkpt>
      <trkpt lat="43.97648" lon="7.27525">
        <ele>1118</ele>
        <time>2018-07-28T13:12:09.000Z</time>
      </trkpt>
      <trkpt lat="43.97643" lon="7.27527">
        <ele>1118</ele>
        <time>2018-07-28T13:12:10.000Z</time>
      </trkpt>
      <trkpt lat="43.97639" lon="7.27526">
        <ele>1117</ele>
        <time>2018-07-28T13:12:11.000Z</time>
      </trkpt>
      <trkpt lat="43.97634" lon="7.27525">
        <ele>1117</ele>
        <time>2018-07-28T13:12:12.000Z</time>
      </trkpt>
      <trkpt lat="43.97629" lon="7.27525">
        <ele>1116</ele>
        <time>2018-07-28T13:12:13.000Z</time>
      </trkpt>
      <trkpt lat="43.97623" lon="7.27524">
        <ele>1115</ele>
        <time>2018-07-28T13:12:14.000Z</time>
      </trkpt>
      <trkpt lat="43.97613" lon="7.27524">
        <ele>1113</ele>
        <time>2018-07-28T13:12:16.000Z</time>
      </trkpt>
      <trkpt lat="43.97608" lon="7.27523">
        <ele>1112</ele>
        <time>2018-07-28T13:12:17.000Z</time>
      </trkpt>
      <trkpt lat="43.97603" lon="7.27523">
        <ele>1110</ele>
        <time>2018-07-28T13:12:18.000Z</time>
      </trkpt>
      <trkpt lat="43.97597" lon="7.27522">
        <ele>1109</ele>
        <time>2018-07-28T13:12:19.000Z</time>
      </trkpt>
      <trkpt lat="43.97592" lon="7.27522">
        <ele>1107</ele>
        <time>2018-07-28T13:12:20.000Z</time>
      </trkpt>
      <trkpt lat="43.97581" lon="7.2752">
        <ele>1093</ele>
        <time>2018-07-28T13:12:22.000Z</time>
      </trkpt>
      <trkpt lat="43.97569" lon="7.27518">
        <ele>1092</ele>
        <time>2018-07-28T13:12:24.000Z</time>
      </trkpt>
      <trkpt lat="43.97563" lon="7.27516">
        <ele>1092</ele>
        <time>2018-07-28T13:12:25.000Z</time>
      </trkpt>
      <trkpt lat="43.97557" lon="7.27514">
        <ele>1091</ele>
        <time>2018-07-28T13:12:26.000Z</time>
      </trkpt>
      <trkpt lat="43.97546" lon="7.27512">
        <ele>1090</ele>
        <time>2018-07-28T13:12:28.000Z</time>
      </trkpt>
      <trkpt lat="43.9754" lon="7.27509">
        <ele>1088</ele>
        <time>2018-07-28T13:12:29.000Z</time>
      </trkpt>
      <trkpt lat="43.97532" lon="7.27508">
        <ele>1086</ele>
        <time>2018-07-28T13:12:31.000Z</time>
      </trkpt>
      <trkpt lat="43.97526" lon="7.2751">
        <ele>1085</ele>
        <time>2018-07-28T13:12:33.000Z</time>
      </trkpt>
      <trkpt lat="43.97522" lon="7.27514">
        <ele>1084</ele>
        <time>2018-07-28T13:12:34.000Z</time>
      </trkpt>
      <trkpt lat="43.97519" lon="7.27517">
        <ele>1084</ele>
        <time>2018-07-28T13:12:35.000Z</time>
      </trkpt>
      <trkpt lat="43.97516" lon="7.27522">
        <ele>1085</ele>
        <time>2018-07-28T13:12:36.000Z</time>
      </trkpt>
      <trkpt lat="43.97505" lon="7.27535">
        <ele>1087</ele>
        <time>2018-07-28T13:12:39.000Z</time>
      </trkpt>
      <trkpt lat="43.97495" lon="7.27546">
        <ele>1070</ele>
        <time>2018-07-28T13:12:41.000Z</time>
      </trkpt>
      <trkpt lat="43.97485" lon="7.27559">
        <ele>1073</ele>
        <time>2018-07-28T13:12:43.000Z</time>
      </trkpt>
      <trkpt lat="43.97483" lon="7.27566">
        <ele>1074</ele>
        <time>2018-07-28T13:12:44.000Z</time>
      </trkpt>
      <trkpt lat="43.97481" lon="7.27572">
        <ele>1075</ele>
        <time>2018-07-28T13:12:45.000Z</time>
      </trkpt>
      <trkpt lat="43.97475" lon="7.27587">
        <ele>1089</ele>
        <time>2018-07-28T13:12:48.000Z</time>
      </trkpt>
      <trkpt lat="43.9747" lon="7.27594">
        <ele>1088</ele>
        <time>2018-07-28T13:12:50.000Z</time>
      </trkpt>
      <trkpt lat="43.97466" lon="7.27598">
        <ele>1088</ele>
        <time>2018-07-28T13:12:51.000Z</time>
      </trkpt>
      <trkpt lat="43.97456" lon="7.27618">
        <ele>1088</ele>
        <time>2018-07-28T13:12:55.000Z</time>
      </trkpt>
      <trkpt lat="43.9745" lon="7.27623">
        <ele>1087</ele>
        <time>2018-07-28T13:12:57.000Z</time>
      </trkpt>
      <trkpt lat="43.97447" lon="7.27625">
        <ele>1087</ele>
        <time>2018-07-28T13:12:58.000Z</time>
      </trkpt>
      <trkpt lat="43.97436" lon="7.27631">
        <ele>1086</ele>
        <time>2018-07-28T13:13:01.000Z</time>
      </trkpt>
      <trkpt lat="43.97433" lon="7.27635">
        <ele>1086</ele>
        <time>2018-07-28T13:13:02.000Z</time>
      </trkpt>
      <trkpt lat="43.97429" lon="7.27637">
        <ele>1086</ele>
        <time>2018-07-28T13:13:03.000Z</time>
      </trkpt>
      <trkpt lat="43.97424" lon="7.27644">
        <ele>1086</ele>
        <time>2018-07-28T13:13:05.000Z</time>
      </trkpt>
      <trkpt lat="43.97422" lon="7.27647">
        <ele>1086</ele>
        <time>2018-07-28T13:13:06.000Z</time>
      </trkpt>
      <trkpt lat="43.97412" lon="7.27661">
        <ele>1082</ele>
        <time>2018-07-28T13:13:10.000Z</time>
      </trkpt>
      <trkpt lat="43.97409" lon="7.27663">
        <ele>1082</ele>
        <time>2018-07-28T13:13:11.000Z</time>
      </trkpt>
      <trkpt lat="43.97401" lon="7.27675">
        <ele>1094</ele>
        <time>2018-07-28T13:13:15.000Z</time>
      </trkpt>
      <trkpt lat="43.97398" lon="7.27686">
        <ele>1097</ele>
        <time>2018-07-28T13:13:18.000Z</time>
      </trkpt>
      <trkpt lat="43.97396" lon="7.27691">
        <ele>1098</ele>
        <time>2018-07-28T13:13:19.000Z</time>
      </trkpt>
      <trkpt lat="43.97393" lon="7.27694">
        <ele>1099</ele>
        <time>2018-07-28T13:13:20.000Z</time>
      </trkpt>
      <trkpt lat="43.97388" lon="7.27694">
        <ele>1099</ele>
        <time>2018-07-28T13:13:22.000Z</time>
      </trkpt>
      <trkpt lat="43.97374" lon="7.2769">
        <ele>1099</ele>
        <time>2018-07-28T13:13:27.000Z</time>
      </trkpt>
      <trkpt lat="43.97366" lon="7.27683">
        <ele>1098</ele>
        <time>2018-07-28T13:13:31.000Z</time>
      </trkpt>
      <trkpt lat="43.9736" lon="7.27679">
        <ele>1097</ele>
        <time>2018-07-28T13:13:35.000Z</time>
      </trkpt>
      <trkpt lat="43.97357" lon="7.27678">
        <ele>1097</ele>
        <time>2018-07-28T13:13:36.000Z</time>
      </trkpt>
      <trkpt lat="43.97345" lon="7.27669">
        <ele>1093</ele>
        <time>2018-07-28T13:13:41.000Z</time>
      </trkpt>
      <trkpt lat="43.97332" lon="7.27667">
        <ele>1089</ele>
        <time>2018-07-28T13:13:45.000Z</time>
      </trkpt>
      <trkpt lat="43.97328" lon="7.27665">
        <ele>1086</ele>
        <time>2018-07-28T13:13:46.000Z</time>
      </trkpt>
      <trkpt lat="43.97316" lon="7.27658">
        <ele>1084</ele>
        <time>2018-07-28T13:13:49.000Z</time>
      </trkpt>
      <trkpt lat="43.97308" lon="7.27644">
        <ele>1082</ele>
        <time>2018-07-28T13:13:53.000Z</time>
      </trkpt>
      <trkpt lat="43.97305" lon="7.27636">
        <ele>1080</ele>
        <time>2018-07-28T13:13:58.000Z</time>
      </trkpt>
      <trkpt lat="43.97302" lon="7.27631">
        <ele>1080</ele>
        <time>2018-07-28T13:14:02.000Z</time>
      </trkpt>
      <trkpt lat="43.97299" lon="7.27628">
        <ele>1079</ele>
        <time>2018-07-28T13:14:05.000Z</time>
      </trkpt>
      <trkpt lat="43.97297" lon="7.27626">
        <ele>1079</ele>
        <time>2018-07-28T13:14:07.000Z</time>
      </trkpt>
      <trkpt lat="43.97295" lon="7.27624">
        <ele>1079</ele>
        <time>2018-07-28T13:14:09.000Z</time>
      </trkpt>
      <trkpt lat="43.97293" lon="7.27622">
        <ele>1079</ele>
        <time>2018-07-28T13:14:11.000Z</time>
      </trkpt>
      <trkpt lat="43.97292" lon="7.27621">
        <ele>1079</ele>
        <time>2018-07-28T13:14:12.000Z</time>
      </trkpt>
      <trkpt lat="43.9729" lon="7.27618">
        <ele>1078</ele>
        <time>2018-07-28T13:14:15.000Z</time>
      </trkpt>
      <trkpt lat="43.97286" lon="7.27617">
        <ele>1078</ele>
        <time>2018-07-28T13:14:18.000Z</time>
      </trkpt>
      <trkpt lat="43.97284" lon="7.27618">
        <ele>1078</ele>
        <time>2018-07-28T13:14:20.000Z</time>
      </trkpt>
      <trkpt lat="43.97279" lon="7.27619">
        <ele>1079</ele>
        <time>2018-07-28T13:14:23.000Z</time>
      </trkpt>
      <trkpt lat="43.97277" lon="7.2762">
        <ele>1079</ele>
        <time>2018-07-28T13:14:24.000Z</time>
      </trkpt>
      <trkpt lat="43.9727" lon="7.27622">
        <ele>1080</ele>
        <time>2018-07-28T13:14:27.000Z</time>
      </trkpt>
      <trkpt lat="43.97266" lon="7.27624">
        <ele>1080</ele>
        <time>2018-07-28T13:14:29.000Z</time>
      </trkpt>
      <trkpt lat="43.97262" lon="7.27625">
        <ele>1081</ele>
        <time>2018-07-28T13:14:31.000Z</time>
      </trkpt>
      <trkpt lat="43.97252" lon="7.27631">
        <ele>1083</ele>
        <time>2018-07-28T13:14:36.000Z</time>
      </trkpt>
      <trkpt lat="43.97249" lon="7.2763">
        <ele>1086</ele>
        <time>2018-07-28T13:14:37.000Z</time>
      </trkpt>
      <trkpt lat="43.97233" lon="7.27626">
        <ele>1085</ele>
        <time>2018-07-28T13:14:43.000Z</time>
      </trkpt>
      <trkpt lat="43.97217" lon="7.27634">
        <ele>1086</ele>
        <time>2018-07-28T13:14:48.000Z</time>
      </trkpt>
      <trkpt lat="43.9721" lon="7.27635">
        <ele>1086</ele>
        <time>2018-07-28T13:14:50.000Z</time>
      </trkpt>
      <trkpt lat="43.97199" lon="7.27635">
        <ele>1086</ele>
        <time>2018-07-28T13:14:53.000Z</time>
      </trkpt>
      <trkpt lat="43.97194" lon="7.27632">
        <ele>1086</ele>
        <time>2018-07-28T13:14:54.000Z</time>
      </trkpt>
      <trkpt lat="43.97191" lon="7.27629">
        <ele>1085</ele>
        <time>2018-07-28T13:14:55.000Z</time>
      </trkpt>
      <trkpt lat="43.97187" lon="7.27627">
        <ele>1085</ele>
        <time>2018-07-28T13:14:56.000Z</time>
      </trkpt>
      <trkpt lat="43.9718" lon="7.27624">
        <ele>1085</ele>
        <time>2018-07-28T13:14:58.000Z</time>
      </trkpt>
      <trkpt lat="43.97172" lon="7.2762">
        <ele>1084</ele>
        <time>2018-07-28T13:15:01.000Z</time>
      </trkpt>
      <trkpt lat="43.9717" lon="7.27618">
        <ele>1083</ele>
        <time>2018-07-28T13:15:02.000Z</time>
      </trkpt>
      <trkpt lat="43.97169" lon="7.27614">
        <ele>1083</ele>
        <time>2018-07-28T13:15:04.000Z</time>
      </trkpt>
      <trkpt lat="43.97167" lon="7.27611">
        <ele>1082</ele>
        <time>2018-07-28T13:15:06.000Z</time>
      </trkpt>
      <trkpt lat="43.97165" lon="7.27603">
        <ele>1080</ele>
        <time>2018-07-28T13:15:09.000Z</time>
      </trkpt>
      <trkpt lat="43.97164" lon="7.27602">
        <ele>1080</ele>
        <time>2018-07-28T13:15:10.000Z</time>
      </trkpt>
      <trkpt lat="43.97163" lon="7.27599">
        <ele>1079</ele>
        <time>2018-07-28T13:15:15.000Z</time>
      </trkpt>
      <trkpt lat="43.97159" lon="7.27589">
        <ele>1077</ele>
        <time>2018-07-28T13:15:23.000Z</time>
      </trkpt>
      <trkpt lat="43.97158" lon="7.27587">
        <ele>1077</ele>
        <time>2018-07-28T13:15:27.000Z</time>
      </trkpt>
      <trkpt lat="43.97158" lon="7.27586">
        <ele>1077</ele>
        <time>2018-07-28T13:15:31.000Z</time>
      </trkpt>
      <trkpt lat="43.97156" lon="7.27585">
        <ele>1077</ele>
        <time>2018-07-28T13:15:48.000Z</time>
      </trkpt>
      <trkpt lat="43.97156" lon="7.27585">
        <ele>1077</ele>
        <time>2018-07-28T13:15:55.000Z</time>
      </trkpt>
      <trkpt lat="43.97155" lon="7.27585">
        <ele>1078</ele>
        <time>2018-07-28T13:16:14.000Z</time>
      </trkpt>
      <trkpt lat="43.9715" lon="7.27581">
        <ele>1071</ele>
        <time>2018-07-28T13:16:21.000Z</time>
      </trkpt>
      <trkpt lat="43.97148" lon="7.2758">
        <ele>1071</ele>
        <time>2018-07-28T13:16:27.000Z</time>
      </trkpt>
      <trkpt lat="43.97146" lon="7.27579">
        <ele>1070</ele>
        <time>2018-07-28T13:16:41.000Z</time>
      </trkpt>
      <trkpt lat="43.97144" lon="7.27578">
        <ele>1070</ele>
        <time>2018-07-28T13:16:44.000Z</time>
      </trkpt>
      <trkpt lat="43.97142" lon="7.27577">
        <ele>1070</ele>
        <time>2018-07-28T13:16:47.000Z</time>
      </trkpt>
      <trkpt lat="43.97139" lon="7.27576">
        <ele>1070</ele>
        <time>2018-07-28T13:16:50.000Z</time>
      </trkpt>
      <trkpt lat="43.97136" lon="7.27575">
        <ele>1070</ele>
        <time>2018-07-28T13:16:55.000Z</time>
      </trkpt>
      <trkpt lat="43.9713" lon="7.27577">
        <ele>1070</ele>
        <time>2018-07-28T13:17:00.000Z</time>
      </trkpt>
      <trkpt lat="43.97119" lon="7.2758">
        <ele>1070</ele>
        <time>2018-07-28T13:17:05.000Z</time>
      </trkpt>
      <trkpt lat="43.97116" lon="7.27583">
        <ele>1071</ele>
        <time>2018-07-28T13:17:07.000Z</time>
      </trkpt>
      <trkpt lat="43.97113" lon="7.27589">
        <ele>1081</ele>
        <time>2018-07-28T13:17:10.000Z</time>
      </trkpt>
      <trkpt lat="43.97112" lon="7.27594">
        <ele>1081</ele>
        <time>2018-07-28T13:17:12.000Z</time>
      </trkpt>
      <trkpt lat="43.97111" lon="7.27599">
        <ele>1081</ele>
        <time>2018-07-28T13:17:14.000Z</time>
      </trkpt>
      <trkpt lat="43.97107" lon="7.27619">
        <ele>1083</ele>
        <time>2018-07-28T13:17:20.000Z</time>
      </trkpt>
      <trkpt lat="43.97098" lon="7.27636">
        <ele>1084</ele>
        <time>2018-07-28T13:17:24.000Z</time>
      </trkpt>
      <trkpt lat="43.97093" lon="7.27645">
        <ele>1085</ele>
        <time>2018-07-28T13:17:26.000Z</time>
      </trkpt>
      <trkpt lat="43.97087" lon="7.27656">
        <ele>1086</ele>
        <time>2018-07-28T13:17:29.000Z</time>
      </trkpt>
      <trkpt lat="43.9708" lon="7.27663">
        <ele>1084</ele>
        <time>2018-07-28T13:17:33.000Z</time>
      </trkpt>
      <trkpt lat="43.97079" lon="7.27665">
        <ele>1084</ele>
        <time>2018-07-28T13:17:34.000Z</time>
      </trkpt>
      <trkpt lat="43.97075" lon="7.27673">
        <ele>1084</ele>
        <time>2018-07-28T13:17:37.000Z</time>
      </trkpt>
      <trkpt lat="43.97072" lon="7.2768">
        <ele>1083</ele>
        <time>2018-07-28T13:17:39.000Z</time>
      </trkpt>
      <trkpt lat="43.97069" lon="7.27685">
        <ele>1082</ele>
        <time>2018-07-28T13:17:40.000Z</time>
      </trkpt>
      <trkpt lat="43.97066" lon="7.27693">
        <ele>1081</ele>
        <time>2018-07-28T13:17:42.000Z</time>
      </trkpt>
      <trkpt lat="43.97065" lon="7.27707">
        <ele>1081</ele>
        <time>2018-07-28T13:17:45.000Z</time>
      </trkpt>
      <trkpt lat="43.97065" lon="7.27712">
        <ele>1081</ele>
        <time>2018-07-28T13:17:46.000Z</time>
      </trkpt>
      <trkpt lat="43.97066" lon="7.27717">
        <ele>1081</ele>
        <time>2018-07-28T13:17:47.000Z</time>
      </trkpt>
      <trkpt lat="43.97068" lon="7.27731">
        <ele>1083</ele>
        <time>2018-07-28T13:17:49.000Z</time>
      </trkpt>
      <trkpt lat="43.97069" lon="7.27738">
        <ele>1084</ele>
        <time>2018-07-28T13:17:50.000Z</time>
      </trkpt>
      <trkpt lat="43.97068" lon="7.27745">
        <ele>1084</ele>
        <time>2018-07-28T13:17:51.000Z</time>
      </trkpt>
      <trkpt lat="43.97067" lon="7.27752">
        <ele>1084</ele>
        <time>2018-07-28T13:17:52.000Z</time>
      </trkpt>
      <trkpt lat="43.97067" lon="7.27758">
        <ele>1083</ele>
        <time>2018-07-28T13:17:53.000Z</time>
      </trkpt>
      <trkpt lat="43.97062" lon="7.27773">
        <ele>1081</ele>
        <time>2018-07-28T13:17:56.000Z</time>
      </trkpt>
      <trkpt lat="43.97061" lon="7.27777">
        <ele>1081</ele>
        <time>2018-07-28T13:17:57.000Z</time>
      </trkpt>
      <trkpt lat="43.97059" lon="7.27782">
        <ele>1080</ele>
        <time>2018-07-28T13:17:58.000Z</time>
      </trkpt>
      <trkpt lat="43.97057" lon="7.27788">
        <ele>1080</ele>
        <time>2018-07-28T13:17:59.000Z</time>
      </trkpt>
      <trkpt lat="43.97056" lon="7.27795">
        <ele>1080</ele>
        <time>2018-07-28T13:18:00.000Z</time>
      </trkpt>
      <trkpt lat="43.97053" lon="7.27809">
        <ele>1080</ele>
        <time>2018-07-28T13:18:02.000Z</time>
      </trkpt>
      <trkpt lat="43.97051" lon="7.27823">
        <ele>1080</ele>
        <time>2018-07-28T13:18:04.000Z</time>
      </trkpt>
      <trkpt lat="43.97045" lon="7.27831">
        <ele>1078</ele>
        <time>2018-07-28T13:18:06.000Z</time>
      </trkpt>
      <trkpt lat="43.9704" lon="7.27836">
        <ele>1077</ele>
        <time>2018-07-28T13:18:08.000Z</time>
      </trkpt>
      <trkpt lat="43.97038" lon="7.27839">
        <ele>1076</ele>
        <time>2018-07-28T13:18:09.000Z</time>
      </trkpt>
      <trkpt lat="43.97026" lon="7.27865">
        <ele>1075</ele>
        <time>2018-07-28T13:18:15.000Z</time>
      </trkpt>
      <trkpt lat="43.97019" lon="7.27891">
        <ele>1073</ele>
        <time>2018-07-28T13:18:20.000Z</time>
      </trkpt>
      <trkpt lat="43.97018" lon="7.279">
        <ele>1072</ele>
        <time>2018-07-28T13:18:23.000Z</time>
      </trkpt>
      <trkpt lat="43.97018" lon="7.27906">
        <ele>1072</ele>
        <time>2018-07-28T13:18:24.000Z</time>
      </trkpt>
      <trkpt lat="43.97017" lon="7.2792">
        <ele>1071</ele>
        <time>2018-07-28T13:18:26.000Z</time>
      </trkpt>
      <trkpt lat="43.97016" lon="7.27926">
        <ele>1071</ele>
        <time>2018-07-28T13:18:27.000Z</time>
      </trkpt>
      <trkpt lat="43.97016" lon="7.27931">
        <ele>1072</ele>
        <time>2018-07-28T13:18:28.000Z</time>
      </trkpt>
      <trkpt lat="43.97015" lon="7.27936">
        <ele>1072</ele>
        <time>2018-07-28T13:18:29.000Z</time>
      </trkpt>
      <trkpt lat="43.97014" lon="7.27943">
        <ele>1073</ele>
        <time>2018-07-28T13:18:32.000Z</time>
      </trkpt>
      <trkpt lat="43.97015" lon="7.27945">
        <ele>1073</ele>
        <time>2018-07-28T13:18:33.000Z</time>
      </trkpt>
      <trkpt lat="43.97015" lon="7.27953">
        <ele>1074</ele>
        <time>2018-07-28T13:18:36.000Z</time>
      </trkpt>
      <trkpt lat="43.97015" lon="7.27955">
        <ele>1074</ele>
        <time>2018-07-28T13:18:37.000Z</time>
      </trkpt>
      <trkpt lat="43.97015" lon="7.27958">
        <ele>1074</ele>
        <time>2018-07-28T13:18:38.000Z</time>
      </trkpt>
      <trkpt lat="43.97015" lon="7.27965">
        <ele>1073</ele>
        <time>2018-07-28T13:18:41.000Z</time>
      </trkpt>
      <trkpt lat="43.97016" lon="7.27982">
        <ele>1072</ele>
        <time>2018-07-28T13:18:46.000Z</time>
      </trkpt>
      <trkpt lat="43.97016" lon="7.27994">
        <ele>1069</ele>
        <time>2018-07-28T13:18:50.000Z</time>
      </trkpt>
      <trkpt lat="43.97016" lon="7.27995">
        <ele>1069</ele>
        <time>2018-07-28T13:18:52.000Z</time>
      </trkpt>
      <trkpt lat="43.97016" lon="7.27997">
        <ele>1069</ele>
        <time>2018-07-28T13:18:54.000Z</time>
      </trkpt>
      <trkpt lat="43.97015" lon="7.27997">
        <ele>1069</ele>
        <time>2018-07-28T13:18:56.000Z</time>
      </trkpt>
      <trkpt lat="43.97015" lon="7.27998">
        <ele>1069</ele>
        <time>2018-07-28T13:18:57.000Z</time>
      </trkpt>
      <trkpt lat="43.97015" lon="7.28001">
        <ele>1070</ele>
        <time>2018-07-28T13:19:07.000Z</time>
      </trkpt>
      <trkpt lat="43.97014" lon="7.28005">
        <ele>1070</ele>
        <time>2018-07-28T13:19:18.000Z</time>
      </trkpt>
      <trkpt lat="43.97012" lon="7.28011">
        <ele>1071</ele>
        <time>2018-07-28T13:19:32.000Z</time>
      </trkpt>
      <trkpt lat="43.9701" lon="7.28015">
        <ele>1071</ele>
        <time>2018-07-28T13:19:47.000Z</time>
      </trkpt>
      <trkpt lat="43.9701" lon="7.28015">
        <ele>1071</ele>
        <time>2018-07-28T13:19:56.000Z</time>
      </trkpt>
      <trkpt lat="43.97011" lon="7.28015">
        <ele>1072</ele>
        <time>2018-07-28T13:20:07.000Z</time>
      </trkpt>
      <trkpt lat="43.97012" lon="7.28015">
        <ele>1072</ele>
        <time>2018-07-28T13:20:16.000Z</time>
      </trkpt>
      <trkpt lat="43.97011" lon="7.28015">
        <ele>1072</ele>
        <time>2018-07-28T13:20:31.000Z</time>
      </trkpt>
      <trkpt lat="43.97011" lon="7.28017">
        <ele>1072</ele>
        <time>2018-07-28T13:20:46.000Z</time>
      </trkpt>
      <trkpt lat="43.97011" lon="7.28018">
        <ele>1073</ele>
        <time>2018-07-28T13:20:55.000Z</time>
      </trkpt>
      <trkpt lat="43.97012" lon="7.28018">
        <ele>1073</ele>
        <time>2018-07-28T13:21:00.000Z</time>
      </trkpt>
      <trkpt lat="43.97013" lon="7.28015">
        <ele>1072</ele>
        <time>2018-07-28T13:21:10.000Z</time>
      </trkpt>
      <trkpt lat="43.97014" lon="7.28015">
        <ele>1072</ele>
        <time>2018-07-28T13:21:22.000Z</time>
      </trkpt>
      <trkpt lat="43.9701" lon="7.28031">
        <ele>1075</ele>
        <time>2018-07-28T13:21:26.000Z</time>
      </trkpt>
      <trkpt lat="43.97004" lon="7.28051">
        <ele>1076</ele>
        <time>2018-07-28T13:21:30.000Z</time>
      </trkpt>
      <trkpt lat="43.97003" lon="7.28056">
        <ele>1075</ele>
        <time>2018-07-28T13:21:31.000Z</time>
      </trkpt>
      <trkpt lat="43.96995" lon="7.28076">
        <ele>1061</ele>
        <time>2018-07-28T13:21:36.000Z</time>
      </trkpt>
      <trkpt lat="43.96993" lon="7.28081">
        <ele>1062</ele>
        <time>2018-07-28T13:21:37.000Z</time>
      </trkpt>
      <trkpt lat="43.96986" lon="7.28097">
        <ele>1062</ele>
        <time>2018-07-28T13:21:40.000Z</time>
      </trkpt>
      <trkpt lat="43.96984" lon="7.28101">
        <ele>1061</ele>
        <time>2018-07-28T13:21:41.000Z</time>
      </trkpt>
      <trkpt lat="43.96974" lon="7.28121">
        <ele>1060</ele>
        <time>2018-07-28T13:21:46.000Z</time>
      </trkpt>
      <trkpt lat="43.96969" lon="7.28143">
        <ele>1061</ele>
        <time>2018-07-28T13:21:52.000Z</time>
      </trkpt>
      <trkpt lat="43.96963" lon="7.28153">
        <ele>1060</ele>
        <time>2018-07-28T13:21:56.000Z</time>
      </trkpt>
      <trkpt lat="43.96963" lon="7.28153">
        <ele>1060</ele>
        <time>2018-07-28T13:21:57.000Z</time>
      </trkpt>
      <trkpt lat="43.96962" lon="7.28153">
        <ele>1060</ele>
        <time>2018-07-28T13:22:00.000Z</time>
      </trkpt>
      <trkpt lat="43.96962" lon="7.28152">
        <ele>1060</ele>
        <time>2018-07-28T13:22:11.000Z</time>
      </trkpt>
      <trkpt lat="43.9696" lon="7.28153">
        <ele>1059</ele>
        <time>2018-07-28T13:22:18.000Z</time>
      </trkpt>
      <trkpt lat="43.96958" lon="7.28152">
        <ele>1059</ele>
        <time>2018-07-28T13:22:22.000Z</time>
      </trkpt>
      <trkpt lat="43.96957" lon="7.28151">
        <ele>1058</ele>
        <time>2018-07-28T13:22:23.000Z</time>
      </trkpt>
      <trkpt lat="43.96954" lon="7.2815">
        <ele>1058</ele>
        <time>2018-07-28T13:22:28.000Z</time>
      </trkpt>
      <trkpt lat="43.96954" lon="7.2815">
        <ele>1057</ele>
        <time>2018-07-28T13:22:32.000Z</time>
      </trkpt>
      <trkpt lat="43.96955" lon="7.2815">
        <ele>1058</ele>
        <time>2018-07-28T13:22:34.000Z</time>
      </trkpt>
      <trkpt lat="43.96958" lon="7.28151">
        <ele>1059</ele>
        <time>2018-07-28T13:22:41.000Z</time>
      </trkpt>
      <trkpt lat="43.96959" lon="7.28151">
        <ele>1059</ele>
        <time>2018-07-28T13:22:42.000Z</time>
      </trkpt>
      <trkpt lat="43.9696" lon="7.28151">
        <ele>1059</ele>
        <time>2018-07-28T13:22:43.000Z</time>
      </trkpt>
      <trkpt lat="43.96961" lon="7.28151">
        <ele>1059</ele>
        <time>2018-07-28T13:22:45.000Z</time>
      </trkpt>
      <trkpt lat="43.96962" lon="7.28151">
        <ele>1060</ele>
        <time>2018-07-28T13:22:48.000Z</time>
      </trkpt>
      <trkpt lat="43.96963" lon="7.2815">
        <ele>1060</ele>
        <time>2018-07-28T13:22:50.000Z</time>
      </trkpt>
      <trkpt lat="43.96965" lon="7.28147">
        <ele>1060</ele>
        <time>2018-07-28T13:22:54.000Z</time>
      </trkpt>
      <trkpt lat="43.96971" lon="7.28135">
        <ele>1061</ele>
        <time>2018-07-28T13:23:00.000Z</time>
      </trkpt>
      <trkpt lat="43.96975" lon="7.28116">
        <ele>1060</ele>
        <time>2018-07-28T13:23:06.000Z</time>
      </trkpt>
      <trkpt lat="43.96982" lon="7.28104">
        <ele>1061</ele>
        <time>2018-07-28T13:23:11.000Z</time>
      </trkpt>
      <trkpt lat="43.96987" lon="7.28096">
        <ele>1062</ele>
        <time>2018-07-28T13:23:15.000Z</time>
      </trkpt>
      <trkpt lat="43.96991" lon="7.28087">
        <ele>1064</ele>
        <time>2018-07-28T13:23:18.000Z</time>
      </trkpt>
      <trkpt lat="43.96998" lon="7.28068">
        <ele>1059</ele>
        <time>2018-07-28T13:23:24.000Z</time>
      </trkpt>
      <trkpt lat="43.96999" lon="7.28062">
        <ele>1057</ele>
        <time>2018-07-28T13:23:26.000Z</time>
      </trkpt>
      <trkpt lat="43.97004" lon="7.28051">
        <ele>1076</ele>
        <time>2018-07-28T13:23:30.000Z</time>
      </trkpt>
      <trkpt lat="43.97009" lon="7.28038">
        <ele>1076</ele>
        <time>2018-07-28T13:23:36.000Z</time>
      </trkpt>
      <trkpt lat="43.97009" lon="7.28034">
        <ele>1075</ele>
        <time>2018-07-28T13:23:38.000Z</time>
      </trkpt>
      <trkpt lat="43.97011" lon="7.28026">
        <ele>1074</ele>
        <time>2018-07-28T13:23:41.000Z</time>
      </trkpt>
      <trkpt lat="43.97013" lon="7.28022">
        <ele>1074</ele>
        <time>2018-07-28T13:23:45.000Z</time>
      </trkpt>
      <trkpt lat="43.97013" lon="7.28022">
        <ele>1074</ele>
        <time>2018-07-28T13:23:46.000Z</time>
      </trkpt>
      <trkpt lat="43.97014" lon="7.28019">
        <ele>1074</ele>
        <time>2018-07-28T13:23:50.000Z</time>
      </trkpt>
      <trkpt lat="43.97015" lon="7.28018">
        <ele>1073</ele>
        <time>2018-07-28T13:23:55.000Z</time>
      </trkpt>
      <trkpt lat="43.97015" lon="7.28017">
        <ele>1073</ele>
        <time>2018-07-28T13:23:56.000Z</time>
      </trkpt>
      <trkpt lat="43.97016" lon="7.28015">
        <ele>1073</ele>
        <time>2018-07-28T13:24:03.000Z</time>
      </trkpt>
      <trkpt lat="43.97016" lon="7.2801">
        <ele>1072</ele>
        <time>2018-07-28T13:24:09.000Z</time>
      </trkpt>
      <trkpt lat="43.97016" lon="7.28004">
        <ele>1071</ele>
        <time>2018-07-28T13:24:15.000Z</time>
      </trkpt>
      <trkpt lat="43.97016" lon="7.28001">
        <ele>1071</ele>
        <time>2018-07-28T13:24:18.000Z</time>
      </trkpt>
      <trkpt lat="43.97016" lon="7.28">
        <ele>1071</ele>
        <time>2018-07-28T13:24:19.000Z</time>
      </trkpt>
      <trkpt lat="43.97016" lon="7.28">
        <ele>1069</ele>
        <time>2018-07-28T13:24:24.000Z</time>
      </trkpt>
      <trkpt lat="43.97015" lon="7.27991">
        <ele>1070</ele>
        <time>2018-07-28T13:24:29.000Z</time>
      </trkpt>
      <trkpt lat="43.97015" lon="7.27977">
        <ele>1072</ele>
        <time>2018-07-28T13:24:34.000Z</time>
      </trkpt>
      <trkpt lat="43.97014" lon="7.27974">
        <ele>1072</ele>
        <time>2018-07-28T13:24:35.000Z</time>
      </trkpt>
      <trkpt lat="43.97015" lon="7.27962">
        <ele>1073</ele>
        <time>2018-07-28T13:24:39.000Z</time>
      </trkpt>
      <trkpt lat="43.97014" lon="7.27944">
        <ele>1073</ele>
        <time>2018-07-28T13:24:43.000Z</time>
      </trkpt>
      <trkpt lat="43.97015" lon="7.27938">
        <ele>1072</ele>
        <time>2018-07-28T13:24:44.000Z</time>
      </trkpt>
      <trkpt lat="43.97016" lon="7.27925">
        <ele>1071</ele>
        <time>2018-07-28T13:24:47.000Z</time>
      </trkpt>
      <trkpt lat="43.97015" lon="7.27919">
        <ele>1070</ele>
        <time>2018-07-28T13:24:49.000Z</time>
      </trkpt>
      <trkpt lat="43.97016" lon="7.27915">
        <ele>1070</ele>
        <time>2018-07-28T13:24:51.000Z</time>
      </trkpt>
      <trkpt lat="43.97017" lon="7.27912">
        <ele>1071</ele>
        <time>2018-07-28T13:24:53.000Z</time>
      </trkpt>
      <trkpt lat="43.97017" lon="7.2791">
        <ele>1071</ele>
        <time>2018-07-28T13:24:54.000Z</time>
      </trkpt>
      <trkpt lat="43.97018" lon="7.27907">
        <ele>1071</ele>
        <time>2018-07-28T13:24:56.000Z</time>
      </trkpt>
      <trkpt lat="43.97018" lon="7.27907">
        <ele>1071</ele>
        <time>2018-07-28T13:24:57.000Z</time>
      </trkpt>
      <trkpt lat="43.97018" lon="7.27904">
        <ele>1072</ele>
        <time>2018-07-28T13:25:01.000Z</time>
      </trkpt>
      <trkpt lat="43.97018" lon="7.27903">
        <ele>1072</ele>
        <time>2018-07-28T13:25:07.000Z</time>
      </trkpt>
      <trkpt lat="43.97018" lon="7.27901">
        <ele>1072</ele>
        <time>2018-07-28T13:25:23.000Z</time>
      </trkpt>
      <trkpt lat="43.97018" lon="7.27899">
        <ele>1072</ele>
        <time>2018-07-28T13:25:43.000Z</time>
      </trkpt>
      <trkpt lat="43.97017" lon="7.27898">
        <ele>1072</ele>
        <time>2018-07-28T13:26:02.000Z</time>
      </trkpt>
      <trkpt lat="43.97016" lon="7.27896">
        <ele>1072</ele>
        <time>2018-07-28T13:26:20.000Z</time>
      </trkpt>
      <trkpt lat="43.97014" lon="7.27893">
        <ele>1072</ele>
        <time>2018-07-28T13:26:41.000Z</time>
      </trkpt>
      <trkpt lat="43.97013" lon="7.27889">
        <ele>1073</ele>
        <time>2018-07-28T13:26:59.000Z</time>
      </trkpt>
      <trkpt lat="43.97013" lon="7.27887">
        <ele>1073</ele>
        <time>2018-07-28T13:27:16.000Z</time>
      </trkpt>
      <trkpt lat="43.97011" lon="7.27886">
        <ele>1073</ele>
        <time>2018-07-28T13:27:39.000Z</time>
      </trkpt>
      <trkpt lat="43.97009" lon="7.27885">
        <ele>1072</ele>
        <time>2018-07-28T13:27:42.000Z</time>
      </trkpt>
      <trkpt lat="43.97008" lon="7.2788">
        <ele>1073</ele>
        <time>2018-07-28T13:27:45.000Z</time>
      </trkpt>
      <trkpt lat="43.97008" lon="7.27878">
        <ele>1073</ele>
        <time>2018-07-28T13:27:46.000Z</time>
      </trkpt>
      <trkpt lat="43.97008" lon="7.27877">
        <ele>1073</ele>
        <time>2018-07-28T13:27:47.000Z</time>
      </trkpt>
      <trkpt lat="43.97007" lon="7.27877">
        <ele>1073</ele>
        <time>2018-07-28T13:27:50.000Z</time>
      </trkpt>
      <trkpt lat="43.97007" lon="7.27878">
        <ele>1073</ele>
        <time>2018-07-28T13:27:51.000Z</time>
      </trkpt>
      <trkpt lat="43.97006" lon="7.2788">
        <ele>1072</ele>
        <time>2018-07-28T13:27:54.000Z</time>
      </trkpt>
      <trkpt lat="43.97005" lon="7.27882">
        <ele>1072</ele>
        <time>2018-07-28T13:27:57.000Z</time>
      </trkpt>
      <trkpt lat="43.97005" lon="7.27883">
        <ele>1072</ele>
        <time>2018-07-28T13:28:02.000Z</time>
      </trkpt>
      <trkpt lat="43.96999" lon="7.27891">
        <ele>1054</ele>
        <time>2018-07-28T13:28:06.000Z</time>
      </trkpt>
      <trkpt lat="43.96999" lon="7.27892">
        <ele>1054</ele>
        <time>2018-07-28T13:28:07.000Z</time>
      </trkpt>
      <trkpt lat="43.96999" lon="7.27893">
        <ele>1055</ele>
        <time>2018-07-28T13:28:08.000Z</time>
      </trkpt>
      <trkpt lat="43.96999" lon="7.27894">
        <ele>1055</ele>
        <time>2018-07-28T13:28:10.000Z</time>
      </trkpt>
      <trkpt lat="43.96998" lon="7.27896">
        <ele>1055</ele>
        <time>2018-07-28T13:28:12.000Z</time>
      </trkpt>
      <trkpt lat="43.96996" lon="7.27896">
        <ele>1055</ele>
        <time>2018-07-28T13:28:15.000Z</time>
      </trkpt>
      <trkpt lat="43.96996" lon="7.27896">
        <ele>1055</ele>
        <time>2018-07-28T13:28:17.000Z</time>
      </trkpt>
      <trkpt lat="43.96995" lon="7.27896">
        <ele>1055</ele>
        <time>2018-07-28T13:28:22.000Z</time>
      </trkpt>
      <trkpt lat="43.96994" lon="7.27896">
        <ele>1055</ele>
        <time>2018-07-28T13:28:31.000Z</time>
      </trkpt>
      <trkpt lat="43.96993" lon="7.27896">
        <ele>1054</ele>
        <time>2018-07-28T13:28:34.000Z</time>
      </trkpt>
      <trkpt lat="43.96993" lon="7.27896">
        <ele>1054</ele>
        <time>2018-07-28T13:28:36.000Z</time>
      </trkpt>
      <trkpt lat="43.96989" lon="7.27897">
        <ele>1054</ele>
        <time>2018-07-28T13:28:41.000Z</time>
      </trkpt>
      <trkpt lat="43.96988" lon="7.27898">
        <ele>1054</ele>
        <time>2018-07-28T13:28:45.000Z</time>
      </trkpt>
      <trkpt lat="43.96987" lon="7.27899">
        <ele>1054</ele>
        <time>2018-07-28T13:28:46.000Z</time>
      </trkpt>
      <trkpt lat="43.96979" lon="7.27905">
        <ele>1053</ele>
        <time>2018-07-28T13:28:50.000Z</time>
      </trkpt>
      <trkpt lat="43.96977" lon="7.27906">
        <ele>1052</ele>
        <time>2018-07-28T13:28:51.000Z</time>
      </trkpt>
      <trkpt lat="43.96971" lon="7.27906">
        <ele>1050</ele>
        <time>2018-07-28T13:28:53.000Z</time>
      </trkpt>
      <trkpt lat="43.96969" lon="7.27903">
        <ele>1050</ele>
        <time>2018-07-28T13:28:54.000Z</time>
      </trkpt>
      <trkpt lat="43.96967" lon="7.279">
        <ele>1049</ele>
        <time>2018-07-28T13:28:55.000Z</time>
      </trkpt>
      <trkpt lat="43.96963" lon="7.27898">
        <ele>1048</ele>
        <time>2018-07-28T13:28:57.000Z</time>
      </trkpt>
      <trkpt lat="43.9696" lon="7.27898">
        <ele>1047</ele>
        <time>2018-07-28T13:28:58.000Z</time>
      </trkpt>
      <trkpt lat="43.96957" lon="7.279">
        <ele>1046</ele>
        <time>2018-07-28T13:28:59.000Z</time>
      </trkpt>
      <trkpt lat="43.96954" lon="7.27904">
        <ele>1046</ele>
        <time>2018-07-28T13:29:01.000Z</time>
      </trkpt>
      <trkpt lat="43.96955" lon="7.27911">
        <ele>1046</ele>
        <time>2018-07-28T13:29:03.000Z</time>
      </trkpt>
      <trkpt lat="43.96959" lon="7.27917">
        <ele>1046</ele>
        <time>2018-07-28T13:29:05.000Z</time>
      </trkpt>
      <trkpt lat="43.96962" lon="7.27923">
        <ele>1047</ele>
        <time>2018-07-28T13:29:07.000Z</time>
      </trkpt>
      <trkpt lat="43.96963" lon="7.27927">
        <ele>1047</ele>
        <time>2018-07-28T13:29:08.000Z</time>
      </trkpt>
      <trkpt lat="43.96963" lon="7.27931">
        <ele>1047</ele>
        <time>2018-07-28T13:29:09.000Z</time>
      </trkpt>
      <trkpt lat="43.96963" lon="7.27934">
        <ele>1047</ele>
        <time>2018-07-28T13:29:10.000Z</time>
      </trkpt>
      <trkpt lat="43.9696" lon="7.27947">
        <ele>1046</ele>
        <time>2018-07-28T13:29:14.000Z</time>
      </trkpt>
      <trkpt lat="43.96959" lon="7.27952">
        <ele>1045</ele>
        <time>2018-07-28T13:29:16.000Z</time>
      </trkpt>
      <trkpt lat="43.96959" lon="7.27953">
        <ele>1045</ele>
        <time>2018-07-28T13:29:17.000Z</time>
      </trkpt>
      <trkpt lat="43.9696" lon="7.27955">
        <ele>1046</ele>
        <time>2018-07-28T13:29:18.000Z</time>
      </trkpt>
      <trkpt lat="43.9696" lon="7.2796">
        <ele>1046</ele>
        <time>2018-07-28T13:29:20.000Z</time>
      </trkpt>
      <trkpt lat="43.96959" lon="7.27964">
        <ele>1045</ele>
        <time>2018-07-28T13:29:22.000Z</time>
      </trkpt>
      <trkpt lat="43.96958" lon="7.27965">
        <ele>1045</ele>
        <time>2018-07-28T13:29:23.000Z</time>
      </trkpt>
      <trkpt lat="43.96953" lon="7.27966">
        <ele>1044</ele>
        <time>2018-07-28T13:29:26.000Z</time>
      </trkpt>
      <trkpt lat="43.9695" lon="7.27968">
        <ele>1043</ele>
        <time>2018-07-28T13:29:27.000Z</time>
      </trkpt>
      <trkpt lat="43.96948" lon="7.27974">
        <ele>1043</ele>
        <time>2018-07-28T13:29:29.000Z</time>
      </trkpt>
      <trkpt lat="43.96945" lon="7.27983">
        <ele>1041</ele>
        <time>2018-07-28T13:29:31.000Z</time>
      </trkpt>
      <trkpt lat="43.96944" lon="7.27985">
        <ele>1041</ele>
        <time>2018-07-28T13:29:32.000Z</time>
      </trkpt>
      <trkpt lat="43.96943" lon="7.27987">
        <ele>1041</ele>
        <time>2018-07-28T13:29:34.000Z</time>
      </trkpt>
      <trkpt lat="43.96942" lon="7.27989">
        <ele>1040</ele>
        <time>2018-07-28T13:29:38.000Z</time>
      </trkpt>
      <trkpt lat="43.96939" lon="7.27993">
        <ele>1039</ele>
        <time>2018-07-28T13:29:44.000Z</time>
      </trkpt>
      <trkpt lat="43.96935" lon="7.28001">
        <ele>1039</ele>
        <time>2018-07-28T13:29:58.000Z</time>
      </trkpt>
      <trkpt lat="43.96933" lon="7.28004">
        <ele>1038</ele>
        <time>2018-07-28T13:30:10.000Z</time>
      </trkpt>
      <trkpt lat="43.96928" lon="7.28012">
        <ele>1038</ele>
        <time>2018-07-28T13:30:14.000Z</time>
      </trkpt>
      <trkpt lat="43.96924" lon="7.28019">
        <ele>1039</ele>
        <time>2018-07-28T13:30:17.000Z</time>
      </trkpt>
      <trkpt lat="43.96922" lon="7.28021">
        <ele>1039</ele>
        <time>2018-07-28T13:30:19.000Z</time>
      </trkpt>
      <trkpt lat="43.96918" lon="7.28021">
        <ele>1039</ele>
        <time>2018-07-28T13:30:21.000Z</time>
      </trkpt>
      <trkpt lat="43.96916" lon="7.28022">
        <ele>1022</ele>
        <time>2018-07-28T13:30:22.000Z</time>
      </trkpt>
      <trkpt lat="43.96911" lon="7.28029">
        <ele>1021</ele>
        <time>2018-07-28T13:30:24.000Z</time>
      </trkpt>
      <trkpt lat="43.96907" lon="7.28036">
        <ele>1021</ele>
        <time>2018-07-28T13:30:26.000Z</time>
      </trkpt>
      <trkpt lat="43.96905" lon="7.28039">
        <ele>1020</ele>
        <time>2018-07-28T13:30:27.000Z</time>
      </trkpt>
      <trkpt lat="43.96898" lon="7.2805">
        <ele>1020</ele>
        <time>2018-07-28T13:30:30.000Z</time>
      </trkpt>
      <trkpt lat="43.96894" lon="7.28053">
        <ele>1020</ele>
        <time>2018-07-28T13:30:32.000Z</time>
      </trkpt>
      <trkpt lat="43.96893" lon="7.28053">
        <ele>1020</ele>
        <time>2018-07-28T13:30:33.000Z</time>
      </trkpt>
      <trkpt lat="43.96889" lon="7.28056">
        <ele>1019</ele>
        <time>2018-07-28T13:30:35.000Z</time>
      </trkpt>
      <trkpt lat="43.96884" lon="7.28063">
        <ele>1019</ele>
        <time>2018-07-28T13:30:37.000Z</time>
      </trkpt>
      <trkpt lat="43.96883" lon="7.28067">
        <ele>1018</ele>
        <time>2018-07-28T13:30:38.000Z</time>
      </trkpt>
      <trkpt lat="43.96881" lon="7.28072">
        <ele>1018</ele>
        <time>2018-07-28T13:30:39.000Z</time>
      </trkpt>
      <trkpt lat="43.9688" lon="7.28077">
        <ele>1018</ele>
        <time>2018-07-28T13:30:40.000Z</time>
      </trkpt>
      <trkpt lat="43.96877" lon="7.28096">
        <ele>1023</ele>
        <time>2018-07-28T13:30:44.000Z</time>
      </trkpt>
      <trkpt lat="43.96876" lon="7.281">
        <ele>1023</ele>
        <time>2018-07-28T13:30:45.000Z</time>
      </trkpt>
      <trkpt lat="43.96872" lon="7.28107">
        <ele>1022</ele>
        <time>2018-07-28T13:30:47.000Z</time>
      </trkpt>
      <trkpt lat="43.96869" lon="7.28117">
        <ele>1022</ele>
        <time>2018-07-28T13:30:49.000Z</time>
      </trkpt>
      <trkpt lat="43.96867" lon="7.28123">
        <ele>1022</ele>
        <time>2018-07-28T13:30:51.000Z</time>
      </trkpt>
      <trkpt lat="43.96866" lon="7.28127">
        <ele>1022</ele>
        <time>2018-07-28T13:30:52.000Z</time>
      </trkpt>
      <trkpt lat="43.96862" lon="7.28136">
        <ele>1022</ele>
        <time>2018-07-28T13:30:55.000Z</time>
      </trkpt>
      <trkpt lat="43.9686" lon="7.28141">
        <ele>1022</ele>
        <time>2018-07-28T13:30:57.000Z</time>
      </trkpt>
      <trkpt lat="43.96855" lon="7.28145">
        <ele>1021</ele>
        <time>2018-07-28T13:31:00.000Z</time>
      </trkpt>
      <trkpt lat="43.96852" lon="7.28155">
        <ele>1020</ele>
        <time>2018-07-28T13:31:04.000Z</time>
      </trkpt>
      <trkpt lat="43.96851" lon="7.28158">
        <ele>1019</ele>
        <time>2018-07-28T13:31:05.000Z</time>
      </trkpt>
      <trkpt lat="43.96845" lon="7.28176">
        <ele>1024</ele>
        <time>2018-07-28T13:31:10.000Z</time>
      </trkpt>
      <trkpt lat="43.9684" lon="7.28193">
        <ele>1028</ele>
        <time>2018-07-28T13:31:15.000Z</time>
      </trkpt>
      <trkpt lat="43.96835" lon="7.28206">
        <ele>1030</ele>
        <time>2018-07-28T13:31:20.000Z</time>
      </trkpt>
      <trkpt lat="43.96835" lon="7.28208">
        <ele>1030</ele>
        <time>2018-07-28T13:31:21.000Z</time>
      </trkpt>
      <trkpt lat="43.96833" lon="7.28212">
        <ele>1012</ele>
        <time>2018-07-28T13:31:24.000Z</time>
      </trkpt>
      <trkpt lat="43.96829" lon="7.28221">
        <ele>1014</ele>
        <time>2018-07-28T13:31:29.000Z</time>
      </trkpt>
      <trkpt lat="43.96828" lon="7.28223">
        <ele>1014</ele>
        <time>2018-07-28T13:31:30.000Z</time>
      </trkpt>
      <trkpt lat="43.96824" lon="7.28226">
        <ele>1014</ele>
        <time>2018-07-28T13:31:31.000Z</time>
      </trkpt>
      <trkpt lat="43.96818" lon="7.28232">
        <ele>1014</ele>
        <time>2018-07-28T13:31:33.000Z</time>
      </trkpt>
      <trkpt lat="43.96809" lon="7.28246">
        <ele>1014</ele>
        <time>2018-07-28T13:31:38.000Z</time>
      </trkpt>
      <trkpt lat="43.96808" lon="7.28249">
        <ele>1014</ele>
        <time>2018-07-28T13:31:39.000Z</time>
      </trkpt>
      <trkpt lat="43.96803" lon="7.28254">
        <ele>1022</ele>
        <time>2018-07-28T13:31:43.000Z</time>
      </trkpt>
      <trkpt lat="43.968" lon="7.28257">
        <ele>1022</ele>
        <time>2018-07-28T13:31:45.000Z</time>
      </trkpt>
      <trkpt lat="43.96794" lon="7.28261">
        <ele>1021</ele>
        <time>2018-07-28T13:31:48.000Z</time>
      </trkpt>
      <trkpt lat="43.96787" lon="7.28266">
        <ele>1019</ele>
        <time>2018-07-28T13:31:52.000Z</time>
      </trkpt>
      <trkpt lat="43.96784" lon="7.2827">
        <ele>1019</ele>
        <time>2018-07-28T13:31:57.000Z</time>
      </trkpt>
      <trkpt lat="43.9678" lon="7.28275">
        <ele>1019</ele>
        <time>2018-07-28T13:32:05.000Z</time>
      </trkpt>
      <trkpt lat="43.96772" lon="7.28286">
        <ele>1019</ele>
        <time>2018-07-28T13:32:11.000Z</time>
      </trkpt>
      <trkpt lat="43.96763" lon="7.28302">
        <ele>1020</ele>
        <time>2018-07-28T13:32:16.000Z</time>
      </trkpt>
      <trkpt lat="43.96759" lon="7.28312">
        <ele>1019</ele>
        <time>2018-07-28T13:32:19.000Z</time>
      </trkpt>
      <trkpt lat="43.96757" lon="7.28315">
        <ele>1019</ele>
        <time>2018-07-28T13:32:20.000Z</time>
      </trkpt>
      <trkpt lat="43.96756" lon="7.28318">
        <ele>1019</ele>
        <time>2018-07-28T13:32:21.000Z</time>
      </trkpt>
      <trkpt lat="43.96754" lon="7.28325">
        <ele>1018</ele>
        <time>2018-07-28T13:32:23.000Z</time>
      </trkpt>
      <trkpt lat="43.96749" lon="7.28339">
        <ele>1015</ele>
        <time>2018-07-28T13:32:26.000Z</time>
      </trkpt>
      <trkpt lat="43.96743" lon="7.28354">
        <ele>1013</ele>
        <time>2018-07-28T13:32:30.000Z</time>
      </trkpt>
      <trkpt lat="43.96741" lon="7.28357">
        <ele>1013</ele>
        <time>2018-07-28T13:32:31.000Z</time>
      </trkpt>
      <trkpt lat="43.9673" lon="7.28376">
        <ele>1014</ele>
        <time>2018-07-28T13:32:37.000Z</time>
      </trkpt>
      <trkpt lat="43.96724" lon="7.28391">
        <ele>1016</ele>
        <time>2018-07-28T13:32:42.000Z</time>
      </trkpt>
      <trkpt lat="43.96713" lon="7.28402">
        <ele>1015</ele>
        <time>2018-07-28T13:32:47.000Z</time>
      </trkpt>
      <trkpt lat="43.96703" lon="7.28409">
        <ele>1013</ele>
        <time>2018-07-28T13:32:52.000Z</time>
      </trkpt>
      <trkpt lat="43.96701" lon="7.2841">
        <ele>1012</ele>
        <time>2018-07-28T13:32:53.000Z</time>
      </trkpt>
      <trkpt lat="43.96698" lon="7.28412">
        <ele>1012</ele>
        <time>2018-07-28T13:32:55.000Z</time>
      </trkpt>
      <trkpt lat="43.96694" lon="7.28413">
        <ele>1011</ele>
        <time>2018-07-28T13:32:57.000Z</time>
      </trkpt>
      <trkpt lat="43.96691" lon="7.28412">
        <ele>1010</ele>
        <time>2018-07-28T13:32:58.000Z</time>
      </trkpt>
      <trkpt lat="43.96684" lon="7.28414">
        <ele>1009</ele>
        <time>2018-07-28T13:33:01.000Z</time>
      </trkpt>
      <trkpt lat="43.96673" lon="7.28417">
        <ele>1014</ele>
        <time>2018-07-28T13:33:04.000Z</time>
      </trkpt>
      <trkpt lat="43.9667" lon="7.28418">
        <ele>1011</ele>
        <time>2018-07-28T13:33:05.000Z</time>
      </trkpt>
      <trkpt lat="43.96665" lon="7.2842">
        <ele>1007</ele>
        <time>2018-07-28T13:33:07.000Z</time>
      </trkpt>
      <trkpt lat="43.96664" lon="7.2842">
        <ele>1007</ele>
        <time>2018-07-28T13:33:08.000Z</time>
      </trkpt>
      <trkpt lat="43.96655" lon="7.28428">
        <ele>1007</ele>
        <time>2018-07-28T13:33:13.000Z</time>
      </trkpt>
      <trkpt lat="43.96644" lon="7.28439">
        <ele>1007</ele>
        <time>2018-07-28T13:33:17.000Z</time>
      </trkpt>
      <trkpt lat="43.96634" lon="7.28451">
        <ele>1007</ele>
        <time>2018-07-28T13:33:21.000Z</time>
      </trkpt>
      <trkpt lat="43.96629" lon="7.28456">
        <ele>1007</ele>
        <time>2018-07-28T13:33:23.000Z</time>
      </trkpt>
      <trkpt lat="43.96626" lon="7.28458">
        <ele>1007</ele>
        <time>2018-07-28T13:33:24.000Z</time>
      </trkpt>
      <trkpt lat="43.96624" lon="7.2846">
        <ele>1007</ele>
        <time>2018-07-28T13:33:25.000Z</time>
      </trkpt>
      <trkpt lat="43.96609" lon="7.28464">
        <ele>1005</ele>
        <time>2018-07-28T13:33:30.000Z</time>
      </trkpt>
      <trkpt lat="43.96593" lon="7.28467">
        <ele>1003</ele>
        <time>2018-07-28T13:33:34.000Z</time>
      </trkpt>
      <trkpt lat="43.96589" lon="7.28469">
        <ele>1003</ele>
        <time>2018-07-28T13:33:35.000Z</time>
      </trkpt>
      <trkpt lat="43.96584" lon="7.2847">
        <ele>1003</ele>
        <time>2018-07-28T13:33:36.000Z</time>
      </trkpt>
      <trkpt lat="43.9658" lon="7.28472">
        <ele>983</ele>
        <time>2018-07-28T13:33:37.000Z</time>
      </trkpt>
      <trkpt lat="43.96576" lon="7.28474">
        <ele>983</ele>
        <time>2018-07-28T13:33:38.000Z</time>
      </trkpt>
      <trkpt lat="43.96572" lon="7.28476">
        <ele>983</ele>
        <time>2018-07-28T13:33:39.000Z</time>
      </trkpt>
      <trkpt lat="43.96568" lon="7.28479">
        <ele>983</ele>
        <time>2018-07-28T13:33:40.000Z</time>
      </trkpt>
      <trkpt lat="43.96565" lon="7.28484">
        <ele>983</ele>
        <time>2018-07-28T13:33:41.000Z</time>
      </trkpt>
      <trkpt lat="43.96561" lon="7.28488">
        <ele>983</ele>
        <time>2018-07-28T13:33:42.000Z</time>
      </trkpt>
      <trkpt lat="43.96558" lon="7.28491">
        <ele>982</ele>
        <time>2018-07-28T13:33:43.000Z</time>
      </trkpt>
      <trkpt lat="43.96556" lon="7.28494">
        <ele>981</ele>
        <time>2018-07-28T13:33:44.000Z</time>
      </trkpt>
      <trkpt lat="43.96555" lon="7.28498">
        <ele>981</ele>
        <time>2018-07-28T13:33:45.000Z</time>
      </trkpt>
      <trkpt lat="43.96553" lon="7.28504">
        <ele>988</ele>
        <time>2018-07-28T13:33:46.000Z</time>
      </trkpt>
      <trkpt lat="43.9655" lon="7.28513">
        <ele>987</ele>
        <time>2018-07-28T13:33:48.000Z</time>
      </trkpt>
      <trkpt lat="43.9655" lon="7.28518">
        <ele>986</ele>
        <time>2018-07-28T13:33:49.000Z</time>
      </trkpt>
      <trkpt lat="43.96547" lon="7.28525">
        <ele>985</ele>
        <time>2018-07-28T13:33:51.000Z</time>
      </trkpt>
      <trkpt lat="43.96544" lon="7.28526">
        <ele>985</ele>
        <time>2018-07-28T13:33:52.000Z</time>
      </trkpt>
      <trkpt lat="43.9654" lon="7.28523">
        <ele>984</ele>
        <time>2018-07-28T13:33:54.000Z</time>
      </trkpt>
      <trkpt lat="43.96538" lon="7.28518">
        <ele>983</ele>
        <time>2018-07-28T13:33:56.000Z</time>
      </trkpt>
      <trkpt lat="43.96535" lon="7.28512">
        <ele>981</ele>
        <time>2018-07-28T13:33:58.000Z</time>
      </trkpt>
      <trkpt lat="43.96531" lon="7.2851">
        <ele>980</ele>
        <time>2018-07-28T13:34:01.000Z</time>
      </trkpt>
      <trkpt lat="43.96529" lon="7.28516">
        <ele>979</ele>
        <time>2018-07-28T13:34:03.000Z</time>
      </trkpt>
      <trkpt lat="43.96528" lon="7.28521">
        <ele>980</ele>
        <time>2018-07-28T13:34:04.000Z</time>
      </trkpt>
      <trkpt lat="43.96527" lon="7.28524">
        <ele>980</ele>
        <time>2018-07-28T13:34:05.000Z</time>
      </trkpt>
      <trkpt lat="43.96523" lon="7.28523">
        <ele>979</ele>
        <time>2018-07-28T13:34:07.000Z</time>
      </trkpt>
      <trkpt lat="43.96522" lon="7.28518">
        <ele>978</ele>
        <time>2018-07-28T13:34:09.000Z</time>
      </trkpt>
      <trkpt lat="43.96521" lon="7.28518">
        <ele>977</ele>
        <time>2018-07-28T13:34:10.000Z</time>
      </trkpt>
      <trkpt lat="43.9652" lon="7.2852">
        <ele>977</ele>
        <time>2018-07-28T13:34:12.000Z</time>
      </trkpt>
      <trkpt lat="43.96519" lon="7.28522">
        <ele>977</ele>
        <time>2018-07-28T13:34:13.000Z</time>
      </trkpt>
      <trkpt lat="43.96518" lon="7.28523">
        <ele>977</ele>
        <time>2018-07-28T13:34:14.000Z</time>
      </trkpt>
      <trkpt lat="43.96515" lon="7.28526">
        <ele>977</ele>
        <time>2018-07-28T13:34:17.000Z</time>
      </trkpt>
      <trkpt lat="43.96514" lon="7.28527">
        <ele>977</ele>
        <time>2018-07-28T13:34:18.000Z</time>
      </trkpt>
      <trkpt lat="43.96514" lon="7.2853">
        <ele>977</ele>
        <time>2018-07-28T13:34:20.000Z</time>
      </trkpt>
      <trkpt lat="43.96514" lon="7.28536">
        <ele>978</ele>
        <time>2018-07-28T13:34:22.000Z</time>
      </trkpt>
      <trkpt lat="43.96512" lon="7.28546">
        <ele>978</ele>
        <time>2018-07-28T13:34:25.000Z</time>
      </trkpt>
      <trkpt lat="43.96509" lon="7.28555">
        <ele>978</ele>
        <time>2018-07-28T13:34:27.000Z</time>
      </trkpt>
      <trkpt lat="43.96507" lon="7.28566">
        <ele>976</ele>
        <time>2018-07-28T13:34:29.000Z</time>
      </trkpt>
      <trkpt lat="43.96505" lon="7.28571">
        <ele>974</ele>
        <time>2018-07-28T13:34:30.000Z</time>
      </trkpt>
      <trkpt lat="43.96501" lon="7.28571">
        <ele>974</ele>
        <time>2018-07-28T13:34:31.000Z</time>
      </trkpt>
      <trkpt lat="43.96498" lon="7.28574">
        <ele>962</ele>
        <time>2018-07-28T13:34:32.000Z</time>
      </trkpt>
      <trkpt lat="43.96496" lon="7.28583">
        <ele>965</ele>
        <time>2018-07-28T13:34:34.000Z</time>
      </trkpt>
      <trkpt lat="43.96495" lon="7.28586">
        <ele>964</ele>
        <time>2018-07-28T13:34:35.000Z</time>
      </trkpt>
      <trkpt lat="43.96495" lon="7.28587">
        <ele>963</ele>
        <time>2018-07-28T13:34:37.000Z</time>
      </trkpt>
      <trkpt lat="43.96495" lon="7.28587">
        <ele>963</ele>
        <time>2018-07-28T13:34:38.000Z</time>
      </trkpt>
      <trkpt lat="43.96495" lon="7.28588">
        <ele>963</ele>
        <time>2018-07-28T13:34:40.000Z</time>
      </trkpt>
      <trkpt lat="43.96494" lon="7.28589">
        <ele>962</ele>
        <time>2018-07-28T13:34:49.000Z</time>
      </trkpt>
      <trkpt lat="43.96493" lon="7.2859">
        <ele>961</ele>
        <time>2018-07-28T13:34:59.000Z</time>
      </trkpt>
      <trkpt lat="43.96492" lon="7.28591">
        <ele>960</ele>
        <time>2018-07-28T13:35:07.000Z</time>
      </trkpt>
      <trkpt lat="43.96493" lon="7.286">
        <ele>957</ele>
        <time>2018-07-28T13:35:13.000Z</time>
      </trkpt>
      <trkpt lat="43.96496" lon="7.28619">
        <ele>953</ele>
        <time>2018-07-28T13:35:18.000Z</time>
      </trkpt>
      <trkpt lat="43.96496" lon="7.28625">
        <ele>952</ele>
        <time>2018-07-28T13:35:20.000Z</time>
      </trkpt>
      <trkpt lat="43.96493" lon="7.28631">
        <ele>952</ele>
        <time>2018-07-28T13:35:22.000Z</time>
      </trkpt>
      <trkpt lat="43.96493" lon="7.28634">
        <ele>952</ele>
        <time>2018-07-28T13:35:23.000Z</time>
      </trkpt>
      <trkpt lat="43.96494" lon="7.28645">
        <ele>953</ele>
        <time>2018-07-28T13:35:25.000Z</time>
      </trkpt>
      <trkpt lat="43.96496" lon="7.28649">
        <ele>954</ele>
        <time>2018-07-28T13:35:26.000Z</time>
      </trkpt>
      <trkpt lat="43.96499" lon="7.28654">
        <ele>955</ele>
        <time>2018-07-28T13:35:27.000Z</time>
      </trkpt>
      <trkpt lat="43.96501" lon="7.28663">
        <ele>963</ele>
        <time>2018-07-28T13:35:29.000Z</time>
      </trkpt>
      <trkpt lat="43.96502" lon="7.28672">
        <ele>962</ele>
        <time>2018-07-28T13:35:31.000Z</time>
      </trkpt>
      <trkpt lat="43.96502" lon="7.2868">
        <ele>963</ele>
        <time>2018-07-28T13:35:33.000Z</time>
      </trkpt>
      <trkpt lat="43.96502" lon="7.28683">
        <ele>963</ele>
        <time>2018-07-28T13:35:34.000Z</time>
      </trkpt>
      <trkpt lat="43.96503" lon="7.28687">
        <ele>963</ele>
        <time>2018-07-28T13:35:35.000Z</time>
      </trkpt>
      <trkpt lat="43.96502" lon="7.28694">
        <ele>963</ele>
        <time>2018-07-28T13:35:37.000Z</time>
      </trkpt>
      <trkpt lat="43.96504" lon="7.28704">
        <ele>963</ele>
        <time>2018-07-28T13:35:40.000Z</time>
      </trkpt>
      <trkpt lat="43.96505" lon="7.28708">
        <ele>962</ele>
        <time>2018-07-28T13:35:41.000Z</time>
      </trkpt>
      <trkpt lat="43.96505" lon="7.28712">
        <ele>962</ele>
        <time>2018-07-28T13:35:42.000Z</time>
      </trkpt>
      <trkpt lat="43.96505" lon="7.28716">
        <ele>961</ele>
        <time>2018-07-28T13:35:43.000Z</time>
      </trkpt>
      <trkpt lat="43.96505" lon="7.28719">
        <ele>960</ele>
        <time>2018-07-28T13:35:44.000Z</time>
      </trkpt>
      <trkpt lat="43.96504" lon="7.28729">
        <ele>957</ele>
        <time>2018-07-28T13:35:47.000Z</time>
      </trkpt>
      <trkpt lat="43.96505" lon="7.28733">
        <ele>955</ele>
        <time>2018-07-28T13:35:48.000Z</time>
      </trkpt>
      <trkpt lat="43.96506" lon="7.28735">
        <ele>954</ele>
        <time>2018-07-28T13:35:49.000Z</time>
      </trkpt>
      <trkpt lat="43.96508" lon="7.28741">
        <ele>952</ele>
        <time>2018-07-28T13:35:51.000Z</time>
      </trkpt>
      <trkpt lat="43.96508" lon="7.28745">
        <ele>950</ele>
        <time>2018-07-28T13:35:52.000Z</time>
      </trkpt>
      <trkpt lat="43.96508" lon="7.28748">
        <ele>950</ele>
        <time>2018-07-28T13:35:53.000Z</time>
      </trkpt>
      <trkpt lat="43.96509" lon="7.28759">
        <ele>947</ele>
        <time>2018-07-28T13:35:55.000Z</time>
      </trkpt>
      <trkpt lat="43.96509" lon="7.2877">
        <ele>949</ele>
        <time>2018-07-28T13:35:57.000Z</time>
      </trkpt>
      <trkpt lat="43.96508" lon="7.28776">
        <ele>949</ele>
        <time>2018-07-28T13:35:58.000Z</time>
      </trkpt>
      <trkpt lat="43.96505" lon="7.28788">
        <ele>948</ele>
        <time>2018-07-28T13:36:00.000Z</time>
      </trkpt>
      <trkpt lat="43.96504" lon="7.28794">
        <ele>948</ele>
        <time>2018-07-28T13:36:01.000Z</time>
      </trkpt>
      <trkpt lat="43.96504" lon="7.28799">
        <ele>947</ele>
        <time>2018-07-28T13:36:02.000Z</time>
      </trkpt>
      <trkpt lat="43.96505" lon="7.28803">
        <ele>946</ele>
        <time>2018-07-28T13:36:03.000Z</time>
      </trkpt>
      <trkpt lat="43.96506" lon="7.28807">
        <ele>945</ele>
        <time>2018-07-28T13:36:04.000Z</time>
      </trkpt>
      <trkpt lat="43.96507" lon="7.28818">
        <ele>942</ele>
        <time>2018-07-28T13:36:06.000Z</time>
      </trkpt>
      <trkpt lat="43.96506" lon="7.28822">
        <ele>940</ele>
        <time>2018-07-28T13:36:07.000Z</time>
      </trkpt>
      <trkpt lat="43.96505" lon="7.28838">
        <ele>932</ele>
        <time>2018-07-28T13:36:10.000Z</time>
      </trkpt>
      <trkpt lat="43.96506" lon="7.28843">
        <ele>932</ele>
        <time>2018-07-28T13:36:11.000Z</time>
      </trkpt>
      <trkpt lat="43.96509" lon="7.28851">
        <ele>933</ele>
        <time>2018-07-28T13:36:13.000Z</time>
      </trkpt>
      <trkpt lat="43.9651" lon="7.28856">
        <ele>933</ele>
        <time>2018-07-28T13:36:14.000Z</time>
      </trkpt>
      <trkpt lat="43.9651" lon="7.2886">
        <ele>933</ele>
        <time>2018-07-28T13:36:15.000Z</time>
      </trkpt>
      <trkpt lat="43.96513" lon="7.28869">
        <ele>932</ele>
        <time>2018-07-28T13:36:17.000Z</time>
      </trkpt>
      <trkpt lat="43.96513" lon="7.28874">
        <ele>932</ele>
        <time>2018-07-28T13:36:18.000Z</time>
      </trkpt>
      <trkpt lat="43.96513" lon="7.28881">
        <ele>930</ele>
        <time>2018-07-28T13:36:20.000Z</time>
      </trkpt>
      <trkpt lat="43.96511" lon="7.28886">
        <ele>928</ele>
        <time>2018-07-28T13:36:22.000Z</time>
      </trkpt>
      <trkpt lat="43.96511" lon="7.28889">
        <ele>928</ele>
        <time>2018-07-28T13:36:23.000Z</time>
      </trkpt>
      <trkpt lat="43.96513" lon="7.28895">
        <ele>926</ele>
        <time>2018-07-28T13:36:25.000Z</time>
      </trkpt>
      <trkpt lat="43.96516" lon="7.28901">
        <ele>924</ele>
        <time>2018-07-28T13:36:27.000Z</time>
      </trkpt>
      <trkpt lat="43.96517" lon="7.28905">
        <ele>924</ele>
        <time>2018-07-28T13:36:28.000Z</time>
      </trkpt>
      <trkpt lat="43.96517" lon="7.28909">
        <ele>923</ele>
        <time>2018-07-28T13:36:29.000Z</time>
      </trkpt>
      <trkpt lat="43.96517" lon="7.28913">
        <ele>922</ele>
        <time>2018-07-28T13:36:30.000Z</time>
      </trkpt>
      <trkpt lat="43.96517" lon="7.28914">
        <ele>922</ele>
        <time>2018-07-28T13:36:32.000Z</time>
      </trkpt>
      <trkpt lat="43.96518" lon="7.28915">
        <ele>922</ele>
        <time>2018-07-28T13:36:33.000Z</time>
      </trkpt>
      <trkpt lat="43.96518" lon="7.28915">
        <ele>922</ele>
        <time>2018-07-28T13:36:34.000Z</time>
      </trkpt>
      <trkpt lat="43.96519" lon="7.28918">
        <ele>912</ele>
        <time>2018-07-28T13:36:40.000Z</time>
      </trkpt>
      <trkpt lat="43.9652" lon="7.28919">
        <ele>912</ele>
        <time>2018-07-28T13:36:44.000Z</time>
      </trkpt>
      <trkpt lat="43.96521" lon="7.28923">
        <ele>912</ele>
        <time>2018-07-28T13:36:48.000Z</time>
      </trkpt>
      <trkpt lat="43.96524" lon="7.28932">
        <ele>913</ele>
        <time>2018-07-28T13:36:52.000Z</time>
      </trkpt>
      <trkpt lat="43.96523" lon="7.28935">
        <ele>913</ele>
        <time>2018-07-28T13:36:53.000Z</time>
      </trkpt>
      <trkpt lat="43.9652" lon="7.28942">
        <ele>912</ele>
        <time>2018-07-28T13:36:56.000Z</time>
      </trkpt>
      <trkpt lat="43.9652" lon="7.28945">
        <ele>911</ele>
        <time>2018-07-28T13:36:57.000Z</time>
      </trkpt>
      <trkpt lat="43.9652" lon="7.28949">
        <ele>911</ele>
        <time>2018-07-28T13:36:59.000Z</time>
      </trkpt>
      <trkpt lat="43.9652" lon="7.28952">
        <ele>910</ele>
        <time>2018-07-28T13:37:00.000Z</time>
      </trkpt>
      <trkpt lat="43.9652" lon="7.28955">
        <ele>910</ele>
        <time>2018-07-28T13:37:01.000Z</time>
      </trkpt>
      <trkpt lat="43.96519" lon="7.28961">
        <ele>909</ele>
        <time>2018-07-28T13:37:03.000Z</time>
      </trkpt>
      <trkpt lat="43.96519" lon="7.28968">
        <ele>908</ele>
        <time>2018-07-28T13:37:05.000Z</time>
      </trkpt>
      <trkpt lat="43.96519" lon="7.28971">
        <ele>907</ele>
        <time>2018-07-28T13:37:06.000Z</time>
      </trkpt>
      <trkpt lat="43.9652" lon="7.28976">
        <ele>906</ele>
        <time>2018-07-28T13:37:08.000Z</time>
      </trkpt>
      <trkpt lat="43.96521" lon="7.28979">
        <ele>905</ele>
        <time>2018-07-28T13:37:09.000Z</time>
      </trkpt>
      <trkpt lat="43.96524" lon="7.28986">
        <ele>905</ele>
        <time>2018-07-28T13:37:11.000Z</time>
      </trkpt>
      <trkpt lat="43.96526" lon="7.28993">
        <ele>905</ele>
        <time>2018-07-28T13:37:13.000Z</time>
      </trkpt>
      <trkpt lat="43.96526" lon="7.28996">
        <ele>904</ele>
        <time>2018-07-28T13:37:14.000Z</time>
      </trkpt>
      <trkpt lat="43.96526" lon="7.29">
        <ele>904</ele>
        <time>2018-07-28T13:37:15.000Z</time>
      </trkpt>
      <trkpt lat="43.96527" lon="7.29007">
        <ele>887</ele>
        <time>2018-07-28T13:37:17.000Z</time>
      </trkpt>
      <trkpt lat="43.96529" lon="7.29012">
        <ele>886</ele>
        <time>2018-07-28T13:37:19.000Z</time>
      </trkpt>
      <trkpt lat="43.96533" lon="7.29019">
        <ele>886</ele>
        <time>2018-07-28T13:37:22.000Z</time>
      </trkpt>
      <trkpt lat="43.9654" lon="7.29023">
        <ele>887</ele>
        <time>2018-07-28T13:37:25.000Z</time>
      </trkpt>
      <trkpt lat="43.96543" lon="7.29025">
        <ele>887</ele>
        <time>2018-07-28T13:37:26.000Z</time>
      </trkpt>
      <trkpt lat="43.9655" lon="7.29034">
        <ele>887</ele>
        <time>2018-07-28T13:37:30.000Z</time>
      </trkpt>
      <trkpt lat="43.9655" lon="7.29036">
        <ele>886</ele>
        <time>2018-07-28T13:37:31.000Z</time>
      </trkpt>
      <trkpt lat="43.9655" lon="7.29038">
        <ele>886</ele>
        <time>2018-07-28T13:37:32.000Z</time>
      </trkpt>
      <trkpt lat="43.96552" lon="7.29044">
        <ele>884</ele>
        <time>2018-07-28T13:37:35.000Z</time>
      </trkpt>
      <trkpt lat="43.96551" lon="7.29045">
        <ele>884</ele>
        <time>2018-07-28T13:37:36.000Z</time>
      </trkpt>
      <trkpt lat="43.9655" lon="7.29046">
        <ele>884</ele>
        <time>2018-07-28T13:37:37.000Z</time>
      </trkpt>
      <trkpt lat="43.96546" lon="7.29046">
        <ele>883</ele>
        <time>2018-07-28T13:37:39.000Z</time>
      </trkpt>
      <trkpt lat="43.96547" lon="7.29048">
        <ele>882</ele>
        <time>2018-07-28T13:37:41.000Z</time>
      </trkpt>
      <trkpt lat="43.96548" lon="7.2905">
        <ele>882</ele>
        <time>2018-07-28T13:37:42.000Z</time>
      </trkpt>
      <trkpt lat="43.96552" lon="7.29054">
        <ele>882</ele>
        <time>2018-07-28T13:37:44.000Z</time>
      </trkpt>
      <trkpt lat="43.96552" lon="7.29055">
        <ele>882</ele>
        <time>2018-07-28T13:37:46.000Z</time>
      </trkpt>
      <trkpt lat="43.96553" lon="7.29056">
        <ele>881</ele>
        <time>2018-07-28T13:37:50.000Z</time>
      </trkpt>
      <trkpt lat="43.96553" lon="7.29058">
        <ele>881</ele>
        <time>2018-07-28T13:38:00.000Z</time>
      </trkpt>
      <trkpt lat="43.96555" lon="7.29062">
        <ele>880</ele>
        <time>2018-07-28T13:38:15.000Z</time>
      </trkpt>
      <trkpt lat="43.96561" lon="7.29076">
        <ele>879</ele>
        <time>2018-07-28T13:38:20.000Z</time>
      </trkpt>
      <trkpt lat="43.96562" lon="7.29078">
        <ele>878</ele>
        <time>2018-07-28T13:38:21.000Z</time>
      </trkpt>
      <trkpt lat="43.96563" lon="7.29083">
        <ele>878</ele>
        <time>2018-07-28T13:38:23.000Z</time>
      </trkpt>
      <trkpt lat="43.96563" lon="7.29083">
        <ele>878</ele>
        <time>2018-07-28T13:38:25.000Z</time>
      </trkpt>
      <trkpt lat="43.96563" lon="7.29083">
        <ele>878</ele>
        <time>2018-07-28T13:38:26.000Z</time>
      </trkpt>
      <trkpt lat="43.96563" lon="7.29083">
        <ele>878</ele>
        <time>2018-07-28T13:38:30.000Z</time>
      </trkpt>
      <trkpt lat="43.96561" lon="7.29083">
        <ele>878</ele>
        <time>2018-07-28T13:38:35.000Z</time>
      </trkpt>
      <trkpt lat="43.96559" lon="7.29083">
        <ele>878</ele>
        <time>2018-07-28T13:38:44.000Z</time>
      </trkpt>
      <trkpt lat="43.96559" lon="7.29085">
        <ele>858</ele>
        <time>2018-07-28T13:38:48.000Z</time>
      </trkpt>
      <trkpt lat="43.9656" lon="7.29088">
        <ele>858</ele>
        <time>2018-07-28T13:38:50.000Z</time>
      </trkpt>
      <trkpt lat="43.96561" lon="7.29095">
        <ele>857</ele>
        <time>2018-07-28T13:38:53.000Z</time>
      </trkpt>
      <trkpt lat="43.96559" lon="7.29097">
        <ele>856</ele>
        <time>2018-07-28T13:38:54.000Z</time>
      </trkpt>
      <trkpt lat="43.96557" lon="7.29099">
        <ele>855</ele>
        <time>2018-07-28T13:38:56.000Z</time>
      </trkpt>
      <trkpt lat="43.96552" lon="7.29097">
        <ele>854</ele>
        <time>2018-07-28T13:38:58.000Z</time>
      </trkpt>
      <trkpt lat="43.96547" lon="7.29093">
        <ele>853</ele>
        <time>2018-07-28T13:39:00.000Z</time>
      </trkpt>
      <trkpt lat="43.96544" lon="7.29092">
        <ele>853</ele>
        <time>2018-07-28T13:39:01.000Z</time>
      </trkpt>
      <trkpt lat="43.96541" lon="7.2909">
        <ele>852</ele>
        <time>2018-07-28T13:39:02.000Z</time>
      </trkpt>
      <trkpt lat="43.96534" lon="7.29088">
        <ele>852</ele>
        <time>2018-07-28T13:39:04.000Z</time>
      </trkpt>
      <trkpt lat="43.96526" lon="7.29088">
        <ele>851</ele>
        <time>2018-07-28T13:39:06.000Z</time>
      </trkpt>
      <trkpt lat="43.96522" lon="7.29088">
        <ele>851</ele>
        <time>2018-07-28T13:39:07.000Z</time>
      </trkpt>
      <trkpt lat="43.96519" lon="7.29087">
        <ele>851</ele>
        <time>2018-07-28T13:39:08.000Z</time>
      </trkpt>
      <trkpt lat="43.96517" lon="7.29086">
        <ele>851</ele>
        <time>2018-07-28T13:39:09.000Z</time>
      </trkpt>
      <trkpt lat="43.96515" lon="7.29087">
        <ele>851</ele>
        <time>2018-07-28T13:39:10.000Z</time>
      </trkpt>
      <trkpt lat="43.96515" lon="7.29087">
        <ele>851</ele>
        <time>2018-07-28T13:39:11.000Z</time>
      </trkpt>
      <trkpt lat="43.96516" lon="7.29088">
        <ele>851</ele>
        <time>2018-07-28T13:39:12.000Z</time>
      </trkpt>
      <trkpt lat="43.96517" lon="7.29089">
        <ele>851</ele>
        <time>2018-07-28T13:39:13.000Z</time>
      </trkpt>
      <trkpt lat="43.96525" lon="7.29098">
        <ele>850</ele>
        <time>2018-07-28T13:39:16.000Z</time>
      </trkpt>
      <trkpt lat="43.96534" lon="7.29109">
        <ele>849</ele>
        <time>2018-07-28T13:39:20.000Z</time>
      </trkpt>
      <trkpt lat="43.96537" lon="7.29114">
        <ele>848</ele>
        <time>2018-07-28T13:39:22.000Z</time>
      </trkpt>
      <trkpt lat="43.96538" lon="7.2912">
        <ele>847</ele>
        <time>2018-07-28T13:39:24.000Z</time>
      </trkpt>
      <trkpt lat="43.96537" lon="7.29123">
        <ele>846</ele>
        <time>2018-07-28T13:39:25.000Z</time>
      </trkpt>
      <trkpt lat="43.96539" lon="7.29127">
        <ele>846</ele>
        <time>2018-07-28T13:39:27.000Z</time>
      </trkpt>
      <trkpt lat="43.96543" lon="7.29136">
        <ele>844</ele>
        <time>2018-07-28T13:39:29.000Z</time>
      </trkpt>
      <trkpt lat="43.96547" lon="7.29144">
        <ele>843</ele>
        <time>2018-07-28T13:39:31.000Z</time>
      </trkpt>
      <trkpt lat="43.96552" lon="7.2915">
        <ele>843</ele>
        <time>2018-07-28T13:39:33.000Z</time>
      </trkpt>
      <trkpt lat="43.96556" lon="7.29152">
        <ele>842</ele>
        <time>2018-07-28T13:39:34.000Z</time>
      </trkpt>
      <trkpt lat="43.96559" lon="7.29154">
        <ele>842</ele>
        <time>2018-07-28T13:39:35.000Z</time>
      </trkpt>
      <trkpt lat="43.96565" lon="7.29157">
        <ele>841</ele>
        <time>2018-07-28T13:39:37.000Z</time>
      </trkpt>
      <trkpt lat="43.96568" lon="7.29158">
        <ele>841</ele>
        <time>2018-07-28T13:39:38.000Z</time>
      </trkpt>
      <trkpt lat="43.96572" lon="7.2916">
        <ele>840</ele>
        <time>2018-07-28T13:39:39.000Z</time>
      </trkpt>
      <trkpt lat="43.9658" lon="7.29162">
        <ele>838</ele>
        <time>2018-07-28T13:39:41.000Z</time>
      </trkpt>
      <trkpt lat="43.96585" lon="7.29165">
        <ele>839</ele>
        <time>2018-07-28T13:39:42.000Z</time>
      </trkpt>
      <trkpt lat="43.96593" lon="7.29172">
        <ele>833</ele>
        <time>2018-07-28T13:39:44.000Z</time>
      </trkpt>
      <trkpt lat="43.966" lon="7.29174">
        <ele>832</ele>
        <time>2018-07-28T13:39:46.000Z</time>
      </trkpt>
      <trkpt lat="43.96603" lon="7.29177">
        <ele>832</ele>
        <time>2018-07-28T13:39:47.000Z</time>
      </trkpt>
      <trkpt lat="43.96605" lon="7.29179">
        <ele>831</ele>
        <time>2018-07-28T13:39:48.000Z</time>
      </trkpt>
      <trkpt lat="43.96616" lon="7.29186">
        <ele>831</ele>
        <time>2018-07-28T13:39:51.000Z</time>
      </trkpt>
      <trkpt lat="43.96624" lon="7.29192">
        <ele>831</ele>
        <time>2018-07-28T13:39:53.000Z</time>
      </trkpt>
      <trkpt lat="43.96626" lon="7.29195">
        <ele>830</ele>
        <time>2018-07-28T13:39:54.000Z</time>
      </trkpt>
      <trkpt lat="43.96627" lon="7.29198">
        <ele>830</ele>
        <time>2018-07-28T13:39:55.000Z</time>
      </trkpt>
      <trkpt lat="43.9663" lon="7.29208">
        <ele>828</ele>
        <time>2018-07-28T13:39:58.000Z</time>
      </trkpt>
      <trkpt lat="43.96636" lon="7.29215">
        <ele>827</ele>
        <time>2018-07-28T13:40:01.000Z</time>
      </trkpt>
      <trkpt lat="43.96638" lon="7.29217">
        <ele>827</ele>
        <time>2018-07-28T13:40:02.000Z</time>
      </trkpt>
      <trkpt lat="43.96641" lon="7.29222">
        <ele>826</ele>
        <time>2018-07-28T13:40:03.000Z</time>
      </trkpt>
      <trkpt lat="43.96644" lon="7.2923">
        <ele>825</ele>
        <time>2018-07-28T13:40:05.000Z</time>
      </trkpt>
      <trkpt lat="43.96646" lon="7.29234">
        <ele>824</ele>
        <time>2018-07-28T13:40:07.000Z</time>
      </trkpt>
      <trkpt lat="43.96649" lon="7.2924">
        <ele>823</ele>
        <time>2018-07-28T13:40:09.000Z</time>
      </trkpt>
      <trkpt lat="43.96652" lon="7.29247">
        <ele>822</ele>
        <time>2018-07-28T13:40:11.000Z</time>
      </trkpt>
      <trkpt lat="43.96658" lon="7.29256">
        <ele>808</ele>
        <time>2018-07-28T13:40:14.000Z</time>
      </trkpt>
      <trkpt lat="43.96659" lon="7.2926">
        <ele>807</ele>
        <time>2018-07-28T13:40:15.000Z</time>
      </trkpt>
      <trkpt lat="43.96663" lon="7.29267">
        <ele>804</ele>
        <time>2018-07-28T13:40:17.000Z</time>
      </trkpt>
      <trkpt lat="43.96665" lon="7.29271">
        <ele>802</ele>
        <time>2018-07-28T13:40:18.000Z</time>
      </trkpt>
      <trkpt lat="43.96667" lon="7.29272">
        <ele>810</ele>
        <time>2018-07-28T13:40:19.000Z</time>
      </trkpt>
      <trkpt lat="43.96672" lon="7.29276">
        <ele>809</ele>
        <time>2018-07-28T13:40:21.000Z</time>
      </trkpt>
      <trkpt lat="43.96677" lon="7.29275">
        <ele>809</ele>
        <time>2018-07-28T13:40:23.000Z</time>
      </trkpt>
      <trkpt lat="43.96682" lon="7.29275">
        <ele>809</ele>
        <time>2018-07-28T13:40:25.000Z</time>
      </trkpt>
      <trkpt lat="43.96689" lon="7.29274">
        <ele>809</ele>
        <time>2018-07-28T13:40:27.000Z</time>
      </trkpt>
      <trkpt lat="43.96699" lon="7.2927">
        <ele>810</ele>
        <time>2018-07-28T13:40:30.000Z</time>
      </trkpt>
      <trkpt lat="43.967" lon="7.2927">
        <ele>810</ele>
        <time>2018-07-28T13:40:33.000Z</time>
      </trkpt>
      <trkpt lat="43.96701" lon="7.2927">
        <ele>810</ele>
        <time>2018-07-28T13:40:37.000Z</time>
      </trkpt>
      <trkpt lat="43.96703" lon="7.29271">
        <ele>810</ele>
        <time>2018-07-28T13:40:40.000Z</time>
      </trkpt>
      <trkpt lat="43.96706" lon="7.29271">
        <ele>810</ele>
        <time>2018-07-28T13:40:43.000Z</time>
      </trkpt>
      <trkpt lat="43.96708" lon="7.29271">
        <ele>811</ele>
        <time>2018-07-28T13:40:44.000Z</time>
      </trkpt>
      <trkpt lat="43.96716" lon="7.29279">
        <ele>810</ele>
        <time>2018-07-28T13:40:48.000Z</time>
      </trkpt>
      <trkpt lat="43.96723" lon="7.29285">
        <ele>809</ele>
        <time>2018-07-28T13:40:51.000Z</time>
      </trkpt>
      <trkpt lat="43.96729" lon="7.29288">
        <ele>808</ele>
        <time>2018-07-28T13:40:53.000Z</time>
      </trkpt>
      <trkpt lat="43.96735" lon="7.2929">
        <ele>808</ele>
        <time>2018-07-28T13:40:55.000Z</time>
      </trkpt>
      <trkpt lat="43.96736" lon="7.29293">
        <ele>807</ele>
        <time>2018-07-28T13:40:56.000Z</time>
      </trkpt>
      <trkpt lat="43.96738" lon="7.29296">
        <ele>806</ele>
        <time>2018-07-28T13:40:57.000Z</time>
      </trkpt>
      <trkpt lat="43.9674" lon="7.29297">
        <ele>806</ele>
        <time>2018-07-28T13:40:58.000Z</time>
      </trkpt>
      <trkpt lat="43.96744" lon="7.29301">
        <ele>804</ele>
        <time>2018-07-28T13:41:02.000Z</time>
      </trkpt>
      <trkpt lat="43.96744" lon="7.29302">
        <ele>804</ele>
        <time>2018-07-28T13:41:05.000Z</time>
      </trkpt>
      <trkpt lat="43.96746" lon="7.29304">
        <ele>803</ele>
        <time>2018-07-28T13:41:12.000Z</time>
      </trkpt>
      <trkpt lat="43.9675" lon="7.29307">
        <ele>802</ele>
        <time>2018-07-28T13:41:18.000Z</time>
      </trkpt>
      <trkpt lat="43.96751" lon="7.29308">
        <ele>814</ele>
        <time>2018-07-28T13:41:20.000Z</time>
      </trkpt>
      <trkpt lat="43.96753" lon="7.29311">
        <ele>813</ele>
        <time>2018-07-28T13:41:25.000Z</time>
      </trkpt>
      <trkpt lat="43.96754" lon="7.29313">
        <ele>812</ele>
        <time>2018-07-28T13:41:28.000Z</time>
      </trkpt>
      <trkpt lat="43.96756" lon="7.29316">
        <ele>810</ele>
        <time>2018-07-28T13:41:33.000Z</time>
      </trkpt>
      <trkpt lat="43.96757" lon="7.29318">
        <ele>809</ele>
        <time>2018-07-28T13:41:35.000Z</time>
      </trkpt>
      <trkpt lat="43.96759" lon="7.29322">
        <ele>807</ele>
        <time>2018-07-28T13:41:39.000Z</time>
      </trkpt>
      <trkpt lat="43.96759" lon="7.29322">
        <ele>807</ele>
        <time>2018-07-28T13:41:40.000Z</time>
      </trkpt>
      <trkpt lat="43.96758" lon="7.29327">
        <ele>802</ele>
        <time>2018-07-28T13:41:46.000Z</time>
      </trkpt>
      <trkpt lat="43.96758" lon="7.29328">
        <ele>802</ele>
        <time>2018-07-28T13:41:47.000Z</time>
      </trkpt>
      <trkpt lat="43.96757" lon="7.29329">
        <ele>801</ele>
        <time>2018-07-28T13:41:50.000Z</time>
      </trkpt>
      <trkpt lat="43.96757" lon="7.29332">
        <ele>799</ele>
        <time>2018-07-28T13:41:53.000Z</time>
      </trkpt>
      <trkpt lat="43.96758" lon="7.29334">
        <ele>790</ele>
        <time>2018-07-28T13:41:55.000Z</time>
      </trkpt>
      <trkpt lat="43.96758" lon="7.29335">
        <ele>790</ele>
        <time>2018-07-28T13:41:56.000Z</time>
      </trkpt>
      <trkpt lat="43.96761" lon="7.29337">
        <ele>790</ele>
        <time>2018-07-28T13:41:59.000Z</time>
      </trkpt>
      <trkpt lat="43.9676" lon="7.29337">
        <ele>790</ele>
        <time>2018-07-28T13:42:00.000Z</time>
      </trkpt>
      <trkpt lat="43.96769" lon="7.29342">
        <ele>791</ele>
        <time>2018-07-28T13:42:04.000Z</time>
      </trkpt>
      <trkpt lat="43.96777" lon="7.29347">
        <ele>792</ele>
        <time>2018-07-28T13:42:06.000Z</time>
      </trkpt>
      <trkpt lat="43.96782" lon="7.2935">
        <ele>793</ele>
        <time>2018-07-28T13:42:08.000Z</time>
      </trkpt>
      <trkpt lat="43.96794" lon="7.29359">
        <ele>794</ele>
        <time>2018-07-28T13:42:12.000Z</time>
      </trkpt>
      <trkpt lat="43.96795" lon="7.29361">
        <ele>794</ele>
        <time>2018-07-28T13:42:13.000Z</time>
      </trkpt>
      <trkpt lat="43.96795" lon="7.29362">
        <ele>794</ele>
        <time>2018-07-28T13:42:14.000Z</time>
      </trkpt>
      <trkpt lat="43.96795" lon="7.29363">
        <ele>794</ele>
        <time>2018-07-28T13:42:15.000Z</time>
      </trkpt>
      <trkpt lat="43.96796" lon="7.29365">
        <ele>793</ele>
        <time>2018-07-28T13:42:17.000Z</time>
      </trkpt>
      <trkpt lat="43.96799" lon="7.29369">
        <ele>793</ele>
        <time>2018-07-28T13:42:19.000Z</time>
      </trkpt>
      <trkpt lat="43.96802" lon="7.29372">
        <ele>793</ele>
        <time>2018-07-28T13:42:20.000Z</time>
      </trkpt>
      <trkpt lat="43.96806" lon="7.29377">
        <ele>793</ele>
        <time>2018-07-28T13:42:22.000Z</time>
      </trkpt>
      <trkpt lat="43.9681" lon="7.29385">
        <ele>792</ele>
        <time>2018-07-28T13:42:24.000Z</time>
      </trkpt>
      <trkpt lat="43.96817" lon="7.294">
        <ele>790</ele>
        <time>2018-07-28T13:42:28.000Z</time>
      </trkpt>
      <trkpt lat="43.96818" lon="7.29406">
        <ele>789</ele>
        <time>2018-07-28T13:42:29.000Z</time>
      </trkpt>
      <trkpt lat="43.96819" lon="7.29413">
        <ele>789</ele>
        <time>2018-07-28T13:42:30.000Z</time>
      </trkpt>
      <trkpt lat="43.96821" lon="7.29423">
        <ele>776</ele>
        <time>2018-07-28T13:42:32.000Z</time>
      </trkpt>
      <trkpt lat="43.96823" lon="7.29428">
        <ele>775</ele>
        <time>2018-07-28T13:42:33.000Z</time>
      </trkpt>
      <trkpt lat="43.96823" lon="7.29435">
        <ele>772</ele>
        <time>2018-07-28T13:42:34.000Z</time>
      </trkpt>
      <trkpt lat="43.96824" lon="7.29438">
        <ele>771</ele>
        <time>2018-07-28T13:42:35.000Z</time>
      </trkpt>
      <trkpt lat="43.96826" lon="7.29442">
        <ele>769</ele>
        <time>2018-07-28T13:42:36.000Z</time>
      </trkpt>
      <trkpt lat="43.96828" lon="7.29444">
        <ele>769</ele>
        <time>2018-07-28T13:42:38.000Z</time>
      </trkpt>
      <trkpt lat="43.96828" lon="7.29444">
        <ele>769</ele>
        <time>2018-07-28T13:42:41.000Z</time>
      </trkpt>
      <trkpt lat="43.96828" lon="7.29444">
        <ele>769</ele>
        <time>2018-07-28T13:42:44.000Z</time>
      </trkpt>
      <trkpt lat="43.96828" lon="7.29443">
        <ele>769</ele>
        <time>2018-07-28T13:43:06.000Z</time>
      </trkpt>
      <trkpt lat="43.96831" lon="7.29449">
        <ele>767</ele>
        <time>2018-07-28T13:43:17.000Z</time>
      </trkpt>
      <trkpt lat="43.96831" lon="7.29449">
        <ele>768</ele>
        <time>2018-07-28T13:43:22.000Z</time>
      </trkpt>
      <trkpt lat="43.96834" lon="7.29452">
        <ele>790</ele>
        <time>2018-07-28T13:43:27.000Z</time>
      </trkpt>
      <trkpt lat="43.96843" lon="7.29459">
        <ele>790</ele>
        <time>2018-07-28T13:43:33.000Z</time>
      </trkpt>
      <trkpt lat="43.96844" lon="7.2946">
        <ele>790</ele>
        <time>2018-07-28T13:43:34.000Z</time>
      </trkpt>
      <trkpt lat="43.96851" lon="7.29467">
        <ele>789</ele>
        <time>2018-07-28T13:43:39.000Z</time>
      </trkpt>
      <trkpt lat="43.96854" lon="7.2947">
        <ele>789</ele>
        <time>2018-07-28T13:43:40.000Z</time>
      </trkpt>
      <trkpt lat="43.96855" lon="7.29474">
        <ele>788</ele>
        <time>2018-07-28T13:43:41.000Z</time>
      </trkpt>
      <trkpt lat="43.96858" lon="7.29485">
        <ele>786</ele>
        <time>2018-07-28T13:43:43.000Z</time>
      </trkpt>
      <trkpt lat="43.96868" lon="7.29504">
        <ele>768</ele>
        <time>2018-07-28T13:43:47.000Z</time>
      </trkpt>
      <trkpt lat="43.96869" lon="7.29514">
        <ele>767</ele>
        <time>2018-07-28T13:43:50.000Z</time>
      </trkpt>
      <trkpt lat="43.96867" lon="7.29518">
        <ele>767</ele>
        <time>2018-07-28T13:43:52.000Z</time>
      </trkpt>
      <trkpt lat="43.96868" lon="7.29519">
        <ele>767</ele>
        <time>2018-07-28T13:43:54.000Z</time>
      </trkpt>
      <trkpt lat="43.96868" lon="7.29519">
        <ele>767</ele>
        <time>2018-07-28T13:43:55.000Z</time>
      </trkpt>
      <trkpt lat="43.96868" lon="7.29519">
        <ele>767</ele>
        <time>2018-07-28T13:43:57.000Z</time>
      </trkpt>
      <trkpt lat="43.96868" lon="7.29523">
        <ele>766</ele>
        <time>2018-07-28T13:44:11.000Z</time>
      </trkpt>
      <trkpt lat="43.96868" lon="7.29526">
        <ele>766</ele>
        <time>2018-07-28T13:44:13.000Z</time>
      </trkpt>
      <trkpt lat="43.96868" lon="7.29529">
        <ele>766</ele>
        <time>2018-07-28T13:44:15.000Z</time>
      </trkpt>
      <trkpt lat="43.96867" lon="7.2953">
        <ele>765</ele>
        <time>2018-07-28T13:44:17.000Z</time>
      </trkpt>
      <trkpt lat="43.96867" lon="7.29531">
        <ele>765</ele>
        <time>2018-07-28T13:44:19.000Z</time>
      </trkpt>
      <trkpt lat="43.96867" lon="7.29534">
        <ele>765</ele>
        <time>2018-07-28T13:44:23.000Z</time>
      </trkpt>
      <trkpt lat="43.9687" lon="7.29549">
        <ele>763</ele>
        <time>2018-07-28T13:44:27.000Z</time>
      </trkpt>
      <trkpt lat="43.96869" lon="7.29552">
        <ele>762</ele>
        <time>2018-07-28T13:44:28.000Z</time>
      </trkpt>
      <trkpt lat="43.96866" lon="7.29551">
        <ele>762</ele>
        <time>2018-07-28T13:44:30.000Z</time>
      </trkpt>
      <trkpt lat="43.96864" lon="7.29545">
        <ele>762</ele>
        <time>2018-07-28T13:44:32.000Z</time>
      </trkpt>
      <trkpt lat="43.96862" lon="7.29541">
        <ele>763</ele>
        <time>2018-07-28T13:44:34.000Z</time>
      </trkpt>
      <trkpt lat="43.96859" lon="7.29535">
        <ele>763</ele>
        <time>2018-07-28T13:44:36.000Z</time>
      </trkpt>
      <trkpt lat="43.96857" lon="7.29531">
        <ele>763</ele>
        <time>2018-07-28T13:44:38.000Z</time>
      </trkpt>
      <trkpt lat="43.96856" lon="7.29528">
        <ele>763</ele>
        <time>2018-07-28T13:44:39.000Z</time>
      </trkpt>
      <trkpt lat="43.96854" lon="7.29522">
        <ele>763</ele>
        <time>2018-07-28T13:44:42.000Z</time>
      </trkpt>
      <trkpt lat="43.96853" lon="7.29522">
        <ele>763</ele>
        <time>2018-07-28T13:44:44.000Z</time>
      </trkpt>
      <trkpt lat="43.96849" lon="7.29526">
        <ele>762</ele>
        <time>2018-07-28T13:44:46.000Z</time>
      </trkpt>
      <trkpt lat="43.96847" lon="7.29526">
        <ele>762</ele>
        <time>2018-07-28T13:44:47.000Z</time>
      </trkpt>
      <trkpt lat="43.96841" lon="7.29522">
        <ele>761</ele>
        <time>2018-07-28T13:44:49.000Z</time>
      </trkpt>
      <trkpt lat="43.96837" lon="7.29515">
        <ele>761</ele>
        <time>2018-07-28T13:44:51.000Z</time>
      </trkpt>
      <trkpt lat="43.96832" lon="7.2951">
        <ele>751</ele>
        <time>2018-07-28T13:44:52.000Z</time>
      </trkpt>
      <trkpt lat="43.96825" lon="7.29505">
        <ele>751</ele>
        <time>2018-07-28T13:44:54.000Z</time>
      </trkpt>
      <trkpt lat="43.96822" lon="7.29505">
        <ele>750</ele>
        <time>2018-07-28T13:44:55.000Z</time>
      </trkpt>
      <trkpt lat="43.9682" lon="7.29507">
        <ele>748</ele>
        <time>2018-07-28T13:44:56.000Z</time>
      </trkpt>
      <trkpt lat="43.96819" lon="7.29509">
        <ele>747</ele>
        <time>2018-07-28T13:44:57.000Z</time>
      </trkpt>
      <trkpt lat="43.96818" lon="7.29513">
        <ele>746</ele>
        <time>2018-07-28T13:44:58.000Z</time>
      </trkpt>
      <trkpt lat="43.96816" lon="7.29515">
        <ele>745</ele>
        <time>2018-07-28T13:44:59.000Z</time>
      </trkpt>
      <trkpt lat="43.96813" lon="7.2952">
        <ele>743</ele>
        <time>2018-07-28T13:45:01.000Z</time>
      </trkpt>
      <trkpt lat="43.96812" lon="7.29524">
        <ele>742</ele>
        <time>2018-07-28T13:45:03.000Z</time>
      </trkpt>
      <trkpt lat="43.96811" lon="7.29527">
        <ele>741</ele>
        <time>2018-07-28T13:45:05.000Z</time>
      </trkpt>
      <trkpt lat="43.9681" lon="7.29529">
        <ele>741</ele>
        <time>2018-07-28T13:45:06.000Z</time>
      </trkpt>
      <trkpt lat="43.96807" lon="7.29533">
        <ele>740</ele>
        <time>2018-07-28T13:45:09.000Z</time>
      </trkpt>
      <trkpt lat="43.96806" lon="7.29533">
        <ele>740</ele>
        <time>2018-07-28T13:45:10.000Z</time>
      </trkpt>
      <trkpt lat="43.96796" lon="7.29532">
        <ele>738</ele>
        <time>2018-07-28T13:45:15.000Z</time>
      </trkpt>
      <trkpt lat="43.9679" lon="7.2953">
        <ele>738</ele>
        <time>2018-07-28T13:45:17.000Z</time>
      </trkpt>
      <trkpt lat="43.96783" lon="7.29529">
        <ele>737</ele>
        <time>2018-07-28T13:45:19.000Z</time>
      </trkpt>
      <trkpt lat="43.96777" lon="7.29527">
        <ele>736</ele>
        <time>2018-07-28T13:45:21.000Z</time>
      </trkpt>
      <trkpt lat="43.96773" lon="7.29524">
        <ele>736</ele>
        <time>2018-07-28T13:45:23.000Z</time>
      </trkpt>
      <trkpt lat="43.96767" lon="7.29518">
        <ele>735</ele>
        <time>2018-07-28T13:45:26.000Z</time>
      </trkpt>
      <trkpt lat="43.96763" lon="7.29514">
        <ele>735</ele>
        <time>2018-07-28T13:45:28.000Z</time>
      </trkpt>
      <trkpt lat="43.96757" lon="7.29508">
        <ele>734</ele>
        <time>2018-07-28T13:45:31.000Z</time>
      </trkpt>
      <trkpt lat="43.96751" lon="7.29498">
        <ele>735</ele>
        <time>2018-07-28T13:45:34.000Z</time>
      </trkpt>
      <trkpt lat="43.96749" lon="7.29495">
        <ele>733</ele>
        <time>2018-07-28T13:45:35.000Z</time>
      </trkpt>
      <trkpt lat="43.96747" lon="7.29494">
        <ele>733</ele>
        <time>2018-07-28T13:45:36.000Z</time>
      </trkpt>
      <trkpt lat="43.96743" lon="7.29495">
        <ele>733</ele>
        <time>2018-07-28T13:45:37.000Z</time>
      </trkpt>
      <trkpt lat="43.9674" lon="7.29496">
        <ele>733</ele>
        <time>2018-07-28T13:45:38.000Z</time>
      </trkpt>
      <trkpt lat="43.96736" lon="7.29502">
        <ele>724</ele>
        <time>2018-07-28T13:45:40.000Z</time>
      </trkpt>
      <trkpt lat="43.96734" lon="7.29506">
        <ele>723</ele>
        <time>2018-07-28T13:45:41.000Z</time>
      </trkpt>
      <trkpt lat="43.96731" lon="7.29508">
        <ele>721</ele>
        <time>2018-07-28T13:45:42.000Z</time>
      </trkpt>
      <trkpt lat="43.96726" lon="7.29507">
        <ele>720</ele>
        <time>2018-07-28T13:45:44.000Z</time>
      </trkpt>
      <trkpt lat="43.96722" lon="7.29504">
        <ele>718</ele>
        <time>2018-07-28T13:45:46.000Z</time>
      </trkpt>
      <trkpt lat="43.96715" lon="7.29503">
        <ele>717</ele>
        <time>2018-07-28T13:45:48.000Z</time>
      </trkpt>
      <trkpt lat="43.96712" lon="7.29503">
        <ele>716</ele>
        <time>2018-07-28T13:45:49.000Z</time>
      </trkpt>
      <trkpt lat="43.96704" lon="7.29502">
        <ele>714</ele>
        <time>2018-07-28T13:45:51.000Z</time>
      </trkpt>
      <trkpt lat="43.96696" lon="7.295">
        <ele>725</ele>
        <time>2018-07-28T13:45:53.000Z</time>
      </trkpt>
      <trkpt lat="43.96692" lon="7.29497">
        <ele>724</ele>
        <time>2018-07-28T13:45:54.000Z</time>
      </trkpt>
      <trkpt lat="43.96684" lon="7.29484">
        <ele>723</ele>
        <time>2018-07-28T13:45:57.000Z</time>
      </trkpt>
      <trkpt lat="43.96681" lon="7.29479">
        <ele>724</ele>
        <time>2018-07-28T13:45:58.000Z</time>
      </trkpt>
      <trkpt lat="43.96674" lon="7.29467">
        <ele>727</ele>
        <time>2018-07-28T13:46:00.000Z</time>
      </trkpt>
      <trkpt lat="43.96668" lon="7.29453">
        <ele>729</ele>
        <time>2018-07-28T13:46:02.000Z</time>
      </trkpt>
      <trkpt lat="43.96659" lon="7.2944">
        <ele>718</ele>
        <time>2018-07-28T13:46:04.000Z</time>
      </trkpt>
      <trkpt lat="43.9664" lon="7.29429">
        <ele>717</ele>
        <time>2018-07-28T13:46:07.000Z</time>
      </trkpt>
      <trkpt lat="43.96624" lon="7.29434">
        <ele>713</ele>
        <time>2018-07-28T13:46:10.000Z</time>
      </trkpt>
      <trkpt lat="43.9662" lon="7.29438">
        <ele>712</ele>
        <time>2018-07-28T13:46:11.000Z</time>
      </trkpt>
      <trkpt lat="43.96606" lon="7.2944">
        <ele>711</ele>
        <time>2018-07-28T13:46:14.000Z</time>
      </trkpt>
      <trkpt lat="43.96601" lon="7.29438">
        <ele>711</ele>
        <time>2018-07-28T13:46:15.000Z</time>
      </trkpt>
      <trkpt lat="43.96596" lon="7.29435">
        <ele>711</ele>
        <time>2018-07-28T13:46:16.000Z</time>
      </trkpt>
      <trkpt lat="43.96584" lon="7.29429">
        <ele>712</ele>
        <time>2018-07-28T13:46:18.000Z</time>
      </trkpt>
      <trkpt lat="43.96573" lon="7.29423">
        <ele>703</ele>
        <time>2018-07-28T13:46:20.000Z</time>
      </trkpt>
      <trkpt lat="43.96554" lon="7.29413">
        <ele>717</ele>
        <time>2018-07-28T13:46:23.000Z</time>
      </trkpt>
      <trkpt lat="43.9654" lon="7.29405">
        <ele>715</ele>
        <time>2018-07-28T13:46:25.000Z</time>
      </trkpt>
      <trkpt lat="43.96534" lon="7.29399">
        <ele>715</ele>
        <time>2018-07-28T13:46:26.000Z</time>
      </trkpt>
      <trkpt lat="43.96528" lon="7.29395">
        <ele>714</ele>
        <time>2018-07-28T13:46:27.000Z</time>
      </trkpt>
      <trkpt lat="43.9652" lon="7.29395">
        <ele>712</ele>
        <time>2018-07-28T13:46:28.000Z</time>
      </trkpt>
      <trkpt lat="43.96511" lon="7.29396">
        <ele>709</ele>
        <time>2018-07-28T13:46:29.000Z</time>
      </trkpt>
      <trkpt lat="43.96503" lon="7.29395">
        <ele>708</ele>
        <time>2018-07-28T13:46:30.000Z</time>
      </trkpt>
      <trkpt lat="43.96495" lon="7.29392">
        <ele>696</ele>
        <time>2018-07-28T13:46:31.000Z</time>
      </trkpt>
      <trkpt lat="43.96488" lon="7.29388">
        <ele>697</ele>
        <time>2018-07-28T13:46:32.000Z</time>
      </trkpt>
      <trkpt lat="43.96478" lon="7.29373">
        <ele>701</ele>
        <time>2018-07-28T13:46:34.000Z</time>
      </trkpt>
      <trkpt lat="43.96467" lon="7.29359">
        <ele>704</ele>
        <time>2018-07-28T13:46:36.000Z</time>
      </trkpt>
      <trkpt lat="43.96461" lon="7.29355">
        <ele>703</ele>
        <time>2018-07-28T13:46:37.000Z</time>
      </trkpt>
      <trkpt lat="43.96453" lon="7.29349">
        <ele>703</ele>
        <time>2018-07-28T13:46:38.000Z</time>
      </trkpt>
      <trkpt lat="43.96446" lon="7.29345">
        <ele>703</ele>
        <time>2018-07-28T13:46:39.000Z</time>
      </trkpt>
      <trkpt lat="43.96439" lon="7.29343">
        <ele>703</ele>
        <time>2018-07-28T13:46:40.000Z</time>
      </trkpt>
      <trkpt lat="43.96431" lon="7.29345">
        <ele>703</ele>
        <time>2018-07-28T13:46:41.000Z</time>
      </trkpt>
      <trkpt lat="43.96424" lon="7.29349">
        <ele>702</ele>
        <time>2018-07-28T13:46:42.000Z</time>
      </trkpt>
      <trkpt lat="43.96406" lon="7.29357">
        <ele>694</ele>
        <time>2018-07-28T13:46:44.000Z</time>
      </trkpt>
      <trkpt lat="43.96397" lon="7.29359">
        <ele>693</ele>
        <time>2018-07-28T13:46:45.000Z</time>
      </trkpt>
      <trkpt lat="43.96387" lon="7.29361">
        <ele>692</ele>
        <time>2018-07-28T13:46:46.000Z</time>
      </trkpt>
      <trkpt lat="43.96366" lon="7.29362">
        <ele>691</ele>
        <time>2018-07-28T13:46:48.000Z</time>
      </trkpt>
      <trkpt lat="43.96357" lon="7.29362">
        <ele>691</ele>
        <time>2018-07-28T13:46:49.000Z</time>
      </trkpt>
      <trkpt lat="43.9634" lon="7.29362">
        <ele>692</ele>
        <time>2018-07-28T13:46:51.000Z</time>
      </trkpt>
      <trkpt lat="43.96333" lon="7.29363">
        <ele>690</ele>
        <time>2018-07-28T13:46:52.000Z</time>
      </trkpt>
      <trkpt lat="43.96327" lon="7.29368">
        <ele>688</ele>
        <time>2018-07-28T13:46:53.000Z</time>
      </trkpt>
      <trkpt lat="43.96322" lon="7.29375">
        <ele>687</ele>
        <time>2018-07-28T13:46:54.000Z</time>
      </trkpt>
      <trkpt lat="43.96316" lon="7.29382">
        <ele>685</ele>
        <time>2018-07-28T13:46:55.000Z</time>
      </trkpt>
      <trkpt lat="43.96311" lon="7.2939">
        <ele>684</ele>
        <time>2018-07-28T13:46:56.000Z</time>
      </trkpt>
      <trkpt lat="43.96305" lon="7.29396">
        <ele>683</ele>
        <time>2018-07-28T13:46:57.000Z</time>
      </trkpt>
      <trkpt lat="43.96298" lon="7.29403">
        <ele>683</ele>
        <time>2018-07-28T13:46:58.000Z</time>
      </trkpt>
      <trkpt lat="43.9629" lon="7.29409">
        <ele>683</ele>
        <time>2018-07-28T13:46:59.000Z</time>
      </trkpt>
      <trkpt lat="43.96275" lon="7.2942">
        <ele>671</ele>
        <time>2018-07-28T13:47:01.000Z</time>
      </trkpt>
      <trkpt lat="43.9626" lon="7.29426">
        <ele>673</ele>
        <time>2018-07-28T13:47:03.000Z</time>
      </trkpt>
      <trkpt lat="43.96253" lon="7.29428">
        <ele>674</ele>
        <time>2018-07-28T13:47:04.000Z</time>
      </trkpt>
      <trkpt lat="43.96243" lon="7.2943">
        <ele>671</ele>
        <time>2018-07-28T13:47:06.000Z</time>
      </trkpt>
      <trkpt lat="43.96235" lon="7.29426">
        <ele>670</ele>
        <time>2018-07-28T13:47:08.000Z</time>
      </trkpt>
      <trkpt lat="43.9623" lon="7.29421">
        <ele>669</ele>
        <time>2018-07-28T13:47:10.000Z</time>
      </trkpt>
      <trkpt lat="43.96228" lon="7.29419">
        <ele>669</ele>
        <time>2018-07-28T13:47:11.000Z</time>
      </trkpt>
      <trkpt lat="43.96227" lon="7.29417">
        <ele>668</ele>
        <time>2018-07-28T13:47:12.000Z</time>
      </trkpt>
      <trkpt lat="43.96227" lon="7.29417">
        <ele>668</ele>
        <time>2018-07-28T13:47:15.000Z</time>
      </trkpt>
      <trkpt lat="43.96227" lon="7.29417">
        <ele>668</ele>
        <time>2018-07-28T13:47:16.000Z</time>
      </trkpt>
      <trkpt lat="43.96227" lon="7.29417">
        <ele>668</ele>
        <time>2018-07-28T13:47:27.000Z</time>
      </trkpt>
      <trkpt lat="43.96228" lon="7.29417">
        <ele>668</ele>
        <time>2018-07-28T13:47:34.000Z</time>
      </trkpt>
      <trkpt lat="43.96226" lon="7.29415">
        <ele>671</ele>
        <time>2018-07-28T13:47:43.000Z</time>
      </trkpt>
      <trkpt lat="43.96225" lon="7.29409">
        <ele>670</ele>
        <time>2018-07-28T13:47:45.000Z</time>
      </trkpt>
      <trkpt lat="43.9622" lon="7.29391">
        <ele>669</ele>
        <time>2018-07-28T13:47:49.000Z</time>
      </trkpt>
      <trkpt lat="43.96219" lon="7.29385">
        <ele>669</ele>
        <time>2018-07-28T13:47:50.000Z</time>
      </trkpt>
      <trkpt lat="43.96215" lon="7.2937">
        <ele>669</ele>
        <time>2018-07-28T13:47:53.000Z</time>
      </trkpt>
      <trkpt lat="43.96212" lon="7.29352">
        <ele>669</ele>
        <time>2018-07-28T13:47:57.000Z</time>
      </trkpt>
      <trkpt lat="43.96209" lon="7.29321">
        <ele>675</ele>
        <time>2018-07-28T13:48:04.000Z</time>
      </trkpt>
      <trkpt lat="43.96205" lon="7.29299">
        <ele>676</ele>
        <time>2018-07-28T13:48:10.000Z</time>
      </trkpt>
      <trkpt lat="43.96199" lon="7.29278">
        <ele>676</ele>
        <time>2018-07-28T13:48:16.000Z</time>
      </trkpt>
      <trkpt lat="43.96184" lon="7.29251">
        <ele>672</ele>
        <time>2018-07-28T13:48:24.000Z</time>
      </trkpt>
      <trkpt lat="43.96176" lon="7.29234">
        <ele>678</ele>
        <time>2018-07-28T13:48:29.000Z</time>
      </trkpt>
      <trkpt lat="43.96176" lon="7.29235">
        <ele>678</ele>
        <time>2018-07-28T13:48:31.000Z</time>
      </trkpt>
      <trkpt lat="43.96176" lon="7.29235">
        <ele>678</ele>
        <time>2018-07-28T13:48:34.000Z</time>
      </trkpt>
      <trkpt lat="43.96176" lon="7.29235">
        <ele>678</ele>
        <time>2018-07-28T13:48:39.000Z</time>
      </trkpt>
      <trkpt lat="43.96176" lon="7.29235">
        <ele>677</ele>
        <time>2018-07-28T13:49:06.000Z</time>
      </trkpt>
      <trkpt lat="43.96174" lon="7.29231">
        <ele>678</ele>
        <time>2018-07-28T13:49:08.000Z</time>
      </trkpt>
      <trkpt lat="43.96172" lon="7.29226">
        <ele>680</ele>
        <time>2018-07-28T13:49:10.000Z</time>
      </trkpt>
      <trkpt lat="43.96162" lon="7.29201">
        <ele>664</ele>
        <time>2018-07-28T13:49:15.000Z</time>
      </trkpt>
      <trkpt lat="43.96157" lon="7.2919">
        <ele>665</ele>
        <time>2018-07-28T13:49:17.000Z</time>
      </trkpt>
      <trkpt lat="43.96146" lon="7.29178">
        <ele>665</ele>
        <time>2018-07-28T13:49:20.000Z</time>
      </trkpt>
      <trkpt lat="43.96137" lon="7.29162">
        <ele>670</ele>
        <time>2018-07-28T13:49:24.000Z</time>
      </trkpt>
      <trkpt lat="43.96131" lon="7.29135">
        <ele>670</ele>
        <time>2018-07-28T13:49:29.000Z</time>
      </trkpt>
      <trkpt lat="43.96123" lon="7.29093">
        <ele>670</ele>
        <time>2018-07-28T13:49:36.000Z</time>
      </trkpt>
      <trkpt lat="43.96116" lon="7.29055">
        <ele>678</ele>
        <time>2018-07-28T13:49:42.000Z</time>
      </trkpt>
      <trkpt lat="43.96115" lon="7.2904">
        <ele>679</ele>
        <time>2018-07-28T13:49:44.000Z</time>
      </trkpt>
      <trkpt lat="43.96117" lon="7.29021">
        <ele>680</ele>
        <time>2018-07-28T13:49:47.000Z</time>
      </trkpt>
      <trkpt lat="43.96121" lon="7.28993">
        <ele>692</ele>
        <time>2018-07-28T13:49:53.000Z</time>
      </trkpt>
      <trkpt lat="43.96121" lon="7.28985">
        <ele>693</ele>
        <time>2018-07-28T13:49:55.000Z</time>
      </trkpt>
      <trkpt lat="43.96119" lon="7.28981">
        <ele>693</ele>
        <time>2018-07-28T13:49:56.000Z</time>
      </trkpt>
      <trkpt lat="43.96114" lon="7.28978">
        <ele>692</ele>
        <time>2018-07-28T13:49:58.000Z</time>
      </trkpt>
      <trkpt lat="43.96105" lon="7.28976">
        <ele>690</ele>
        <time>2018-07-28T13:50:01.000Z</time>
      </trkpt>
      <trkpt lat="43.96092" lon="7.28974">
        <ele>688</ele>
        <time>2018-07-28T13:50:05.000Z</time>
      </trkpt>
      <trkpt lat="43.9608" lon="7.28972">
        <ele>670</ele>
        <time>2018-07-28T13:50:09.000Z</time>
      </trkpt>
      <trkpt lat="43.96077" lon="7.28971">
        <ele>669</ele>
        <time>2018-07-28T13:50:10.000Z</time>
      </trkpt>
      <trkpt lat="43.96065" lon="7.28955">
        <ele>670</ele>
        <time>2018-07-28T13:50:15.000Z</time>
      </trkpt>
      <trkpt lat="43.96068" lon="7.28937">
        <ele>673</ele>
        <time>2018-07-28T13:50:19.000Z</time>
      </trkpt>
      <trkpt lat="43.96071" lon="7.28926">
        <ele>678</ele>
        <time>2018-07-28T13:50:22.000Z</time>
      </trkpt>
      <trkpt lat="43.96072" lon="7.28913">
        <ele>684</ele>
        <time>2018-07-28T13:50:25.000Z</time>
      </trkpt>
      <trkpt lat="43.9607" lon="7.28901">
        <ele>682</ele>
        <time>2018-07-28T13:50:28.000Z</time>
      </trkpt>
      <trkpt lat="43.96067" lon="7.28894">
        <ele>681</ele>
        <time>2018-07-28T13:50:30.000Z</time>
      </trkpt>
      <trkpt lat="43.9605" lon="7.28867">
        <ele>679</ele>
        <time>2018-07-28T13:50:38.000Z</time>
      </trkpt>
      <trkpt lat="43.96042" lon="7.28839">
        <ele>679</ele>
        <time>2018-07-28T13:50:44.000Z</time>
      </trkpt>
      <trkpt lat="43.96042" lon="7.28824">
        <ele>687</ele>
        <time>2018-07-28T13:50:47.000Z</time>
      </trkpt>
      <trkpt lat="43.9604" lon="7.28806">
        <ele>687</ele>
        <time>2018-07-28T13:50:50.000Z</time>
      </trkpt>
      <trkpt lat="43.96043" lon="7.28771">
        <ele>690</ele>
        <time>2018-07-28T13:50:57.000Z</time>
      </trkpt>
      <trkpt lat="43.96046" lon="7.28758">
        <ele>692</ele>
        <time>2018-07-28T13:51:00.000Z</time>
      </trkpt>
      <trkpt lat="43.9605" lon="7.28741">
        <ele>703</ele>
        <time>2018-07-28T13:51:04.000Z</time>
      </trkpt>
      <trkpt lat="43.96051" lon="7.28736">
        <ele>704</ele>
        <time>2018-07-28T13:51:05.000Z</time>
      </trkpt>
      <trkpt lat="43.96052" lon="7.28722">
        <ele>704</ele>
        <time>2018-07-28T13:51:08.000Z</time>
      </trkpt>
      <trkpt lat="43.96052" lon="7.28711">
        <ele>705</ele>
        <time>2018-07-28T13:51:11.000Z</time>
      </trkpt>
      <trkpt lat="43.96051" lon="7.28707">
        <ele>705</ele>
        <time>2018-07-28T13:51:12.000Z</time>
      </trkpt>
      <trkpt lat="43.96047" lon="7.28691">
        <ele>706</ele>
        <time>2018-07-28T13:51:17.000Z</time>
      </trkpt>
      <trkpt lat="43.96045" lon="7.28688">
        <ele>705</ele>
        <time>2018-07-28T13:51:18.000Z</time>
      </trkpt>
      <trkpt lat="43.96034" lon="7.28685">
        <ele>703</ele>
        <time>2018-07-28T13:51:22.000Z</time>
      </trkpt>
      <trkpt lat="43.9603" lon="7.28686">
        <ele>702</ele>
        <time>2018-07-28T13:51:23.000Z</time>
      </trkpt>
      <trkpt lat="43.9602" lon="7.28693">
        <ele>699</ele>
        <time>2018-07-28T13:51:26.000Z</time>
      </trkpt>
      <trkpt lat="43.95998" lon="7.28704">
        <ele>676</ele>
        <time>2018-07-28T13:51:32.000Z</time>
      </trkpt>
      <trkpt lat="43.95985" lon="7.28707">
        <ele>674</ele>
        <time>2018-07-28T13:51:35.000Z</time>
      </trkpt>
      <trkpt lat="43.95976" lon="7.28705">
        <ele>674</ele>
        <time>2018-07-28T13:51:37.000Z</time>
      </trkpt>
      <trkpt lat="43.95972" lon="7.28703">
        <ele>673</ele>
        <time>2018-07-28T13:51:38.000Z</time>
      </trkpt>
      <trkpt lat="43.95965" lon="7.28689">
        <ele>674</ele>
        <time>2018-07-28T13:51:41.000Z</time>
      </trkpt>
      <trkpt lat="43.95965" lon="7.28669">
        <ele>675</ele>
        <time>2018-07-28T13:51:45.000Z</time>
      </trkpt>
      <trkpt lat="43.95967" lon="7.2865">
        <ele>678</ele>
        <time>2018-07-28T13:51:49.000Z</time>
      </trkpt>
      <trkpt lat="43.95968" lon="7.28645">
        <ele>678</ele>
        <time>2018-07-28T13:51:50.000Z</time>
      </trkpt>
      <trkpt lat="43.95968" lon="7.28636">
        <ele>678</ele>
        <time>2018-07-28T13:51:52.000Z</time>
      </trkpt>
      <trkpt lat="43.95969" lon="7.28618">
        <ele>679</ele>
        <time>2018-07-28T13:51:56.000Z</time>
      </trkpt>
      <trkpt lat="43.95971" lon="7.286">
        <ele>681</ele>
        <time>2018-07-28T13:52:01.000Z</time>
      </trkpt>
      <trkpt lat="43.95979" lon="7.2858">
        <ele>684</ele>
        <time>2018-07-28T13:52:08.000Z</time>
      </trkpt>
      <trkpt lat="43.95981" lon="7.28578">
        <ele>685</ele>
        <time>2018-07-28T13:52:09.000Z</time>
      </trkpt>
      <trkpt lat="43.95984" lon="7.28569">
        <ele>684</ele>
        <time>2018-07-28T13:52:12.000Z</time>
      </trkpt>
      <trkpt lat="43.95984" lon="7.28559">
        <ele>682</ele>
        <time>2018-07-28T13:52:15.000Z</time>
      </trkpt>
      <trkpt lat="43.95985" lon="7.28553">
        <ele>681</ele>
        <time>2018-07-28T13:52:17.000Z</time>
      </trkpt>
      <trkpt lat="43.95985" lon="7.2853">
        <ele>680</ele>
        <time>2018-07-28T13:52:24.000Z</time>
      </trkpt>
      <trkpt lat="43.95984" lon="7.28527">
        <ele>680</ele>
        <time>2018-07-28T13:52:25.000Z</time>
      </trkpt>
      <trkpt lat="43.95983" lon="7.28519">
        <ele>681</ele>
        <time>2018-07-28T13:52:28.000Z</time>
      </trkpt>
      <trkpt lat="43.95983" lon="7.2851">
        <ele>683</ele>
        <time>2018-07-28T13:52:32.000Z</time>
      </trkpt>
      <trkpt lat="43.95983" lon="7.28508">
        <ele>684</ele>
        <time>2018-07-28T13:52:33.000Z</time>
      </trkpt>
      <trkpt lat="43.95987" lon="7.28496">
        <ele>685</ele>
        <time>2018-07-28T13:52:38.000Z</time>
      </trkpt>
      <trkpt lat="43.9599" lon="7.28491">
        <ele>686</ele>
        <time>2018-07-28T13:52:41.000Z</time>
      </trkpt>
      <trkpt lat="43.95996" lon="7.28484">
        <ele>685</ele>
        <time>2018-07-28T13:52:45.000Z</time>
      </trkpt>
      <trkpt lat="43.96001" lon="7.2848">
        <ele>712</ele>
        <time>2018-07-28T13:52:48.000Z</time>
      </trkpt>
      <trkpt lat="43.96004" lon="7.28477">
        <ele>714</ele>
        <time>2018-07-28T13:52:50.000Z</time>
      </trkpt>
      <trkpt lat="43.96015" lon="7.28462">
        <ele>718</ele>
        <time>2018-07-28T13:52:57.000Z</time>
      </trkpt>
      <trkpt lat="43.96017" lon="7.2846">
        <ele>719</ele>
        <time>2018-07-28T13:52:58.000Z</time>
      </trkpt>
      <trkpt lat="43.96026" lon="7.2844">
        <ele>720</ele>
        <time>2018-07-28T13:53:06.000Z</time>
      </trkpt>
      <trkpt lat="43.96025" lon="7.28434">
        <ele>719</ele>
        <time>2018-07-28T13:53:08.000Z</time>
      </trkpt>
      <trkpt lat="43.96024" lon="7.28431">
        <ele>718</ele>
        <time>2018-07-28T13:53:09.000Z</time>
      </trkpt>
      <trkpt lat="43.96022" lon="7.28424">
        <ele>715</ele>
        <time>2018-07-28T13:53:11.000Z</time>
      </trkpt>
      <trkpt lat="43.96012" lon="7.28402">
        <ele>712</ele>
        <time>2018-07-28T13:53:18.000Z</time>
      </trkpt>
      <trkpt lat="43.96009" lon="7.28392">
        <ele>714</ele>
        <time>2018-07-28T13:53:21.000Z</time>
      </trkpt>
      <trkpt lat="43.96009" lon="7.28378">
        <ele>716</ele>
        <time>2018-07-28T13:53:25.000Z</time>
      </trkpt>
      <trkpt lat="43.96008" lon="7.28358">
        <ele>714</ele>
        <time>2018-07-28T13:53:32.000Z</time>
      </trkpt>
      <trkpt lat="43.96008" lon="7.28347">
        <ele>710</ele>
        <time>2018-07-28T13:53:36.000Z</time>
      </trkpt>
      <trkpt lat="43.96009" lon="7.28336">
        <ele>707</ele>
        <time>2018-07-28T13:53:40.000Z</time>
      </trkpt>
      <trkpt lat="43.9601" lon="7.28324">
        <ele>709</ele>
        <time>2018-07-28T13:53:44.000Z</time>
      </trkpt>
      <trkpt lat="43.9601" lon="7.28318">
        <ele>711</ele>
        <time>2018-07-28T13:53:46.000Z</time>
      </trkpt>
      <trkpt lat="43.96011" lon="7.28308">
        <ele>715</ele>
        <time>2018-07-28T13:53:49.000Z</time>
      </trkpt>
      <trkpt lat="43.9601" lon="7.28296">
        <ele>716</ele>
        <time>2018-07-28T13:53:53.000Z</time>
      </trkpt>
      <trkpt lat="43.96007" lon="7.28274">
        <ele>714</ele>
        <time>2018-07-28T13:54:01.000Z</time>
      </trkpt>
      <trkpt lat="43.96006" lon="7.28268">
        <ele>712</ele>
        <time>2018-07-28T13:54:03.000Z</time>
      </trkpt>
      <trkpt lat="43.96007" lon="7.28253">
        <ele>706</ele>
        <time>2018-07-28T13:54:08.000Z</time>
      </trkpt>
      <trkpt lat="43.96008" lon="7.2825">
        <ele>706</ele>
        <time>2018-07-28T13:54:09.000Z</time>
      </trkpt>
      <trkpt lat="43.96012" lon="7.28241">
        <ele>711</ele>
        <time>2018-07-28T13:54:12.000Z</time>
      </trkpt>
      <trkpt lat="43.96019" lon="7.28229">
        <ele>718</ele>
        <time>2018-07-28T13:54:16.000Z</time>
      </trkpt>
      <trkpt lat="43.9602" lon="7.28214">
        <ele>720</ele>
        <time>2018-07-28T13:54:19.000Z</time>
      </trkpt>
      <trkpt lat="43.96019" lon="7.2821">
        <ele>720</ele>
        <time>2018-07-28T13:54:20.000Z</time>
      </trkpt>
      <trkpt lat="43.96012" lon="7.28197">
        <ele>719</ele>
        <time>2018-07-28T13:54:24.000Z</time>
      </trkpt>
      <trkpt lat="43.96011" lon="7.28195">
        <ele>719</ele>
        <time>2018-07-28T13:54:25.000Z</time>
      </trkpt>
      <trkpt lat="43.96003" lon="7.28179">
        <ele>715</ele>
        <time>2018-07-28T13:54:30.000Z</time>
      </trkpt>
      <trkpt lat="43.96002" lon="7.28175">
        <ele>713</ele>
        <time>2018-07-28T13:54:31.000Z</time>
      </trkpt>
      <trkpt lat="43.96001" lon="7.28145">
        <ele>719</ele>
        <time>2018-07-28T13:54:38.000Z</time>
      </trkpt>
      <trkpt lat="43.95999" lon="7.28122">
        <ele>699</ele>
        <time>2018-07-28T13:54:41.000Z</time>
      </trkpt>
      <trkpt lat="43.95996" lon="7.28114">
        <ele>699</ele>
        <time>2018-07-28T13:54:42.000Z</time>
      </trkpt>
      <trkpt lat="43.95985" lon="7.28094">
        <ele>701</ele>
        <time>2018-07-28T13:54:45.000Z</time>
      </trkpt>
      <trkpt lat="43.95982" lon="7.28088">
        <ele>701</ele>
        <time>2018-07-28T13:54:46.000Z</time>
      </trkpt>
      <trkpt lat="43.95979" lon="7.28082">
        <ele>703</ele>
        <time>2018-07-28T13:54:47.000Z</time>
      </trkpt>
      <trkpt lat="43.95977" lon="7.28073">
        <ele>702</ele>
        <time>2018-07-28T13:54:48.000Z</time>
      </trkpt>
      <trkpt lat="43.95975" lon="7.28065">
        <ele>701</ele>
        <time>2018-07-28T13:54:49.000Z</time>
      </trkpt>
      <trkpt lat="43.95975" lon="7.28056">
        <ele>700</ele>
        <time>2018-07-28T13:54:50.000Z</time>
      </trkpt>
      <trkpt lat="43.95976" lon="7.28047">
        <ele>701</ele>
        <time>2018-07-28T13:54:51.000Z</time>
      </trkpt>
      <trkpt lat="43.95975" lon="7.28028">
        <ele>701</ele>
        <time>2018-07-28T13:54:53.000Z</time>
      </trkpt>
      <trkpt lat="43.95974" lon="7.28018">
        <ele>702</ele>
        <time>2018-07-28T13:54:54.000Z</time>
      </trkpt>
      <trkpt lat="43.95972" lon="7.28011">
        <ele>702</ele>
        <time>2018-07-28T13:54:55.000Z</time>
      </trkpt>
      <trkpt lat="43.95969" lon="7.28005">
        <ele>702</ele>
        <time>2018-07-28T13:54:56.000Z</time>
      </trkpt>
      <trkpt lat="43.95966" lon="7.27999">
        <ele>707</ele>
        <time>2018-07-28T13:54:57.000Z</time>
      </trkpt>
      <trkpt lat="43.95962" lon="7.27995">
        <ele>706</ele>
        <time>2018-07-28T13:54:58.000Z</time>
      </trkpt>
      <trkpt lat="43.95951" lon="7.27982">
        <ele>705</ele>
        <time>2018-07-28T13:55:00.000Z</time>
      </trkpt>
      <trkpt lat="43.95946" lon="7.27975">
        <ele>704</ele>
        <time>2018-07-28T13:55:01.000Z</time>
      </trkpt>
      <trkpt lat="43.95935" lon="7.27962">
        <ele>704</ele>
        <time>2018-07-28T13:55:03.000Z</time>
      </trkpt>
      <trkpt lat="43.95924" lon="7.27951">
        <ele>704</ele>
        <time>2018-07-28T13:55:05.000Z</time>
      </trkpt>
      <trkpt lat="43.95914" lon="7.2794">
        <ele>694</ele>
        <time>2018-07-28T13:55:07.000Z</time>
      </trkpt>
      <trkpt lat="43.95904" lon="7.27929">
        <ele>696</ele>
        <time>2018-07-28T13:55:09.000Z</time>
      </trkpt>
      <trkpt lat="43.95896" lon="7.27924">
        <ele>695</ele>
        <time>2018-07-28T13:55:11.000Z</time>
      </trkpt>
      <trkpt lat="43.95888" lon="7.2792">
        <ele>693</ele>
        <time>2018-07-28T13:55:13.000Z</time>
      </trkpt>
      <trkpt lat="43.95883" lon="7.27918">
        <ele>693</ele>
        <time>2018-07-28T13:55:14.000Z</time>
      </trkpt>
      <trkpt lat="43.95874" lon="7.27917">
        <ele>691</ele>
        <time>2018-07-28T13:55:16.000Z</time>
      </trkpt>
      <trkpt lat="43.95859" lon="7.27915">
        <ele>695</ele>
        <time>2018-07-28T13:55:20.000Z</time>
      </trkpt>
      <trkpt lat="43.95852" lon="7.27916">
        <ele>694</ele>
        <time>2018-07-28T13:55:23.000Z</time>
      </trkpt>
      <trkpt lat="43.95851" lon="7.27916">
        <ele>693</ele>
        <time>2018-07-28T13:55:25.000Z</time>
      </trkpt>
      <trkpt lat="43.95851" lon="7.27916">
        <ele>693</ele>
        <time>2018-07-28T13:55:26.000Z</time>
      </trkpt>
      <trkpt lat="43.95851" lon="7.27916">
        <ele>694</ele>
        <time>2018-07-28T13:55:33.000Z</time>
      </trkpt>
      <trkpt lat="43.95852" lon="7.27916">
        <ele>694</ele>
        <time>2018-07-28T13:55:45.000Z</time>
      </trkpt>
      <trkpt lat="43.95851" lon="7.27917">
        <ele>689</ele>
        <time>2018-07-28T13:55:49.000Z</time>
      </trkpt>
      <trkpt lat="43.95846" lon="7.27919">
        <ele>689</ele>
        <time>2018-07-28T13:55:51.000Z</time>
      </trkpt>
      <trkpt lat="43.95831" lon="7.27925">
        <ele>688</ele>
        <time>2018-07-28T13:55:55.000Z</time>
      </trkpt>
      <trkpt lat="43.95828" lon="7.27928">
        <ele>688</ele>
        <time>2018-07-28T13:55:56.000Z</time>
      </trkpt>
      <trkpt lat="43.9582" lon="7.27946">
        <ele>686</ele>
        <time>2018-07-28T13:55:59.000Z</time>
      </trkpt>
      <trkpt lat="43.95819" lon="7.27952">
        <ele>686</ele>
        <time>2018-07-28T13:56:00.000Z</time>
      </trkpt>
      <trkpt lat="43.95819" lon="7.27957">
        <ele>685</ele>
        <time>2018-07-28T13:56:01.000Z</time>
      </trkpt>
      <trkpt lat="43.95816" lon="7.2797">
        <ele>684</ele>
        <time>2018-07-28T13:56:03.000Z</time>
      </trkpt>
      <trkpt lat="43.95812" lon="7.27983">
        <ele>683</ele>
        <time>2018-07-28T13:56:05.000Z</time>
      </trkpt>
      <trkpt lat="43.95809" lon="7.2799">
        <ele>683</ele>
        <time>2018-07-28T13:56:06.000Z</time>
      </trkpt>
      <trkpt lat="43.95801" lon="7.28003">
        <ele>676</ele>
        <time>2018-07-28T13:56:08.000Z</time>
      </trkpt>
      <trkpt lat="43.95797" lon="7.28009">
        <ele>676</ele>
        <time>2018-07-28T13:56:09.000Z</time>
      </trkpt>
      <trkpt lat="43.95792" lon="7.28015">
        <ele>677</ele>
        <time>2018-07-28T13:56:10.000Z</time>
      </trkpt>
      <trkpt lat="43.95787" lon="7.28022">
        <ele>676</ele>
        <time>2018-07-28T13:56:11.000Z</time>
      </trkpt>
      <trkpt lat="43.9578" lon="7.28036">
        <ele>676</ele>
        <time>2018-07-28T13:56:13.000Z</time>
      </trkpt>
      <trkpt lat="43.95778" lon="7.28043">
        <ele>675</ele>
        <time>2018-07-28T13:56:14.000Z</time>
      </trkpt>
      <trkpt lat="43.95775" lon="7.2805">
        <ele>675</ele>
        <time>2018-07-28T13:56:15.000Z</time>
      </trkpt>
      <trkpt lat="43.95773" lon="7.28057">
        <ele>674</ele>
        <time>2018-07-28T13:56:16.000Z</time>
      </trkpt>
      <trkpt lat="43.95767" lon="7.28072">
        <ele>674</ele>
        <time>2018-07-28T13:56:18.000Z</time>
      </trkpt>
      <trkpt lat="43.95765" lon="7.28079">
        <ele>673</ele>
        <time>2018-07-28T13:56:19.000Z</time>
      </trkpt>
      <trkpt lat="43.95763" lon="7.28087">
        <ele>667</ele>
        <time>2018-07-28T13:56:20.000Z</time>
      </trkpt>
      <trkpt lat="43.95758" lon="7.28102">
        <ele>665</ele>
        <time>2018-07-28T13:56:22.000Z</time>
      </trkpt>
      <trkpt lat="43.95754" lon="7.28108">
        <ele>664</ele>
        <time>2018-07-28T13:56:23.000Z</time>
      </trkpt>
      <trkpt lat="43.95748" lon="7.28111">
        <ele>662</ele>
        <time>2018-07-28T13:56:24.000Z</time>
      </trkpt>
      <trkpt lat="43.95741" lon="7.28113">
        <ele>661</ele>
        <time>2018-07-28T13:56:25.000Z</time>
      </trkpt>
      <trkpt lat="43.95721" lon="7.28118">
        <ele>659</ele>
        <time>2018-07-28T13:56:28.000Z</time>
      </trkpt>
      <trkpt lat="43.95714" lon="7.28119">
        <ele>658</ele>
        <time>2018-07-28T13:56:29.000Z</time>
      </trkpt>
      <trkpt lat="43.95707" lon="7.28121">
        <ele>658</ele>
        <time>2018-07-28T13:56:30.000Z</time>
      </trkpt>
      <trkpt lat="43.95695" lon="7.28126">
        <ele>656</ele>
        <time>2018-07-28T13:56:32.000Z</time>
      </trkpt>
      <trkpt lat="43.95689" lon="7.28125">
        <ele>656</ele>
        <time>2018-07-28T13:56:33.000Z</time>
      </trkpt>
      <trkpt lat="43.95682" lon="7.28124">
        <ele>656</ele>
        <time>2018-07-28T13:56:34.000Z</time>
      </trkpt>
      <trkpt lat="43.95679" lon="7.28115">
        <ele>657</ele>
        <time>2018-07-28T13:56:35.000Z</time>
      </trkpt>
      <trkpt lat="43.95676" lon="7.28107">
        <ele>657</ele>
        <time>2018-07-28T13:56:36.000Z</time>
      </trkpt>
      <trkpt lat="43.95674" lon="7.28098">
        <ele>658</ele>
        <time>2018-07-28T13:56:37.000Z</time>
      </trkpt>
      <trkpt lat="43.95672" lon="7.28089">
        <ele>659</ele>
        <time>2018-07-28T13:56:38.000Z</time>
      </trkpt>
      <trkpt lat="43.95668" lon="7.28079">
        <ele>662</ele>
        <time>2018-07-28T13:56:39.000Z</time>
      </trkpt>
      <trkpt lat="43.95664" lon="7.2807">
        <ele>659</ele>
        <time>2018-07-28T13:56:40.000Z</time>
      </trkpt>
      <trkpt lat="43.95654" lon="7.28051">
        <ele>660</ele>
        <time>2018-07-28T13:56:43.000Z</time>
      </trkpt>
      <trkpt lat="43.95649" lon="7.28043">
        <ele>661</ele>
        <time>2018-07-28T13:56:44.000Z</time>
      </trkpt>
      <trkpt lat="43.95643" lon="7.28034">
        <ele>661</ele>
        <time>2018-07-28T13:56:45.000Z</time>
      </trkpt>
      <trkpt lat="43.95632" lon="7.28021">
        <ele>661</ele>
        <time>2018-07-28T13:56:47.000Z</time>
      </trkpt>
      <trkpt lat="43.95621" lon="7.28011">
        <ele>660</ele>
        <time>2018-07-28T13:56:49.000Z</time>
      </trkpt>
      <trkpt lat="43.95604" lon="7.27999">
        <ele>664</ele>
        <time>2018-07-28T13:56:53.000Z</time>
      </trkpt>
      <trkpt lat="43.95596" lon="7.27995">
        <ele>662</ele>
        <time>2018-07-28T13:56:55.000Z</time>
      </trkpt>
      <trkpt lat="43.95583" lon="7.27987">
        <ele>655</ele>
        <time>2018-07-28T13:56:58.000Z</time>
      </trkpt>
      <trkpt lat="43.95565" lon="7.2798">
        <ele>655</ele>
        <time>2018-07-28T13:57:02.000Z</time>
      </trkpt>
      <trkpt lat="43.95554" lon="7.27973">
        <ele>655</ele>
        <time>2018-07-28T13:57:05.000Z</time>
      </trkpt>
      <trkpt lat="43.95548" lon="7.27965">
        <ele>655</ele>
        <time>2018-07-28T13:57:07.000Z</time>
      </trkpt>
      <trkpt lat="43.95541" lon="7.27956">
        <ele>655</ele>
        <time>2018-07-28T13:57:10.000Z</time>
      </trkpt>
      <trkpt lat="43.95539" lon="7.27951">
        <ele>654</ele>
        <time>2018-07-28T13:57:12.000Z</time>
      </trkpt>
      <trkpt lat="43.95537" lon="7.27946">
        <ele>654</ele>
        <time>2018-07-28T13:57:14.000Z</time>
      </trkpt>
      <trkpt lat="43.9553" lon="7.27948">
        <ele>654</ele>
        <time>2018-07-28T13:57:18.000Z</time>
      </trkpt>
      <trkpt lat="43.95523" lon="7.27957">
        <ele>654</ele>
        <time>2018-07-28T13:57:21.000Z</time>
      </trkpt>
      <trkpt lat="43.95519" lon="7.27963">
        <ele>654</ele>
        <time>2018-07-28T13:57:23.000Z</time>
      </trkpt>
      <trkpt lat="43.95512" lon="7.27976">
        <ele>655</ele>
        <time>2018-07-28T13:57:27.000Z</time>
      </trkpt>
      <trkpt lat="43.95517" lon="7.27982">
        <ele>655</ele>
        <time>2018-07-28T13:57:31.000Z</time>
      </trkpt>
      <trkpt lat="43.95518" lon="7.27982">
        <ele>655</ele>
        <time>2018-07-28T13:57:32.000Z</time>
      </trkpt>
      <trkpt lat="43.95518" lon="7.27977">
        <ele>655</ele>
        <time>2018-07-28T13:57:35.000Z</time>
      </trkpt>
      <trkpt lat="43.95513" lon="7.27976">
        <ele>655</ele>
        <time>2018-07-28T13:57:37.000Z</time>
      </trkpt>
      <trkpt lat="43.95508" lon="7.27976">
        <ele>655</ele>
        <time>2018-07-28T13:57:39.000Z</time>
      </trkpt>
      <trkpt lat="43.95496" lon="7.27973">
        <ele>659</ele>
        <time>2018-07-28T13:57:43.000Z</time>
      </trkpt>
      <trkpt lat="43.95477" lon="7.27966">
        <ele>660</ele>
        <time>2018-07-28T13:57:48.000Z</time>
      </trkpt>
      <trkpt lat="43.95461" lon="7.2795">
        <ele>661</ele>
        <time>2018-07-28T13:57:53.000Z</time>
      </trkpt>
      <trkpt lat="43.9544" lon="7.27922">
        <ele>660</ele>
        <time>2018-07-28T13:57:59.000Z</time>
      </trkpt>
      <trkpt lat="43.95435" lon="7.27918">
        <ele>660</ele>
        <time>2018-07-28T13:58:00.000Z</time>
      </trkpt>
      <trkpt lat="43.95416" lon="7.27905">
        <ele>655</ele>
        <time>2018-07-28T13:58:04.000Z</time>
      </trkpt>
      <trkpt lat="43.95412" lon="7.27902">
        <ele>654</ele>
        <time>2018-07-28T13:58:05.000Z</time>
      </trkpt>
      <trkpt lat="43.95407" lon="7.27898">
        <ele>653</ele>
        <time>2018-07-28T13:58:06.000Z</time>
      </trkpt>
      <trkpt lat="43.95389" lon="7.27884">
        <ele>651</ele>
        <time>2018-07-28T13:58:10.000Z</time>
      </trkpt>
      <trkpt lat="43.95385" lon="7.27881">
        <ele>651</ele>
        <time>2018-07-28T13:58:11.000Z</time>
      </trkpt>
      <trkpt lat="43.95375" lon="7.27874">
        <ele>650</ele>
        <time>2018-07-28T13:58:13.000Z</time>
      </trkpt>
      <trkpt lat="43.95361" lon="7.2786">
        <ele>649</ele>
        <time>2018-07-28T13:58:16.000Z</time>
      </trkpt>
      <trkpt lat="43.95356" lon="7.27857">
        <ele>649</ele>
        <time>2018-07-28T13:58:17.000Z</time>
      </trkpt>
      <trkpt lat="43.95338" lon="7.27847">
        <ele>648</ele>
        <time>2018-07-28T13:58:21.000Z</time>
      </trkpt>
      <trkpt lat="43.95336" lon="7.27846">
        <ele>647</ele>
        <time>2018-07-28T13:58:22.000Z</time>
      </trkpt>
      <trkpt lat="43.95331" lon="7.27843">
        <ele>648</ele>
        <time>2018-07-28T13:58:25.000Z</time>
      </trkpt>
      <trkpt lat="43.95318" lon="7.27836">
        <ele>648</ele>
        <time>2018-07-28T13:58:33.000Z</time>
      </trkpt>
      <trkpt lat="43.95305" lon="7.27834">
        <ele>648</ele>
        <time>2018-07-28T13:58:41.000Z</time>
      </trkpt>
      <trkpt lat="43.953" lon="7.27835">
        <ele>648</ele>
        <time>2018-07-28T13:58:44.000Z</time>
      </trkpt>
      <trkpt lat="43.953" lon="7.27837">
        <ele>648</ele>
        <time>2018-07-28T13:58:46.000Z</time>
      </trkpt>
      <trkpt lat="43.95303" lon="7.27836">
        <ele>649</ele>
        <time>2018-07-28T13:58:48.000Z</time>
      </trkpt>
      <trkpt lat="43.95306" lon="7.27836">
        <ele>649</ele>
        <time>2018-07-28T13:58:50.000Z</time>
      </trkpt>
      <trkpt lat="43.9532" lon="7.27836">
        <ele>648</ele>
        <time>2018-07-28T13:58:57.000Z</time>
      </trkpt>
      <trkpt lat="43.95329" lon="7.27843">
        <ele>648</ele>
        <time>2018-07-28T13:59:02.000Z</time>
      </trkpt>
      <trkpt lat="43.9533" lon="7.27842">
        <ele>648</ele>
        <time>2018-07-28T13:59:03.000Z</time>
      </trkpt>
      <trkpt lat="43.95326" lon="7.27837">
        <ele>647</ele>
        <time>2018-07-28T13:59:06.000Z</time>
      </trkpt>
      <trkpt lat="43.95323" lon="7.27833">
        <ele>640</ele>
        <time>2018-07-28T13:59:07.000Z</time>
      </trkpt>
      <trkpt lat="43.95316" lon="7.27821">
        <ele>637</ele>
        <time>2018-07-28T13:59:09.000Z</time>
      </trkpt>
      <trkpt lat="43.95312" lon="7.27814">
        <ele>635</ele>
        <time>2018-07-28T13:59:10.000Z</time>
      </trkpt>
      <trkpt lat="43.95308" lon="7.27805">
        <ele>633</ele>
        <time>2018-07-28T13:59:11.000Z</time>
      </trkpt>
      <trkpt lat="43.95304" lon="7.27795">
        <ele>631</ele>
        <time>2018-07-28T13:59:12.000Z</time>
      </trkpt>
      <trkpt lat="43.95301" lon="7.27788">
        <ele>630</ele>
        <time>2018-07-28T13:59:13.000Z</time>
      </trkpt>
      <trkpt lat="43.95298" lon="7.27781">
        <ele>629</ele>
        <time>2018-07-28T13:59:14.000Z</time>
      </trkpt>
      <trkpt lat="43.95296" lon="7.27778">
        <ele>629</ele>
        <time>2018-07-28T13:59:15.000Z</time>
      </trkpt>
      <trkpt lat="43.95297" lon="7.27779">
        <ele>629</ele>
        <time>2018-07-28T13:59:16.000Z</time>
      </trkpt>
      <trkpt lat="43.95296" lon="7.27777">
        <ele>629</ele>
        <time>2018-07-28T13:59:17.000Z</time>
      </trkpt>
      <trkpt lat="43.95296" lon="7.27777">
        <ele>629</ele>
        <time>2018-07-28T13:59:18.000Z</time>
      </trkpt>
      <trkpt lat="43.95295" lon="7.27777">
        <ele>629</ele>
        <time>2018-07-28T13:59:20.000Z</time>
      </trkpt>
      <trkpt lat="43.95295" lon="7.27778">
        <ele>629</ele>
        <time>2018-07-28T13:59:26.000Z</time>
      </trkpt>
      <trkpt lat="43.95296" lon="7.27777">
        <ele>629</ele>
        <time>2018-07-28T13:59:31.000Z</time>
      </trkpt>
      <trkpt lat="43.95293" lon="7.27769">
        <ele>628</ele>
        <time>2018-07-28T13:59:35.000Z</time>
      </trkpt>
      <trkpt lat="43.9529" lon="7.27761">
        <ele>627</ele>
        <time>2018-07-28T13:59:37.000Z</time>
      </trkpt>
      <trkpt lat="43.95286" lon="7.27754">
        <ele>627</ele>
        <time>2018-07-28T13:59:39.000Z</time>
      </trkpt>
      <trkpt lat="43.95282" lon="7.27747">
        <ele>616</ele>
        <time>2018-07-28T13:59:41.000Z</time>
      </trkpt>
      <trkpt lat="43.95282" lon="7.27741">
        <ele>615</ele>
        <time>2018-07-28T13:59:42.000Z</time>
      </trkpt>
      <trkpt lat="43.95281" lon="7.27736">
        <ele>615</ele>
        <time>2018-07-28T13:59:43.000Z</time>
      </trkpt>
      <trkpt lat="43.95278" lon="7.27721">
        <ele>614</ele>
        <time>2018-07-28T13:59:45.000Z</time>
      </trkpt>
      <trkpt lat="43.95277" lon="7.27713">
        <ele>613</ele>
        <time>2018-07-28T13:59:46.000Z</time>
      </trkpt>
      <trkpt lat="43.95275" lon="7.27695">
        <ele>611</ele>
        <time>2018-07-28T13:59:48.000Z</time>
      </trkpt>
      <trkpt lat="43.95274" lon="7.27684">
        <ele>610</ele>
        <time>2018-07-28T13:59:49.000Z</time>
      </trkpt>
      <trkpt lat="43.95274" lon="7.27666">
        <ele>601</ele>
        <time>2018-07-28T13:59:51.000Z</time>
      </trkpt>
      <trkpt lat="43.95273" lon="7.27657">
        <ele>601</ele>
        <time>2018-07-28T13:59:52.000Z</time>
      </trkpt>
      <trkpt lat="43.95273" lon="7.27649">
        <ele>600</ele>
        <time>2018-07-28T13:59:53.000Z</time>
      </trkpt>
      <trkpt lat="43.95273" lon="7.2764">
        <ele>599</ele>
        <time>2018-07-28T13:59:54.000Z</time>
      </trkpt>
      <trkpt lat="43.95274" lon="7.27633">
        <ele>599</ele>
        <time>2018-07-28T13:59:55.000Z</time>
      </trkpt>
      <trkpt lat="43.95275" lon="7.27627">
        <ele>598</ele>
        <time>2018-07-28T13:59:56.000Z</time>
      </trkpt>
      <trkpt lat="43.95275" lon="7.27622">
        <ele>598</ele>
        <time>2018-07-28T13:59:57.000Z</time>
      </trkpt>
      <trkpt lat="43.95275" lon="7.27616">
        <ele>597</ele>
        <time>2018-07-28T13:59:58.000Z</time>
      </trkpt>
      <trkpt lat="43.95274" lon="7.27609">
        <ele>596</ele>
        <time>2018-07-28T13:59:59.000Z</time>
      </trkpt>
      <trkpt lat="43.95268" lon="7.27599">
        <ele>595</ele>
        <time>2018-07-28T14:00:01.000Z</time>
      </trkpt>
      <trkpt lat="43.95266" lon="7.27594">
        <ele>595</ele>
        <time>2018-07-28T14:00:02.000Z</time>
      </trkpt>
      <trkpt lat="43.95264" lon="7.27591">
        <ele>595</ele>
        <time>2018-07-28T14:00:03.000Z</time>
      </trkpt>
      <trkpt lat="43.9526" lon="7.27585">
        <ele>594</ele>
        <time>2018-07-28T14:00:05.000Z</time>
      </trkpt>
      <trkpt lat="43.95257" lon="7.27583">
        <ele>588</ele>
        <time>2018-07-28T14:00:06.000Z</time>
      </trkpt>
      <trkpt lat="43.95255" lon="7.2758">
        <ele>589</ele>
        <time>2018-07-28T14:00:07.000Z</time>
      </trkpt>
      <trkpt lat="43.95254" lon="7.27577">
        <ele>588</ele>
        <time>2018-07-28T14:00:08.000Z</time>
      </trkpt>
      <trkpt lat="43.95252" lon="7.27573">
        <ele>587</ele>
        <time>2018-07-28T14:00:09.000Z</time>
      </trkpt>
      <trkpt lat="43.95249" lon="7.2757">
        <ele>581</ele>
        <time>2018-07-28T14:00:10.000Z</time>
      </trkpt>
      <trkpt lat="43.95249" lon="7.27565">
        <ele>579</ele>
        <time>2018-07-28T14:00:12.000Z</time>
      </trkpt>
      <trkpt lat="43.9525" lon="7.27565">
        <ele>579</ele>
        <time>2018-07-28T14:00:13.000Z</time>
      </trkpt>
      <trkpt lat="43.95252" lon="7.27564">
        <ele>584</ele>
        <time>2018-07-28T14:00:14.000Z</time>
      </trkpt>
      <trkpt lat="43.95253" lon="7.27563">
        <ele>583</ele>
        <time>2018-07-28T14:00:15.000Z</time>
      </trkpt>
      <trkpt lat="43.95255" lon="7.27563">
        <ele>583</ele>
        <time>2018-07-28T14:00:16.000Z</time>
      </trkpt>
      <trkpt lat="43.95256" lon="7.27562">
        <ele>583</ele>
        <time>2018-07-28T14:00:17.000Z</time>
      </trkpt>
      <trkpt lat="43.95255" lon="7.2756">
        <ele>582</ele>
        <time>2018-07-28T14:00:19.000Z</time>
      </trkpt>
      <trkpt lat="43.95253" lon="7.27559">
        <ele>582</ele>
        <time>2018-07-28T14:00:20.000Z</time>
      </trkpt>
      <trkpt lat="43.95245" lon="7.27554">
        <ele>575</ele>
        <time>2018-07-28T14:00:23.000Z</time>
      </trkpt>
      <trkpt lat="43.95241" lon="7.27553">
        <ele>574</ele>
        <time>2018-07-28T14:00:24.000Z</time>
      </trkpt>
      <trkpt lat="43.95237" lon="7.27549">
        <ele>572</ele>
        <time>2018-07-28T14:00:26.000Z</time>
      </trkpt>
      <trkpt lat="43.95238" lon="7.27546">
        <ele>571</ele>
        <time>2018-07-28T14:00:27.000Z</time>
      </trkpt>
      <trkpt lat="43.95244" lon="7.27542">
        <ele>571</ele>
        <time>2018-07-28T14:00:29.000Z</time>
      </trkpt>
      <trkpt lat="43.95248" lon="7.27541">
        <ele>571</ele>
        <time>2018-07-28T14:00:30.000Z</time>
      </trkpt>
      <trkpt lat="43.9525" lon="7.2754">
        <ele>571</ele>
        <time>2018-07-28T14:00:31.000Z</time>
      </trkpt>
      <trkpt lat="43.9525" lon="7.27539">
        <ele>577</ele>
        <time>2018-07-28T14:00:32.000Z</time>
      </trkpt>
      <trkpt lat="43.95249" lon="7.27538">
        <ele>571</ele>
        <time>2018-07-28T14:00:33.000Z</time>
      </trkpt>
      <trkpt lat="43.95247" lon="7.27536">
        <ele>570</ele>
        <time>2018-07-28T14:00:34.000Z</time>
      </trkpt>
      <trkpt lat="43.95239" lon="7.27529">
        <ele>568</ele>
        <time>2018-07-28T14:00:37.000Z</time>
      </trkpt>
      <trkpt lat="43.95233" lon="7.27524">
        <ele>567</ele>
        <time>2018-07-28T14:00:39.000Z</time>
      </trkpt>
      <trkpt lat="43.95229" lon="7.27522">
        <ele>567</ele>
        <time>2018-07-28T14:00:40.000Z</time>
      </trkpt>
      <trkpt lat="43.95222" lon="7.2752">
        <ele>566</ele>
        <time>2018-07-28T14:00:42.000Z</time>
      </trkpt>
      <trkpt lat="43.95217" lon="7.27519">
        <ele>565</ele>
        <time>2018-07-28T14:00:44.000Z</time>
      </trkpt>
      <trkpt lat="43.95217" lon="7.27517">
        <ele>565</ele>
        <time>2018-07-28T14:00:45.000Z</time>
      </trkpt>
      <trkpt lat="43.95219" lon="7.27515">
        <ele>565</ele>
        <time>2018-07-28T14:00:46.000Z</time>
      </trkpt>
      <trkpt lat="43.95219" lon="7.27512">
        <ele>565</ele>
        <time>2018-07-28T14:00:48.000Z</time>
      </trkpt>
      <trkpt lat="43.95214" lon="7.27513">
        <ele>565</ele>
        <time>2018-07-28T14:00:50.000Z</time>
      </trkpt>
      <trkpt lat="43.95211" lon="7.27512">
        <ele>564</ele>
        <time>2018-07-28T14:00:51.000Z</time>
      </trkpt>
      <trkpt lat="43.95211" lon="7.27509">
        <ele>564</ele>
        <time>2018-07-28T14:00:52.000Z</time>
      </trkpt>
      <trkpt lat="43.95212" lon="7.27506">
        <ele>564</ele>
        <time>2018-07-28T14:00:53.000Z</time>
      </trkpt>
      <trkpt lat="43.95218" lon="7.27504">
        <ele>565</ele>
        <time>2018-07-28T14:00:55.000Z</time>
      </trkpt>
      <trkpt lat="43.95219" lon="7.27501">
        <ele>565</ele>
        <time>2018-07-28T14:00:57.000Z</time>
      </trkpt>
      <trkpt lat="43.9521" lon="7.27499">
        <ele>549</ele>
        <time>2018-07-28T14:01:00.000Z</time>
      </trkpt>
      <trkpt lat="43.95206" lon="7.275">
        <ele>548</ele>
        <time>2018-07-28T14:01:01.000Z</time>
      </trkpt>
      <trkpt lat="43.95201" lon="7.275">
        <ele>562</ele>
        <time>2018-07-28T14:01:02.000Z</time>
      </trkpt>
      <trkpt lat="43.95194" lon="7.27498">
        <ele>547</ele>
        <time>2018-07-28T14:01:04.000Z</time>
      </trkpt>
      <trkpt lat="43.95192" lon="7.27498">
        <ele>547</ele>
        <time>2018-07-28T14:01:05.000Z</time>
      </trkpt>
      <trkpt lat="43.95191" lon="7.27499">
        <ele>547</ele>
        <time>2018-07-28T14:01:06.000Z</time>
      </trkpt>
      <trkpt lat="43.95189" lon="7.27502">
        <ele>559</ele>
        <time>2018-07-28T14:01:07.000Z</time>
      </trkpt>
      <trkpt lat="43.95186" lon="7.27505">
        <ele>558</ele>
        <time>2018-07-28T14:01:08.000Z</time>
      </trkpt>
      <trkpt lat="43.95181" lon="7.27506">
        <ele>556</ele>
        <time>2018-07-28T14:01:10.000Z</time>
      </trkpt>
      <trkpt lat="43.95178" lon="7.27504">
        <ele>555</ele>
        <time>2018-07-28T14:01:11.000Z</time>
      </trkpt>
      <trkpt lat="43.95174" lon="7.27501">
        <ele>553</ele>
        <time>2018-07-28T14:01:12.000Z</time>
      </trkpt>
      <trkpt lat="43.95171" lon="7.27499">
        <ele>547</ele>
        <time>2018-07-28T14:01:13.000Z</time>
      </trkpt>
      <trkpt lat="43.95169" lon="7.27494">
        <ele>547</ele>
        <time>2018-07-28T14:01:14.000Z</time>
      </trkpt>
      <trkpt lat="43.95171" lon="7.27485">
        <ele>546</ele>
        <time>2018-07-28T14:01:16.000Z</time>
      </trkpt>
      <trkpt lat="43.95176" lon="7.27475">
        <ele>544</ele>
        <time>2018-07-28T14:01:18.000Z</time>
      </trkpt>
      <trkpt lat="43.95183" lon="7.27466">
        <ele>543</ele>
        <time>2018-07-28T14:01:20.000Z</time>
      </trkpt>
      <trkpt lat="43.9519" lon="7.27462">
        <ele>543</ele>
        <time>2018-07-28T14:01:22.000Z</time>
      </trkpt>
      <trkpt lat="43.95192" lon="7.27459">
        <ele>542</ele>
        <time>2018-07-28T14:01:24.000Z</time>
      </trkpt>
      <trkpt lat="43.95191" lon="7.27457">
        <ele>542</ele>
        <time>2018-07-28T14:01:25.000Z</time>
      </trkpt>
      <trkpt lat="43.95185" lon="7.27454">
        <ele>541</ele>
        <time>2018-07-28T14:01:27.000Z</time>
      </trkpt>
      <trkpt lat="43.95182" lon="7.27453">
        <ele>541</ele>
        <time>2018-07-28T14:01:28.000Z</time>
      </trkpt>
      <trkpt lat="43.95174" lon="7.27453">
        <ele>540</ele>
        <time>2018-07-28T14:01:30.000Z</time>
      </trkpt>
      <trkpt lat="43.95166" lon="7.27458">
        <ele>529</ele>
        <time>2018-07-28T14:01:32.000Z</time>
      </trkpt>
      <trkpt lat="43.9516" lon="7.27468">
        <ele>530</ele>
        <time>2018-07-28T14:01:34.000Z</time>
      </trkpt>
      <trkpt lat="43.95157" lon="7.27474">
        <ele>531</ele>
        <time>2018-07-28T14:01:35.000Z</time>
      </trkpt>
      <trkpt lat="43.95154" lon="7.2748">
        <ele>533</ele>
        <time>2018-07-28T14:01:36.000Z</time>
      </trkpt>
      <trkpt lat="43.95145" lon="7.27505">
        <ele>540</ele>
        <time>2018-07-28T14:01:39.000Z</time>
      </trkpt>
      <trkpt lat="43.9514" lon="7.27517">
        <ele>539</ele>
        <time>2018-07-28T14:01:40.000Z</time>
      </trkpt>
      <trkpt lat="43.95135" lon="7.27525">
        <ele>538</ele>
        <time>2018-07-28T14:01:41.000Z</time>
      </trkpt>
      <trkpt lat="43.95126" lon="7.27544">
        <ele>537</ele>
        <time>2018-07-28T14:01:43.000Z</time>
      </trkpt>
      <trkpt lat="43.95117" lon="7.27566">
        <ele>536</ele>
        <time>2018-07-28T14:01:45.000Z</time>
      </trkpt>
      <trkpt lat="43.95114" lon="7.27577">
        <ele>535</ele>
        <time>2018-07-28T14:01:46.000Z</time>
      </trkpt>
      <trkpt lat="43.95111" lon="7.27589">
        <ele>539</ele>
        <time>2018-07-28T14:01:47.000Z</time>
      </trkpt>
      <trkpt lat="43.95107" lon="7.27613">
        <ele>540</ele>
        <time>2018-07-28T14:01:49.000Z</time>
      </trkpt>
      <trkpt lat="43.95102" lon="7.27641">
        <ele>539</ele>
        <time>2018-07-28T14:01:51.000Z</time>
      </trkpt>
      <trkpt lat="43.95097" lon="7.27666">
        <ele>535</ele>
        <time>2018-07-28T14:01:53.000Z</time>
      </trkpt>
      <trkpt lat="43.95093" lon="7.27682">
        <ele>541</ele>
        <time>2018-07-28T14:01:54.000Z</time>
      </trkpt>
      <trkpt lat="43.95082" lon="7.27708">
        <ele>528</ele>
        <time>2018-07-28T14:01:56.000Z</time>
      </trkpt>
      <trkpt lat="43.95067" lon="7.2773">
        <ele>530</ele>
        <time>2018-07-28T14:01:58.000Z</time>
      </trkpt>
      <trkpt lat="43.95059" lon="7.27739">
        <ele>529</ele>
        <time>2018-07-28T14:01:59.000Z</time>
      </trkpt>
      <trkpt lat="43.95049" lon="7.27746">
        <ele>528</ele>
        <time>2018-07-28T14:02:00.000Z</time>
      </trkpt>
      <trkpt lat="43.95039" lon="7.2775">
        <ele>526</ele>
        <time>2018-07-28T14:02:01.000Z</time>
      </trkpt>
      <trkpt lat="43.95029" lon="7.2775">
        <ele>524</ele>
        <time>2018-07-28T14:02:02.000Z</time>
      </trkpt>
      <trkpt lat="43.95011" lon="7.27747">
        <ele>522</ele>
        <time>2018-07-28T14:02:04.000Z</time>
      </trkpt>
      <trkpt lat="43.95002" lon="7.27746">
        <ele>521</ele>
        <time>2018-07-28T14:02:05.000Z</time>
      </trkpt>
      <trkpt lat="43.94996" lon="7.27747">
        <ele>517</ele>
        <time>2018-07-28T14:02:06.000Z</time>
      </trkpt>
      <trkpt lat="43.94986" lon="7.2775">
        <ele>514</ele>
        <time>2018-07-28T14:02:07.000Z</time>
      </trkpt>
      <trkpt lat="43.94979" lon="7.27753">
        <ele>519</ele>
        <time>2018-07-28T14:02:08.000Z</time>
      </trkpt>
      <trkpt lat="43.9497" lon="7.27757">
        <ele>519</ele>
        <time>2018-07-28T14:02:09.000Z</time>
      </trkpt>
      <trkpt lat="43.94955" lon="7.27766">
        <ele>518</ele>
        <time>2018-07-28T14:02:11.000Z</time>
      </trkpt>
      <trkpt lat="43.94941" lon="7.27775">
        <ele>517</ele>
        <time>2018-07-28T14:02:13.000Z</time>
      </trkpt>
      <trkpt lat="43.94934" lon="7.27781">
        <ele>516</ele>
        <time>2018-07-28T14:02:14.000Z</time>
      </trkpt>
      <trkpt lat="43.94928" lon="7.27789">
        <ele>517</ele>
        <time>2018-07-28T14:02:15.000Z</time>
      </trkpt>
      <trkpt lat="43.94918" lon="7.27806">
        <ele>517</ele>
        <time>2018-07-28T14:02:17.000Z</time>
      </trkpt>
      <trkpt lat="43.94909" lon="7.27829">
        <ele>510</ele>
        <time>2018-07-28T14:02:19.000Z</time>
      </trkpt>
      <trkpt lat="43.94902" lon="7.27853">
        <ele>507</ele>
        <time>2018-07-28T14:02:21.000Z</time>
      </trkpt>
      <trkpt lat="43.94896" lon="7.27878">
        <ele>506</ele>
        <time>2018-07-28T14:02:23.000Z</time>
      </trkpt>
      <trkpt lat="43.94892" lon="7.27905">
        <ele>507</ele>
        <time>2018-07-28T14:02:25.000Z</time>
      </trkpt>
      <trkpt lat="43.94889" lon="7.27931">
        <ele>508</ele>
        <time>2018-07-28T14:02:27.000Z</time>
      </trkpt>
      <trkpt lat="43.94884" lon="7.27953">
        <ele>508</ele>
        <time>2018-07-28T14:02:29.000Z</time>
      </trkpt>
      <trkpt lat="43.9488" lon="7.27964">
        <ele>507</ele>
        <time>2018-07-28T14:02:30.000Z</time>
      </trkpt>
      <trkpt lat="43.94874" lon="7.27973">
        <ele>507</ele>
        <time>2018-07-28T14:02:31.000Z</time>
      </trkpt>
      <trkpt lat="43.94861" lon="7.2799">
        <ele>504</ele>
        <time>2018-07-28T14:02:33.000Z</time>
      </trkpt>
      <trkpt lat="43.94855" lon="7.28">
        <ele>505</ele>
        <time>2018-07-28T14:02:34.000Z</time>
      </trkpt>
      <trkpt lat="43.9485" lon="7.28011">
        <ele>504</ele>
        <time>2018-07-28T14:02:35.000Z</time>
      </trkpt>
      <trkpt lat="43.9484" lon="7.28033">
        <ele>505</ele>
        <time>2018-07-28T14:02:37.000Z</time>
      </trkpt>
      <trkpt lat="43.94836" lon="7.28043">
        <ele>506</ele>
        <time>2018-07-28T14:02:38.000Z</time>
      </trkpt>
      <trkpt lat="43.94833" lon="7.28056">
        <ele>487</ele>
        <time>2018-07-28T14:02:39.000Z</time>
      </trkpt>
      <trkpt lat="43.94832" lon="7.28069">
        <ele>489</ele>
        <time>2018-07-28T14:02:40.000Z</time>
      </trkpt>
      <trkpt lat="43.94831" lon="7.2808">
        <ele>494</ele>
        <time>2018-07-28T14:02:41.000Z</time>
      </trkpt>
      <trkpt lat="43.94831" lon="7.28099">
        <ele>487</ele>
        <time>2018-07-28T14:02:43.000Z</time>
      </trkpt>
      <trkpt lat="43.94831" lon="7.28114">
        <ele>483</ele>
        <time>2018-07-28T14:02:45.000Z</time>
      </trkpt>
      <trkpt lat="43.94832" lon="7.28125">
        <ele>482</ele>
        <time>2018-07-28T14:02:47.000Z</time>
      </trkpt>
      <trkpt lat="43.94832" lon="7.28129">
        <ele>482</ele>
        <time>2018-07-28T14:02:48.000Z</time>
      </trkpt>
      <trkpt lat="43.9483" lon="7.28138">
        <ele>482</ele>
        <time>2018-07-28T14:02:51.000Z</time>
      </trkpt>
      <trkpt lat="43.94831" lon="7.2814">
        <ele>482</ele>
        <time>2018-07-28T14:02:52.000Z</time>
      </trkpt>
      <trkpt lat="43.94832" lon="7.28145">
        <ele>482</ele>
        <time>2018-07-28T14:02:54.000Z</time>
      </trkpt>
      <trkpt lat="43.94832" lon="7.28148">
        <ele>483</ele>
        <time>2018-07-28T14:02:55.000Z</time>
      </trkpt>
      <trkpt lat="43.94831" lon="7.28149">
        <ele>483</ele>
        <time>2018-07-28T14:02:57.000Z</time>
      </trkpt>
      <trkpt lat="43.94831" lon="7.28149">
        <ele>483</ele>
        <time>2018-07-28T14:02:59.000Z</time>
      </trkpt>
      <trkpt lat="43.94829" lon="7.28149">
        <ele>483</ele>
        <time>2018-07-28T14:03:00.000Z</time>
      </trkpt>
      <trkpt lat="43.94826" lon="7.28142">
        <ele>482</ele>
        <time>2018-07-28T14:03:02.000Z</time>
      </trkpt>
      <trkpt lat="43.94824" lon="7.2813">
        <ele>481</ele>
        <time>2018-07-28T14:03:04.000Z</time>
      </trkpt>
      <trkpt lat="43.94819" lon="7.28111">
        <ele>482</ele>
        <time>2018-07-28T14:03:06.000Z</time>
      </trkpt>
      <trkpt lat="43.94815" lon="7.28102">
        <ele>483</ele>
        <time>2018-07-28T14:03:07.000Z</time>
      </trkpt>
      <trkpt lat="43.94812" lon="7.28093">
        <ele>483</ele>
        <time>2018-07-28T14:03:08.000Z</time>
      </trkpt>
      <trkpt lat="43.9481" lon="7.28083">
        <ele>483</ele>
        <time>2018-07-28T14:03:09.000Z</time>
      </trkpt>
      <trkpt lat="43.94808" lon="7.28074">
        <ele>485</ele>
        <time>2018-07-28T14:03:10.000Z</time>
      </trkpt>
      <trkpt lat="43.94808" lon="7.28053">
        <ele>483</ele>
        <time>2018-07-28T14:03:12.000Z</time>
      </trkpt>
      <trkpt lat="43.94811" lon="7.28032">
        <ele>484</ele>
        <time>2018-07-28T14:03:14.000Z</time>
      </trkpt>
      <trkpt lat="43.94813" lon="7.28021">
        <ele>485</ele>
        <time>2018-07-28T14:03:15.000Z</time>
      </trkpt>
      <trkpt lat="43.94814" lon="7.2801">
        <ele>486</ele>
        <time>2018-07-28T14:03:16.000Z</time>
      </trkpt>
      <trkpt lat="43.94814" lon="7.28001">
        <ele>486</ele>
        <time>2018-07-28T14:03:17.000Z</time>
      </trkpt>
      <trkpt lat="43.94812" lon="7.27991">
        <ele>486</ele>
        <time>2018-07-28T14:03:18.000Z</time>
      </trkpt>
      <trkpt lat="43.94805" lon="7.27976">
        <ele>484</ele>
        <time>2018-07-28T14:03:20.000Z</time>
      </trkpt>
      <trkpt lat="43.94801" lon="7.27972">
        <ele>484</ele>
        <time>2018-07-28T14:03:21.000Z</time>
      </trkpt>
      <trkpt lat="43.94796" lon="7.27973">
        <ele>483</ele>
        <time>2018-07-28T14:03:22.000Z</time>
      </trkpt>
      <trkpt lat="43.94791" lon="7.27976">
        <ele>482</ele>
        <time>2018-07-28T14:03:23.000Z</time>
      </trkpt>
      <trkpt lat="43.94783" lon="7.2798">
        <ele>481</ele>
        <time>2018-07-28T14:03:24.000Z</time>
      </trkpt>
      <trkpt lat="43.94776" lon="7.27981">
        <ele>480</ele>
        <time>2018-07-28T14:03:25.000Z</time>
      </trkpt>
      <trkpt lat="43.94769" lon="7.27981">
        <ele>479</ele>
        <time>2018-07-28T14:03:26.000Z</time>
      </trkpt>
      <trkpt lat="43.94763" lon="7.2798">
        <ele>478</ele>
        <time>2018-07-28T14:03:27.000Z</time>
      </trkpt>
      <trkpt lat="43.94752" lon="7.27977">
        <ele>477</ele>
        <time>2018-07-28T14:03:29.000Z</time>
      </trkpt>
      <trkpt lat="43.94746" lon="7.27974">
        <ele>470</ele>
        <time>2018-07-28T14:03:30.000Z</time>
      </trkpt>
      <trkpt lat="43.94741" lon="7.27971">
        <ele>470</ele>
        <time>2018-07-28T14:03:31.000Z</time>
      </trkpt>
      <trkpt lat="43.94725" lon="7.2795">
        <ele>470</ele>
        <time>2018-07-28T14:03:35.000Z</time>
      </trkpt>
      <trkpt lat="43.94712" lon="7.27932">
        <ele>470</ele>
        <time>2018-07-28T14:03:38.000Z</time>
      </trkpt>
      <trkpt lat="43.94701" lon="7.27923">
        <ele>470</ele>
        <time>2018-07-28T14:03:40.000Z</time>
      </trkpt>
      <trkpt lat="43.94685" lon="7.2791">
        <ele>470</ele>
        <time>2018-07-28T14:03:43.000Z</time>
      </trkpt>
      <trkpt lat="43.94679" lon="7.27902">
        <ele>469</ele>
        <time>2018-07-28T14:03:44.000Z</time>
      </trkpt>
      <trkpt lat="43.94675" lon="7.27895">
        <ele>470</ele>
        <time>2018-07-28T14:03:45.000Z</time>
      </trkpt>
      <trkpt lat="43.94667" lon="7.27877">
        <ele>470</ele>
        <time>2018-07-28T14:03:47.000Z</time>
      </trkpt>
      <trkpt lat="43.94662" lon="7.2786">
        <ele>461</ele>
        <time>2018-07-28T14:03:49.000Z</time>
      </trkpt>
      <trkpt lat="43.9466" lon="7.27854">
        <ele>461</ele>
        <time>2018-07-28T14:03:50.000Z</time>
      </trkpt>
      <trkpt lat="43.9466" lon="7.27851">
        <ele>461</ele>
        <time>2018-07-28T14:03:51.000Z</time>
      </trkpt>
      <trkpt lat="43.94659" lon="7.27848">
        <ele>461</ele>
        <time>2018-07-28T14:03:52.000Z</time>
      </trkpt>
      <trkpt lat="43.94659" lon="7.27847">
        <ele>461</ele>
        <time>2018-07-28T14:03:56.000Z</time>
      </trkpt>
      <trkpt lat="43.94652" lon="7.2784">
        <ele>461</ele>
        <time>2018-07-28T14:04:01.000Z</time>
      </trkpt>
      <trkpt lat="43.9465" lon="7.27838">
        <ele>461</ele>
        <time>2018-07-28T14:04:04.000Z</time>
      </trkpt>
      <trkpt lat="43.94651" lon="7.27838">
        <ele>461</ele>
        <time>2018-07-28T14:04:07.000Z</time>
      </trkpt>
      <trkpt lat="43.9465" lon="7.27835">
        <ele>461</ele>
        <time>2018-07-28T14:04:11.000Z</time>
      </trkpt>
      <trkpt lat="43.94649" lon="7.27833">
        <ele>456</ele>
        <time>2018-07-28T14:04:12.000Z</time>
      </trkpt>
      <trkpt lat="43.94643" lon="7.27828">
        <ele>453</ele>
        <time>2018-07-28T14:04:15.000Z</time>
      </trkpt>
      <trkpt lat="43.94633" lon="7.27824">
        <ele>450</ele>
        <time>2018-07-28T14:04:18.000Z</time>
      </trkpt>
      <trkpt lat="43.94628" lon="7.2782">
        <ele>449</ele>
        <time>2018-07-28T14:04:19.000Z</time>
      </trkpt>
      <trkpt lat="43.94624" lon="7.27816">
        <ele>448</ele>
        <time>2018-07-28T14:04:20.000Z</time>
      </trkpt>
      <trkpt lat="43.94621" lon="7.27812">
        <ele>447</ele>
        <time>2018-07-28T14:04:21.000Z</time>
      </trkpt>
      <trkpt lat="43.94618" lon="7.27805">
        <ele>446</ele>
        <time>2018-07-28T14:04:23.000Z</time>
      </trkpt>
      <trkpt lat="43.94618" lon="7.27804">
        <ele>446</ele>
        <time>2018-07-28T14:04:24.000Z</time>
      </trkpt>
      <trkpt lat="43.94618" lon="7.27801">
        <ele>446</ele>
        <time>2018-07-28T14:04:25.000Z</time>
      </trkpt>
      <trkpt lat="43.94618" lon="7.27799">
        <ele>446</ele>
        <time>2018-07-28T14:04:26.000Z</time>
      </trkpt>
      <trkpt lat="43.94619" lon="7.27795">
        <ele>445</ele>
        <time>2018-07-28T14:04:27.000Z</time>
      </trkpt>
      <trkpt lat="43.94622" lon="7.2778">
        <ele>444</ele>
        <time>2018-07-28T14:04:30.000Z</time>
      </trkpt>
      <trkpt lat="43.94627" lon="7.2777">
        <ele>445</ele>
        <time>2018-07-28T14:04:32.000Z</time>
      </trkpt>
      <trkpt lat="43.9463" lon="7.27762">
        <ele>445</ele>
        <time>2018-07-28T14:04:34.000Z</time>
      </trkpt>
      <trkpt lat="43.94633" lon="7.2775">
        <ele>432</ele>
        <time>2018-07-28T14:04:37.000Z</time>
      </trkpt>
      <trkpt lat="43.94638" lon="7.27742">
        <ele>434</ele>
        <time>2018-07-28T14:04:39.000Z</time>
      </trkpt>
      <trkpt lat="43.94645" lon="7.27737">
        <ele>435</ele>
        <time>2018-07-28T14:04:41.000Z</time>
      </trkpt>
      <trkpt lat="43.94649" lon="7.2773">
        <ele>434</ele>
        <time>2018-07-28T14:04:43.000Z</time>
      </trkpt>
      <trkpt lat="43.94653" lon="7.2772">
        <ele>432</ele>
        <time>2018-07-28T14:04:46.000Z</time>
      </trkpt>
      <trkpt lat="43.94654" lon="7.27717">
        <ele>432</ele>
        <time>2018-07-28T14:04:47.000Z</time>
      </trkpt>
      <trkpt lat="43.94655" lon="7.27714">
        <ele>431</ele>
        <time>2018-07-28T14:04:48.000Z</time>
      </trkpt>
      <trkpt lat="43.94657" lon="7.27709">
        <ele>430</ele>
        <time>2018-07-28T14:04:50.000Z</time>
      </trkpt>
      <trkpt lat="43.94657" lon="7.27706">
        <ele>429</ele>
        <time>2018-07-28T14:04:51.000Z</time>
      </trkpt>
      <trkpt lat="43.94656" lon="7.27702">
        <ele>429</ele>
        <time>2018-07-28T14:04:52.000Z</time>
      </trkpt>
      <trkpt lat="43.94658" lon="7.27697">
        <ele>428</ele>
        <time>2018-07-28T14:04:54.000Z</time>
      </trkpt>
      <trkpt lat="43.94659" lon="7.27695">
        <ele>428</ele>
        <time>2018-07-28T14:04:55.000Z</time>
      </trkpt>
      <trkpt lat="43.9466" lon="7.27692">
        <ele>428</ele>
        <time>2018-07-28T14:04:56.000Z</time>
      </trkpt>
      <trkpt lat="43.9466" lon="7.27684">
        <ele>427</ele>
        <time>2018-07-28T14:04:59.000Z</time>
      </trkpt>
      <trkpt lat="43.94662" lon="7.27678">
        <ele>427</ele>
        <time>2018-07-28T14:05:00.000Z</time>
      </trkpt>
      <trkpt lat="43.94664" lon="7.27672">
        <ele>428</ele>
        <time>2018-07-28T14:05:02.000Z</time>
      </trkpt>
      <trkpt lat="43.94664" lon="7.2767">
        <ele>428</ele>
        <time>2018-07-28T14:05:03.000Z</time>
      </trkpt>
      <trkpt lat="43.94668" lon="7.2766">
        <ele>430</ele>
        <time>2018-07-28T14:05:06.000Z</time>
      </trkpt>
      <trkpt lat="43.9467" lon="7.27656">
        <ele>431</ele>
        <time>2018-07-28T14:05:07.000Z</time>
      </trkpt>
      <trkpt lat="43.9467" lon="7.27655">
        <ele>431</ele>
        <time>2018-07-28T14:05:08.000Z</time>
      </trkpt>
      <trkpt lat="43.9467" lon="7.27654">
        <ele>431</ele>
        <time>2018-07-28T14:05:09.000Z</time>
      </trkpt>
      <trkpt lat="43.94669" lon="7.27654">
        <ele>431</ele>
        <time>2018-07-28T14:05:10.000Z</time>
      </trkpt>
      <trkpt lat="43.94668" lon="7.27655">
        <ele>431</ele>
        <time>2018-07-28T14:05:11.000Z</time>
      </trkpt>
      <trkpt lat="43.94664" lon="7.27658">
        <ele>420</ele>
        <time>2018-07-28T14:05:13.000Z</time>
      </trkpt>
      <trkpt lat="43.94663" lon="7.27656">
        <ele>419</ele>
        <time>2018-07-28T14:05:14.000Z</time>
      </trkpt>
      <trkpt lat="43.94664" lon="7.27652">
        <ele>417</ele>
        <time>2018-07-28T14:05:16.000Z</time>
      </trkpt>
      <trkpt lat="43.94665" lon="7.27644">
        <ele>413</ele>
        <time>2018-07-28T14:05:18.000Z</time>
      </trkpt>
      <trkpt lat="43.94668" lon="7.27637">
        <ele>430</ele>
        <time>2018-07-28T14:05:20.000Z</time>
      </trkpt>
      <trkpt lat="43.94668" lon="7.27634">
        <ele>430</ele>
        <time>2018-07-28T14:05:21.000Z</time>
      </trkpt>
      <trkpt lat="43.94667" lon="7.27633">
        <ele>430</ele>
        <time>2018-07-28T14:05:22.000Z</time>
      </trkpt>
      <trkpt lat="43.94662" lon="7.27639">
        <ele>411</ele>
        <time>2018-07-28T14:05:26.000Z</time>
      </trkpt>
      <trkpt lat="43.94659" lon="7.2764">
        <ele>411</ele>
        <time>2018-07-28T14:05:28.000Z</time>
      </trkpt>
      <trkpt lat="43.94659" lon="7.27639">
        <ele>411</ele>
        <time>2018-07-28T14:05:29.000Z</time>
      </trkpt>
      <trkpt lat="43.9466" lon="7.27637">
        <ele>410</ele>
        <time>2018-07-28T14:05:30.000Z</time>
      </trkpt>
      <trkpt lat="43.94661" lon="7.27632">
        <ele>409</ele>
        <time>2018-07-28T14:05:32.000Z</time>
      </trkpt>
      <trkpt lat="43.94661" lon="7.2763">
        <ele>409</ele>
        <time>2018-07-28T14:05:33.000Z</time>
      </trkpt>
      <trkpt lat="43.94661" lon="7.27629">
        <ele>408</ele>
        <time>2018-07-28T14:05:34.000Z</time>
      </trkpt>
      <trkpt lat="43.94658" lon="7.27632">
        <ele>409</ele>
        <time>2018-07-28T14:05:38.000Z</time>
      </trkpt>
      <trkpt lat="43.94657" lon="7.27635">
        <ele>409</ele>
        <time>2018-07-28T14:05:40.000Z</time>
      </trkpt>
      <trkpt lat="43.94655" lon="7.27636">
        <ele>409</ele>
        <time>2018-07-28T14:05:41.000Z</time>
      </trkpt>
      <trkpt lat="43.94651" lon="7.27637">
        <ele>409</ele>
        <time>2018-07-28T14:05:44.000Z</time>
      </trkpt>
      <trkpt lat="43.94653" lon="7.27628">
        <ele>407</ele>
        <time>2018-07-28T14:05:49.000Z</time>
      </trkpt>
      <trkpt lat="43.94662" lon="7.27609">
        <ele>406</ele>
        <time>2018-07-28T14:05:53.000Z</time>
      </trkpt>
      <trkpt lat="43.94667" lon="7.27594">
        <ele>416</ele>
        <time>2018-07-28T14:05:55.000Z</time>
      </trkpt>
      <trkpt lat="43.94674" lon="7.27579">
        <ele>409</ele>
        <time>2018-07-28T14:05:57.000Z</time>
      </trkpt>
      <trkpt lat="43.94687" lon="7.27553">
        <ele>412</ele>
        <time>2018-07-28T14:06:00.000Z</time>
      </trkpt>
      <trkpt lat="43.94697" lon="7.27534">
        <ele>412</ele>
        <time>2018-07-28T14:06:02.000Z</time>
      </trkpt>
      <trkpt lat="43.94704" lon="7.27511">
        <ele>411</ele>
        <time>2018-07-28T14:06:04.000Z</time>
      </trkpt>
      <trkpt lat="43.94711" lon="7.27486">
        <ele>403</ele>
        <time>2018-07-28T14:06:06.000Z</time>
      </trkpt>
      <trkpt lat="43.94713" lon="7.27459">
        <ele>401</ele>
        <time>2018-07-28T14:06:08.000Z</time>
      </trkpt>
      <trkpt lat="43.94711" lon="7.27444">
        <ele>400</ele>
        <time>2018-07-28T14:06:09.000Z</time>
      </trkpt>
      <trkpt lat="43.94709" lon="7.27431">
        <ele>399</ele>
        <time>2018-07-28T14:06:10.000Z</time>
      </trkpt>
      <trkpt lat="43.94695" lon="7.27412">
        <ele>397</ele>
        <time>2018-07-28T14:06:12.000Z</time>
      </trkpt>
      <trkpt lat="43.94675" lon="7.27408">
        <ele>395</ele>
        <time>2018-07-28T14:06:14.000Z</time>
      </trkpt>
      <trkpt lat="43.94659" lon="7.27413">
        <ele>398</ele>
        <time>2018-07-28T14:06:16.000Z</time>
      </trkpt>
      <trkpt lat="43.94655" lon="7.27417">
        <ele>394</ele>
        <time>2018-07-28T14:06:17.000Z</time>
      </trkpt>
      <trkpt lat="43.94652" lon="7.27419">
        <ele>394</ele>
        <time>2018-07-28T14:06:18.000Z</time>
      </trkpt>
      <trkpt lat="43.94652" lon="7.27422">
        <ele>394</ele>
        <time>2018-07-28T14:06:19.000Z</time>
      </trkpt>
      <trkpt lat="43.94654" lon="7.27425">
        <ele>394</ele>
        <time>2018-07-28T14:06:20.000Z</time>
      </trkpt>
      <trkpt lat="43.94655" lon="7.27428">
        <ele>394</ele>
        <time>2018-07-28T14:06:21.000Z</time>
      </trkpt>
      <trkpt lat="43.94655" lon="7.27433">
        <ele>394</ele>
        <time>2018-07-28T14:06:22.000Z</time>
      </trkpt>
      <trkpt lat="43.94656" lon="7.27437">
        <ele>394</ele>
        <time>2018-07-28T14:06:23.000Z</time>
      </trkpt>
      <trkpt lat="43.9466" lon="7.27448">
        <ele>394</ele>
        <time>2018-07-28T14:06:25.000Z</time>
      </trkpt>
      <trkpt lat="43.94666" lon="7.27463">
        <ele>394</ele>
        <time>2018-07-28T14:06:27.000Z</time>
      </trkpt>
      <trkpt lat="43.9467" lon="7.27488">
        <ele>396</ele>
        <time>2018-07-28T14:06:30.000Z</time>
      </trkpt>
      <trkpt lat="43.9467" lon="7.27497">
        <ele>393</ele>
        <time>2018-07-28T14:06:31.000Z</time>
      </trkpt>
      <trkpt lat="43.94664" lon="7.27528">
        <ele>393</ele>
        <time>2018-07-28T14:06:34.000Z</time>
      </trkpt>
      <trkpt lat="43.94662" lon="7.27535">
        <ele>394</ele>
        <time>2018-07-28T14:06:35.000Z</time>
      </trkpt>
      <trkpt lat="43.94656" lon="7.2755">
        <ele>395</ele>
        <time>2018-07-28T14:06:36.000Z</time>
      </trkpt>
      <trkpt lat="43.94647" lon="7.27569">
        <ele>397</ele>
        <time>2018-07-28T14:06:38.000Z</time>
      </trkpt>
      <trkpt lat="43.94636" lon="7.2759">
        <ele>401</ele>
        <time>2018-07-28T14:06:40.000Z</time>
      </trkpt>
      <trkpt lat="43.94622" lon="7.2761">
        <ele>400</ele>
        <time>2018-07-28T14:06:42.000Z</time>
      </trkpt>
      <trkpt lat="43.94615" lon="7.2762">
        <ele>399</ele>
        <time>2018-07-28T14:06:43.000Z</time>
      </trkpt>
      <trkpt lat="43.94607" lon="7.27629">
        <ele>399</ele>
        <time>2018-07-28T14:06:44.000Z</time>
      </trkpt>
      <trkpt lat="43.9459" lon="7.27647">
        <ele>396</ele>
        <time>2018-07-28T14:06:46.000Z</time>
      </trkpt>
      <trkpt lat="43.94582" lon="7.27657">
        <ele>388</ele>
        <time>2018-07-28T14:06:47.000Z</time>
      </trkpt>
      <trkpt lat="43.94574" lon="7.27665">
        <ele>388</ele>
        <time>2018-07-28T14:06:48.000Z</time>
      </trkpt>
      <trkpt lat="43.94555" lon="7.27684">
        <ele>391</ele>
        <time>2018-07-28T14:06:50.000Z</time>
      </trkpt>
      <trkpt lat="43.94534" lon="7.27699">
        <ele>389</ele>
        <time>2018-07-28T14:06:52.000Z</time>
      </trkpt>
      <trkpt lat="43.94516" lon="7.27718">
        <ele>388</ele>
        <time>2018-07-28T14:06:54.000Z</time>
      </trkpt>
      <trkpt lat="43.94508" lon="7.27729">
        <ele>386</ele>
        <time>2018-07-28T14:06:55.000Z</time>
      </trkpt>
      <trkpt lat="43.94481" lon="7.27777">
        <ele>380</ele>
        <time>2018-07-28T14:06:59.000Z</time>
      </trkpt>
      <trkpt lat="43.94474" lon="7.2779">
        <ele>380</ele>
        <time>2018-07-28T14:07:00.000Z</time>
      </trkpt>
      <trkpt lat="43.94466" lon="7.27802">
        <ele>380</ele>
        <time>2018-07-28T14:07:01.000Z</time>
      </trkpt>
      <trkpt lat="43.94452" lon="7.27825">
        <ele>379</ele>
        <time>2018-07-28T14:07:03.000Z</time>
      </trkpt>
      <trkpt lat="43.94438" lon="7.27851">
        <ele>384</ele>
        <time>2018-07-28T14:07:05.000Z</time>
      </trkpt>
      <trkpt lat="43.94432" lon="7.27866">
        <ele>385</ele>
        <time>2018-07-28T14:07:06.000Z</time>
      </trkpt>
      <trkpt lat="43.94426" lon="7.27881">
        <ele>385</ele>
        <time>2018-07-28T14:07:07.000Z</time>
      </trkpt>
      <trkpt lat="43.94419" lon="7.27894">
        <ele>384</ele>
        <time>2018-07-28T14:07:08.000Z</time>
      </trkpt>
      <trkpt lat="43.9441" lon="7.27907">
        <ele>373</ele>
        <time>2018-07-28T14:07:09.000Z</time>
      </trkpt>
      <trkpt lat="43.94402" lon="7.27918">
        <ele>374</ele>
        <time>2018-07-28T14:07:10.000Z</time>
      </trkpt>
      <trkpt lat="43.94394" lon="7.27929">
        <ele>372</ele>
        <time>2018-07-28T14:07:11.000Z</time>
      </trkpt>
      <trkpt lat="43.9437" lon="7.27968">
        <ele>369</ele>
        <time>2018-07-28T14:07:14.000Z</time>
      </trkpt>
      <trkpt lat="43.94357" lon="7.27998">
        <ele>365</ele>
        <time>2018-07-28T14:07:16.000Z</time>
      </trkpt>
      <trkpt lat="43.94346" lon="7.28026">
        <ele>367</ele>
        <time>2018-07-28T14:07:18.000Z</time>
      </trkpt>
      <trkpt lat="43.9434" lon="7.2806">
        <ele>366</ele>
        <time>2018-07-28T14:07:20.000Z</time>
      </trkpt>
      <trkpt lat="43.94336" lon="7.28094">
        <ele>361</ele>
        <time>2018-07-28T14:07:22.000Z</time>
      </trkpt>
      <trkpt lat="43.94332" lon="7.28127">
        <ele>351</ele>
        <time>2018-07-28T14:07:24.000Z</time>
      </trkpt>
      <trkpt lat="43.94326" lon="7.2816">
        <ele>352</ele>
        <time>2018-07-28T14:07:26.000Z</time>
      </trkpt>
      <trkpt lat="43.94324" lon="7.28177">
        <ele>349</ele>
        <time>2018-07-28T14:07:27.000Z</time>
      </trkpt>
      <trkpt lat="43.94322" lon="7.28193">
        <ele>347</ele>
        <time>2018-07-28T14:07:28.000Z</time>
      </trkpt>
      <trkpt lat="43.94321" lon="7.28209">
        <ele>346</ele>
        <time>2018-07-28T14:07:29.000Z</time>
      </trkpt>
      <trkpt lat="43.94323" lon="7.28225">
        <ele>345</ele>
        <time>2018-07-28T14:07:30.000Z</time>
      </trkpt>
      <trkpt lat="43.94327" lon="7.28239">
        <ele>344</ele>
        <time>2018-07-28T14:07:31.000Z</time>
      </trkpt>
      <trkpt lat="43.94334" lon="7.28252">
        <ele>343</ele>
        <time>2018-07-28T14:07:32.000Z</time>
      </trkpt>
      <trkpt lat="43.94339" lon="7.28263">
        <ele>345</ele>
        <time>2018-07-28T14:07:33.000Z</time>
      </trkpt>
      <trkpt lat="43.94342" lon="7.28274">
        <ele>346</ele>
        <time>2018-07-28T14:07:34.000Z</time>
      </trkpt>
      <trkpt lat="43.94341" lon="7.28283">
        <ele>346</ele>
        <time>2018-07-28T14:07:35.000Z</time>
      </trkpt>
      <trkpt lat="43.94337" lon="7.28287">
        <ele>346</ele>
        <time>2018-07-28T14:07:36.000Z</time>
      </trkpt>
      <trkpt lat="43.94332" lon="7.28288">
        <ele>344</ele>
        <time>2018-07-28T14:07:37.000Z</time>
      </trkpt>
      <trkpt lat="43.94327" lon="7.28287">
        <ele>344</ele>
        <time>2018-07-28T14:07:38.000Z</time>
      </trkpt>
      <trkpt lat="43.94321" lon="7.28286">
        <ele>344</ele>
        <time>2018-07-28T14:07:39.000Z</time>
      </trkpt>
      <trkpt lat="43.94315" lon="7.28287">
        <ele>344</ele>
        <time>2018-07-28T14:07:40.000Z</time>
      </trkpt>
      <trkpt lat="43.94306" lon="7.28294">
        <ele>344</ele>
        <time>2018-07-28T14:07:42.000Z</time>
      </trkpt>
      <trkpt lat="43.94301" lon="7.28297">
        <ele>344</ele>
        <time>2018-07-28T14:07:43.000Z</time>
      </trkpt>
      <trkpt lat="43.94287" lon="7.28296">
        <ele>344</ele>
        <time>2018-07-28T14:07:46.000Z</time>
      </trkpt>
      <trkpt lat="43.94281" lon="7.28292">
        <ele>344</ele>
        <time>2018-07-28T14:07:49.000Z</time>
      </trkpt>
      <trkpt lat="43.94281" lon="7.28292">
        <ele>344</ele>
        <time>2018-07-28T14:07:53.000Z</time>
      </trkpt>
      <trkpt lat="43.9428" lon="7.28291">
        <ele>344</ele>
        <time>2018-07-28T14:08:00.000Z</time>
      </trkpt>
      <trkpt lat="43.9428" lon="7.28291">
        <ele>344</ele>
        <time>2018-07-28T14:08:06.000Z</time>
      </trkpt>
      <trkpt lat="43.9428" lon="7.2829">
        <ele>344</ele>
        <time>2018-07-28T14:08:15.000Z</time>
      </trkpt>
      <trkpt lat="43.9428" lon="7.2829">
        <ele>344</ele>
        <time>2018-07-28T14:08:16.000Z</time>
      </trkpt>
    </trkseg>
  </trk>
</gpx>